<?xml version="1.0" encoding="UTF-8" standalone="no" ?>
<gpx xmlns="http://www.topografix.com/GPX/1/1" xmlns:xsi="http://www.w3.org/2001/XMLSchema-instance" xsi:schemaLocation="http://www.topografix.com/GPX/1/1 http://www.topografix.com/GPX/1/1/gpx.xsd" version="1.1" creator="VisuGPX - https://www.visugpx.com">
  <metadata>
    <name>Dondas 8.9 km</name>
  </metadata>
  <trk>
    <name><![CDATA[2025 08 17 Dondas Pierre 8]]></name>
    <extensions>
      <line xmlns="http://www.topografix.com/GPX/gpx_style/0/2">
        <color>0000FF</color>
        <width>4</width>
      </line>
    </extensions>
    <trkseg>
      <trkpt lat="44.25353" lon="0.83708">
        <ele>149</ele>
        <time>2025-08-17T06:28:49.569Z</time>
      </trkpt>
      <trkpt lat="44.25354" lon="0.83708">
        <ele>153</ele>
        <time>2025-08-17T06:28:50.569Z</time>
      </trkpt>
      <trkpt lat="44.25353" lon="0.83708">
        <ele>157</ele>
        <time>2025-08-17T06:28:51.569Z</time>
      </trkpt>
      <trkpt lat="44.25352" lon="0.8371">
        <ele>160</ele>
        <time>2025-08-17T06:28:52.569Z</time>
      </trkpt>
      <trkpt lat="44.25352" lon="0.8371">
        <ele>162</ele>
        <time>2025-08-17T06:28:53.569Z</time>
      </trkpt>
      <trkpt lat="44.25352" lon="0.8371">
        <ele>164</ele>
        <time>2025-08-17T06:28:54.569Z</time>
      </trkpt>
      <trkpt lat="44.25352" lon="0.83711">
        <ele>165</ele>
        <time>2025-08-17T06:28:55.569Z</time>
      </trkpt>
      <trkpt lat="44.25352" lon="0.83712">
        <ele>167</ele>
        <time>2025-08-17T06:28:56.569Z</time>
      </trkpt>
      <trkpt lat="44.25351" lon="0.83713">
        <ele>168</ele>
        <time>2025-08-17T06:28:57.569Z</time>
      </trkpt>
      <trkpt lat="44.2535" lon="0.83714">
        <ele>170</ele>
        <time>2025-08-17T06:28:58.569Z</time>
      </trkpt>
      <trkpt lat="44.2535" lon="0.83714">
        <ele>171</ele>
        <time>2025-08-17T06:28:59.569Z</time>
      </trkpt>
      <trkpt lat="44.2535" lon="0.83714">
        <ele>172</ele>
        <time>2025-08-17T06:29:00.569Z</time>
      </trkpt>
      <trkpt lat="44.2535" lon="0.83714">
        <ele>172</ele>
        <time>2025-08-17T06:29:01.569Z</time>
      </trkpt>
      <trkpt lat="44.2535" lon="0.83713">
        <ele>173</ele>
        <time>2025-08-17T06:29:02.569Z</time>
      </trkpt>
      <trkpt lat="44.2535" lon="0.83713">
        <ele>174</ele>
        <time>2025-08-17T06:29:03.569Z</time>
      </trkpt>
      <trkpt lat="44.2535" lon="0.83714">
        <ele>174</ele>
        <time>2025-08-17T06:29:04.569Z</time>
      </trkpt>
      <trkpt lat="44.2535" lon="0.83714">
        <ele>175</ele>
        <time>2025-08-17T06:29:05.569Z</time>
      </trkpt>
      <trkpt lat="44.25349" lon="0.83714">
        <ele>175</ele>
        <time>2025-08-17T06:29:06.569Z</time>
      </trkpt>
      <trkpt lat="44.25349" lon="0.83714">
        <ele>175</ele>
        <time>2025-08-17T06:29:07.569Z</time>
      </trkpt>
      <trkpt lat="44.25349" lon="0.83714">
        <ele>176</ele>
        <time>2025-08-17T06:29:08.569Z</time>
      </trkpt>
      <trkpt lat="44.2535" lon="0.83715">
        <ele>177</ele>
        <time>2025-08-17T06:29:09.569Z</time>
      </trkpt>
      <trkpt lat="44.2535" lon="0.83715">
        <ele>177</ele>
        <time>2025-08-17T06:29:10.569Z</time>
      </trkpt>
      <trkpt lat="44.25351" lon="0.83715">
        <ele>178</ele>
        <time>2025-08-17T06:29:11.569Z</time>
      </trkpt>
      <trkpt lat="44.25352" lon="0.83715">
        <ele>179</ele>
        <time>2025-08-17T06:29:12.569Z</time>
      </trkpt>
      <trkpt lat="44.25353" lon="0.83714">
        <ele>180</ele>
        <time>2025-08-17T06:29:13.569Z</time>
      </trkpt>
      <trkpt lat="44.25353" lon="0.83713">
        <ele>181</ele>
        <time>2025-08-17T06:29:14.569Z</time>
      </trkpt>
      <trkpt lat="44.25354" lon="0.83714">
        <ele>182</ele>
        <time>2025-08-17T06:29:15.569Z</time>
      </trkpt>
      <trkpt lat="44.25355" lon="0.83715">
        <ele>183</ele>
        <time>2025-08-17T06:29:16.569Z</time>
      </trkpt>
      <trkpt lat="44.25356" lon="0.83715">
        <ele>184</ele>
        <time>2025-08-17T06:29:17.569Z</time>
      </trkpt>
      <trkpt lat="44.25357" lon="0.83716">
        <ele>186</ele>
        <time>2025-08-17T06:29:18.569Z</time>
      </trkpt>
      <trkpt lat="44.25357" lon="0.83717">
        <ele>187</ele>
        <time>2025-08-17T06:29:19.569Z</time>
      </trkpt>
      <trkpt lat="44.25358" lon="0.83718">
        <ele>188</ele>
        <time>2025-08-17T06:29:20.569Z</time>
      </trkpt>
      <trkpt lat="44.25358" lon="0.83719">
        <ele>189</ele>
        <time>2025-08-17T06:29:21.569Z</time>
      </trkpt>
      <trkpt lat="44.25358" lon="0.8372">
        <ele>190</ele>
        <time>2025-08-17T06:29:22.569Z</time>
      </trkpt>
      <trkpt lat="44.25359" lon="0.83722">
        <ele>190</ele>
        <time>2025-08-17T06:29:23.569Z</time>
      </trkpt>
      <trkpt lat="44.25359" lon="0.83722">
        <ele>191</ele>
        <time>2025-08-17T06:29:24.569Z</time>
      </trkpt>
      <trkpt lat="44.2536" lon="0.83722">
        <ele>192</ele>
        <time>2025-08-17T06:29:25.569Z</time>
      </trkpt>
      <trkpt lat="44.25359" lon="0.83723">
        <ele>192</ele>
        <time>2025-08-17T06:29:26.569Z</time>
      </trkpt>
      <trkpt lat="44.2536" lon="0.83724">
        <ele>192</ele>
        <time>2025-08-17T06:29:27.569Z</time>
      </trkpt>
      <trkpt lat="44.2536" lon="0.83725">
        <ele>193</ele>
        <time>2025-08-17T06:29:28.569Z</time>
      </trkpt>
      <trkpt lat="44.2536" lon="0.83726">
        <ele>193</ele>
        <time>2025-08-17T06:29:29.569Z</time>
      </trkpt>
      <trkpt lat="44.25361" lon="0.83728">
        <ele>193</ele>
        <time>2025-08-17T06:29:30.569Z</time>
      </trkpt>
      <trkpt lat="44.2536" lon="0.83729">
        <ele>192</ele>
        <time>2025-08-17T06:29:31.569Z</time>
      </trkpt>
      <trkpt lat="44.2536" lon="0.8373">
        <ele>192</ele>
        <time>2025-08-17T06:29:32.569Z</time>
      </trkpt>
      <trkpt lat="44.2536" lon="0.83731">
        <ele>192</ele>
        <time>2025-08-17T06:29:33.569Z</time>
      </trkpt>
      <trkpt lat="44.25361" lon="0.83733">
        <ele>192</ele>
        <time>2025-08-17T06:29:34.569Z</time>
      </trkpt>
      <trkpt lat="44.25361" lon="0.83734">
        <ele>191</ele>
        <time>2025-08-17T06:29:35.569Z</time>
      </trkpt>
      <trkpt lat="44.25361" lon="0.83735">
        <ele>191</ele>
        <time>2025-08-17T06:29:36.569Z</time>
      </trkpt>
      <trkpt lat="44.25361" lon="0.83737">
        <ele>191</ele>
        <time>2025-08-17T06:29:37.569Z</time>
      </trkpt>
      <trkpt lat="44.2536" lon="0.83738">
        <ele>191</ele>
        <time>2025-08-17T06:29:38.569Z</time>
      </trkpt>
      <trkpt lat="44.2536" lon="0.8374">
        <ele>191</ele>
        <time>2025-08-17T06:29:39.569Z</time>
      </trkpt>
      <trkpt lat="44.25359" lon="0.83742">
        <ele>191</ele>
        <time>2025-08-17T06:29:40.569Z</time>
      </trkpt>
      <trkpt lat="44.25358" lon="0.83745">
        <ele>190</ele>
        <time>2025-08-17T06:29:41.569Z</time>
      </trkpt>
      <trkpt lat="44.25357" lon="0.83747">
        <ele>190</ele>
        <time>2025-08-17T06:29:42.569Z</time>
      </trkpt>
      <trkpt lat="44.25356" lon="0.8375">
        <ele>190</ele>
        <time>2025-08-17T06:29:43.569Z</time>
      </trkpt>
      <trkpt lat="44.25356" lon="0.83752">
        <ele>191</ele>
        <time>2025-08-17T06:29:44.569Z</time>
      </trkpt>
      <trkpt lat="44.25355" lon="0.83753">
        <ele>191</ele>
        <time>2025-08-17T06:29:45.569Z</time>
      </trkpt>
      <trkpt lat="44.25355" lon="0.83755">
        <ele>190</ele>
        <time>2025-08-17T06:29:46.569Z</time>
      </trkpt>
      <trkpt lat="44.25355" lon="0.83756">
        <ele>190</ele>
        <time>2025-08-17T06:29:47.569Z</time>
      </trkpt>
      <trkpt lat="44.25354" lon="0.83757">
        <ele>190</ele>
        <time>2025-08-17T06:29:48.569Z</time>
      </trkpt>
      <trkpt lat="44.25354" lon="0.83759">
        <ele>190</ele>
        <time>2025-08-17T06:29:49.569Z</time>
      </trkpt>
      <trkpt lat="44.25354" lon="0.8376">
        <ele>190</ele>
        <time>2025-08-17T06:29:50.569Z</time>
      </trkpt>
      <trkpt lat="44.25355" lon="0.83761">
        <ele>189</ele>
        <time>2025-08-17T06:29:51.569Z</time>
      </trkpt>
      <trkpt lat="44.25355" lon="0.83763">
        <ele>189</ele>
        <time>2025-08-17T06:29:52.569Z</time>
      </trkpt>
      <trkpt lat="44.25353" lon="0.83765">
        <ele>189</ele>
        <time>2025-08-17T06:29:53.569Z</time>
      </trkpt>
      <trkpt lat="44.25353" lon="0.83766">
        <ele>188</ele>
        <time>2025-08-17T06:29:54.569Z</time>
      </trkpt>
      <trkpt lat="44.25353" lon="0.83767">
        <ele>188</ele>
        <time>2025-08-17T06:29:55.569Z</time>
      </trkpt>
      <trkpt lat="44.25354" lon="0.83769">
        <ele>188</ele>
        <time>2025-08-17T06:29:56.569Z</time>
      </trkpt>
      <trkpt lat="44.25354" lon="0.8377">
        <ele>188</ele>
        <time>2025-08-17T06:29:57.569Z</time>
      </trkpt>
      <trkpt lat="44.25354" lon="0.83771">
        <ele>188</ele>
        <time>2025-08-17T06:29:58.569Z</time>
      </trkpt>
      <trkpt lat="44.25355" lon="0.83772">
        <ele>188</ele>
        <time>2025-08-17T06:29:59.569Z</time>
      </trkpt>
      <trkpt lat="44.25355" lon="0.83773">
        <ele>188</ele>
        <time>2025-08-17T06:30:00.569Z</time>
      </trkpt>
      <trkpt lat="44.25355" lon="0.83775">
        <ele>188</ele>
        <time>2025-08-17T06:30:01.569Z</time>
      </trkpt>
      <trkpt lat="44.25355" lon="0.83776">
        <ele>188</ele>
        <time>2025-08-17T06:30:02.569Z</time>
      </trkpt>
      <trkpt lat="44.25355" lon="0.83777">
        <ele>188</ele>
        <time>2025-08-17T06:30:03.569Z</time>
      </trkpt>
      <trkpt lat="44.25356" lon="0.83778">
        <ele>188</ele>
        <time>2025-08-17T06:30:04.569Z</time>
      </trkpt>
      <trkpt lat="44.25356" lon="0.83779">
        <ele>189</ele>
        <time>2025-08-17T06:30:05.569Z</time>
      </trkpt>
      <trkpt lat="44.25356" lon="0.83781">
        <ele>189</ele>
        <time>2025-08-17T06:30:06.569Z</time>
      </trkpt>
      <trkpt lat="44.25355" lon="0.83782">
        <ele>189</ele>
        <time>2025-08-17T06:30:07.569Z</time>
      </trkpt>
      <trkpt lat="44.25355" lon="0.83784">
        <ele>188</ele>
        <time>2025-08-17T06:30:08.569Z</time>
      </trkpt>
      <trkpt lat="44.25355" lon="0.83785">
        <ele>188</ele>
        <time>2025-08-17T06:30:09.569Z</time>
      </trkpt>
      <trkpt lat="44.25356" lon="0.83787">
        <ele>188</ele>
        <time>2025-08-17T06:30:10.569Z</time>
      </trkpt>
      <trkpt lat="44.25356" lon="0.83788">
        <ele>188</ele>
        <time>2025-08-17T06:30:11.569Z</time>
      </trkpt>
      <trkpt lat="44.25356" lon="0.83789">
        <ele>188</ele>
        <time>2025-08-17T06:30:12.569Z</time>
      </trkpt>
      <trkpt lat="44.25356" lon="0.8379">
        <ele>188</ele>
        <time>2025-08-17T06:30:13.569Z</time>
      </trkpt>
      <trkpt lat="44.25356" lon="0.83792">
        <ele>188</ele>
        <time>2025-08-17T06:30:14.569Z</time>
      </trkpt>
      <trkpt lat="44.25356" lon="0.83793">
        <ele>188</ele>
        <time>2025-08-17T06:30:15.569Z</time>
      </trkpt>
      <trkpt lat="44.25356" lon="0.83795">
        <ele>188</ele>
        <time>2025-08-17T06:30:16.569Z</time>
      </trkpt>
      <trkpt lat="44.25356" lon="0.83796">
        <ele>187</ele>
        <time>2025-08-17T06:30:17.569Z</time>
      </trkpt>
      <trkpt lat="44.25357" lon="0.83798">
        <ele>187</ele>
        <time>2025-08-17T06:30:18.569Z</time>
      </trkpt>
      <trkpt lat="44.25357" lon="0.83799">
        <ele>187</ele>
        <time>2025-08-17T06:30:19.569Z</time>
      </trkpt>
      <trkpt lat="44.25357" lon="0.838">
        <ele>187</ele>
        <time>2025-08-17T06:30:20.569Z</time>
      </trkpt>
      <trkpt lat="44.25356" lon="0.83802">
        <ele>187</ele>
        <time>2025-08-17T06:30:21.569Z</time>
      </trkpt>
      <trkpt lat="44.25356" lon="0.83803">
        <ele>187</ele>
        <time>2025-08-17T06:30:22.569Z</time>
      </trkpt>
      <trkpt lat="44.25356" lon="0.83805">
        <ele>187</ele>
        <time>2025-08-17T06:30:23.569Z</time>
      </trkpt>
      <trkpt lat="44.25355" lon="0.83807">
        <ele>187</ele>
        <time>2025-08-17T06:30:24.569Z</time>
      </trkpt>
      <trkpt lat="44.25355" lon="0.83808">
        <ele>187</ele>
        <time>2025-08-17T06:30:25.569Z</time>
      </trkpt>
      <trkpt lat="44.25355" lon="0.8381">
        <ele>187</ele>
        <time>2025-08-17T06:30:26.569Z</time>
      </trkpt>
      <trkpt lat="44.25355" lon="0.83812">
        <ele>188</ele>
        <time>2025-08-17T06:30:27.569Z</time>
      </trkpt>
      <trkpt lat="44.25354" lon="0.83814">
        <ele>188</ele>
        <time>2025-08-17T06:30:28.569Z</time>
      </trkpt>
      <trkpt lat="44.25354" lon="0.83816">
        <ele>188</ele>
        <time>2025-08-17T06:30:29.569Z</time>
      </trkpt>
      <trkpt lat="44.25354" lon="0.83817">
        <ele>189</ele>
        <time>2025-08-17T06:30:30.569Z</time>
      </trkpt>
      <trkpt lat="44.25354" lon="0.83818">
        <ele>189</ele>
        <time>2025-08-17T06:30:31.569Z</time>
      </trkpt>
      <trkpt lat="44.25354" lon="0.8382">
        <ele>189</ele>
        <time>2025-08-17T06:30:32.569Z</time>
      </trkpt>
      <trkpt lat="44.25354" lon="0.83821">
        <ele>188</ele>
        <time>2025-08-17T06:30:33.569Z</time>
      </trkpt>
      <trkpt lat="44.25354" lon="0.83822">
        <ele>188</ele>
        <time>2025-08-17T06:30:34.569Z</time>
      </trkpt>
      <trkpt lat="44.25353" lon="0.83824">
        <ele>187</ele>
        <time>2025-08-17T06:30:35.569Z</time>
      </trkpt>
      <trkpt lat="44.25353" lon="0.83825">
        <ele>187</ele>
        <time>2025-08-17T06:30:36.569Z</time>
      </trkpt>
      <trkpt lat="44.25353" lon="0.83827">
        <ele>187</ele>
        <time>2025-08-17T06:30:37.569Z</time>
      </trkpt>
      <trkpt lat="44.25353" lon="0.83829">
        <ele>187</ele>
        <time>2025-08-17T06:30:38.569Z</time>
      </trkpt>
      <trkpt lat="44.25353" lon="0.8383">
        <ele>187</ele>
        <time>2025-08-17T06:30:39.569Z</time>
      </trkpt>
      <trkpt lat="44.25354" lon="0.83831">
        <ele>187</ele>
        <time>2025-08-17T06:30:40.569Z</time>
      </trkpt>
      <trkpt lat="44.25354" lon="0.83832">
        <ele>187</ele>
        <time>2025-08-17T06:30:41.569Z</time>
      </trkpt>
      <trkpt lat="44.25355" lon="0.83832">
        <ele>187</ele>
        <time>2025-08-17T06:30:42.569Z</time>
      </trkpt>
      <trkpt lat="44.25355" lon="0.83834">
        <ele>186</ele>
        <time>2025-08-17T06:30:43.569Z</time>
      </trkpt>
      <trkpt lat="44.25354" lon="0.83835">
        <ele>186</ele>
        <time>2025-08-17T06:30:44.569Z</time>
      </trkpt>
      <trkpt lat="44.25354" lon="0.83836">
        <ele>186</ele>
        <time>2025-08-17T06:30:45.569Z</time>
      </trkpt>
      <trkpt lat="44.25353" lon="0.83838">
        <ele>186</ele>
        <time>2025-08-17T06:30:46.569Z</time>
      </trkpt>
      <trkpt lat="44.25352" lon="0.8384">
        <ele>186</ele>
        <time>2025-08-17T06:30:47.569Z</time>
      </trkpt>
      <trkpt lat="44.25352" lon="0.83842">
        <ele>186</ele>
        <time>2025-08-17T06:30:48.569Z</time>
      </trkpt>
      <trkpt lat="44.25351" lon="0.83844">
        <ele>186</ele>
        <time>2025-08-17T06:30:49.569Z</time>
      </trkpt>
      <trkpt lat="44.25351" lon="0.83845">
        <ele>186</ele>
        <time>2025-08-17T06:30:50.569Z</time>
      </trkpt>
      <trkpt lat="44.25351" lon="0.83847">
        <ele>187</ele>
        <time>2025-08-17T06:30:51.569Z</time>
      </trkpt>
      <trkpt lat="44.2535" lon="0.83849">
        <ele>187</ele>
        <time>2025-08-17T06:30:52.569Z</time>
      </trkpt>
      <trkpt lat="44.2535" lon="0.8385">
        <ele>187</ele>
        <time>2025-08-17T06:30:53.569Z</time>
      </trkpt>
      <trkpt lat="44.25349" lon="0.83852">
        <ele>187</ele>
        <time>2025-08-17T06:30:54.569Z</time>
      </trkpt>
      <trkpt lat="44.25349" lon="0.83854">
        <ele>187</ele>
        <time>2025-08-17T06:30:55.569Z</time>
      </trkpt>
      <trkpt lat="44.25348" lon="0.83856">
        <ele>187</ele>
        <time>2025-08-17T06:30:56.569Z</time>
      </trkpt>
      <trkpt lat="44.25348" lon="0.83857">
        <ele>187</ele>
        <time>2025-08-17T06:30:57.569Z</time>
      </trkpt>
      <trkpt lat="44.25348" lon="0.83859">
        <ele>187</ele>
        <time>2025-08-17T06:30:58.569Z</time>
      </trkpt>
      <trkpt lat="44.25348" lon="0.8386">
        <ele>187</ele>
        <time>2025-08-17T06:30:59.569Z</time>
      </trkpt>
      <trkpt lat="44.25349" lon="0.83862">
        <ele>187</ele>
        <time>2025-08-17T06:31:00.569Z</time>
      </trkpt>
      <trkpt lat="44.25349" lon="0.83864">
        <ele>187</ele>
        <time>2025-08-17T06:31:01.569Z</time>
      </trkpt>
      <trkpt lat="44.2535" lon="0.83865">
        <ele>187</ele>
        <time>2025-08-17T06:31:02.569Z</time>
      </trkpt>
      <trkpt lat="44.25351" lon="0.83867">
        <ele>187</ele>
        <time>2025-08-17T06:31:03.569Z</time>
      </trkpt>
      <trkpt lat="44.25352" lon="0.83868">
        <ele>187</ele>
        <time>2025-08-17T06:31:04.569Z</time>
      </trkpt>
      <trkpt lat="44.25352" lon="0.83869">
        <ele>188</ele>
        <time>2025-08-17T06:31:05.569Z</time>
      </trkpt>
      <trkpt lat="44.25353" lon="0.8387">
        <ele>188</ele>
        <time>2025-08-17T06:31:06.569Z</time>
      </trkpt>
      <trkpt lat="44.25354" lon="0.83871">
        <ele>188</ele>
        <time>2025-08-17T06:31:07.569Z</time>
      </trkpt>
      <trkpt lat="44.25355" lon="0.83872">
        <ele>188</ele>
        <time>2025-08-17T06:31:08.569Z</time>
      </trkpt>
      <trkpt lat="44.25356" lon="0.83873">
        <ele>189</ele>
        <time>2025-08-17T06:31:09.569Z</time>
      </trkpt>
      <trkpt lat="44.25357" lon="0.83875">
        <ele>189</ele>
        <time>2025-08-17T06:31:10.569Z</time>
      </trkpt>
      <trkpt lat="44.25358" lon="0.83876">
        <ele>189</ele>
        <time>2025-08-17T06:31:11.569Z</time>
      </trkpt>
      <trkpt lat="44.25359" lon="0.83877">
        <ele>189</ele>
        <time>2025-08-17T06:31:12.569Z</time>
      </trkpt>
      <trkpt lat="44.2536" lon="0.83878">
        <ele>189</ele>
        <time>2025-08-17T06:31:13.569Z</time>
      </trkpt>
      <trkpt lat="44.25361" lon="0.83879">
        <ele>189</ele>
        <time>2025-08-17T06:31:14.569Z</time>
      </trkpt>
      <trkpt lat="44.25362" lon="0.83881">
        <ele>189</ele>
        <time>2025-08-17T06:31:15.569Z</time>
      </trkpt>
      <trkpt lat="44.25363" lon="0.83882">
        <ele>189</ele>
        <time>2025-08-17T06:31:16.569Z</time>
      </trkpt>
      <trkpt lat="44.25363" lon="0.83883">
        <ele>189</ele>
        <time>2025-08-17T06:31:17.569Z</time>
      </trkpt>
      <trkpt lat="44.25364" lon="0.83884">
        <ele>189</ele>
        <time>2025-08-17T06:31:18.569Z</time>
      </trkpt>
      <trkpt lat="44.25366" lon="0.83885">
        <ele>190</ele>
        <time>2025-08-17T06:31:19.569Z</time>
      </trkpt>
      <trkpt lat="44.25367" lon="0.83885">
        <ele>190</ele>
        <time>2025-08-17T06:31:20.569Z</time>
      </trkpt>
      <trkpt lat="44.25368" lon="0.83886">
        <ele>190</ele>
        <time>2025-08-17T06:31:21.569Z</time>
      </trkpt>
      <trkpt lat="44.25369" lon="0.83887">
        <ele>190</ele>
        <time>2025-08-17T06:31:22.569Z</time>
      </trkpt>
      <trkpt lat="44.2537" lon="0.83887">
        <ele>190</ele>
        <time>2025-08-17T06:31:23.569Z</time>
      </trkpt>
      <trkpt lat="44.2537" lon="0.83888">
        <ele>190</ele>
        <time>2025-08-17T06:31:24.569Z</time>
      </trkpt>
      <trkpt lat="44.25371" lon="0.83889">
        <ele>191</ele>
        <time>2025-08-17T06:31:25.569Z</time>
      </trkpt>
      <trkpt lat="44.25372" lon="0.83889">
        <ele>191</ele>
        <time>2025-08-17T06:31:26.569Z</time>
      </trkpt>
      <trkpt lat="44.25373" lon="0.8389">
        <ele>191</ele>
        <time>2025-08-17T06:31:27.569Z</time>
      </trkpt>
      <trkpt lat="44.25374" lon="0.83891">
        <ele>191</ele>
        <time>2025-08-17T06:31:28.569Z</time>
      </trkpt>
      <trkpt lat="44.25375" lon="0.83892">
        <ele>190</ele>
        <time>2025-08-17T06:31:29.569Z</time>
      </trkpt>
      <trkpt lat="44.25375" lon="0.83893">
        <ele>190</ele>
        <time>2025-08-17T06:31:30.569Z</time>
      </trkpt>
      <trkpt lat="44.25377" lon="0.83894">
        <ele>190</ele>
        <time>2025-08-17T06:31:31.569Z</time>
      </trkpt>
      <trkpt lat="44.25378" lon="0.83895">
        <ele>190</ele>
        <time>2025-08-17T06:31:32.569Z</time>
      </trkpt>
      <trkpt lat="44.25378" lon="0.83896">
        <ele>190</ele>
        <time>2025-08-17T06:31:33.569Z</time>
      </trkpt>
      <trkpt lat="44.25379" lon="0.83897">
        <ele>190</ele>
        <time>2025-08-17T06:31:34.569Z</time>
      </trkpt>
      <trkpt lat="44.2538" lon="0.83898">
        <ele>190</ele>
        <time>2025-08-17T06:31:35.569Z</time>
      </trkpt>
      <trkpt lat="44.25381" lon="0.83899">
        <ele>190</ele>
        <time>2025-08-17T06:31:36.569Z</time>
      </trkpt>
      <trkpt lat="44.25382" lon="0.83901">
        <ele>190</ele>
        <time>2025-08-17T06:31:37.569Z</time>
      </trkpt>
      <trkpt lat="44.25383" lon="0.83901">
        <ele>189</ele>
        <time>2025-08-17T06:31:38.569Z</time>
      </trkpt>
      <trkpt lat="44.25384" lon="0.83902">
        <ele>189</ele>
        <time>2025-08-17T06:31:39.569Z</time>
      </trkpt>
      <trkpt lat="44.25385" lon="0.83903">
        <ele>189</ele>
        <time>2025-08-17T06:31:40.569Z</time>
      </trkpt>
      <trkpt lat="44.25385" lon="0.83904">
        <ele>188</ele>
        <time>2025-08-17T06:31:41.569Z</time>
      </trkpt>
      <trkpt lat="44.25386" lon="0.83905">
        <ele>188</ele>
        <time>2025-08-17T06:31:42.569Z</time>
      </trkpt>
      <trkpt lat="44.25387" lon="0.83906">
        <ele>188</ele>
        <time>2025-08-17T06:31:43.569Z</time>
      </trkpt>
      <trkpt lat="44.25387" lon="0.83908">
        <ele>188</ele>
        <time>2025-08-17T06:31:44.569Z</time>
      </trkpt>
      <trkpt lat="44.25387" lon="0.8391">
        <ele>188</ele>
        <time>2025-08-17T06:31:45.569Z</time>
      </trkpt>
      <trkpt lat="44.25388" lon="0.83912">
        <ele>187</ele>
        <time>2025-08-17T06:31:46.569Z</time>
      </trkpt>
      <trkpt lat="44.25388" lon="0.83914">
        <ele>187</ele>
        <time>2025-08-17T06:31:47.569Z</time>
      </trkpt>
      <trkpt lat="44.25388" lon="0.83915">
        <ele>187</ele>
        <time>2025-08-17T06:31:48.569Z</time>
      </trkpt>
      <trkpt lat="44.25387" lon="0.83917">
        <ele>187</ele>
        <time>2025-08-17T06:31:49.569Z</time>
      </trkpt>
      <trkpt lat="44.25387" lon="0.83918">
        <ele>187</ele>
        <time>2025-08-17T06:31:50.569Z</time>
      </trkpt>
      <trkpt lat="44.25386" lon="0.83919">
        <ele>187</ele>
        <time>2025-08-17T06:31:51.569Z</time>
      </trkpt>
      <trkpt lat="44.25385" lon="0.8392">
        <ele>186</ele>
        <time>2025-08-17T06:31:52.569Z</time>
      </trkpt>
      <trkpt lat="44.25383" lon="0.83921">
        <ele>186</ele>
        <time>2025-08-17T06:31:53.569Z</time>
      </trkpt>
      <trkpt lat="44.25382" lon="0.83921">
        <ele>186</ele>
        <time>2025-08-17T06:31:54.569Z</time>
      </trkpt>
      <trkpt lat="44.25381" lon="0.83922">
        <ele>186</ele>
        <time>2025-08-17T06:31:55.569Z</time>
      </trkpt>
      <trkpt lat="44.2538" lon="0.83922">
        <ele>186</ele>
        <time>2025-08-17T06:31:56.569Z</time>
      </trkpt>
      <trkpt lat="44.25379" lon="0.83923">
        <ele>186</ele>
        <time>2025-08-17T06:31:57.569Z</time>
      </trkpt>
      <trkpt lat="44.25378" lon="0.83923">
        <ele>186</ele>
        <time>2025-08-17T06:31:58.569Z</time>
      </trkpt>
      <trkpt lat="44.25376" lon="0.83924">
        <ele>187</ele>
        <time>2025-08-17T06:31:59.569Z</time>
      </trkpt>
      <trkpt lat="44.25375" lon="0.83924">
        <ele>187</ele>
        <time>2025-08-17T06:32:00.569Z</time>
      </trkpt>
      <trkpt lat="44.25374" lon="0.83925">
        <ele>187</ele>
        <time>2025-08-17T06:32:01.569Z</time>
      </trkpt>
      <trkpt lat="44.25373" lon="0.83926">
        <ele>188</ele>
        <time>2025-08-17T06:32:02.569Z</time>
      </trkpt>
      <trkpt lat="44.25372" lon="0.83928">
        <ele>188</ele>
        <time>2025-08-17T06:32:03.569Z</time>
      </trkpt>
      <trkpt lat="44.25371" lon="0.83929">
        <ele>189</ele>
        <time>2025-08-17T06:32:04.569Z</time>
      </trkpt>
      <trkpt lat="44.25371" lon="0.8393">
        <ele>189</ele>
        <time>2025-08-17T06:32:05.569Z</time>
      </trkpt>
      <trkpt lat="44.25369" lon="0.83931">
        <ele>189</ele>
        <time>2025-08-17T06:32:06.569Z</time>
      </trkpt>
      <trkpt lat="44.25368" lon="0.83933">
        <ele>189</ele>
        <time>2025-08-17T06:32:07.569Z</time>
      </trkpt>
      <trkpt lat="44.25367" lon="0.83934">
        <ele>189</ele>
        <time>2025-08-17T06:32:08.569Z</time>
      </trkpt>
      <trkpt lat="44.25366" lon="0.83936">
        <ele>190</ele>
        <time>2025-08-17T06:32:09.569Z</time>
      </trkpt>
      <trkpt lat="44.25365" lon="0.83937">
        <ele>190</ele>
        <time>2025-08-17T06:32:10.569Z</time>
      </trkpt>
      <trkpt lat="44.25364" lon="0.83937">
        <ele>190</ele>
        <time>2025-08-17T06:32:11.569Z</time>
      </trkpt>
      <trkpt lat="44.25363" lon="0.83938">
        <ele>191</ele>
        <time>2025-08-17T06:32:12.569Z</time>
      </trkpt>
      <trkpt lat="44.25362" lon="0.83939">
        <ele>191</ele>
        <time>2025-08-17T06:32:13.569Z</time>
      </trkpt>
      <trkpt lat="44.25361" lon="0.8394">
        <ele>191</ele>
        <time>2025-08-17T06:32:14.569Z</time>
      </trkpt>
      <trkpt lat="44.2536" lon="0.8394">
        <ele>191</ele>
        <time>2025-08-17T06:32:15.569Z</time>
      </trkpt>
      <trkpt lat="44.25359" lon="0.83941">
        <ele>191</ele>
        <time>2025-08-17T06:32:16.569Z</time>
      </trkpt>
      <trkpt lat="44.25359" lon="0.83942">
        <ele>191</ele>
        <time>2025-08-17T06:32:17.569Z</time>
      </trkpt>
      <trkpt lat="44.25357" lon="0.83943">
        <ele>191</ele>
        <time>2025-08-17T06:32:18.569Z</time>
      </trkpt>
      <trkpt lat="44.25357" lon="0.83944">
        <ele>191</ele>
        <time>2025-08-17T06:32:19.569Z</time>
      </trkpt>
      <trkpt lat="44.25356" lon="0.83945">
        <ele>191</ele>
        <time>2025-08-17T06:32:20.569Z</time>
      </trkpt>
      <trkpt lat="44.25355" lon="0.83946">
        <ele>191</ele>
        <time>2025-08-17T06:32:21.569Z</time>
      </trkpt>
      <trkpt lat="44.25354" lon="0.83947">
        <ele>191</ele>
        <time>2025-08-17T06:32:22.569Z</time>
      </trkpt>
      <trkpt lat="44.25354" lon="0.83947">
        <ele>192</ele>
        <time>2025-08-17T06:32:23.569Z</time>
      </trkpt>
      <trkpt lat="44.25353" lon="0.83949">
        <ele>192</ele>
        <time>2025-08-17T06:32:24.569Z</time>
      </trkpt>
      <trkpt lat="44.25352" lon="0.8395">
        <ele>192</ele>
        <time>2025-08-17T06:32:25.569Z</time>
      </trkpt>
      <trkpt lat="44.25352" lon="0.83951">
        <ele>192</ele>
        <time>2025-08-17T06:32:26.569Z</time>
      </trkpt>
      <trkpt lat="44.25351" lon="0.83952">
        <ele>193</ele>
        <time>2025-08-17T06:32:27.569Z</time>
      </trkpt>
      <trkpt lat="44.2535" lon="0.83953">
        <ele>192</ele>
        <time>2025-08-17T06:32:28.569Z</time>
      </trkpt>
      <trkpt lat="44.2535" lon="0.83954">
        <ele>192</ele>
        <time>2025-08-17T06:32:29.569Z</time>
      </trkpt>
      <trkpt lat="44.25349" lon="0.83956">
        <ele>192</ele>
        <time>2025-08-17T06:32:30.569Z</time>
      </trkpt>
      <trkpt lat="44.25348" lon="0.83956">
        <ele>192</ele>
        <time>2025-08-17T06:32:31.569Z</time>
      </trkpt>
      <trkpt lat="44.25348" lon="0.83957">
        <ele>192</ele>
        <time>2025-08-17T06:32:32.569Z</time>
      </trkpt>
      <trkpt lat="44.25347" lon="0.83957">
        <ele>192</ele>
        <time>2025-08-17T06:32:33.569Z</time>
      </trkpt>
      <trkpt lat="44.25347" lon="0.83956">
        <ele>192</ele>
        <time>2025-08-17T06:32:34.569Z</time>
      </trkpt>
      <trkpt lat="44.25347" lon="0.83956">
        <ele>192</ele>
        <time>2025-08-17T06:32:35.569Z</time>
      </trkpt>
      <trkpt lat="44.25347" lon="0.83956">
        <ele>192</ele>
        <time>2025-08-17T06:32:36.569Z</time>
      </trkpt>
      <trkpt lat="44.25347" lon="0.83956">
        <ele>192</ele>
        <time>2025-08-17T06:32:37.569Z</time>
      </trkpt>
      <trkpt lat="44.25347" lon="0.83956">
        <ele>192</ele>
        <time>2025-08-17T06:32:38.569Z</time>
      </trkpt>
      <trkpt lat="44.25347" lon="0.83956">
        <ele>192</ele>
        <time>2025-08-17T06:32:39.569Z</time>
      </trkpt>
      <trkpt lat="44.25347" lon="0.83955">
        <ele>192</ele>
        <time>2025-08-17T06:32:40.569Z</time>
      </trkpt>
      <trkpt lat="44.25347" lon="0.83955">
        <ele>192</ele>
        <time>2025-08-17T06:32:41.569Z</time>
      </trkpt>
      <trkpt lat="44.25347" lon="0.83955">
        <ele>191</ele>
        <time>2025-08-17T06:32:42.569Z</time>
      </trkpt>
      <trkpt lat="44.25347" lon="0.83955">
        <ele>191</ele>
        <time>2025-08-17T06:32:43.569Z</time>
      </trkpt>
      <trkpt lat="44.25347" lon="0.83955">
        <ele>191</ele>
        <time>2025-08-17T06:32:44.569Z</time>
      </trkpt>
      <trkpt lat="44.25347" lon="0.83955">
        <ele>191</ele>
        <time>2025-08-17T06:32:45.569Z</time>
      </trkpt>
      <trkpt lat="44.25347" lon="0.83955">
        <ele>190</ele>
        <time>2025-08-17T06:32:46.569Z</time>
      </trkpt>
      <trkpt lat="44.25347" lon="0.83955">
        <ele>190</ele>
        <time>2025-08-17T06:32:47.569Z</time>
      </trkpt>
      <trkpt lat="44.25347" lon="0.83956">
        <ele>190</ele>
        <time>2025-08-17T06:32:48.569Z</time>
      </trkpt>
      <trkpt lat="44.25347" lon="0.83957">
        <ele>190</ele>
        <time>2025-08-17T06:32:49.569Z</time>
      </trkpt>
      <trkpt lat="44.25346" lon="0.83959">
        <ele>190</ele>
        <time>2025-08-17T06:32:50.569Z</time>
      </trkpt>
      <trkpt lat="44.25346" lon="0.83959">
        <ele>190</ele>
        <time>2025-08-17T06:32:51.569Z</time>
      </trkpt>
      <trkpt lat="44.25346" lon="0.8396">
        <ele>190</ele>
        <time>2025-08-17T06:32:52.569Z</time>
      </trkpt>
      <trkpt lat="44.25345" lon="0.83961">
        <ele>190</ele>
        <time>2025-08-17T06:32:53.569Z</time>
      </trkpt>
      <trkpt lat="44.25345" lon="0.83962">
        <ele>190</ele>
        <time>2025-08-17T06:32:54.569Z</time>
      </trkpt>
      <trkpt lat="44.25345" lon="0.83964">
        <ele>190</ele>
        <time>2025-08-17T06:32:55.569Z</time>
      </trkpt>
      <trkpt lat="44.25345" lon="0.83965">
        <ele>190</ele>
        <time>2025-08-17T06:32:56.569Z</time>
      </trkpt>
      <trkpt lat="44.25344" lon="0.83966">
        <ele>190</ele>
        <time>2025-08-17T06:32:57.569Z</time>
      </trkpt>
      <trkpt lat="44.25344" lon="0.83967">
        <ele>190</ele>
        <time>2025-08-17T06:32:58.569Z</time>
      </trkpt>
      <trkpt lat="44.25343" lon="0.83968">
        <ele>190</ele>
        <time>2025-08-17T06:32:59.569Z</time>
      </trkpt>
      <trkpt lat="44.25343" lon="0.83969">
        <ele>190</ele>
        <time>2025-08-17T06:33:00.569Z</time>
      </trkpt>
      <trkpt lat="44.25342" lon="0.8397">
        <ele>190</ele>
        <time>2025-08-17T06:33:01.569Z</time>
      </trkpt>
      <trkpt lat="44.25341" lon="0.83971">
        <ele>190</ele>
        <time>2025-08-17T06:33:02.569Z</time>
      </trkpt>
      <trkpt lat="44.25341" lon="0.83972">
        <ele>191</ele>
        <time>2025-08-17T06:33:03.569Z</time>
      </trkpt>
      <trkpt lat="44.25341" lon="0.83973">
        <ele>191</ele>
        <time>2025-08-17T06:33:04.569Z</time>
      </trkpt>
      <trkpt lat="44.2534" lon="0.83974">
        <ele>191</ele>
        <time>2025-08-17T06:33:05.569Z</time>
      </trkpt>
      <trkpt lat="44.2534" lon="0.83974">
        <ele>191</ele>
        <time>2025-08-17T06:33:06.569Z</time>
      </trkpt>
      <trkpt lat="44.2534" lon="0.83975">
        <ele>191</ele>
        <time>2025-08-17T06:33:07.569Z</time>
      </trkpt>
      <trkpt lat="44.2534" lon="0.83976">
        <ele>191</ele>
        <time>2025-08-17T06:33:08.569Z</time>
      </trkpt>
      <trkpt lat="44.2534" lon="0.83976">
        <ele>191</ele>
        <time>2025-08-17T06:33:09.569Z</time>
      </trkpt>
      <trkpt lat="44.25339" lon="0.83977">
        <ele>191</ele>
        <time>2025-08-17T06:33:10.569Z</time>
      </trkpt>
      <trkpt lat="44.25339" lon="0.83978">
        <ele>192</ele>
        <time>2025-08-17T06:33:11.569Z</time>
      </trkpt>
      <trkpt lat="44.25339" lon="0.83979">
        <ele>192</ele>
        <time>2025-08-17T06:33:12.569Z</time>
      </trkpt>
      <trkpt lat="44.25338" lon="0.8398">
        <ele>192</ele>
        <time>2025-08-17T06:33:13.569Z</time>
      </trkpt>
      <trkpt lat="44.25338" lon="0.83981">
        <ele>192</ele>
        <time>2025-08-17T06:33:14.569Z</time>
      </trkpt>
      <trkpt lat="44.25337" lon="0.83982">
        <ele>193</ele>
        <time>2025-08-17T06:33:15.569Z</time>
      </trkpt>
      <trkpt lat="44.25336" lon="0.83982">
        <ele>193</ele>
        <time>2025-08-17T06:33:16.569Z</time>
      </trkpt>
      <trkpt lat="44.25336" lon="0.83983">
        <ele>193</ele>
        <time>2025-08-17T06:33:17.569Z</time>
      </trkpt>
      <trkpt lat="44.25336" lon="0.83983">
        <ele>193</ele>
        <time>2025-08-17T06:33:18.569Z</time>
      </trkpt>
      <trkpt lat="44.25335" lon="0.83983">
        <ele>193</ele>
        <time>2025-08-17T06:33:19.569Z</time>
      </trkpt>
      <trkpt lat="44.25335" lon="0.83984">
        <ele>193</ele>
        <time>2025-08-17T06:33:20.569Z</time>
      </trkpt>
      <trkpt lat="44.25335" lon="0.83984">
        <ele>193</ele>
        <time>2025-08-17T06:33:21.569Z</time>
      </trkpt>
      <trkpt lat="44.25335" lon="0.83985">
        <ele>193</ele>
        <time>2025-08-17T06:33:22.569Z</time>
      </trkpt>
      <trkpt lat="44.25334" lon="0.83985">
        <ele>193</ele>
        <time>2025-08-17T06:33:23.569Z</time>
      </trkpt>
      <trkpt lat="44.25334" lon="0.83985">
        <ele>193</ele>
        <time>2025-08-17T06:33:24.569Z</time>
      </trkpt>
      <trkpt lat="44.25334" lon="0.83985">
        <ele>192</ele>
        <time>2025-08-17T06:33:25.569Z</time>
      </trkpt>
      <trkpt lat="44.25334" lon="0.83985">
        <ele>192</ele>
        <time>2025-08-17T06:33:26.569Z</time>
      </trkpt>
      <trkpt lat="44.25334" lon="0.83985">
        <ele>191</ele>
        <time>2025-08-17T06:33:27.569Z</time>
      </trkpt>
      <trkpt lat="44.25334" lon="0.83985">
        <ele>191</ele>
        <time>2025-08-17T06:33:28.569Z</time>
      </trkpt>
      <trkpt lat="44.25334" lon="0.83985">
        <ele>190</ele>
        <time>2025-08-17T06:33:29.569Z</time>
      </trkpt>
      <trkpt lat="44.25334" lon="0.83985">
        <ele>190</ele>
        <time>2025-08-17T06:33:30.569Z</time>
      </trkpt>
      <trkpt lat="44.25334" lon="0.83985">
        <ele>190</ele>
        <time>2025-08-17T06:33:31.569Z</time>
      </trkpt>
      <trkpt lat="44.25334" lon="0.83985">
        <ele>190</ele>
        <time>2025-08-17T06:33:32.569Z</time>
      </trkpt>
      <trkpt lat="44.25334" lon="0.83986">
        <ele>190</ele>
        <time>2025-08-17T06:33:33.569Z</time>
      </trkpt>
      <trkpt lat="44.25334" lon="0.83986">
        <ele>190</ele>
        <time>2025-08-17T06:33:34.569Z</time>
      </trkpt>
      <trkpt lat="44.25334" lon="0.83986">
        <ele>190</ele>
        <time>2025-08-17T06:33:35.569Z</time>
      </trkpt>
      <trkpt lat="44.25334" lon="0.83986">
        <ele>190</ele>
        <time>2025-08-17T06:33:36.569Z</time>
      </trkpt>
      <trkpt lat="44.25334" lon="0.83986">
        <ele>190</ele>
        <time>2025-08-17T06:33:37.569Z</time>
      </trkpt>
      <trkpt lat="44.25334" lon="0.83986">
        <ele>190</ele>
        <time>2025-08-17T06:33:38.569Z</time>
      </trkpt>
      <trkpt lat="44.25334" lon="0.83986">
        <ele>190</ele>
        <time>2025-08-17T06:33:39.569Z</time>
      </trkpt>
      <trkpt lat="44.25334" lon="0.83986">
        <ele>190</ele>
        <time>2025-08-17T06:33:40.569Z</time>
      </trkpt>
      <trkpt lat="44.25333" lon="0.83986">
        <ele>190</ele>
        <time>2025-08-17T06:33:41.569Z</time>
      </trkpt>
      <trkpt lat="44.25333" lon="0.83986">
        <ele>190</ele>
        <time>2025-08-17T06:33:42.569Z</time>
      </trkpt>
      <trkpt lat="44.25334" lon="0.83986">
        <ele>191</ele>
        <time>2025-08-17T06:33:43.569Z</time>
      </trkpt>
      <trkpt lat="44.25334" lon="0.83986">
        <ele>191</ele>
        <time>2025-08-17T06:33:44.569Z</time>
      </trkpt>
      <trkpt lat="44.25333" lon="0.83987">
        <ele>191</ele>
        <time>2025-08-17T06:33:45.569Z</time>
      </trkpt>
      <trkpt lat="44.25333" lon="0.83989">
        <ele>191</ele>
        <time>2025-08-17T06:33:46.569Z</time>
      </trkpt>
      <trkpt lat="44.25332" lon="0.83991">
        <ele>191</ele>
        <time>2025-08-17T06:33:47.569Z</time>
      </trkpt>
      <trkpt lat="44.25332" lon="0.83992">
        <ele>191</ele>
        <time>2025-08-17T06:33:48.569Z</time>
      </trkpt>
      <trkpt lat="44.25331" lon="0.83994">
        <ele>192</ele>
        <time>2025-08-17T06:33:49.569Z</time>
      </trkpt>
      <trkpt lat="44.25331" lon="0.83996">
        <ele>192</ele>
        <time>2025-08-17T06:33:50.569Z</time>
      </trkpt>
      <trkpt lat="44.2533" lon="0.83998">
        <ele>192</ele>
        <time>2025-08-17T06:33:51.569Z</time>
      </trkpt>
      <trkpt lat="44.2533" lon="0.83999">
        <ele>192</ele>
        <time>2025-08-17T06:33:52.569Z</time>
      </trkpt>
      <trkpt lat="44.25329" lon="0.84002">
        <ele>192</ele>
        <time>2025-08-17T06:33:53.569Z</time>
      </trkpt>
      <trkpt lat="44.25328" lon="0.84003">
        <ele>192</ele>
        <time>2025-08-17T06:33:54.569Z</time>
      </trkpt>
      <trkpt lat="44.25327" lon="0.84005">
        <ele>192</ele>
        <time>2025-08-17T06:33:55.569Z</time>
      </trkpt>
      <trkpt lat="44.25327" lon="0.84007">
        <ele>193</ele>
        <time>2025-08-17T06:33:56.569Z</time>
      </trkpt>
      <trkpt lat="44.25326" lon="0.84008">
        <ele>193</ele>
        <time>2025-08-17T06:33:57.569Z</time>
      </trkpt>
      <trkpt lat="44.25325" lon="0.84009">
        <ele>193</ele>
        <time>2025-08-17T06:33:58.569Z</time>
      </trkpt>
      <trkpt lat="44.25324" lon="0.8401">
        <ele>193</ele>
        <time>2025-08-17T06:33:59.569Z</time>
      </trkpt>
      <trkpt lat="44.25324" lon="0.84011">
        <ele>193</ele>
        <time>2025-08-17T06:34:00.569Z</time>
      </trkpt>
      <trkpt lat="44.25323" lon="0.84013">
        <ele>193</ele>
        <time>2025-08-17T06:34:01.569Z</time>
      </trkpt>
      <trkpt lat="44.25323" lon="0.84014">
        <ele>192</ele>
        <time>2025-08-17T06:34:02.569Z</time>
      </trkpt>
      <trkpt lat="44.25323" lon="0.84016">
        <ele>192</ele>
        <time>2025-08-17T06:34:03.569Z</time>
      </trkpt>
      <trkpt lat="44.25322" lon="0.84018">
        <ele>191</ele>
        <time>2025-08-17T06:34:04.569Z</time>
      </trkpt>
      <trkpt lat="44.25322" lon="0.8402">
        <ele>190</ele>
        <time>2025-08-17T06:34:05.569Z</time>
      </trkpt>
      <trkpt lat="44.25321" lon="0.84023">
        <ele>190</ele>
        <time>2025-08-17T06:34:06.569Z</time>
      </trkpt>
      <trkpt lat="44.25321" lon="0.84025">
        <ele>190</ele>
        <time>2025-08-17T06:34:07.569Z</time>
      </trkpt>
      <trkpt lat="44.2532" lon="0.84026">
        <ele>190</ele>
        <time>2025-08-17T06:34:08.569Z</time>
      </trkpt>
      <trkpt lat="44.2532" lon="0.84028">
        <ele>190</ele>
        <time>2025-08-17T06:34:09.569Z</time>
      </trkpt>
      <trkpt lat="44.2532" lon="0.8403">
        <ele>190</ele>
        <time>2025-08-17T06:34:10.569Z</time>
      </trkpt>
      <trkpt lat="44.25319" lon="0.84031">
        <ele>190</ele>
        <time>2025-08-17T06:34:11.569Z</time>
      </trkpt>
      <trkpt lat="44.25318" lon="0.84033">
        <ele>190</ele>
        <time>2025-08-17T06:34:12.569Z</time>
      </trkpt>
      <trkpt lat="44.25317" lon="0.84034">
        <ele>190</ele>
        <time>2025-08-17T06:34:13.569Z</time>
      </trkpt>
      <trkpt lat="44.25317" lon="0.84035">
        <ele>190</ele>
        <time>2025-08-17T06:34:14.569Z</time>
      </trkpt>
      <trkpt lat="44.25316" lon="0.84037">
        <ele>190</ele>
        <time>2025-08-17T06:34:15.569Z</time>
      </trkpt>
      <trkpt lat="44.25316" lon="0.84038">
        <ele>190</ele>
        <time>2025-08-17T06:34:16.569Z</time>
      </trkpt>
      <trkpt lat="44.25315" lon="0.84039">
        <ele>190</ele>
        <time>2025-08-17T06:34:17.569Z</time>
      </trkpt>
      <trkpt lat="44.25316" lon="0.84041">
        <ele>191</ele>
        <time>2025-08-17T06:34:18.569Z</time>
      </trkpt>
      <trkpt lat="44.25315" lon="0.84042">
        <ele>191</ele>
        <time>2025-08-17T06:34:19.569Z</time>
      </trkpt>
      <trkpt lat="44.25316" lon="0.84043">
        <ele>191</ele>
        <time>2025-08-17T06:34:20.569Z</time>
      </trkpt>
      <trkpt lat="44.25315" lon="0.84045">
        <ele>192</ele>
        <time>2025-08-17T06:34:21.569Z</time>
      </trkpt>
      <trkpt lat="44.25315" lon="0.84046">
        <ele>192</ele>
        <time>2025-08-17T06:34:22.569Z</time>
      </trkpt>
      <trkpt lat="44.25315" lon="0.84047">
        <ele>192</ele>
        <time>2025-08-17T06:34:23.569Z</time>
      </trkpt>
      <trkpt lat="44.25314" lon="0.84049">
        <ele>192</ele>
        <time>2025-08-17T06:34:24.569Z</time>
      </trkpt>
      <trkpt lat="44.25314" lon="0.8405">
        <ele>192</ele>
        <time>2025-08-17T06:34:25.569Z</time>
      </trkpt>
      <trkpt lat="44.25313" lon="0.84052">
        <ele>192</ele>
        <time>2025-08-17T06:34:26.569Z</time>
      </trkpt>
      <trkpt lat="44.25313" lon="0.84053">
        <ele>191</ele>
        <time>2025-08-17T06:34:27.569Z</time>
      </trkpt>
      <trkpt lat="44.25312" lon="0.84054">
        <ele>191</ele>
        <time>2025-08-17T06:34:28.569Z</time>
      </trkpt>
      <trkpt lat="44.25311" lon="0.84055">
        <ele>192</ele>
        <time>2025-08-17T06:34:29.569Z</time>
      </trkpt>
      <trkpt lat="44.25311" lon="0.84057">
        <ele>192</ele>
        <time>2025-08-17T06:34:30.569Z</time>
      </trkpt>
      <trkpt lat="44.2531" lon="0.84058">
        <ele>192</ele>
        <time>2025-08-17T06:34:31.569Z</time>
      </trkpt>
      <trkpt lat="44.25309" lon="0.84059">
        <ele>192</ele>
        <time>2025-08-17T06:34:32.569Z</time>
      </trkpt>
      <trkpt lat="44.25308" lon="0.8406">
        <ele>192</ele>
        <time>2025-08-17T06:34:33.569Z</time>
      </trkpt>
      <trkpt lat="44.25308" lon="0.84062">
        <ele>192</ele>
        <time>2025-08-17T06:34:34.569Z</time>
      </trkpt>
      <trkpt lat="44.25307" lon="0.84064">
        <ele>193</ele>
        <time>2025-08-17T06:34:35.569Z</time>
      </trkpt>
      <trkpt lat="44.25307" lon="0.84065">
        <ele>193</ele>
        <time>2025-08-17T06:34:36.569Z</time>
      </trkpt>
      <trkpt lat="44.25306" lon="0.84066">
        <ele>193</ele>
        <time>2025-08-17T06:34:37.569Z</time>
      </trkpt>
      <trkpt lat="44.25305" lon="0.84067">
        <ele>193</ele>
        <time>2025-08-17T06:34:38.569Z</time>
      </trkpt>
      <trkpt lat="44.25304" lon="0.84067">
        <ele>193</ele>
        <time>2025-08-17T06:34:39.569Z</time>
      </trkpt>
      <trkpt lat="44.25303" lon="0.84068">
        <ele>193</ele>
        <time>2025-08-17T06:34:40.569Z</time>
      </trkpt>
      <trkpt lat="44.25301" lon="0.84069">
        <ele>193</ele>
        <time>2025-08-17T06:34:41.569Z</time>
      </trkpt>
      <trkpt lat="44.253" lon="0.84069">
        <ele>193</ele>
        <time>2025-08-17T06:34:42.569Z</time>
      </trkpt>
      <trkpt lat="44.25299" lon="0.84068">
        <ele>194</ele>
        <time>2025-08-17T06:34:43.569Z</time>
      </trkpt>
      <trkpt lat="44.25298" lon="0.84067">
        <ele>194</ele>
        <time>2025-08-17T06:34:44.569Z</time>
      </trkpt>
      <trkpt lat="44.25297" lon="0.84067">
        <ele>194</ele>
        <time>2025-08-17T06:34:45.569Z</time>
      </trkpt>
      <trkpt lat="44.25296" lon="0.84066">
        <ele>194</ele>
        <time>2025-08-17T06:34:46.569Z</time>
      </trkpt>
      <trkpt lat="44.25295" lon="0.84065">
        <ele>194</ele>
        <time>2025-08-17T06:34:47.569Z</time>
      </trkpt>
      <trkpt lat="44.25293" lon="0.84065">
        <ele>193</ele>
        <time>2025-08-17T06:34:48.569Z</time>
      </trkpt>
      <trkpt lat="44.25292" lon="0.84065">
        <ele>194</ele>
        <time>2025-08-17T06:34:49.569Z</time>
      </trkpt>
      <trkpt lat="44.25291" lon="0.84065">
        <ele>194</ele>
        <time>2025-08-17T06:34:50.569Z</time>
      </trkpt>
      <trkpt lat="44.2529" lon="0.84065">
        <ele>194</ele>
        <time>2025-08-17T06:34:51.569Z</time>
      </trkpt>
      <trkpt lat="44.2529" lon="0.84065">
        <ele>194</ele>
        <time>2025-08-17T06:34:52.569Z</time>
      </trkpt>
      <trkpt lat="44.25289" lon="0.84064">
        <ele>195</ele>
        <time>2025-08-17T06:34:53.569Z</time>
      </trkpt>
      <trkpt lat="44.25287" lon="0.84064">
        <ele>196</ele>
        <time>2025-08-17T06:34:54.569Z</time>
      </trkpt>
      <trkpt lat="44.25286" lon="0.84064">
        <ele>196</ele>
        <time>2025-08-17T06:34:55.569Z</time>
      </trkpt>
      <trkpt lat="44.25285" lon="0.84064">
        <ele>197</ele>
        <time>2025-08-17T06:34:56.569Z</time>
      </trkpt>
      <trkpt lat="44.25285" lon="0.84064">
        <ele>197</ele>
        <time>2025-08-17T06:34:57.569Z</time>
      </trkpt>
      <trkpt lat="44.25284" lon="0.84064">
        <ele>197</ele>
        <time>2025-08-17T06:34:58.569Z</time>
      </trkpt>
      <trkpt lat="44.25283" lon="0.84064">
        <ele>197</ele>
        <time>2025-08-17T06:34:59.569Z</time>
      </trkpt>
      <trkpt lat="44.25281" lon="0.84064">
        <ele>197</ele>
        <time>2025-08-17T06:35:00.569Z</time>
      </trkpt>
      <trkpt lat="44.2528" lon="0.84063">
        <ele>198</ele>
        <time>2025-08-17T06:35:01.569Z</time>
      </trkpt>
      <trkpt lat="44.2528" lon="0.84063">
        <ele>198</ele>
        <time>2025-08-17T06:35:02.569Z</time>
      </trkpt>
      <trkpt lat="44.25279" lon="0.84063">
        <ele>198</ele>
        <time>2025-08-17T06:35:03.569Z</time>
      </trkpt>
      <trkpt lat="44.25278" lon="0.84063">
        <ele>199</ele>
        <time>2025-08-17T06:35:04.569Z</time>
      </trkpt>
      <trkpt lat="44.25277" lon="0.84064">
        <ele>200</ele>
        <time>2025-08-17T06:35:05.569Z</time>
      </trkpt>
      <trkpt lat="44.25276" lon="0.84064">
        <ele>200</ele>
        <time>2025-08-17T06:35:06.569Z</time>
      </trkpt>
      <trkpt lat="44.25275" lon="0.84064">
        <ele>201</ele>
        <time>2025-08-17T06:35:07.569Z</time>
      </trkpt>
      <trkpt lat="44.25274" lon="0.84065">
        <ele>201</ele>
        <time>2025-08-17T06:35:08.569Z</time>
      </trkpt>
      <trkpt lat="44.25273" lon="0.84065">
        <ele>202</ele>
        <time>2025-08-17T06:35:09.569Z</time>
      </trkpt>
      <trkpt lat="44.25272" lon="0.84065">
        <ele>202</ele>
        <time>2025-08-17T06:35:10.569Z</time>
      </trkpt>
      <trkpt lat="44.25271" lon="0.84065">
        <ele>203</ele>
        <time>2025-08-17T06:35:11.569Z</time>
      </trkpt>
      <trkpt lat="44.25271" lon="0.84065">
        <ele>203</ele>
        <time>2025-08-17T06:35:12.569Z</time>
      </trkpt>
      <trkpt lat="44.2527" lon="0.84065">
        <ele>203</ele>
        <time>2025-08-17T06:35:13.569Z</time>
      </trkpt>
      <trkpt lat="44.2527" lon="0.84065">
        <ele>203</ele>
        <time>2025-08-17T06:35:14.569Z</time>
      </trkpt>
      <trkpt lat="44.25269" lon="0.84065">
        <ele>203</ele>
        <time>2025-08-17T06:35:15.569Z</time>
      </trkpt>
      <trkpt lat="44.25268" lon="0.84063">
        <ele>203</ele>
        <time>2025-08-17T06:35:16.569Z</time>
      </trkpt>
      <trkpt lat="44.25267" lon="0.84062">
        <ele>203</ele>
        <time>2025-08-17T06:35:17.569Z</time>
      </trkpt>
      <trkpt lat="44.25267" lon="0.84062">
        <ele>203</ele>
        <time>2025-08-17T06:35:18.569Z</time>
      </trkpt>
      <trkpt lat="44.25266" lon="0.84061">
        <ele>203</ele>
        <time>2025-08-17T06:35:19.569Z</time>
      </trkpt>
      <trkpt lat="44.25266" lon="0.8406">
        <ele>203</ele>
        <time>2025-08-17T06:35:20.569Z</time>
      </trkpt>
      <trkpt lat="44.25266" lon="0.8406">
        <ele>202</ele>
        <time>2025-08-17T06:35:21.569Z</time>
      </trkpt>
      <trkpt lat="44.25266" lon="0.84059">
        <ele>202</ele>
        <time>2025-08-17T06:35:22.569Z</time>
      </trkpt>
      <trkpt lat="44.25266" lon="0.84059">
        <ele>202</ele>
        <time>2025-08-17T06:35:23.569Z</time>
      </trkpt>
      <trkpt lat="44.25266" lon="0.84057">
        <ele>201</ele>
        <time>2025-08-17T06:35:24.569Z</time>
      </trkpt>
      <trkpt lat="44.25266" lon="0.84056">
        <ele>201</ele>
        <time>2025-08-17T06:35:25.569Z</time>
      </trkpt>
      <trkpt lat="44.25266" lon="0.84054">
        <ele>201</ele>
        <time>2025-08-17T06:35:26.569Z</time>
      </trkpt>
      <trkpt lat="44.25265" lon="0.84052">
        <ele>200</ele>
        <time>2025-08-17T06:35:27.569Z</time>
      </trkpt>
      <trkpt lat="44.25264" lon="0.84051">
        <ele>200</ele>
        <time>2025-08-17T06:35:28.569Z</time>
      </trkpt>
      <trkpt lat="44.25264" lon="0.8405">
        <ele>199</ele>
        <time>2025-08-17T06:35:29.569Z</time>
      </trkpt>
      <trkpt lat="44.25263" lon="0.84048">
        <ele>199</ele>
        <time>2025-08-17T06:35:30.569Z</time>
      </trkpt>
      <trkpt lat="44.25263" lon="0.84047">
        <ele>199</ele>
        <time>2025-08-17T06:35:31.569Z</time>
      </trkpt>
      <trkpt lat="44.25263" lon="0.84047">
        <ele>199</ele>
        <time>2025-08-17T06:35:32.569Z</time>
      </trkpt>
      <trkpt lat="44.25263" lon="0.84047">
        <ele>199</ele>
        <time>2025-08-17T06:35:33.569Z</time>
      </trkpt>
      <trkpt lat="44.25263" lon="0.84047">
        <ele>199</ele>
        <time>2025-08-17T06:35:34.569Z</time>
      </trkpt>
      <trkpt lat="44.25263" lon="0.84047">
        <ele>199</ele>
        <time>2025-08-17T06:35:35.569Z</time>
      </trkpt>
      <trkpt lat="44.25263" lon="0.84047">
        <ele>199</ele>
        <time>2025-08-17T06:35:36.569Z</time>
      </trkpt>
      <trkpt lat="44.25261" lon="0.84047">
        <ele>200</ele>
        <time>2025-08-17T06:35:37.569Z</time>
      </trkpt>
      <trkpt lat="44.25261" lon="0.84047">
        <ele>200</ele>
        <time>2025-08-17T06:35:38.569Z</time>
      </trkpt>
      <trkpt lat="44.2526" lon="0.84047">
        <ele>200</ele>
        <time>2025-08-17T06:35:39.569Z</time>
      </trkpt>
      <trkpt lat="44.25259" lon="0.84047">
        <ele>200</ele>
        <time>2025-08-17T06:35:40.569Z</time>
      </trkpt>
      <trkpt lat="44.25259" lon="0.84047">
        <ele>200</ele>
        <time>2025-08-17T06:35:41.569Z</time>
      </trkpt>
      <trkpt lat="44.25258" lon="0.84046">
        <ele>200</ele>
        <time>2025-08-17T06:35:42.569Z</time>
      </trkpt>
      <trkpt lat="44.25257" lon="0.84045">
        <ele>200</ele>
        <time>2025-08-17T06:35:43.569Z</time>
      </trkpt>
      <trkpt lat="44.25256" lon="0.84044">
        <ele>200</ele>
        <time>2025-08-17T06:35:44.569Z</time>
      </trkpt>
      <trkpt lat="44.25255" lon="0.84044">
        <ele>199</ele>
        <time>2025-08-17T06:35:45.569Z</time>
      </trkpt>
      <trkpt lat="44.25254" lon="0.84043">
        <ele>199</ele>
        <time>2025-08-17T06:35:46.569Z</time>
      </trkpt>
      <trkpt lat="44.25253" lon="0.84042">
        <ele>198</ele>
        <time>2025-08-17T06:35:47.569Z</time>
      </trkpt>
      <trkpt lat="44.25253" lon="0.84042">
        <ele>198</ele>
        <time>2025-08-17T06:35:48.569Z</time>
      </trkpt>
      <trkpt lat="44.25252" lon="0.84041">
        <ele>198</ele>
        <time>2025-08-17T06:35:49.569Z</time>
      </trkpt>
      <trkpt lat="44.25251" lon="0.84041">
        <ele>198</ele>
        <time>2025-08-17T06:35:50.569Z</time>
      </trkpt>
      <trkpt lat="44.2525" lon="0.84041">
        <ele>198</ele>
        <time>2025-08-17T06:35:51.569Z</time>
      </trkpt>
      <trkpt lat="44.25249" lon="0.8404">
        <ele>198</ele>
        <time>2025-08-17T06:35:52.569Z</time>
      </trkpt>
      <trkpt lat="44.25248" lon="0.8404">
        <ele>198</ele>
        <time>2025-08-17T06:35:53.569Z</time>
      </trkpt>
      <trkpt lat="44.25247" lon="0.8404">
        <ele>198</ele>
        <time>2025-08-17T06:35:54.569Z</time>
      </trkpt>
      <trkpt lat="44.25246" lon="0.8404">
        <ele>198</ele>
        <time>2025-08-17T06:35:55.569Z</time>
      </trkpt>
      <trkpt lat="44.25246" lon="0.8404">
        <ele>197</ele>
        <time>2025-08-17T06:35:56.569Z</time>
      </trkpt>
      <trkpt lat="44.25245" lon="0.8404">
        <ele>196</ele>
        <time>2025-08-17T06:35:57.569Z</time>
      </trkpt>
      <trkpt lat="44.25244" lon="0.8404">
        <ele>196</ele>
        <time>2025-08-17T06:35:58.569Z</time>
      </trkpt>
      <trkpt lat="44.25243" lon="0.8404">
        <ele>196</ele>
        <time>2025-08-17T06:35:59.569Z</time>
      </trkpt>
      <trkpt lat="44.25243" lon="0.8404">
        <ele>196</ele>
        <time>2025-08-17T06:36:00.569Z</time>
      </trkpt>
      <trkpt lat="44.25241" lon="0.8404">
        <ele>196</ele>
        <time>2025-08-17T06:36:01.569Z</time>
      </trkpt>
      <trkpt lat="44.2524" lon="0.84041">
        <ele>196</ele>
        <time>2025-08-17T06:36:02.569Z</time>
      </trkpt>
      <trkpt lat="44.25239" lon="0.84041">
        <ele>196</ele>
        <time>2025-08-17T06:36:03.569Z</time>
      </trkpt>
      <trkpt lat="44.25238" lon="0.84041">
        <ele>196</ele>
        <time>2025-08-17T06:36:04.569Z</time>
      </trkpt>
      <trkpt lat="44.25237" lon="0.84041">
        <ele>196</ele>
        <time>2025-08-17T06:36:05.569Z</time>
      </trkpt>
      <trkpt lat="44.25236" lon="0.84042">
        <ele>196</ele>
        <time>2025-08-17T06:36:06.569Z</time>
      </trkpt>
      <trkpt lat="44.25236" lon="0.84042">
        <ele>197</ele>
        <time>2025-08-17T06:36:07.569Z</time>
      </trkpt>
      <trkpt lat="44.25235" lon="0.84042">
        <ele>197</ele>
        <time>2025-08-17T06:36:08.569Z</time>
      </trkpt>
      <trkpt lat="44.25234" lon="0.84043">
        <ele>197</ele>
        <time>2025-08-17T06:36:09.569Z</time>
      </trkpt>
      <trkpt lat="44.25233" lon="0.84044">
        <ele>197</ele>
        <time>2025-08-17T06:36:10.569Z</time>
      </trkpt>
      <trkpt lat="44.25232" lon="0.84044">
        <ele>197</ele>
        <time>2025-08-17T06:36:11.569Z</time>
      </trkpt>
      <trkpt lat="44.25232" lon="0.84045">
        <ele>197</ele>
        <time>2025-08-17T06:36:12.569Z</time>
      </trkpt>
      <trkpt lat="44.25231" lon="0.84047">
        <ele>197</ele>
        <time>2025-08-17T06:36:13.569Z</time>
      </trkpt>
      <trkpt lat="44.25231" lon="0.84048">
        <ele>197</ele>
        <time>2025-08-17T06:36:14.569Z</time>
      </trkpt>
      <trkpt lat="44.25229" lon="0.84049">
        <ele>197</ele>
        <time>2025-08-17T06:36:15.569Z</time>
      </trkpt>
      <trkpt lat="44.25229" lon="0.8405">
        <ele>197</ele>
        <time>2025-08-17T06:36:16.569Z</time>
      </trkpt>
      <trkpt lat="44.25228" lon="0.8405">
        <ele>197</ele>
        <time>2025-08-17T06:36:17.569Z</time>
      </trkpt>
      <trkpt lat="44.25227" lon="0.84051">
        <ele>196</ele>
        <time>2025-08-17T06:36:18.569Z</time>
      </trkpt>
      <trkpt lat="44.25227" lon="0.84052">
        <ele>196</ele>
        <time>2025-08-17T06:36:19.569Z</time>
      </trkpt>
      <trkpt lat="44.25226" lon="0.84052">
        <ele>196</ele>
        <time>2025-08-17T06:36:20.569Z</time>
      </trkpt>
      <trkpt lat="44.25225" lon="0.84053">
        <ele>195</ele>
        <time>2025-08-17T06:36:21.569Z</time>
      </trkpt>
      <trkpt lat="44.25224" lon="0.84053">
        <ele>195</ele>
        <time>2025-08-17T06:36:22.569Z</time>
      </trkpt>
      <trkpt lat="44.25223" lon="0.84053">
        <ele>195</ele>
        <time>2025-08-17T06:36:23.569Z</time>
      </trkpt>
      <trkpt lat="44.25222" lon="0.84054">
        <ele>195</ele>
        <time>2025-08-17T06:36:24.569Z</time>
      </trkpt>
      <trkpt lat="44.25221" lon="0.84055">
        <ele>195</ele>
        <time>2025-08-17T06:36:25.569Z</time>
      </trkpt>
      <trkpt lat="44.25221" lon="0.84055">
        <ele>194</ele>
        <time>2025-08-17T06:36:26.569Z</time>
      </trkpt>
      <trkpt lat="44.2522" lon="0.84056">
        <ele>194</ele>
        <time>2025-08-17T06:36:27.569Z</time>
      </trkpt>
      <trkpt lat="44.25219" lon="0.84057">
        <ele>194</ele>
        <time>2025-08-17T06:36:28.569Z</time>
      </trkpt>
      <trkpt lat="44.25219" lon="0.84059">
        <ele>194</ele>
        <time>2025-08-17T06:36:29.569Z</time>
      </trkpt>
      <trkpt lat="44.25219" lon="0.8406">
        <ele>194</ele>
        <time>2025-08-17T06:36:30.569Z</time>
      </trkpt>
      <trkpt lat="44.25218" lon="0.84061">
        <ele>194</ele>
        <time>2025-08-17T06:36:31.569Z</time>
      </trkpt>
      <trkpt lat="44.25218" lon="0.84062">
        <ele>194</ele>
        <time>2025-08-17T06:36:32.569Z</time>
      </trkpt>
      <trkpt lat="44.25218" lon="0.84063">
        <ele>193</ele>
        <time>2025-08-17T06:36:33.569Z</time>
      </trkpt>
      <trkpt lat="44.25217" lon="0.84064">
        <ele>193</ele>
        <time>2025-08-17T06:36:34.569Z</time>
      </trkpt>
      <trkpt lat="44.25216" lon="0.84066">
        <ele>193</ele>
        <time>2025-08-17T06:36:35.569Z</time>
      </trkpt>
      <trkpt lat="44.25216" lon="0.84067">
        <ele>193</ele>
        <time>2025-08-17T06:36:36.569Z</time>
      </trkpt>
      <trkpt lat="44.25215" lon="0.84068">
        <ele>194</ele>
        <time>2025-08-17T06:36:37.569Z</time>
      </trkpt>
      <trkpt lat="44.25215" lon="0.84069">
        <ele>193</ele>
        <time>2025-08-17T06:36:38.569Z</time>
      </trkpt>
      <trkpt lat="44.25214" lon="0.8407">
        <ele>193</ele>
        <time>2025-08-17T06:36:39.569Z</time>
      </trkpt>
      <trkpt lat="44.25213" lon="0.84072">
        <ele>193</ele>
        <time>2025-08-17T06:36:40.569Z</time>
      </trkpt>
      <trkpt lat="44.25212" lon="0.84073">
        <ele>193</ele>
        <time>2025-08-17T06:36:41.569Z</time>
      </trkpt>
      <trkpt lat="44.25211" lon="0.84075">
        <ele>193</ele>
        <time>2025-08-17T06:36:42.569Z</time>
      </trkpt>
      <trkpt lat="44.2521" lon="0.84076">
        <ele>193</ele>
        <time>2025-08-17T06:36:43.569Z</time>
      </trkpt>
      <trkpt lat="44.25209" lon="0.84077">
        <ele>192</ele>
        <time>2025-08-17T06:36:44.569Z</time>
      </trkpt>
      <trkpt lat="44.25209" lon="0.84079">
        <ele>192</ele>
        <time>2025-08-17T06:36:45.569Z</time>
      </trkpt>
      <trkpt lat="44.25208" lon="0.8408">
        <ele>191</ele>
        <time>2025-08-17T06:36:46.569Z</time>
      </trkpt>
      <trkpt lat="44.25208" lon="0.84081">
        <ele>191</ele>
        <time>2025-08-17T06:36:47.569Z</time>
      </trkpt>
      <trkpt lat="44.25207" lon="0.84083">
        <ele>191</ele>
        <time>2025-08-17T06:36:48.569Z</time>
      </trkpt>
      <trkpt lat="44.25207" lon="0.84084">
        <ele>191</ele>
        <time>2025-08-17T06:36:49.569Z</time>
      </trkpt>
      <trkpt lat="44.25206" lon="0.84086">
        <ele>191</ele>
        <time>2025-08-17T06:36:50.569Z</time>
      </trkpt>
      <trkpt lat="44.25206" lon="0.84088">
        <ele>191</ele>
        <time>2025-08-17T06:36:51.569Z</time>
      </trkpt>
      <trkpt lat="44.25205" lon="0.84089">
        <ele>191</ele>
        <time>2025-08-17T06:36:52.569Z</time>
      </trkpt>
      <trkpt lat="44.25204" lon="0.8409">
        <ele>191</ele>
        <time>2025-08-17T06:36:53.569Z</time>
      </trkpt>
      <trkpt lat="44.25204" lon="0.84091">
        <ele>191</ele>
        <time>2025-08-17T06:36:54.569Z</time>
      </trkpt>
      <trkpt lat="44.25203" lon="0.84093">
        <ele>191</ele>
        <time>2025-08-17T06:36:55.569Z</time>
      </trkpt>
      <trkpt lat="44.25203" lon="0.84094">
        <ele>191</ele>
        <time>2025-08-17T06:36:56.569Z</time>
      </trkpt>
      <trkpt lat="44.25202" lon="0.84095">
        <ele>190</ele>
        <time>2025-08-17T06:36:57.569Z</time>
      </trkpt>
      <trkpt lat="44.25202" lon="0.84096">
        <ele>190</ele>
        <time>2025-08-17T06:36:58.569Z</time>
      </trkpt>
      <trkpt lat="44.25202" lon="0.84098">
        <ele>190</ele>
        <time>2025-08-17T06:36:59.569Z</time>
      </trkpt>
      <trkpt lat="44.25201" lon="0.84099">
        <ele>191</ele>
        <time>2025-08-17T06:37:00.569Z</time>
      </trkpt>
      <trkpt lat="44.252" lon="0.841">
        <ele>191</ele>
        <time>2025-08-17T06:37:01.569Z</time>
      </trkpt>
      <trkpt lat="44.252" lon="0.84101">
        <ele>190</ele>
        <time>2025-08-17T06:37:02.569Z</time>
      </trkpt>
      <trkpt lat="44.25199" lon="0.84102">
        <ele>190</ele>
        <time>2025-08-17T06:37:03.569Z</time>
      </trkpt>
      <trkpt lat="44.25197" lon="0.84104">
        <ele>190</ele>
        <time>2025-08-17T06:37:04.569Z</time>
      </trkpt>
      <trkpt lat="44.25196" lon="0.84105">
        <ele>190</ele>
        <time>2025-08-17T06:37:05.569Z</time>
      </trkpt>
      <trkpt lat="44.25195" lon="0.84106">
        <ele>190</ele>
        <time>2025-08-17T06:37:06.569Z</time>
      </trkpt>
      <trkpt lat="44.25194" lon="0.84107">
        <ele>190</ele>
        <time>2025-08-17T06:37:07.569Z</time>
      </trkpt>
      <trkpt lat="44.25193" lon="0.84109">
        <ele>190</ele>
        <time>2025-08-17T06:37:08.569Z</time>
      </trkpt>
      <trkpt lat="44.25193" lon="0.8411">
        <ele>190</ele>
        <time>2025-08-17T06:37:09.569Z</time>
      </trkpt>
      <trkpt lat="44.25192" lon="0.84111">
        <ele>190</ele>
        <time>2025-08-17T06:37:10.569Z</time>
      </trkpt>
      <trkpt lat="44.25191" lon="0.84112">
        <ele>190</ele>
        <time>2025-08-17T06:37:11.569Z</time>
      </trkpt>
      <trkpt lat="44.2519" lon="0.84114">
        <ele>190</ele>
        <time>2025-08-17T06:37:12.569Z</time>
      </trkpt>
      <trkpt lat="44.2519" lon="0.84116">
        <ele>189</ele>
        <time>2025-08-17T06:37:13.569Z</time>
      </trkpt>
      <trkpt lat="44.25189" lon="0.84117">
        <ele>189</ele>
        <time>2025-08-17T06:37:14.569Z</time>
      </trkpt>
      <trkpt lat="44.25188" lon="0.84118">
        <ele>190</ele>
        <time>2025-08-17T06:37:15.569Z</time>
      </trkpt>
      <trkpt lat="44.25187" lon="0.8412">
        <ele>190</ele>
        <time>2025-08-17T06:37:16.569Z</time>
      </trkpt>
      <trkpt lat="44.25186" lon="0.84121">
        <ele>189</ele>
        <time>2025-08-17T06:37:17.569Z</time>
      </trkpt>
      <trkpt lat="44.25185" lon="0.84123">
        <ele>189</ele>
        <time>2025-08-17T06:37:18.569Z</time>
      </trkpt>
      <trkpt lat="44.25184" lon="0.84124">
        <ele>189</ele>
        <time>2025-08-17T06:37:19.569Z</time>
      </trkpt>
      <trkpt lat="44.25184" lon="0.84125">
        <ele>189</ele>
        <time>2025-08-17T06:37:20.569Z</time>
      </trkpt>
      <trkpt lat="44.25184" lon="0.84127">
        <ele>189</ele>
        <time>2025-08-17T06:37:21.569Z</time>
      </trkpt>
      <trkpt lat="44.25183" lon="0.84128">
        <ele>189</ele>
        <time>2025-08-17T06:37:22.569Z</time>
      </trkpt>
      <trkpt lat="44.25182" lon="0.8413">
        <ele>189</ele>
        <time>2025-08-17T06:37:23.569Z</time>
      </trkpt>
      <trkpt lat="44.25181" lon="0.84131">
        <ele>188</ele>
        <time>2025-08-17T06:37:24.569Z</time>
      </trkpt>
      <trkpt lat="44.25181" lon="0.84132">
        <ele>188</ele>
        <time>2025-08-17T06:37:25.569Z</time>
      </trkpt>
      <trkpt lat="44.2518" lon="0.84133">
        <ele>188</ele>
        <time>2025-08-17T06:37:26.569Z</time>
      </trkpt>
      <trkpt lat="44.25179" lon="0.84135">
        <ele>188</ele>
        <time>2025-08-17T06:37:27.569Z</time>
      </trkpt>
      <trkpt lat="44.25178" lon="0.84136">
        <ele>187</ele>
        <time>2025-08-17T06:37:28.569Z</time>
      </trkpt>
      <trkpt lat="44.25177" lon="0.84137">
        <ele>187</ele>
        <time>2025-08-17T06:37:29.569Z</time>
      </trkpt>
      <trkpt lat="44.25176" lon="0.84138">
        <ele>187</ele>
        <time>2025-08-17T06:37:30.569Z</time>
      </trkpt>
      <trkpt lat="44.25175" lon="0.8414">
        <ele>187</ele>
        <time>2025-08-17T06:37:31.569Z</time>
      </trkpt>
      <trkpt lat="44.25175" lon="0.84141">
        <ele>187</ele>
        <time>2025-08-17T06:37:32.569Z</time>
      </trkpt>
      <trkpt lat="44.25175" lon="0.84142">
        <ele>187</ele>
        <time>2025-08-17T06:37:33.569Z</time>
      </trkpt>
      <trkpt lat="44.25174" lon="0.84143">
        <ele>187</ele>
        <time>2025-08-17T06:37:34.569Z</time>
      </trkpt>
      <trkpt lat="44.25173" lon="0.84145">
        <ele>187</ele>
        <time>2025-08-17T06:37:35.569Z</time>
      </trkpt>
      <trkpt lat="44.25173" lon="0.84147">
        <ele>187</ele>
        <time>2025-08-17T06:37:36.569Z</time>
      </trkpt>
      <trkpt lat="44.25172" lon="0.84147">
        <ele>187</ele>
        <time>2025-08-17T06:37:37.569Z</time>
      </trkpt>
      <trkpt lat="44.25172" lon="0.84148">
        <ele>186</ele>
        <time>2025-08-17T06:37:38.569Z</time>
      </trkpt>
      <trkpt lat="44.25172" lon="0.8415">
        <ele>186</ele>
        <time>2025-08-17T06:37:39.569Z</time>
      </trkpt>
      <trkpt lat="44.25172" lon="0.84151">
        <ele>186</ele>
        <time>2025-08-17T06:37:40.569Z</time>
      </trkpt>
      <trkpt lat="44.25172" lon="0.84152">
        <ele>186</ele>
        <time>2025-08-17T06:37:41.569Z</time>
      </trkpt>
      <trkpt lat="44.25172" lon="0.84153">
        <ele>186</ele>
        <time>2025-08-17T06:37:42.569Z</time>
      </trkpt>
      <trkpt lat="44.25171" lon="0.84154">
        <ele>186</ele>
        <time>2025-08-17T06:37:43.569Z</time>
      </trkpt>
      <trkpt lat="44.2517" lon="0.84156">
        <ele>187</ele>
        <time>2025-08-17T06:37:44.569Z</time>
      </trkpt>
      <trkpt lat="44.2517" lon="0.84157">
        <ele>187</ele>
        <time>2025-08-17T06:37:45.569Z</time>
      </trkpt>
      <trkpt lat="44.25169" lon="0.84159">
        <ele>187</ele>
        <time>2025-08-17T06:37:46.569Z</time>
      </trkpt>
      <trkpt lat="44.25169" lon="0.84161">
        <ele>186</ele>
        <time>2025-08-17T06:37:47.569Z</time>
      </trkpt>
      <trkpt lat="44.25169" lon="0.84163">
        <ele>186</ele>
        <time>2025-08-17T06:37:48.569Z</time>
      </trkpt>
      <trkpt lat="44.25169" lon="0.84165">
        <ele>186</ele>
        <time>2025-08-17T06:37:49.569Z</time>
      </trkpt>
      <trkpt lat="44.25169" lon="0.84167">
        <ele>187</ele>
        <time>2025-08-17T06:37:50.569Z</time>
      </trkpt>
      <trkpt lat="44.25169" lon="0.84169">
        <ele>187</ele>
        <time>2025-08-17T06:37:51.569Z</time>
      </trkpt>
      <trkpt lat="44.25168" lon="0.84171">
        <ele>187</ele>
        <time>2025-08-17T06:37:52.569Z</time>
      </trkpt>
      <trkpt lat="44.25168" lon="0.84172">
        <ele>187</ele>
        <time>2025-08-17T06:37:53.569Z</time>
      </trkpt>
      <trkpt lat="44.25167" lon="0.84174">
        <ele>187</ele>
        <time>2025-08-17T06:37:54.569Z</time>
      </trkpt>
      <trkpt lat="44.25167" lon="0.84175">
        <ele>187</ele>
        <time>2025-08-17T06:37:55.569Z</time>
      </trkpt>
      <trkpt lat="44.25167" lon="0.84176">
        <ele>186</ele>
        <time>2025-08-17T06:37:56.569Z</time>
      </trkpt>
      <trkpt lat="44.25167" lon="0.84177">
        <ele>186</ele>
        <time>2025-08-17T06:37:57.569Z</time>
      </trkpt>
      <trkpt lat="44.25167" lon="0.84179">
        <ele>186</ele>
        <time>2025-08-17T06:37:58.569Z</time>
      </trkpt>
      <trkpt lat="44.25167" lon="0.8418">
        <ele>186</ele>
        <time>2025-08-17T06:37:59.569Z</time>
      </trkpt>
      <trkpt lat="44.25167" lon="0.84181">
        <ele>186</ele>
        <time>2025-08-17T06:38:00.569Z</time>
      </trkpt>
      <trkpt lat="44.25166" lon="0.84183">
        <ele>186</ele>
        <time>2025-08-17T06:38:01.569Z</time>
      </trkpt>
      <trkpt lat="44.25165" lon="0.84184">
        <ele>186</ele>
        <time>2025-08-17T06:38:02.569Z</time>
      </trkpt>
      <trkpt lat="44.25165" lon="0.84186">
        <ele>186</ele>
        <time>2025-08-17T06:38:03.569Z</time>
      </trkpt>
      <trkpt lat="44.25165" lon="0.84188">
        <ele>186</ele>
        <time>2025-08-17T06:38:04.569Z</time>
      </trkpt>
      <trkpt lat="44.25164" lon="0.84189">
        <ele>187</ele>
        <time>2025-08-17T06:38:05.569Z</time>
      </trkpt>
      <trkpt lat="44.25163" lon="0.8419">
        <ele>186</ele>
        <time>2025-08-17T06:38:06.569Z</time>
      </trkpt>
      <trkpt lat="44.25162" lon="0.84191">
        <ele>186</ele>
        <time>2025-08-17T06:38:07.569Z</time>
      </trkpt>
      <trkpt lat="44.25162" lon="0.84193">
        <ele>186</ele>
        <time>2025-08-17T06:38:08.569Z</time>
      </trkpt>
      <trkpt lat="44.25161" lon="0.84194">
        <ele>185</ele>
        <time>2025-08-17T06:38:09.569Z</time>
      </trkpt>
      <trkpt lat="44.25161" lon="0.84195">
        <ele>185</ele>
        <time>2025-08-17T06:38:10.569Z</time>
      </trkpt>
      <trkpt lat="44.25161" lon="0.84196">
        <ele>185</ele>
        <time>2025-08-17T06:38:11.569Z</time>
      </trkpt>
      <trkpt lat="44.2516" lon="0.84198">
        <ele>185</ele>
        <time>2025-08-17T06:38:12.569Z</time>
      </trkpt>
      <trkpt lat="44.2516" lon="0.84199">
        <ele>185</ele>
        <time>2025-08-17T06:38:13.569Z</time>
      </trkpt>
      <trkpt lat="44.25159" lon="0.84201">
        <ele>185</ele>
        <time>2025-08-17T06:38:14.569Z</time>
      </trkpt>
      <trkpt lat="44.25159" lon="0.84202">
        <ele>184</ele>
        <time>2025-08-17T06:38:15.569Z</time>
      </trkpt>
      <trkpt lat="44.25158" lon="0.84203">
        <ele>184</ele>
        <time>2025-08-17T06:38:16.569Z</time>
      </trkpt>
      <trkpt lat="44.25158" lon="0.84204">
        <ele>184</ele>
        <time>2025-08-17T06:38:17.569Z</time>
      </trkpt>
      <trkpt lat="44.25157" lon="0.84205">
        <ele>184</ele>
        <time>2025-08-17T06:38:18.569Z</time>
      </trkpt>
      <trkpt lat="44.25157" lon="0.84207">
        <ele>184</ele>
        <time>2025-08-17T06:38:19.569Z</time>
      </trkpt>
      <trkpt lat="44.25157" lon="0.84208">
        <ele>184</ele>
        <time>2025-08-17T06:38:20.569Z</time>
      </trkpt>
      <trkpt lat="44.25156" lon="0.8421">
        <ele>184</ele>
        <time>2025-08-17T06:38:21.569Z</time>
      </trkpt>
      <trkpt lat="44.25156" lon="0.84212">
        <ele>184</ele>
        <time>2025-08-17T06:38:22.569Z</time>
      </trkpt>
      <trkpt lat="44.25156" lon="0.84213">
        <ele>184</ele>
        <time>2025-08-17T06:38:23.569Z</time>
      </trkpt>
      <trkpt lat="44.25155" lon="0.84214">
        <ele>183</ele>
        <time>2025-08-17T06:38:24.569Z</time>
      </trkpt>
      <trkpt lat="44.25155" lon="0.84215">
        <ele>183</ele>
        <time>2025-08-17T06:38:25.569Z</time>
      </trkpt>
      <trkpt lat="44.25155" lon="0.84217">
        <ele>182</ele>
        <time>2025-08-17T06:38:26.569Z</time>
      </trkpt>
      <trkpt lat="44.25154" lon="0.84218">
        <ele>182</ele>
        <time>2025-08-17T06:38:27.569Z</time>
      </trkpt>
      <trkpt lat="44.25153" lon="0.8422">
        <ele>182</ele>
        <time>2025-08-17T06:38:28.569Z</time>
      </trkpt>
      <trkpt lat="44.25153" lon="0.84222">
        <ele>182</ele>
        <time>2025-08-17T06:38:29.569Z</time>
      </trkpt>
      <trkpt lat="44.25152" lon="0.84223">
        <ele>182</ele>
        <time>2025-08-17T06:38:30.569Z</time>
      </trkpt>
      <trkpt lat="44.25151" lon="0.84225">
        <ele>181</ele>
        <time>2025-08-17T06:38:31.569Z</time>
      </trkpt>
      <trkpt lat="44.25151" lon="0.84226">
        <ele>181</ele>
        <time>2025-08-17T06:38:32.569Z</time>
      </trkpt>
      <trkpt lat="44.25151" lon="0.84228">
        <ele>182</ele>
        <time>2025-08-17T06:38:33.569Z</time>
      </trkpt>
      <trkpt lat="44.2515" lon="0.84229">
        <ele>182</ele>
        <time>2025-08-17T06:38:34.569Z</time>
      </trkpt>
      <trkpt lat="44.2515" lon="0.84231">
        <ele>182</ele>
        <time>2025-08-17T06:38:35.569Z</time>
      </trkpt>
      <trkpt lat="44.2515" lon="0.84233">
        <ele>182</ele>
        <time>2025-08-17T06:38:36.569Z</time>
      </trkpt>
      <trkpt lat="44.2515" lon="0.84234">
        <ele>182</ele>
        <time>2025-08-17T06:38:37.569Z</time>
      </trkpt>
      <trkpt lat="44.2515" lon="0.84236">
        <ele>182</ele>
        <time>2025-08-17T06:38:38.569Z</time>
      </trkpt>
      <trkpt lat="44.25149" lon="0.84238">
        <ele>182</ele>
        <time>2025-08-17T06:38:39.569Z</time>
      </trkpt>
      <trkpt lat="44.25148" lon="0.84239">
        <ele>182</ele>
        <time>2025-08-17T06:38:40.569Z</time>
      </trkpt>
      <trkpt lat="44.25147" lon="0.84241">
        <ele>182</ele>
        <time>2025-08-17T06:38:41.569Z</time>
      </trkpt>
      <trkpt lat="44.25147" lon="0.84243">
        <ele>182</ele>
        <time>2025-08-17T06:38:42.569Z</time>
      </trkpt>
      <trkpt lat="44.25147" lon="0.84245">
        <ele>182</ele>
        <time>2025-08-17T06:38:43.569Z</time>
      </trkpt>
      <trkpt lat="44.25147" lon="0.84247">
        <ele>182</ele>
        <time>2025-08-17T06:38:44.569Z</time>
      </trkpt>
      <trkpt lat="44.25146" lon="0.84249">
        <ele>182</ele>
        <time>2025-08-17T06:38:45.569Z</time>
      </trkpt>
      <trkpt lat="44.25145" lon="0.84251">
        <ele>183</ele>
        <time>2025-08-17T06:38:46.569Z</time>
      </trkpt>
      <trkpt lat="44.25145" lon="0.84252">
        <ele>183</ele>
        <time>2025-08-17T06:38:47.569Z</time>
      </trkpt>
      <trkpt lat="44.25145" lon="0.84254">
        <ele>184</ele>
        <time>2025-08-17T06:38:48.569Z</time>
      </trkpt>
      <trkpt lat="44.25145" lon="0.84255">
        <ele>184</ele>
        <time>2025-08-17T06:38:49.569Z</time>
      </trkpt>
      <trkpt lat="44.25145" lon="0.84257">
        <ele>184</ele>
        <time>2025-08-17T06:38:50.569Z</time>
      </trkpt>
      <trkpt lat="44.25144" lon="0.84259">
        <ele>184</ele>
        <time>2025-08-17T06:38:51.569Z</time>
      </trkpt>
      <trkpt lat="44.25144" lon="0.84261">
        <ele>184</ele>
        <time>2025-08-17T06:38:52.569Z</time>
      </trkpt>
      <trkpt lat="44.25144" lon="0.84263">
        <ele>184</ele>
        <time>2025-08-17T06:38:53.569Z</time>
      </trkpt>
      <trkpt lat="44.25143" lon="0.84264">
        <ele>184</ele>
        <time>2025-08-17T06:38:54.569Z</time>
      </trkpt>
      <trkpt lat="44.25143" lon="0.84265">
        <ele>184</ele>
        <time>2025-08-17T06:38:55.569Z</time>
      </trkpt>
      <trkpt lat="44.25143" lon="0.84266">
        <ele>184</ele>
        <time>2025-08-17T06:38:56.569Z</time>
      </trkpt>
      <trkpt lat="44.25143" lon="0.84268">
        <ele>184</ele>
        <time>2025-08-17T06:38:57.569Z</time>
      </trkpt>
      <trkpt lat="44.25143" lon="0.8427">
        <ele>184</ele>
        <time>2025-08-17T06:38:58.569Z</time>
      </trkpt>
      <trkpt lat="44.25142" lon="0.84272">
        <ele>184</ele>
        <time>2025-08-17T06:38:59.569Z</time>
      </trkpt>
      <trkpt lat="44.25142" lon="0.84274">
        <ele>184</ele>
        <time>2025-08-17T06:39:00.569Z</time>
      </trkpt>
      <trkpt lat="44.25141" lon="0.84275">
        <ele>184</ele>
        <time>2025-08-17T06:39:01.569Z</time>
      </trkpt>
      <trkpt lat="44.25141" lon="0.84277">
        <ele>183</ele>
        <time>2025-08-17T06:39:02.569Z</time>
      </trkpt>
      <trkpt lat="44.25141" lon="0.84278">
        <ele>183</ele>
        <time>2025-08-17T06:39:03.569Z</time>
      </trkpt>
      <trkpt lat="44.25141" lon="0.8428">
        <ele>183</ele>
        <time>2025-08-17T06:39:04.569Z</time>
      </trkpt>
      <trkpt lat="44.2514" lon="0.84281">
        <ele>183</ele>
        <time>2025-08-17T06:39:05.569Z</time>
      </trkpt>
      <trkpt lat="44.2514" lon="0.84282">
        <ele>182</ele>
        <time>2025-08-17T06:39:06.569Z</time>
      </trkpt>
      <trkpt lat="44.2514" lon="0.84283">
        <ele>182</ele>
        <time>2025-08-17T06:39:07.569Z</time>
      </trkpt>
      <trkpt lat="44.2514" lon="0.84285">
        <ele>182</ele>
        <time>2025-08-17T06:39:08.569Z</time>
      </trkpt>
      <trkpt lat="44.2514" lon="0.84287">
        <ele>182</ele>
        <time>2025-08-17T06:39:09.569Z</time>
      </trkpt>
      <trkpt lat="44.2514" lon="0.84289">
        <ele>182</ele>
        <time>2025-08-17T06:39:10.569Z</time>
      </trkpt>
      <trkpt lat="44.2514" lon="0.84291">
        <ele>182</ele>
        <time>2025-08-17T06:39:11.569Z</time>
      </trkpt>
      <trkpt lat="44.25139" lon="0.84292">
        <ele>183</ele>
        <time>2025-08-17T06:39:12.569Z</time>
      </trkpt>
      <trkpt lat="44.25139" lon="0.84294">
        <ele>183</ele>
        <time>2025-08-17T06:39:13.569Z</time>
      </trkpt>
      <trkpt lat="44.25139" lon="0.84295">
        <ele>183</ele>
        <time>2025-08-17T06:39:14.569Z</time>
      </trkpt>
      <trkpt lat="44.25139" lon="0.84296">
        <ele>183</ele>
        <time>2025-08-17T06:39:15.569Z</time>
      </trkpt>
      <trkpt lat="44.2514" lon="0.84298">
        <ele>183</ele>
        <time>2025-08-17T06:39:16.569Z</time>
      </trkpt>
      <trkpt lat="44.2514" lon="0.84299">
        <ele>183</ele>
        <time>2025-08-17T06:39:17.569Z</time>
      </trkpt>
      <trkpt lat="44.2514" lon="0.843">
        <ele>182</ele>
        <time>2025-08-17T06:39:18.569Z</time>
      </trkpt>
      <trkpt lat="44.2514" lon="0.84302">
        <ele>182</ele>
        <time>2025-08-17T06:39:19.569Z</time>
      </trkpt>
      <trkpt lat="44.25139" lon="0.84304">
        <ele>182</ele>
        <time>2025-08-17T06:39:20.569Z</time>
      </trkpt>
      <trkpt lat="44.25139" lon="0.84306">
        <ele>182</ele>
        <time>2025-08-17T06:39:21.569Z</time>
      </trkpt>
      <trkpt lat="44.25139" lon="0.84307">
        <ele>182</ele>
        <time>2025-08-17T06:39:22.569Z</time>
      </trkpt>
      <trkpt lat="44.25139" lon="0.84309">
        <ele>182</ele>
        <time>2025-08-17T06:39:23.569Z</time>
      </trkpt>
      <trkpt lat="44.25138" lon="0.84311">
        <ele>183</ele>
        <time>2025-08-17T06:39:24.569Z</time>
      </trkpt>
      <trkpt lat="44.25138" lon="0.84312">
        <ele>183</ele>
        <time>2025-08-17T06:39:25.569Z</time>
      </trkpt>
      <trkpt lat="44.25138" lon="0.84314">
        <ele>183</ele>
        <time>2025-08-17T06:39:26.569Z</time>
      </trkpt>
      <trkpt lat="44.25138" lon="0.84316">
        <ele>183</ele>
        <time>2025-08-17T06:39:27.569Z</time>
      </trkpt>
      <trkpt lat="44.25137" lon="0.84317">
        <ele>183</ele>
        <time>2025-08-17T06:39:28.569Z</time>
      </trkpt>
      <trkpt lat="44.25136" lon="0.84319">
        <ele>183</ele>
        <time>2025-08-17T06:39:29.569Z</time>
      </trkpt>
      <trkpt lat="44.25135" lon="0.84321">
        <ele>182</ele>
        <time>2025-08-17T06:39:30.569Z</time>
      </trkpt>
      <trkpt lat="44.25135" lon="0.84323">
        <ele>182</ele>
        <time>2025-08-17T06:39:31.569Z</time>
      </trkpt>
      <trkpt lat="44.25135" lon="0.84324">
        <ele>182</ele>
        <time>2025-08-17T06:39:32.569Z</time>
      </trkpt>
      <trkpt lat="44.25135" lon="0.84326">
        <ele>182</ele>
        <time>2025-08-17T06:39:33.569Z</time>
      </trkpt>
      <trkpt lat="44.25135" lon="0.84328">
        <ele>181</ele>
        <time>2025-08-17T06:39:34.569Z</time>
      </trkpt>
      <trkpt lat="44.25134" lon="0.84329">
        <ele>181</ele>
        <time>2025-08-17T06:39:35.569Z</time>
      </trkpt>
      <trkpt lat="44.25134" lon="0.8433">
        <ele>181</ele>
        <time>2025-08-17T06:39:36.569Z</time>
      </trkpt>
      <trkpt lat="44.25134" lon="0.84332">
        <ele>180</ele>
        <time>2025-08-17T06:39:37.569Z</time>
      </trkpt>
      <trkpt lat="44.25134" lon="0.84333">
        <ele>180</ele>
        <time>2025-08-17T06:39:38.569Z</time>
      </trkpt>
      <trkpt lat="44.25134" lon="0.84335">
        <ele>180</ele>
        <time>2025-08-17T06:39:39.569Z</time>
      </trkpt>
      <trkpt lat="44.25133" lon="0.84336">
        <ele>179</ele>
        <time>2025-08-17T06:39:40.569Z</time>
      </trkpt>
      <trkpt lat="44.25133" lon="0.84338">
        <ele>179</ele>
        <time>2025-08-17T06:39:41.569Z</time>
      </trkpt>
      <trkpt lat="44.25133" lon="0.84339">
        <ele>179</ele>
        <time>2025-08-17T06:39:42.569Z</time>
      </trkpt>
      <trkpt lat="44.25133" lon="0.8434">
        <ele>179</ele>
        <time>2025-08-17T06:39:43.569Z</time>
      </trkpt>
      <trkpt lat="44.25132" lon="0.84342">
        <ele>179</ele>
        <time>2025-08-17T06:39:44.569Z</time>
      </trkpt>
      <trkpt lat="44.25132" lon="0.84343">
        <ele>179</ele>
        <time>2025-08-17T06:39:45.569Z</time>
      </trkpt>
      <trkpt lat="44.25132" lon="0.84345">
        <ele>179</ele>
        <time>2025-08-17T06:39:46.569Z</time>
      </trkpt>
      <trkpt lat="44.25132" lon="0.84346">
        <ele>179</ele>
        <time>2025-08-17T06:39:47.569Z</time>
      </trkpt>
      <trkpt lat="44.25131" lon="0.84348">
        <ele>179</ele>
        <time>2025-08-17T06:39:48.569Z</time>
      </trkpt>
      <trkpt lat="44.25131" lon="0.8435">
        <ele>179</ele>
        <time>2025-08-17T06:39:49.569Z</time>
      </trkpt>
      <trkpt lat="44.25131" lon="0.84351">
        <ele>179</ele>
        <time>2025-08-17T06:39:50.569Z</time>
      </trkpt>
      <trkpt lat="44.25131" lon="0.84353">
        <ele>179</ele>
        <time>2025-08-17T06:39:51.569Z</time>
      </trkpt>
      <trkpt lat="44.25131" lon="0.84355">
        <ele>179</ele>
        <time>2025-08-17T06:39:52.569Z</time>
      </trkpt>
      <trkpt lat="44.25131" lon="0.84356">
        <ele>179</ele>
        <time>2025-08-17T06:39:53.569Z</time>
      </trkpt>
      <trkpt lat="44.25132" lon="0.84358">
        <ele>179</ele>
        <time>2025-08-17T06:39:54.569Z</time>
      </trkpt>
      <trkpt lat="44.25132" lon="0.84359">
        <ele>179</ele>
        <time>2025-08-17T06:39:55.569Z</time>
      </trkpt>
      <trkpt lat="44.25132" lon="0.8436">
        <ele>179</ele>
        <time>2025-08-17T06:39:56.569Z</time>
      </trkpt>
      <trkpt lat="44.25132" lon="0.84362">
        <ele>179</ele>
        <time>2025-08-17T06:39:57.569Z</time>
      </trkpt>
      <trkpt lat="44.25132" lon="0.84364">
        <ele>179</ele>
        <time>2025-08-17T06:39:58.569Z</time>
      </trkpt>
      <trkpt lat="44.25132" lon="0.84365">
        <ele>180</ele>
        <time>2025-08-17T06:39:59.569Z</time>
      </trkpt>
      <trkpt lat="44.25132" lon="0.84367">
        <ele>180</ele>
        <time>2025-08-17T06:40:00.569Z</time>
      </trkpt>
      <trkpt lat="44.25132" lon="0.84369">
        <ele>180</ele>
        <time>2025-08-17T06:40:01.569Z</time>
      </trkpt>
      <trkpt lat="44.25133" lon="0.8437">
        <ele>180</ele>
        <time>2025-08-17T06:40:02.569Z</time>
      </trkpt>
      <trkpt lat="44.25133" lon="0.84371">
        <ele>180</ele>
        <time>2025-08-17T06:40:03.569Z</time>
      </trkpt>
      <trkpt lat="44.25133" lon="0.84373">
        <ele>179</ele>
        <time>2025-08-17T06:40:04.569Z</time>
      </trkpt>
      <trkpt lat="44.25133" lon="0.84374">
        <ele>179</ele>
        <time>2025-08-17T06:40:05.569Z</time>
      </trkpt>
      <trkpt lat="44.25132" lon="0.84375">
        <ele>178</ele>
        <time>2025-08-17T06:40:06.569Z</time>
      </trkpt>
      <trkpt lat="44.25133" lon="0.84376">
        <ele>178</ele>
        <time>2025-08-17T06:40:07.569Z</time>
      </trkpt>
      <trkpt lat="44.25133" lon="0.84378">
        <ele>177</ele>
        <time>2025-08-17T06:40:08.569Z</time>
      </trkpt>
      <trkpt lat="44.25133" lon="0.84379">
        <ele>177</ele>
        <time>2025-08-17T06:40:09.569Z</time>
      </trkpt>
      <trkpt lat="44.25133" lon="0.84381">
        <ele>177</ele>
        <time>2025-08-17T06:40:10.569Z</time>
      </trkpt>
      <trkpt lat="44.25133" lon="0.84382">
        <ele>176</ele>
        <time>2025-08-17T06:40:11.569Z</time>
      </trkpt>
      <trkpt lat="44.25133" lon="0.84383">
        <ele>176</ele>
        <time>2025-08-17T06:40:12.569Z</time>
      </trkpt>
      <trkpt lat="44.25133" lon="0.84384">
        <ele>176</ele>
        <time>2025-08-17T06:40:13.569Z</time>
      </trkpt>
      <trkpt lat="44.25133" lon="0.84386">
        <ele>176</ele>
        <time>2025-08-17T06:40:14.569Z</time>
      </trkpt>
      <trkpt lat="44.25133" lon="0.84387">
        <ele>175</ele>
        <time>2025-08-17T06:40:15.569Z</time>
      </trkpt>
      <trkpt lat="44.25134" lon="0.84388">
        <ele>175</ele>
        <time>2025-08-17T06:40:16.569Z</time>
      </trkpt>
      <trkpt lat="44.25135" lon="0.84389">
        <ele>175</ele>
        <time>2025-08-17T06:40:17.569Z</time>
      </trkpt>
      <trkpt lat="44.25135" lon="0.8439">
        <ele>175</ele>
        <time>2025-08-17T06:40:18.569Z</time>
      </trkpt>
      <trkpt lat="44.25136" lon="0.84391">
        <ele>175</ele>
        <time>2025-08-17T06:40:19.569Z</time>
      </trkpt>
      <trkpt lat="44.25136" lon="0.84393">
        <ele>175</ele>
        <time>2025-08-17T06:40:20.569Z</time>
      </trkpt>
      <trkpt lat="44.25136" lon="0.84394">
        <ele>175</ele>
        <time>2025-08-17T06:40:21.569Z</time>
      </trkpt>
      <trkpt lat="44.25136" lon="0.84395">
        <ele>175</ele>
        <time>2025-08-17T06:40:22.569Z</time>
      </trkpt>
      <trkpt lat="44.25137" lon="0.84397">
        <ele>175</ele>
        <time>2025-08-17T06:40:23.569Z</time>
      </trkpt>
      <trkpt lat="44.25137" lon="0.84398">
        <ele>175</ele>
        <time>2025-08-17T06:40:24.569Z</time>
      </trkpt>
      <trkpt lat="44.25138" lon="0.84399">
        <ele>175</ele>
        <time>2025-08-17T06:40:25.569Z</time>
      </trkpt>
      <trkpt lat="44.25138" lon="0.844">
        <ele>175</ele>
        <time>2025-08-17T06:40:26.569Z</time>
      </trkpt>
      <trkpt lat="44.25139" lon="0.84402">
        <ele>175</ele>
        <time>2025-08-17T06:40:27.569Z</time>
      </trkpt>
      <trkpt lat="44.25139" lon="0.84403">
        <ele>175</ele>
        <time>2025-08-17T06:40:28.569Z</time>
      </trkpt>
      <trkpt lat="44.2514" lon="0.84404">
        <ele>175</ele>
        <time>2025-08-17T06:40:29.569Z</time>
      </trkpt>
      <trkpt lat="44.25141" lon="0.84405">
        <ele>176</ele>
        <time>2025-08-17T06:40:30.569Z</time>
      </trkpt>
      <trkpt lat="44.25141" lon="0.84407">
        <ele>176</ele>
        <time>2025-08-17T06:40:31.569Z</time>
      </trkpt>
      <trkpt lat="44.25141" lon="0.84408">
        <ele>176</ele>
        <time>2025-08-17T06:40:32.569Z</time>
      </trkpt>
      <trkpt lat="44.25142" lon="0.84409">
        <ele>177</ele>
        <time>2025-08-17T06:40:33.569Z</time>
      </trkpt>
      <trkpt lat="44.25142" lon="0.8441">
        <ele>177</ele>
        <time>2025-08-17T06:40:34.569Z</time>
      </trkpt>
      <trkpt lat="44.25143" lon="0.84411">
        <ele>177</ele>
        <time>2025-08-17T06:40:35.569Z</time>
      </trkpt>
      <trkpt lat="44.25143" lon="0.84413">
        <ele>177</ele>
        <time>2025-08-17T06:40:36.569Z</time>
      </trkpt>
      <trkpt lat="44.25144" lon="0.84414">
        <ele>178</ele>
        <time>2025-08-17T06:40:37.569Z</time>
      </trkpt>
      <trkpt lat="44.25145" lon="0.84415">
        <ele>178</ele>
        <time>2025-08-17T06:40:38.569Z</time>
      </trkpt>
      <trkpt lat="44.25145" lon="0.84417">
        <ele>178</ele>
        <time>2025-08-17T06:40:39.569Z</time>
      </trkpt>
      <trkpt lat="44.25145" lon="0.84418">
        <ele>178</ele>
        <time>2025-08-17T06:40:40.569Z</time>
      </trkpt>
      <trkpt lat="44.25146" lon="0.8442">
        <ele>178</ele>
        <time>2025-08-17T06:40:41.569Z</time>
      </trkpt>
      <trkpt lat="44.25147" lon="0.84421">
        <ele>179</ele>
        <time>2025-08-17T06:40:42.569Z</time>
      </trkpt>
      <trkpt lat="44.25147" lon="0.84423">
        <ele>179</ele>
        <time>2025-08-17T06:40:43.569Z</time>
      </trkpt>
      <trkpt lat="44.25148" lon="0.84425">
        <ele>179</ele>
        <time>2025-08-17T06:40:44.569Z</time>
      </trkpt>
      <trkpt lat="44.25148" lon="0.84427">
        <ele>179</ele>
        <time>2025-08-17T06:40:45.569Z</time>
      </trkpt>
      <trkpt lat="44.25148" lon="0.84429">
        <ele>180</ele>
        <time>2025-08-17T06:40:46.569Z</time>
      </trkpt>
      <trkpt lat="44.25148" lon="0.84431">
        <ele>180</ele>
        <time>2025-08-17T06:40:47.569Z</time>
      </trkpt>
      <trkpt lat="44.25148" lon="0.84432">
        <ele>180</ele>
        <time>2025-08-17T06:40:48.569Z</time>
      </trkpt>
      <trkpt lat="44.25149" lon="0.84434">
        <ele>179</ele>
        <time>2025-08-17T06:40:49.569Z</time>
      </trkpt>
      <trkpt lat="44.25149" lon="0.84435">
        <ele>180</ele>
        <time>2025-08-17T06:40:50.569Z</time>
      </trkpt>
      <trkpt lat="44.25149" lon="0.84436">
        <ele>180</ele>
        <time>2025-08-17T06:40:51.569Z</time>
      </trkpt>
      <trkpt lat="44.2515" lon="0.84438">
        <ele>180</ele>
        <time>2025-08-17T06:40:52.569Z</time>
      </trkpt>
      <trkpt lat="44.2515" lon="0.84439">
        <ele>180</ele>
        <time>2025-08-17T06:40:53.569Z</time>
      </trkpt>
      <trkpt lat="44.25151" lon="0.8444">
        <ele>180</ele>
        <time>2025-08-17T06:40:54.569Z</time>
      </trkpt>
      <trkpt lat="44.25151" lon="0.84441">
        <ele>179</ele>
        <time>2025-08-17T06:40:55.569Z</time>
      </trkpt>
      <trkpt lat="44.25151" lon="0.84443">
        <ele>179</ele>
        <time>2025-08-17T06:40:56.569Z</time>
      </trkpt>
      <trkpt lat="44.25151" lon="0.84445">
        <ele>178</ele>
        <time>2025-08-17T06:40:57.569Z</time>
      </trkpt>
      <trkpt lat="44.25152" lon="0.84447">
        <ele>178</ele>
        <time>2025-08-17T06:40:58.569Z</time>
      </trkpt>
      <trkpt lat="44.25152" lon="0.84449">
        <ele>178</ele>
        <time>2025-08-17T06:40:59.569Z</time>
      </trkpt>
      <trkpt lat="44.25152" lon="0.8445">
        <ele>178</ele>
        <time>2025-08-17T06:41:00.569Z</time>
      </trkpt>
      <trkpt lat="44.25152" lon="0.84451">
        <ele>178</ele>
        <time>2025-08-17T06:41:01.569Z</time>
      </trkpt>
      <trkpt lat="44.25152" lon="0.84452">
        <ele>178</ele>
        <time>2025-08-17T06:41:02.569Z</time>
      </trkpt>
      <trkpt lat="44.25152" lon="0.84454">
        <ele>178</ele>
        <time>2025-08-17T06:41:03.569Z</time>
      </trkpt>
      <trkpt lat="44.25152" lon="0.84456">
        <ele>178</ele>
        <time>2025-08-17T06:41:04.569Z</time>
      </trkpt>
      <trkpt lat="44.25152" lon="0.84457">
        <ele>178</ele>
        <time>2025-08-17T06:41:05.569Z</time>
      </trkpt>
      <trkpt lat="44.25152" lon="0.84459">
        <ele>177</ele>
        <time>2025-08-17T06:41:06.569Z</time>
      </trkpt>
      <trkpt lat="44.25152" lon="0.8446">
        <ele>177</ele>
        <time>2025-08-17T06:41:07.569Z</time>
      </trkpt>
      <trkpt lat="44.25153" lon="0.84462">
        <ele>176</ele>
        <time>2025-08-17T06:41:08.569Z</time>
      </trkpt>
      <trkpt lat="44.25152" lon="0.84464">
        <ele>176</ele>
        <time>2025-08-17T06:41:09.569Z</time>
      </trkpt>
      <trkpt lat="44.25152" lon="0.84465">
        <ele>176</ele>
        <time>2025-08-17T06:41:10.569Z</time>
      </trkpt>
      <trkpt lat="44.25152" lon="0.84466">
        <ele>176</ele>
        <time>2025-08-17T06:41:11.569Z</time>
      </trkpt>
      <trkpt lat="44.25153" lon="0.84467">
        <ele>176</ele>
        <time>2025-08-17T06:41:12.569Z</time>
      </trkpt>
      <trkpt lat="44.25153" lon="0.84469">
        <ele>176</ele>
        <time>2025-08-17T06:41:13.569Z</time>
      </trkpt>
      <trkpt lat="44.25153" lon="0.84471">
        <ele>176</ele>
        <time>2025-08-17T06:41:14.569Z</time>
      </trkpt>
      <trkpt lat="44.25153" lon="0.84472">
        <ele>176</ele>
        <time>2025-08-17T06:41:15.569Z</time>
      </trkpt>
      <trkpt lat="44.25153" lon="0.84474">
        <ele>176</ele>
        <time>2025-08-17T06:41:16.569Z</time>
      </trkpt>
      <trkpt lat="44.25154" lon="0.84476">
        <ele>177</ele>
        <time>2025-08-17T06:41:17.569Z</time>
      </trkpt>
      <trkpt lat="44.25154" lon="0.84479">
        <ele>177</ele>
        <time>2025-08-17T06:41:18.569Z</time>
      </trkpt>
      <trkpt lat="44.25154" lon="0.8448">
        <ele>177</ele>
        <time>2025-08-17T06:41:19.569Z</time>
      </trkpt>
      <trkpt lat="44.25154" lon="0.84482">
        <ele>176</ele>
        <time>2025-08-17T06:41:20.569Z</time>
      </trkpt>
      <trkpt lat="44.25155" lon="0.84483">
        <ele>176</ele>
        <time>2025-08-17T06:41:21.569Z</time>
      </trkpt>
      <trkpt lat="44.25154" lon="0.84485">
        <ele>176</ele>
        <time>2025-08-17T06:41:22.569Z</time>
      </trkpt>
      <trkpt lat="44.25154" lon="0.84486">
        <ele>176</ele>
        <time>2025-08-17T06:41:23.569Z</time>
      </trkpt>
      <trkpt lat="44.25154" lon="0.84488">
        <ele>176</ele>
        <time>2025-08-17T06:41:24.569Z</time>
      </trkpt>
      <trkpt lat="44.25152" lon="0.84489">
        <ele>175</ele>
        <time>2025-08-17T06:41:25.569Z</time>
      </trkpt>
      <trkpt lat="44.25152" lon="0.84491">
        <ele>175</ele>
        <time>2025-08-17T06:41:26.569Z</time>
      </trkpt>
      <trkpt lat="44.25151" lon="0.84493">
        <ele>175</ele>
        <time>2025-08-17T06:41:27.569Z</time>
      </trkpt>
      <trkpt lat="44.25151" lon="0.84496">
        <ele>175</ele>
        <time>2025-08-17T06:41:28.569Z</time>
      </trkpt>
      <trkpt lat="44.25152" lon="0.84498">
        <ele>174</ele>
        <time>2025-08-17T06:41:29.569Z</time>
      </trkpt>
      <trkpt lat="44.25152" lon="0.84499">
        <ele>175</ele>
        <time>2025-08-17T06:41:30.569Z</time>
      </trkpt>
      <trkpt lat="44.25151" lon="0.845">
        <ele>175</ele>
        <time>2025-08-17T06:41:31.569Z</time>
      </trkpt>
      <trkpt lat="44.25151" lon="0.84501">
        <ele>175</ele>
        <time>2025-08-17T06:41:32.569Z</time>
      </trkpt>
      <trkpt lat="44.25151" lon="0.84502">
        <ele>175</ele>
        <time>2025-08-17T06:41:33.569Z</time>
      </trkpt>
      <trkpt lat="44.2515" lon="0.84503">
        <ele>175</ele>
        <time>2025-08-17T06:41:34.569Z</time>
      </trkpt>
      <trkpt lat="44.25149" lon="0.84505">
        <ele>175</ele>
        <time>2025-08-17T06:41:35.569Z</time>
      </trkpt>
      <trkpt lat="44.25149" lon="0.84507">
        <ele>175</ele>
        <time>2025-08-17T06:41:36.569Z</time>
      </trkpt>
      <trkpt lat="44.25149" lon="0.84509">
        <ele>175</ele>
        <time>2025-08-17T06:41:37.569Z</time>
      </trkpt>
      <trkpt lat="44.25149" lon="0.8451">
        <ele>175</ele>
        <time>2025-08-17T06:41:38.569Z</time>
      </trkpt>
      <trkpt lat="44.25148" lon="0.84511">
        <ele>175</ele>
        <time>2025-08-17T06:41:39.569Z</time>
      </trkpt>
      <trkpt lat="44.25148" lon="0.84513">
        <ele>175</ele>
        <time>2025-08-17T06:41:40.569Z</time>
      </trkpt>
      <trkpt lat="44.25147" lon="0.84515">
        <ele>175</ele>
        <time>2025-08-17T06:41:41.569Z</time>
      </trkpt>
      <trkpt lat="44.25147" lon="0.84516">
        <ele>175</ele>
        <time>2025-08-17T06:41:42.569Z</time>
      </trkpt>
      <trkpt lat="44.25147" lon="0.84518">
        <ele>175</ele>
        <time>2025-08-17T06:41:43.569Z</time>
      </trkpt>
      <trkpt lat="44.25147" lon="0.8452">
        <ele>174</ele>
        <time>2025-08-17T06:41:44.569Z</time>
      </trkpt>
      <trkpt lat="44.25146" lon="0.84521">
        <ele>174</ele>
        <time>2025-08-17T06:41:45.569Z</time>
      </trkpt>
      <trkpt lat="44.25145" lon="0.84522">
        <ele>174</ele>
        <time>2025-08-17T06:41:46.569Z</time>
      </trkpt>
      <trkpt lat="44.25145" lon="0.84523">
        <ele>174</ele>
        <time>2025-08-17T06:41:47.569Z</time>
      </trkpt>
      <trkpt lat="44.25145" lon="0.84524">
        <ele>174</ele>
        <time>2025-08-17T06:41:48.569Z</time>
      </trkpt>
      <trkpt lat="44.25144" lon="0.84525">
        <ele>174</ele>
        <time>2025-08-17T06:41:49.569Z</time>
      </trkpt>
      <trkpt lat="44.25144" lon="0.84525">
        <ele>175</ele>
        <time>2025-08-17T06:41:50.569Z</time>
      </trkpt>
      <trkpt lat="44.25143" lon="0.84525">
        <ele>175</ele>
        <time>2025-08-17T06:41:51.569Z</time>
      </trkpt>
      <trkpt lat="44.25142" lon="0.84526">
        <ele>175</ele>
        <time>2025-08-17T06:41:52.569Z</time>
      </trkpt>
      <trkpt lat="44.25141" lon="0.84526">
        <ele>175</ele>
        <time>2025-08-17T06:41:53.569Z</time>
      </trkpt>
      <trkpt lat="44.2514" lon="0.84527">
        <ele>175</ele>
        <time>2025-08-17T06:41:54.569Z</time>
      </trkpt>
      <trkpt lat="44.25139" lon="0.84527">
        <ele>176</ele>
        <time>2025-08-17T06:41:55.569Z</time>
      </trkpt>
      <trkpt lat="44.25139" lon="0.84527">
        <ele>176</ele>
        <time>2025-08-17T06:41:56.569Z</time>
      </trkpt>
      <trkpt lat="44.25138" lon="0.84527">
        <ele>176</ele>
        <time>2025-08-17T06:41:57.569Z</time>
      </trkpt>
      <trkpt lat="44.25137" lon="0.84526">
        <ele>177</ele>
        <time>2025-08-17T06:41:58.569Z</time>
      </trkpt>
      <trkpt lat="44.25136" lon="0.84526">
        <ele>177</ele>
        <time>2025-08-17T06:41:59.569Z</time>
      </trkpt>
      <trkpt lat="44.25134" lon="0.84526">
        <ele>178</ele>
        <time>2025-08-17T06:42:00.569Z</time>
      </trkpt>
      <trkpt lat="44.25133" lon="0.84524">
        <ele>178</ele>
        <time>2025-08-17T06:42:01.569Z</time>
      </trkpt>
      <trkpt lat="44.25133" lon="0.84524">
        <ele>179</ele>
        <time>2025-08-17T06:42:02.569Z</time>
      </trkpt>
      <trkpt lat="44.25132" lon="0.84523">
        <ele>179</ele>
        <time>2025-08-17T06:42:03.569Z</time>
      </trkpt>
      <trkpt lat="44.25132" lon="0.84522">
        <ele>179</ele>
        <time>2025-08-17T06:42:04.569Z</time>
      </trkpt>
      <trkpt lat="44.25131" lon="0.84522">
        <ele>179</ele>
        <time>2025-08-17T06:42:05.569Z</time>
      </trkpt>
      <trkpt lat="44.25131" lon="0.84521">
        <ele>180</ele>
        <time>2025-08-17T06:42:06.569Z</time>
      </trkpt>
      <trkpt lat="44.2513" lon="0.84521">
        <ele>180</ele>
        <time>2025-08-17T06:42:07.569Z</time>
      </trkpt>
      <trkpt lat="44.25129" lon="0.84521">
        <ele>180</ele>
        <time>2025-08-17T06:42:08.569Z</time>
      </trkpt>
      <trkpt lat="44.25129" lon="0.84521">
        <ele>180</ele>
        <time>2025-08-17T06:42:09.569Z</time>
      </trkpt>
      <trkpt lat="44.25129" lon="0.84519">
        <ele>180</ele>
        <time>2025-08-17T06:42:10.569Z</time>
      </trkpt>
      <trkpt lat="44.25128" lon="0.84518">
        <ele>179</ele>
        <time>2025-08-17T06:42:11.569Z</time>
      </trkpt>
      <trkpt lat="44.25128" lon="0.84518">
        <ele>179</ele>
        <time>2025-08-17T06:42:12.569Z</time>
      </trkpt>
      <trkpt lat="44.25126" lon="0.84517">
        <ele>179</ele>
        <time>2025-08-17T06:42:13.569Z</time>
      </trkpt>
      <trkpt lat="44.25125" lon="0.84515">
        <ele>178</ele>
        <time>2025-08-17T06:42:14.569Z</time>
      </trkpt>
      <trkpt lat="44.25125" lon="0.84513">
        <ele>178</ele>
        <time>2025-08-17T06:42:15.569Z</time>
      </trkpt>
      <trkpt lat="44.25124" lon="0.84512">
        <ele>178</ele>
        <time>2025-08-17T06:42:16.569Z</time>
      </trkpt>
      <trkpt lat="44.25123" lon="0.8451">
        <ele>177</ele>
        <time>2025-08-17T06:42:17.569Z</time>
      </trkpt>
      <trkpt lat="44.25122" lon="0.84508">
        <ele>177</ele>
        <time>2025-08-17T06:42:18.569Z</time>
      </trkpt>
      <trkpt lat="44.25121" lon="0.84507">
        <ele>176</ele>
        <time>2025-08-17T06:42:19.569Z</time>
      </trkpt>
      <trkpt lat="44.2512" lon="0.84506">
        <ele>176</ele>
        <time>2025-08-17T06:42:20.569Z</time>
      </trkpt>
      <trkpt lat="44.25119" lon="0.84505">
        <ele>176</ele>
        <time>2025-08-17T06:42:21.569Z</time>
      </trkpt>
      <trkpt lat="44.25118" lon="0.84504">
        <ele>176</ele>
        <time>2025-08-17T06:42:22.569Z</time>
      </trkpt>
      <trkpt lat="44.25118" lon="0.84503">
        <ele>176</ele>
        <time>2025-08-17T06:42:23.569Z</time>
      </trkpt>
      <trkpt lat="44.25117" lon="0.84501">
        <ele>176</ele>
        <time>2025-08-17T06:42:24.569Z</time>
      </trkpt>
      <trkpt lat="44.25117" lon="0.84499">
        <ele>176</ele>
        <time>2025-08-17T06:42:25.569Z</time>
      </trkpt>
      <trkpt lat="44.25115" lon="0.84498">
        <ele>176</ele>
        <time>2025-08-17T06:42:26.569Z</time>
      </trkpt>
      <trkpt lat="44.25114" lon="0.84497">
        <ele>176</ele>
        <time>2025-08-17T06:42:27.569Z</time>
      </trkpt>
      <trkpt lat="44.25114" lon="0.84495">
        <ele>175</ele>
        <time>2025-08-17T06:42:28.569Z</time>
      </trkpt>
      <trkpt lat="44.25113" lon="0.84493">
        <ele>175</ele>
        <time>2025-08-17T06:42:29.569Z</time>
      </trkpt>
      <trkpt lat="44.25112" lon="0.84492">
        <ele>175</ele>
        <time>2025-08-17T06:42:30.569Z</time>
      </trkpt>
      <trkpt lat="44.25112" lon="0.84491">
        <ele>174</ele>
        <time>2025-08-17T06:42:31.569Z</time>
      </trkpt>
      <trkpt lat="44.25111" lon="0.8449">
        <ele>174</ele>
        <time>2025-08-17T06:42:32.569Z</time>
      </trkpt>
      <trkpt lat="44.25111" lon="0.84489">
        <ele>173</ele>
        <time>2025-08-17T06:42:33.569Z</time>
      </trkpt>
      <trkpt lat="44.2511" lon="0.84487">
        <ele>173</ele>
        <time>2025-08-17T06:42:34.569Z</time>
      </trkpt>
      <trkpt lat="44.25109" lon="0.84486">
        <ele>173</ele>
        <time>2025-08-17T06:42:35.569Z</time>
      </trkpt>
      <trkpt lat="44.25109" lon="0.84485">
        <ele>173</ele>
        <time>2025-08-17T06:42:36.569Z</time>
      </trkpt>
      <trkpt lat="44.25108" lon="0.84484">
        <ele>173</ele>
        <time>2025-08-17T06:42:37.569Z</time>
      </trkpt>
      <trkpt lat="44.25108" lon="0.84483">
        <ele>172</ele>
        <time>2025-08-17T06:42:38.569Z</time>
      </trkpt>
      <trkpt lat="44.25107" lon="0.84481">
        <ele>172</ele>
        <time>2025-08-17T06:42:39.569Z</time>
      </trkpt>
      <trkpt lat="44.25107" lon="0.8448">
        <ele>172</ele>
        <time>2025-08-17T06:42:40.569Z</time>
      </trkpt>
      <trkpt lat="44.25106" lon="0.84478">
        <ele>172</ele>
        <time>2025-08-17T06:42:41.569Z</time>
      </trkpt>
      <trkpt lat="44.25106" lon="0.84477">
        <ele>172</ele>
        <time>2025-08-17T06:42:42.569Z</time>
      </trkpt>
      <trkpt lat="44.25105" lon="0.84476">
        <ele>171</ele>
        <time>2025-08-17T06:42:43.569Z</time>
      </trkpt>
      <trkpt lat="44.25105" lon="0.84474">
        <ele>171</ele>
        <time>2025-08-17T06:42:44.569Z</time>
      </trkpt>
      <trkpt lat="44.25104" lon="0.84472">
        <ele>171</ele>
        <time>2025-08-17T06:42:45.569Z</time>
      </trkpt>
      <trkpt lat="44.25103" lon="0.8447">
        <ele>170</ele>
        <time>2025-08-17T06:42:46.569Z</time>
      </trkpt>
      <trkpt lat="44.25102" lon="0.84469">
        <ele>170</ele>
        <time>2025-08-17T06:42:47.569Z</time>
      </trkpt>
      <trkpt lat="44.25101" lon="0.84468">
        <ele>170</ele>
        <time>2025-08-17T06:42:48.569Z</time>
      </trkpt>
      <trkpt lat="44.251" lon="0.84466">
        <ele>170</ele>
        <time>2025-08-17T06:42:49.569Z</time>
      </trkpt>
      <trkpt lat="44.251" lon="0.84465">
        <ele>170</ele>
        <time>2025-08-17T06:42:50.569Z</time>
      </trkpt>
      <trkpt lat="44.25099" lon="0.84464">
        <ele>170</ele>
        <time>2025-08-17T06:42:51.569Z</time>
      </trkpt>
      <trkpt lat="44.25099" lon="0.84463">
        <ele>170</ele>
        <time>2025-08-17T06:42:52.569Z</time>
      </trkpt>
      <trkpt lat="44.25098" lon="0.84462">
        <ele>170</ele>
        <time>2025-08-17T06:42:53.569Z</time>
      </trkpt>
      <trkpt lat="44.25098" lon="0.8446">
        <ele>170</ele>
        <time>2025-08-17T06:42:54.569Z</time>
      </trkpt>
      <trkpt lat="44.25097" lon="0.84459">
        <ele>169</ele>
        <time>2025-08-17T06:42:55.569Z</time>
      </trkpt>
      <trkpt lat="44.25098" lon="0.84458">
        <ele>169</ele>
        <time>2025-08-17T06:42:56.569Z</time>
      </trkpt>
      <trkpt lat="44.25097" lon="0.84457">
        <ele>168</ele>
        <time>2025-08-17T06:42:57.569Z</time>
      </trkpt>
      <trkpt lat="44.25097" lon="0.84456">
        <ele>168</ele>
        <time>2025-08-17T06:42:58.569Z</time>
      </trkpt>
      <trkpt lat="44.25096" lon="0.84455">
        <ele>168</ele>
        <time>2025-08-17T06:42:59.569Z</time>
      </trkpt>
      <trkpt lat="44.25095" lon="0.84454">
        <ele>168</ele>
        <time>2025-08-17T06:43:00.569Z</time>
      </trkpt>
      <trkpt lat="44.25094" lon="0.84453">
        <ele>168</ele>
        <time>2025-08-17T06:43:01.569Z</time>
      </trkpt>
      <trkpt lat="44.25094" lon="0.84452">
        <ele>168</ele>
        <time>2025-08-17T06:43:02.569Z</time>
      </trkpt>
      <trkpt lat="44.25094" lon="0.8445">
        <ele>167</ele>
        <time>2025-08-17T06:43:03.569Z</time>
      </trkpt>
      <trkpt lat="44.25093" lon="0.84449">
        <ele>167</ele>
        <time>2025-08-17T06:43:04.569Z</time>
      </trkpt>
      <trkpt lat="44.25093" lon="0.84447">
        <ele>167</ele>
        <time>2025-08-17T06:43:05.569Z</time>
      </trkpt>
      <trkpt lat="44.25092" lon="0.84445">
        <ele>166</ele>
        <time>2025-08-17T06:43:06.569Z</time>
      </trkpt>
      <trkpt lat="44.25091" lon="0.84444">
        <ele>166</ele>
        <time>2025-08-17T06:43:07.569Z</time>
      </trkpt>
      <trkpt lat="44.25091" lon="0.84442">
        <ele>166</ele>
        <time>2025-08-17T06:43:08.569Z</time>
      </trkpt>
      <trkpt lat="44.2509" lon="0.84441">
        <ele>166</ele>
        <time>2025-08-17T06:43:09.569Z</time>
      </trkpt>
      <trkpt lat="44.25089" lon="0.8444">
        <ele>166</ele>
        <time>2025-08-17T06:43:10.569Z</time>
      </trkpt>
      <trkpt lat="44.25089" lon="0.84439">
        <ele>166</ele>
        <time>2025-08-17T06:43:11.569Z</time>
      </trkpt>
      <trkpt lat="44.25089" lon="0.84438">
        <ele>166</ele>
        <time>2025-08-17T06:43:12.569Z</time>
      </trkpt>
      <trkpt lat="44.25088" lon="0.84437">
        <ele>166</ele>
        <time>2025-08-17T06:43:13.569Z</time>
      </trkpt>
      <trkpt lat="44.25088" lon="0.84436">
        <ele>166</ele>
        <time>2025-08-17T06:43:14.569Z</time>
      </trkpt>
      <trkpt lat="44.25088" lon="0.84435">
        <ele>166</ele>
        <time>2025-08-17T06:43:15.569Z</time>
      </trkpt>
      <trkpt lat="44.25087" lon="0.84434">
        <ele>166</ele>
        <time>2025-08-17T06:43:16.569Z</time>
      </trkpt>
      <trkpt lat="44.25086" lon="0.84433">
        <ele>167</ele>
        <time>2025-08-17T06:43:17.569Z</time>
      </trkpt>
      <trkpt lat="44.25086" lon="0.84432">
        <ele>166</ele>
        <time>2025-08-17T06:43:18.569Z</time>
      </trkpt>
      <trkpt lat="44.25085" lon="0.84431">
        <ele>166</ele>
        <time>2025-08-17T06:43:19.569Z</time>
      </trkpt>
      <trkpt lat="44.25085" lon="0.8443">
        <ele>166</ele>
        <time>2025-08-17T06:43:20.569Z</time>
      </trkpt>
      <trkpt lat="44.25084" lon="0.84429">
        <ele>166</ele>
        <time>2025-08-17T06:43:21.569Z</time>
      </trkpt>
      <trkpt lat="44.25083" lon="0.84428">
        <ele>166</ele>
        <time>2025-08-17T06:43:22.569Z</time>
      </trkpt>
      <trkpt lat="44.25083" lon="0.84427">
        <ele>166</ele>
        <time>2025-08-17T06:43:23.569Z</time>
      </trkpt>
      <trkpt lat="44.25082" lon="0.84426">
        <ele>167</ele>
        <time>2025-08-17T06:43:24.569Z</time>
      </trkpt>
      <trkpt lat="44.25082" lon="0.84425">
        <ele>167</ele>
        <time>2025-08-17T06:43:25.569Z</time>
      </trkpt>
      <trkpt lat="44.25081" lon="0.84424">
        <ele>168</ele>
        <time>2025-08-17T06:43:26.569Z</time>
      </trkpt>
      <trkpt lat="44.25081" lon="0.84424">
        <ele>168</ele>
        <time>2025-08-17T06:43:27.569Z</time>
      </trkpt>
      <trkpt lat="44.25081" lon="0.84422">
        <ele>169</ele>
        <time>2025-08-17T06:43:28.569Z</time>
      </trkpt>
      <trkpt lat="44.2508" lon="0.84421">
        <ele>169</ele>
        <time>2025-08-17T06:43:29.569Z</time>
      </trkpt>
      <trkpt lat="44.25079" lon="0.84419">
        <ele>169</ele>
        <time>2025-08-17T06:43:30.569Z</time>
      </trkpt>
      <trkpt lat="44.25079" lon="0.84418">
        <ele>169</ele>
        <time>2025-08-17T06:43:31.569Z</time>
      </trkpt>
      <trkpt lat="44.25079" lon="0.84417">
        <ele>169</ele>
        <time>2025-08-17T06:43:32.569Z</time>
      </trkpt>
      <trkpt lat="44.25078" lon="0.84416">
        <ele>169</ele>
        <time>2025-08-17T06:43:33.569Z</time>
      </trkpt>
      <trkpt lat="44.25078" lon="0.84415">
        <ele>168</ele>
        <time>2025-08-17T06:43:34.569Z</time>
      </trkpt>
      <trkpt lat="44.25077" lon="0.84413">
        <ele>168</ele>
        <time>2025-08-17T06:43:35.569Z</time>
      </trkpt>
      <trkpt lat="44.25077" lon="0.84412">
        <ele>168</ele>
        <time>2025-08-17T06:43:36.569Z</time>
      </trkpt>
      <trkpt lat="44.25076" lon="0.84411">
        <ele>168</ele>
        <time>2025-08-17T06:43:37.569Z</time>
      </trkpt>
      <trkpt lat="44.25076" lon="0.84409">
        <ele>167</ele>
        <time>2025-08-17T06:43:38.569Z</time>
      </trkpt>
      <trkpt lat="44.25076" lon="0.84408">
        <ele>167</ele>
        <time>2025-08-17T06:43:39.569Z</time>
      </trkpt>
      <trkpt lat="44.25076" lon="0.84407">
        <ele>167</ele>
        <time>2025-08-17T06:43:40.569Z</time>
      </trkpt>
      <trkpt lat="44.25075" lon="0.84407">
        <ele>167</ele>
        <time>2025-08-17T06:43:41.569Z</time>
      </trkpt>
      <trkpt lat="44.25074" lon="0.84407">
        <ele>167</ele>
        <time>2025-08-17T06:43:42.569Z</time>
      </trkpt>
      <trkpt lat="44.25074" lon="0.84407">
        <ele>167</ele>
        <time>2025-08-17T06:43:43.569Z</time>
      </trkpt>
      <trkpt lat="44.25073" lon="0.84407">
        <ele>167</ele>
        <time>2025-08-17T06:43:44.569Z</time>
      </trkpt>
      <trkpt lat="44.25072" lon="0.84408">
        <ele>167</ele>
        <time>2025-08-17T06:43:45.569Z</time>
      </trkpt>
      <trkpt lat="44.25071" lon="0.84408">
        <ele>167</ele>
        <time>2025-08-17T06:43:46.569Z</time>
      </trkpt>
      <trkpt lat="44.2507" lon="0.84409">
        <ele>168</ele>
        <time>2025-08-17T06:43:47.569Z</time>
      </trkpt>
      <trkpt lat="44.25069" lon="0.8441">
        <ele>168</ele>
        <time>2025-08-17T06:43:48.569Z</time>
      </trkpt>
      <trkpt lat="44.25069" lon="0.84411">
        <ele>167</ele>
        <time>2025-08-17T06:43:49.569Z</time>
      </trkpt>
      <trkpt lat="44.25068" lon="0.84411">
        <ele>167</ele>
        <time>2025-08-17T06:43:50.569Z</time>
      </trkpt>
      <trkpt lat="44.25068" lon="0.84411">
        <ele>167</ele>
        <time>2025-08-17T06:43:51.569Z</time>
      </trkpt>
      <trkpt lat="44.25067" lon="0.84411">
        <ele>168</ele>
        <time>2025-08-17T06:43:52.569Z</time>
      </trkpt>
      <trkpt lat="44.25067" lon="0.84411">
        <ele>168</ele>
        <time>2025-08-17T06:43:53.569Z</time>
      </trkpt>
      <trkpt lat="44.25067" lon="0.84412">
        <ele>169</ele>
        <time>2025-08-17T06:43:54.569Z</time>
      </trkpt>
      <trkpt lat="44.25066" lon="0.84412">
        <ele>169</ele>
        <time>2025-08-17T06:43:55.569Z</time>
      </trkpt>
      <trkpt lat="44.25066" lon="0.84413">
        <ele>169</ele>
        <time>2025-08-17T06:43:56.569Z</time>
      </trkpt>
      <trkpt lat="44.25066" lon="0.84413">
        <ele>170</ele>
        <time>2025-08-17T06:43:57.569Z</time>
      </trkpt>
      <trkpt lat="44.25065" lon="0.84413">
        <ele>170</ele>
        <time>2025-08-17T06:43:58.569Z</time>
      </trkpt>
      <trkpt lat="44.25065" lon="0.84413">
        <ele>170</ele>
        <time>2025-08-17T06:43:59.569Z</time>
      </trkpt>
      <trkpt lat="44.25064" lon="0.84414">
        <ele>170</ele>
        <time>2025-08-17T06:44:00.569Z</time>
      </trkpt>
      <trkpt lat="44.25064" lon="0.84413">
        <ele>171</ele>
        <time>2025-08-17T06:44:01.569Z</time>
      </trkpt>
      <trkpt lat="44.25063" lon="0.84413">
        <ele>171</ele>
        <time>2025-08-17T06:44:02.569Z</time>
      </trkpt>
      <trkpt lat="44.25062" lon="0.84412">
        <ele>171</ele>
        <time>2025-08-17T06:44:03.569Z</time>
      </trkpt>
      <trkpt lat="44.25061" lon="0.84412">
        <ele>171</ele>
        <time>2025-08-17T06:44:04.569Z</time>
      </trkpt>
      <trkpt lat="44.25061" lon="0.84412">
        <ele>171</ele>
        <time>2025-08-17T06:44:05.569Z</time>
      </trkpt>
      <trkpt lat="44.25061" lon="0.84412">
        <ele>171</ele>
        <time>2025-08-17T06:44:06.569Z</time>
      </trkpt>
      <trkpt lat="44.25059" lon="0.8441">
        <ele>170</ele>
        <time>2025-08-17T06:44:07.569Z</time>
      </trkpt>
      <trkpt lat="44.25058" lon="0.8441">
        <ele>170</ele>
        <time>2025-08-17T06:44:08.569Z</time>
      </trkpt>
      <trkpt lat="44.25058" lon="0.8441">
        <ele>169</ele>
        <time>2025-08-17T06:44:09.569Z</time>
      </trkpt>
      <trkpt lat="44.25057" lon="0.84411">
        <ele>169</ele>
        <time>2025-08-17T06:44:10.569Z</time>
      </trkpt>
      <trkpt lat="44.25057" lon="0.84413">
        <ele>168</ele>
        <time>2025-08-17T06:44:11.569Z</time>
      </trkpt>
      <trkpt lat="44.25056" lon="0.84414">
        <ele>168</ele>
        <time>2025-08-17T06:44:12.569Z</time>
      </trkpt>
      <trkpt lat="44.25056" lon="0.84415">
        <ele>168</ele>
        <time>2025-08-17T06:44:13.569Z</time>
      </trkpt>
      <trkpt lat="44.25055" lon="0.84416">
        <ele>167</ele>
        <time>2025-08-17T06:44:14.569Z</time>
      </trkpt>
      <trkpt lat="44.25054" lon="0.84417">
        <ele>167</ele>
        <time>2025-08-17T06:44:15.569Z</time>
      </trkpt>
      <trkpt lat="44.25054" lon="0.84417">
        <ele>166</ele>
        <time>2025-08-17T06:44:16.569Z</time>
      </trkpt>
      <trkpt lat="44.25053" lon="0.84418">
        <ele>166</ele>
        <time>2025-08-17T06:44:17.569Z</time>
      </trkpt>
      <trkpt lat="44.25053" lon="0.84418">
        <ele>165</ele>
        <time>2025-08-17T06:44:18.569Z</time>
      </trkpt>
      <trkpt lat="44.25053" lon="0.84419">
        <ele>165</ele>
        <time>2025-08-17T06:44:19.569Z</time>
      </trkpt>
      <trkpt lat="44.25052" lon="0.8442">
        <ele>165</ele>
        <time>2025-08-17T06:44:20.569Z</time>
      </trkpt>
      <trkpt lat="44.25051" lon="0.84422">
        <ele>164</ele>
        <time>2025-08-17T06:44:21.569Z</time>
      </trkpt>
      <trkpt lat="44.25051" lon="0.84423">
        <ele>164</ele>
        <time>2025-08-17T06:44:22.569Z</time>
      </trkpt>
      <trkpt lat="44.2505" lon="0.84424">
        <ele>163</ele>
        <time>2025-08-17T06:44:23.569Z</time>
      </trkpt>
      <trkpt lat="44.2505" lon="0.84425">
        <ele>163</ele>
        <time>2025-08-17T06:44:24.569Z</time>
      </trkpt>
      <trkpt lat="44.25049" lon="0.84426">
        <ele>163</ele>
        <time>2025-08-17T06:44:25.569Z</time>
      </trkpt>
      <trkpt lat="44.25049" lon="0.84426">
        <ele>163</ele>
        <time>2025-08-17T06:44:26.569Z</time>
      </trkpt>
      <trkpt lat="44.25049" lon="0.84426">
        <ele>162</ele>
        <time>2025-08-17T06:44:27.569Z</time>
      </trkpt>
      <trkpt lat="44.25048" lon="0.84426">
        <ele>162</ele>
        <time>2025-08-17T06:44:28.569Z</time>
      </trkpt>
      <trkpt lat="44.25047" lon="0.84427">
        <ele>162</ele>
        <time>2025-08-17T06:44:29.569Z</time>
      </trkpt>
      <trkpt lat="44.25047" lon="0.84427">
        <ele>162</ele>
        <time>2025-08-17T06:44:30.569Z</time>
      </trkpt>
      <trkpt lat="44.25047" lon="0.84428">
        <ele>162</ele>
        <time>2025-08-17T06:44:31.569Z</time>
      </trkpt>
      <trkpt lat="44.25047" lon="0.84429">
        <ele>162</ele>
        <time>2025-08-17T06:44:32.569Z</time>
      </trkpt>
      <trkpt lat="44.25046" lon="0.84429">
        <ele>162</ele>
        <time>2025-08-17T06:44:33.569Z</time>
      </trkpt>
      <trkpt lat="44.25045" lon="0.8443">
        <ele>162</ele>
        <time>2025-08-17T06:44:34.569Z</time>
      </trkpt>
      <trkpt lat="44.25044" lon="0.8443">
        <ele>162</ele>
        <time>2025-08-17T06:44:35.569Z</time>
      </trkpt>
      <trkpt lat="44.25043" lon="0.84431">
        <ele>162</ele>
        <time>2025-08-17T06:44:36.569Z</time>
      </trkpt>
      <trkpt lat="44.25042" lon="0.84431">
        <ele>162</ele>
        <time>2025-08-17T06:44:37.569Z</time>
      </trkpt>
      <trkpt lat="44.25042" lon="0.84433">
        <ele>162</ele>
        <time>2025-08-17T06:44:38.569Z</time>
      </trkpt>
      <trkpt lat="44.25042" lon="0.84434">
        <ele>162</ele>
        <time>2025-08-17T06:44:39.569Z</time>
      </trkpt>
      <trkpt lat="44.25041" lon="0.84435">
        <ele>162</ele>
        <time>2025-08-17T06:44:40.569Z</time>
      </trkpt>
      <trkpt lat="44.2504" lon="0.84436">
        <ele>162</ele>
        <time>2025-08-17T06:44:41.569Z</time>
      </trkpt>
      <trkpt lat="44.2504" lon="0.84436">
        <ele>162</ele>
        <time>2025-08-17T06:44:42.569Z</time>
      </trkpt>
      <trkpt lat="44.2504" lon="0.84437">
        <ele>163</ele>
        <time>2025-08-17T06:44:43.569Z</time>
      </trkpt>
      <trkpt lat="44.25039" lon="0.84437">
        <ele>163</ele>
        <time>2025-08-17T06:44:44.569Z</time>
      </trkpt>
      <trkpt lat="44.25039" lon="0.84438">
        <ele>164</ele>
        <time>2025-08-17T06:44:45.569Z</time>
      </trkpt>
      <trkpt lat="44.2504" lon="0.84439">
        <ele>164</ele>
        <time>2025-08-17T06:44:46.569Z</time>
      </trkpt>
      <trkpt lat="44.2504" lon="0.8444">
        <ele>164</ele>
        <time>2025-08-17T06:44:47.569Z</time>
      </trkpt>
      <trkpt lat="44.2504" lon="0.8444">
        <ele>164</ele>
        <time>2025-08-17T06:44:48.569Z</time>
      </trkpt>
      <trkpt lat="44.25041" lon="0.84441">
        <ele>164</ele>
        <time>2025-08-17T06:44:49.569Z</time>
      </trkpt>
      <trkpt lat="44.25041" lon="0.84442">
        <ele>164</ele>
        <time>2025-08-17T06:44:50.569Z</time>
      </trkpt>
      <trkpt lat="44.25042" lon="0.84442">
        <ele>164</ele>
        <time>2025-08-17T06:44:51.569Z</time>
      </trkpt>
      <trkpt lat="44.25043" lon="0.84443">
        <ele>164</ele>
        <time>2025-08-17T06:44:52.569Z</time>
      </trkpt>
      <trkpt lat="44.25044" lon="0.84444">
        <ele>164</ele>
        <time>2025-08-17T06:44:53.569Z</time>
      </trkpt>
      <trkpt lat="44.25044" lon="0.84444">
        <ele>164</ele>
        <time>2025-08-17T06:44:54.569Z</time>
      </trkpt>
      <trkpt lat="44.25045" lon="0.84443">
        <ele>164</ele>
        <time>2025-08-17T06:44:55.569Z</time>
      </trkpt>
      <trkpt lat="44.25046" lon="0.84443">
        <ele>164</ele>
        <time>2025-08-17T06:44:56.569Z</time>
      </trkpt>
      <trkpt lat="44.25047" lon="0.84443">
        <ele>164</ele>
        <time>2025-08-17T06:44:57.569Z</time>
      </trkpt>
      <trkpt lat="44.25047" lon="0.84443">
        <ele>165</ele>
        <time>2025-08-17T06:44:58.569Z</time>
      </trkpt>
      <trkpt lat="44.25047" lon="0.84443">
        <ele>165</ele>
        <time>2025-08-17T06:44:59.569Z</time>
      </trkpt>
      <trkpt lat="44.25048" lon="0.84443">
        <ele>165</ele>
        <time>2025-08-17T06:45:00.569Z</time>
      </trkpt>
      <trkpt lat="44.25049" lon="0.84443">
        <ele>166</ele>
        <time>2025-08-17T06:45:01.569Z</time>
      </trkpt>
      <trkpt lat="44.2505" lon="0.84443">
        <ele>166</ele>
        <time>2025-08-17T06:45:02.569Z</time>
      </trkpt>
      <trkpt lat="44.25052" lon="0.84443">
        <ele>167</ele>
        <time>2025-08-17T06:45:03.569Z</time>
      </trkpt>
      <trkpt lat="44.25053" lon="0.84443">
        <ele>167</ele>
        <time>2025-08-17T06:45:04.569Z</time>
      </trkpt>
      <trkpt lat="44.25054" lon="0.84443">
        <ele>167</ele>
        <time>2025-08-17T06:45:05.569Z</time>
      </trkpt>
      <trkpt lat="44.25055" lon="0.84444">
        <ele>167</ele>
        <time>2025-08-17T06:45:06.569Z</time>
      </trkpt>
      <trkpt lat="44.25055" lon="0.84444">
        <ele>167</ele>
        <time>2025-08-17T06:45:07.569Z</time>
      </trkpt>
      <trkpt lat="44.25056" lon="0.84445">
        <ele>168</ele>
        <time>2025-08-17T06:45:08.569Z</time>
      </trkpt>
      <trkpt lat="44.25057" lon="0.84446">
        <ele>168</ele>
        <time>2025-08-17T06:45:09.569Z</time>
      </trkpt>
      <trkpt lat="44.25059" lon="0.84447">
        <ele>168</ele>
        <time>2025-08-17T06:45:10.569Z</time>
      </trkpt>
      <trkpt lat="44.2506" lon="0.84448">
        <ele>168</ele>
        <time>2025-08-17T06:45:11.569Z</time>
      </trkpt>
      <trkpt lat="44.25061" lon="0.84448">
        <ele>169</ele>
        <time>2025-08-17T06:45:12.569Z</time>
      </trkpt>
      <trkpt lat="44.25062" lon="0.84449">
        <ele>169</ele>
        <time>2025-08-17T06:45:13.569Z</time>
      </trkpt>
      <trkpt lat="44.25062" lon="0.8445">
        <ele>169</ele>
        <time>2025-08-17T06:45:14.569Z</time>
      </trkpt>
      <trkpt lat="44.25063" lon="0.84451">
        <ele>170</ele>
        <time>2025-08-17T06:45:15.569Z</time>
      </trkpt>
      <trkpt lat="44.25064" lon="0.84451">
        <ele>171</ele>
        <time>2025-08-17T06:45:16.569Z</time>
      </trkpt>
      <trkpt lat="44.25065" lon="0.84452">
        <ele>171</ele>
        <time>2025-08-17T06:45:17.569Z</time>
      </trkpt>
      <trkpt lat="44.25066" lon="0.84453">
        <ele>172</ele>
        <time>2025-08-17T06:45:18.569Z</time>
      </trkpt>
      <trkpt lat="44.25067" lon="0.84455">
        <ele>172</ele>
        <time>2025-08-17T06:45:19.569Z</time>
      </trkpt>
      <trkpt lat="44.25069" lon="0.84457">
        <ele>172</ele>
        <time>2025-08-17T06:45:20.569Z</time>
      </trkpt>
      <trkpt lat="44.2507" lon="0.84458">
        <ele>171</ele>
        <time>2025-08-17T06:45:21.569Z</time>
      </trkpt>
      <trkpt lat="44.2507" lon="0.8446">
        <ele>171</ele>
        <time>2025-08-17T06:45:22.569Z</time>
      </trkpt>
      <trkpt lat="44.25071" lon="0.84462">
        <ele>171</ele>
        <time>2025-08-17T06:45:23.569Z</time>
      </trkpt>
      <trkpt lat="44.25071" lon="0.84463">
        <ele>170</ele>
        <time>2025-08-17T06:45:24.569Z</time>
      </trkpt>
      <trkpt lat="44.25072" lon="0.84465">
        <ele>170</ele>
        <time>2025-08-17T06:45:25.569Z</time>
      </trkpt>
      <trkpt lat="44.25073" lon="0.84466">
        <ele>170</ele>
        <time>2025-08-17T06:45:26.569Z</time>
      </trkpt>
      <trkpt lat="44.25073" lon="0.84467">
        <ele>170</ele>
        <time>2025-08-17T06:45:27.569Z</time>
      </trkpt>
      <trkpt lat="44.25073" lon="0.84469">
        <ele>170</ele>
        <time>2025-08-17T06:45:28.569Z</time>
      </trkpt>
      <trkpt lat="44.25074" lon="0.8447">
        <ele>169</ele>
        <time>2025-08-17T06:45:29.569Z</time>
      </trkpt>
      <trkpt lat="44.25074" lon="0.84472">
        <ele>169</ele>
        <time>2025-08-17T06:45:30.569Z</time>
      </trkpt>
      <trkpt lat="44.25075" lon="0.84473">
        <ele>169</ele>
        <time>2025-08-17T06:45:31.569Z</time>
      </trkpt>
      <trkpt lat="44.25074" lon="0.84474">
        <ele>169</ele>
        <time>2025-08-17T06:45:32.569Z</time>
      </trkpt>
      <trkpt lat="44.25074" lon="0.84476">
        <ele>169</ele>
        <time>2025-08-17T06:45:33.569Z</time>
      </trkpt>
      <trkpt lat="44.25074" lon="0.84476">
        <ele>169</ele>
        <time>2025-08-17T06:45:34.569Z</time>
      </trkpt>
      <trkpt lat="44.25073" lon="0.84478">
        <ele>168</ele>
        <time>2025-08-17T06:45:35.569Z</time>
      </trkpt>
      <trkpt lat="44.25073" lon="0.84479">
        <ele>168</ele>
        <time>2025-08-17T06:45:36.569Z</time>
      </trkpt>
      <trkpt lat="44.25072" lon="0.8448">
        <ele>168</ele>
        <time>2025-08-17T06:45:37.569Z</time>
      </trkpt>
      <trkpt lat="44.25071" lon="0.84481">
        <ele>167</ele>
        <time>2025-08-17T06:45:38.569Z</time>
      </trkpt>
      <trkpt lat="44.2507" lon="0.84482">
        <ele>167</ele>
        <time>2025-08-17T06:45:39.569Z</time>
      </trkpt>
      <trkpt lat="44.2507" lon="0.84483">
        <ele>167</ele>
        <time>2025-08-17T06:45:40.569Z</time>
      </trkpt>
      <trkpt lat="44.25069" lon="0.84484">
        <ele>166</ele>
        <time>2025-08-17T06:45:41.569Z</time>
      </trkpt>
      <trkpt lat="44.25068" lon="0.84485">
        <ele>166</ele>
        <time>2025-08-17T06:45:42.569Z</time>
      </trkpt>
      <trkpt lat="44.25068" lon="0.84487">
        <ele>166</ele>
        <time>2025-08-17T06:45:43.569Z</time>
      </trkpt>
      <trkpt lat="44.25067" lon="0.84488">
        <ele>166</ele>
        <time>2025-08-17T06:45:44.569Z</time>
      </trkpt>
      <trkpt lat="44.25067" lon="0.84489">
        <ele>167</ele>
        <time>2025-08-17T06:45:45.569Z</time>
      </trkpt>
      <trkpt lat="44.25067" lon="0.8449">
        <ele>167</ele>
        <time>2025-08-17T06:45:46.569Z</time>
      </trkpt>
      <trkpt lat="44.25067" lon="0.84492">
        <ele>168</ele>
        <time>2025-08-17T06:45:47.569Z</time>
      </trkpt>
      <trkpt lat="44.25066" lon="0.84492">
        <ele>168</ele>
        <time>2025-08-17T06:45:48.569Z</time>
      </trkpt>
      <trkpt lat="44.25066" lon="0.84494">
        <ele>168</ele>
        <time>2025-08-17T06:45:49.569Z</time>
      </trkpt>
      <trkpt lat="44.25065" lon="0.84495">
        <ele>168</ele>
        <time>2025-08-17T06:45:50.569Z</time>
      </trkpt>
      <trkpt lat="44.25065" lon="0.84495">
        <ele>168</ele>
        <time>2025-08-17T06:45:51.569Z</time>
      </trkpt>
      <trkpt lat="44.25064" lon="0.84496">
        <ele>168</ele>
        <time>2025-08-17T06:45:52.569Z</time>
      </trkpt>
      <trkpt lat="44.25062" lon="0.84498">
        <ele>169</ele>
        <time>2025-08-17T06:45:53.569Z</time>
      </trkpt>
      <trkpt lat="44.25062" lon="0.84498">
        <ele>169</ele>
        <time>2025-08-17T06:45:54.569Z</time>
      </trkpt>
      <trkpt lat="44.25062" lon="0.84499">
        <ele>170</ele>
        <time>2025-08-17T06:45:55.569Z</time>
      </trkpt>
      <trkpt lat="44.25061" lon="0.845">
        <ele>171</ele>
        <time>2025-08-17T06:45:56.569Z</time>
      </trkpt>
      <trkpt lat="44.2506" lon="0.84501">
        <ele>171</ele>
        <time>2025-08-17T06:45:57.569Z</time>
      </trkpt>
      <trkpt lat="44.25059" lon="0.84502">
        <ele>172</ele>
        <time>2025-08-17T06:45:58.569Z</time>
      </trkpt>
      <trkpt lat="44.25058" lon="0.84503">
        <ele>172</ele>
        <time>2025-08-17T06:45:59.569Z</time>
      </trkpt>
      <trkpt lat="44.25058" lon="0.84505">
        <ele>172</ele>
        <time>2025-08-17T06:46:00.569Z</time>
      </trkpt>
      <trkpt lat="44.25057" lon="0.84506">
        <ele>172</ele>
        <time>2025-08-17T06:46:01.569Z</time>
      </trkpt>
      <trkpt lat="44.25057" lon="0.84506">
        <ele>173</ele>
        <time>2025-08-17T06:46:02.569Z</time>
      </trkpt>
      <trkpt lat="44.25056" lon="0.84507">
        <ele>173</ele>
        <time>2025-08-17T06:46:03.569Z</time>
      </trkpt>
      <trkpt lat="44.25056" lon="0.84508">
        <ele>173</ele>
        <time>2025-08-17T06:46:04.569Z</time>
      </trkpt>
      <trkpt lat="44.25055" lon="0.84509">
        <ele>173</ele>
        <time>2025-08-17T06:46:05.569Z</time>
      </trkpt>
      <trkpt lat="44.25055" lon="0.8451">
        <ele>173</ele>
        <time>2025-08-17T06:46:06.569Z</time>
      </trkpt>
      <trkpt lat="44.25054" lon="0.84511">
        <ele>173</ele>
        <time>2025-08-17T06:46:07.569Z</time>
      </trkpt>
      <trkpt lat="44.25053" lon="0.84512">
        <ele>174</ele>
        <time>2025-08-17T06:46:08.569Z</time>
      </trkpt>
      <trkpt lat="44.25052" lon="0.84513">
        <ele>174</ele>
        <time>2025-08-17T06:46:09.569Z</time>
      </trkpt>
      <trkpt lat="44.25051" lon="0.84514">
        <ele>175</ele>
        <time>2025-08-17T06:46:10.569Z</time>
      </trkpt>
      <trkpt lat="44.25051" lon="0.84516">
        <ele>176</ele>
        <time>2025-08-17T06:46:11.569Z</time>
      </trkpt>
      <trkpt lat="44.2505" lon="0.84517">
        <ele>176</ele>
        <time>2025-08-17T06:46:12.569Z</time>
      </trkpt>
      <trkpt lat="44.2505" lon="0.84518">
        <ele>177</ele>
        <time>2025-08-17T06:46:13.569Z</time>
      </trkpt>
      <trkpt lat="44.25049" lon="0.8452">
        <ele>178</ele>
        <time>2025-08-17T06:46:14.569Z</time>
      </trkpt>
      <trkpt lat="44.25049" lon="0.8452">
        <ele>178</ele>
        <time>2025-08-17T06:46:15.569Z</time>
      </trkpt>
      <trkpt lat="44.25048" lon="0.84521">
        <ele>179</ele>
        <time>2025-08-17T06:46:16.569Z</time>
      </trkpt>
      <trkpt lat="44.25048" lon="0.84522">
        <ele>179</ele>
        <time>2025-08-17T06:46:17.569Z</time>
      </trkpt>
      <trkpt lat="44.25047" lon="0.84524">
        <ele>180</ele>
        <time>2025-08-17T06:46:18.569Z</time>
      </trkpt>
      <trkpt lat="44.25047" lon="0.84527">
        <ele>180</ele>
        <time>2025-08-17T06:46:19.569Z</time>
      </trkpt>
      <trkpt lat="44.25046" lon="0.84528">
        <ele>180</ele>
        <time>2025-08-17T06:46:20.569Z</time>
      </trkpt>
      <trkpt lat="44.25045" lon="0.84529">
        <ele>180</ele>
        <time>2025-08-17T06:46:21.569Z</time>
      </trkpt>
      <trkpt lat="44.25045" lon="0.8453">
        <ele>180</ele>
        <time>2025-08-17T06:46:22.569Z</time>
      </trkpt>
      <trkpt lat="44.25044" lon="0.84532">
        <ele>180</ele>
        <time>2025-08-17T06:46:23.569Z</time>
      </trkpt>
      <trkpt lat="44.25043" lon="0.84534">
        <ele>180</ele>
        <time>2025-08-17T06:46:24.569Z</time>
      </trkpt>
      <trkpt lat="44.25043" lon="0.84535">
        <ele>180</ele>
        <time>2025-08-17T06:46:25.569Z</time>
      </trkpt>
      <trkpt lat="44.25043" lon="0.84537">
        <ele>181</ele>
        <time>2025-08-17T06:46:26.569Z</time>
      </trkpt>
      <trkpt lat="44.25042" lon="0.84538">
        <ele>181</ele>
        <time>2025-08-17T06:46:27.569Z</time>
      </trkpt>
      <trkpt lat="44.25041" lon="0.84539">
        <ele>181</ele>
        <time>2025-08-17T06:46:28.569Z</time>
      </trkpt>
      <trkpt lat="44.25041" lon="0.8454">
        <ele>181</ele>
        <time>2025-08-17T06:46:29.569Z</time>
      </trkpt>
      <trkpt lat="44.2504" lon="0.84541">
        <ele>181</ele>
        <time>2025-08-17T06:46:30.569Z</time>
      </trkpt>
      <trkpt lat="44.25039" lon="0.84542">
        <ele>182</ele>
        <time>2025-08-17T06:46:31.569Z</time>
      </trkpt>
      <trkpt lat="44.25038" lon="0.84543">
        <ele>182</ele>
        <time>2025-08-17T06:46:32.569Z</time>
      </trkpt>
      <trkpt lat="44.25038" lon="0.84544">
        <ele>182</ele>
        <time>2025-08-17T06:46:33.569Z</time>
      </trkpt>
      <trkpt lat="44.25037" lon="0.84545">
        <ele>182</ele>
        <time>2025-08-17T06:46:34.569Z</time>
      </trkpt>
      <trkpt lat="44.25037" lon="0.84546">
        <ele>182</ele>
        <time>2025-08-17T06:46:35.569Z</time>
      </trkpt>
      <trkpt lat="44.25037" lon="0.84547">
        <ele>182</ele>
        <time>2025-08-17T06:46:36.569Z</time>
      </trkpt>
      <trkpt lat="44.25036" lon="0.84548">
        <ele>182</ele>
        <time>2025-08-17T06:46:37.569Z</time>
      </trkpt>
      <trkpt lat="44.25035" lon="0.84549">
        <ele>182</ele>
        <time>2025-08-17T06:46:38.569Z</time>
      </trkpt>
      <trkpt lat="44.25034" lon="0.8455">
        <ele>182</ele>
        <time>2025-08-17T06:46:39.569Z</time>
      </trkpt>
      <trkpt lat="44.25033" lon="0.84551">
        <ele>182</ele>
        <time>2025-08-17T06:46:40.569Z</time>
      </trkpt>
      <trkpt lat="44.25033" lon="0.84552">
        <ele>181</ele>
        <time>2025-08-17T06:46:41.569Z</time>
      </trkpt>
      <trkpt lat="44.25032" lon="0.84553">
        <ele>181</ele>
        <time>2025-08-17T06:46:42.569Z</time>
      </trkpt>
      <trkpt lat="44.25031" lon="0.84554">
        <ele>181</ele>
        <time>2025-08-17T06:46:43.569Z</time>
      </trkpt>
      <trkpt lat="44.25031" lon="0.84555">
        <ele>181</ele>
        <time>2025-08-17T06:46:44.569Z</time>
      </trkpt>
      <trkpt lat="44.25031" lon="0.84556">
        <ele>181</ele>
        <time>2025-08-17T06:46:45.569Z</time>
      </trkpt>
      <trkpt lat="44.2503" lon="0.84557">
        <ele>181</ele>
        <time>2025-08-17T06:46:46.569Z</time>
      </trkpt>
      <trkpt lat="44.25029" lon="0.84558">
        <ele>181</ele>
        <time>2025-08-17T06:46:47.569Z</time>
      </trkpt>
      <trkpt lat="44.25029" lon="0.84559">
        <ele>180</ele>
        <time>2025-08-17T06:46:48.569Z</time>
      </trkpt>
      <trkpt lat="44.25028" lon="0.8456">
        <ele>180</ele>
        <time>2025-08-17T06:46:49.569Z</time>
      </trkpt>
      <trkpt lat="44.25027" lon="0.84561">
        <ele>180</ele>
        <time>2025-08-17T06:46:50.569Z</time>
      </trkpt>
      <trkpt lat="44.25026" lon="0.84561">
        <ele>180</ele>
        <time>2025-08-17T06:46:51.569Z</time>
      </trkpt>
      <trkpt lat="44.25025" lon="0.84562">
        <ele>181</ele>
        <time>2025-08-17T06:46:52.569Z</time>
      </trkpt>
      <trkpt lat="44.25025" lon="0.84563">
        <ele>181</ele>
        <time>2025-08-17T06:46:53.569Z</time>
      </trkpt>
      <trkpt lat="44.25025" lon="0.84564">
        <ele>181</ele>
        <time>2025-08-17T06:46:54.569Z</time>
      </trkpt>
      <trkpt lat="44.25024" lon="0.84566">
        <ele>181</ele>
        <time>2025-08-17T06:46:55.569Z</time>
      </trkpt>
      <trkpt lat="44.25023" lon="0.84567">
        <ele>181</ele>
        <time>2025-08-17T06:46:56.569Z</time>
      </trkpt>
      <trkpt lat="44.25023" lon="0.84568">
        <ele>181</ele>
        <time>2025-08-17T06:46:57.569Z</time>
      </trkpt>
      <trkpt lat="44.25022" lon="0.84569">
        <ele>181</ele>
        <time>2025-08-17T06:46:58.569Z</time>
      </trkpt>
      <trkpt lat="44.25022" lon="0.8457">
        <ele>181</ele>
        <time>2025-08-17T06:46:59.569Z</time>
      </trkpt>
      <trkpt lat="44.25021" lon="0.84571">
        <ele>181</ele>
        <time>2025-08-17T06:47:00.569Z</time>
      </trkpt>
      <trkpt lat="44.2502" lon="0.84572">
        <ele>181</ele>
        <time>2025-08-17T06:47:01.569Z</time>
      </trkpt>
      <trkpt lat="44.25019" lon="0.84573">
        <ele>181</ele>
        <time>2025-08-17T06:47:02.569Z</time>
      </trkpt>
      <trkpt lat="44.25018" lon="0.84573">
        <ele>181</ele>
        <time>2025-08-17T06:47:03.569Z</time>
      </trkpt>
      <trkpt lat="44.25017" lon="0.84574">
        <ele>181</ele>
        <time>2025-08-17T06:47:04.569Z</time>
      </trkpt>
      <trkpt lat="44.25017" lon="0.84575">
        <ele>181</ele>
        <time>2025-08-17T06:47:05.569Z</time>
      </trkpt>
      <trkpt lat="44.25016" lon="0.84575">
        <ele>181</ele>
        <time>2025-08-17T06:47:06.569Z</time>
      </trkpt>
      <trkpt lat="44.25015" lon="0.84575">
        <ele>181</ele>
        <time>2025-08-17T06:47:07.569Z</time>
      </trkpt>
      <trkpt lat="44.25015" lon="0.84575">
        <ele>182</ele>
        <time>2025-08-17T06:47:08.569Z</time>
      </trkpt>
      <trkpt lat="44.25015" lon="0.84576">
        <ele>182</ele>
        <time>2025-08-17T06:47:09.569Z</time>
      </trkpt>
      <trkpt lat="44.25015" lon="0.84576">
        <ele>182</ele>
        <time>2025-08-17T06:47:10.569Z</time>
      </trkpt>
      <trkpt lat="44.25014" lon="0.84576">
        <ele>182</ele>
        <time>2025-08-17T06:47:11.569Z</time>
      </trkpt>
      <trkpt lat="44.25013" lon="0.84577">
        <ele>182</ele>
        <time>2025-08-17T06:47:12.569Z</time>
      </trkpt>
      <trkpt lat="44.25012" lon="0.84577">
        <ele>181</ele>
        <time>2025-08-17T06:47:13.569Z</time>
      </trkpt>
      <trkpt lat="44.25012" lon="0.84577">
        <ele>181</ele>
        <time>2025-08-17T06:47:14.569Z</time>
      </trkpt>
      <trkpt lat="44.25011" lon="0.84577">
        <ele>181</ele>
        <time>2025-08-17T06:47:15.569Z</time>
      </trkpt>
      <trkpt lat="44.2501" lon="0.84578">
        <ele>182</ele>
        <time>2025-08-17T06:47:16.569Z</time>
      </trkpt>
      <trkpt lat="44.25009" lon="0.84578">
        <ele>182</ele>
        <time>2025-08-17T06:47:17.569Z</time>
      </trkpt>
      <trkpt lat="44.25008" lon="0.84578">
        <ele>182</ele>
        <time>2025-08-17T06:47:18.569Z</time>
      </trkpt>
      <trkpt lat="44.25007" lon="0.84578">
        <ele>183</ele>
        <time>2025-08-17T06:47:19.569Z</time>
      </trkpt>
      <trkpt lat="44.25007" lon="0.84579">
        <ele>183</ele>
        <time>2025-08-17T06:47:20.569Z</time>
      </trkpt>
      <trkpt lat="44.25006" lon="0.84579">
        <ele>183</ele>
        <time>2025-08-17T06:47:21.569Z</time>
      </trkpt>
      <trkpt lat="44.25005" lon="0.84579">
        <ele>184</ele>
        <time>2025-08-17T06:47:22.569Z</time>
      </trkpt>
      <trkpt lat="44.25004" lon="0.8458">
        <ele>184</ele>
        <time>2025-08-17T06:47:23.569Z</time>
      </trkpt>
      <trkpt lat="44.25004" lon="0.84579">
        <ele>185</ele>
        <time>2025-08-17T06:47:24.569Z</time>
      </trkpt>
      <trkpt lat="44.25003" lon="0.84579">
        <ele>185</ele>
        <time>2025-08-17T06:47:25.569Z</time>
      </trkpt>
      <trkpt lat="44.25003" lon="0.84579">
        <ele>186</ele>
        <time>2025-08-17T06:47:26.569Z</time>
      </trkpt>
      <trkpt lat="44.25003" lon="0.8458">
        <ele>186</ele>
        <time>2025-08-17T06:47:27.569Z</time>
      </trkpt>
      <trkpt lat="44.25003" lon="0.8458">
        <ele>187</ele>
        <time>2025-08-17T06:47:28.569Z</time>
      </trkpt>
      <trkpt lat="44.25003" lon="0.8458">
        <ele>188</ele>
        <time>2025-08-17T06:47:29.569Z</time>
      </trkpt>
      <trkpt lat="44.25003" lon="0.8458">
        <ele>188</ele>
        <time>2025-08-17T06:47:30.569Z</time>
      </trkpt>
      <trkpt lat="44.25003" lon="0.8458">
        <ele>187</ele>
        <time>2025-08-17T06:47:31.569Z</time>
      </trkpt>
      <trkpt lat="44.25003" lon="0.8458">
        <ele>187</ele>
        <time>2025-08-17T06:47:32.569Z</time>
      </trkpt>
      <trkpt lat="44.25003" lon="0.8458">
        <ele>186</ele>
        <time>2025-08-17T06:47:33.569Z</time>
      </trkpt>
      <trkpt lat="44.25003" lon="0.8458">
        <ele>186</ele>
        <time>2025-08-17T06:47:34.569Z</time>
      </trkpt>
      <trkpt lat="44.25003" lon="0.8458">
        <ele>185</ele>
        <time>2025-08-17T06:47:35.569Z</time>
      </trkpt>
      <trkpt lat="44.25003" lon="0.8458">
        <ele>185</ele>
        <time>2025-08-17T06:47:36.569Z</time>
      </trkpt>
      <trkpt lat="44.25003" lon="0.8458">
        <ele>185</ele>
        <time>2025-08-17T06:47:37.569Z</time>
      </trkpt>
      <trkpt lat="44.25003" lon="0.8458">
        <ele>186</ele>
        <time>2025-08-17T06:47:38.569Z</time>
      </trkpt>
      <trkpt lat="44.25003" lon="0.8458">
        <ele>186</ele>
        <time>2025-08-17T06:47:39.569Z</time>
      </trkpt>
      <trkpt lat="44.25004" lon="0.8458">
        <ele>187</ele>
        <time>2025-08-17T06:47:40.569Z</time>
      </trkpt>
      <trkpt lat="44.25004" lon="0.8458">
        <ele>188</ele>
        <time>2025-08-17T06:47:41.569Z</time>
      </trkpt>
      <trkpt lat="44.25003" lon="0.8458">
        <ele>188</ele>
        <time>2025-08-17T06:47:42.569Z</time>
      </trkpt>
      <trkpt lat="44.25003" lon="0.8458">
        <ele>188</ele>
        <time>2025-08-17T06:47:43.569Z</time>
      </trkpt>
      <trkpt lat="44.25003" lon="0.8458">
        <ele>188</ele>
        <time>2025-08-17T06:47:44.569Z</time>
      </trkpt>
      <trkpt lat="44.25003" lon="0.8458">
        <ele>187</ele>
        <time>2025-08-17T06:47:45.569Z</time>
      </trkpt>
      <trkpt lat="44.25003" lon="0.8458">
        <ele>187</ele>
        <time>2025-08-17T06:47:46.569Z</time>
      </trkpt>
      <trkpt lat="44.25003" lon="0.8458">
        <ele>187</ele>
        <time>2025-08-17T06:47:47.569Z</time>
      </trkpt>
      <trkpt lat="44.25003" lon="0.8458">
        <ele>187</ele>
        <time>2025-08-17T06:47:48.569Z</time>
      </trkpt>
      <trkpt lat="44.25003" lon="0.8458">
        <ele>186</ele>
        <time>2025-08-17T06:47:49.569Z</time>
      </trkpt>
      <trkpt lat="44.25003" lon="0.8458">
        <ele>186</ele>
        <time>2025-08-17T06:47:50.569Z</time>
      </trkpt>
      <trkpt lat="44.25004" lon="0.8458">
        <ele>185</ele>
        <time>2025-08-17T06:47:51.569Z</time>
      </trkpt>
      <trkpt lat="44.25004" lon="0.8458">
        <ele>185</ele>
        <time>2025-08-17T06:47:52.569Z</time>
      </trkpt>
      <trkpt lat="44.25004" lon="0.8458">
        <ele>184</ele>
        <time>2025-08-17T06:47:53.569Z</time>
      </trkpt>
      <trkpt lat="44.25004" lon="0.8458">
        <ele>184</ele>
        <time>2025-08-17T06:47:54.569Z</time>
      </trkpt>
      <trkpt lat="44.25004" lon="0.8458">
        <ele>184</ele>
        <time>2025-08-17T06:47:55.569Z</time>
      </trkpt>
      <trkpt lat="44.25004" lon="0.8458">
        <ele>184</ele>
        <time>2025-08-17T06:47:56.569Z</time>
      </trkpt>
      <trkpt lat="44.25004" lon="0.8458">
        <ele>184</ele>
        <time>2025-08-17T06:47:57.569Z</time>
      </trkpt>
      <trkpt lat="44.25004" lon="0.8458">
        <ele>184</ele>
        <time>2025-08-17T06:47:58.569Z</time>
      </trkpt>
      <trkpt lat="44.25004" lon="0.8458">
        <ele>184</ele>
        <time>2025-08-17T06:47:59.569Z</time>
      </trkpt>
      <trkpt lat="44.25004" lon="0.8458">
        <ele>183</ele>
        <time>2025-08-17T06:48:00.569Z</time>
      </trkpt>
      <trkpt lat="44.25004" lon="0.8458">
        <ele>183</ele>
        <time>2025-08-17T06:48:01.569Z</time>
      </trkpt>
      <trkpt lat="44.25004" lon="0.8458">
        <ele>182</ele>
        <time>2025-08-17T06:48:02.569Z</time>
      </trkpt>
      <trkpt lat="44.25004" lon="0.8458">
        <ele>182</ele>
        <time>2025-08-17T06:48:03.569Z</time>
      </trkpt>
      <trkpt lat="44.25004" lon="0.8458">
        <ele>181</ele>
        <time>2025-08-17T06:48:04.569Z</time>
      </trkpt>
      <trkpt lat="44.25004" lon="0.8458">
        <ele>181</ele>
        <time>2025-08-17T06:48:05.569Z</time>
      </trkpt>
      <trkpt lat="44.25004" lon="0.8458">
        <ele>181</ele>
        <time>2025-08-17T06:48:06.569Z</time>
      </trkpt>
      <trkpt lat="44.25004" lon="0.8458">
        <ele>181</ele>
        <time>2025-08-17T06:48:07.569Z</time>
      </trkpt>
      <trkpt lat="44.25004" lon="0.8458">
        <ele>181</ele>
        <time>2025-08-17T06:48:08.569Z</time>
      </trkpt>
      <trkpt lat="44.25004" lon="0.8458">
        <ele>181</ele>
        <time>2025-08-17T06:48:09.569Z</time>
      </trkpt>
      <trkpt lat="44.25004" lon="0.8458">
        <ele>182</ele>
        <time>2025-08-17T06:48:10.569Z</time>
      </trkpt>
      <trkpt lat="44.25004" lon="0.8458">
        <ele>182</ele>
        <time>2025-08-17T06:48:11.569Z</time>
      </trkpt>
      <trkpt lat="44.25004" lon="0.8458">
        <ele>182</ele>
        <time>2025-08-17T06:48:12.569Z</time>
      </trkpt>
      <trkpt lat="44.25004" lon="0.8458">
        <ele>182</ele>
        <time>2025-08-17T06:48:13.569Z</time>
      </trkpt>
      <trkpt lat="44.25004" lon="0.8458">
        <ele>183</ele>
        <time>2025-08-17T06:48:14.569Z</time>
      </trkpt>
      <trkpt lat="44.25004" lon="0.8458">
        <ele>183</ele>
        <time>2025-08-17T06:48:15.569Z</time>
      </trkpt>
      <trkpt lat="44.25004" lon="0.8458">
        <ele>184</ele>
        <time>2025-08-17T06:48:16.569Z</time>
      </trkpt>
      <trkpt lat="44.25004" lon="0.8458">
        <ele>185</ele>
        <time>2025-08-17T06:48:17.569Z</time>
      </trkpt>
      <trkpt lat="44.25004" lon="0.8458">
        <ele>185</ele>
        <time>2025-08-17T06:48:18.569Z</time>
      </trkpt>
      <trkpt lat="44.25005" lon="0.84579">
        <ele>186</ele>
        <time>2025-08-17T06:48:19.569Z</time>
      </trkpt>
      <trkpt lat="44.25005" lon="0.84579">
        <ele>186</ele>
        <time>2025-08-17T06:48:20.569Z</time>
      </trkpt>
      <trkpt lat="44.25005" lon="0.84579">
        <ele>186</ele>
        <time>2025-08-17T06:48:21.569Z</time>
      </trkpt>
      <trkpt lat="44.25005" lon="0.84579">
        <ele>186</ele>
        <time>2025-08-17T06:48:22.569Z</time>
      </trkpt>
      <trkpt lat="44.25005" lon="0.84579">
        <ele>186</ele>
        <time>2025-08-17T06:48:23.569Z</time>
      </trkpt>
      <trkpt lat="44.25005" lon="0.8458">
        <ele>185</ele>
        <time>2025-08-17T06:48:24.569Z</time>
      </trkpt>
      <trkpt lat="44.25005" lon="0.8458">
        <ele>185</ele>
        <time>2025-08-17T06:48:25.569Z</time>
      </trkpt>
      <trkpt lat="44.25006" lon="0.8458">
        <ele>184</ele>
        <time>2025-08-17T06:48:26.569Z</time>
      </trkpt>
      <trkpt lat="44.25006" lon="0.8458">
        <ele>184</ele>
        <time>2025-08-17T06:48:27.569Z</time>
      </trkpt>
      <trkpt lat="44.25006" lon="0.84579">
        <ele>184</ele>
        <time>2025-08-17T06:48:28.569Z</time>
      </trkpt>
      <trkpt lat="44.25006" lon="0.84579">
        <ele>184</ele>
        <time>2025-08-17T06:48:29.569Z</time>
      </trkpt>
      <trkpt lat="44.25006" lon="0.84579">
        <ele>184</ele>
        <time>2025-08-17T06:48:30.569Z</time>
      </trkpt>
      <trkpt lat="44.25006" lon="0.8458">
        <ele>184</ele>
        <time>2025-08-17T06:48:31.569Z</time>
      </trkpt>
      <trkpt lat="44.25006" lon="0.8458">
        <ele>184</ele>
        <time>2025-08-17T06:48:32.569Z</time>
      </trkpt>
      <trkpt lat="44.25006" lon="0.8458">
        <ele>183</ele>
        <time>2025-08-17T06:48:33.569Z</time>
      </trkpt>
      <trkpt lat="44.25006" lon="0.8458">
        <ele>183</ele>
        <time>2025-08-17T06:48:34.569Z</time>
      </trkpt>
      <trkpt lat="44.25006" lon="0.8458">
        <ele>183</ele>
        <time>2025-08-17T06:48:35.569Z</time>
      </trkpt>
      <trkpt lat="44.25006" lon="0.8458">
        <ele>183</ele>
        <time>2025-08-17T06:48:36.569Z</time>
      </trkpt>
      <trkpt lat="44.25006" lon="0.8458">
        <ele>183</ele>
        <time>2025-08-17T06:48:37.569Z</time>
      </trkpt>
      <trkpt lat="44.25006" lon="0.8458">
        <ele>183</ele>
        <time>2025-08-17T06:48:38.569Z</time>
      </trkpt>
      <trkpt lat="44.25006" lon="0.8458">
        <ele>183</ele>
        <time>2025-08-17T06:48:39.569Z</time>
      </trkpt>
      <trkpt lat="44.25006" lon="0.8458">
        <ele>183</ele>
        <time>2025-08-17T06:48:40.569Z</time>
      </trkpt>
      <trkpt lat="44.25006" lon="0.8458">
        <ele>183</ele>
        <time>2025-08-17T06:48:41.569Z</time>
      </trkpt>
      <trkpt lat="44.25006" lon="0.8458">
        <ele>183</ele>
        <time>2025-08-17T06:48:42.569Z</time>
      </trkpt>
      <trkpt lat="44.25006" lon="0.8458">
        <ele>183</ele>
        <time>2025-08-17T06:48:43.569Z</time>
      </trkpt>
      <trkpt lat="44.25006" lon="0.8458">
        <ele>183</ele>
        <time>2025-08-17T06:48:44.569Z</time>
      </trkpt>
      <trkpt lat="44.25007" lon="0.8458">
        <ele>183</ele>
        <time>2025-08-17T06:48:45.569Z</time>
      </trkpt>
      <trkpt lat="44.25007" lon="0.8458">
        <ele>183</ele>
        <time>2025-08-17T06:48:46.569Z</time>
      </trkpt>
      <trkpt lat="44.25007" lon="0.8458">
        <ele>184</ele>
        <time>2025-08-17T06:48:47.569Z</time>
      </trkpt>
      <trkpt lat="44.25007" lon="0.8458">
        <ele>184</ele>
        <time>2025-08-17T06:48:48.569Z</time>
      </trkpt>
      <trkpt lat="44.25007" lon="0.8458">
        <ele>184</ele>
        <time>2025-08-17T06:48:49.569Z</time>
      </trkpt>
      <trkpt lat="44.25007" lon="0.8458">
        <ele>184</ele>
        <time>2025-08-17T06:48:50.569Z</time>
      </trkpt>
      <trkpt lat="44.25007" lon="0.8458">
        <ele>184</ele>
        <time>2025-08-17T06:48:51.569Z</time>
      </trkpt>
      <trkpt lat="44.25007" lon="0.8458">
        <ele>184</ele>
        <time>2025-08-17T06:48:52.569Z</time>
      </trkpt>
      <trkpt lat="44.25007" lon="0.8458">
        <ele>185</ele>
        <time>2025-08-17T06:48:53.569Z</time>
      </trkpt>
      <trkpt lat="44.25007" lon="0.8458">
        <ele>185</ele>
        <time>2025-08-17T06:48:54.569Z</time>
      </trkpt>
      <trkpt lat="44.25007" lon="0.8458">
        <ele>186</ele>
        <time>2025-08-17T06:48:55.569Z</time>
      </trkpt>
      <trkpt lat="44.25007" lon="0.8458">
        <ele>186</ele>
        <time>2025-08-17T06:48:56.569Z</time>
      </trkpt>
      <trkpt lat="44.25007" lon="0.8458">
        <ele>186</ele>
        <time>2025-08-17T06:48:57.569Z</time>
      </trkpt>
      <trkpt lat="44.25007" lon="0.8458">
        <ele>186</ele>
        <time>2025-08-17T06:48:58.569Z</time>
      </trkpt>
      <trkpt lat="44.25007" lon="0.8458">
        <ele>187</ele>
        <time>2025-08-17T06:48:59.569Z</time>
      </trkpt>
      <trkpt lat="44.25007" lon="0.8458">
        <ele>187</ele>
        <time>2025-08-17T06:49:00.569Z</time>
      </trkpt>
      <trkpt lat="44.25007" lon="0.8458">
        <ele>187</ele>
        <time>2025-08-17T06:49:01.569Z</time>
      </trkpt>
      <trkpt lat="44.25007" lon="0.8458">
        <ele>187</ele>
        <time>2025-08-17T06:49:02.569Z</time>
      </trkpt>
      <trkpt lat="44.25007" lon="0.8458">
        <ele>188</ele>
        <time>2025-08-17T06:49:03.569Z</time>
      </trkpt>
      <trkpt lat="44.25007" lon="0.8458">
        <ele>187</ele>
        <time>2025-08-17T06:49:04.569Z</time>
      </trkpt>
      <trkpt lat="44.25007" lon="0.8458">
        <ele>187</ele>
        <time>2025-08-17T06:49:05.569Z</time>
      </trkpt>
      <trkpt lat="44.25008" lon="0.8458">
        <ele>187</ele>
        <time>2025-08-17T06:49:06.569Z</time>
      </trkpt>
      <trkpt lat="44.25007" lon="0.8458">
        <ele>187</ele>
        <time>2025-08-17T06:49:07.569Z</time>
      </trkpt>
      <trkpt lat="44.25007" lon="0.8458">
        <ele>187</ele>
        <time>2025-08-17T06:49:08.569Z</time>
      </trkpt>
      <trkpt lat="44.25007" lon="0.8458">
        <ele>187</ele>
        <time>2025-08-17T06:49:09.569Z</time>
      </trkpt>
      <trkpt lat="44.25007" lon="0.8458">
        <ele>187</ele>
        <time>2025-08-17T06:49:10.569Z</time>
      </trkpt>
      <trkpt lat="44.25007" lon="0.8458">
        <ele>187</ele>
        <time>2025-08-17T06:49:11.569Z</time>
      </trkpt>
      <trkpt lat="44.25007" lon="0.8458">
        <ele>188</ele>
        <time>2025-08-17T06:49:12.569Z</time>
      </trkpt>
      <trkpt lat="44.25007" lon="0.8458">
        <ele>187</ele>
        <time>2025-08-17T06:49:13.569Z</time>
      </trkpt>
      <trkpt lat="44.25007" lon="0.8458">
        <ele>187</ele>
        <time>2025-08-17T06:49:14.569Z</time>
      </trkpt>
      <trkpt lat="44.25007" lon="0.8458">
        <ele>188</ele>
        <time>2025-08-17T06:49:15.569Z</time>
      </trkpt>
      <trkpt lat="44.25008" lon="0.8458">
        <ele>188</ele>
        <time>2025-08-17T06:49:16.569Z</time>
      </trkpt>
      <trkpt lat="44.25008" lon="0.84581">
        <ele>187</ele>
        <time>2025-08-17T06:49:17.569Z</time>
      </trkpt>
      <trkpt lat="44.25008" lon="0.84581">
        <ele>187</ele>
        <time>2025-08-17T06:49:18.569Z</time>
      </trkpt>
      <trkpt lat="44.25008" lon="0.84581">
        <ele>187</ele>
        <time>2025-08-17T06:49:19.569Z</time>
      </trkpt>
      <trkpt lat="44.25008" lon="0.84581">
        <ele>186</ele>
        <time>2025-08-17T06:49:20.569Z</time>
      </trkpt>
      <trkpt lat="44.25007" lon="0.84581">
        <ele>186</ele>
        <time>2025-08-17T06:49:21.569Z</time>
      </trkpt>
      <trkpt lat="44.25007" lon="0.84581">
        <ele>185</ele>
        <time>2025-08-17T06:49:22.569Z</time>
      </trkpt>
      <trkpt lat="44.25007" lon="0.84581">
        <ele>184</ele>
        <time>2025-08-17T06:49:23.569Z</time>
      </trkpt>
      <trkpt lat="44.25007" lon="0.84581">
        <ele>184</ele>
        <time>2025-08-17T06:49:24.569Z</time>
      </trkpt>
      <trkpt lat="44.25007" lon="0.84581">
        <ele>183</ele>
        <time>2025-08-17T06:49:25.569Z</time>
      </trkpt>
      <trkpt lat="44.25007" lon="0.84581">
        <ele>183</ele>
        <time>2025-08-17T06:49:26.569Z</time>
      </trkpt>
      <trkpt lat="44.25007" lon="0.8458">
        <ele>183</ele>
        <time>2025-08-17T06:49:27.569Z</time>
      </trkpt>
      <trkpt lat="44.25007" lon="0.8458">
        <ele>183</ele>
        <time>2025-08-17T06:49:28.569Z</time>
      </trkpt>
      <trkpt lat="44.25007" lon="0.8458">
        <ele>183</ele>
        <time>2025-08-17T06:49:29.569Z</time>
      </trkpt>
      <trkpt lat="44.25007" lon="0.8458">
        <ele>183</ele>
        <time>2025-08-17T06:49:30.569Z</time>
      </trkpt>
      <trkpt lat="44.25007" lon="0.8458">
        <ele>183</ele>
        <time>2025-08-17T06:49:31.569Z</time>
      </trkpt>
      <trkpt lat="44.25007" lon="0.8458">
        <ele>183</ele>
        <time>2025-08-17T06:49:32.569Z</time>
      </trkpt>
      <trkpt lat="44.25007" lon="0.8458">
        <ele>183</ele>
        <time>2025-08-17T06:49:33.569Z</time>
      </trkpt>
      <trkpt lat="44.25007" lon="0.8458">
        <ele>183</ele>
        <time>2025-08-17T06:49:34.569Z</time>
      </trkpt>
      <trkpt lat="44.25007" lon="0.8458">
        <ele>182</ele>
        <time>2025-08-17T06:49:35.569Z</time>
      </trkpt>
      <trkpt lat="44.25007" lon="0.8458">
        <ele>183</ele>
        <time>2025-08-17T06:49:36.569Z</time>
      </trkpt>
      <trkpt lat="44.25007" lon="0.8458">
        <ele>183</ele>
        <time>2025-08-17T06:49:37.569Z</time>
      </trkpt>
      <trkpt lat="44.25007" lon="0.8458">
        <ele>184</ele>
        <time>2025-08-17T06:49:38.569Z</time>
      </trkpt>
      <trkpt lat="44.25007" lon="0.8458">
        <ele>184</ele>
        <time>2025-08-17T06:49:39.569Z</time>
      </trkpt>
      <trkpt lat="44.25007" lon="0.8458">
        <ele>184</ele>
        <time>2025-08-17T06:49:40.569Z</time>
      </trkpt>
      <trkpt lat="44.25007" lon="0.8458">
        <ele>184</ele>
        <time>2025-08-17T06:49:41.569Z</time>
      </trkpt>
      <trkpt lat="44.25007" lon="0.84581">
        <ele>184</ele>
        <time>2025-08-17T06:49:42.569Z</time>
      </trkpt>
      <trkpt lat="44.25007" lon="0.84581">
        <ele>184</ele>
        <time>2025-08-17T06:49:43.569Z</time>
      </trkpt>
      <trkpt lat="44.25007" lon="0.84581">
        <ele>184</ele>
        <time>2025-08-17T06:49:44.569Z</time>
      </trkpt>
      <trkpt lat="44.25007" lon="0.84581">
        <ele>184</ele>
        <time>2025-08-17T06:49:45.569Z</time>
      </trkpt>
      <trkpt lat="44.25007" lon="0.84581">
        <ele>184</ele>
        <time>2025-08-17T06:49:46.569Z</time>
      </trkpt>
      <trkpt lat="44.25007" lon="0.84581">
        <ele>184</ele>
        <time>2025-08-17T06:49:47.569Z</time>
      </trkpt>
      <trkpt lat="44.25007" lon="0.8458">
        <ele>185</ele>
        <time>2025-08-17T06:49:48.569Z</time>
      </trkpt>
      <trkpt lat="44.25007" lon="0.8458">
        <ele>185</ele>
        <time>2025-08-17T06:49:49.569Z</time>
      </trkpt>
      <trkpt lat="44.25007" lon="0.84579">
        <ele>185</ele>
        <time>2025-08-17T06:49:50.569Z</time>
      </trkpt>
      <trkpt lat="44.25007" lon="0.84578">
        <ele>185</ele>
        <time>2025-08-17T06:49:51.569Z</time>
      </trkpt>
      <trkpt lat="44.25007" lon="0.84578">
        <ele>185</ele>
        <time>2025-08-17T06:49:52.569Z</time>
      </trkpt>
      <trkpt lat="44.25007" lon="0.84578">
        <ele>185</ele>
        <time>2025-08-17T06:49:53.569Z</time>
      </trkpt>
      <trkpt lat="44.25007" lon="0.84579">
        <ele>185</ele>
        <time>2025-08-17T06:49:54.569Z</time>
      </trkpt>
      <trkpt lat="44.25006" lon="0.84579">
        <ele>185</ele>
        <time>2025-08-17T06:49:55.569Z</time>
      </trkpt>
      <trkpt lat="44.25006" lon="0.8458">
        <ele>186</ele>
        <time>2025-08-17T06:49:56.569Z</time>
      </trkpt>
      <trkpt lat="44.25006" lon="0.8458">
        <ele>186</ele>
        <time>2025-08-17T06:49:57.569Z</time>
      </trkpt>
      <trkpt lat="44.25005" lon="0.8458">
        <ele>187</ele>
        <time>2025-08-17T06:49:58.569Z</time>
      </trkpt>
      <trkpt lat="44.25005" lon="0.8458">
        <ele>187</ele>
        <time>2025-08-17T06:49:59.569Z</time>
      </trkpt>
      <trkpt lat="44.25005" lon="0.8458">
        <ele>187</ele>
        <time>2025-08-17T06:50:00.569Z</time>
      </trkpt>
      <trkpt lat="44.25005" lon="0.8458">
        <ele>187</ele>
        <time>2025-08-17T06:50:01.569Z</time>
      </trkpt>
      <trkpt lat="44.25005" lon="0.8458">
        <ele>187</ele>
        <time>2025-08-17T06:50:02.569Z</time>
      </trkpt>
      <trkpt lat="44.25005" lon="0.8458">
        <ele>187</ele>
        <time>2025-08-17T06:50:03.569Z</time>
      </trkpt>
      <trkpt lat="44.25004" lon="0.8458">
        <ele>187</ele>
        <time>2025-08-17T06:50:04.569Z</time>
      </trkpt>
      <trkpt lat="44.25003" lon="0.8458">
        <ele>187</ele>
        <time>2025-08-17T06:50:05.569Z</time>
      </trkpt>
      <trkpt lat="44.25003" lon="0.8458">
        <ele>187</ele>
        <time>2025-08-17T06:50:06.569Z</time>
      </trkpt>
      <trkpt lat="44.25002" lon="0.8458">
        <ele>186</ele>
        <time>2025-08-17T06:50:07.569Z</time>
      </trkpt>
      <trkpt lat="44.25001" lon="0.8458">
        <ele>186</ele>
        <time>2025-08-17T06:50:08.569Z</time>
      </trkpt>
      <trkpt lat="44.25001" lon="0.84579">
        <ele>186</ele>
        <time>2025-08-17T06:50:09.569Z</time>
      </trkpt>
      <trkpt lat="44.25" lon="0.84578">
        <ele>186</ele>
        <time>2025-08-17T06:50:10.569Z</time>
      </trkpt>
      <trkpt lat="44.24999" lon="0.84577">
        <ele>186</ele>
        <time>2025-08-17T06:50:11.569Z</time>
      </trkpt>
      <trkpt lat="44.24999" lon="0.84576">
        <ele>185</ele>
        <time>2025-08-17T06:50:12.569Z</time>
      </trkpt>
      <trkpt lat="44.24998" lon="0.84576">
        <ele>185</ele>
        <time>2025-08-17T06:50:13.569Z</time>
      </trkpt>
      <trkpt lat="44.24997" lon="0.84575">
        <ele>185</ele>
        <time>2025-08-17T06:50:14.569Z</time>
      </trkpt>
      <trkpt lat="44.24996" lon="0.84574">
        <ele>184</ele>
        <time>2025-08-17T06:50:15.569Z</time>
      </trkpt>
      <trkpt lat="44.24995" lon="0.84573">
        <ele>184</ele>
        <time>2025-08-17T06:50:16.569Z</time>
      </trkpt>
      <trkpt lat="44.24994" lon="0.84572">
        <ele>183</ele>
        <time>2025-08-17T06:50:17.569Z</time>
      </trkpt>
      <trkpt lat="44.24994" lon="0.84572">
        <ele>183</ele>
        <time>2025-08-17T06:50:18.569Z</time>
      </trkpt>
      <trkpt lat="44.24993" lon="0.84571">
        <ele>183</ele>
        <time>2025-08-17T06:50:19.569Z</time>
      </trkpt>
      <trkpt lat="44.24991" lon="0.8457">
        <ele>183</ele>
        <time>2025-08-17T06:50:20.569Z</time>
      </trkpt>
      <trkpt lat="44.24991" lon="0.8457">
        <ele>183</ele>
        <time>2025-08-17T06:50:21.569Z</time>
      </trkpt>
      <trkpt lat="44.2499" lon="0.84569">
        <ele>183</ele>
        <time>2025-08-17T06:50:22.569Z</time>
      </trkpt>
      <trkpt lat="44.24989" lon="0.84569">
        <ele>183</ele>
        <time>2025-08-17T06:50:23.569Z</time>
      </trkpt>
      <trkpt lat="44.24988" lon="0.84569">
        <ele>183</ele>
        <time>2025-08-17T06:50:24.569Z</time>
      </trkpt>
      <trkpt lat="44.24987" lon="0.84568">
        <ele>183</ele>
        <time>2025-08-17T06:50:25.569Z</time>
      </trkpt>
      <trkpt lat="44.24986" lon="0.84568">
        <ele>183</ele>
        <time>2025-08-17T06:50:26.569Z</time>
      </trkpt>
      <trkpt lat="44.24985" lon="0.84568">
        <ele>183</ele>
        <time>2025-08-17T06:50:27.569Z</time>
      </trkpt>
      <trkpt lat="44.24983" lon="0.84568">
        <ele>183</ele>
        <time>2025-08-17T06:50:28.569Z</time>
      </trkpt>
      <trkpt lat="44.24982" lon="0.84567">
        <ele>183</ele>
        <time>2025-08-17T06:50:29.569Z</time>
      </trkpt>
      <trkpt lat="44.24981" lon="0.84567">
        <ele>184</ele>
        <time>2025-08-17T06:50:30.569Z</time>
      </trkpt>
      <trkpt lat="44.2498" lon="0.84567">
        <ele>184</ele>
        <time>2025-08-17T06:50:31.569Z</time>
      </trkpt>
      <trkpt lat="44.24979" lon="0.84566">
        <ele>184</ele>
        <time>2025-08-17T06:50:32.569Z</time>
      </trkpt>
      <trkpt lat="44.24978" lon="0.84566">
        <ele>184</ele>
        <time>2025-08-17T06:50:33.569Z</time>
      </trkpt>
      <trkpt lat="44.24977" lon="0.84565">
        <ele>184</ele>
        <time>2025-08-17T06:50:34.569Z</time>
      </trkpt>
      <trkpt lat="44.24976" lon="0.84565">
        <ele>184</ele>
        <time>2025-08-17T06:50:35.569Z</time>
      </trkpt>
      <trkpt lat="44.24975" lon="0.84564">
        <ele>184</ele>
        <time>2025-08-17T06:50:36.569Z</time>
      </trkpt>
      <trkpt lat="44.24974" lon="0.84564">
        <ele>183</ele>
        <time>2025-08-17T06:50:37.569Z</time>
      </trkpt>
      <trkpt lat="44.24974" lon="0.84563">
        <ele>183</ele>
        <time>2025-08-17T06:50:38.569Z</time>
      </trkpt>
      <trkpt lat="44.24973" lon="0.84563">
        <ele>183</ele>
        <time>2025-08-17T06:50:39.569Z</time>
      </trkpt>
      <trkpt lat="44.24972" lon="0.84562">
        <ele>182</ele>
        <time>2025-08-17T06:50:40.569Z</time>
      </trkpt>
      <trkpt lat="44.24971" lon="0.84562">
        <ele>183</ele>
        <time>2025-08-17T06:50:41.569Z</time>
      </trkpt>
      <trkpt lat="44.24969" lon="0.84562">
        <ele>182</ele>
        <time>2025-08-17T06:50:42.569Z</time>
      </trkpt>
      <trkpt lat="44.24968" lon="0.84562">
        <ele>182</ele>
        <time>2025-08-17T06:50:43.569Z</time>
      </trkpt>
      <trkpt lat="44.24967" lon="0.84562">
        <ele>182</ele>
        <time>2025-08-17T06:50:44.569Z</time>
      </trkpt>
      <trkpt lat="44.24966" lon="0.84561">
        <ele>182</ele>
        <time>2025-08-17T06:50:45.569Z</time>
      </trkpt>
      <trkpt lat="44.24965" lon="0.84561">
        <ele>182</ele>
        <time>2025-08-17T06:50:46.569Z</time>
      </trkpt>
      <trkpt lat="44.24964" lon="0.84561">
        <ele>182</ele>
        <time>2025-08-17T06:50:47.569Z</time>
      </trkpt>
      <trkpt lat="44.24963" lon="0.8456">
        <ele>182</ele>
        <time>2025-08-17T06:50:48.569Z</time>
      </trkpt>
      <trkpt lat="44.24962" lon="0.8456">
        <ele>182</ele>
        <time>2025-08-17T06:50:49.569Z</time>
      </trkpt>
      <trkpt lat="44.24961" lon="0.8456">
        <ele>182</ele>
        <time>2025-08-17T06:50:50.569Z</time>
      </trkpt>
      <trkpt lat="44.24959" lon="0.8456">
        <ele>182</ele>
        <time>2025-08-17T06:50:51.569Z</time>
      </trkpt>
      <trkpt lat="44.24958" lon="0.84559">
        <ele>182</ele>
        <time>2025-08-17T06:50:52.569Z</time>
      </trkpt>
      <trkpt lat="44.24957" lon="0.84559">
        <ele>182</ele>
        <time>2025-08-17T06:50:53.569Z</time>
      </trkpt>
      <trkpt lat="44.24957" lon="0.84559">
        <ele>182</ele>
        <time>2025-08-17T06:50:54.569Z</time>
      </trkpt>
      <trkpt lat="44.24955" lon="0.84559">
        <ele>181</ele>
        <time>2025-08-17T06:50:55.569Z</time>
      </trkpt>
      <trkpt lat="44.24954" lon="0.84558">
        <ele>181</ele>
        <time>2025-08-17T06:50:56.569Z</time>
      </trkpt>
      <trkpt lat="44.24953" lon="0.84558">
        <ele>181</ele>
        <time>2025-08-17T06:50:57.569Z</time>
      </trkpt>
      <trkpt lat="44.24952" lon="0.84557">
        <ele>181</ele>
        <time>2025-08-17T06:50:58.569Z</time>
      </trkpt>
      <trkpt lat="44.24951" lon="0.84558">
        <ele>181</ele>
        <time>2025-08-17T06:50:59.569Z</time>
      </trkpt>
      <trkpt lat="44.2495" lon="0.84558">
        <ele>181</ele>
        <time>2025-08-17T06:51:00.569Z</time>
      </trkpt>
      <trkpt lat="44.24949" lon="0.84558">
        <ele>180</ele>
        <time>2025-08-17T06:51:01.569Z</time>
      </trkpt>
      <trkpt lat="44.24947" lon="0.84557">
        <ele>180</ele>
        <time>2025-08-17T06:51:02.570Z</time>
      </trkpt>
      <trkpt lat="44.24946" lon="0.84557">
        <ele>179</ele>
        <time>2025-08-17T06:51:03.569Z</time>
      </trkpt>
      <trkpt lat="44.24945" lon="0.84557">
        <ele>179</ele>
        <time>2025-08-17T06:51:04.569Z</time>
      </trkpt>
      <trkpt lat="44.24944" lon="0.84556">
        <ele>179</ele>
        <time>2025-08-17T06:51:05.569Z</time>
      </trkpt>
      <trkpt lat="44.24943" lon="0.84556">
        <ele>178</ele>
        <time>2025-08-17T06:51:06.569Z</time>
      </trkpt>
      <trkpt lat="44.24942" lon="0.84556">
        <ele>178</ele>
        <time>2025-08-17T06:51:07.569Z</time>
      </trkpt>
      <trkpt lat="44.2494" lon="0.84557">
        <ele>178</ele>
        <time>2025-08-17T06:51:08.569Z</time>
      </trkpt>
      <trkpt lat="44.24939" lon="0.84556">
        <ele>178</ele>
        <time>2025-08-17T06:51:09.569Z</time>
      </trkpt>
      <trkpt lat="44.24938" lon="0.84556">
        <ele>179</ele>
        <time>2025-08-17T06:51:10.569Z</time>
      </trkpt>
      <trkpt lat="44.24937" lon="0.84556">
        <ele>178</ele>
        <time>2025-08-17T06:51:11.569Z</time>
      </trkpt>
      <trkpt lat="44.24936" lon="0.84555">
        <ele>178</ele>
        <time>2025-08-17T06:51:12.569Z</time>
      </trkpt>
      <trkpt lat="44.24935" lon="0.84555">
        <ele>178</ele>
        <time>2025-08-17T06:51:13.569Z</time>
      </trkpt>
      <trkpt lat="44.24934" lon="0.84555">
        <ele>178</ele>
        <time>2025-08-17T06:51:14.569Z</time>
      </trkpt>
      <trkpt lat="44.24933" lon="0.84555">
        <ele>177</ele>
        <time>2025-08-17T06:51:15.569Z</time>
      </trkpt>
      <trkpt lat="44.24932" lon="0.84554">
        <ele>177</ele>
        <time>2025-08-17T06:51:16.569Z</time>
      </trkpt>
      <trkpt lat="44.2493" lon="0.84554">
        <ele>176</ele>
        <time>2025-08-17T06:51:17.569Z</time>
      </trkpt>
      <trkpt lat="44.24929" lon="0.84553">
        <ele>176</ele>
        <time>2025-08-17T06:51:18.569Z</time>
      </trkpt>
      <trkpt lat="44.24928" lon="0.84553">
        <ele>176</ele>
        <time>2025-08-17T06:51:19.569Z</time>
      </trkpt>
      <trkpt lat="44.24927" lon="0.84553">
        <ele>175</ele>
        <time>2025-08-17T06:51:20.569Z</time>
      </trkpt>
      <trkpt lat="44.24926" lon="0.84552">
        <ele>175</ele>
        <time>2025-08-17T06:51:21.569Z</time>
      </trkpt>
      <trkpt lat="44.24924" lon="0.84552">
        <ele>175</ele>
        <time>2025-08-17T06:51:22.569Z</time>
      </trkpt>
      <trkpt lat="44.24923" lon="0.84552">
        <ele>174</ele>
        <time>2025-08-17T06:51:23.569Z</time>
      </trkpt>
      <trkpt lat="44.24922" lon="0.84551">
        <ele>174</ele>
        <time>2025-08-17T06:51:24.569Z</time>
      </trkpt>
      <trkpt lat="44.24921" lon="0.84551">
        <ele>174</ele>
        <time>2025-08-17T06:51:25.569Z</time>
      </trkpt>
      <trkpt lat="44.24921" lon="0.8455">
        <ele>174</ele>
        <time>2025-08-17T06:51:26.569Z</time>
      </trkpt>
      <trkpt lat="44.2492" lon="0.84549">
        <ele>174</ele>
        <time>2025-08-17T06:51:27.569Z</time>
      </trkpt>
      <trkpt lat="44.24918" lon="0.84548">
        <ele>174</ele>
        <time>2025-08-17T06:51:28.569Z</time>
      </trkpt>
      <trkpt lat="44.24918" lon="0.84547">
        <ele>174</ele>
        <time>2025-08-17T06:51:29.569Z</time>
      </trkpt>
      <trkpt lat="44.24917" lon="0.84546">
        <ele>174</ele>
        <time>2025-08-17T06:51:30.569Z</time>
      </trkpt>
      <trkpt lat="44.24916" lon="0.84545">
        <ele>174</ele>
        <time>2025-08-17T06:51:31.569Z</time>
      </trkpt>
      <trkpt lat="44.24915" lon="0.84543">
        <ele>174</ele>
        <time>2025-08-17T06:51:32.569Z</time>
      </trkpt>
      <trkpt lat="44.24914" lon="0.84542">
        <ele>173</ele>
        <time>2025-08-17T06:51:33.569Z</time>
      </trkpt>
      <trkpt lat="44.24913" lon="0.8454">
        <ele>173</ele>
        <time>2025-08-17T06:51:34.569Z</time>
      </trkpt>
      <trkpt lat="44.24913" lon="0.84537">
        <ele>172</ele>
        <time>2025-08-17T06:51:35.569Z</time>
      </trkpt>
      <trkpt lat="44.24913" lon="0.84536">
        <ele>172</ele>
        <time>2025-08-17T06:51:36.569Z</time>
      </trkpt>
      <trkpt lat="44.24912" lon="0.84534">
        <ele>172</ele>
        <time>2025-08-17T06:51:37.569Z</time>
      </trkpt>
      <trkpt lat="44.24912" lon="0.84532">
        <ele>172</ele>
        <time>2025-08-17T06:51:38.569Z</time>
      </trkpt>
      <trkpt lat="44.24912" lon="0.8453">
        <ele>172</ele>
        <time>2025-08-17T06:51:39.569Z</time>
      </trkpt>
      <trkpt lat="44.24911" lon="0.84529">
        <ele>172</ele>
        <time>2025-08-17T06:51:40.569Z</time>
      </trkpt>
      <trkpt lat="44.24911" lon="0.84527">
        <ele>172</ele>
        <time>2025-08-17T06:51:41.569Z</time>
      </trkpt>
      <trkpt lat="44.24911" lon="0.84526">
        <ele>172</ele>
        <time>2025-08-17T06:51:42.569Z</time>
      </trkpt>
      <trkpt lat="44.2491" lon="0.84524">
        <ele>171</ele>
        <time>2025-08-17T06:51:43.569Z</time>
      </trkpt>
      <trkpt lat="44.2491" lon="0.84522">
        <ele>171</ele>
        <time>2025-08-17T06:51:44.569Z</time>
      </trkpt>
      <trkpt lat="44.2491" lon="0.8452">
        <ele>172</ele>
        <time>2025-08-17T06:51:45.569Z</time>
      </trkpt>
      <trkpt lat="44.24909" lon="0.84518">
        <ele>172</ele>
        <time>2025-08-17T06:51:46.569Z</time>
      </trkpt>
      <trkpt lat="44.24909" lon="0.84516">
        <ele>172</ele>
        <time>2025-08-17T06:51:47.569Z</time>
      </trkpt>
      <trkpt lat="44.24909" lon="0.84513">
        <ele>172</ele>
        <time>2025-08-17T06:51:48.569Z</time>
      </trkpt>
      <trkpt lat="44.24908" lon="0.84512">
        <ele>173</ele>
        <time>2025-08-17T06:51:49.569Z</time>
      </trkpt>
      <trkpt lat="44.24908" lon="0.8451">
        <ele>173</ele>
        <time>2025-08-17T06:51:50.569Z</time>
      </trkpt>
      <trkpt lat="44.24908" lon="0.84509">
        <ele>173</ele>
        <time>2025-08-17T06:51:51.569Z</time>
      </trkpt>
      <trkpt lat="44.24907" lon="0.84507">
        <ele>173</ele>
        <time>2025-08-17T06:51:52.569Z</time>
      </trkpt>
      <trkpt lat="44.24907" lon="0.84506">
        <ele>173</ele>
        <time>2025-08-17T06:51:53.569Z</time>
      </trkpt>
      <trkpt lat="44.24906" lon="0.84504">
        <ele>173</ele>
        <time>2025-08-17T06:51:54.569Z</time>
      </trkpt>
      <trkpt lat="44.24905" lon="0.84502">
        <ele>173</ele>
        <time>2025-08-17T06:51:55.569Z</time>
      </trkpt>
      <trkpt lat="44.24905" lon="0.845">
        <ele>174</ele>
        <time>2025-08-17T06:51:56.569Z</time>
      </trkpt>
      <trkpt lat="44.24904" lon="0.84499">
        <ele>174</ele>
        <time>2025-08-17T06:51:57.569Z</time>
      </trkpt>
      <trkpt lat="44.24904" lon="0.84497">
        <ele>175</ele>
        <time>2025-08-17T06:51:58.569Z</time>
      </trkpt>
      <trkpt lat="44.24903" lon="0.84496">
        <ele>175</ele>
        <time>2025-08-17T06:51:59.569Z</time>
      </trkpt>
      <trkpt lat="44.24903" lon="0.84494">
        <ele>175</ele>
        <time>2025-08-17T06:52:00.569Z</time>
      </trkpt>
      <trkpt lat="44.24903" lon="0.84493">
        <ele>175</ele>
        <time>2025-08-17T06:52:01.569Z</time>
      </trkpt>
      <trkpt lat="44.24903" lon="0.84491">
        <ele>175</ele>
        <time>2025-08-17T06:52:02.569Z</time>
      </trkpt>
      <trkpt lat="44.24902" lon="0.8449">
        <ele>175</ele>
        <time>2025-08-17T06:52:03.569Z</time>
      </trkpt>
      <trkpt lat="44.24901" lon="0.84488">
        <ele>175</ele>
        <time>2025-08-17T06:52:04.569Z</time>
      </trkpt>
      <trkpt lat="44.249" lon="0.84487">
        <ele>175</ele>
        <time>2025-08-17T06:52:05.569Z</time>
      </trkpt>
      <trkpt lat="44.249" lon="0.84485">
        <ele>175</ele>
        <time>2025-08-17T06:52:06.569Z</time>
      </trkpt>
      <trkpt lat="44.24899" lon="0.84483">
        <ele>175</ele>
        <time>2025-08-17T06:52:07.569Z</time>
      </trkpt>
      <trkpt lat="44.24899" lon="0.84482">
        <ele>175</ele>
        <time>2025-08-17T06:52:08.569Z</time>
      </trkpt>
      <trkpt lat="44.24898" lon="0.8448">
        <ele>175</ele>
        <time>2025-08-17T06:52:09.569Z</time>
      </trkpt>
      <trkpt lat="44.24898" lon="0.84479">
        <ele>175</ele>
        <time>2025-08-17T06:52:10.569Z</time>
      </trkpt>
      <trkpt lat="44.24897" lon="0.84478">
        <ele>175</ele>
        <time>2025-08-17T06:52:11.569Z</time>
      </trkpt>
      <trkpt lat="44.24897" lon="0.84477">
        <ele>176</ele>
        <time>2025-08-17T06:52:12.569Z</time>
      </trkpt>
      <trkpt lat="44.24896" lon="0.84476">
        <ele>176</ele>
        <time>2025-08-17T06:52:13.569Z</time>
      </trkpt>
      <trkpt lat="44.24895" lon="0.84474">
        <ele>176</ele>
        <time>2025-08-17T06:52:14.569Z</time>
      </trkpt>
      <trkpt lat="44.24894" lon="0.84473">
        <ele>176</ele>
        <time>2025-08-17T06:52:15.569Z</time>
      </trkpt>
      <trkpt lat="44.24893" lon="0.84472">
        <ele>176</ele>
        <time>2025-08-17T06:52:16.569Z</time>
      </trkpt>
      <trkpt lat="44.24892" lon="0.84471">
        <ele>176</ele>
        <time>2025-08-17T06:52:17.569Z</time>
      </trkpt>
      <trkpt lat="44.24891" lon="0.8447">
        <ele>176</ele>
        <time>2025-08-17T06:52:18.569Z</time>
      </trkpt>
      <trkpt lat="44.2489" lon="0.84469">
        <ele>176</ele>
        <time>2025-08-17T06:52:19.569Z</time>
      </trkpt>
      <trkpt lat="44.24889" lon="0.84468">
        <ele>176</ele>
        <time>2025-08-17T06:52:20.569Z</time>
      </trkpt>
      <trkpt lat="44.24888" lon="0.84467">
        <ele>177</ele>
        <time>2025-08-17T06:52:21.569Z</time>
      </trkpt>
      <trkpt lat="44.24887" lon="0.84466">
        <ele>177</ele>
        <time>2025-08-17T06:52:22.569Z</time>
      </trkpt>
      <trkpt lat="44.24887" lon="0.84464">
        <ele>177</ele>
        <time>2025-08-17T06:52:23.569Z</time>
      </trkpt>
      <trkpt lat="44.24886" lon="0.84463">
        <ele>177</ele>
        <time>2025-08-17T06:52:24.569Z</time>
      </trkpt>
      <trkpt lat="44.24885" lon="0.84462">
        <ele>177</ele>
        <time>2025-08-17T06:52:25.569Z</time>
      </trkpt>
      <trkpt lat="44.24884" lon="0.84461">
        <ele>177</ele>
        <time>2025-08-17T06:52:26.569Z</time>
      </trkpt>
      <trkpt lat="44.24883" lon="0.8446">
        <ele>176</ele>
        <time>2025-08-17T06:52:27.569Z</time>
      </trkpt>
      <trkpt lat="44.24882" lon="0.84458">
        <ele>176</ele>
        <time>2025-08-17T06:52:28.569Z</time>
      </trkpt>
      <trkpt lat="44.24882" lon="0.84457">
        <ele>177</ele>
        <time>2025-08-17T06:52:29.569Z</time>
      </trkpt>
      <trkpt lat="44.24881" lon="0.84456">
        <ele>177</ele>
        <time>2025-08-17T06:52:30.569Z</time>
      </trkpt>
      <trkpt lat="44.2488" lon="0.84455">
        <ele>177</ele>
        <time>2025-08-17T06:52:31.569Z</time>
      </trkpt>
      <trkpt lat="44.24879" lon="0.84454">
        <ele>177</ele>
        <time>2025-08-17T06:52:32.569Z</time>
      </trkpt>
      <trkpt lat="44.24878" lon="0.84453">
        <ele>177</ele>
        <time>2025-08-17T06:52:33.569Z</time>
      </trkpt>
      <trkpt lat="44.24877" lon="0.84452">
        <ele>176</ele>
        <time>2025-08-17T06:52:34.569Z</time>
      </trkpt>
      <trkpt lat="44.24876" lon="0.84451">
        <ele>176</ele>
        <time>2025-08-17T06:52:35.569Z</time>
      </trkpt>
      <trkpt lat="44.24875" lon="0.8445">
        <ele>176</ele>
        <time>2025-08-17T06:52:36.569Z</time>
      </trkpt>
      <trkpt lat="44.24873" lon="0.84449">
        <ele>176</ele>
        <time>2025-08-17T06:52:37.569Z</time>
      </trkpt>
      <trkpt lat="44.24872" lon="0.84448">
        <ele>176</ele>
        <time>2025-08-17T06:52:38.569Z</time>
      </trkpt>
      <trkpt lat="44.24871" lon="0.84447">
        <ele>176</ele>
        <time>2025-08-17T06:52:39.569Z</time>
      </trkpt>
      <trkpt lat="44.2487" lon="0.84446">
        <ele>176</ele>
        <time>2025-08-17T06:52:40.569Z</time>
      </trkpt>
      <trkpt lat="44.24869" lon="0.84445">
        <ele>176</ele>
        <time>2025-08-17T06:52:41.569Z</time>
      </trkpt>
      <trkpt lat="44.24868" lon="0.84444">
        <ele>176</ele>
        <time>2025-08-17T06:52:42.569Z</time>
      </trkpt>
      <trkpt lat="44.24867" lon="0.84443">
        <ele>175</ele>
        <time>2025-08-17T06:52:43.569Z</time>
      </trkpt>
      <trkpt lat="44.24866" lon="0.84442">
        <ele>175</ele>
        <time>2025-08-17T06:52:44.569Z</time>
      </trkpt>
      <trkpt lat="44.24866" lon="0.84441">
        <ele>175</ele>
        <time>2025-08-17T06:52:45.569Z</time>
      </trkpt>
      <trkpt lat="44.24865" lon="0.84441">
        <ele>175</ele>
        <time>2025-08-17T06:52:46.569Z</time>
      </trkpt>
      <trkpt lat="44.24864" lon="0.8444">
        <ele>174</ele>
        <time>2025-08-17T06:52:47.569Z</time>
      </trkpt>
      <trkpt lat="44.24863" lon="0.8444">
        <ele>174</ele>
        <time>2025-08-17T06:52:48.569Z</time>
      </trkpt>
      <trkpt lat="44.24862" lon="0.8444">
        <ele>174</ele>
        <time>2025-08-17T06:52:49.569Z</time>
      </trkpt>
      <trkpt lat="44.24861" lon="0.84439">
        <ele>173</ele>
        <time>2025-08-17T06:52:50.569Z</time>
      </trkpt>
      <trkpt lat="44.2486" lon="0.84439">
        <ele>173</ele>
        <time>2025-08-17T06:52:51.569Z</time>
      </trkpt>
      <trkpt lat="44.24859" lon="0.84438">
        <ele>173</ele>
        <time>2025-08-17T06:52:52.569Z</time>
      </trkpt>
      <trkpt lat="44.24857" lon="0.84438">
        <ele>172</ele>
        <time>2025-08-17T06:52:53.569Z</time>
      </trkpt>
      <trkpt lat="44.24856" lon="0.84438">
        <ele>172</ele>
        <time>2025-08-17T06:52:54.569Z</time>
      </trkpt>
      <trkpt lat="44.24855" lon="0.84437">
        <ele>172</ele>
        <time>2025-08-17T06:52:55.569Z</time>
      </trkpt>
      <trkpt lat="44.24854" lon="0.84436">
        <ele>172</ele>
        <time>2025-08-17T06:52:56.569Z</time>
      </trkpt>
      <trkpt lat="44.24853" lon="0.84436">
        <ele>173</ele>
        <time>2025-08-17T06:52:57.569Z</time>
      </trkpt>
      <trkpt lat="44.24852" lon="0.84435">
        <ele>173</ele>
        <time>2025-08-17T06:52:58.569Z</time>
      </trkpt>
      <trkpt lat="44.24851" lon="0.84434">
        <ele>173</ele>
        <time>2025-08-17T06:52:59.569Z</time>
      </trkpt>
      <trkpt lat="44.2485" lon="0.84433">
        <ele>174</ele>
        <time>2025-08-17T06:53:00.569Z</time>
      </trkpt>
      <trkpt lat="44.24849" lon="0.84433">
        <ele>174</ele>
        <time>2025-08-17T06:53:01.569Z</time>
      </trkpt>
      <trkpt lat="44.24848" lon="0.84432">
        <ele>174</ele>
        <time>2025-08-17T06:53:02.569Z</time>
      </trkpt>
      <trkpt lat="44.24847" lon="0.84432">
        <ele>174</ele>
        <time>2025-08-17T06:53:03.569Z</time>
      </trkpt>
      <trkpt lat="44.24846" lon="0.84431">
        <ele>174</ele>
        <time>2025-08-17T06:53:04.569Z</time>
      </trkpt>
      <trkpt lat="44.24845" lon="0.8443">
        <ele>174</ele>
        <time>2025-08-17T06:53:05.569Z</time>
      </trkpt>
      <trkpt lat="44.24844" lon="0.8443">
        <ele>174</ele>
        <time>2025-08-17T06:53:06.569Z</time>
      </trkpt>
      <trkpt lat="44.24843" lon="0.84429">
        <ele>174</ele>
        <time>2025-08-17T06:53:07.569Z</time>
      </trkpt>
      <trkpt lat="44.24842" lon="0.84429">
        <ele>174</ele>
        <time>2025-08-17T06:53:08.569Z</time>
      </trkpt>
      <trkpt lat="44.24841" lon="0.84428">
        <ele>174</ele>
        <time>2025-08-17T06:53:09.569Z</time>
      </trkpt>
      <trkpt lat="44.2484" lon="0.84428">
        <ele>174</ele>
        <time>2025-08-17T06:53:10.569Z</time>
      </trkpt>
      <trkpt lat="44.24839" lon="0.84427">
        <ele>174</ele>
        <time>2025-08-17T06:53:11.569Z</time>
      </trkpt>
      <trkpt lat="44.24838" lon="0.84427">
        <ele>174</ele>
        <time>2025-08-17T06:53:12.569Z</time>
      </trkpt>
      <trkpt lat="44.24837" lon="0.84426">
        <ele>174</ele>
        <time>2025-08-17T06:53:13.569Z</time>
      </trkpt>
      <trkpt lat="44.24835" lon="0.84426">
        <ele>174</ele>
        <time>2025-08-17T06:53:14.569Z</time>
      </trkpt>
      <trkpt lat="44.24834" lon="0.84425">
        <ele>174</ele>
        <time>2025-08-17T06:53:15.569Z</time>
      </trkpt>
      <trkpt lat="44.24833" lon="0.84424">
        <ele>174</ele>
        <time>2025-08-17T06:53:16.569Z</time>
      </trkpt>
      <trkpt lat="44.24832" lon="0.84424">
        <ele>174</ele>
        <time>2025-08-17T06:53:17.569Z</time>
      </trkpt>
      <trkpt lat="44.24831" lon="0.84424">
        <ele>175</ele>
        <time>2025-08-17T06:53:18.569Z</time>
      </trkpt>
      <trkpt lat="44.24829" lon="0.84423">
        <ele>175</ele>
        <time>2025-08-17T06:53:19.569Z</time>
      </trkpt>
      <trkpt lat="44.24828" lon="0.84423">
        <ele>175</ele>
        <time>2025-08-17T06:53:20.569Z</time>
      </trkpt>
      <trkpt lat="44.24827" lon="0.84423">
        <ele>175</ele>
        <time>2025-08-17T06:53:21.569Z</time>
      </trkpt>
      <trkpt lat="44.24826" lon="0.84423">
        <ele>175</ele>
        <time>2025-08-17T06:53:22.569Z</time>
      </trkpt>
      <trkpt lat="44.24825" lon="0.84422">
        <ele>175</ele>
        <time>2025-08-17T06:53:23.569Z</time>
      </trkpt>
      <trkpt lat="44.24824" lon="0.84422">
        <ele>175</ele>
        <time>2025-08-17T06:53:24.569Z</time>
      </trkpt>
      <trkpt lat="44.24822" lon="0.84421">
        <ele>175</ele>
        <time>2025-08-17T06:53:25.569Z</time>
      </trkpt>
      <trkpt lat="44.24821" lon="0.84421">
        <ele>174</ele>
        <time>2025-08-17T06:53:26.569Z</time>
      </trkpt>
      <trkpt lat="44.2482" lon="0.84421">
        <ele>174</ele>
        <time>2025-08-17T06:53:27.569Z</time>
      </trkpt>
      <trkpt lat="44.24819" lon="0.8442">
        <ele>174</ele>
        <time>2025-08-17T06:53:28.569Z</time>
      </trkpt>
      <trkpt lat="44.24817" lon="0.8442">
        <ele>174</ele>
        <time>2025-08-17T06:53:29.569Z</time>
      </trkpt>
      <trkpt lat="44.24816" lon="0.8442">
        <ele>174</ele>
        <time>2025-08-17T06:53:30.569Z</time>
      </trkpt>
      <trkpt lat="44.24815" lon="0.8442">
        <ele>174</ele>
        <time>2025-08-17T06:53:31.569Z</time>
      </trkpt>
      <trkpt lat="44.24814" lon="0.84419">
        <ele>174</ele>
        <time>2025-08-17T06:53:32.569Z</time>
      </trkpt>
      <trkpt lat="44.24813" lon="0.84419">
        <ele>174</ele>
        <time>2025-08-17T06:53:33.569Z</time>
      </trkpt>
      <trkpt lat="44.24812" lon="0.84419">
        <ele>174</ele>
        <time>2025-08-17T06:53:34.569Z</time>
      </trkpt>
      <trkpt lat="44.24811" lon="0.84418">
        <ele>174</ele>
        <time>2025-08-17T06:53:35.569Z</time>
      </trkpt>
      <trkpt lat="44.2481" lon="0.84418">
        <ele>173</ele>
        <time>2025-08-17T06:53:36.569Z</time>
      </trkpt>
      <trkpt lat="44.24809" lon="0.84418">
        <ele>173</ele>
        <time>2025-08-17T06:53:37.569Z</time>
      </trkpt>
      <trkpt lat="44.24808" lon="0.84418">
        <ele>173</ele>
        <time>2025-08-17T06:53:38.569Z</time>
      </trkpt>
      <trkpt lat="44.24806" lon="0.84417">
        <ele>173</ele>
        <time>2025-08-17T06:53:39.569Z</time>
      </trkpt>
      <trkpt lat="44.24805" lon="0.84417">
        <ele>174</ele>
        <time>2025-08-17T06:53:40.569Z</time>
      </trkpt>
      <trkpt lat="44.24805" lon="0.84417">
        <ele>174</ele>
        <time>2025-08-17T06:53:41.569Z</time>
      </trkpt>
      <trkpt lat="44.24804" lon="0.84417">
        <ele>174</ele>
        <time>2025-08-17T06:53:42.569Z</time>
      </trkpt>
      <trkpt lat="44.24802" lon="0.84417">
        <ele>174</ele>
        <time>2025-08-17T06:53:43.569Z</time>
      </trkpt>
      <trkpt lat="44.24801" lon="0.84417">
        <ele>174</ele>
        <time>2025-08-17T06:53:44.569Z</time>
      </trkpt>
      <trkpt lat="44.248" lon="0.84417">
        <ele>174</ele>
        <time>2025-08-17T06:53:45.569Z</time>
      </trkpt>
      <trkpt lat="44.24799" lon="0.84417">
        <ele>174</ele>
        <time>2025-08-17T06:53:46.569Z</time>
      </trkpt>
      <trkpt lat="44.24798" lon="0.84417">
        <ele>174</ele>
        <time>2025-08-17T06:53:47.569Z</time>
      </trkpt>
      <trkpt lat="44.24798" lon="0.84417">
        <ele>173</ele>
        <time>2025-08-17T06:53:48.569Z</time>
      </trkpt>
      <trkpt lat="44.24797" lon="0.84417">
        <ele>173</ele>
        <time>2025-08-17T06:53:49.569Z</time>
      </trkpt>
      <trkpt lat="44.24796" lon="0.84417">
        <ele>173</ele>
        <time>2025-08-17T06:53:50.569Z</time>
      </trkpt>
      <trkpt lat="44.24795" lon="0.84417">
        <ele>172</ele>
        <time>2025-08-17T06:53:51.569Z</time>
      </trkpt>
      <trkpt lat="44.24794" lon="0.84416">
        <ele>172</ele>
        <time>2025-08-17T06:53:52.569Z</time>
      </trkpt>
      <trkpt lat="44.24793" lon="0.84416">
        <ele>172</ele>
        <time>2025-08-17T06:53:53.569Z</time>
      </trkpt>
      <trkpt lat="44.24793" lon="0.84416">
        <ele>173</ele>
        <time>2025-08-17T06:53:54.569Z</time>
      </trkpt>
      <trkpt lat="44.24792" lon="0.84416">
        <ele>173</ele>
        <time>2025-08-17T06:53:55.569Z</time>
      </trkpt>
      <trkpt lat="44.24791" lon="0.84416">
        <ele>173</ele>
        <time>2025-08-17T06:53:56.569Z</time>
      </trkpt>
      <trkpt lat="44.2479" lon="0.84416">
        <ele>173</ele>
        <time>2025-08-17T06:53:57.569Z</time>
      </trkpt>
      <trkpt lat="44.24789" lon="0.84415">
        <ele>173</ele>
        <time>2025-08-17T06:53:58.569Z</time>
      </trkpt>
      <trkpt lat="44.24788" lon="0.84415">
        <ele>173</ele>
        <time>2025-08-17T06:53:59.569Z</time>
      </trkpt>
      <trkpt lat="44.24787" lon="0.84415">
        <ele>174</ele>
        <time>2025-08-17T06:54:00.569Z</time>
      </trkpt>
      <trkpt lat="44.24786" lon="0.84415">
        <ele>174</ele>
        <time>2025-08-17T06:54:01.569Z</time>
      </trkpt>
      <trkpt lat="44.24785" lon="0.84415">
        <ele>174</ele>
        <time>2025-08-17T06:54:02.569Z</time>
      </trkpt>
      <trkpt lat="44.24784" lon="0.84415">
        <ele>174</ele>
        <time>2025-08-17T06:54:03.569Z</time>
      </trkpt>
      <trkpt lat="44.24783" lon="0.84415">
        <ele>175</ele>
        <time>2025-08-17T06:54:04.569Z</time>
      </trkpt>
      <trkpt lat="44.24782" lon="0.84415">
        <ele>175</ele>
        <time>2025-08-17T06:54:05.569Z</time>
      </trkpt>
      <trkpt lat="44.24781" lon="0.84415">
        <ele>175</ele>
        <time>2025-08-17T06:54:06.569Z</time>
      </trkpt>
      <trkpt lat="44.2478" lon="0.84415">
        <ele>175</ele>
        <time>2025-08-17T06:54:07.569Z</time>
      </trkpt>
      <trkpt lat="44.24779" lon="0.84415">
        <ele>176</ele>
        <time>2025-08-17T06:54:08.569Z</time>
      </trkpt>
      <trkpt lat="44.24778" lon="0.84415">
        <ele>176</ele>
        <time>2025-08-17T06:54:09.569Z</time>
      </trkpt>
      <trkpt lat="44.24776" lon="0.84414">
        <ele>177</ele>
        <time>2025-08-17T06:54:10.569Z</time>
      </trkpt>
      <trkpt lat="44.24776" lon="0.84414">
        <ele>177</ele>
        <time>2025-08-17T06:54:11.569Z</time>
      </trkpt>
      <trkpt lat="44.24774" lon="0.84414">
        <ele>177</ele>
        <time>2025-08-17T06:54:12.569Z</time>
      </trkpt>
      <trkpt lat="44.24773" lon="0.84413">
        <ele>177</ele>
        <time>2025-08-17T06:54:13.569Z</time>
      </trkpt>
      <trkpt lat="44.24772" lon="0.84413">
        <ele>177</ele>
        <time>2025-08-17T06:54:14.569Z</time>
      </trkpt>
      <trkpt lat="44.24771" lon="0.84413">
        <ele>177</ele>
        <time>2025-08-17T06:54:15.569Z</time>
      </trkpt>
      <trkpt lat="44.2477" lon="0.84412">
        <ele>178</ele>
        <time>2025-08-17T06:54:16.569Z</time>
      </trkpt>
      <trkpt lat="44.2477" lon="0.84412">
        <ele>178</ele>
        <time>2025-08-17T06:54:17.569Z</time>
      </trkpt>
      <trkpt lat="44.24768" lon="0.84412">
        <ele>178</ele>
        <time>2025-08-17T06:54:18.569Z</time>
      </trkpt>
      <trkpt lat="44.24767" lon="0.84411">
        <ele>177</ele>
        <time>2025-08-17T06:54:19.569Z</time>
      </trkpt>
      <trkpt lat="44.24766" lon="0.84411">
        <ele>177</ele>
        <time>2025-08-17T06:54:20.569Z</time>
      </trkpt>
      <trkpt lat="44.24765" lon="0.8441">
        <ele>177</ele>
        <time>2025-08-17T06:54:21.569Z</time>
      </trkpt>
      <trkpt lat="44.24764" lon="0.8441">
        <ele>176</ele>
        <time>2025-08-17T06:54:22.569Z</time>
      </trkpt>
      <trkpt lat="44.24763" lon="0.8441">
        <ele>176</ele>
        <time>2025-08-17T06:54:23.569Z</time>
      </trkpt>
      <trkpt lat="44.24762" lon="0.8441">
        <ele>176</ele>
        <time>2025-08-17T06:54:24.569Z</time>
      </trkpt>
      <trkpt lat="44.24761" lon="0.84409">
        <ele>176</ele>
        <time>2025-08-17T06:54:25.569Z</time>
      </trkpt>
      <trkpt lat="44.2476" lon="0.84409">
        <ele>175</ele>
        <time>2025-08-17T06:54:26.569Z</time>
      </trkpt>
      <trkpt lat="44.24759" lon="0.84408">
        <ele>175</ele>
        <time>2025-08-17T06:54:27.569Z</time>
      </trkpt>
      <trkpt lat="44.24757" lon="0.84408">
        <ele>175</ele>
        <time>2025-08-17T06:54:28.569Z</time>
      </trkpt>
      <trkpt lat="44.24756" lon="0.84408">
        <ele>175</ele>
        <time>2025-08-17T06:54:29.569Z</time>
      </trkpt>
      <trkpt lat="44.24755" lon="0.84408">
        <ele>175</ele>
        <time>2025-08-17T06:54:30.569Z</time>
      </trkpt>
      <trkpt lat="44.24754" lon="0.84407">
        <ele>175</ele>
        <time>2025-08-17T06:54:31.569Z</time>
      </trkpt>
      <trkpt lat="44.24753" lon="0.84407">
        <ele>174</ele>
        <time>2025-08-17T06:54:32.569Z</time>
      </trkpt>
      <trkpt lat="44.24752" lon="0.84407">
        <ele>175</ele>
        <time>2025-08-17T06:54:33.569Z</time>
      </trkpt>
      <trkpt lat="44.24751" lon="0.84407">
        <ele>175</ele>
        <time>2025-08-17T06:54:34.569Z</time>
      </trkpt>
      <trkpt lat="44.2475" lon="0.84406">
        <ele>175</ele>
        <time>2025-08-17T06:54:35.569Z</time>
      </trkpt>
      <trkpt lat="44.24749" lon="0.84406">
        <ele>175</ele>
        <time>2025-08-17T06:54:36.569Z</time>
      </trkpt>
      <trkpt lat="44.24748" lon="0.84405">
        <ele>175</ele>
        <time>2025-08-17T06:54:37.569Z</time>
      </trkpt>
      <trkpt lat="44.24747" lon="0.84405">
        <ele>175</ele>
        <time>2025-08-17T06:54:38.569Z</time>
      </trkpt>
      <trkpt lat="44.24746" lon="0.84405">
        <ele>174</ele>
        <time>2025-08-17T06:54:39.569Z</time>
      </trkpt>
      <trkpt lat="44.24745" lon="0.84404">
        <ele>174</ele>
        <time>2025-08-17T06:54:40.569Z</time>
      </trkpt>
      <trkpt lat="44.24744" lon="0.84405">
        <ele>174</ele>
        <time>2025-08-17T06:54:41.569Z</time>
      </trkpt>
      <trkpt lat="44.24743" lon="0.84404">
        <ele>174</ele>
        <time>2025-08-17T06:54:42.569Z</time>
      </trkpt>
      <trkpt lat="44.24742" lon="0.84404">
        <ele>173</ele>
        <time>2025-08-17T06:54:43.569Z</time>
      </trkpt>
      <trkpt lat="44.24741" lon="0.84404">
        <ele>173</ele>
        <time>2025-08-17T06:54:44.569Z</time>
      </trkpt>
      <trkpt lat="44.2474" lon="0.84403">
        <ele>173</ele>
        <time>2025-08-17T06:54:45.569Z</time>
      </trkpt>
      <trkpt lat="44.24739" lon="0.84403">
        <ele>173</ele>
        <time>2025-08-17T06:54:46.569Z</time>
      </trkpt>
      <trkpt lat="44.24738" lon="0.84403">
        <ele>174</ele>
        <time>2025-08-17T06:54:47.569Z</time>
      </trkpt>
      <trkpt lat="44.24737" lon="0.84402">
        <ele>174</ele>
        <time>2025-08-17T06:54:48.569Z</time>
      </trkpt>
      <trkpt lat="44.24736" lon="0.84402">
        <ele>174</ele>
        <time>2025-08-17T06:54:49.569Z</time>
      </trkpt>
      <trkpt lat="44.24735" lon="0.84402">
        <ele>174</ele>
        <time>2025-08-17T06:54:50.569Z</time>
      </trkpt>
      <trkpt lat="44.24734" lon="0.84402">
        <ele>174</ele>
        <time>2025-08-17T06:54:51.569Z</time>
      </trkpt>
      <trkpt lat="44.24734" lon="0.84401">
        <ele>175</ele>
        <time>2025-08-17T06:54:52.569Z</time>
      </trkpt>
      <trkpt lat="44.24733" lon="0.84401">
        <ele>175</ele>
        <time>2025-08-17T06:54:53.569Z</time>
      </trkpt>
      <trkpt lat="44.24732" lon="0.844">
        <ele>175</ele>
        <time>2025-08-17T06:54:54.569Z</time>
      </trkpt>
      <trkpt lat="44.24732" lon="0.844">
        <ele>175</ele>
        <time>2025-08-17T06:54:55.569Z</time>
      </trkpt>
      <trkpt lat="44.24731" lon="0.844">
        <ele>175</ele>
        <time>2025-08-17T06:54:56.569Z</time>
      </trkpt>
      <trkpt lat="44.24731" lon="0.844">
        <ele>175</ele>
        <time>2025-08-17T06:54:57.569Z</time>
      </trkpt>
      <trkpt lat="44.2473" lon="0.844">
        <ele>176</ele>
        <time>2025-08-17T06:54:58.569Z</time>
      </trkpt>
      <trkpt lat="44.24729" lon="0.844">
        <ele>176</ele>
        <time>2025-08-17T06:54:59.569Z</time>
      </trkpt>
      <trkpt lat="44.24727" lon="0.84399">
        <ele>176</ele>
        <time>2025-08-17T06:55:00.569Z</time>
      </trkpt>
      <trkpt lat="44.24726" lon="0.84399">
        <ele>176</ele>
        <time>2025-08-17T06:55:01.569Z</time>
      </trkpt>
      <trkpt lat="44.24725" lon="0.84398">
        <ele>176</ele>
        <time>2025-08-17T06:55:02.569Z</time>
      </trkpt>
      <trkpt lat="44.24724" lon="0.84398">
        <ele>176</ele>
        <time>2025-08-17T06:55:03.569Z</time>
      </trkpt>
      <trkpt lat="44.24723" lon="0.84398">
        <ele>177</ele>
        <time>2025-08-17T06:55:04.569Z</time>
      </trkpt>
      <trkpt lat="44.24722" lon="0.84398">
        <ele>177</ele>
        <time>2025-08-17T06:55:05.569Z</time>
      </trkpt>
      <trkpt lat="44.24721" lon="0.84397">
        <ele>177</ele>
        <time>2025-08-17T06:55:06.569Z</time>
      </trkpt>
      <trkpt lat="44.2472" lon="0.84397">
        <ele>176</ele>
        <time>2025-08-17T06:55:07.569Z</time>
      </trkpt>
      <trkpt lat="44.24719" lon="0.84397">
        <ele>177</ele>
        <time>2025-08-17T06:55:08.569Z</time>
      </trkpt>
      <trkpt lat="44.24718" lon="0.84396">
        <ele>177</ele>
        <time>2025-08-17T06:55:09.569Z</time>
      </trkpt>
      <trkpt lat="44.24717" lon="0.84396">
        <ele>177</ele>
        <time>2025-08-17T06:55:10.569Z</time>
      </trkpt>
      <trkpt lat="44.24717" lon="0.84396">
        <ele>177</ele>
        <time>2025-08-17T06:55:11.569Z</time>
      </trkpt>
      <trkpt lat="44.24716" lon="0.84395">
        <ele>177</ele>
        <time>2025-08-17T06:55:12.569Z</time>
      </trkpt>
      <trkpt lat="44.24715" lon="0.84395">
        <ele>177</ele>
        <time>2025-08-17T06:55:13.569Z</time>
      </trkpt>
      <trkpt lat="44.24714" lon="0.84395">
        <ele>177</ele>
        <time>2025-08-17T06:55:14.569Z</time>
      </trkpt>
      <trkpt lat="44.24713" lon="0.84395">
        <ele>178</ele>
        <time>2025-08-17T06:55:15.569Z</time>
      </trkpt>
      <trkpt lat="44.24712" lon="0.84395">
        <ele>178</ele>
        <time>2025-08-17T06:55:16.569Z</time>
      </trkpt>
      <trkpt lat="44.24711" lon="0.84395">
        <ele>178</ele>
        <time>2025-08-17T06:55:17.569Z</time>
      </trkpt>
      <trkpt lat="44.2471" lon="0.84395">
        <ele>177</ele>
        <time>2025-08-17T06:55:18.569Z</time>
      </trkpt>
      <trkpt lat="44.24709" lon="0.84395">
        <ele>178</ele>
        <time>2025-08-17T06:55:19.569Z</time>
      </trkpt>
      <trkpt lat="44.24708" lon="0.84395">
        <ele>178</ele>
        <time>2025-08-17T06:55:20.569Z</time>
      </trkpt>
      <trkpt lat="44.24708" lon="0.84394">
        <ele>177</ele>
        <time>2025-08-17T06:55:21.569Z</time>
      </trkpt>
      <trkpt lat="44.24708" lon="0.84394">
        <ele>177</ele>
        <time>2025-08-17T06:55:22.569Z</time>
      </trkpt>
      <trkpt lat="44.24708" lon="0.84394">
        <ele>177</ele>
        <time>2025-08-17T06:55:23.569Z</time>
      </trkpt>
      <trkpt lat="44.24708" lon="0.84394">
        <ele>177</ele>
        <time>2025-08-17T06:55:24.569Z</time>
      </trkpt>
      <trkpt lat="44.24708" lon="0.84394">
        <ele>176</ele>
        <time>2025-08-17T06:55:25.569Z</time>
      </trkpt>
      <trkpt lat="44.24708" lon="0.84394">
        <ele>176</ele>
        <time>2025-08-17T06:55:26.569Z</time>
      </trkpt>
      <trkpt lat="44.24707" lon="0.84394">
        <ele>176</ele>
        <time>2025-08-17T06:55:27.569Z</time>
      </trkpt>
      <trkpt lat="44.24707" lon="0.84394">
        <ele>176</ele>
        <time>2025-08-17T06:55:28.569Z</time>
      </trkpt>
      <trkpt lat="44.24707" lon="0.84394">
        <ele>176</ele>
        <time>2025-08-17T06:55:29.569Z</time>
      </trkpt>
      <trkpt lat="44.24707" lon="0.84394">
        <ele>176</ele>
        <time>2025-08-17T06:55:30.569Z</time>
      </trkpt>
      <trkpt lat="44.24707" lon="0.84394">
        <ele>176</ele>
        <time>2025-08-17T06:55:31.569Z</time>
      </trkpt>
      <trkpt lat="44.24707" lon="0.84394">
        <ele>176</ele>
        <time>2025-08-17T06:55:32.569Z</time>
      </trkpt>
      <trkpt lat="44.24707" lon="0.84395">
        <ele>176</ele>
        <time>2025-08-17T06:55:33.569Z</time>
      </trkpt>
      <trkpt lat="44.24707" lon="0.84395">
        <ele>176</ele>
        <time>2025-08-17T06:55:34.569Z</time>
      </trkpt>
      <trkpt lat="44.24707" lon="0.84395">
        <ele>175</ele>
        <time>2025-08-17T06:55:35.569Z</time>
      </trkpt>
      <trkpt lat="44.24707" lon="0.84395">
        <ele>175</ele>
        <time>2025-08-17T06:55:36.569Z</time>
      </trkpt>
      <trkpt lat="44.24707" lon="0.84395">
        <ele>175</ele>
        <time>2025-08-17T06:55:37.569Z</time>
      </trkpt>
      <trkpt lat="44.24707" lon="0.84395">
        <ele>176</ele>
        <time>2025-08-17T06:55:38.569Z</time>
      </trkpt>
      <trkpt lat="44.24707" lon="0.84395">
        <ele>176</ele>
        <time>2025-08-17T06:55:39.569Z</time>
      </trkpt>
      <trkpt lat="44.24707" lon="0.84395">
        <ele>177</ele>
        <time>2025-08-17T06:55:40.569Z</time>
      </trkpt>
      <trkpt lat="44.24707" lon="0.84395">
        <ele>177</ele>
        <time>2025-08-17T06:55:41.569Z</time>
      </trkpt>
      <trkpt lat="44.24707" lon="0.84395">
        <ele>177</ele>
        <time>2025-08-17T06:55:42.569Z</time>
      </trkpt>
      <trkpt lat="44.24706" lon="0.84395">
        <ele>177</ele>
        <time>2025-08-17T06:55:43.569Z</time>
      </trkpt>
      <trkpt lat="44.24705" lon="0.84395">
        <ele>177</ele>
        <time>2025-08-17T06:55:44.569Z</time>
      </trkpt>
      <trkpt lat="44.24704" lon="0.84395">
        <ele>177</ele>
        <time>2025-08-17T06:55:45.569Z</time>
      </trkpt>
      <trkpt lat="44.24703" lon="0.84395">
        <ele>176</ele>
        <time>2025-08-17T06:55:46.569Z</time>
      </trkpt>
      <trkpt lat="44.24702" lon="0.84395">
        <ele>176</ele>
        <time>2025-08-17T06:55:47.569Z</time>
      </trkpt>
      <trkpt lat="44.24701" lon="0.84395">
        <ele>176</ele>
        <time>2025-08-17T06:55:48.569Z</time>
      </trkpt>
      <trkpt lat="44.24699" lon="0.84394">
        <ele>176</ele>
        <time>2025-08-17T06:55:49.569Z</time>
      </trkpt>
      <trkpt lat="44.24698" lon="0.84395">
        <ele>176</ele>
        <time>2025-08-17T06:55:50.569Z</time>
      </trkpt>
      <trkpt lat="44.24696" lon="0.84394">
        <ele>176</ele>
        <time>2025-08-17T06:55:51.569Z</time>
      </trkpt>
      <trkpt lat="44.24695" lon="0.84394">
        <ele>176</ele>
        <time>2025-08-17T06:55:52.569Z</time>
      </trkpt>
      <trkpt lat="44.24693" lon="0.84394">
        <ele>176</ele>
        <time>2025-08-17T06:55:53.569Z</time>
      </trkpt>
      <trkpt lat="44.24693" lon="0.84394">
        <ele>175</ele>
        <time>2025-08-17T06:55:54.569Z</time>
      </trkpt>
      <trkpt lat="44.24692" lon="0.84393">
        <ele>175</ele>
        <time>2025-08-17T06:55:55.569Z</time>
      </trkpt>
      <trkpt lat="44.24691" lon="0.84393">
        <ele>175</ele>
        <time>2025-08-17T06:55:56.569Z</time>
      </trkpt>
      <trkpt lat="44.24689" lon="0.84393">
        <ele>175</ele>
        <time>2025-08-17T06:55:57.569Z</time>
      </trkpt>
      <trkpt lat="44.24688" lon="0.84393">
        <ele>175</ele>
        <time>2025-08-17T06:55:58.569Z</time>
      </trkpt>
      <trkpt lat="44.24686" lon="0.84393">
        <ele>175</ele>
        <time>2025-08-17T06:55:59.569Z</time>
      </trkpt>
      <trkpt lat="44.24685" lon="0.84393">
        <ele>175</ele>
        <time>2025-08-17T06:56:00.569Z</time>
      </trkpt>
      <trkpt lat="44.24684" lon="0.84393">
        <ele>176</ele>
        <time>2025-08-17T06:56:01.569Z</time>
      </trkpt>
      <trkpt lat="44.24682" lon="0.84392">
        <ele>175</ele>
        <time>2025-08-17T06:56:02.569Z</time>
      </trkpt>
      <trkpt lat="44.24681" lon="0.84392">
        <ele>176</ele>
        <time>2025-08-17T06:56:03.569Z</time>
      </trkpt>
      <trkpt lat="44.2468" lon="0.84392">
        <ele>176</ele>
        <time>2025-08-17T06:56:04.569Z</time>
      </trkpt>
      <trkpt lat="44.24679" lon="0.84391">
        <ele>176</ele>
        <time>2025-08-17T06:56:05.569Z</time>
      </trkpt>
      <trkpt lat="44.24678" lon="0.84391">
        <ele>176</ele>
        <time>2025-08-17T06:56:06.569Z</time>
      </trkpt>
      <trkpt lat="44.24677" lon="0.84391">
        <ele>175</ele>
        <time>2025-08-17T06:56:07.569Z</time>
      </trkpt>
      <trkpt lat="44.24675" lon="0.8439">
        <ele>175</ele>
        <time>2025-08-17T06:56:08.569Z</time>
      </trkpt>
      <trkpt lat="44.24674" lon="0.8439">
        <ele>175</ele>
        <time>2025-08-17T06:56:09.569Z</time>
      </trkpt>
      <trkpt lat="44.24673" lon="0.84389">
        <ele>175</ele>
        <time>2025-08-17T06:56:10.569Z</time>
      </trkpt>
      <trkpt lat="44.24672" lon="0.84389">
        <ele>174</ele>
        <time>2025-08-17T06:56:11.569Z</time>
      </trkpt>
      <trkpt lat="44.24671" lon="0.84389">
        <ele>174</ele>
        <time>2025-08-17T06:56:12.569Z</time>
      </trkpt>
      <trkpt lat="44.2467" lon="0.84389">
        <ele>175</ele>
        <time>2025-08-17T06:56:13.569Z</time>
      </trkpt>
      <trkpt lat="44.24669" lon="0.84389">
        <ele>175</ele>
        <time>2025-08-17T06:56:14.569Z</time>
      </trkpt>
      <trkpt lat="44.24668" lon="0.84388">
        <ele>175</ele>
        <time>2025-08-17T06:56:15.569Z</time>
      </trkpt>
      <trkpt lat="44.24667" lon="0.84388">
        <ele>176</ele>
        <time>2025-08-17T06:56:16.569Z</time>
      </trkpt>
      <trkpt lat="44.24666" lon="0.84388">
        <ele>176</ele>
        <time>2025-08-17T06:56:17.569Z</time>
      </trkpt>
      <trkpt lat="44.24665" lon="0.84387">
        <ele>175</ele>
        <time>2025-08-17T06:56:18.569Z</time>
      </trkpt>
      <trkpt lat="44.24664" lon="0.84387">
        <ele>175</ele>
        <time>2025-08-17T06:56:19.569Z</time>
      </trkpt>
      <trkpt lat="44.24663" lon="0.84387">
        <ele>174</ele>
        <time>2025-08-17T06:56:20.569Z</time>
      </trkpt>
      <trkpt lat="44.24662" lon="0.84387">
        <ele>174</ele>
        <time>2025-08-17T06:56:21.569Z</time>
      </trkpt>
      <trkpt lat="44.24661" lon="0.84387">
        <ele>174</ele>
        <time>2025-08-17T06:56:22.569Z</time>
      </trkpt>
      <trkpt lat="44.2466" lon="0.84386">
        <ele>175</ele>
        <time>2025-08-17T06:56:23.569Z</time>
      </trkpt>
      <trkpt lat="44.24659" lon="0.84386">
        <ele>175</ele>
        <time>2025-08-17T06:56:24.569Z</time>
      </trkpt>
      <trkpt lat="44.24658" lon="0.84385">
        <ele>176</ele>
        <time>2025-08-17T06:56:25.569Z</time>
      </trkpt>
      <trkpt lat="44.24657" lon="0.84385">
        <ele>176</ele>
        <time>2025-08-17T06:56:26.569Z</time>
      </trkpt>
      <trkpt lat="44.24656" lon="0.84384">
        <ele>177</ele>
        <time>2025-08-17T06:56:27.569Z</time>
      </trkpt>
      <trkpt lat="44.24655" lon="0.84384">
        <ele>177</ele>
        <time>2025-08-17T06:56:28.569Z</time>
      </trkpt>
      <trkpt lat="44.24654" lon="0.84384">
        <ele>177</ele>
        <time>2025-08-17T06:56:29.569Z</time>
      </trkpt>
      <trkpt lat="44.24653" lon="0.84383">
        <ele>178</ele>
        <time>2025-08-17T06:56:30.569Z</time>
      </trkpt>
      <trkpt lat="44.24652" lon="0.84383">
        <ele>178</ele>
        <time>2025-08-17T06:56:31.569Z</time>
      </trkpt>
      <trkpt lat="44.24651" lon="0.84383">
        <ele>178</ele>
        <time>2025-08-17T06:56:32.569Z</time>
      </trkpt>
      <trkpt lat="44.2465" lon="0.84382">
        <ele>178</ele>
        <time>2025-08-17T06:56:33.569Z</time>
      </trkpt>
      <trkpt lat="44.24649" lon="0.84382">
        <ele>178</ele>
        <time>2025-08-17T06:56:34.569Z</time>
      </trkpt>
      <trkpt lat="44.24648" lon="0.84382">
        <ele>178</ele>
        <time>2025-08-17T06:56:35.569Z</time>
      </trkpt>
      <trkpt lat="44.24647" lon="0.84381">
        <ele>178</ele>
        <time>2025-08-17T06:56:36.569Z</time>
      </trkpt>
      <trkpt lat="44.24646" lon="0.84381">
        <ele>179</ele>
        <time>2025-08-17T06:56:37.569Z</time>
      </trkpt>
      <trkpt lat="44.24645" lon="0.84381">
        <ele>179</ele>
        <time>2025-08-17T06:56:38.569Z</time>
      </trkpt>
      <trkpt lat="44.24644" lon="0.84382">
        <ele>179</ele>
        <time>2025-08-17T06:56:39.569Z</time>
      </trkpt>
      <trkpt lat="44.24643" lon="0.84382">
        <ele>180</ele>
        <time>2025-08-17T06:56:40.569Z</time>
      </trkpt>
      <trkpt lat="44.24642" lon="0.84382">
        <ele>180</ele>
        <time>2025-08-17T06:56:41.569Z</time>
      </trkpt>
      <trkpt lat="44.24641" lon="0.84382">
        <ele>180</ele>
        <time>2025-08-17T06:56:42.569Z</time>
      </trkpt>
      <trkpt lat="44.2464" lon="0.84382">
        <ele>180</ele>
        <time>2025-08-17T06:56:43.569Z</time>
      </trkpt>
      <trkpt lat="44.24638" lon="0.84382">
        <ele>180</ele>
        <time>2025-08-17T06:56:44.569Z</time>
      </trkpt>
      <trkpt lat="44.24637" lon="0.84382">
        <ele>180</ele>
        <time>2025-08-17T06:56:45.569Z</time>
      </trkpt>
      <trkpt lat="44.24637" lon="0.84382">
        <ele>180</ele>
        <time>2025-08-17T06:56:46.569Z</time>
      </trkpt>
      <trkpt lat="44.24636" lon="0.84382">
        <ele>180</ele>
        <time>2025-08-17T06:56:47.569Z</time>
      </trkpt>
      <trkpt lat="44.24635" lon="0.84382">
        <ele>180</ele>
        <time>2025-08-17T06:56:48.569Z</time>
      </trkpt>
      <trkpt lat="44.24633" lon="0.84382">
        <ele>180</ele>
        <time>2025-08-17T06:56:49.569Z</time>
      </trkpt>
      <trkpt lat="44.24632" lon="0.84382">
        <ele>180</ele>
        <time>2025-08-17T06:56:50.569Z</time>
      </trkpt>
      <trkpt lat="44.24632" lon="0.84381">
        <ele>180</ele>
        <time>2025-08-17T06:56:51.569Z</time>
      </trkpt>
      <trkpt lat="44.24631" lon="0.84381">
        <ele>180</ele>
        <time>2025-08-17T06:56:52.569Z</time>
      </trkpt>
      <trkpt lat="44.2463" lon="0.84381">
        <ele>180</ele>
        <time>2025-08-17T06:56:53.569Z</time>
      </trkpt>
      <trkpt lat="44.24629" lon="0.84381">
        <ele>180</ele>
        <time>2025-08-17T06:56:54.569Z</time>
      </trkpt>
      <trkpt lat="44.24628" lon="0.84381">
        <ele>180</ele>
        <time>2025-08-17T06:56:55.569Z</time>
      </trkpt>
      <trkpt lat="44.24627" lon="0.8438">
        <ele>180</ele>
        <time>2025-08-17T06:56:56.569Z</time>
      </trkpt>
      <trkpt lat="44.24626" lon="0.8438">
        <ele>180</ele>
        <time>2025-08-17T06:56:57.569Z</time>
      </trkpt>
      <trkpt lat="44.24625" lon="0.8438">
        <ele>181</ele>
        <time>2025-08-17T06:56:58.569Z</time>
      </trkpt>
      <trkpt lat="44.24624" lon="0.8438">
        <ele>181</ele>
        <time>2025-08-17T06:56:59.569Z</time>
      </trkpt>
      <trkpt lat="44.24623" lon="0.84379">
        <ele>180</ele>
        <time>2025-08-17T06:57:00.569Z</time>
      </trkpt>
      <trkpt lat="44.24622" lon="0.84379">
        <ele>180</ele>
        <time>2025-08-17T06:57:01.569Z</time>
      </trkpt>
      <trkpt lat="44.24621" lon="0.84379">
        <ele>180</ele>
        <time>2025-08-17T06:57:02.569Z</time>
      </trkpt>
      <trkpt lat="44.2462" lon="0.84379">
        <ele>180</ele>
        <time>2025-08-17T06:57:03.569Z</time>
      </trkpt>
      <trkpt lat="44.24619" lon="0.84378">
        <ele>180</ele>
        <time>2025-08-17T06:57:04.569Z</time>
      </trkpt>
      <trkpt lat="44.24618" lon="0.84378">
        <ele>180</ele>
        <time>2025-08-17T06:57:05.569Z</time>
      </trkpt>
      <trkpt lat="44.24617" lon="0.84378">
        <ele>180</ele>
        <time>2025-08-17T06:57:06.569Z</time>
      </trkpt>
      <trkpt lat="44.24616" lon="0.84377">
        <ele>180</ele>
        <time>2025-08-17T06:57:07.569Z</time>
      </trkpt>
      <trkpt lat="44.24615" lon="0.84377">
        <ele>180</ele>
        <time>2025-08-17T06:57:08.569Z</time>
      </trkpt>
      <trkpt lat="44.24614" lon="0.84377">
        <ele>180</ele>
        <time>2025-08-17T06:57:09.569Z</time>
      </trkpt>
      <trkpt lat="44.24613" lon="0.84377">
        <ele>181</ele>
        <time>2025-08-17T06:57:10.569Z</time>
      </trkpt>
      <trkpt lat="44.24612" lon="0.84377">
        <ele>181</ele>
        <time>2025-08-17T06:57:11.569Z</time>
      </trkpt>
      <trkpt lat="44.24611" lon="0.84376">
        <ele>181</ele>
        <time>2025-08-17T06:57:12.569Z</time>
      </trkpt>
      <trkpt lat="44.2461" lon="0.84376">
        <ele>182</ele>
        <time>2025-08-17T06:57:13.569Z</time>
      </trkpt>
      <trkpt lat="44.24609" lon="0.84376">
        <ele>182</ele>
        <time>2025-08-17T06:57:14.569Z</time>
      </trkpt>
      <trkpt lat="44.24608" lon="0.84375">
        <ele>182</ele>
        <time>2025-08-17T06:57:15.569Z</time>
      </trkpt>
      <trkpt lat="44.24607" lon="0.84375">
        <ele>182</ele>
        <time>2025-08-17T06:57:16.569Z</time>
      </trkpt>
      <trkpt lat="44.24606" lon="0.84374">
        <ele>182</ele>
        <time>2025-08-17T06:57:17.569Z</time>
      </trkpt>
      <trkpt lat="44.24605" lon="0.84374">
        <ele>182</ele>
        <time>2025-08-17T06:57:18.569Z</time>
      </trkpt>
      <trkpt lat="44.24604" lon="0.84374">
        <ele>183</ele>
        <time>2025-08-17T06:57:19.569Z</time>
      </trkpt>
      <trkpt lat="44.24603" lon="0.84374">
        <ele>183</ele>
        <time>2025-08-17T06:57:20.569Z</time>
      </trkpt>
      <trkpt lat="44.24602" lon="0.84374">
        <ele>183</ele>
        <time>2025-08-17T06:57:21.569Z</time>
      </trkpt>
      <trkpt lat="44.24601" lon="0.84374">
        <ele>183</ele>
        <time>2025-08-17T06:57:22.569Z</time>
      </trkpt>
      <trkpt lat="44.246" lon="0.84373">
        <ele>184</ele>
        <time>2025-08-17T06:57:23.569Z</time>
      </trkpt>
      <trkpt lat="44.24599" lon="0.84373">
        <ele>183</ele>
        <time>2025-08-17T06:57:24.569Z</time>
      </trkpt>
      <trkpt lat="44.24598" lon="0.84372">
        <ele>183</ele>
        <time>2025-08-17T06:57:25.569Z</time>
      </trkpt>
      <trkpt lat="44.24597" lon="0.84372">
        <ele>183</ele>
        <time>2025-08-17T06:57:26.569Z</time>
      </trkpt>
      <trkpt lat="44.24596" lon="0.84372">
        <ele>183</ele>
        <time>2025-08-17T06:57:27.569Z</time>
      </trkpt>
      <trkpt lat="44.24595" lon="0.84371">
        <ele>183</ele>
        <time>2025-08-17T06:57:28.569Z</time>
      </trkpt>
      <trkpt lat="44.24594" lon="0.84371">
        <ele>183</ele>
        <time>2025-08-17T06:57:29.569Z</time>
      </trkpt>
      <trkpt lat="44.24593" lon="0.8437">
        <ele>184</ele>
        <time>2025-08-17T06:57:30.569Z</time>
      </trkpt>
      <trkpt lat="44.24592" lon="0.8437">
        <ele>184</ele>
        <time>2025-08-17T06:57:31.569Z</time>
      </trkpt>
      <trkpt lat="44.24591" lon="0.84369">
        <ele>184</ele>
        <time>2025-08-17T06:57:32.569Z</time>
      </trkpt>
      <trkpt lat="44.2459" lon="0.84369">
        <ele>184</ele>
        <time>2025-08-17T06:57:33.569Z</time>
      </trkpt>
      <trkpt lat="44.24589" lon="0.84369">
        <ele>184</ele>
        <time>2025-08-17T06:57:34.569Z</time>
      </trkpt>
      <trkpt lat="44.24588" lon="0.84368">
        <ele>184</ele>
        <time>2025-08-17T06:57:35.569Z</time>
      </trkpt>
      <trkpt lat="44.24587" lon="0.84368">
        <ele>184</ele>
        <time>2025-08-17T06:57:36.569Z</time>
      </trkpt>
      <trkpt lat="44.24586" lon="0.84368">
        <ele>184</ele>
        <time>2025-08-17T06:57:37.569Z</time>
      </trkpt>
      <trkpt lat="44.24585" lon="0.84367">
        <ele>185</ele>
        <time>2025-08-17T06:57:38.569Z</time>
      </trkpt>
      <trkpt lat="44.24584" lon="0.84367">
        <ele>185</ele>
        <time>2025-08-17T06:57:39.569Z</time>
      </trkpt>
      <trkpt lat="44.24583" lon="0.84368">
        <ele>185</ele>
        <time>2025-08-17T06:57:40.569Z</time>
      </trkpt>
      <trkpt lat="44.24582" lon="0.84367">
        <ele>185</ele>
        <time>2025-08-17T06:57:41.569Z</time>
      </trkpt>
      <trkpt lat="44.24581" lon="0.84367">
        <ele>186</ele>
        <time>2025-08-17T06:57:42.569Z</time>
      </trkpt>
      <trkpt lat="44.2458" lon="0.84367">
        <ele>186</ele>
        <time>2025-08-17T06:57:43.569Z</time>
      </trkpt>
      <trkpt lat="44.24579" lon="0.84366">
        <ele>186</ele>
        <time>2025-08-17T06:57:44.569Z</time>
      </trkpt>
      <trkpt lat="44.24579" lon="0.84365">
        <ele>186</ele>
        <time>2025-08-17T06:57:45.569Z</time>
      </trkpt>
      <trkpt lat="44.24578" lon="0.84365">
        <ele>186</ele>
        <time>2025-08-17T06:57:46.569Z</time>
      </trkpt>
      <trkpt lat="44.24577" lon="0.84364">
        <ele>186</ele>
        <time>2025-08-17T06:57:47.569Z</time>
      </trkpt>
      <trkpt lat="44.24576" lon="0.84364">
        <ele>186</ele>
        <time>2025-08-17T06:57:48.569Z</time>
      </trkpt>
      <trkpt lat="44.24575" lon="0.84363">
        <ele>186</ele>
        <time>2025-08-17T06:57:49.569Z</time>
      </trkpt>
      <trkpt lat="44.24574" lon="0.84363">
        <ele>186</ele>
        <time>2025-08-17T06:57:50.569Z</time>
      </trkpt>
      <trkpt lat="44.24574" lon="0.84362">
        <ele>187</ele>
        <time>2025-08-17T06:57:51.569Z</time>
      </trkpt>
      <trkpt lat="44.24573" lon="0.84362">
        <ele>187</ele>
        <time>2025-08-17T06:57:52.569Z</time>
      </trkpt>
      <trkpt lat="44.24572" lon="0.84362">
        <ele>187</ele>
        <time>2025-08-17T06:57:53.569Z</time>
      </trkpt>
      <trkpt lat="44.24571" lon="0.84361">
        <ele>187</ele>
        <time>2025-08-17T06:57:54.569Z</time>
      </trkpt>
      <trkpt lat="44.2457" lon="0.84361">
        <ele>188</ele>
        <time>2025-08-17T06:57:55.569Z</time>
      </trkpt>
      <trkpt lat="44.24569" lon="0.8436">
        <ele>188</ele>
        <time>2025-08-17T06:57:56.569Z</time>
      </trkpt>
      <trkpt lat="44.24568" lon="0.8436">
        <ele>188</ele>
        <time>2025-08-17T06:57:57.569Z</time>
      </trkpt>
      <trkpt lat="44.24567" lon="0.84359">
        <ele>188</ele>
        <time>2025-08-17T06:57:58.569Z</time>
      </trkpt>
      <trkpt lat="44.24567" lon="0.84359">
        <ele>188</ele>
        <time>2025-08-17T06:57:59.569Z</time>
      </trkpt>
      <trkpt lat="44.24566" lon="0.84358">
        <ele>188</ele>
        <time>2025-08-17T06:58:00.569Z</time>
      </trkpt>
      <trkpt lat="44.24565" lon="0.84358">
        <ele>188</ele>
        <time>2025-08-17T06:58:01.569Z</time>
      </trkpt>
      <trkpt lat="44.24564" lon="0.84358">
        <ele>189</ele>
        <time>2025-08-17T06:58:02.569Z</time>
      </trkpt>
      <trkpt lat="44.24563" lon="0.84358">
        <ele>189</ele>
        <time>2025-08-17T06:58:03.569Z</time>
      </trkpt>
      <trkpt lat="44.24562" lon="0.84357">
        <ele>190</ele>
        <time>2025-08-17T06:58:04.569Z</time>
      </trkpt>
      <trkpt lat="44.24561" lon="0.84357">
        <ele>190</ele>
        <time>2025-08-17T06:58:05.569Z</time>
      </trkpt>
      <trkpt lat="44.24561" lon="0.84356">
        <ele>191</ele>
        <time>2025-08-17T06:58:06.569Z</time>
      </trkpt>
      <trkpt lat="44.2456" lon="0.84356">
        <ele>191</ele>
        <time>2025-08-17T06:58:07.569Z</time>
      </trkpt>
      <trkpt lat="44.24559" lon="0.84356">
        <ele>192</ele>
        <time>2025-08-17T06:58:08.569Z</time>
      </trkpt>
      <trkpt lat="44.24558" lon="0.84355">
        <ele>192</ele>
        <time>2025-08-17T06:58:09.569Z</time>
      </trkpt>
      <trkpt lat="44.24557" lon="0.84354">
        <ele>192</ele>
        <time>2025-08-17T06:58:10.569Z</time>
      </trkpt>
      <trkpt lat="44.24556" lon="0.84354">
        <ele>192</ele>
        <time>2025-08-17T06:58:11.569Z</time>
      </trkpt>
      <trkpt lat="44.24556" lon="0.84353">
        <ele>193</ele>
        <time>2025-08-17T06:58:12.569Z</time>
      </trkpt>
      <trkpt lat="44.24555" lon="0.84353">
        <ele>193</ele>
        <time>2025-08-17T06:58:13.569Z</time>
      </trkpt>
      <trkpt lat="44.24554" lon="0.84352">
        <ele>193</ele>
        <time>2025-08-17T06:58:14.569Z</time>
      </trkpt>
      <trkpt lat="44.24553" lon="0.84352">
        <ele>193</ele>
        <time>2025-08-17T06:58:15.569Z</time>
      </trkpt>
      <trkpt lat="44.24553" lon="0.84352">
        <ele>193</ele>
        <time>2025-08-17T06:58:16.569Z</time>
      </trkpt>
      <trkpt lat="44.24552" lon="0.84351">
        <ele>193</ele>
        <time>2025-08-17T06:58:17.569Z</time>
      </trkpt>
      <trkpt lat="44.24551" lon="0.8435">
        <ele>193</ele>
        <time>2025-08-17T06:58:18.569Z</time>
      </trkpt>
      <trkpt lat="44.2455" lon="0.84349">
        <ele>193</ele>
        <time>2025-08-17T06:58:19.569Z</time>
      </trkpt>
      <trkpt lat="44.2455" lon="0.84349">
        <ele>192</ele>
        <time>2025-08-17T06:58:20.569Z</time>
      </trkpt>
      <trkpt lat="44.24549" lon="0.84349">
        <ele>192</ele>
        <time>2025-08-17T06:58:21.569Z</time>
      </trkpt>
      <trkpt lat="44.24548" lon="0.84348">
        <ele>192</ele>
        <time>2025-08-17T06:58:22.569Z</time>
      </trkpt>
      <trkpt lat="44.24548" lon="0.84348">
        <ele>193</ele>
        <time>2025-08-17T06:58:23.569Z</time>
      </trkpt>
      <trkpt lat="44.24547" lon="0.84348">
        <ele>193</ele>
        <time>2025-08-17T06:58:24.569Z</time>
      </trkpt>
      <trkpt lat="44.24546" lon="0.84347">
        <ele>193</ele>
        <time>2025-08-17T06:58:25.569Z</time>
      </trkpt>
      <trkpt lat="44.24545" lon="0.84347">
        <ele>194</ele>
        <time>2025-08-17T06:58:26.569Z</time>
      </trkpt>
      <trkpt lat="44.24545" lon="0.84346">
        <ele>194</ele>
        <time>2025-08-17T06:58:27.569Z</time>
      </trkpt>
      <trkpt lat="44.24544" lon="0.84346">
        <ele>194</ele>
        <time>2025-08-17T06:58:28.569Z</time>
      </trkpt>
      <trkpt lat="44.24543" lon="0.84346">
        <ele>195</ele>
        <time>2025-08-17T06:58:29.569Z</time>
      </trkpt>
      <trkpt lat="44.24543" lon="0.84345">
        <ele>195</ele>
        <time>2025-08-17T06:58:30.569Z</time>
      </trkpt>
      <trkpt lat="44.24542" lon="0.84345">
        <ele>196</ele>
        <time>2025-08-17T06:58:31.569Z</time>
      </trkpt>
      <trkpt lat="44.24541" lon="0.84344">
        <ele>196</ele>
        <time>2025-08-17T06:58:32.569Z</time>
      </trkpt>
      <trkpt lat="44.2454" lon="0.84344">
        <ele>196</ele>
        <time>2025-08-17T06:58:33.569Z</time>
      </trkpt>
      <trkpt lat="44.2454" lon="0.84343">
        <ele>196</ele>
        <time>2025-08-17T06:58:34.569Z</time>
      </trkpt>
      <trkpt lat="44.24539" lon="0.84343">
        <ele>196</ele>
        <time>2025-08-17T06:58:35.569Z</time>
      </trkpt>
      <trkpt lat="44.24538" lon="0.84342">
        <ele>197</ele>
        <time>2025-08-17T06:58:36.569Z</time>
      </trkpt>
      <trkpt lat="44.24537" lon="0.84342">
        <ele>197</ele>
        <time>2025-08-17T06:58:37.569Z</time>
      </trkpt>
      <trkpt lat="44.24537" lon="0.84342">
        <ele>197</ele>
        <time>2025-08-17T06:58:38.569Z</time>
      </trkpt>
      <trkpt lat="44.24536" lon="0.84341">
        <ele>197</ele>
        <time>2025-08-17T06:58:39.569Z</time>
      </trkpt>
      <trkpt lat="44.24535" lon="0.84341">
        <ele>197</ele>
        <time>2025-08-17T06:58:40.569Z</time>
      </trkpt>
      <trkpt lat="44.24534" lon="0.8434">
        <ele>197</ele>
        <time>2025-08-17T06:58:41.569Z</time>
      </trkpt>
      <trkpt lat="44.24534" lon="0.84339">
        <ele>197</ele>
        <time>2025-08-17T06:58:42.569Z</time>
      </trkpt>
      <trkpt lat="44.24533" lon="0.84338">
        <ele>197</ele>
        <time>2025-08-17T06:58:43.569Z</time>
      </trkpt>
      <trkpt lat="44.24532" lon="0.84338">
        <ele>197</ele>
        <time>2025-08-17T06:58:44.569Z</time>
      </trkpt>
      <trkpt lat="44.24532" lon="0.84337">
        <ele>197</ele>
        <time>2025-08-17T06:58:45.569Z</time>
      </trkpt>
      <trkpt lat="44.24531" lon="0.84337">
        <ele>196</ele>
        <time>2025-08-17T06:58:46.569Z</time>
      </trkpt>
      <trkpt lat="44.2453" lon="0.84336">
        <ele>196</ele>
        <time>2025-08-17T06:58:47.569Z</time>
      </trkpt>
      <trkpt lat="44.2453" lon="0.84335">
        <ele>196</ele>
        <time>2025-08-17T06:58:48.569Z</time>
      </trkpt>
      <trkpt lat="44.24529" lon="0.84335">
        <ele>196</ele>
        <time>2025-08-17T06:58:49.569Z</time>
      </trkpt>
      <trkpt lat="44.24528" lon="0.84334">
        <ele>196</ele>
        <time>2025-08-17T06:58:50.569Z</time>
      </trkpt>
      <trkpt lat="44.24527" lon="0.84333">
        <ele>196</ele>
        <time>2025-08-17T06:58:51.569Z</time>
      </trkpt>
      <trkpt lat="44.24527" lon="0.84333">
        <ele>196</ele>
        <time>2025-08-17T06:58:52.569Z</time>
      </trkpt>
      <trkpt lat="44.24526" lon="0.84333">
        <ele>196</ele>
        <time>2025-08-17T06:58:53.569Z</time>
      </trkpt>
      <trkpt lat="44.24525" lon="0.84332">
        <ele>196</ele>
        <time>2025-08-17T06:58:54.569Z</time>
      </trkpt>
      <trkpt lat="44.24525" lon="0.84332">
        <ele>196</ele>
        <time>2025-08-17T06:58:55.569Z</time>
      </trkpt>
      <trkpt lat="44.24524" lon="0.84331">
        <ele>196</ele>
        <time>2025-08-17T06:58:56.569Z</time>
      </trkpt>
      <trkpt lat="44.24523" lon="0.8433">
        <ele>196</ele>
        <time>2025-08-17T06:58:57.569Z</time>
      </trkpt>
      <trkpt lat="44.24523" lon="0.8433">
        <ele>196</ele>
        <time>2025-08-17T06:58:58.569Z</time>
      </trkpt>
      <trkpt lat="44.24522" lon="0.84329">
        <ele>196</ele>
        <time>2025-08-17T06:58:59.569Z</time>
      </trkpt>
      <trkpt lat="44.24521" lon="0.84329">
        <ele>196</ele>
        <time>2025-08-17T06:59:00.569Z</time>
      </trkpt>
      <trkpt lat="44.24521" lon="0.84328">
        <ele>196</ele>
        <time>2025-08-17T06:59:01.569Z</time>
      </trkpt>
      <trkpt lat="44.2452" lon="0.84328">
        <ele>197</ele>
        <time>2025-08-17T06:59:02.569Z</time>
      </trkpt>
      <trkpt lat="44.24519" lon="0.84328">
        <ele>197</ele>
        <time>2025-08-17T06:59:03.569Z</time>
      </trkpt>
      <trkpt lat="44.24518" lon="0.84327">
        <ele>197</ele>
        <time>2025-08-17T06:59:04.569Z</time>
      </trkpt>
      <trkpt lat="44.24517" lon="0.84327">
        <ele>197</ele>
        <time>2025-08-17T06:59:05.569Z</time>
      </trkpt>
      <trkpt lat="44.24517" lon="0.84327">
        <ele>197</ele>
        <time>2025-08-17T06:59:06.569Z</time>
      </trkpt>
      <trkpt lat="44.24516" lon="0.84327">
        <ele>198</ele>
        <time>2025-08-17T06:59:07.569Z</time>
      </trkpt>
      <trkpt lat="44.24515" lon="0.84326">
        <ele>198</ele>
        <time>2025-08-17T06:59:08.569Z</time>
      </trkpt>
      <trkpt lat="44.24514" lon="0.84326">
        <ele>199</ele>
        <time>2025-08-17T06:59:09.569Z</time>
      </trkpt>
      <trkpt lat="44.24514" lon="0.84325">
        <ele>199</ele>
        <time>2025-08-17T06:59:10.569Z</time>
      </trkpt>
      <trkpt lat="44.24513" lon="0.84325">
        <ele>200</ele>
        <time>2025-08-17T06:59:11.569Z</time>
      </trkpt>
      <trkpt lat="44.24512" lon="0.84324">
        <ele>200</ele>
        <time>2025-08-17T06:59:12.569Z</time>
      </trkpt>
      <trkpt lat="44.24511" lon="0.84323">
        <ele>200</ele>
        <time>2025-08-17T06:59:13.569Z</time>
      </trkpt>
      <trkpt lat="44.24511" lon="0.84323">
        <ele>200</ele>
        <time>2025-08-17T06:59:14.569Z</time>
      </trkpt>
      <trkpt lat="44.2451" lon="0.84322">
        <ele>200</ele>
        <time>2025-08-17T06:59:15.569Z</time>
      </trkpt>
      <trkpt lat="44.24509" lon="0.84322">
        <ele>200</ele>
        <time>2025-08-17T06:59:16.569Z</time>
      </trkpt>
      <trkpt lat="44.24509" lon="0.84321">
        <ele>200</ele>
        <time>2025-08-17T06:59:17.569Z</time>
      </trkpt>
      <trkpt lat="44.24508" lon="0.84321">
        <ele>200</ele>
        <time>2025-08-17T06:59:18.569Z</time>
      </trkpt>
      <trkpt lat="44.24507" lon="0.84321">
        <ele>200</ele>
        <time>2025-08-17T06:59:19.569Z</time>
      </trkpt>
      <trkpt lat="44.24506" lon="0.84321">
        <ele>200</ele>
        <time>2025-08-17T06:59:20.569Z</time>
      </trkpt>
      <trkpt lat="44.24505" lon="0.8432">
        <ele>200</ele>
        <time>2025-08-17T06:59:21.569Z</time>
      </trkpt>
      <trkpt lat="44.24504" lon="0.84319">
        <ele>200</ele>
        <time>2025-08-17T06:59:22.569Z</time>
      </trkpt>
      <trkpt lat="44.24503" lon="0.84319">
        <ele>201</ele>
        <time>2025-08-17T06:59:23.569Z</time>
      </trkpt>
      <trkpt lat="44.24503" lon="0.84318">
        <ele>201</ele>
        <time>2025-08-17T06:59:24.569Z</time>
      </trkpt>
      <trkpt lat="44.24502" lon="0.84318">
        <ele>201</ele>
        <time>2025-08-17T06:59:25.569Z</time>
      </trkpt>
      <trkpt lat="44.24501" lon="0.84317">
        <ele>201</ele>
        <time>2025-08-17T06:59:26.569Z</time>
      </trkpt>
      <trkpt lat="44.245" lon="0.84316">
        <ele>201</ele>
        <time>2025-08-17T06:59:27.569Z</time>
      </trkpt>
      <trkpt lat="44.245" lon="0.84316">
        <ele>201</ele>
        <time>2025-08-17T06:59:28.569Z</time>
      </trkpt>
      <trkpt lat="44.24499" lon="0.84315">
        <ele>201</ele>
        <time>2025-08-17T06:59:29.569Z</time>
      </trkpt>
      <trkpt lat="44.24498" lon="0.84315">
        <ele>201</ele>
        <time>2025-08-17T06:59:30.569Z</time>
      </trkpt>
      <trkpt lat="44.24497" lon="0.84315">
        <ele>202</ele>
        <time>2025-08-17T06:59:31.569Z</time>
      </trkpt>
      <trkpt lat="44.24496" lon="0.84314">
        <ele>202</ele>
        <time>2025-08-17T06:59:32.569Z</time>
      </trkpt>
      <trkpt lat="44.24495" lon="0.84314">
        <ele>202</ele>
        <time>2025-08-17T06:59:33.569Z</time>
      </trkpt>
      <trkpt lat="44.24495" lon="0.84314">
        <ele>202</ele>
        <time>2025-08-17T06:59:34.569Z</time>
      </trkpt>
      <trkpt lat="44.24494" lon="0.84313">
        <ele>202</ele>
        <time>2025-08-17T06:59:35.569Z</time>
      </trkpt>
      <trkpt lat="44.24493" lon="0.84313">
        <ele>202</ele>
        <time>2025-08-17T06:59:36.569Z</time>
      </trkpt>
      <trkpt lat="44.24493" lon="0.84312">
        <ele>202</ele>
        <time>2025-08-17T06:59:37.569Z</time>
      </trkpt>
      <trkpt lat="44.24492" lon="0.84312">
        <ele>203</ele>
        <time>2025-08-17T06:59:38.569Z</time>
      </trkpt>
      <trkpt lat="44.24491" lon="0.84311">
        <ele>203</ele>
        <time>2025-08-17T06:59:39.569Z</time>
      </trkpt>
      <trkpt lat="44.24491" lon="0.84311">
        <ele>203</ele>
        <time>2025-08-17T06:59:40.569Z</time>
      </trkpt>
      <trkpt lat="44.2449" lon="0.84311">
        <ele>203</ele>
        <time>2025-08-17T06:59:41.569Z</time>
      </trkpt>
      <trkpt lat="44.24489" lon="0.8431">
        <ele>203</ele>
        <time>2025-08-17T06:59:42.569Z</time>
      </trkpt>
      <trkpt lat="44.24489" lon="0.8431">
        <ele>204</ele>
        <time>2025-08-17T06:59:43.569Z</time>
      </trkpt>
      <trkpt lat="44.24488" lon="0.8431">
        <ele>204</ele>
        <time>2025-08-17T06:59:44.569Z</time>
      </trkpt>
      <trkpt lat="44.24488" lon="0.84309">
        <ele>204</ele>
        <time>2025-08-17T06:59:45.569Z</time>
      </trkpt>
      <trkpt lat="44.24487" lon="0.84309">
        <ele>204</ele>
        <time>2025-08-17T06:59:46.569Z</time>
      </trkpt>
      <trkpt lat="44.24486" lon="0.84309">
        <ele>204</ele>
        <time>2025-08-17T06:59:47.569Z</time>
      </trkpt>
      <trkpt lat="44.24486" lon="0.84308">
        <ele>204</ele>
        <time>2025-08-17T06:59:48.569Z</time>
      </trkpt>
      <trkpt lat="44.24485" lon="0.84308">
        <ele>204</ele>
        <time>2025-08-17T06:59:49.569Z</time>
      </trkpt>
      <trkpt lat="44.24485" lon="0.84307">
        <ele>204</ele>
        <time>2025-08-17T06:59:50.569Z</time>
      </trkpt>
      <trkpt lat="44.24484" lon="0.84307">
        <ele>203</ele>
        <time>2025-08-17T06:59:51.569Z</time>
      </trkpt>
      <trkpt lat="44.24483" lon="0.84307">
        <ele>203</ele>
        <time>2025-08-17T06:59:52.569Z</time>
      </trkpt>
      <trkpt lat="44.24483" lon="0.84306">
        <ele>202</ele>
        <time>2025-08-17T06:59:53.569Z</time>
      </trkpt>
      <trkpt lat="44.24482" lon="0.84306">
        <ele>202</ele>
        <time>2025-08-17T06:59:54.569Z</time>
      </trkpt>
      <trkpt lat="44.24481" lon="0.84306">
        <ele>201</ele>
        <time>2025-08-17T06:59:55.569Z</time>
      </trkpt>
      <trkpt lat="44.24481" lon="0.84306">
        <ele>201</ele>
        <time>2025-08-17T06:59:56.569Z</time>
      </trkpt>
      <trkpt lat="44.2448" lon="0.84305">
        <ele>201</ele>
        <time>2025-08-17T06:59:57.569Z</time>
      </trkpt>
      <trkpt lat="44.24479" lon="0.84305">
        <ele>200</ele>
        <time>2025-08-17T06:59:58.569Z</time>
      </trkpt>
      <trkpt lat="44.24478" lon="0.84305">
        <ele>200</ele>
        <time>2025-08-17T06:59:59.569Z</time>
      </trkpt>
      <trkpt lat="44.24478" lon="0.84305">
        <ele>200</ele>
        <time>2025-08-17T07:00:00.569Z</time>
      </trkpt>
      <trkpt lat="44.24477" lon="0.84305">
        <ele>199</ele>
        <time>2025-08-17T07:00:01.569Z</time>
      </trkpt>
      <trkpt lat="44.24476" lon="0.84304">
        <ele>199</ele>
        <time>2025-08-17T07:00:02.569Z</time>
      </trkpt>
      <trkpt lat="44.24475" lon="0.84303">
        <ele>199</ele>
        <time>2025-08-17T07:00:03.569Z</time>
      </trkpt>
      <trkpt lat="44.24474" lon="0.84303">
        <ele>199</ele>
        <time>2025-08-17T07:00:04.569Z</time>
      </trkpt>
      <trkpt lat="44.24474" lon="0.84302">
        <ele>199</ele>
        <time>2025-08-17T07:00:05.569Z</time>
      </trkpt>
      <trkpt lat="44.24473" lon="0.84302">
        <ele>199</ele>
        <time>2025-08-17T07:00:06.569Z</time>
      </trkpt>
      <trkpt lat="44.24472" lon="0.84301">
        <ele>199</ele>
        <time>2025-08-17T07:00:07.569Z</time>
      </trkpt>
      <trkpt lat="44.24471" lon="0.84301">
        <ele>200</ele>
        <time>2025-08-17T07:00:08.569Z</time>
      </trkpt>
      <trkpt lat="44.2447" lon="0.84301">
        <ele>200</ele>
        <time>2025-08-17T07:00:09.569Z</time>
      </trkpt>
      <trkpt lat="44.24469" lon="0.84301">
        <ele>200</ele>
        <time>2025-08-17T07:00:10.569Z</time>
      </trkpt>
      <trkpt lat="44.24468" lon="0.84301">
        <ele>201</ele>
        <time>2025-08-17T07:00:11.569Z</time>
      </trkpt>
      <trkpt lat="44.24467" lon="0.84301">
        <ele>201</ele>
        <time>2025-08-17T07:00:12.569Z</time>
      </trkpt>
      <trkpt lat="44.24466" lon="0.843">
        <ele>201</ele>
        <time>2025-08-17T07:00:13.569Z</time>
      </trkpt>
      <trkpt lat="44.24466" lon="0.843">
        <ele>202</ele>
        <time>2025-08-17T07:00:14.569Z</time>
      </trkpt>
      <trkpt lat="44.24465" lon="0.843">
        <ele>202</ele>
        <time>2025-08-17T07:00:15.569Z</time>
      </trkpt>
      <trkpt lat="44.24465" lon="0.843">
        <ele>202</ele>
        <time>2025-08-17T07:00:16.569Z</time>
      </trkpt>
      <trkpt lat="44.24465" lon="0.843">
        <ele>202</ele>
        <time>2025-08-17T07:00:17.569Z</time>
      </trkpt>
      <trkpt lat="44.24465" lon="0.843">
        <ele>202</ele>
        <time>2025-08-17T07:00:18.569Z</time>
      </trkpt>
      <trkpt lat="44.24465" lon="0.843">
        <ele>202</ele>
        <time>2025-08-17T07:00:19.569Z</time>
      </trkpt>
      <trkpt lat="44.24465" lon="0.843">
        <ele>203</ele>
        <time>2025-08-17T07:00:20.569Z</time>
      </trkpt>
      <trkpt lat="44.24464" lon="0.84301">
        <ele>203</ele>
        <time>2025-08-17T07:00:21.569Z</time>
      </trkpt>
      <trkpt lat="44.24464" lon="0.84301">
        <ele>203</ele>
        <time>2025-08-17T07:00:22.569Z</time>
      </trkpt>
      <trkpt lat="44.24463" lon="0.84301">
        <ele>204</ele>
        <time>2025-08-17T07:00:23.569Z</time>
      </trkpt>
      <trkpt lat="44.24462" lon="0.84301">
        <ele>204</ele>
        <time>2025-08-17T07:00:24.569Z</time>
      </trkpt>
      <trkpt lat="44.24462" lon="0.84301">
        <ele>204</ele>
        <time>2025-08-17T07:00:25.569Z</time>
      </trkpt>
      <trkpt lat="44.24461" lon="0.84301">
        <ele>204</ele>
        <time>2025-08-17T07:00:26.569Z</time>
      </trkpt>
      <trkpt lat="44.24461" lon="0.84301">
        <ele>204</ele>
        <time>2025-08-17T07:00:27.569Z</time>
      </trkpt>
      <trkpt lat="44.24461" lon="0.84301">
        <ele>204</ele>
        <time>2025-08-17T07:00:28.569Z</time>
      </trkpt>
      <trkpt lat="44.2446" lon="0.84301">
        <ele>203</ele>
        <time>2025-08-17T07:00:29.569Z</time>
      </trkpt>
      <trkpt lat="44.24459" lon="0.84301">
        <ele>203</ele>
        <time>2025-08-17T07:00:30.569Z</time>
      </trkpt>
      <trkpt lat="44.24458" lon="0.843">
        <ele>203</ele>
        <time>2025-08-17T07:00:31.569Z</time>
      </trkpt>
      <trkpt lat="44.24457" lon="0.843">
        <ele>203</ele>
        <time>2025-08-17T07:00:32.569Z</time>
      </trkpt>
      <trkpt lat="44.24457" lon="0.843">
        <ele>203</ele>
        <time>2025-08-17T07:00:33.569Z</time>
      </trkpt>
      <trkpt lat="44.24456" lon="0.84299">
        <ele>203</ele>
        <time>2025-08-17T07:00:34.569Z</time>
      </trkpt>
      <trkpt lat="44.24456" lon="0.84299">
        <ele>202</ele>
        <time>2025-08-17T07:00:35.569Z</time>
      </trkpt>
      <trkpt lat="44.24455" lon="0.84299">
        <ele>202</ele>
        <time>2025-08-17T07:00:36.569Z</time>
      </trkpt>
      <trkpt lat="44.24454" lon="0.84298">
        <ele>202</ele>
        <time>2025-08-17T07:00:37.569Z</time>
      </trkpt>
      <trkpt lat="44.24454" lon="0.84298">
        <ele>202</ele>
        <time>2025-08-17T07:00:38.569Z</time>
      </trkpt>
      <trkpt lat="44.24453" lon="0.84298">
        <ele>201</ele>
        <time>2025-08-17T07:00:39.569Z</time>
      </trkpt>
      <trkpt lat="44.24452" lon="0.84297">
        <ele>201</ele>
        <time>2025-08-17T07:00:40.569Z</time>
      </trkpt>
      <trkpt lat="44.24451" lon="0.84297">
        <ele>201</ele>
        <time>2025-08-17T07:00:41.569Z</time>
      </trkpt>
      <trkpt lat="44.2445" lon="0.84297">
        <ele>201</ele>
        <time>2025-08-17T07:00:42.569Z</time>
      </trkpt>
      <trkpt lat="44.24449" lon="0.84297">
        <ele>201</ele>
        <time>2025-08-17T07:00:43.569Z</time>
      </trkpt>
      <trkpt lat="44.24448" lon="0.84297">
        <ele>201</ele>
        <time>2025-08-17T07:00:44.569Z</time>
      </trkpt>
      <trkpt lat="44.24447" lon="0.84297">
        <ele>201</ele>
        <time>2025-08-17T07:00:45.569Z</time>
      </trkpt>
      <trkpt lat="44.24446" lon="0.84296">
        <ele>201</ele>
        <time>2025-08-17T07:00:46.569Z</time>
      </trkpt>
      <trkpt lat="44.24445" lon="0.84296">
        <ele>202</ele>
        <time>2025-08-17T07:00:47.569Z</time>
      </trkpt>
      <trkpt lat="44.24444" lon="0.84296">
        <ele>202</ele>
        <time>2025-08-17T07:00:48.569Z</time>
      </trkpt>
      <trkpt lat="44.24443" lon="0.84296">
        <ele>201</ele>
        <time>2025-08-17T07:00:49.569Z</time>
      </trkpt>
      <trkpt lat="44.24442" lon="0.84296">
        <ele>201</ele>
        <time>2025-08-17T07:00:50.569Z</time>
      </trkpt>
      <trkpt lat="44.24441" lon="0.84296">
        <ele>201</ele>
        <time>2025-08-17T07:00:51.569Z</time>
      </trkpt>
      <trkpt lat="44.24441" lon="0.84296">
        <ele>201</ele>
        <time>2025-08-17T07:00:52.569Z</time>
      </trkpt>
      <trkpt lat="44.2444" lon="0.84296">
        <ele>201</ele>
        <time>2025-08-17T07:00:53.569Z</time>
      </trkpt>
      <trkpt lat="44.24438" lon="0.84296">
        <ele>200</ele>
        <time>2025-08-17T07:00:54.569Z</time>
      </trkpt>
      <trkpt lat="44.24438" lon="0.84295">
        <ele>200</ele>
        <time>2025-08-17T07:00:55.569Z</time>
      </trkpt>
      <trkpt lat="44.24437" lon="0.84295">
        <ele>200</ele>
        <time>2025-08-17T07:00:56.569Z</time>
      </trkpt>
      <trkpt lat="44.24436" lon="0.84295">
        <ele>200</ele>
        <time>2025-08-17T07:00:57.569Z</time>
      </trkpt>
      <trkpt lat="44.24435" lon="0.84295">
        <ele>200</ele>
        <time>2025-08-17T07:00:58.569Z</time>
      </trkpt>
      <trkpt lat="44.24434" lon="0.84294">
        <ele>201</ele>
        <time>2025-08-17T07:00:59.569Z</time>
      </trkpt>
      <trkpt lat="44.24433" lon="0.84294">
        <ele>201</ele>
        <time>2025-08-17T07:01:00.569Z</time>
      </trkpt>
      <trkpt lat="44.24432" lon="0.84295">
        <ele>201</ele>
        <time>2025-08-17T07:01:01.569Z</time>
      </trkpt>
      <trkpt lat="44.24431" lon="0.84294">
        <ele>201</ele>
        <time>2025-08-17T07:01:02.569Z</time>
      </trkpt>
      <trkpt lat="44.2443" lon="0.84295">
        <ele>201</ele>
        <time>2025-08-17T07:01:03.569Z</time>
      </trkpt>
      <trkpt lat="44.2443" lon="0.84295">
        <ele>201</ele>
        <time>2025-08-17T07:01:04.569Z</time>
      </trkpt>
      <trkpt lat="44.24429" lon="0.84295">
        <ele>201</ele>
        <time>2025-08-17T07:01:05.569Z</time>
      </trkpt>
      <trkpt lat="44.24428" lon="0.84295">
        <ele>201</ele>
        <time>2025-08-17T07:01:06.569Z</time>
      </trkpt>
      <trkpt lat="44.24427" lon="0.84295">
        <ele>200</ele>
        <time>2025-08-17T07:01:07.569Z</time>
      </trkpt>
      <trkpt lat="44.24426" lon="0.84295">
        <ele>200</ele>
        <time>2025-08-17T07:01:08.569Z</time>
      </trkpt>
      <trkpt lat="44.24425" lon="0.84295">
        <ele>200</ele>
        <time>2025-08-17T07:01:09.569Z</time>
      </trkpt>
      <trkpt lat="44.24424" lon="0.84295">
        <ele>200</ele>
        <time>2025-08-17T07:01:10.569Z</time>
      </trkpt>
      <trkpt lat="44.24424" lon="0.84295">
        <ele>200</ele>
        <time>2025-08-17T07:01:11.569Z</time>
      </trkpt>
      <trkpt lat="44.24423" lon="0.84295">
        <ele>200</ele>
        <time>2025-08-17T07:01:12.569Z</time>
      </trkpt>
      <trkpt lat="44.24422" lon="0.84295">
        <ele>200</ele>
        <time>2025-08-17T07:01:13.569Z</time>
      </trkpt>
      <trkpt lat="44.24422" lon="0.84295">
        <ele>200</ele>
        <time>2025-08-17T07:01:14.569Z</time>
      </trkpt>
      <trkpt lat="44.24421" lon="0.84295">
        <ele>200</ele>
        <time>2025-08-17T07:01:15.569Z</time>
      </trkpt>
      <trkpt lat="44.24421" lon="0.84295">
        <ele>200</ele>
        <time>2025-08-17T07:01:16.569Z</time>
      </trkpt>
      <trkpt lat="44.2442" lon="0.84295">
        <ele>199</ele>
        <time>2025-08-17T07:01:17.569Z</time>
      </trkpt>
      <trkpt lat="44.2442" lon="0.84296">
        <ele>199</ele>
        <time>2025-08-17T07:01:18.569Z</time>
      </trkpt>
      <trkpt lat="44.2442" lon="0.84296">
        <ele>200</ele>
        <time>2025-08-17T07:01:19.569Z</time>
      </trkpt>
      <trkpt lat="44.24419" lon="0.84296">
        <ele>200</ele>
        <time>2025-08-17T07:01:20.569Z</time>
      </trkpt>
      <trkpt lat="44.24419" lon="0.84296">
        <ele>200</ele>
        <time>2025-08-17T07:01:21.569Z</time>
      </trkpt>
      <trkpt lat="44.24419" lon="0.84296">
        <ele>200</ele>
        <time>2025-08-17T07:01:22.569Z</time>
      </trkpt>
      <trkpt lat="44.24419" lon="0.84296">
        <ele>200</ele>
        <time>2025-08-17T07:01:23.569Z</time>
      </trkpt>
      <trkpt lat="44.24419" lon="0.84296">
        <ele>200</ele>
        <time>2025-08-17T07:01:24.569Z</time>
      </trkpt>
      <trkpt lat="44.24419" lon="0.84296">
        <ele>200</ele>
        <time>2025-08-17T07:01:25.569Z</time>
      </trkpt>
      <trkpt lat="44.24419" lon="0.84296">
        <ele>201</ele>
        <time>2025-08-17T07:01:26.569Z</time>
      </trkpt>
      <trkpt lat="44.24419" lon="0.84296">
        <ele>201</ele>
        <time>2025-08-17T07:01:27.569Z</time>
      </trkpt>
      <trkpt lat="44.24419" lon="0.84296">
        <ele>200</ele>
        <time>2025-08-17T07:01:28.569Z</time>
      </trkpt>
      <trkpt lat="44.24419" lon="0.84296">
        <ele>200</ele>
        <time>2025-08-17T07:01:29.569Z</time>
      </trkpt>
      <trkpt lat="44.24419" lon="0.84296">
        <ele>200</ele>
        <time>2025-08-17T07:01:30.569Z</time>
      </trkpt>
      <trkpt lat="44.24419" lon="0.84296">
        <ele>199</ele>
        <time>2025-08-17T07:01:31.569Z</time>
      </trkpt>
      <trkpt lat="44.24419" lon="0.84296">
        <ele>199</ele>
        <time>2025-08-17T07:01:32.569Z</time>
      </trkpt>
      <trkpt lat="44.24419" lon="0.84296">
        <ele>199</ele>
        <time>2025-08-17T07:01:33.569Z</time>
      </trkpt>
      <trkpt lat="44.24419" lon="0.84296">
        <ele>199</ele>
        <time>2025-08-17T07:01:34.569Z</time>
      </trkpt>
      <trkpt lat="44.24419" lon="0.84295">
        <ele>199</ele>
        <time>2025-08-17T07:01:35.569Z</time>
      </trkpt>
      <trkpt lat="44.24419" lon="0.84295">
        <ele>199</ele>
        <time>2025-08-17T07:01:36.569Z</time>
      </trkpt>
      <trkpt lat="44.24419" lon="0.84295">
        <ele>199</ele>
        <time>2025-08-17T07:01:37.569Z</time>
      </trkpt>
      <trkpt lat="44.24419" lon="0.84295">
        <ele>199</ele>
        <time>2025-08-17T07:01:38.569Z</time>
      </trkpt>
      <trkpt lat="44.24419" lon="0.84295">
        <ele>199</ele>
        <time>2025-08-17T07:01:39.569Z</time>
      </trkpt>
      <trkpt lat="44.24419" lon="0.84295">
        <ele>199</ele>
        <time>2025-08-17T07:01:40.569Z</time>
      </trkpt>
      <trkpt lat="44.24419" lon="0.84295">
        <ele>198</ele>
        <time>2025-08-17T07:01:41.569Z</time>
      </trkpt>
      <trkpt lat="44.24419" lon="0.84295">
        <ele>198</ele>
        <time>2025-08-17T07:01:42.569Z</time>
      </trkpt>
      <trkpt lat="44.24419" lon="0.84295">
        <ele>198</ele>
        <time>2025-08-17T07:01:43.569Z</time>
      </trkpt>
      <trkpt lat="44.24419" lon="0.84294">
        <ele>197</ele>
        <time>2025-08-17T07:01:44.569Z</time>
      </trkpt>
      <trkpt lat="44.24419" lon="0.84295">
        <ele>197</ele>
        <time>2025-08-17T07:01:45.569Z</time>
      </trkpt>
      <trkpt lat="44.24418" lon="0.84295">
        <ele>197</ele>
        <time>2025-08-17T07:01:46.569Z</time>
      </trkpt>
      <trkpt lat="44.24417" lon="0.84295">
        <ele>197</ele>
        <time>2025-08-17T07:01:47.569Z</time>
      </trkpt>
      <trkpt lat="44.24417" lon="0.84295">
        <ele>197</ele>
        <time>2025-08-17T07:01:48.569Z</time>
      </trkpt>
      <trkpt lat="44.24416" lon="0.84295">
        <ele>197</ele>
        <time>2025-08-17T07:01:49.569Z</time>
      </trkpt>
      <trkpt lat="44.24415" lon="0.84295">
        <ele>197</ele>
        <time>2025-08-17T07:01:50.569Z</time>
      </trkpt>
      <trkpt lat="44.24414" lon="0.84296">
        <ele>197</ele>
        <time>2025-08-17T07:01:51.569Z</time>
      </trkpt>
      <trkpt lat="44.24413" lon="0.84296">
        <ele>198</ele>
        <time>2025-08-17T07:01:52.569Z</time>
      </trkpt>
      <trkpt lat="44.24412" lon="0.84296">
        <ele>198</ele>
        <time>2025-08-17T07:01:53.569Z</time>
      </trkpt>
      <trkpt lat="44.24411" lon="0.84296">
        <ele>197</ele>
        <time>2025-08-17T07:01:54.569Z</time>
      </trkpt>
      <trkpt lat="44.2441" lon="0.84296">
        <ele>197</ele>
        <time>2025-08-17T07:01:55.569Z</time>
      </trkpt>
      <trkpt lat="44.2441" lon="0.84296">
        <ele>197</ele>
        <time>2025-08-17T07:01:56.569Z</time>
      </trkpt>
      <trkpt lat="44.24409" lon="0.84296">
        <ele>197</ele>
        <time>2025-08-17T07:01:57.569Z</time>
      </trkpt>
      <trkpt lat="44.24409" lon="0.84296">
        <ele>197</ele>
        <time>2025-08-17T07:01:58.569Z</time>
      </trkpt>
      <trkpt lat="44.24409" lon="0.84297">
        <ele>197</ele>
        <time>2025-08-17T07:01:59.569Z</time>
      </trkpt>
      <trkpt lat="44.24408" lon="0.84297">
        <ele>197</ele>
        <time>2025-08-17T07:02:00.569Z</time>
      </trkpt>
      <trkpt lat="44.24408" lon="0.84298">
        <ele>197</ele>
        <time>2025-08-17T07:02:01.569Z</time>
      </trkpt>
      <trkpt lat="44.24407" lon="0.84298">
        <ele>197</ele>
        <time>2025-08-17T07:02:02.569Z</time>
      </trkpt>
      <trkpt lat="44.24407" lon="0.84299">
        <ele>197</ele>
        <time>2025-08-17T07:02:03.569Z</time>
      </trkpt>
      <trkpt lat="44.24406" lon="0.84299">
        <ele>197</ele>
        <time>2025-08-17T07:02:04.569Z</time>
      </trkpt>
      <trkpt lat="44.24406" lon="0.84299">
        <ele>197</ele>
        <time>2025-08-17T07:02:05.569Z</time>
      </trkpt>
      <trkpt lat="44.24406" lon="0.84299">
        <ele>197</ele>
        <time>2025-08-17T07:02:06.569Z</time>
      </trkpt>
      <trkpt lat="44.24406" lon="0.84299">
        <ele>198</ele>
        <time>2025-08-17T07:02:07.569Z</time>
      </trkpt>
      <trkpt lat="44.24406" lon="0.84299">
        <ele>198</ele>
        <time>2025-08-17T07:02:08.569Z</time>
      </trkpt>
      <trkpt lat="44.24406" lon="0.84299">
        <ele>198</ele>
        <time>2025-08-17T07:02:09.569Z</time>
      </trkpt>
      <trkpt lat="44.24406" lon="0.84299">
        <ele>198</ele>
        <time>2025-08-17T07:02:10.569Z</time>
      </trkpt>
      <trkpt lat="44.24406" lon="0.84299">
        <ele>198</ele>
        <time>2025-08-17T07:02:11.569Z</time>
      </trkpt>
      <trkpt lat="44.24406" lon="0.84299">
        <ele>198</ele>
        <time>2025-08-17T07:02:12.569Z</time>
      </trkpt>
      <trkpt lat="44.24406" lon="0.84299">
        <ele>199</ele>
        <time>2025-08-17T07:02:13.569Z</time>
      </trkpt>
      <trkpt lat="44.24406" lon="0.84299">
        <ele>199</ele>
        <time>2025-08-17T07:02:14.569Z</time>
      </trkpt>
      <trkpt lat="44.24406" lon="0.84299">
        <ele>199</ele>
        <time>2025-08-17T07:02:15.569Z</time>
      </trkpt>
      <trkpt lat="44.24406" lon="0.84298">
        <ele>198</ele>
        <time>2025-08-17T07:02:16.569Z</time>
      </trkpt>
      <trkpt lat="44.24407" lon="0.84298">
        <ele>198</ele>
        <time>2025-08-17T07:02:17.569Z</time>
      </trkpt>
      <trkpt lat="44.24407" lon="0.84298">
        <ele>198</ele>
        <time>2025-08-17T07:02:18.569Z</time>
      </trkpt>
      <trkpt lat="44.24407" lon="0.84298">
        <ele>198</ele>
        <time>2025-08-17T07:02:19.569Z</time>
      </trkpt>
      <trkpt lat="44.24407" lon="0.84298">
        <ele>199</ele>
        <time>2025-08-17T07:02:20.569Z</time>
      </trkpt>
      <trkpt lat="44.24407" lon="0.84298">
        <ele>199</ele>
        <time>2025-08-17T07:02:21.569Z</time>
      </trkpt>
      <trkpt lat="44.24407" lon="0.84298">
        <ele>199</ele>
        <time>2025-08-17T07:02:22.569Z</time>
      </trkpt>
      <trkpt lat="44.24407" lon="0.84299">
        <ele>199</ele>
        <time>2025-08-17T07:02:23.569Z</time>
      </trkpt>
      <trkpt lat="44.24407" lon="0.84299">
        <ele>199</ele>
        <time>2025-08-17T07:02:24.569Z</time>
      </trkpt>
      <trkpt lat="44.24407" lon="0.84299">
        <ele>199</ele>
        <time>2025-08-17T07:02:25.569Z</time>
      </trkpt>
      <trkpt lat="44.24407" lon="0.84299">
        <ele>199</ele>
        <time>2025-08-17T07:02:26.569Z</time>
      </trkpt>
      <trkpt lat="44.24407" lon="0.84299">
        <ele>199</ele>
        <time>2025-08-17T07:02:27.569Z</time>
      </trkpt>
      <trkpt lat="44.24407" lon="0.84299">
        <ele>199</ele>
        <time>2025-08-17T07:02:28.569Z</time>
      </trkpt>
      <trkpt lat="44.24407" lon="0.84299">
        <ele>199</ele>
        <time>2025-08-17T07:02:29.569Z</time>
      </trkpt>
      <trkpt lat="44.24407" lon="0.84299">
        <ele>199</ele>
        <time>2025-08-17T07:02:30.569Z</time>
      </trkpt>
      <trkpt lat="44.24407" lon="0.84299">
        <ele>199</ele>
        <time>2025-08-17T07:02:31.569Z</time>
      </trkpt>
      <trkpt lat="44.24407" lon="0.84299">
        <ele>199</ele>
        <time>2025-08-17T07:02:32.569Z</time>
      </trkpt>
      <trkpt lat="44.24407" lon="0.84299">
        <ele>199</ele>
        <time>2025-08-17T07:02:33.569Z</time>
      </trkpt>
      <trkpt lat="44.24407" lon="0.84299">
        <ele>200</ele>
        <time>2025-08-17T07:02:34.569Z</time>
      </trkpt>
      <trkpt lat="44.24407" lon="0.84299">
        <ele>200</ele>
        <time>2025-08-17T07:02:35.569Z</time>
      </trkpt>
      <trkpt lat="44.24407" lon="0.84299">
        <ele>200</ele>
        <time>2025-08-17T07:02:36.569Z</time>
      </trkpt>
      <trkpt lat="44.24407" lon="0.84299">
        <ele>200</ele>
        <time>2025-08-17T07:02:37.569Z</time>
      </trkpt>
      <trkpt lat="44.24407" lon="0.84299">
        <ele>200</ele>
        <time>2025-08-17T07:02:38.569Z</time>
      </trkpt>
      <trkpt lat="44.24407" lon="0.84299">
        <ele>200</ele>
        <time>2025-08-17T07:02:39.569Z</time>
      </trkpt>
      <trkpt lat="44.24407" lon="0.84299">
        <ele>200</ele>
        <time>2025-08-17T07:02:40.569Z</time>
      </trkpt>
      <trkpt lat="44.24407" lon="0.84299">
        <ele>200</ele>
        <time>2025-08-17T07:02:41.569Z</time>
      </trkpt>
      <trkpt lat="44.24407" lon="0.84299">
        <ele>199</ele>
        <time>2025-08-17T07:02:42.569Z</time>
      </trkpt>
      <trkpt lat="44.24407" lon="0.84299">
        <ele>199</ele>
        <time>2025-08-17T07:02:43.569Z</time>
      </trkpt>
      <trkpt lat="44.24407" lon="0.84299">
        <ele>199</ele>
        <time>2025-08-17T07:02:44.569Z</time>
      </trkpt>
      <trkpt lat="44.24407" lon="0.843">
        <ele>199</ele>
        <time>2025-08-17T07:02:45.569Z</time>
      </trkpt>
      <trkpt lat="44.24407" lon="0.843">
        <ele>199</ele>
        <time>2025-08-17T07:02:46.569Z</time>
      </trkpt>
      <trkpt lat="44.24406" lon="0.843">
        <ele>199</ele>
        <time>2025-08-17T07:02:47.569Z</time>
      </trkpt>
      <trkpt lat="44.24406" lon="0.84299">
        <ele>199</ele>
        <time>2025-08-17T07:02:48.569Z</time>
      </trkpt>
      <trkpt lat="44.24406" lon="0.84299">
        <ele>199</ele>
        <time>2025-08-17T07:02:49.569Z</time>
      </trkpt>
      <trkpt lat="44.24406" lon="0.84299">
        <ele>199</ele>
        <time>2025-08-17T07:02:50.569Z</time>
      </trkpt>
      <trkpt lat="44.24406" lon="0.84299">
        <ele>199</ele>
        <time>2025-08-17T07:02:51.569Z</time>
      </trkpt>
      <trkpt lat="44.24406" lon="0.843">
        <ele>199</ele>
        <time>2025-08-17T07:02:52.569Z</time>
      </trkpt>
      <trkpt lat="44.24406" lon="0.84299">
        <ele>198</ele>
        <time>2025-08-17T07:02:53.569Z</time>
      </trkpt>
      <trkpt lat="44.24406" lon="0.843">
        <ele>198</ele>
        <time>2025-08-17T07:02:54.569Z</time>
      </trkpt>
      <trkpt lat="44.24406" lon="0.843">
        <ele>197</ele>
        <time>2025-08-17T07:02:55.569Z</time>
      </trkpt>
      <trkpt lat="44.24406" lon="0.843">
        <ele>197</ele>
        <time>2025-08-17T07:02:56.569Z</time>
      </trkpt>
      <trkpt lat="44.24406" lon="0.843">
        <ele>197</ele>
        <time>2025-08-17T07:02:57.569Z</time>
      </trkpt>
      <trkpt lat="44.24406" lon="0.843">
        <ele>197</ele>
        <time>2025-08-17T07:02:58.569Z</time>
      </trkpt>
      <trkpt lat="44.24406" lon="0.843">
        <ele>197</ele>
        <time>2025-08-17T07:02:59.569Z</time>
      </trkpt>
      <trkpt lat="44.24406" lon="0.84301">
        <ele>197</ele>
        <time>2025-08-17T07:03:00.569Z</time>
      </trkpt>
      <trkpt lat="44.24406" lon="0.84302">
        <ele>197</ele>
        <time>2025-08-17T07:03:01.569Z</time>
      </trkpt>
      <trkpt lat="44.24405" lon="0.84302">
        <ele>196</ele>
        <time>2025-08-17T07:03:02.569Z</time>
      </trkpt>
      <trkpt lat="44.24404" lon="0.84303">
        <ele>196</ele>
        <time>2025-08-17T07:03:03.569Z</time>
      </trkpt>
      <trkpt lat="44.24404" lon="0.84304">
        <ele>196</ele>
        <time>2025-08-17T07:03:04.569Z</time>
      </trkpt>
      <trkpt lat="44.24403" lon="0.84305">
        <ele>195</ele>
        <time>2025-08-17T07:03:05.569Z</time>
      </trkpt>
      <trkpt lat="44.24402" lon="0.84305">
        <ele>195</ele>
        <time>2025-08-17T07:03:06.569Z</time>
      </trkpt>
      <trkpt lat="44.24401" lon="0.84307">
        <ele>196</ele>
        <time>2025-08-17T07:03:07.569Z</time>
      </trkpt>
      <trkpt lat="44.244" lon="0.84308">
        <ele>196</ele>
        <time>2025-08-17T07:03:08.569Z</time>
      </trkpt>
      <trkpt lat="44.24398" lon="0.84309">
        <ele>196</ele>
        <time>2025-08-17T07:03:09.569Z</time>
      </trkpt>
      <trkpt lat="44.24397" lon="0.8431">
        <ele>196</ele>
        <time>2025-08-17T07:03:10.569Z</time>
      </trkpt>
      <trkpt lat="44.24396" lon="0.84311">
        <ele>196</ele>
        <time>2025-08-17T07:03:11.569Z</time>
      </trkpt>
      <trkpt lat="44.24395" lon="0.84312">
        <ele>197</ele>
        <time>2025-08-17T07:03:12.569Z</time>
      </trkpt>
      <trkpt lat="44.24394" lon="0.84313">
        <ele>197</ele>
        <time>2025-08-17T07:03:13.569Z</time>
      </trkpt>
      <trkpt lat="44.24393" lon="0.84314">
        <ele>197</ele>
        <time>2025-08-17T07:03:14.569Z</time>
      </trkpt>
      <trkpt lat="44.24392" lon="0.84314">
        <ele>198</ele>
        <time>2025-08-17T07:03:15.569Z</time>
      </trkpt>
      <trkpt lat="44.24391" lon="0.84316">
        <ele>198</ele>
        <time>2025-08-17T07:03:16.569Z</time>
      </trkpt>
      <trkpt lat="44.2439" lon="0.84316">
        <ele>198</ele>
        <time>2025-08-17T07:03:17.569Z</time>
      </trkpt>
      <trkpt lat="44.24389" lon="0.84317">
        <ele>198</ele>
        <time>2025-08-17T07:03:18.569Z</time>
      </trkpt>
      <trkpt lat="44.24388" lon="0.84318">
        <ele>198</ele>
        <time>2025-08-17T07:03:19.569Z</time>
      </trkpt>
      <trkpt lat="44.24387" lon="0.84319">
        <ele>198</ele>
        <time>2025-08-17T07:03:20.569Z</time>
      </trkpt>
      <trkpt lat="44.24386" lon="0.84319">
        <ele>198</ele>
        <time>2025-08-17T07:03:21.569Z</time>
      </trkpt>
      <trkpt lat="44.24385" lon="0.8432">
        <ele>198</ele>
        <time>2025-08-17T07:03:22.569Z</time>
      </trkpt>
      <trkpt lat="44.24384" lon="0.84321">
        <ele>198</ele>
        <time>2025-08-17T07:03:23.569Z</time>
      </trkpt>
      <trkpt lat="44.24383" lon="0.84322">
        <ele>198</ele>
        <time>2025-08-17T07:03:24.569Z</time>
      </trkpt>
      <trkpt lat="44.24382" lon="0.84323">
        <ele>197</ele>
        <time>2025-08-17T07:03:25.569Z</time>
      </trkpt>
      <trkpt lat="44.24381" lon="0.84324">
        <ele>197</ele>
        <time>2025-08-17T07:03:26.569Z</time>
      </trkpt>
      <trkpt lat="44.2438" lon="0.84325">
        <ele>197</ele>
        <time>2025-08-17T07:03:27.569Z</time>
      </trkpt>
      <trkpt lat="44.24379" lon="0.84325">
        <ele>197</ele>
        <time>2025-08-17T07:03:28.569Z</time>
      </trkpt>
      <trkpt lat="44.24378" lon="0.84326">
        <ele>198</ele>
        <time>2025-08-17T07:03:29.569Z</time>
      </trkpt>
      <trkpt lat="44.24377" lon="0.84327">
        <ele>198</ele>
        <time>2025-08-17T07:03:30.569Z</time>
      </trkpt>
      <trkpt lat="44.24376" lon="0.84328">
        <ele>198</ele>
        <time>2025-08-17T07:03:31.569Z</time>
      </trkpt>
      <trkpt lat="44.24375" lon="0.84329">
        <ele>198</ele>
        <time>2025-08-17T07:03:32.569Z</time>
      </trkpt>
      <trkpt lat="44.24374" lon="0.8433">
        <ele>198</ele>
        <time>2025-08-17T07:03:33.569Z</time>
      </trkpt>
      <trkpt lat="44.24373" lon="0.84331">
        <ele>198</ele>
        <time>2025-08-17T07:03:34.569Z</time>
      </trkpt>
      <trkpt lat="44.24372" lon="0.84331">
        <ele>198</ele>
        <time>2025-08-17T07:03:35.569Z</time>
      </trkpt>
      <trkpt lat="44.24371" lon="0.84332">
        <ele>198</ele>
        <time>2025-08-17T07:03:36.569Z</time>
      </trkpt>
      <trkpt lat="44.2437" lon="0.84333">
        <ele>198</ele>
        <time>2025-08-17T07:03:37.569Z</time>
      </trkpt>
      <trkpt lat="44.2437" lon="0.84334">
        <ele>198</ele>
        <time>2025-08-17T07:03:38.569Z</time>
      </trkpt>
      <trkpt lat="44.24369" lon="0.84335">
        <ele>198</ele>
        <time>2025-08-17T07:03:39.569Z</time>
      </trkpt>
      <trkpt lat="44.24368" lon="0.84336">
        <ele>199</ele>
        <time>2025-08-17T07:03:40.569Z</time>
      </trkpt>
      <trkpt lat="44.24368" lon="0.84337">
        <ele>199</ele>
        <time>2025-08-17T07:03:41.569Z</time>
      </trkpt>
      <trkpt lat="44.24367" lon="0.84338">
        <ele>199</ele>
        <time>2025-08-17T07:03:42.569Z</time>
      </trkpt>
      <trkpt lat="44.24367" lon="0.84339">
        <ele>199</ele>
        <time>2025-08-17T07:03:43.569Z</time>
      </trkpt>
      <trkpt lat="44.24367" lon="0.8434">
        <ele>199</ele>
        <time>2025-08-17T07:03:44.569Z</time>
      </trkpt>
      <trkpt lat="44.24366" lon="0.84341">
        <ele>200</ele>
        <time>2025-08-17T07:03:45.569Z</time>
      </trkpt>
      <trkpt lat="44.24366" lon="0.84342">
        <ele>200</ele>
        <time>2025-08-17T07:03:46.569Z</time>
      </trkpt>
      <trkpt lat="44.24366" lon="0.84343">
        <ele>200</ele>
        <time>2025-08-17T07:03:47.569Z</time>
      </trkpt>
      <trkpt lat="44.24366" lon="0.84344">
        <ele>200</ele>
        <time>2025-08-17T07:03:48.569Z</time>
      </trkpt>
      <trkpt lat="44.24367" lon="0.84345">
        <ele>199</ele>
        <time>2025-08-17T07:03:49.569Z</time>
      </trkpt>
      <trkpt lat="44.24367" lon="0.84346">
        <ele>199</ele>
        <time>2025-08-17T07:03:50.569Z</time>
      </trkpt>
      <trkpt lat="44.24367" lon="0.84346">
        <ele>199</ele>
        <time>2025-08-17T07:03:51.569Z</time>
      </trkpt>
      <trkpt lat="44.24367" lon="0.84347">
        <ele>198</ele>
        <time>2025-08-17T07:03:52.569Z</time>
      </trkpt>
      <trkpt lat="44.24367" lon="0.84348">
        <ele>198</ele>
        <time>2025-08-17T07:03:53.569Z</time>
      </trkpt>
      <trkpt lat="44.24368" lon="0.84349">
        <ele>198</ele>
        <time>2025-08-17T07:03:54.569Z</time>
      </trkpt>
      <trkpt lat="44.24368" lon="0.8435">
        <ele>197</ele>
        <time>2025-08-17T07:03:55.569Z</time>
      </trkpt>
      <trkpt lat="44.24369" lon="0.84351">
        <ele>197</ele>
        <time>2025-08-17T07:03:56.569Z</time>
      </trkpt>
      <trkpt lat="44.2437" lon="0.84352">
        <ele>197</ele>
        <time>2025-08-17T07:03:57.569Z</time>
      </trkpt>
      <trkpt lat="44.24371" lon="0.84353">
        <ele>198</ele>
        <time>2025-08-17T07:03:58.569Z</time>
      </trkpt>
      <trkpt lat="44.24372" lon="0.84354">
        <ele>198</ele>
        <time>2025-08-17T07:03:59.569Z</time>
      </trkpt>
      <trkpt lat="44.24372" lon="0.84356">
        <ele>198</ele>
        <time>2025-08-17T07:04:00.569Z</time>
      </trkpt>
      <trkpt lat="44.24372" lon="0.84358">
        <ele>197</ele>
        <time>2025-08-17T07:04:01.569Z</time>
      </trkpt>
      <trkpt lat="44.24373" lon="0.84359">
        <ele>197</ele>
        <time>2025-08-17T07:04:02.569Z</time>
      </trkpt>
      <trkpt lat="44.24373" lon="0.8436">
        <ele>196</ele>
        <time>2025-08-17T07:04:03.569Z</time>
      </trkpt>
      <trkpt lat="44.24374" lon="0.84361">
        <ele>196</ele>
        <time>2025-08-17T07:04:04.569Z</time>
      </trkpt>
      <trkpt lat="44.24374" lon="0.84363">
        <ele>196</ele>
        <time>2025-08-17T07:04:05.569Z</time>
      </trkpt>
      <trkpt lat="44.24374" lon="0.84364">
        <ele>196</ele>
        <time>2025-08-17T07:04:06.569Z</time>
      </trkpt>
      <trkpt lat="44.24375" lon="0.84366">
        <ele>196</ele>
        <time>2025-08-17T07:04:07.569Z</time>
      </trkpt>
      <trkpt lat="44.24375" lon="0.84367">
        <ele>196</ele>
        <time>2025-08-17T07:04:08.569Z</time>
      </trkpt>
      <trkpt lat="44.24375" lon="0.84368">
        <ele>196</ele>
        <time>2025-08-17T07:04:09.569Z</time>
      </trkpt>
      <trkpt lat="44.24376" lon="0.8437">
        <ele>195</ele>
        <time>2025-08-17T07:04:10.569Z</time>
      </trkpt>
      <trkpt lat="44.24376" lon="0.84371">
        <ele>195</ele>
        <time>2025-08-17T07:04:11.569Z</time>
      </trkpt>
      <trkpt lat="44.24377" lon="0.84372">
        <ele>195</ele>
        <time>2025-08-17T07:04:12.569Z</time>
      </trkpt>
      <trkpt lat="44.24377" lon="0.84374">
        <ele>195</ele>
        <time>2025-08-17T07:04:13.569Z</time>
      </trkpt>
      <trkpt lat="44.24378" lon="0.84375">
        <ele>196</ele>
        <time>2025-08-17T07:04:14.569Z</time>
      </trkpt>
      <trkpt lat="44.24378" lon="0.84377">
        <ele>196</ele>
        <time>2025-08-17T07:04:15.569Z</time>
      </trkpt>
      <trkpt lat="44.24379" lon="0.84379">
        <ele>196</ele>
        <time>2025-08-17T07:04:16.569Z</time>
      </trkpt>
      <trkpt lat="44.24379" lon="0.8438">
        <ele>197</ele>
        <time>2025-08-17T07:04:17.569Z</time>
      </trkpt>
      <trkpt lat="44.24379" lon="0.84381">
        <ele>197</ele>
        <time>2025-08-17T07:04:18.569Z</time>
      </trkpt>
      <trkpt lat="44.2438" lon="0.84383">
        <ele>196</ele>
        <time>2025-08-17T07:04:19.569Z</time>
      </trkpt>
      <trkpt lat="44.2438" lon="0.84384">
        <ele>196</ele>
        <time>2025-08-17T07:04:20.569Z</time>
      </trkpt>
      <trkpt lat="44.2438" lon="0.84386">
        <ele>196</ele>
        <time>2025-08-17T07:04:21.569Z</time>
      </trkpt>
      <trkpt lat="44.2438" lon="0.84388">
        <ele>196</ele>
        <time>2025-08-17T07:04:22.569Z</time>
      </trkpt>
      <trkpt lat="44.24381" lon="0.8439">
        <ele>197</ele>
        <time>2025-08-17T07:04:23.569Z</time>
      </trkpt>
      <trkpt lat="44.24381" lon="0.84391">
        <ele>197</ele>
        <time>2025-08-17T07:04:24.569Z</time>
      </trkpt>
      <trkpt lat="44.24381" lon="0.84393">
        <ele>197</ele>
        <time>2025-08-17T07:04:25.569Z</time>
      </trkpt>
      <trkpt lat="44.24381" lon="0.84394">
        <ele>197</ele>
        <time>2025-08-17T07:04:26.569Z</time>
      </trkpt>
      <trkpt lat="44.24382" lon="0.84396">
        <ele>197</ele>
        <time>2025-08-17T07:04:27.569Z</time>
      </trkpt>
      <trkpt lat="44.24382" lon="0.84397">
        <ele>197</ele>
        <time>2025-08-17T07:04:28.569Z</time>
      </trkpt>
      <trkpt lat="44.24382" lon="0.84399">
        <ele>198</ele>
        <time>2025-08-17T07:04:29.569Z</time>
      </trkpt>
      <trkpt lat="44.24382" lon="0.84401">
        <ele>198</ele>
        <time>2025-08-17T07:04:30.569Z</time>
      </trkpt>
      <trkpt lat="44.24382" lon="0.84403">
        <ele>198</ele>
        <time>2025-08-17T07:04:31.569Z</time>
      </trkpt>
      <trkpt lat="44.24382" lon="0.84404">
        <ele>198</ele>
        <time>2025-08-17T07:04:32.569Z</time>
      </trkpt>
      <trkpt lat="44.24383" lon="0.84407">
        <ele>198</ele>
        <time>2025-08-17T07:04:33.569Z</time>
      </trkpt>
      <trkpt lat="44.24383" lon="0.84409">
        <ele>199</ele>
        <time>2025-08-17T07:04:34.569Z</time>
      </trkpt>
      <trkpt lat="44.24383" lon="0.8441">
        <ele>199</ele>
        <time>2025-08-17T07:04:35.569Z</time>
      </trkpt>
      <trkpt lat="44.24383" lon="0.84412">
        <ele>199</ele>
        <time>2025-08-17T07:04:36.569Z</time>
      </trkpt>
      <trkpt lat="44.24383" lon="0.84413">
        <ele>198</ele>
        <time>2025-08-17T07:04:37.569Z</time>
      </trkpt>
      <trkpt lat="44.24383" lon="0.84415">
        <ele>198</ele>
        <time>2025-08-17T07:04:38.569Z</time>
      </trkpt>
      <trkpt lat="44.24383" lon="0.84416">
        <ele>198</ele>
        <time>2025-08-17T07:04:39.569Z</time>
      </trkpt>
      <trkpt lat="44.24383" lon="0.84417">
        <ele>198</ele>
        <time>2025-08-17T07:04:40.569Z</time>
      </trkpt>
      <trkpt lat="44.24382" lon="0.84419">
        <ele>198</ele>
        <time>2025-08-17T07:04:41.569Z</time>
      </trkpt>
      <trkpt lat="44.24382" lon="0.84421">
        <ele>198</ele>
        <time>2025-08-17T07:04:42.569Z</time>
      </trkpt>
      <trkpt lat="44.24382" lon="0.84423">
        <ele>198</ele>
        <time>2025-08-17T07:04:43.569Z</time>
      </trkpt>
      <trkpt lat="44.24382" lon="0.84425">
        <ele>199</ele>
        <time>2025-08-17T07:04:44.569Z</time>
      </trkpt>
      <trkpt lat="44.24382" lon="0.84427">
        <ele>199</ele>
        <time>2025-08-17T07:04:45.569Z</time>
      </trkpt>
      <trkpt lat="44.24382" lon="0.84428">
        <ele>198</ele>
        <time>2025-08-17T07:04:46.569Z</time>
      </trkpt>
      <trkpt lat="44.24382" lon="0.8443">
        <ele>198</ele>
        <time>2025-08-17T07:04:47.569Z</time>
      </trkpt>
      <trkpt lat="44.24382" lon="0.84431">
        <ele>198</ele>
        <time>2025-08-17T07:04:48.569Z</time>
      </trkpt>
      <trkpt lat="44.24382" lon="0.84433">
        <ele>198</ele>
        <time>2025-08-17T07:04:49.569Z</time>
      </trkpt>
      <trkpt lat="44.24382" lon="0.84435">
        <ele>198</ele>
        <time>2025-08-17T07:04:50.569Z</time>
      </trkpt>
      <trkpt lat="44.24382" lon="0.84437">
        <ele>198</ele>
        <time>2025-08-17T07:04:51.569Z</time>
      </trkpt>
      <trkpt lat="44.24382" lon="0.84438">
        <ele>198</ele>
        <time>2025-08-17T07:04:52.569Z</time>
      </trkpt>
      <trkpt lat="44.24382" lon="0.8444">
        <ele>198</ele>
        <time>2025-08-17T07:04:53.569Z</time>
      </trkpt>
      <trkpt lat="44.24382" lon="0.84442">
        <ele>199</ele>
        <time>2025-08-17T07:04:54.569Z</time>
      </trkpt>
      <trkpt lat="44.24382" lon="0.84444">
        <ele>199</ele>
        <time>2025-08-17T07:04:55.569Z</time>
      </trkpt>
      <trkpt lat="44.24382" lon="0.84445">
        <ele>199</ele>
        <time>2025-08-17T07:04:56.569Z</time>
      </trkpt>
      <trkpt lat="44.24382" lon="0.84447">
        <ele>198</ele>
        <time>2025-08-17T07:04:57.569Z</time>
      </trkpt>
      <trkpt lat="44.24382" lon="0.84448">
        <ele>198</ele>
        <time>2025-08-17T07:04:58.569Z</time>
      </trkpt>
      <trkpt lat="44.24382" lon="0.8445">
        <ele>198</ele>
        <time>2025-08-17T07:04:59.569Z</time>
      </trkpt>
      <trkpt lat="44.24382" lon="0.84452">
        <ele>199</ele>
        <time>2025-08-17T07:05:00.569Z</time>
      </trkpt>
      <trkpt lat="44.24382" lon="0.84453">
        <ele>199</ele>
        <time>2025-08-17T07:05:01.569Z</time>
      </trkpt>
      <trkpt lat="44.24381" lon="0.84455">
        <ele>199</ele>
        <time>2025-08-17T07:05:02.569Z</time>
      </trkpt>
      <trkpt lat="44.24381" lon="0.84456">
        <ele>199</ele>
        <time>2025-08-17T07:05:03.569Z</time>
      </trkpt>
      <trkpt lat="44.24381" lon="0.84459">
        <ele>199</ele>
        <time>2025-08-17T07:05:04.569Z</time>
      </trkpt>
      <trkpt lat="44.24381" lon="0.84461">
        <ele>199</ele>
        <time>2025-08-17T07:05:05.569Z</time>
      </trkpt>
      <trkpt lat="44.24381" lon="0.84463">
        <ele>199</ele>
        <time>2025-08-17T07:05:06.569Z</time>
      </trkpt>
      <trkpt lat="44.24381" lon="0.84464">
        <ele>199</ele>
        <time>2025-08-17T07:05:07.569Z</time>
      </trkpt>
      <trkpt lat="44.24381" lon="0.84465">
        <ele>199</ele>
        <time>2025-08-17T07:05:08.569Z</time>
      </trkpt>
      <trkpt lat="44.24381" lon="0.84467">
        <ele>199</ele>
        <time>2025-08-17T07:05:09.569Z</time>
      </trkpt>
      <trkpt lat="44.24381" lon="0.84468">
        <ele>199</ele>
        <time>2025-08-17T07:05:10.569Z</time>
      </trkpt>
      <trkpt lat="44.24381" lon="0.8447">
        <ele>199</ele>
        <time>2025-08-17T07:05:11.569Z</time>
      </trkpt>
      <trkpt lat="44.24381" lon="0.84472">
        <ele>199</ele>
        <time>2025-08-17T07:05:12.569Z</time>
      </trkpt>
      <trkpt lat="44.24381" lon="0.84474">
        <ele>199</ele>
        <time>2025-08-17T07:05:13.569Z</time>
      </trkpt>
      <trkpt lat="44.24381" lon="0.84476">
        <ele>199</ele>
        <time>2025-08-17T07:05:14.569Z</time>
      </trkpt>
      <trkpt lat="44.24381" lon="0.84477">
        <ele>200</ele>
        <time>2025-08-17T07:05:15.569Z</time>
      </trkpt>
      <trkpt lat="44.24381" lon="0.84479">
        <ele>200</ele>
        <time>2025-08-17T07:05:16.569Z</time>
      </trkpt>
      <trkpt lat="44.24381" lon="0.8448">
        <ele>200</ele>
        <time>2025-08-17T07:05:17.569Z</time>
      </trkpt>
      <trkpt lat="44.24381" lon="0.84482">
        <ele>200</ele>
        <time>2025-08-17T07:05:18.569Z</time>
      </trkpt>
      <trkpt lat="44.24381" lon="0.84483">
        <ele>200</ele>
        <time>2025-08-17T07:05:19.569Z</time>
      </trkpt>
      <trkpt lat="44.24381" lon="0.84485">
        <ele>200</ele>
        <time>2025-08-17T07:05:20.569Z</time>
      </trkpt>
      <trkpt lat="44.24381" lon="0.84486">
        <ele>200</ele>
        <time>2025-08-17T07:05:21.569Z</time>
      </trkpt>
      <trkpt lat="44.24381" lon="0.84488">
        <ele>200</ele>
        <time>2025-08-17T07:05:22.569Z</time>
      </trkpt>
      <trkpt lat="44.24381" lon="0.8449">
        <ele>200</ele>
        <time>2025-08-17T07:05:23.569Z</time>
      </trkpt>
      <trkpt lat="44.24381" lon="0.84492">
        <ele>200</ele>
        <time>2025-08-17T07:05:24.569Z</time>
      </trkpt>
      <trkpt lat="44.24381" lon="0.84494">
        <ele>200</ele>
        <time>2025-08-17T07:05:25.569Z</time>
      </trkpt>
      <trkpt lat="44.24381" lon="0.84496">
        <ele>200</ele>
        <time>2025-08-17T07:05:26.569Z</time>
      </trkpt>
      <trkpt lat="44.24381" lon="0.84497">
        <ele>200</ele>
        <time>2025-08-17T07:05:27.569Z</time>
      </trkpt>
      <trkpt lat="44.24381" lon="0.84498">
        <ele>200</ele>
        <time>2025-08-17T07:05:28.569Z</time>
      </trkpt>
      <trkpt lat="44.24381" lon="0.845">
        <ele>200</ele>
        <time>2025-08-17T07:05:29.569Z</time>
      </trkpt>
      <trkpt lat="44.24381" lon="0.84501">
        <ele>200</ele>
        <time>2025-08-17T07:05:30.569Z</time>
      </trkpt>
      <trkpt lat="44.24381" lon="0.84504">
        <ele>200</ele>
        <time>2025-08-17T07:05:31.569Z</time>
      </trkpt>
      <trkpt lat="44.24381" lon="0.84506">
        <ele>200</ele>
        <time>2025-08-17T07:05:32.569Z</time>
      </trkpt>
      <trkpt lat="44.24381" lon="0.84508">
        <ele>200</ele>
        <time>2025-08-17T07:05:33.569Z</time>
      </trkpt>
      <trkpt lat="44.24381" lon="0.84509">
        <ele>199</ele>
        <time>2025-08-17T07:05:34.569Z</time>
      </trkpt>
      <trkpt lat="44.24381" lon="0.84511">
        <ele>200</ele>
        <time>2025-08-17T07:05:35.569Z</time>
      </trkpt>
      <trkpt lat="44.24381" lon="0.84512">
        <ele>200</ele>
        <time>2025-08-17T07:05:36.569Z</time>
      </trkpt>
      <trkpt lat="44.24381" lon="0.84513">
        <ele>200</ele>
        <time>2025-08-17T07:05:37.569Z</time>
      </trkpt>
      <trkpt lat="44.24381" lon="0.84515">
        <ele>200</ele>
        <time>2025-08-17T07:05:38.569Z</time>
      </trkpt>
      <trkpt lat="44.24381" lon="0.84516">
        <ele>200</ele>
        <time>2025-08-17T07:05:39.569Z</time>
      </trkpt>
      <trkpt lat="44.24381" lon="0.84518">
        <ele>200</ele>
        <time>2025-08-17T07:05:40.569Z</time>
      </trkpt>
      <trkpt lat="44.24381" lon="0.84519">
        <ele>200</ele>
        <time>2025-08-17T07:05:41.569Z</time>
      </trkpt>
      <trkpt lat="44.24381" lon="0.84521">
        <ele>200</ele>
        <time>2025-08-17T07:05:42.569Z</time>
      </trkpt>
      <trkpt lat="44.24381" lon="0.84522">
        <ele>200</ele>
        <time>2025-08-17T07:05:43.569Z</time>
      </trkpt>
      <trkpt lat="44.24381" lon="0.84524">
        <ele>200</ele>
        <time>2025-08-17T07:05:44.569Z</time>
      </trkpt>
      <trkpt lat="44.24382" lon="0.84525">
        <ele>200</ele>
        <time>2025-08-17T07:05:45.569Z</time>
      </trkpt>
      <trkpt lat="44.24382" lon="0.84526">
        <ele>200</ele>
        <time>2025-08-17T07:05:46.569Z</time>
      </trkpt>
      <trkpt lat="44.24382" lon="0.84528">
        <ele>200</ele>
        <time>2025-08-17T07:05:47.569Z</time>
      </trkpt>
      <trkpt lat="44.24382" lon="0.84529">
        <ele>200</ele>
        <time>2025-08-17T07:05:48.569Z</time>
      </trkpt>
      <trkpt lat="44.24382" lon="0.8453">
        <ele>200</ele>
        <time>2025-08-17T07:05:49.569Z</time>
      </trkpt>
      <trkpt lat="44.24383" lon="0.84532">
        <ele>200</ele>
        <time>2025-08-17T07:05:50.569Z</time>
      </trkpt>
      <trkpt lat="44.24383" lon="0.84533">
        <ele>200</ele>
        <time>2025-08-17T07:05:51.569Z</time>
      </trkpt>
      <trkpt lat="44.24383" lon="0.84535">
        <ele>200</ele>
        <time>2025-08-17T07:05:52.569Z</time>
      </trkpt>
      <trkpt lat="44.24384" lon="0.84536">
        <ele>200</ele>
        <time>2025-08-17T07:05:53.569Z</time>
      </trkpt>
      <trkpt lat="44.24384" lon="0.84538">
        <ele>200</ele>
        <time>2025-08-17T07:05:54.569Z</time>
      </trkpt>
      <trkpt lat="44.24384" lon="0.84539">
        <ele>200</ele>
        <time>2025-08-17T07:05:55.569Z</time>
      </trkpt>
      <trkpt lat="44.24384" lon="0.84541">
        <ele>201</ele>
        <time>2025-08-17T07:05:56.569Z</time>
      </trkpt>
      <trkpt lat="44.24384" lon="0.84543">
        <ele>201</ele>
        <time>2025-08-17T07:05:57.569Z</time>
      </trkpt>
      <trkpt lat="44.24384" lon="0.84545">
        <ele>201</ele>
        <time>2025-08-17T07:05:58.569Z</time>
      </trkpt>
      <trkpt lat="44.24385" lon="0.84547">
        <ele>201</ele>
        <time>2025-08-17T07:05:59.569Z</time>
      </trkpt>
      <trkpt lat="44.24385" lon="0.84548">
        <ele>201</ele>
        <time>2025-08-17T07:06:00.569Z</time>
      </trkpt>
      <trkpt lat="44.24386" lon="0.84549">
        <ele>201</ele>
        <time>2025-08-17T07:06:01.569Z</time>
      </trkpt>
      <trkpt lat="44.24386" lon="0.84551">
        <ele>201</ele>
        <time>2025-08-17T07:06:02.569Z</time>
      </trkpt>
      <trkpt lat="44.24386" lon="0.84552">
        <ele>201</ele>
        <time>2025-08-17T07:06:03.569Z</time>
      </trkpt>
      <trkpt lat="44.24387" lon="0.84554">
        <ele>201</ele>
        <time>2025-08-17T07:06:04.569Z</time>
      </trkpt>
      <trkpt lat="44.24387" lon="0.84555">
        <ele>201</ele>
        <time>2025-08-17T07:06:05.569Z</time>
      </trkpt>
      <trkpt lat="44.24387" lon="0.84557">
        <ele>201</ele>
        <time>2025-08-17T07:06:06.569Z</time>
      </trkpt>
      <trkpt lat="44.24388" lon="0.84558">
        <ele>201</ele>
        <time>2025-08-17T07:06:07.569Z</time>
      </trkpt>
      <trkpt lat="44.24388" lon="0.84559">
        <ele>201</ele>
        <time>2025-08-17T07:06:08.569Z</time>
      </trkpt>
      <trkpt lat="44.24389" lon="0.84561">
        <ele>201</ele>
        <time>2025-08-17T07:06:09.569Z</time>
      </trkpt>
      <trkpt lat="44.24389" lon="0.84562">
        <ele>200</ele>
        <time>2025-08-17T07:06:10.569Z</time>
      </trkpt>
      <trkpt lat="44.24389" lon="0.84564">
        <ele>200</ele>
        <time>2025-08-17T07:06:11.569Z</time>
      </trkpt>
      <trkpt lat="44.2439" lon="0.84565">
        <ele>200</ele>
        <time>2025-08-17T07:06:12.569Z</time>
      </trkpt>
      <trkpt lat="44.2439" lon="0.84567">
        <ele>201</ele>
        <time>2025-08-17T07:06:13.569Z</time>
      </trkpt>
      <trkpt lat="44.24391" lon="0.84568">
        <ele>201</ele>
        <time>2025-08-17T07:06:14.569Z</time>
      </trkpt>
      <trkpt lat="44.24391" lon="0.8457">
        <ele>202</ele>
        <time>2025-08-17T07:06:15.569Z</time>
      </trkpt>
      <trkpt lat="44.24392" lon="0.84571">
        <ele>202</ele>
        <time>2025-08-17T07:06:16.569Z</time>
      </trkpt>
      <trkpt lat="44.24392" lon="0.84572">
        <ele>203</ele>
        <time>2025-08-17T07:06:17.569Z</time>
      </trkpt>
      <trkpt lat="44.24392" lon="0.84574">
        <ele>203</ele>
        <time>2025-08-17T07:06:18.569Z</time>
      </trkpt>
      <trkpt lat="44.24393" lon="0.84575">
        <ele>203</ele>
        <time>2025-08-17T07:06:19.569Z</time>
      </trkpt>
      <trkpt lat="44.24393" lon="0.84576">
        <ele>203</ele>
        <time>2025-08-17T07:06:20.569Z</time>
      </trkpt>
      <trkpt lat="44.24394" lon="0.84578">
        <ele>204</ele>
        <time>2025-08-17T07:06:21.569Z</time>
      </trkpt>
      <trkpt lat="44.24394" lon="0.84579">
        <ele>204</ele>
        <time>2025-08-17T07:06:22.569Z</time>
      </trkpt>
      <trkpt lat="44.24395" lon="0.8458">
        <ele>204</ele>
        <time>2025-08-17T07:06:23.569Z</time>
      </trkpt>
      <trkpt lat="44.24395" lon="0.84582">
        <ele>204</ele>
        <time>2025-08-17T07:06:24.569Z</time>
      </trkpt>
      <trkpt lat="44.24396" lon="0.84583">
        <ele>204</ele>
        <time>2025-08-17T07:06:25.569Z</time>
      </trkpt>
      <trkpt lat="44.24396" lon="0.84585">
        <ele>204</ele>
        <time>2025-08-17T07:06:26.569Z</time>
      </trkpt>
      <trkpt lat="44.24397" lon="0.84586">
        <ele>204</ele>
        <time>2025-08-17T07:06:27.569Z</time>
      </trkpt>
      <trkpt lat="44.24397" lon="0.84587">
        <ele>204</ele>
        <time>2025-08-17T07:06:28.569Z</time>
      </trkpt>
      <trkpt lat="44.24398" lon="0.84589">
        <ele>204</ele>
        <time>2025-08-17T07:06:29.569Z</time>
      </trkpt>
      <trkpt lat="44.24398" lon="0.8459">
        <ele>204</ele>
        <time>2025-08-17T07:06:30.569Z</time>
      </trkpt>
      <trkpt lat="44.24399" lon="0.84591">
        <ele>204</ele>
        <time>2025-08-17T07:06:31.569Z</time>
      </trkpt>
      <trkpt lat="44.24399" lon="0.84592">
        <ele>204</ele>
        <time>2025-08-17T07:06:32.569Z</time>
      </trkpt>
      <trkpt lat="44.244" lon="0.84594">
        <ele>204</ele>
        <time>2025-08-17T07:06:33.569Z</time>
      </trkpt>
      <trkpt lat="44.24401" lon="0.84595">
        <ele>204</ele>
        <time>2025-08-17T07:06:34.569Z</time>
      </trkpt>
      <trkpt lat="44.24401" lon="0.84597">
        <ele>204</ele>
        <time>2025-08-17T07:06:35.569Z</time>
      </trkpt>
      <trkpt lat="44.24402" lon="0.84598">
        <ele>203</ele>
        <time>2025-08-17T07:06:36.569Z</time>
      </trkpt>
      <trkpt lat="44.24402" lon="0.84599">
        <ele>203</ele>
        <time>2025-08-17T07:06:37.569Z</time>
      </trkpt>
      <trkpt lat="44.24403" lon="0.84601">
        <ele>202</ele>
        <time>2025-08-17T07:06:38.569Z</time>
      </trkpt>
      <trkpt lat="44.24403" lon="0.84602">
        <ele>202</ele>
        <time>2025-08-17T07:06:39.569Z</time>
      </trkpt>
      <trkpt lat="44.24404" lon="0.84603">
        <ele>202</ele>
        <time>2025-08-17T07:06:40.569Z</time>
      </trkpt>
      <trkpt lat="44.24404" lon="0.84605">
        <ele>202</ele>
        <time>2025-08-17T07:06:41.569Z</time>
      </trkpt>
      <trkpt lat="44.24405" lon="0.84606">
        <ele>202</ele>
        <time>2025-08-17T07:06:42.569Z</time>
      </trkpt>
      <trkpt lat="44.24405" lon="0.84608">
        <ele>202</ele>
        <time>2025-08-17T07:06:43.569Z</time>
      </trkpt>
      <trkpt lat="44.24406" lon="0.84609">
        <ele>202</ele>
        <time>2025-08-17T07:06:44.569Z</time>
      </trkpt>
      <trkpt lat="44.24406" lon="0.8461">
        <ele>202</ele>
        <time>2025-08-17T07:06:45.569Z</time>
      </trkpt>
      <trkpt lat="44.24407" lon="0.84612">
        <ele>203</ele>
        <time>2025-08-17T07:06:46.569Z</time>
      </trkpt>
      <trkpt lat="44.24407" lon="0.84613">
        <ele>203</ele>
        <time>2025-08-17T07:06:47.569Z</time>
      </trkpt>
      <trkpt lat="44.24408" lon="0.84614">
        <ele>203</ele>
        <time>2025-08-17T07:06:48.569Z</time>
      </trkpt>
      <trkpt lat="44.24408" lon="0.84615">
        <ele>202</ele>
        <time>2025-08-17T07:06:49.569Z</time>
      </trkpt>
      <trkpt lat="44.24409" lon="0.84616">
        <ele>202</ele>
        <time>2025-08-17T07:06:50.569Z</time>
      </trkpt>
      <trkpt lat="44.2441" lon="0.84617">
        <ele>202</ele>
        <time>2025-08-17T07:06:51.569Z</time>
      </trkpt>
      <trkpt lat="44.2441" lon="0.84618">
        <ele>203</ele>
        <time>2025-08-17T07:06:52.569Z</time>
      </trkpt>
      <trkpt lat="44.24411" lon="0.8462">
        <ele>203</ele>
        <time>2025-08-17T07:06:53.569Z</time>
      </trkpt>
      <trkpt lat="44.24411" lon="0.84621">
        <ele>203</ele>
        <time>2025-08-17T07:06:54.569Z</time>
      </trkpt>
      <trkpt lat="44.24411" lon="0.84622">
        <ele>203</ele>
        <time>2025-08-17T07:06:55.569Z</time>
      </trkpt>
      <trkpt lat="44.24412" lon="0.84623">
        <ele>203</ele>
        <time>2025-08-17T07:06:56.569Z</time>
      </trkpt>
      <trkpt lat="44.24413" lon="0.84625">
        <ele>203</ele>
        <time>2025-08-17T07:06:57.569Z</time>
      </trkpt>
      <trkpt lat="44.24413" lon="0.84626">
        <ele>203</ele>
        <time>2025-08-17T07:06:58.569Z</time>
      </trkpt>
      <trkpt lat="44.24414" lon="0.84627">
        <ele>203</ele>
        <time>2025-08-17T07:06:59.569Z</time>
      </trkpt>
      <trkpt lat="44.24414" lon="0.84628">
        <ele>203</ele>
        <time>2025-08-17T07:07:00.569Z</time>
      </trkpt>
      <trkpt lat="44.24414" lon="0.84629">
        <ele>203</ele>
        <time>2025-08-17T07:07:01.569Z</time>
      </trkpt>
      <trkpt lat="44.24415" lon="0.8463">
        <ele>203</ele>
        <time>2025-08-17T07:07:02.569Z</time>
      </trkpt>
      <trkpt lat="44.24415" lon="0.84632">
        <ele>203</ele>
        <time>2025-08-17T07:07:03.569Z</time>
      </trkpt>
      <trkpt lat="44.24415" lon="0.84633">
        <ele>203</ele>
        <time>2025-08-17T07:07:04.569Z</time>
      </trkpt>
      <trkpt lat="44.24416" lon="0.84635">
        <ele>202</ele>
        <time>2025-08-17T07:07:05.569Z</time>
      </trkpt>
      <trkpt lat="44.24416" lon="0.84636">
        <ele>202</ele>
        <time>2025-08-17T07:07:06.569Z</time>
      </trkpt>
      <trkpt lat="44.24416" lon="0.84637">
        <ele>203</ele>
        <time>2025-08-17T07:07:07.569Z</time>
      </trkpt>
      <trkpt lat="44.24417" lon="0.84638">
        <ele>203</ele>
        <time>2025-08-17T07:07:08.569Z</time>
      </trkpt>
      <trkpt lat="44.24417" lon="0.8464">
        <ele>203</ele>
        <time>2025-08-17T07:07:09.569Z</time>
      </trkpt>
      <trkpt lat="44.24418" lon="0.84641">
        <ele>204</ele>
        <time>2025-08-17T07:07:10.569Z</time>
      </trkpt>
      <trkpt lat="44.24418" lon="0.84643">
        <ele>204</ele>
        <time>2025-08-17T07:07:11.569Z</time>
      </trkpt>
      <trkpt lat="44.24419" lon="0.84644">
        <ele>204</ele>
        <time>2025-08-17T07:07:12.569Z</time>
      </trkpt>
      <trkpt lat="44.24419" lon="0.84645">
        <ele>204</ele>
        <time>2025-08-17T07:07:13.569Z</time>
      </trkpt>
      <trkpt lat="44.2442" lon="0.84647">
        <ele>203</ele>
        <time>2025-08-17T07:07:14.569Z</time>
      </trkpt>
      <trkpt lat="44.2442" lon="0.84648">
        <ele>203</ele>
        <time>2025-08-17T07:07:15.569Z</time>
      </trkpt>
      <trkpt lat="44.24421" lon="0.84649">
        <ele>202</ele>
        <time>2025-08-17T07:07:16.569Z</time>
      </trkpt>
      <trkpt lat="44.24421" lon="0.8465">
        <ele>202</ele>
        <time>2025-08-17T07:07:17.569Z</time>
      </trkpt>
      <trkpt lat="44.24422" lon="0.84651">
        <ele>202</ele>
        <time>2025-08-17T07:07:18.569Z</time>
      </trkpt>
      <trkpt lat="44.24422" lon="0.84653">
        <ele>202</ele>
        <time>2025-08-17T07:07:19.569Z</time>
      </trkpt>
      <trkpt lat="44.24423" lon="0.84654">
        <ele>202</ele>
        <time>2025-08-17T07:07:20.569Z</time>
      </trkpt>
      <trkpt lat="44.24423" lon="0.84656">
        <ele>202</ele>
        <time>2025-08-17T07:07:21.569Z</time>
      </trkpt>
      <trkpt lat="44.24424" lon="0.84657">
        <ele>202</ele>
        <time>2025-08-17T07:07:22.569Z</time>
      </trkpt>
      <trkpt lat="44.24424" lon="0.84659">
        <ele>201</ele>
        <time>2025-08-17T07:07:23.569Z</time>
      </trkpt>
      <trkpt lat="44.24425" lon="0.8466">
        <ele>201</ele>
        <time>2025-08-17T07:07:24.569Z</time>
      </trkpt>
      <trkpt lat="44.24426" lon="0.84662">
        <ele>201</ele>
        <time>2025-08-17T07:07:25.569Z</time>
      </trkpt>
      <trkpt lat="44.24426" lon="0.84663">
        <ele>202</ele>
        <time>2025-08-17T07:07:26.569Z</time>
      </trkpt>
      <trkpt lat="44.24426" lon="0.84665">
        <ele>202</ele>
        <time>2025-08-17T07:07:27.569Z</time>
      </trkpt>
      <trkpt lat="44.24427" lon="0.84666">
        <ele>202</ele>
        <time>2025-08-17T07:07:28.569Z</time>
      </trkpt>
      <trkpt lat="44.24427" lon="0.84667">
        <ele>202</ele>
        <time>2025-08-17T07:07:29.569Z</time>
      </trkpt>
      <trkpt lat="44.24428" lon="0.84668">
        <ele>201</ele>
        <time>2025-08-17T07:07:30.569Z</time>
      </trkpt>
      <trkpt lat="44.24428" lon="0.84669">
        <ele>201</ele>
        <time>2025-08-17T07:07:31.569Z</time>
      </trkpt>
      <trkpt lat="44.24429" lon="0.8467">
        <ele>201</ele>
        <time>2025-08-17T07:07:32.569Z</time>
      </trkpt>
      <trkpt lat="44.24429" lon="0.84671">
        <ele>201</ele>
        <time>2025-08-17T07:07:33.569Z</time>
      </trkpt>
      <trkpt lat="44.2443" lon="0.84673">
        <ele>201</ele>
        <time>2025-08-17T07:07:34.569Z</time>
      </trkpt>
      <trkpt lat="44.2443" lon="0.84674">
        <ele>201</ele>
        <time>2025-08-17T07:07:35.569Z</time>
      </trkpt>
      <trkpt lat="44.24431" lon="0.84676">
        <ele>201</ele>
        <time>2025-08-17T07:07:36.569Z</time>
      </trkpt>
      <trkpt lat="44.24432" lon="0.84678">
        <ele>201</ele>
        <time>2025-08-17T07:07:37.569Z</time>
      </trkpt>
      <trkpt lat="44.24432" lon="0.84679">
        <ele>201</ele>
        <time>2025-08-17T07:07:38.569Z</time>
      </trkpt>
      <trkpt lat="44.24433" lon="0.84681">
        <ele>201</ele>
        <time>2025-08-17T07:07:39.569Z</time>
      </trkpt>
      <trkpt lat="44.24434" lon="0.84683">
        <ele>201</ele>
        <time>2025-08-17T07:07:40.569Z</time>
      </trkpt>
      <trkpt lat="44.24435" lon="0.84685">
        <ele>201</ele>
        <time>2025-08-17T07:07:41.569Z</time>
      </trkpt>
      <trkpt lat="44.24435" lon="0.84686">
        <ele>201</ele>
        <time>2025-08-17T07:07:42.569Z</time>
      </trkpt>
      <trkpt lat="44.24436" lon="0.84688">
        <ele>201</ele>
        <time>2025-08-17T07:07:43.569Z</time>
      </trkpt>
      <trkpt lat="44.24436" lon="0.84689">
        <ele>201</ele>
        <time>2025-08-17T07:07:44.569Z</time>
      </trkpt>
      <trkpt lat="44.24436" lon="0.8469">
        <ele>201</ele>
        <time>2025-08-17T07:07:45.569Z</time>
      </trkpt>
      <trkpt lat="44.24437" lon="0.84691">
        <ele>201</ele>
        <time>2025-08-17T07:07:46.569Z</time>
      </trkpt>
      <trkpt lat="44.24438" lon="0.84693">
        <ele>201</ele>
        <time>2025-08-17T07:07:47.569Z</time>
      </trkpt>
      <trkpt lat="44.24438" lon="0.84695">
        <ele>201</ele>
        <time>2025-08-17T07:07:48.569Z</time>
      </trkpt>
      <trkpt lat="44.24439" lon="0.84696">
        <ele>201</ele>
        <time>2025-08-17T07:07:49.569Z</time>
      </trkpt>
      <trkpt lat="44.24439" lon="0.84698">
        <ele>201</ele>
        <time>2025-08-17T07:07:50.569Z</time>
      </trkpt>
      <trkpt lat="44.2444" lon="0.847">
        <ele>201</ele>
        <time>2025-08-17T07:07:51.569Z</time>
      </trkpt>
      <trkpt lat="44.2444" lon="0.84701">
        <ele>201</ele>
        <time>2025-08-17T07:07:52.569Z</time>
      </trkpt>
      <trkpt lat="44.24441" lon="0.84702">
        <ele>201</ele>
        <time>2025-08-17T07:07:53.569Z</time>
      </trkpt>
      <trkpt lat="44.24441" lon="0.84704">
        <ele>201</ele>
        <time>2025-08-17T07:07:54.569Z</time>
      </trkpt>
      <trkpt lat="44.24442" lon="0.84705">
        <ele>201</ele>
        <time>2025-08-17T07:07:55.569Z</time>
      </trkpt>
      <trkpt lat="44.24442" lon="0.84706">
        <ele>202</ele>
        <time>2025-08-17T07:07:56.569Z</time>
      </trkpt>
      <trkpt lat="44.24442" lon="0.84707">
        <ele>202</ele>
        <time>2025-08-17T07:07:57.569Z</time>
      </trkpt>
      <trkpt lat="44.24443" lon="0.84709">
        <ele>202</ele>
        <time>2025-08-17T07:07:58.569Z</time>
      </trkpt>
      <trkpt lat="44.24444" lon="0.8471">
        <ele>202</ele>
        <time>2025-08-17T07:07:59.569Z</time>
      </trkpt>
      <trkpt lat="44.24444" lon="0.84712">
        <ele>202</ele>
        <time>2025-08-17T07:08:00.569Z</time>
      </trkpt>
      <trkpt lat="44.24445" lon="0.84713">
        <ele>202</ele>
        <time>2025-08-17T07:08:01.569Z</time>
      </trkpt>
      <trkpt lat="44.24446" lon="0.84715">
        <ele>202</ele>
        <time>2025-08-17T07:08:02.569Z</time>
      </trkpt>
      <trkpt lat="44.24446" lon="0.84716">
        <ele>202</ele>
        <time>2025-08-17T07:08:03.569Z</time>
      </trkpt>
      <trkpt lat="44.24447" lon="0.84717">
        <ele>202</ele>
        <time>2025-08-17T07:08:04.569Z</time>
      </trkpt>
      <trkpt lat="44.24447" lon="0.84718">
        <ele>202</ele>
        <time>2025-08-17T07:08:05.569Z</time>
      </trkpt>
      <trkpt lat="44.24447" lon="0.8472">
        <ele>202</ele>
        <time>2025-08-17T07:08:06.569Z</time>
      </trkpt>
      <trkpt lat="44.24448" lon="0.84722">
        <ele>202</ele>
        <time>2025-08-17T07:08:07.569Z</time>
      </trkpt>
      <trkpt lat="44.24448" lon="0.84723">
        <ele>202</ele>
        <time>2025-08-17T07:08:08.569Z</time>
      </trkpt>
      <trkpt lat="44.24449" lon="0.84724">
        <ele>202</ele>
        <time>2025-08-17T07:08:09.569Z</time>
      </trkpt>
      <trkpt lat="44.24449" lon="0.84726">
        <ele>202</ele>
        <time>2025-08-17T07:08:10.569Z</time>
      </trkpt>
      <trkpt lat="44.2445" lon="0.84727">
        <ele>202</ele>
        <time>2025-08-17T07:08:11.569Z</time>
      </trkpt>
      <trkpt lat="44.2445" lon="0.84728">
        <ele>202</ele>
        <time>2025-08-17T07:08:12.569Z</time>
      </trkpt>
      <trkpt lat="44.2445" lon="0.84729">
        <ele>202</ele>
        <time>2025-08-17T07:08:13.569Z</time>
      </trkpt>
      <trkpt lat="44.24451" lon="0.84731">
        <ele>202</ele>
        <time>2025-08-17T07:08:14.569Z</time>
      </trkpt>
      <trkpt lat="44.24451" lon="0.84733">
        <ele>202</ele>
        <time>2025-08-17T07:08:15.569Z</time>
      </trkpt>
      <trkpt lat="44.24452" lon="0.84734">
        <ele>201</ele>
        <time>2025-08-17T07:08:16.569Z</time>
      </trkpt>
      <trkpt lat="44.24453" lon="0.84736">
        <ele>201</ele>
        <time>2025-08-17T07:08:17.569Z</time>
      </trkpt>
      <trkpt lat="44.24453" lon="0.84738">
        <ele>202</ele>
        <time>2025-08-17T07:08:18.569Z</time>
      </trkpt>
      <trkpt lat="44.24454" lon="0.8474">
        <ele>202</ele>
        <time>2025-08-17T07:08:19.569Z</time>
      </trkpt>
      <trkpt lat="44.24454" lon="0.84741">
        <ele>202</ele>
        <time>2025-08-17T07:08:20.569Z</time>
      </trkpt>
      <trkpt lat="44.24455" lon="0.84742">
        <ele>203</ele>
        <time>2025-08-17T07:08:21.569Z</time>
      </trkpt>
      <trkpt lat="44.24455" lon="0.84744">
        <ele>203</ele>
        <time>2025-08-17T07:08:22.569Z</time>
      </trkpt>
      <trkpt lat="44.24455" lon="0.84745">
        <ele>203</ele>
        <time>2025-08-17T07:08:23.569Z</time>
      </trkpt>
      <trkpt lat="44.24456" lon="0.84746">
        <ele>203</ele>
        <time>2025-08-17T07:08:24.569Z</time>
      </trkpt>
      <trkpt lat="44.24456" lon="0.84748">
        <ele>203</ele>
        <time>2025-08-17T07:08:25.569Z</time>
      </trkpt>
      <trkpt lat="44.24457" lon="0.8475">
        <ele>203</ele>
        <time>2025-08-17T07:08:26.569Z</time>
      </trkpt>
      <trkpt lat="44.24457" lon="0.84751">
        <ele>202</ele>
        <time>2025-08-17T07:08:27.569Z</time>
      </trkpt>
      <trkpt lat="44.24458" lon="0.84753">
        <ele>202</ele>
        <time>2025-08-17T07:08:28.569Z</time>
      </trkpt>
      <trkpt lat="44.24459" lon="0.84755">
        <ele>202</ele>
        <time>2025-08-17T07:08:29.569Z</time>
      </trkpt>
      <trkpt lat="44.2446" lon="0.84756">
        <ele>202</ele>
        <time>2025-08-17T07:08:30.569Z</time>
      </trkpt>
      <trkpt lat="44.2446" lon="0.84758">
        <ele>202</ele>
        <time>2025-08-17T07:08:31.569Z</time>
      </trkpt>
      <trkpt lat="44.24461" lon="0.84759">
        <ele>202</ele>
        <time>2025-08-17T07:08:32.569Z</time>
      </trkpt>
      <trkpt lat="44.24461" lon="0.84761">
        <ele>202</ele>
        <time>2025-08-17T07:08:33.569Z</time>
      </trkpt>
      <trkpt lat="44.24461" lon="0.84762">
        <ele>202</ele>
        <time>2025-08-17T07:08:34.569Z</time>
      </trkpt>
      <trkpt lat="44.24462" lon="0.84764">
        <ele>202</ele>
        <time>2025-08-17T07:08:35.569Z</time>
      </trkpt>
      <trkpt lat="44.24463" lon="0.84766">
        <ele>201</ele>
        <time>2025-08-17T07:08:36.569Z</time>
      </trkpt>
      <trkpt lat="44.24463" lon="0.84768">
        <ele>202</ele>
        <time>2025-08-17T07:08:37.569Z</time>
      </trkpt>
      <trkpt lat="44.24464" lon="0.84769">
        <ele>201</ele>
        <time>2025-08-17T07:08:38.569Z</time>
      </trkpt>
      <trkpt lat="44.24464" lon="0.84771">
        <ele>201</ele>
        <time>2025-08-17T07:08:39.569Z</time>
      </trkpt>
      <trkpt lat="44.24465" lon="0.84773">
        <ele>201</ele>
        <time>2025-08-17T07:08:40.569Z</time>
      </trkpt>
      <trkpt lat="44.24465" lon="0.84774">
        <ele>201</ele>
        <time>2025-08-17T07:08:41.569Z</time>
      </trkpt>
      <trkpt lat="44.24466" lon="0.84776">
        <ele>201</ele>
        <time>2025-08-17T07:08:42.569Z</time>
      </trkpt>
      <trkpt lat="44.24466" lon="0.84777">
        <ele>201</ele>
        <time>2025-08-17T07:08:43.569Z</time>
      </trkpt>
      <trkpt lat="44.24467" lon="0.84778">
        <ele>200</ele>
        <time>2025-08-17T07:08:44.569Z</time>
      </trkpt>
      <trkpt lat="44.24467" lon="0.8478">
        <ele>200</ele>
        <time>2025-08-17T07:08:45.569Z</time>
      </trkpt>
      <trkpt lat="44.24468" lon="0.84781">
        <ele>201</ele>
        <time>2025-08-17T07:08:46.569Z</time>
      </trkpt>
      <trkpt lat="44.24469" lon="0.84783">
        <ele>201</ele>
        <time>2025-08-17T07:08:47.569Z</time>
      </trkpt>
      <trkpt lat="44.24469" lon="0.84784">
        <ele>201</ele>
        <time>2025-08-17T07:08:48.569Z</time>
      </trkpt>
      <trkpt lat="44.2447" lon="0.84786">
        <ele>201</ele>
        <time>2025-08-17T07:08:49.569Z</time>
      </trkpt>
      <trkpt lat="44.24471" lon="0.84787">
        <ele>201</ele>
        <time>2025-08-17T07:08:50.569Z</time>
      </trkpt>
      <trkpt lat="44.24471" lon="0.84789">
        <ele>201</ele>
        <time>2025-08-17T07:08:51.569Z</time>
      </trkpt>
      <trkpt lat="44.24472" lon="0.84791">
        <ele>201</ele>
        <time>2025-08-17T07:08:52.569Z</time>
      </trkpt>
      <trkpt lat="44.24473" lon="0.84793">
        <ele>201</ele>
        <time>2025-08-17T07:08:53.569Z</time>
      </trkpt>
      <trkpt lat="44.24473" lon="0.84795">
        <ele>201</ele>
        <time>2025-08-17T07:08:54.569Z</time>
      </trkpt>
      <trkpt lat="44.24474" lon="0.84796">
        <ele>201</ele>
        <time>2025-08-17T07:08:55.569Z</time>
      </trkpt>
      <trkpt lat="44.24475" lon="0.84798">
        <ele>201</ele>
        <time>2025-08-17T07:08:56.569Z</time>
      </trkpt>
      <trkpt lat="44.24475" lon="0.84799">
        <ele>201</ele>
        <time>2025-08-17T07:08:57.569Z</time>
      </trkpt>
      <trkpt lat="44.24476" lon="0.848">
        <ele>202</ele>
        <time>2025-08-17T07:08:58.569Z</time>
      </trkpt>
      <trkpt lat="44.24476" lon="0.84802">
        <ele>202</ele>
        <time>2025-08-17T07:08:59.569Z</time>
      </trkpt>
      <trkpt lat="44.24477" lon="0.84803">
        <ele>202</ele>
        <time>2025-08-17T07:09:00.569Z</time>
      </trkpt>
      <trkpt lat="44.24478" lon="0.84805">
        <ele>202</ele>
        <time>2025-08-17T07:09:01.569Z</time>
      </trkpt>
      <trkpt lat="44.24479" lon="0.84806">
        <ele>202</ele>
        <time>2025-08-17T07:09:02.569Z</time>
      </trkpt>
      <trkpt lat="44.2448" lon="0.84808">
        <ele>202</ele>
        <time>2025-08-17T07:09:03.569Z</time>
      </trkpt>
      <trkpt lat="44.2448" lon="0.8481">
        <ele>202</ele>
        <time>2025-08-17T07:09:04.569Z</time>
      </trkpt>
      <trkpt lat="44.24481" lon="0.84811">
        <ele>202</ele>
        <time>2025-08-17T07:09:05.569Z</time>
      </trkpt>
      <trkpt lat="44.24482" lon="0.84813">
        <ele>201</ele>
        <time>2025-08-17T07:09:06.569Z</time>
      </trkpt>
      <trkpt lat="44.24483" lon="0.84815">
        <ele>201</ele>
        <time>2025-08-17T07:09:07.569Z</time>
      </trkpt>
      <trkpt lat="44.24484" lon="0.84816">
        <ele>201</ele>
        <time>2025-08-17T07:09:08.569Z</time>
      </trkpt>
      <trkpt lat="44.24484" lon="0.84817">
        <ele>201</ele>
        <time>2025-08-17T07:09:09.569Z</time>
      </trkpt>
      <trkpt lat="44.24485" lon="0.84819">
        <ele>201</ele>
        <time>2025-08-17T07:09:10.569Z</time>
      </trkpt>
      <trkpt lat="44.24485" lon="0.8482">
        <ele>201</ele>
        <time>2025-08-17T07:09:11.569Z</time>
      </trkpt>
      <trkpt lat="44.24486" lon="0.84822">
        <ele>201</ele>
        <time>2025-08-17T07:09:12.569Z</time>
      </trkpt>
      <trkpt lat="44.24487" lon="0.84823">
        <ele>201</ele>
        <time>2025-08-17T07:09:13.569Z</time>
      </trkpt>
      <trkpt lat="44.24487" lon="0.84825">
        <ele>201</ele>
        <time>2025-08-17T07:09:14.569Z</time>
      </trkpt>
      <trkpt lat="44.24488" lon="0.84826">
        <ele>202</ele>
        <time>2025-08-17T07:09:15.569Z</time>
      </trkpt>
      <trkpt lat="44.24489" lon="0.84828">
        <ele>202</ele>
        <time>2025-08-17T07:09:16.569Z</time>
      </trkpt>
      <trkpt lat="44.2449" lon="0.8483">
        <ele>202</ele>
        <time>2025-08-17T07:09:17.569Z</time>
      </trkpt>
      <trkpt lat="44.24491" lon="0.84831">
        <ele>202</ele>
        <time>2025-08-17T07:09:18.569Z</time>
      </trkpt>
      <trkpt lat="44.24492" lon="0.84833">
        <ele>202</ele>
        <time>2025-08-17T07:09:19.569Z</time>
      </trkpt>
      <trkpt lat="44.24492" lon="0.84834">
        <ele>202</ele>
        <time>2025-08-17T07:09:20.569Z</time>
      </trkpt>
      <trkpt lat="44.24493" lon="0.84836">
        <ele>202</ele>
        <time>2025-08-17T07:09:21.569Z</time>
      </trkpt>
      <trkpt lat="44.24494" lon="0.84837">
        <ele>202</ele>
        <time>2025-08-17T07:09:22.569Z</time>
      </trkpt>
      <trkpt lat="44.24494" lon="0.84838">
        <ele>201</ele>
        <time>2025-08-17T07:09:23.569Z</time>
      </trkpt>
      <trkpt lat="44.24495" lon="0.84839">
        <ele>201</ele>
        <time>2025-08-17T07:09:24.569Z</time>
      </trkpt>
      <trkpt lat="44.24495" lon="0.84841">
        <ele>201</ele>
        <time>2025-08-17T07:09:25.569Z</time>
      </trkpt>
      <trkpt lat="44.24496" lon="0.84842">
        <ele>201</ele>
        <time>2025-08-17T07:09:26.569Z</time>
      </trkpt>
      <trkpt lat="44.24497" lon="0.84844">
        <ele>201</ele>
        <time>2025-08-17T07:09:27.569Z</time>
      </trkpt>
      <trkpt lat="44.24497" lon="0.84846">
        <ele>202</ele>
        <time>2025-08-17T07:09:28.569Z</time>
      </trkpt>
      <trkpt lat="44.24498" lon="0.84847">
        <ele>202</ele>
        <time>2025-08-17T07:09:29.569Z</time>
      </trkpt>
      <trkpt lat="44.24498" lon="0.84848">
        <ele>202</ele>
        <time>2025-08-17T07:09:30.569Z</time>
      </trkpt>
      <trkpt lat="44.24499" lon="0.8485">
        <ele>202</ele>
        <time>2025-08-17T07:09:31.569Z</time>
      </trkpt>
      <trkpt lat="44.24499" lon="0.84851">
        <ele>202</ele>
        <time>2025-08-17T07:09:32.569Z</time>
      </trkpt>
      <trkpt lat="44.245" lon="0.84852">
        <ele>202</ele>
        <time>2025-08-17T07:09:33.569Z</time>
      </trkpt>
      <trkpt lat="44.245" lon="0.84853">
        <ele>202</ele>
        <time>2025-08-17T07:09:34.569Z</time>
      </trkpt>
      <trkpt lat="44.24501" lon="0.84855">
        <ele>202</ele>
        <time>2025-08-17T07:09:35.569Z</time>
      </trkpt>
      <trkpt lat="44.24501" lon="0.84856">
        <ele>202</ele>
        <time>2025-08-17T07:09:36.569Z</time>
      </trkpt>
      <trkpt lat="44.24502" lon="0.84858">
        <ele>201</ele>
        <time>2025-08-17T07:09:37.569Z</time>
      </trkpt>
      <trkpt lat="44.24503" lon="0.84859">
        <ele>201</ele>
        <time>2025-08-17T07:09:38.569Z</time>
      </trkpt>
      <trkpt lat="44.24504" lon="0.8486">
        <ele>202</ele>
        <time>2025-08-17T07:09:39.569Z</time>
      </trkpt>
      <trkpt lat="44.24504" lon="0.84861">
        <ele>202</ele>
        <time>2025-08-17T07:09:40.569Z</time>
      </trkpt>
      <trkpt lat="44.24505" lon="0.84863">
        <ele>202</ele>
        <time>2025-08-17T07:09:41.569Z</time>
      </trkpt>
      <trkpt lat="44.24506" lon="0.84864">
        <ele>203</ele>
        <time>2025-08-17T07:09:42.569Z</time>
      </trkpt>
      <trkpt lat="44.24506" lon="0.84866">
        <ele>203</ele>
        <time>2025-08-17T07:09:43.569Z</time>
      </trkpt>
      <trkpt lat="44.24507" lon="0.84867">
        <ele>203</ele>
        <time>2025-08-17T07:09:44.569Z</time>
      </trkpt>
      <trkpt lat="44.24508" lon="0.84869">
        <ele>203</ele>
        <time>2025-08-17T07:09:45.569Z</time>
      </trkpt>
      <trkpt lat="44.24508" lon="0.84871">
        <ele>203</ele>
        <time>2025-08-17T07:09:46.569Z</time>
      </trkpt>
      <trkpt lat="44.24509" lon="0.84872">
        <ele>203</ele>
        <time>2025-08-17T07:09:47.569Z</time>
      </trkpt>
      <trkpt lat="44.2451" lon="0.84874">
        <ele>203</ele>
        <time>2025-08-17T07:09:48.569Z</time>
      </trkpt>
      <trkpt lat="44.24511" lon="0.84875">
        <ele>202</ele>
        <time>2025-08-17T07:09:49.569Z</time>
      </trkpt>
      <trkpt lat="44.24511" lon="0.84876">
        <ele>202</ele>
        <time>2025-08-17T07:09:50.569Z</time>
      </trkpt>
      <trkpt lat="44.24512" lon="0.84878">
        <ele>202</ele>
        <time>2025-08-17T07:09:51.569Z</time>
      </trkpt>
      <trkpt lat="44.24513" lon="0.84879">
        <ele>202</ele>
        <time>2025-08-17T07:09:52.569Z</time>
      </trkpt>
      <trkpt lat="44.24514" lon="0.84881">
        <ele>202</ele>
        <time>2025-08-17T07:09:53.569Z</time>
      </trkpt>
      <trkpt lat="44.24514" lon="0.84882">
        <ele>202</ele>
        <time>2025-08-17T07:09:54.569Z</time>
      </trkpt>
      <trkpt lat="44.24515" lon="0.84884">
        <ele>202</ele>
        <time>2025-08-17T07:09:55.569Z</time>
      </trkpt>
      <trkpt lat="44.24515" lon="0.84885">
        <ele>202</ele>
        <time>2025-08-17T07:09:56.569Z</time>
      </trkpt>
      <trkpt lat="44.24516" lon="0.84887">
        <ele>202</ele>
        <time>2025-08-17T07:09:57.569Z</time>
      </trkpt>
      <trkpt lat="44.24517" lon="0.84889">
        <ele>202</ele>
        <time>2025-08-17T07:09:58.569Z</time>
      </trkpt>
      <trkpt lat="44.24518" lon="0.8489">
        <ele>202</ele>
        <time>2025-08-17T07:09:59.569Z</time>
      </trkpt>
      <trkpt lat="44.24519" lon="0.84891">
        <ele>202</ele>
        <time>2025-08-17T07:10:00.569Z</time>
      </trkpt>
      <trkpt lat="44.24519" lon="0.84893">
        <ele>202</ele>
        <time>2025-08-17T07:10:01.569Z</time>
      </trkpt>
      <trkpt lat="44.2452" lon="0.84894">
        <ele>202</ele>
        <time>2025-08-17T07:10:02.569Z</time>
      </trkpt>
      <trkpt lat="44.2452" lon="0.84895">
        <ele>202</ele>
        <time>2025-08-17T07:10:03.569Z</time>
      </trkpt>
      <trkpt lat="44.24521" lon="0.84897">
        <ele>203</ele>
        <time>2025-08-17T07:10:04.569Z</time>
      </trkpt>
      <trkpt lat="44.24522" lon="0.84898">
        <ele>203</ele>
        <time>2025-08-17T07:10:05.569Z</time>
      </trkpt>
      <trkpt lat="44.24523" lon="0.849">
        <ele>203</ele>
        <time>2025-08-17T07:10:06.569Z</time>
      </trkpt>
      <trkpt lat="44.24524" lon="0.84901">
        <ele>203</ele>
        <time>2025-08-17T07:10:07.569Z</time>
      </trkpt>
      <trkpt lat="44.24524" lon="0.84903">
        <ele>203</ele>
        <time>2025-08-17T07:10:08.569Z</time>
      </trkpt>
      <trkpt lat="44.24525" lon="0.84904">
        <ele>203</ele>
        <time>2025-08-17T07:10:09.569Z</time>
      </trkpt>
      <trkpt lat="44.24526" lon="0.84906">
        <ele>203</ele>
        <time>2025-08-17T07:10:10.569Z</time>
      </trkpt>
      <trkpt lat="44.24527" lon="0.84907">
        <ele>203</ele>
        <time>2025-08-17T07:10:11.569Z</time>
      </trkpt>
      <trkpt lat="44.24527" lon="0.84909">
        <ele>203</ele>
        <time>2025-08-17T07:10:12.569Z</time>
      </trkpt>
      <trkpt lat="44.24527" lon="0.8491">
        <ele>203</ele>
        <time>2025-08-17T07:10:13.569Z</time>
      </trkpt>
      <trkpt lat="44.24527" lon="0.84911">
        <ele>203</ele>
        <time>2025-08-17T07:10:14.569Z</time>
      </trkpt>
      <trkpt lat="44.24527" lon="0.84912">
        <ele>203</ele>
        <time>2025-08-17T07:10:15.569Z</time>
      </trkpt>
      <trkpt lat="44.24527" lon="0.84912">
        <ele>203</ele>
        <time>2025-08-17T07:10:16.569Z</time>
      </trkpt>
      <trkpt lat="44.24527" lon="0.84913">
        <ele>203</ele>
        <time>2025-08-17T07:10:17.569Z</time>
      </trkpt>
      <trkpt lat="44.24527" lon="0.84913">
        <ele>203</ele>
        <time>2025-08-17T07:10:18.569Z</time>
      </trkpt>
      <trkpt lat="44.24527" lon="0.84914">
        <ele>203</ele>
        <time>2025-08-17T07:10:19.569Z</time>
      </trkpt>
      <trkpt lat="44.24527" lon="0.84914">
        <ele>203</ele>
        <time>2025-08-17T07:10:20.569Z</time>
      </trkpt>
      <trkpt lat="44.24527" lon="0.84914">
        <ele>203</ele>
        <time>2025-08-17T07:10:21.569Z</time>
      </trkpt>
      <trkpt lat="44.24527" lon="0.84915">
        <ele>203</ele>
        <time>2025-08-17T07:10:22.569Z</time>
      </trkpt>
      <trkpt lat="44.24527" lon="0.84916">
        <ele>203</ele>
        <time>2025-08-17T07:10:23.569Z</time>
      </trkpt>
      <trkpt lat="44.24528" lon="0.84917">
        <ele>203</ele>
        <time>2025-08-17T07:10:24.569Z</time>
      </trkpt>
      <trkpt lat="44.24529" lon="0.84918">
        <ele>203</ele>
        <time>2025-08-17T07:10:25.569Z</time>
      </trkpt>
      <trkpt lat="44.2453" lon="0.84919">
        <ele>203</ele>
        <time>2025-08-17T07:10:26.569Z</time>
      </trkpt>
      <trkpt lat="44.24531" lon="0.8492">
        <ele>203</ele>
        <time>2025-08-17T07:10:27.569Z</time>
      </trkpt>
      <trkpt lat="44.24531" lon="0.84921">
        <ele>203</ele>
        <time>2025-08-17T07:10:28.569Z</time>
      </trkpt>
      <trkpt lat="44.24532" lon="0.84922">
        <ele>203</ele>
        <time>2025-08-17T07:10:29.569Z</time>
      </trkpt>
      <trkpt lat="44.24533" lon="0.84923">
        <ele>203</ele>
        <time>2025-08-17T07:10:30.569Z</time>
      </trkpt>
      <trkpt lat="44.24534" lon="0.84924">
        <ele>203</ele>
        <time>2025-08-17T07:10:31.569Z</time>
      </trkpt>
      <trkpt lat="44.24534" lon="0.84926">
        <ele>203</ele>
        <time>2025-08-17T07:10:32.569Z</time>
      </trkpt>
      <trkpt lat="44.24535" lon="0.84927">
        <ele>203</ele>
        <time>2025-08-17T07:10:33.569Z</time>
      </trkpt>
      <trkpt lat="44.24536" lon="0.84929">
        <ele>203</ele>
        <time>2025-08-17T07:10:34.569Z</time>
      </trkpt>
      <trkpt lat="44.24537" lon="0.8493">
        <ele>204</ele>
        <time>2025-08-17T07:10:35.569Z</time>
      </trkpt>
      <trkpt lat="44.24537" lon="0.84932">
        <ele>204</ele>
        <time>2025-08-17T07:10:36.569Z</time>
      </trkpt>
      <trkpt lat="44.24538" lon="0.84933">
        <ele>204</ele>
        <time>2025-08-17T07:10:37.569Z</time>
      </trkpt>
      <trkpt lat="44.24538" lon="0.84934">
        <ele>204</ele>
        <time>2025-08-17T07:10:38.569Z</time>
      </trkpt>
      <trkpt lat="44.24539" lon="0.84935">
        <ele>204</ele>
        <time>2025-08-17T07:10:39.569Z</time>
      </trkpt>
      <trkpt lat="44.2454" lon="0.84937">
        <ele>204</ele>
        <time>2025-08-17T07:10:40.569Z</time>
      </trkpt>
      <trkpt lat="44.24541" lon="0.84938">
        <ele>204</ele>
        <time>2025-08-17T07:10:41.569Z</time>
      </trkpt>
      <trkpt lat="44.24541" lon="0.84939">
        <ele>204</ele>
        <time>2025-08-17T07:10:42.569Z</time>
      </trkpt>
      <trkpt lat="44.24542" lon="0.84941">
        <ele>204</ele>
        <time>2025-08-17T07:10:43.569Z</time>
      </trkpt>
      <trkpt lat="44.24543" lon="0.84943">
        <ele>204</ele>
        <time>2025-08-17T07:10:44.569Z</time>
      </trkpt>
      <trkpt lat="44.24544" lon="0.84944">
        <ele>204</ele>
        <time>2025-08-17T07:10:45.569Z</time>
      </trkpt>
      <trkpt lat="44.24544" lon="0.84945">
        <ele>204</ele>
        <time>2025-08-17T07:10:46.569Z</time>
      </trkpt>
      <trkpt lat="44.24545" lon="0.84947">
        <ele>204</ele>
        <time>2025-08-17T07:10:47.569Z</time>
      </trkpt>
      <trkpt lat="44.24545" lon="0.84948">
        <ele>204</ele>
        <time>2025-08-17T07:10:48.569Z</time>
      </trkpt>
      <trkpt lat="44.24546" lon="0.84949">
        <ele>204</ele>
        <time>2025-08-17T07:10:49.569Z</time>
      </trkpt>
      <trkpt lat="44.24547" lon="0.84951">
        <ele>204</ele>
        <time>2025-08-17T07:10:50.569Z</time>
      </trkpt>
      <trkpt lat="44.24548" lon="0.84952">
        <ele>204</ele>
        <time>2025-08-17T07:10:51.569Z</time>
      </trkpt>
      <trkpt lat="44.24548" lon="0.84953">
        <ele>204</ele>
        <time>2025-08-17T07:10:52.569Z</time>
      </trkpt>
      <trkpt lat="44.24549" lon="0.84955">
        <ele>204</ele>
        <time>2025-08-17T07:10:53.569Z</time>
      </trkpt>
      <trkpt lat="44.2455" lon="0.84956">
        <ele>204</ele>
        <time>2025-08-17T07:10:54.569Z</time>
      </trkpt>
      <trkpt lat="44.24551" lon="0.84958">
        <ele>205</ele>
        <time>2025-08-17T07:10:55.569Z</time>
      </trkpt>
      <trkpt lat="44.24552" lon="0.84959">
        <ele>205</ele>
        <time>2025-08-17T07:10:56.569Z</time>
      </trkpt>
      <trkpt lat="44.24552" lon="0.8496">
        <ele>204</ele>
        <time>2025-08-17T07:10:57.569Z</time>
      </trkpt>
      <trkpt lat="44.24553" lon="0.84962">
        <ele>204</ele>
        <time>2025-08-17T07:10:58.569Z</time>
      </trkpt>
      <trkpt lat="44.24554" lon="0.84963">
        <ele>204</ele>
        <time>2025-08-17T07:10:59.569Z</time>
      </trkpt>
      <trkpt lat="44.24555" lon="0.84964">
        <ele>205</ele>
        <time>2025-08-17T07:11:00.569Z</time>
      </trkpt>
      <trkpt lat="44.24556" lon="0.84966">
        <ele>205</ele>
        <time>2025-08-17T07:11:01.569Z</time>
      </trkpt>
      <trkpt lat="44.24556" lon="0.84967">
        <ele>204</ele>
        <time>2025-08-17T07:11:02.569Z</time>
      </trkpt>
      <trkpt lat="44.24557" lon="0.84969">
        <ele>204</ele>
        <time>2025-08-17T07:11:03.569Z</time>
      </trkpt>
      <trkpt lat="44.24558" lon="0.84971">
        <ele>204</ele>
        <time>2025-08-17T07:11:04.569Z</time>
      </trkpt>
      <trkpt lat="44.24559" lon="0.84972">
        <ele>204</ele>
        <time>2025-08-17T07:11:05.569Z</time>
      </trkpt>
      <trkpt lat="44.24559" lon="0.84974">
        <ele>204</ele>
        <time>2025-08-17T07:11:06.569Z</time>
      </trkpt>
      <trkpt lat="44.2456" lon="0.84975">
        <ele>204</ele>
        <time>2025-08-17T07:11:07.569Z</time>
      </trkpt>
      <trkpt lat="44.24561" lon="0.84976">
        <ele>204</ele>
        <time>2025-08-17T07:11:08.569Z</time>
      </trkpt>
      <trkpt lat="44.24561" lon="0.84977">
        <ele>204</ele>
        <time>2025-08-17T07:11:09.569Z</time>
      </trkpt>
      <trkpt lat="44.24562" lon="0.84979">
        <ele>204</ele>
        <time>2025-08-17T07:11:10.569Z</time>
      </trkpt>
      <trkpt lat="44.24563" lon="0.8498">
        <ele>205</ele>
        <time>2025-08-17T07:11:11.569Z</time>
      </trkpt>
      <trkpt lat="44.24564" lon="0.84981">
        <ele>205</ele>
        <time>2025-08-17T07:11:12.569Z</time>
      </trkpt>
      <trkpt lat="44.24565" lon="0.84983">
        <ele>205</ele>
        <time>2025-08-17T07:11:13.569Z</time>
      </trkpt>
      <trkpt lat="44.24566" lon="0.84984">
        <ele>205</ele>
        <time>2025-08-17T07:11:14.569Z</time>
      </trkpt>
      <trkpt lat="44.24567" lon="0.84986">
        <ele>205</ele>
        <time>2025-08-17T07:11:15.569Z</time>
      </trkpt>
      <trkpt lat="44.24567" lon="0.84987">
        <ele>205</ele>
        <time>2025-08-17T07:11:16.569Z</time>
      </trkpt>
      <trkpt lat="44.24568" lon="0.84988">
        <ele>205</ele>
        <time>2025-08-17T07:11:17.569Z</time>
      </trkpt>
      <trkpt lat="44.24569" lon="0.8499">
        <ele>205</ele>
        <time>2025-08-17T07:11:18.569Z</time>
      </trkpt>
      <trkpt lat="44.2457" lon="0.84991">
        <ele>205</ele>
        <time>2025-08-17T07:11:19.569Z</time>
      </trkpt>
      <trkpt lat="44.24571" lon="0.84992">
        <ele>205</ele>
        <time>2025-08-17T07:11:20.569Z</time>
      </trkpt>
      <trkpt lat="44.24572" lon="0.84994">
        <ele>205</ele>
        <time>2025-08-17T07:11:21.569Z</time>
      </trkpt>
      <trkpt lat="44.24573" lon="0.84995">
        <ele>205</ele>
        <time>2025-08-17T07:11:22.569Z</time>
      </trkpt>
      <trkpt lat="44.24574" lon="0.84997">
        <ele>205</ele>
        <time>2025-08-17T07:11:23.569Z</time>
      </trkpt>
      <trkpt lat="44.24574" lon="0.84998">
        <ele>205</ele>
        <time>2025-08-17T07:11:24.569Z</time>
      </trkpt>
      <trkpt lat="44.24575" lon="0.85">
        <ele>205</ele>
        <time>2025-08-17T07:11:25.569Z</time>
      </trkpt>
      <trkpt lat="44.24576" lon="0.85001">
        <ele>205</ele>
        <time>2025-08-17T07:11:26.569Z</time>
      </trkpt>
      <trkpt lat="44.24577" lon="0.85003">
        <ele>205</ele>
        <time>2025-08-17T07:11:27.569Z</time>
      </trkpt>
      <trkpt lat="44.24578" lon="0.85004">
        <ele>205</ele>
        <time>2025-08-17T07:11:28.569Z</time>
      </trkpt>
      <trkpt lat="44.24579" lon="0.85006">
        <ele>206</ele>
        <time>2025-08-17T07:11:29.569Z</time>
      </trkpt>
      <trkpt lat="44.24579" lon="0.85007">
        <ele>206</ele>
        <time>2025-08-17T07:11:30.569Z</time>
      </trkpt>
      <trkpt lat="44.2458" lon="0.85008">
        <ele>206</ele>
        <time>2025-08-17T07:11:31.569Z</time>
      </trkpt>
      <trkpt lat="44.2458" lon="0.85009">
        <ele>206</ele>
        <time>2025-08-17T07:11:32.569Z</time>
      </trkpt>
      <trkpt lat="44.2458" lon="0.8501">
        <ele>206</ele>
        <time>2025-08-17T07:11:33.569Z</time>
      </trkpt>
      <trkpt lat="44.24581" lon="0.85012">
        <ele>207</ele>
        <time>2025-08-17T07:11:34.569Z</time>
      </trkpt>
      <trkpt lat="44.24582" lon="0.85013">
        <ele>206</ele>
        <time>2025-08-17T07:11:35.569Z</time>
      </trkpt>
      <trkpt lat="44.24582" lon="0.85014">
        <ele>206</ele>
        <time>2025-08-17T07:11:36.569Z</time>
      </trkpt>
      <trkpt lat="44.24583" lon="0.85015">
        <ele>206</ele>
        <time>2025-08-17T07:11:37.569Z</time>
      </trkpt>
      <trkpt lat="44.24584" lon="0.85017">
        <ele>206</ele>
        <time>2025-08-17T07:11:38.569Z</time>
      </trkpt>
      <trkpt lat="44.24584" lon="0.85018">
        <ele>206</ele>
        <time>2025-08-17T07:11:39.569Z</time>
      </trkpt>
      <trkpt lat="44.24585" lon="0.85019">
        <ele>206</ele>
        <time>2025-08-17T07:11:40.569Z</time>
      </trkpt>
      <trkpt lat="44.24586" lon="0.8502">
        <ele>206</ele>
        <time>2025-08-17T07:11:41.569Z</time>
      </trkpt>
      <trkpt lat="44.24586" lon="0.85022">
        <ele>206</ele>
        <time>2025-08-17T07:11:42.569Z</time>
      </trkpt>
      <trkpt lat="44.24587" lon="0.85023">
        <ele>206</ele>
        <time>2025-08-17T07:11:43.569Z</time>
      </trkpt>
      <trkpt lat="44.24587" lon="0.85024">
        <ele>206</ele>
        <time>2025-08-17T07:11:44.569Z</time>
      </trkpt>
      <trkpt lat="44.24587" lon="0.85026">
        <ele>206</ele>
        <time>2025-08-17T07:11:45.569Z</time>
      </trkpt>
      <trkpt lat="44.24588" lon="0.85027">
        <ele>206</ele>
        <time>2025-08-17T07:11:46.569Z</time>
      </trkpt>
      <trkpt lat="44.24588" lon="0.85029">
        <ele>205</ele>
        <time>2025-08-17T07:11:47.569Z</time>
      </trkpt>
      <trkpt lat="44.24589" lon="0.8503">
        <ele>205</ele>
        <time>2025-08-17T07:11:48.569Z</time>
      </trkpt>
      <trkpt lat="44.2459" lon="0.85032">
        <ele>205</ele>
        <time>2025-08-17T07:11:49.569Z</time>
      </trkpt>
      <trkpt lat="44.2459" lon="0.85034">
        <ele>206</ele>
        <time>2025-08-17T07:11:50.569Z</time>
      </trkpt>
      <trkpt lat="44.24591" lon="0.85035">
        <ele>206</ele>
        <time>2025-08-17T07:11:51.569Z</time>
      </trkpt>
      <trkpt lat="44.24591" lon="0.85036">
        <ele>206</ele>
        <time>2025-08-17T07:11:52.569Z</time>
      </trkpt>
      <trkpt lat="44.24592" lon="0.85037">
        <ele>206</ele>
        <time>2025-08-17T07:11:53.569Z</time>
      </trkpt>
      <trkpt lat="44.24593" lon="0.85039">
        <ele>206</ele>
        <time>2025-08-17T07:11:54.569Z</time>
      </trkpt>
      <trkpt lat="44.24593" lon="0.85041">
        <ele>206</ele>
        <time>2025-08-17T07:11:55.569Z</time>
      </trkpt>
      <trkpt lat="44.24594" lon="0.85042">
        <ele>206</ele>
        <time>2025-08-17T07:11:56.569Z</time>
      </trkpt>
      <trkpt lat="44.24595" lon="0.85044">
        <ele>206</ele>
        <time>2025-08-17T07:11:57.569Z</time>
      </trkpt>
      <trkpt lat="44.24595" lon="0.85045">
        <ele>206</ele>
        <time>2025-08-17T07:11:58.569Z</time>
      </trkpt>
      <trkpt lat="44.24596" lon="0.85047">
        <ele>206</ele>
        <time>2025-08-17T07:11:59.569Z</time>
      </trkpt>
      <trkpt lat="44.24596" lon="0.85048">
        <ele>206</ele>
        <time>2025-08-17T07:12:00.569Z</time>
      </trkpt>
      <trkpt lat="44.24597" lon="0.8505">
        <ele>206</ele>
        <time>2025-08-17T07:12:01.569Z</time>
      </trkpt>
      <trkpt lat="44.24597" lon="0.85051">
        <ele>206</ele>
        <time>2025-08-17T07:12:02.569Z</time>
      </trkpt>
      <trkpt lat="44.24597" lon="0.85053">
        <ele>206</ele>
        <time>2025-08-17T07:12:03.569Z</time>
      </trkpt>
      <trkpt lat="44.24597" lon="0.85055">
        <ele>206</ele>
        <time>2025-08-17T07:12:04.569Z</time>
      </trkpt>
      <trkpt lat="44.24597" lon="0.85056">
        <ele>205</ele>
        <time>2025-08-17T07:12:05.569Z</time>
      </trkpt>
      <trkpt lat="44.24596" lon="0.85058">
        <ele>205</ele>
        <time>2025-08-17T07:12:06.569Z</time>
      </trkpt>
      <trkpt lat="44.24596" lon="0.8506">
        <ele>205</ele>
        <time>2025-08-17T07:12:07.569Z</time>
      </trkpt>
      <trkpt lat="44.24596" lon="0.85061">
        <ele>205</ele>
        <time>2025-08-17T07:12:08.569Z</time>
      </trkpt>
      <trkpt lat="44.24595" lon="0.85063">
        <ele>205</ele>
        <time>2025-08-17T07:12:09.569Z</time>
      </trkpt>
      <trkpt lat="44.24594" lon="0.85064">
        <ele>205</ele>
        <time>2025-08-17T07:12:10.569Z</time>
      </trkpt>
      <trkpt lat="44.24594" lon="0.85065">
        <ele>205</ele>
        <time>2025-08-17T07:12:11.569Z</time>
      </trkpt>
      <trkpt lat="44.24593" lon="0.85066">
        <ele>205</ele>
        <time>2025-08-17T07:12:12.569Z</time>
      </trkpt>
      <trkpt lat="44.24592" lon="0.85067">
        <ele>205</ele>
        <time>2025-08-17T07:12:13.569Z</time>
      </trkpt>
      <trkpt lat="44.24591" lon="0.85069">
        <ele>205</ele>
        <time>2025-08-17T07:12:14.569Z</time>
      </trkpt>
      <trkpt lat="44.2459" lon="0.8507">
        <ele>205</ele>
        <time>2025-08-17T07:12:15.569Z</time>
      </trkpt>
      <trkpt lat="44.24589" lon="0.85071">
        <ele>205</ele>
        <time>2025-08-17T07:12:16.569Z</time>
      </trkpt>
      <trkpt lat="44.24588" lon="0.85072">
        <ele>205</ele>
        <time>2025-08-17T07:12:17.569Z</time>
      </trkpt>
      <trkpt lat="44.24588" lon="0.85073">
        <ele>205</ele>
        <time>2025-08-17T07:12:18.569Z</time>
      </trkpt>
      <trkpt lat="44.24587" lon="0.85073">
        <ele>205</ele>
        <time>2025-08-17T07:12:19.569Z</time>
      </trkpt>
      <trkpt lat="44.24586" lon="0.85074">
        <ele>205</ele>
        <time>2025-08-17T07:12:20.569Z</time>
      </trkpt>
      <trkpt lat="44.24585" lon="0.85075">
        <ele>205</ele>
        <time>2025-08-17T07:12:21.569Z</time>
      </trkpt>
      <trkpt lat="44.24584" lon="0.85076">
        <ele>205</ele>
        <time>2025-08-17T07:12:22.569Z</time>
      </trkpt>
      <trkpt lat="44.24583" lon="0.85077">
        <ele>205</ele>
        <time>2025-08-17T07:12:23.569Z</time>
      </trkpt>
      <trkpt lat="44.24583" lon="0.85078">
        <ele>205</ele>
        <time>2025-08-17T07:12:24.569Z</time>
      </trkpt>
      <trkpt lat="44.24582" lon="0.85079">
        <ele>205</ele>
        <time>2025-08-17T07:12:25.569Z</time>
      </trkpt>
      <trkpt lat="44.24581" lon="0.8508">
        <ele>204</ele>
        <time>2025-08-17T07:12:26.569Z</time>
      </trkpt>
      <trkpt lat="44.2458" lon="0.85081">
        <ele>204</ele>
        <time>2025-08-17T07:12:27.569Z</time>
      </trkpt>
      <trkpt lat="44.24579" lon="0.85082">
        <ele>204</ele>
        <time>2025-08-17T07:12:28.569Z</time>
      </trkpt>
      <trkpt lat="44.24579" lon="0.85083">
        <ele>204</ele>
        <time>2025-08-17T07:12:29.569Z</time>
      </trkpt>
      <trkpt lat="44.24578" lon="0.85084">
        <ele>204</ele>
        <time>2025-08-17T07:12:30.569Z</time>
      </trkpt>
      <trkpt lat="44.24576" lon="0.85085">
        <ele>204</ele>
        <time>2025-08-17T07:12:31.569Z</time>
      </trkpt>
      <trkpt lat="44.24575" lon="0.85087">
        <ele>205</ele>
        <time>2025-08-17T07:12:32.569Z</time>
      </trkpt>
      <trkpt lat="44.24574" lon="0.85088">
        <ele>204</ele>
        <time>2025-08-17T07:12:33.569Z</time>
      </trkpt>
      <trkpt lat="44.24573" lon="0.85089">
        <ele>204</ele>
        <time>2025-08-17T07:12:34.569Z</time>
      </trkpt>
      <trkpt lat="44.24572" lon="0.8509">
        <ele>203</ele>
        <time>2025-08-17T07:12:35.569Z</time>
      </trkpt>
      <trkpt lat="44.24571" lon="0.85091">
        <ele>203</ele>
        <time>2025-08-17T07:12:36.569Z</time>
      </trkpt>
      <trkpt lat="44.24571" lon="0.85092">
        <ele>203</ele>
        <time>2025-08-17T07:12:37.569Z</time>
      </trkpt>
      <trkpt lat="44.2457" lon="0.85093">
        <ele>203</ele>
        <time>2025-08-17T07:12:38.569Z</time>
      </trkpt>
      <trkpt lat="44.24569" lon="0.85094">
        <ele>203</ele>
        <time>2025-08-17T07:12:39.569Z</time>
      </trkpt>
      <trkpt lat="44.24568" lon="0.85095">
        <ele>203</ele>
        <time>2025-08-17T07:12:40.569Z</time>
      </trkpt>
      <trkpt lat="44.24567" lon="0.85096">
        <ele>203</ele>
        <time>2025-08-17T07:12:41.569Z</time>
      </trkpt>
      <trkpt lat="44.24566" lon="0.85097">
        <ele>203</ele>
        <time>2025-08-17T07:12:42.569Z</time>
      </trkpt>
      <trkpt lat="44.24565" lon="0.85098">
        <ele>204</ele>
        <time>2025-08-17T07:12:43.569Z</time>
      </trkpt>
      <trkpt lat="44.24565" lon="0.85099">
        <ele>204</ele>
        <time>2025-08-17T07:12:44.569Z</time>
      </trkpt>
      <trkpt lat="44.24564" lon="0.851">
        <ele>204</ele>
        <time>2025-08-17T07:12:45.569Z</time>
      </trkpt>
      <trkpt lat="44.24563" lon="0.85101">
        <ele>204</ele>
        <time>2025-08-17T07:12:46.569Z</time>
      </trkpt>
      <trkpt lat="44.24562" lon="0.85102">
        <ele>204</ele>
        <time>2025-08-17T07:12:47.569Z</time>
      </trkpt>
      <trkpt lat="44.24561" lon="0.85103">
        <ele>204</ele>
        <time>2025-08-17T07:12:48.569Z</time>
      </trkpt>
      <trkpt lat="44.2456" lon="0.85104">
        <ele>204</ele>
        <time>2025-08-17T07:12:49.569Z</time>
      </trkpt>
      <trkpt lat="44.2456" lon="0.85105">
        <ele>204</ele>
        <time>2025-08-17T07:12:50.569Z</time>
      </trkpt>
      <trkpt lat="44.24559" lon="0.85105">
        <ele>204</ele>
        <time>2025-08-17T07:12:51.569Z</time>
      </trkpt>
      <trkpt lat="44.24558" lon="0.85106">
        <ele>204</ele>
        <time>2025-08-17T07:12:52.569Z</time>
      </trkpt>
      <trkpt lat="44.24557" lon="0.85107">
        <ele>203</ele>
        <time>2025-08-17T07:12:53.569Z</time>
      </trkpt>
      <trkpt lat="44.24557" lon="0.85107">
        <ele>203</ele>
        <time>2025-08-17T07:12:54.569Z</time>
      </trkpt>
      <trkpt lat="44.24556" lon="0.85107">
        <ele>202</ele>
        <time>2025-08-17T07:12:55.569Z</time>
      </trkpt>
      <trkpt lat="44.24556" lon="0.85107">
        <ele>202</ele>
        <time>2025-08-17T07:12:56.569Z</time>
      </trkpt>
      <trkpt lat="44.24555" lon="0.85108">
        <ele>202</ele>
        <time>2025-08-17T07:12:57.569Z</time>
      </trkpt>
      <trkpt lat="44.24555" lon="0.85109">
        <ele>202</ele>
        <time>2025-08-17T07:12:58.569Z</time>
      </trkpt>
      <trkpt lat="44.24554" lon="0.8511">
        <ele>202</ele>
        <time>2025-08-17T07:12:59.569Z</time>
      </trkpt>
      <trkpt lat="44.24553" lon="0.85111">
        <ele>202</ele>
        <time>2025-08-17T07:13:00.569Z</time>
      </trkpt>
      <trkpt lat="44.24552" lon="0.85112">
        <ele>202</ele>
        <time>2025-08-17T07:13:01.569Z</time>
      </trkpt>
      <trkpt lat="44.24551" lon="0.85113">
        <ele>201</ele>
        <time>2025-08-17T07:13:02.569Z</time>
      </trkpt>
      <trkpt lat="44.2455" lon="0.85114">
        <ele>201</ele>
        <time>2025-08-17T07:13:03.569Z</time>
      </trkpt>
      <trkpt lat="44.24549" lon="0.85115">
        <ele>201</ele>
        <time>2025-08-17T07:13:04.569Z</time>
      </trkpt>
      <trkpt lat="44.24549" lon="0.85116">
        <ele>201</ele>
        <time>2025-08-17T07:13:05.569Z</time>
      </trkpt>
      <trkpt lat="44.24548" lon="0.85117">
        <ele>202</ele>
        <time>2025-08-17T07:13:06.569Z</time>
      </trkpt>
      <trkpt lat="44.24547" lon="0.85118">
        <ele>202</ele>
        <time>2025-08-17T07:13:07.569Z</time>
      </trkpt>
      <trkpt lat="44.24546" lon="0.85119">
        <ele>202</ele>
        <time>2025-08-17T07:13:08.569Z</time>
      </trkpt>
      <trkpt lat="44.24545" lon="0.8512">
        <ele>201</ele>
        <time>2025-08-17T07:13:09.569Z</time>
      </trkpt>
      <trkpt lat="44.24544" lon="0.8512">
        <ele>201</ele>
        <time>2025-08-17T07:13:10.569Z</time>
      </trkpt>
      <trkpt lat="44.24543" lon="0.85121">
        <ele>201</ele>
        <time>2025-08-17T07:13:11.569Z</time>
      </trkpt>
      <trkpt lat="44.24542" lon="0.85123">
        <ele>201</ele>
        <time>2025-08-17T07:13:12.569Z</time>
      </trkpt>
      <trkpt lat="44.24541" lon="0.85124">
        <ele>201</ele>
        <time>2025-08-17T07:13:13.569Z</time>
      </trkpt>
      <trkpt lat="44.24541" lon="0.85125">
        <ele>201</ele>
        <time>2025-08-17T07:13:14.569Z</time>
      </trkpt>
      <trkpt lat="44.2454" lon="0.85126">
        <ele>200</ele>
        <time>2025-08-17T07:13:15.569Z</time>
      </trkpt>
      <trkpt lat="44.24539" lon="0.85127">
        <ele>200</ele>
        <time>2025-08-17T07:13:16.569Z</time>
      </trkpt>
      <trkpt lat="44.24538" lon="0.85128">
        <ele>199</ele>
        <time>2025-08-17T07:13:17.569Z</time>
      </trkpt>
      <trkpt lat="44.24538" lon="0.85129">
        <ele>199</ele>
        <time>2025-08-17T07:13:18.569Z</time>
      </trkpt>
      <trkpt lat="44.24537" lon="0.8513">
        <ele>199</ele>
        <time>2025-08-17T07:13:19.569Z</time>
      </trkpt>
      <trkpt lat="44.24536" lon="0.85131">
        <ele>199</ele>
        <time>2025-08-17T07:13:20.569Z</time>
      </trkpt>
      <trkpt lat="44.24536" lon="0.85132">
        <ele>199</ele>
        <time>2025-08-17T07:13:21.569Z</time>
      </trkpt>
      <trkpt lat="44.24535" lon="0.85133">
        <ele>199</ele>
        <time>2025-08-17T07:13:22.569Z</time>
      </trkpt>
      <trkpt lat="44.24534" lon="0.85134">
        <ele>199</ele>
        <time>2025-08-17T07:13:23.569Z</time>
      </trkpt>
      <trkpt lat="44.24534" lon="0.85135">
        <ele>199</ele>
        <time>2025-08-17T07:13:24.569Z</time>
      </trkpt>
      <trkpt lat="44.24533" lon="0.85136">
        <ele>200</ele>
        <time>2025-08-17T07:13:25.569Z</time>
      </trkpt>
      <trkpt lat="44.24532" lon="0.85137">
        <ele>200</ele>
        <time>2025-08-17T07:13:26.569Z</time>
      </trkpt>
      <trkpt lat="44.24531" lon="0.85138">
        <ele>200</ele>
        <time>2025-08-17T07:13:27.569Z</time>
      </trkpt>
      <trkpt lat="44.2453" lon="0.85139">
        <ele>200</ele>
        <time>2025-08-17T07:13:28.569Z</time>
      </trkpt>
      <trkpt lat="44.24529" lon="0.85139">
        <ele>199</ele>
        <time>2025-08-17T07:13:29.569Z</time>
      </trkpt>
      <trkpt lat="44.24528" lon="0.8514">
        <ele>199</ele>
        <time>2025-08-17T07:13:30.569Z</time>
      </trkpt>
      <trkpt lat="44.24528" lon="0.85142">
        <ele>199</ele>
        <time>2025-08-17T07:13:31.569Z</time>
      </trkpt>
      <trkpt lat="44.24527" lon="0.85143">
        <ele>199</ele>
        <time>2025-08-17T07:13:32.569Z</time>
      </trkpt>
      <trkpt lat="44.24526" lon="0.85144">
        <ele>199</ele>
        <time>2025-08-17T07:13:33.569Z</time>
      </trkpt>
      <trkpt lat="44.24525" lon="0.85145">
        <ele>199</ele>
        <time>2025-08-17T07:13:34.569Z</time>
      </trkpt>
      <trkpt lat="44.24524" lon="0.85146">
        <ele>199</ele>
        <time>2025-08-17T07:13:35.569Z</time>
      </trkpt>
      <trkpt lat="44.24523" lon="0.85148">
        <ele>199</ele>
        <time>2025-08-17T07:13:36.569Z</time>
      </trkpt>
      <trkpt lat="44.24522" lon="0.85149">
        <ele>199</ele>
        <time>2025-08-17T07:13:37.569Z</time>
      </trkpt>
      <trkpt lat="44.24521" lon="0.8515">
        <ele>198</ele>
        <time>2025-08-17T07:13:38.569Z</time>
      </trkpt>
      <trkpt lat="44.2452" lon="0.85151">
        <ele>198</ele>
        <time>2025-08-17T07:13:39.569Z</time>
      </trkpt>
      <trkpt lat="44.24519" lon="0.85152">
        <ele>198</ele>
        <time>2025-08-17T07:13:40.569Z</time>
      </trkpt>
      <trkpt lat="44.24518" lon="0.85152">
        <ele>197</ele>
        <time>2025-08-17T07:13:41.569Z</time>
      </trkpt>
      <trkpt lat="44.24518" lon="0.85153">
        <ele>197</ele>
        <time>2025-08-17T07:13:42.569Z</time>
      </trkpt>
      <trkpt lat="44.24517" lon="0.85154">
        <ele>197</ele>
        <time>2025-08-17T07:13:43.569Z</time>
      </trkpt>
      <trkpt lat="44.24516" lon="0.85155">
        <ele>197</ele>
        <time>2025-08-17T07:13:44.569Z</time>
      </trkpt>
      <trkpt lat="44.24516" lon="0.85156">
        <ele>197</ele>
        <time>2025-08-17T07:13:45.569Z</time>
      </trkpt>
      <trkpt lat="44.24516" lon="0.85157">
        <ele>197</ele>
        <time>2025-08-17T07:13:46.569Z</time>
      </trkpt>
      <trkpt lat="44.24515" lon="0.85158">
        <ele>197</ele>
        <time>2025-08-17T07:13:47.569Z</time>
      </trkpt>
      <trkpt lat="44.24514" lon="0.85159">
        <ele>197</ele>
        <time>2025-08-17T07:13:48.569Z</time>
      </trkpt>
      <trkpt lat="44.24513" lon="0.8516">
        <ele>197</ele>
        <time>2025-08-17T07:13:49.569Z</time>
      </trkpt>
      <trkpt lat="44.24512" lon="0.85161">
        <ele>196</ele>
        <time>2025-08-17T07:13:50.569Z</time>
      </trkpt>
      <trkpt lat="44.24511" lon="0.85161">
        <ele>196</ele>
        <time>2025-08-17T07:13:51.569Z</time>
      </trkpt>
      <trkpt lat="44.24511" lon="0.85162">
        <ele>196</ele>
        <time>2025-08-17T07:13:52.569Z</time>
      </trkpt>
      <trkpt lat="44.2451" lon="0.85163">
        <ele>195</ele>
        <time>2025-08-17T07:13:53.569Z</time>
      </trkpt>
      <trkpt lat="44.24509" lon="0.85164">
        <ele>195</ele>
        <time>2025-08-17T07:13:54.569Z</time>
      </trkpt>
      <trkpt lat="44.24508" lon="0.85165">
        <ele>195</ele>
        <time>2025-08-17T07:13:55.569Z</time>
      </trkpt>
      <trkpt lat="44.24507" lon="0.85166">
        <ele>194</ele>
        <time>2025-08-17T07:13:56.569Z</time>
      </trkpt>
      <trkpt lat="44.24507" lon="0.85166">
        <ele>194</ele>
        <time>2025-08-17T07:13:57.569Z</time>
      </trkpt>
      <trkpt lat="44.24506" lon="0.85167">
        <ele>194</ele>
        <time>2025-08-17T07:13:58.569Z</time>
      </trkpt>
      <trkpt lat="44.24506" lon="0.85168">
        <ele>194</ele>
        <time>2025-08-17T07:13:59.569Z</time>
      </trkpt>
      <trkpt lat="44.24505" lon="0.85168">
        <ele>194</ele>
        <time>2025-08-17T07:14:00.569Z</time>
      </trkpt>
      <trkpt lat="44.24504" lon="0.85169">
        <ele>194</ele>
        <time>2025-08-17T07:14:01.569Z</time>
      </trkpt>
      <trkpt lat="44.24503" lon="0.8517">
        <ele>194</ele>
        <time>2025-08-17T07:14:02.569Z</time>
      </trkpt>
      <trkpt lat="44.24502" lon="0.85171">
        <ele>194</ele>
        <time>2025-08-17T07:14:03.569Z</time>
      </trkpt>
      <trkpt lat="44.24501" lon="0.85172">
        <ele>194</ele>
        <time>2025-08-17T07:14:04.569Z</time>
      </trkpt>
      <trkpt lat="44.245" lon="0.85173">
        <ele>194</ele>
        <time>2025-08-17T07:14:05.569Z</time>
      </trkpt>
      <trkpt lat="44.245" lon="0.85174">
        <ele>194</ele>
        <time>2025-08-17T07:14:06.569Z</time>
      </trkpt>
      <trkpt lat="44.24499" lon="0.85174">
        <ele>194</ele>
        <time>2025-08-17T07:14:07.569Z</time>
      </trkpt>
      <trkpt lat="44.24498" lon="0.85175">
        <ele>194</ele>
        <time>2025-08-17T07:14:08.569Z</time>
      </trkpt>
      <trkpt lat="44.24497" lon="0.85176">
        <ele>194</ele>
        <time>2025-08-17T07:14:09.569Z</time>
      </trkpt>
      <trkpt lat="44.24496" lon="0.85177">
        <ele>194</ele>
        <time>2025-08-17T07:14:10.569Z</time>
      </trkpt>
      <trkpt lat="44.24496" lon="0.85178">
        <ele>194</ele>
        <time>2025-08-17T07:14:11.569Z</time>
      </trkpt>
      <trkpt lat="44.24495" lon="0.85179">
        <ele>194</ele>
        <time>2025-08-17T07:14:12.569Z</time>
      </trkpt>
      <trkpt lat="44.24495" lon="0.8518">
        <ele>195</ele>
        <time>2025-08-17T07:14:13.569Z</time>
      </trkpt>
      <trkpt lat="44.24494" lon="0.85181">
        <ele>195</ele>
        <time>2025-08-17T07:14:14.569Z</time>
      </trkpt>
      <trkpt lat="44.24493" lon="0.85182">
        <ele>195</ele>
        <time>2025-08-17T07:14:15.569Z</time>
      </trkpt>
      <trkpt lat="44.24492" lon="0.85184">
        <ele>195</ele>
        <time>2025-08-17T07:14:16.569Z</time>
      </trkpt>
      <trkpt lat="44.24492" lon="0.85185">
        <ele>195</ele>
        <time>2025-08-17T07:14:17.569Z</time>
      </trkpt>
      <trkpt lat="44.24491" lon="0.85186">
        <ele>195</ele>
        <time>2025-08-17T07:14:18.569Z</time>
      </trkpt>
      <trkpt lat="44.2449" lon="0.85186">
        <ele>195</ele>
        <time>2025-08-17T07:14:19.569Z</time>
      </trkpt>
      <trkpt lat="44.24489" lon="0.85187">
        <ele>195</ele>
        <time>2025-08-17T07:14:20.569Z</time>
      </trkpt>
      <trkpt lat="44.24488" lon="0.85188">
        <ele>194</ele>
        <time>2025-08-17T07:14:21.569Z</time>
      </trkpt>
      <trkpt lat="44.24487" lon="0.85189">
        <ele>194</ele>
        <time>2025-08-17T07:14:22.569Z</time>
      </trkpt>
      <trkpt lat="44.24487" lon="0.8519">
        <ele>194</ele>
        <time>2025-08-17T07:14:23.569Z</time>
      </trkpt>
      <trkpt lat="44.24485" lon="0.85191">
        <ele>194</ele>
        <time>2025-08-17T07:14:24.569Z</time>
      </trkpt>
      <trkpt lat="44.24484" lon="0.85191">
        <ele>193</ele>
        <time>2025-08-17T07:14:25.569Z</time>
      </trkpt>
      <trkpt lat="44.24484" lon="0.85192">
        <ele>193</ele>
        <time>2025-08-17T07:14:26.569Z</time>
      </trkpt>
      <trkpt lat="44.24483" lon="0.85193">
        <ele>193</ele>
        <time>2025-08-17T07:14:27.569Z</time>
      </trkpt>
      <trkpt lat="44.24482" lon="0.85194">
        <ele>193</ele>
        <time>2025-08-17T07:14:28.569Z</time>
      </trkpt>
      <trkpt lat="44.24481" lon="0.85196">
        <ele>192</ele>
        <time>2025-08-17T07:14:29.569Z</time>
      </trkpt>
      <trkpt lat="44.2448" lon="0.85197">
        <ele>192</ele>
        <time>2025-08-17T07:14:30.569Z</time>
      </trkpt>
      <trkpt lat="44.24479" lon="0.85198">
        <ele>192</ele>
        <time>2025-08-17T07:14:31.569Z</time>
      </trkpt>
      <trkpt lat="44.24479" lon="0.85199">
        <ele>191</ele>
        <time>2025-08-17T07:14:32.569Z</time>
      </trkpt>
      <trkpt lat="44.24478" lon="0.852">
        <ele>191</ele>
        <time>2025-08-17T07:14:33.569Z</time>
      </trkpt>
      <trkpt lat="44.24477" lon="0.85201">
        <ele>191</ele>
        <time>2025-08-17T07:14:34.569Z</time>
      </trkpt>
      <trkpt lat="44.24476" lon="0.85202">
        <ele>191</ele>
        <time>2025-08-17T07:14:35.569Z</time>
      </trkpt>
      <trkpt lat="44.24475" lon="0.85203">
        <ele>191</ele>
        <time>2025-08-17T07:14:36.569Z</time>
      </trkpt>
      <trkpt lat="44.24474" lon="0.85204">
        <ele>190</ele>
        <time>2025-08-17T07:14:37.569Z</time>
      </trkpt>
      <trkpt lat="44.24473" lon="0.85205">
        <ele>190</ele>
        <time>2025-08-17T07:14:38.569Z</time>
      </trkpt>
      <trkpt lat="44.24471" lon="0.85207">
        <ele>189</ele>
        <time>2025-08-17T07:14:39.569Z</time>
      </trkpt>
      <trkpt lat="44.2447" lon="0.85208">
        <ele>189</ele>
        <time>2025-08-17T07:14:40.569Z</time>
      </trkpt>
      <trkpt lat="44.24469" lon="0.85209">
        <ele>188</ele>
        <time>2025-08-17T07:14:41.569Z</time>
      </trkpt>
      <trkpt lat="44.24467" lon="0.8521">
        <ele>188</ele>
        <time>2025-08-17T07:14:42.569Z</time>
      </trkpt>
      <trkpt lat="44.24466" lon="0.85212">
        <ele>188</ele>
        <time>2025-08-17T07:14:43.569Z</time>
      </trkpt>
      <trkpt lat="44.24465" lon="0.85213">
        <ele>188</ele>
        <time>2025-08-17T07:14:44.569Z</time>
      </trkpt>
      <trkpt lat="44.24464" lon="0.85214">
        <ele>188</ele>
        <time>2025-08-17T07:14:45.569Z</time>
      </trkpt>
      <trkpt lat="44.24463" lon="0.85215">
        <ele>187</ele>
        <time>2025-08-17T07:14:46.569Z</time>
      </trkpt>
      <trkpt lat="44.24462" lon="0.85216">
        <ele>187</ele>
        <time>2025-08-17T07:14:47.569Z</time>
      </trkpt>
      <trkpt lat="44.24461" lon="0.85217">
        <ele>186</ele>
        <time>2025-08-17T07:14:48.569Z</time>
      </trkpt>
      <trkpt lat="44.2446" lon="0.85217">
        <ele>186</ele>
        <time>2025-08-17T07:14:49.569Z</time>
      </trkpt>
      <trkpt lat="44.24459" lon="0.85218">
        <ele>186</ele>
        <time>2025-08-17T07:14:50.569Z</time>
      </trkpt>
      <trkpt lat="44.24459" lon="0.85219">
        <ele>186</ele>
        <time>2025-08-17T07:14:51.569Z</time>
      </trkpt>
      <trkpt lat="44.24457" lon="0.8522">
        <ele>186</ele>
        <time>2025-08-17T07:14:52.569Z</time>
      </trkpt>
      <trkpt lat="44.24456" lon="0.85221">
        <ele>185</ele>
        <time>2025-08-17T07:14:53.569Z</time>
      </trkpt>
      <trkpt lat="44.24455" lon="0.85223">
        <ele>186</ele>
        <time>2025-08-17T07:14:54.569Z</time>
      </trkpt>
      <trkpt lat="44.24454" lon="0.85224">
        <ele>186</ele>
        <time>2025-08-17T07:14:55.569Z</time>
      </trkpt>
      <trkpt lat="44.24453" lon="0.85225">
        <ele>186</ele>
        <time>2025-08-17T07:14:56.569Z</time>
      </trkpt>
      <trkpt lat="44.24452" lon="0.85226">
        <ele>187</ele>
        <time>2025-08-17T07:14:57.569Z</time>
      </trkpt>
      <trkpt lat="44.24451" lon="0.85227">
        <ele>187</ele>
        <time>2025-08-17T07:14:58.569Z</time>
      </trkpt>
      <trkpt lat="44.2445" lon="0.85228">
        <ele>187</ele>
        <time>2025-08-17T07:14:59.569Z</time>
      </trkpt>
      <trkpt lat="44.24449" lon="0.85229">
        <ele>187</ele>
        <time>2025-08-17T07:15:00.569Z</time>
      </trkpt>
      <trkpt lat="44.24449" lon="0.85229">
        <ele>186</ele>
        <time>2025-08-17T07:15:01.569Z</time>
      </trkpt>
      <trkpt lat="44.24448" lon="0.8523">
        <ele>186</ele>
        <time>2025-08-17T07:15:02.569Z</time>
      </trkpt>
      <trkpt lat="44.24447" lon="0.85231">
        <ele>186</ele>
        <time>2025-08-17T07:15:03.569Z</time>
      </trkpt>
      <trkpt lat="44.24446" lon="0.85232">
        <ele>186</ele>
        <time>2025-08-17T07:15:04.569Z</time>
      </trkpt>
      <trkpt lat="44.24445" lon="0.85233">
        <ele>186</ele>
        <time>2025-08-17T07:15:05.569Z</time>
      </trkpt>
      <trkpt lat="44.24444" lon="0.85235">
        <ele>185</ele>
        <time>2025-08-17T07:15:06.569Z</time>
      </trkpt>
      <trkpt lat="44.24443" lon="0.85236">
        <ele>185</ele>
        <time>2025-08-17T07:15:07.569Z</time>
      </trkpt>
      <trkpt lat="44.24442" lon="0.85237">
        <ele>185</ele>
        <time>2025-08-17T07:15:08.569Z</time>
      </trkpt>
      <trkpt lat="44.24441" lon="0.85238">
        <ele>185</ele>
        <time>2025-08-17T07:15:09.569Z</time>
      </trkpt>
      <trkpt lat="44.2444" lon="0.8524">
        <ele>185</ele>
        <time>2025-08-17T07:15:10.569Z</time>
      </trkpt>
      <trkpt lat="44.24439" lon="0.85241">
        <ele>185</ele>
        <time>2025-08-17T07:15:11.569Z</time>
      </trkpt>
      <trkpt lat="44.24438" lon="0.85242">
        <ele>185</ele>
        <time>2025-08-17T07:15:12.569Z</time>
      </trkpt>
      <trkpt lat="44.24437" lon="0.85243">
        <ele>185</ele>
        <time>2025-08-17T07:15:13.569Z</time>
      </trkpt>
      <trkpt lat="44.24436" lon="0.85244">
        <ele>185</ele>
        <time>2025-08-17T07:15:14.569Z</time>
      </trkpt>
      <trkpt lat="44.24435" lon="0.85244">
        <ele>185</ele>
        <time>2025-08-17T07:15:15.569Z</time>
      </trkpt>
      <trkpt lat="44.24434" lon="0.85245">
        <ele>185</ele>
        <time>2025-08-17T07:15:16.569Z</time>
      </trkpt>
      <trkpt lat="44.24433" lon="0.85247">
        <ele>185</ele>
        <time>2025-08-17T07:15:17.569Z</time>
      </trkpt>
      <trkpt lat="44.24432" lon="0.85248">
        <ele>186</ele>
        <time>2025-08-17T07:15:18.569Z</time>
      </trkpt>
      <trkpt lat="44.24431" lon="0.85249">
        <ele>186</ele>
        <time>2025-08-17T07:15:19.569Z</time>
      </trkpt>
      <trkpt lat="44.2443" lon="0.8525">
        <ele>186</ele>
        <time>2025-08-17T07:15:20.569Z</time>
      </trkpt>
      <trkpt lat="44.24429" lon="0.85252">
        <ele>186</ele>
        <time>2025-08-17T07:15:21.569Z</time>
      </trkpt>
      <trkpt lat="44.24428" lon="0.85252">
        <ele>186</ele>
        <time>2025-08-17T07:15:22.569Z</time>
      </trkpt>
      <trkpt lat="44.24427" lon="0.85253">
        <ele>185</ele>
        <time>2025-08-17T07:15:23.569Z</time>
      </trkpt>
      <trkpt lat="44.24426" lon="0.85254">
        <ele>185</ele>
        <time>2025-08-17T07:15:24.569Z</time>
      </trkpt>
      <trkpt lat="44.24425" lon="0.85255">
        <ele>185</ele>
        <time>2025-08-17T07:15:25.569Z</time>
      </trkpt>
      <trkpt lat="44.24424" lon="0.85257">
        <ele>185</ele>
        <time>2025-08-17T07:15:26.569Z</time>
      </trkpt>
      <trkpt lat="44.24423" lon="0.85257">
        <ele>185</ele>
        <time>2025-08-17T07:15:27.569Z</time>
      </trkpt>
      <trkpt lat="44.24422" lon="0.85258">
        <ele>185</ele>
        <time>2025-08-17T07:15:28.569Z</time>
      </trkpt>
      <trkpt lat="44.24421" lon="0.85259">
        <ele>185</ele>
        <time>2025-08-17T07:15:29.569Z</time>
      </trkpt>
      <trkpt lat="44.2442" lon="0.8526">
        <ele>185</ele>
        <time>2025-08-17T07:15:30.569Z</time>
      </trkpt>
      <trkpt lat="44.2442" lon="0.85261">
        <ele>185</ele>
        <time>2025-08-17T07:15:31.569Z</time>
      </trkpt>
      <trkpt lat="44.24419" lon="0.85263">
        <ele>185</ele>
        <time>2025-08-17T07:15:32.569Z</time>
      </trkpt>
      <trkpt lat="44.24418" lon="0.85264">
        <ele>185</ele>
        <time>2025-08-17T07:15:33.569Z</time>
      </trkpt>
      <trkpt lat="44.24417" lon="0.85265">
        <ele>185</ele>
        <time>2025-08-17T07:15:34.569Z</time>
      </trkpt>
      <trkpt lat="44.24416" lon="0.85266">
        <ele>185</ele>
        <time>2025-08-17T07:15:35.569Z</time>
      </trkpt>
      <trkpt lat="44.24415" lon="0.85267">
        <ele>184</ele>
        <time>2025-08-17T07:15:36.569Z</time>
      </trkpt>
      <trkpt lat="44.24414" lon="0.85268">
        <ele>184</ele>
        <time>2025-08-17T07:15:37.569Z</time>
      </trkpt>
      <trkpt lat="44.24413" lon="0.85269">
        <ele>184</ele>
        <time>2025-08-17T07:15:38.569Z</time>
      </trkpt>
      <trkpt lat="44.24412" lon="0.8527">
        <ele>184</ele>
        <time>2025-08-17T07:15:39.569Z</time>
      </trkpt>
      <trkpt lat="44.24411" lon="0.85271">
        <ele>184</ele>
        <time>2025-08-17T07:15:40.569Z</time>
      </trkpt>
      <trkpt lat="44.2441" lon="0.85272">
        <ele>184</ele>
        <time>2025-08-17T07:15:41.569Z</time>
      </trkpt>
      <trkpt lat="44.24409" lon="0.85273">
        <ele>184</ele>
        <time>2025-08-17T07:15:42.569Z</time>
      </trkpt>
      <trkpt lat="44.24408" lon="0.85274">
        <ele>184</ele>
        <time>2025-08-17T07:15:43.569Z</time>
      </trkpt>
      <trkpt lat="44.24407" lon="0.85276">
        <ele>184</ele>
        <time>2025-08-17T07:15:44.569Z</time>
      </trkpt>
      <trkpt lat="44.24406" lon="0.85276">
        <ele>184</ele>
        <time>2025-08-17T07:15:45.569Z</time>
      </trkpt>
      <trkpt lat="44.24405" lon="0.85277">
        <ele>184</ele>
        <time>2025-08-17T07:15:46.569Z</time>
      </trkpt>
      <trkpt lat="44.24404" lon="0.85278">
        <ele>184</ele>
        <time>2025-08-17T07:15:47.569Z</time>
      </trkpt>
      <trkpt lat="44.24403" lon="0.85279">
        <ele>184</ele>
        <time>2025-08-17T07:15:48.569Z</time>
      </trkpt>
      <trkpt lat="44.24402" lon="0.8528">
        <ele>184</ele>
        <time>2025-08-17T07:15:49.569Z</time>
      </trkpt>
      <trkpt lat="44.24401" lon="0.85281">
        <ele>184</ele>
        <time>2025-08-17T07:15:50.569Z</time>
      </trkpt>
      <trkpt lat="44.24401" lon="0.85282">
        <ele>184</ele>
        <time>2025-08-17T07:15:51.569Z</time>
      </trkpt>
      <trkpt lat="44.244" lon="0.85283">
        <ele>184</ele>
        <time>2025-08-17T07:15:52.569Z</time>
      </trkpt>
      <trkpt lat="44.24399" lon="0.85284">
        <ele>184</ele>
        <time>2025-08-17T07:15:53.569Z</time>
      </trkpt>
      <trkpt lat="44.24398" lon="0.85285">
        <ele>184</ele>
        <time>2025-08-17T07:15:54.569Z</time>
      </trkpt>
      <trkpt lat="44.24397" lon="0.85286">
        <ele>184</ele>
        <time>2025-08-17T07:15:55.569Z</time>
      </trkpt>
      <trkpt lat="44.24397" lon="0.85287">
        <ele>184</ele>
        <time>2025-08-17T07:15:56.569Z</time>
      </trkpt>
      <trkpt lat="44.24396" lon="0.85289">
        <ele>184</ele>
        <time>2025-08-17T07:15:57.569Z</time>
      </trkpt>
      <trkpt lat="44.24395" lon="0.8529">
        <ele>183</ele>
        <time>2025-08-17T07:15:58.569Z</time>
      </trkpt>
      <trkpt lat="44.24394" lon="0.85291">
        <ele>183</ele>
        <time>2025-08-17T07:15:59.569Z</time>
      </trkpt>
      <trkpt lat="44.24393" lon="0.85292">
        <ele>183</ele>
        <time>2025-08-17T07:16:00.569Z</time>
      </trkpt>
      <trkpt lat="44.24392" lon="0.85293">
        <ele>183</ele>
        <time>2025-08-17T07:16:01.569Z</time>
      </trkpt>
      <trkpt lat="44.24392" lon="0.85294">
        <ele>183</ele>
        <time>2025-08-17T07:16:02.569Z</time>
      </trkpt>
      <trkpt lat="44.24391" lon="0.85295">
        <ele>183</ele>
        <time>2025-08-17T07:16:03.569Z</time>
      </trkpt>
      <trkpt lat="44.2439" lon="0.85296">
        <ele>183</ele>
        <time>2025-08-17T07:16:04.569Z</time>
      </trkpt>
      <trkpt lat="44.24389" lon="0.85298">
        <ele>183</ele>
        <time>2025-08-17T07:16:05.569Z</time>
      </trkpt>
      <trkpt lat="44.24388" lon="0.85299">
        <ele>183</ele>
        <time>2025-08-17T07:16:06.569Z</time>
      </trkpt>
      <trkpt lat="44.24387" lon="0.85301">
        <ele>183</ele>
        <time>2025-08-17T07:16:07.569Z</time>
      </trkpt>
      <trkpt lat="44.24386" lon="0.85302">
        <ele>183</ele>
        <time>2025-08-17T07:16:08.569Z</time>
      </trkpt>
      <trkpt lat="44.24386" lon="0.85303">
        <ele>183</ele>
        <time>2025-08-17T07:16:09.569Z</time>
      </trkpt>
      <trkpt lat="44.24385" lon="0.85304">
        <ele>183</ele>
        <time>2025-08-17T07:16:10.569Z</time>
      </trkpt>
      <trkpt lat="44.24384" lon="0.85305">
        <ele>183</ele>
        <time>2025-08-17T07:16:11.569Z</time>
      </trkpt>
      <trkpt lat="44.24383" lon="0.85307">
        <ele>184</ele>
        <time>2025-08-17T07:16:12.569Z</time>
      </trkpt>
      <trkpt lat="44.24382" lon="0.85308">
        <ele>184</ele>
        <time>2025-08-17T07:16:13.569Z</time>
      </trkpt>
      <trkpt lat="44.24381" lon="0.85309">
        <ele>184</ele>
        <time>2025-08-17T07:16:14.569Z</time>
      </trkpt>
      <trkpt lat="44.2438" lon="0.8531">
        <ele>183</ele>
        <time>2025-08-17T07:16:15.569Z</time>
      </trkpt>
      <trkpt lat="44.24379" lon="0.85311">
        <ele>183</ele>
        <time>2025-08-17T07:16:16.569Z</time>
      </trkpt>
      <trkpt lat="44.24378" lon="0.85312">
        <ele>183</ele>
        <time>2025-08-17T07:16:17.569Z</time>
      </trkpt>
      <trkpt lat="44.24377" lon="0.85313">
        <ele>183</ele>
        <time>2025-08-17T07:16:18.569Z</time>
      </trkpt>
      <trkpt lat="44.24375" lon="0.85314">
        <ele>183</ele>
        <time>2025-08-17T07:16:19.569Z</time>
      </trkpt>
      <trkpt lat="44.24374" lon="0.85315">
        <ele>182</ele>
        <time>2025-08-17T07:16:20.569Z</time>
      </trkpt>
      <trkpt lat="44.24373" lon="0.85316">
        <ele>182</ele>
        <time>2025-08-17T07:16:21.569Z</time>
      </trkpt>
      <trkpt lat="44.24372" lon="0.85317">
        <ele>182</ele>
        <time>2025-08-17T07:16:22.569Z</time>
      </trkpt>
      <trkpt lat="44.24371" lon="0.85317">
        <ele>182</ele>
        <time>2025-08-17T07:16:23.569Z</time>
      </trkpt>
      <trkpt lat="44.2437" lon="0.85318">
        <ele>183</ele>
        <time>2025-08-17T07:16:24.569Z</time>
      </trkpt>
      <trkpt lat="44.24369" lon="0.85318">
        <ele>183</ele>
        <time>2025-08-17T07:16:25.569Z</time>
      </trkpt>
      <trkpt lat="44.24368" lon="0.85319">
        <ele>183</ele>
        <time>2025-08-17T07:16:26.569Z</time>
      </trkpt>
      <trkpt lat="44.24367" lon="0.8532">
        <ele>183</ele>
        <time>2025-08-17T07:16:27.569Z</time>
      </trkpt>
      <trkpt lat="44.24366" lon="0.85321">
        <ele>183</ele>
        <time>2025-08-17T07:16:28.569Z</time>
      </trkpt>
      <trkpt lat="44.24365" lon="0.85321">
        <ele>183</ele>
        <time>2025-08-17T07:16:29.569Z</time>
      </trkpt>
      <trkpt lat="44.24364" lon="0.85323">
        <ele>183</ele>
        <time>2025-08-17T07:16:30.569Z</time>
      </trkpt>
      <trkpt lat="44.24363" lon="0.85323">
        <ele>183</ele>
        <time>2025-08-17T07:16:31.569Z</time>
      </trkpt>
      <trkpt lat="44.24362" lon="0.85324">
        <ele>183</ele>
        <time>2025-08-17T07:16:32.569Z</time>
      </trkpt>
      <trkpt lat="44.24361" lon="0.85325">
        <ele>183</ele>
        <time>2025-08-17T07:16:33.569Z</time>
      </trkpt>
      <trkpt lat="44.2436" lon="0.85326">
        <ele>184</ele>
        <time>2025-08-17T07:16:34.569Z</time>
      </trkpt>
      <trkpt lat="44.24359" lon="0.85326">
        <ele>184</ele>
        <time>2025-08-17T07:16:35.569Z</time>
      </trkpt>
      <trkpt lat="44.24358" lon="0.85327">
        <ele>183</ele>
        <time>2025-08-17T07:16:36.569Z</time>
      </trkpt>
      <trkpt lat="44.24357" lon="0.85328">
        <ele>183</ele>
        <time>2025-08-17T07:16:37.569Z</time>
      </trkpt>
      <trkpt lat="44.24356" lon="0.85329">
        <ele>183</ele>
        <time>2025-08-17T07:16:38.569Z</time>
      </trkpt>
      <trkpt lat="44.24355" lon="0.8533">
        <ele>183</ele>
        <time>2025-08-17T07:16:39.569Z</time>
      </trkpt>
      <trkpt lat="44.24354" lon="0.85331">
        <ele>183</ele>
        <time>2025-08-17T07:16:40.569Z</time>
      </trkpt>
      <trkpt lat="44.24353" lon="0.85332">
        <ele>183</ele>
        <time>2025-08-17T07:16:41.569Z</time>
      </trkpt>
      <trkpt lat="44.24352" lon="0.85333">
        <ele>183</ele>
        <time>2025-08-17T07:16:42.569Z</time>
      </trkpt>
      <trkpt lat="44.24351" lon="0.85333">
        <ele>183</ele>
        <time>2025-08-17T07:16:43.569Z</time>
      </trkpt>
      <trkpt lat="44.2435" lon="0.85334">
        <ele>183</ele>
        <time>2025-08-17T07:16:44.569Z</time>
      </trkpt>
      <trkpt lat="44.24349" lon="0.85334">
        <ele>183</ele>
        <time>2025-08-17T07:16:45.569Z</time>
      </trkpt>
      <trkpt lat="44.24348" lon="0.85335">
        <ele>183</ele>
        <time>2025-08-17T07:16:46.569Z</time>
      </trkpt>
      <trkpt lat="44.24346" lon="0.85336">
        <ele>182</ele>
        <time>2025-08-17T07:16:47.569Z</time>
      </trkpt>
      <trkpt lat="44.24345" lon="0.85336">
        <ele>182</ele>
        <time>2025-08-17T07:16:48.569Z</time>
      </trkpt>
      <trkpt lat="44.24344" lon="0.85337">
        <ele>181</ele>
        <time>2025-08-17T07:16:49.569Z</time>
      </trkpt>
      <trkpt lat="44.24343" lon="0.85338">
        <ele>181</ele>
        <time>2025-08-17T07:16:50.569Z</time>
      </trkpt>
      <trkpt lat="44.24343" lon="0.85339">
        <ele>181</ele>
        <time>2025-08-17T07:16:51.569Z</time>
      </trkpt>
      <trkpt lat="44.24342" lon="0.85339">
        <ele>181</ele>
        <time>2025-08-17T07:16:52.569Z</time>
      </trkpt>
      <trkpt lat="44.24341" lon="0.8534">
        <ele>181</ele>
        <time>2025-08-17T07:16:53.569Z</time>
      </trkpt>
      <trkpt lat="44.2434" lon="0.85341">
        <ele>181</ele>
        <time>2025-08-17T07:16:54.569Z</time>
      </trkpt>
      <trkpt lat="44.24339" lon="0.85342">
        <ele>181</ele>
        <time>2025-08-17T07:16:55.569Z</time>
      </trkpt>
      <trkpt lat="44.24337" lon="0.85343">
        <ele>180</ele>
        <time>2025-08-17T07:16:56.569Z</time>
      </trkpt>
      <trkpt lat="44.24336" lon="0.85344">
        <ele>180</ele>
        <time>2025-08-17T07:16:57.569Z</time>
      </trkpt>
      <trkpt lat="44.24335" lon="0.85345">
        <ele>181</ele>
        <time>2025-08-17T07:16:58.569Z</time>
      </trkpt>
      <trkpt lat="44.24334" lon="0.85346">
        <ele>181</ele>
        <time>2025-08-17T07:16:59.569Z</time>
      </trkpt>
      <trkpt lat="44.24333" lon="0.85347">
        <ele>181</ele>
        <time>2025-08-17T07:17:00.569Z</time>
      </trkpt>
      <trkpt lat="44.24332" lon="0.85347">
        <ele>181</ele>
        <time>2025-08-17T07:17:01.569Z</time>
      </trkpt>
      <trkpt lat="44.24331" lon="0.85348">
        <ele>181</ele>
        <time>2025-08-17T07:17:02.569Z</time>
      </trkpt>
      <trkpt lat="44.2433" lon="0.85349">
        <ele>181</ele>
        <time>2025-08-17T07:17:03.569Z</time>
      </trkpt>
      <trkpt lat="44.24328" lon="0.8535">
        <ele>181</ele>
        <time>2025-08-17T07:17:04.569Z</time>
      </trkpt>
      <trkpt lat="44.24327" lon="0.85351">
        <ele>181</ele>
        <time>2025-08-17T07:17:05.569Z</time>
      </trkpt>
      <trkpt lat="44.24326" lon="0.85352">
        <ele>181</ele>
        <time>2025-08-17T07:17:06.569Z</time>
      </trkpt>
      <trkpt lat="44.24325" lon="0.85353">
        <ele>181</ele>
        <time>2025-08-17T07:17:07.569Z</time>
      </trkpt>
      <trkpt lat="44.24324" lon="0.85353">
        <ele>181</ele>
        <time>2025-08-17T07:17:08.569Z</time>
      </trkpt>
      <trkpt lat="44.24323" lon="0.85355">
        <ele>181</ele>
        <time>2025-08-17T07:17:09.569Z</time>
      </trkpt>
      <trkpt lat="44.24322" lon="0.85356">
        <ele>181</ele>
        <time>2025-08-17T07:17:10.569Z</time>
      </trkpt>
      <trkpt lat="44.24321" lon="0.85356">
        <ele>181</ele>
        <time>2025-08-17T07:17:11.569Z</time>
      </trkpt>
      <trkpt lat="44.2432" lon="0.85357">
        <ele>181</ele>
        <time>2025-08-17T07:17:12.569Z</time>
      </trkpt>
      <trkpt lat="44.24319" lon="0.85358">
        <ele>180</ele>
        <time>2025-08-17T07:17:13.569Z</time>
      </trkpt>
      <trkpt lat="44.24318" lon="0.85359">
        <ele>181</ele>
        <time>2025-08-17T07:17:14.569Z</time>
      </trkpt>
      <trkpt lat="44.24317" lon="0.8536">
        <ele>181</ele>
        <time>2025-08-17T07:17:15.569Z</time>
      </trkpt>
      <trkpt lat="44.24315" lon="0.85361">
        <ele>181</ele>
        <time>2025-08-17T07:17:16.569Z</time>
      </trkpt>
      <trkpt lat="44.24314" lon="0.85362">
        <ele>181</ele>
        <time>2025-08-17T07:17:17.569Z</time>
      </trkpt>
      <trkpt lat="44.24313" lon="0.85363">
        <ele>182</ele>
        <time>2025-08-17T07:17:18.569Z</time>
      </trkpt>
      <trkpt lat="44.24312" lon="0.85364">
        <ele>182</ele>
        <time>2025-08-17T07:17:19.569Z</time>
      </trkpt>
      <trkpt lat="44.24311" lon="0.85365">
        <ele>182</ele>
        <time>2025-08-17T07:17:20.569Z</time>
      </trkpt>
      <trkpt lat="44.2431" lon="0.85365">
        <ele>182</ele>
        <time>2025-08-17T07:17:21.569Z</time>
      </trkpt>
      <trkpt lat="44.2431" lon="0.85366">
        <ele>183</ele>
        <time>2025-08-17T07:17:22.569Z</time>
      </trkpt>
      <trkpt lat="44.24308" lon="0.85367">
        <ele>182</ele>
        <time>2025-08-17T07:17:23.569Z</time>
      </trkpt>
      <trkpt lat="44.24307" lon="0.85368">
        <ele>182</ele>
        <time>2025-08-17T07:17:24.569Z</time>
      </trkpt>
      <trkpt lat="44.24306" lon="0.85368">
        <ele>183</ele>
        <time>2025-08-17T07:17:25.569Z</time>
      </trkpt>
      <trkpt lat="44.24305" lon="0.85369">
        <ele>183</ele>
        <time>2025-08-17T07:17:26.569Z</time>
      </trkpt>
      <trkpt lat="44.24304" lon="0.8537">
        <ele>183</ele>
        <time>2025-08-17T07:17:27.569Z</time>
      </trkpt>
      <trkpt lat="44.24303" lon="0.85371">
        <ele>183</ele>
        <time>2025-08-17T07:17:28.569Z</time>
      </trkpt>
      <trkpt lat="44.24302" lon="0.85372">
        <ele>183</ele>
        <time>2025-08-17T07:17:29.569Z</time>
      </trkpt>
      <trkpt lat="44.24301" lon="0.85372">
        <ele>183</ele>
        <time>2025-08-17T07:17:30.569Z</time>
      </trkpt>
      <trkpt lat="44.243" lon="0.85373">
        <ele>183</ele>
        <time>2025-08-17T07:17:31.569Z</time>
      </trkpt>
      <trkpt lat="44.24299" lon="0.85374">
        <ele>183</ele>
        <time>2025-08-17T07:17:32.569Z</time>
      </trkpt>
      <trkpt lat="44.24298" lon="0.85376">
        <ele>184</ele>
        <time>2025-08-17T07:17:33.569Z</time>
      </trkpt>
      <trkpt lat="44.24297" lon="0.85376">
        <ele>184</ele>
        <time>2025-08-17T07:17:34.569Z</time>
      </trkpt>
      <trkpt lat="44.24296" lon="0.85377">
        <ele>184</ele>
        <time>2025-08-17T07:17:35.569Z</time>
      </trkpt>
      <trkpt lat="44.24294" lon="0.85378">
        <ele>184</ele>
        <time>2025-08-17T07:17:36.569Z</time>
      </trkpt>
      <trkpt lat="44.24293" lon="0.85379">
        <ele>184</ele>
        <time>2025-08-17T07:17:37.569Z</time>
      </trkpt>
      <trkpt lat="44.24293" lon="0.85379">
        <ele>184</ele>
        <time>2025-08-17T07:17:38.569Z</time>
      </trkpt>
      <trkpt lat="44.24292" lon="0.8538">
        <ele>183</ele>
        <time>2025-08-17T07:17:39.569Z</time>
      </trkpt>
      <trkpt lat="44.24291" lon="0.85381">
        <ele>183</ele>
        <time>2025-08-17T07:17:40.569Z</time>
      </trkpt>
      <trkpt lat="44.2429" lon="0.85381">
        <ele>183</ele>
        <time>2025-08-17T07:17:41.569Z</time>
      </trkpt>
      <trkpt lat="44.24288" lon="0.85382">
        <ele>183</ele>
        <time>2025-08-17T07:17:42.569Z</time>
      </trkpt>
      <trkpt lat="44.24287" lon="0.85383">
        <ele>183</ele>
        <time>2025-08-17T07:17:43.569Z</time>
      </trkpt>
      <trkpt lat="44.24286" lon="0.85384">
        <ele>183</ele>
        <time>2025-08-17T07:17:44.569Z</time>
      </trkpt>
      <trkpt lat="44.24285" lon="0.85385">
        <ele>183</ele>
        <time>2025-08-17T07:17:45.569Z</time>
      </trkpt>
      <trkpt lat="44.24284" lon="0.85386">
        <ele>183</ele>
        <time>2025-08-17T07:17:46.569Z</time>
      </trkpt>
      <trkpt lat="44.24283" lon="0.85387">
        <ele>183</ele>
        <time>2025-08-17T07:17:47.569Z</time>
      </trkpt>
      <trkpt lat="44.24282" lon="0.85387">
        <ele>183</ele>
        <time>2025-08-17T07:17:48.569Z</time>
      </trkpt>
      <trkpt lat="44.24281" lon="0.85388">
        <ele>183</ele>
        <time>2025-08-17T07:17:49.569Z</time>
      </trkpt>
      <trkpt lat="44.24279" lon="0.85389">
        <ele>183</ele>
        <time>2025-08-17T07:17:50.569Z</time>
      </trkpt>
      <trkpt lat="44.24278" lon="0.8539">
        <ele>183</ele>
        <time>2025-08-17T07:17:51.569Z</time>
      </trkpt>
      <trkpt lat="44.24277" lon="0.85391">
        <ele>183</ele>
        <time>2025-08-17T07:17:52.569Z</time>
      </trkpt>
      <trkpt lat="44.24276" lon="0.85391">
        <ele>183</ele>
        <time>2025-08-17T07:17:53.569Z</time>
      </trkpt>
      <trkpt lat="44.24274" lon="0.85392">
        <ele>183</ele>
        <time>2025-08-17T07:17:54.569Z</time>
      </trkpt>
      <trkpt lat="44.24273" lon="0.85392">
        <ele>182</ele>
        <time>2025-08-17T07:17:55.569Z</time>
      </trkpt>
      <trkpt lat="44.24272" lon="0.85393">
        <ele>182</ele>
        <time>2025-08-17T07:17:56.569Z</time>
      </trkpt>
      <trkpt lat="44.24271" lon="0.85393">
        <ele>182</ele>
        <time>2025-08-17T07:17:57.569Z</time>
      </trkpt>
      <trkpt lat="44.2427" lon="0.85394">
        <ele>182</ele>
        <time>2025-08-17T07:17:58.569Z</time>
      </trkpt>
      <trkpt lat="44.24269" lon="0.85394">
        <ele>182</ele>
        <time>2025-08-17T07:17:59.569Z</time>
      </trkpt>
      <trkpt lat="44.24268" lon="0.85395">
        <ele>182</ele>
        <time>2025-08-17T07:18:00.569Z</time>
      </trkpt>
      <trkpt lat="44.24267" lon="0.85396">
        <ele>183</ele>
        <time>2025-08-17T07:18:01.569Z</time>
      </trkpt>
      <trkpt lat="44.24266" lon="0.85397">
        <ele>183</ele>
        <time>2025-08-17T07:18:02.569Z</time>
      </trkpt>
      <trkpt lat="44.24264" lon="0.85398">
        <ele>183</ele>
        <time>2025-08-17T07:18:03.569Z</time>
      </trkpt>
      <trkpt lat="44.24263" lon="0.85398">
        <ele>183</ele>
        <time>2025-08-17T07:18:04.569Z</time>
      </trkpt>
      <trkpt lat="44.24262" lon="0.85399">
        <ele>183</ele>
        <time>2025-08-17T07:18:05.569Z</time>
      </trkpt>
      <trkpt lat="44.24261" lon="0.85399">
        <ele>183</ele>
        <time>2025-08-17T07:18:06.569Z</time>
      </trkpt>
      <trkpt lat="44.2426" lon="0.854">
        <ele>183</ele>
        <time>2025-08-17T07:18:07.569Z</time>
      </trkpt>
      <trkpt lat="44.2426" lon="0.85401">
        <ele>183</ele>
        <time>2025-08-17T07:18:08.569Z</time>
      </trkpt>
      <trkpt lat="44.24258" lon="0.85402">
        <ele>184</ele>
        <time>2025-08-17T07:18:09.569Z</time>
      </trkpt>
      <trkpt lat="44.24257" lon="0.85402">
        <ele>184</ele>
        <time>2025-08-17T07:18:10.569Z</time>
      </trkpt>
      <trkpt lat="44.24256" lon="0.85403">
        <ele>184</ele>
        <time>2025-08-17T07:18:11.569Z</time>
      </trkpt>
      <trkpt lat="44.24254" lon="0.85403">
        <ele>184</ele>
        <time>2025-08-17T07:18:12.569Z</time>
      </trkpt>
      <trkpt lat="44.24253" lon="0.85404">
        <ele>184</ele>
        <time>2025-08-17T07:18:13.569Z</time>
      </trkpt>
      <trkpt lat="44.24252" lon="0.85404">
        <ele>184</ele>
        <time>2025-08-17T07:18:14.569Z</time>
      </trkpt>
      <trkpt lat="44.24251" lon="0.85405">
        <ele>184</ele>
        <time>2025-08-17T07:18:15.569Z</time>
      </trkpt>
      <trkpt lat="44.2425" lon="0.85406">
        <ele>184</ele>
        <time>2025-08-17T07:18:16.569Z</time>
      </trkpt>
      <trkpt lat="44.24249" lon="0.85407">
        <ele>184</ele>
        <time>2025-08-17T07:18:17.569Z</time>
      </trkpt>
      <trkpt lat="44.24248" lon="0.85407">
        <ele>184</ele>
        <time>2025-08-17T07:18:18.569Z</time>
      </trkpt>
      <trkpt lat="44.24247" lon="0.85408">
        <ele>184</ele>
        <time>2025-08-17T07:18:19.569Z</time>
      </trkpt>
      <trkpt lat="44.24245" lon="0.85408">
        <ele>184</ele>
        <time>2025-08-17T07:18:20.569Z</time>
      </trkpt>
      <trkpt lat="44.24244" lon="0.85409">
        <ele>184</ele>
        <time>2025-08-17T07:18:21.569Z</time>
      </trkpt>
      <trkpt lat="44.24243" lon="0.85409">
        <ele>185</ele>
        <time>2025-08-17T07:18:22.569Z</time>
      </trkpt>
      <trkpt lat="44.24241" lon="0.8541">
        <ele>185</ele>
        <time>2025-08-17T07:18:23.569Z</time>
      </trkpt>
      <trkpt lat="44.2424" lon="0.85411">
        <ele>185</ele>
        <time>2025-08-17T07:18:24.569Z</time>
      </trkpt>
      <trkpt lat="44.24239" lon="0.85412">
        <ele>186</ele>
        <time>2025-08-17T07:18:25.569Z</time>
      </trkpt>
      <trkpt lat="44.24237" lon="0.85412">
        <ele>187</ele>
        <time>2025-08-17T07:18:26.569Z</time>
      </trkpt>
      <trkpt lat="44.24237" lon="0.85413">
        <ele>187</ele>
        <time>2025-08-17T07:18:27.569Z</time>
      </trkpt>
      <trkpt lat="44.24236" lon="0.85413">
        <ele>187</ele>
        <time>2025-08-17T07:18:28.569Z</time>
      </trkpt>
      <trkpt lat="44.24235" lon="0.85414">
        <ele>188</ele>
        <time>2025-08-17T07:18:29.569Z</time>
      </trkpt>
      <trkpt lat="44.24233" lon="0.85414">
        <ele>188</ele>
        <time>2025-08-17T07:18:30.569Z</time>
      </trkpt>
      <trkpt lat="44.24232" lon="0.85414">
        <ele>188</ele>
        <time>2025-08-17T07:18:31.569Z</time>
      </trkpt>
      <trkpt lat="44.24231" lon="0.85414">
        <ele>188</ele>
        <time>2025-08-17T07:18:32.569Z</time>
      </trkpt>
      <trkpt lat="44.24229" lon="0.85414">
        <ele>188</ele>
        <time>2025-08-17T07:18:33.569Z</time>
      </trkpt>
      <trkpt lat="44.24228" lon="0.85414">
        <ele>188</ele>
        <time>2025-08-17T07:18:34.569Z</time>
      </trkpt>
      <trkpt lat="44.24226" lon="0.85414">
        <ele>188</ele>
        <time>2025-08-17T07:18:35.569Z</time>
      </trkpt>
      <trkpt lat="44.24225" lon="0.85414">
        <ele>188</ele>
        <time>2025-08-17T07:18:36.569Z</time>
      </trkpt>
      <trkpt lat="44.24224" lon="0.85414">
        <ele>188</ele>
        <time>2025-08-17T07:18:37.569Z</time>
      </trkpt>
      <trkpt lat="44.24223" lon="0.85414">
        <ele>189</ele>
        <time>2025-08-17T07:18:38.569Z</time>
      </trkpt>
      <trkpt lat="44.24222" lon="0.85415">
        <ele>189</ele>
        <time>2025-08-17T07:18:39.569Z</time>
      </trkpt>
      <trkpt lat="44.24221" lon="0.85415">
        <ele>189</ele>
        <time>2025-08-17T07:18:40.569Z</time>
      </trkpt>
      <trkpt lat="44.24219" lon="0.85416">
        <ele>190</ele>
        <time>2025-08-17T07:18:41.569Z</time>
      </trkpt>
      <trkpt lat="44.24218" lon="0.85416">
        <ele>190</ele>
        <time>2025-08-17T07:18:42.569Z</time>
      </trkpt>
      <trkpt lat="44.24217" lon="0.85416">
        <ele>190</ele>
        <time>2025-08-17T07:18:43.569Z</time>
      </trkpt>
      <trkpt lat="44.24216" lon="0.85417">
        <ele>190</ele>
        <time>2025-08-17T07:18:44.569Z</time>
      </trkpt>
      <trkpt lat="44.24215" lon="0.85417">
        <ele>190</ele>
        <time>2025-08-17T07:18:45.569Z</time>
      </trkpt>
      <trkpt lat="44.24214" lon="0.85417">
        <ele>191</ele>
        <time>2025-08-17T07:18:46.569Z</time>
      </trkpt>
      <trkpt lat="44.24213" lon="0.85417">
        <ele>191</ele>
        <time>2025-08-17T07:18:47.569Z</time>
      </trkpt>
      <trkpt lat="44.24212" lon="0.85417">
        <ele>191</ele>
        <time>2025-08-17T07:18:48.569Z</time>
      </trkpt>
      <trkpt lat="44.24211" lon="0.85418">
        <ele>191</ele>
        <time>2025-08-17T07:18:49.569Z</time>
      </trkpt>
      <trkpt lat="44.24209" lon="0.85418">
        <ele>191</ele>
        <time>2025-08-17T07:18:50.569Z</time>
      </trkpt>
      <trkpt lat="44.24208" lon="0.85418">
        <ele>192</ele>
        <time>2025-08-17T07:18:51.569Z</time>
      </trkpt>
      <trkpt lat="44.24207" lon="0.85419">
        <ele>192</ele>
        <time>2025-08-17T07:18:52.569Z</time>
      </trkpt>
      <trkpt lat="44.24206" lon="0.85419">
        <ele>192</ele>
        <time>2025-08-17T07:18:53.569Z</time>
      </trkpt>
      <trkpt lat="44.24205" lon="0.85419">
        <ele>192</ele>
        <time>2025-08-17T07:18:54.569Z</time>
      </trkpt>
      <trkpt lat="44.24204" lon="0.8542">
        <ele>193</ele>
        <time>2025-08-17T07:18:55.569Z</time>
      </trkpt>
      <trkpt lat="44.24202" lon="0.8542">
        <ele>192</ele>
        <time>2025-08-17T07:18:56.569Z</time>
      </trkpt>
      <trkpt lat="44.24201" lon="0.8542">
        <ele>192</ele>
        <time>2025-08-17T07:18:57.569Z</time>
      </trkpt>
      <trkpt lat="44.242" lon="0.85421">
        <ele>192</ele>
        <time>2025-08-17T07:18:58.569Z</time>
      </trkpt>
      <trkpt lat="44.24198" lon="0.85421">
        <ele>192</ele>
        <time>2025-08-17T07:18:59.569Z</time>
      </trkpt>
      <trkpt lat="44.24197" lon="0.85422">
        <ele>193</ele>
        <time>2025-08-17T07:19:00.569Z</time>
      </trkpt>
      <trkpt lat="44.24196" lon="0.85422">
        <ele>193</ele>
        <time>2025-08-17T07:19:01.569Z</time>
      </trkpt>
      <trkpt lat="44.24196" lon="0.85423">
        <ele>193</ele>
        <time>2025-08-17T07:19:02.569Z</time>
      </trkpt>
      <trkpt lat="44.24195" lon="0.85424">
        <ele>194</ele>
        <time>2025-08-17T07:19:03.569Z</time>
      </trkpt>
      <trkpt lat="44.24194" lon="0.85425">
        <ele>194</ele>
        <time>2025-08-17T07:19:04.569Z</time>
      </trkpt>
      <trkpt lat="44.24192" lon="0.85425">
        <ele>194</ele>
        <time>2025-08-17T07:19:05.569Z</time>
      </trkpt>
      <trkpt lat="44.24191" lon="0.85426">
        <ele>194</ele>
        <time>2025-08-17T07:19:06.569Z</time>
      </trkpt>
      <trkpt lat="44.2419" lon="0.85427">
        <ele>194</ele>
        <time>2025-08-17T07:19:07.569Z</time>
      </trkpt>
      <trkpt lat="44.24189" lon="0.85428">
        <ele>194</ele>
        <time>2025-08-17T07:19:08.569Z</time>
      </trkpt>
      <trkpt lat="44.24188" lon="0.85428">
        <ele>194</ele>
        <time>2025-08-17T07:19:09.569Z</time>
      </trkpt>
      <trkpt lat="44.24187" lon="0.85429">
        <ele>193</ele>
        <time>2025-08-17T07:19:10.569Z</time>
      </trkpt>
      <trkpt lat="44.24186" lon="0.85429">
        <ele>193</ele>
        <time>2025-08-17T07:19:11.569Z</time>
      </trkpt>
      <trkpt lat="44.24185" lon="0.8543">
        <ele>193</ele>
        <time>2025-08-17T07:19:12.569Z</time>
      </trkpt>
      <trkpt lat="44.24184" lon="0.85431">
        <ele>194</ele>
        <time>2025-08-17T07:19:13.569Z</time>
      </trkpt>
      <trkpt lat="44.24182" lon="0.85432">
        <ele>194</ele>
        <time>2025-08-17T07:19:14.569Z</time>
      </trkpt>
      <trkpt lat="44.24181" lon="0.85433">
        <ele>194</ele>
        <time>2025-08-17T07:19:15.569Z</time>
      </trkpt>
      <trkpt lat="44.2418" lon="0.85434">
        <ele>194</ele>
        <time>2025-08-17T07:19:16.569Z</time>
      </trkpt>
      <trkpt lat="44.24179" lon="0.85435">
        <ele>194</ele>
        <time>2025-08-17T07:19:17.569Z</time>
      </trkpt>
      <trkpt lat="44.24178" lon="0.85435">
        <ele>193</ele>
        <time>2025-08-17T07:19:18.569Z</time>
      </trkpt>
      <trkpt lat="44.24177" lon="0.85436">
        <ele>193</ele>
        <time>2025-08-17T07:19:19.569Z</time>
      </trkpt>
      <trkpt lat="44.24176" lon="0.85437">
        <ele>194</ele>
        <time>2025-08-17T07:19:20.569Z</time>
      </trkpt>
      <trkpt lat="44.24175" lon="0.85438">
        <ele>194</ele>
        <time>2025-08-17T07:19:21.569Z</time>
      </trkpt>
      <trkpt lat="44.24174" lon="0.85439">
        <ele>195</ele>
        <time>2025-08-17T07:19:22.569Z</time>
      </trkpt>
      <trkpt lat="44.24173" lon="0.8544">
        <ele>195</ele>
        <time>2025-08-17T07:19:23.569Z</time>
      </trkpt>
      <trkpt lat="44.24172" lon="0.85441">
        <ele>195</ele>
        <time>2025-08-17T07:19:24.569Z</time>
      </trkpt>
      <trkpt lat="44.2417" lon="0.85441">
        <ele>195</ele>
        <time>2025-08-17T07:19:25.569Z</time>
      </trkpt>
      <trkpt lat="44.24169" lon="0.85442">
        <ele>195</ele>
        <time>2025-08-17T07:19:26.569Z</time>
      </trkpt>
      <trkpt lat="44.24169" lon="0.85443">
        <ele>195</ele>
        <time>2025-08-17T07:19:27.569Z</time>
      </trkpt>
      <trkpt lat="44.24168" lon="0.85444">
        <ele>195</ele>
        <time>2025-08-17T07:19:28.569Z</time>
      </trkpt>
      <trkpt lat="44.24167" lon="0.85444">
        <ele>195</ele>
        <time>2025-08-17T07:19:29.569Z</time>
      </trkpt>
      <trkpt lat="44.24166" lon="0.85445">
        <ele>195</ele>
        <time>2025-08-17T07:19:30.569Z</time>
      </trkpt>
      <trkpt lat="44.24165" lon="0.85446">
        <ele>195</ele>
        <time>2025-08-17T07:19:31.569Z</time>
      </trkpt>
      <trkpt lat="44.24164" lon="0.85446">
        <ele>195</ele>
        <time>2025-08-17T07:19:32.569Z</time>
      </trkpt>
      <trkpt lat="44.24163" lon="0.85447">
        <ele>195</ele>
        <time>2025-08-17T07:19:33.569Z</time>
      </trkpt>
      <trkpt lat="44.24162" lon="0.85448">
        <ele>195</ele>
        <time>2025-08-17T07:19:34.569Z</time>
      </trkpt>
      <trkpt lat="44.24161" lon="0.85449">
        <ele>195</ele>
        <time>2025-08-17T07:19:35.569Z</time>
      </trkpt>
      <trkpt lat="44.2416" lon="0.8545">
        <ele>195</ele>
        <time>2025-08-17T07:19:36.569Z</time>
      </trkpt>
      <trkpt lat="44.2416" lon="0.8545">
        <ele>195</ele>
        <time>2025-08-17T07:19:37.569Z</time>
      </trkpt>
      <trkpt lat="44.24159" lon="0.85451">
        <ele>195</ele>
        <time>2025-08-17T07:19:38.569Z</time>
      </trkpt>
      <trkpt lat="44.24158" lon="0.85452">
        <ele>195</ele>
        <time>2025-08-17T07:19:39.569Z</time>
      </trkpt>
      <trkpt lat="44.24156" lon="0.85453">
        <ele>195</ele>
        <time>2025-08-17T07:19:40.569Z</time>
      </trkpt>
      <trkpt lat="44.24155" lon="0.85454">
        <ele>195</ele>
        <time>2025-08-17T07:19:41.569Z</time>
      </trkpt>
      <trkpt lat="44.24154" lon="0.85455">
        <ele>195</ele>
        <time>2025-08-17T07:19:42.569Z</time>
      </trkpt>
      <trkpt lat="44.24153" lon="0.85456">
        <ele>194</ele>
        <time>2025-08-17T07:19:43.569Z</time>
      </trkpt>
      <trkpt lat="44.24152" lon="0.85456">
        <ele>194</ele>
        <time>2025-08-17T07:19:44.569Z</time>
      </trkpt>
      <trkpt lat="44.24151" lon="0.85457">
        <ele>194</ele>
        <time>2025-08-17T07:19:45.569Z</time>
      </trkpt>
      <trkpt lat="44.2415" lon="0.85458">
        <ele>193</ele>
        <time>2025-08-17T07:19:46.569Z</time>
      </trkpt>
      <trkpt lat="44.24149" lon="0.85459">
        <ele>193</ele>
        <time>2025-08-17T07:19:47.569Z</time>
      </trkpt>
      <trkpt lat="44.24148" lon="0.8546">
        <ele>193</ele>
        <time>2025-08-17T07:19:48.569Z</time>
      </trkpt>
      <trkpt lat="44.24147" lon="0.85461">
        <ele>194</ele>
        <time>2025-08-17T07:19:49.569Z</time>
      </trkpt>
      <trkpt lat="44.24146" lon="0.85462">
        <ele>194</ele>
        <time>2025-08-17T07:19:50.569Z</time>
      </trkpt>
      <trkpt lat="44.24145" lon="0.85463">
        <ele>194</ele>
        <time>2025-08-17T07:19:51.569Z</time>
      </trkpt>
      <trkpt lat="44.24144" lon="0.85463">
        <ele>194</ele>
        <time>2025-08-17T07:19:52.569Z</time>
      </trkpt>
      <trkpt lat="44.24144" lon="0.85464">
        <ele>195</ele>
        <time>2025-08-17T07:19:53.569Z</time>
      </trkpt>
      <trkpt lat="44.24143" lon="0.85465">
        <ele>195</ele>
        <time>2025-08-17T07:19:54.569Z</time>
      </trkpt>
      <trkpt lat="44.24141" lon="0.85465">
        <ele>195</ele>
        <time>2025-08-17T07:19:55.569Z</time>
      </trkpt>
      <trkpt lat="44.2414" lon="0.85466">
        <ele>194</ele>
        <time>2025-08-17T07:19:56.569Z</time>
      </trkpt>
      <trkpt lat="44.24139" lon="0.85466">
        <ele>194</ele>
        <time>2025-08-17T07:19:57.569Z</time>
      </trkpt>
      <trkpt lat="44.24138" lon="0.85467">
        <ele>195</ele>
        <time>2025-08-17T07:19:58.569Z</time>
      </trkpt>
      <trkpt lat="44.24137" lon="0.85468">
        <ele>194</ele>
        <time>2025-08-17T07:19:59.569Z</time>
      </trkpt>
      <trkpt lat="44.24136" lon="0.85469">
        <ele>194</ele>
        <time>2025-08-17T07:20:00.569Z</time>
      </trkpt>
      <trkpt lat="44.24135" lon="0.8547">
        <ele>194</ele>
        <time>2025-08-17T07:20:01.569Z</time>
      </trkpt>
      <trkpt lat="44.24134" lon="0.8547">
        <ele>194</ele>
        <time>2025-08-17T07:20:02.569Z</time>
      </trkpt>
      <trkpt lat="44.24133" lon="0.85471">
        <ele>194</ele>
        <time>2025-08-17T07:20:03.569Z</time>
      </trkpt>
      <trkpt lat="44.24132" lon="0.85471">
        <ele>193</ele>
        <time>2025-08-17T07:20:04.569Z</time>
      </trkpt>
      <trkpt lat="44.24131" lon="0.85472">
        <ele>193</ele>
        <time>2025-08-17T07:20:05.569Z</time>
      </trkpt>
      <trkpt lat="44.2413" lon="0.85472">
        <ele>194</ele>
        <time>2025-08-17T07:20:06.569Z</time>
      </trkpt>
      <trkpt lat="44.24129" lon="0.85473">
        <ele>194</ele>
        <time>2025-08-17T07:20:07.569Z</time>
      </trkpt>
      <trkpt lat="44.24128" lon="0.85474">
        <ele>194</ele>
        <time>2025-08-17T07:20:08.569Z</time>
      </trkpt>
      <trkpt lat="44.24127" lon="0.85474">
        <ele>194</ele>
        <time>2025-08-17T07:20:09.569Z</time>
      </trkpt>
      <trkpt lat="44.24126" lon="0.85475">
        <ele>193</ele>
        <time>2025-08-17T07:20:10.569Z</time>
      </trkpt>
      <trkpt lat="44.24125" lon="0.85476">
        <ele>193</ele>
        <time>2025-08-17T07:20:11.569Z</time>
      </trkpt>
      <trkpt lat="44.24124" lon="0.85477">
        <ele>193</ele>
        <time>2025-08-17T07:20:12.569Z</time>
      </trkpt>
      <trkpt lat="44.24123" lon="0.85477">
        <ele>193</ele>
        <time>2025-08-17T07:20:13.569Z</time>
      </trkpt>
      <trkpt lat="44.24123" lon="0.85478">
        <ele>193</ele>
        <time>2025-08-17T07:20:14.569Z</time>
      </trkpt>
      <trkpt lat="44.24122" lon="0.85479">
        <ele>193</ele>
        <time>2025-08-17T07:20:15.569Z</time>
      </trkpt>
      <trkpt lat="44.24122" lon="0.8548">
        <ele>193</ele>
        <time>2025-08-17T07:20:16.569Z</time>
      </trkpt>
      <trkpt lat="44.24122" lon="0.8548">
        <ele>193</ele>
        <time>2025-08-17T07:20:17.569Z</time>
      </trkpt>
      <trkpt lat="44.24122" lon="0.85481">
        <ele>193</ele>
        <time>2025-08-17T07:20:18.569Z</time>
      </trkpt>
      <trkpt lat="44.24122" lon="0.85482">
        <ele>193</ele>
        <time>2025-08-17T07:20:19.569Z</time>
      </trkpt>
      <trkpt lat="44.24121" lon="0.85482">
        <ele>194</ele>
        <time>2025-08-17T07:20:20.569Z</time>
      </trkpt>
      <trkpt lat="44.24121" lon="0.85482">
        <ele>194</ele>
        <time>2025-08-17T07:20:21.569Z</time>
      </trkpt>
      <trkpt lat="44.24121" lon="0.85482">
        <ele>194</ele>
        <time>2025-08-17T07:20:22.569Z</time>
      </trkpt>
      <trkpt lat="44.24121" lon="0.85482">
        <ele>194</ele>
        <time>2025-08-17T07:20:23.569Z</time>
      </trkpt>
      <trkpt lat="44.24121" lon="0.85482">
        <ele>194</ele>
        <time>2025-08-17T07:20:24.569Z</time>
      </trkpt>
      <trkpt lat="44.24121" lon="0.85482">
        <ele>194</ele>
        <time>2025-08-17T07:20:25.569Z</time>
      </trkpt>
      <trkpt lat="44.24121" lon="0.85482">
        <ele>193</ele>
        <time>2025-08-17T07:20:26.569Z</time>
      </trkpt>
      <trkpt lat="44.24121" lon="0.85482">
        <ele>193</ele>
        <time>2025-08-17T07:20:27.569Z</time>
      </trkpt>
      <trkpt lat="44.24121" lon="0.85482">
        <ele>193</ele>
        <time>2025-08-17T07:20:28.569Z</time>
      </trkpt>
      <trkpt lat="44.24121" lon="0.85482">
        <ele>193</ele>
        <time>2025-08-17T07:20:29.569Z</time>
      </trkpt>
      <trkpt lat="44.24121" lon="0.85482">
        <ele>193</ele>
        <time>2025-08-17T07:20:30.569Z</time>
      </trkpt>
      <trkpt lat="44.24122" lon="0.85482">
        <ele>193</ele>
        <time>2025-08-17T07:20:31.569Z</time>
      </trkpt>
      <trkpt lat="44.24122" lon="0.85482">
        <ele>193</ele>
        <time>2025-08-17T07:20:32.569Z</time>
      </trkpt>
      <trkpt lat="44.24121" lon="0.85482">
        <ele>193</ele>
        <time>2025-08-17T07:20:33.569Z</time>
      </trkpt>
      <trkpt lat="44.24121" lon="0.85482">
        <ele>193</ele>
        <time>2025-08-17T07:20:34.569Z</time>
      </trkpt>
      <trkpt lat="44.24121" lon="0.85482">
        <ele>193</ele>
        <time>2025-08-17T07:20:35.569Z</time>
      </trkpt>
      <trkpt lat="44.24121" lon="0.85482">
        <ele>193</ele>
        <time>2025-08-17T07:20:36.569Z</time>
      </trkpt>
      <trkpt lat="44.24121" lon="0.85481">
        <ele>192</ele>
        <time>2025-08-17T07:20:37.569Z</time>
      </trkpt>
      <trkpt lat="44.24121" lon="0.85481">
        <ele>192</ele>
        <time>2025-08-17T07:20:38.569Z</time>
      </trkpt>
      <trkpt lat="44.2412" lon="0.8548">
        <ele>192</ele>
        <time>2025-08-17T07:20:39.569Z</time>
      </trkpt>
      <trkpt lat="44.2412" lon="0.85479">
        <ele>192</ele>
        <time>2025-08-17T07:20:40.569Z</time>
      </trkpt>
      <trkpt lat="44.24121" lon="0.85478">
        <ele>192</ele>
        <time>2025-08-17T07:20:41.569Z</time>
      </trkpt>
      <trkpt lat="44.24121" lon="0.85477">
        <ele>192</ele>
        <time>2025-08-17T07:20:42.569Z</time>
      </trkpt>
      <trkpt lat="44.24121" lon="0.85476">
        <ele>192</ele>
        <time>2025-08-17T07:20:43.569Z</time>
      </trkpt>
      <trkpt lat="44.24122" lon="0.85476">
        <ele>192</ele>
        <time>2025-08-17T07:20:44.569Z</time>
      </trkpt>
      <trkpt lat="44.24122" lon="0.85476">
        <ele>192</ele>
        <time>2025-08-17T07:20:45.569Z</time>
      </trkpt>
      <trkpt lat="44.24122" lon="0.85476">
        <ele>192</ele>
        <time>2025-08-17T07:20:46.569Z</time>
      </trkpt>
      <trkpt lat="44.24122" lon="0.85476">
        <ele>192</ele>
        <time>2025-08-17T07:20:47.569Z</time>
      </trkpt>
      <trkpt lat="44.24122" lon="0.85475">
        <ele>192</ele>
        <time>2025-08-17T07:20:48.569Z</time>
      </trkpt>
      <trkpt lat="44.24122" lon="0.85475">
        <ele>192</ele>
        <time>2025-08-17T07:20:49.569Z</time>
      </trkpt>
      <trkpt lat="44.24122" lon="0.85475">
        <ele>192</ele>
        <time>2025-08-17T07:20:50.569Z</time>
      </trkpt>
      <trkpt lat="44.24122" lon="0.85475">
        <ele>191</ele>
        <time>2025-08-17T07:20:51.569Z</time>
      </trkpt>
      <trkpt lat="44.24122" lon="0.85475">
        <ele>191</ele>
        <time>2025-08-17T07:20:52.569Z</time>
      </trkpt>
      <trkpt lat="44.24122" lon="0.85475">
        <ele>191</ele>
        <time>2025-08-17T07:20:53.569Z</time>
      </trkpt>
      <trkpt lat="44.24122" lon="0.85475">
        <ele>191</ele>
        <time>2025-08-17T07:20:54.569Z</time>
      </trkpt>
      <trkpt lat="44.24123" lon="0.85475">
        <ele>190</ele>
        <time>2025-08-17T07:20:55.569Z</time>
      </trkpt>
      <trkpt lat="44.24123" lon="0.85475">
        <ele>190</ele>
        <time>2025-08-17T07:20:56.569Z</time>
      </trkpt>
      <trkpt lat="44.24123" lon="0.85475">
        <ele>190</ele>
        <time>2025-08-17T07:20:57.569Z</time>
      </trkpt>
      <trkpt lat="44.24123" lon="0.85475">
        <ele>190</ele>
        <time>2025-08-17T07:20:58.569Z</time>
      </trkpt>
      <trkpt lat="44.24123" lon="0.85475">
        <ele>190</ele>
        <time>2025-08-17T07:20:59.569Z</time>
      </trkpt>
      <trkpt lat="44.24123" lon="0.85475">
        <ele>189</ele>
        <time>2025-08-17T07:21:00.569Z</time>
      </trkpt>
      <trkpt lat="44.24123" lon="0.85475">
        <ele>189</ele>
        <time>2025-08-17T07:21:01.569Z</time>
      </trkpt>
      <trkpt lat="44.24123" lon="0.85475">
        <ele>189</ele>
        <time>2025-08-17T07:21:02.569Z</time>
      </trkpt>
      <trkpt lat="44.24122" lon="0.85475">
        <ele>189</ele>
        <time>2025-08-17T07:21:03.569Z</time>
      </trkpt>
      <trkpt lat="44.24122" lon="0.85475">
        <ele>188</ele>
        <time>2025-08-17T07:21:04.569Z</time>
      </trkpt>
      <trkpt lat="44.24122" lon="0.85475">
        <ele>188</ele>
        <time>2025-08-17T07:21:05.569Z</time>
      </trkpt>
      <trkpt lat="44.24122" lon="0.85475">
        <ele>188</ele>
        <time>2025-08-17T07:21:06.569Z</time>
      </trkpt>
      <trkpt lat="44.24122" lon="0.85475">
        <ele>188</ele>
        <time>2025-08-17T07:21:07.569Z</time>
      </trkpt>
      <trkpt lat="44.24122" lon="0.85475">
        <ele>189</ele>
        <time>2025-08-17T07:21:08.569Z</time>
      </trkpt>
      <trkpt lat="44.24122" lon="0.85475">
        <ele>189</ele>
        <time>2025-08-17T07:21:09.569Z</time>
      </trkpt>
      <trkpt lat="44.24122" lon="0.85475">
        <ele>189</ele>
        <time>2025-08-17T07:21:10.569Z</time>
      </trkpt>
      <trkpt lat="44.24122" lon="0.85475">
        <ele>189</ele>
        <time>2025-08-17T07:21:11.569Z</time>
      </trkpt>
      <trkpt lat="44.24122" lon="0.85475">
        <ele>190</ele>
        <time>2025-08-17T07:21:12.569Z</time>
      </trkpt>
      <trkpt lat="44.24122" lon="0.85475">
        <ele>190</ele>
        <time>2025-08-17T07:21:13.569Z</time>
      </trkpt>
      <trkpt lat="44.24122" lon="0.85475">
        <ele>190</ele>
        <time>2025-08-17T07:21:14.569Z</time>
      </trkpt>
      <trkpt lat="44.24122" lon="0.85475">
        <ele>190</ele>
        <time>2025-08-17T07:21:15.569Z</time>
      </trkpt>
      <trkpt lat="44.24122" lon="0.85475">
        <ele>190</ele>
        <time>2025-08-17T07:21:16.569Z</time>
      </trkpt>
      <trkpt lat="44.24122" lon="0.85475">
        <ele>190</ele>
        <time>2025-08-17T07:21:17.569Z</time>
      </trkpt>
      <trkpt lat="44.24122" lon="0.85476">
        <ele>190</ele>
        <time>2025-08-17T07:21:18.569Z</time>
      </trkpt>
      <trkpt lat="44.24122" lon="0.85476">
        <ele>191</ele>
        <time>2025-08-17T07:21:19.569Z</time>
      </trkpt>
      <trkpt lat="44.24122" lon="0.85476">
        <ele>191</ele>
        <time>2025-08-17T07:21:20.569Z</time>
      </trkpt>
      <trkpt lat="44.24122" lon="0.85476">
        <ele>191</ele>
        <time>2025-08-17T07:21:21.569Z</time>
      </trkpt>
      <trkpt lat="44.24122" lon="0.85476">
        <ele>191</ele>
        <time>2025-08-17T07:21:22.569Z</time>
      </trkpt>
      <trkpt lat="44.24122" lon="0.85476">
        <ele>191</ele>
        <time>2025-08-17T07:21:23.569Z</time>
      </trkpt>
      <trkpt lat="44.24122" lon="0.85476">
        <ele>191</ele>
        <time>2025-08-17T07:21:24.569Z</time>
      </trkpt>
      <trkpt lat="44.24121" lon="0.85476">
        <ele>191</ele>
        <time>2025-08-17T07:21:25.569Z</time>
      </trkpt>
      <trkpt lat="44.24121" lon="0.85476">
        <ele>191</ele>
        <time>2025-08-17T07:21:26.569Z</time>
      </trkpt>
      <trkpt lat="44.24121" lon="0.85476">
        <ele>191</ele>
        <time>2025-08-17T07:21:27.569Z</time>
      </trkpt>
      <trkpt lat="44.24121" lon="0.85476">
        <ele>191</ele>
        <time>2025-08-17T07:21:28.569Z</time>
      </trkpt>
      <trkpt lat="44.24121" lon="0.85476">
        <ele>192</ele>
        <time>2025-08-17T07:21:29.569Z</time>
      </trkpt>
      <trkpt lat="44.24121" lon="0.85476">
        <ele>192</ele>
        <time>2025-08-17T07:21:30.569Z</time>
      </trkpt>
      <trkpt lat="44.24121" lon="0.85476">
        <ele>192</ele>
        <time>2025-08-17T07:21:31.569Z</time>
      </trkpt>
      <trkpt lat="44.24121" lon="0.85476">
        <ele>191</ele>
        <time>2025-08-17T07:21:32.569Z</time>
      </trkpt>
      <trkpt lat="44.24121" lon="0.85476">
        <ele>191</ele>
        <time>2025-08-17T07:21:33.569Z</time>
      </trkpt>
      <trkpt lat="44.24121" lon="0.85476">
        <ele>191</ele>
        <time>2025-08-17T07:21:34.569Z</time>
      </trkpt>
      <trkpt lat="44.24121" lon="0.85476">
        <ele>191</ele>
        <time>2025-08-17T07:21:35.569Z</time>
      </trkpt>
      <trkpt lat="44.24121" lon="0.85476">
        <ele>191</ele>
        <time>2025-08-17T07:21:36.569Z</time>
      </trkpt>
      <trkpt lat="44.24121" lon="0.85476">
        <ele>191</ele>
        <time>2025-08-17T07:21:37.569Z</time>
      </trkpt>
      <trkpt lat="44.24121" lon="0.85476">
        <ele>191</ele>
        <time>2025-08-17T07:21:38.569Z</time>
      </trkpt>
      <trkpt lat="44.24121" lon="0.85476">
        <ele>191</ele>
        <time>2025-08-17T07:21:39.569Z</time>
      </trkpt>
      <trkpt lat="44.24121" lon="0.85476">
        <ele>191</ele>
        <time>2025-08-17T07:21:40.569Z</time>
      </trkpt>
      <trkpt lat="44.24121" lon="0.85476">
        <ele>191</ele>
        <time>2025-08-17T07:21:41.569Z</time>
      </trkpt>
      <trkpt lat="44.24121" lon="0.85476">
        <ele>191</ele>
        <time>2025-08-17T07:21:42.569Z</time>
      </trkpt>
      <trkpt lat="44.24121" lon="0.85476">
        <ele>191</ele>
        <time>2025-08-17T07:21:43.569Z</time>
      </trkpt>
      <trkpt lat="44.24121" lon="0.85476">
        <ele>191</ele>
        <time>2025-08-17T07:21:44.569Z</time>
      </trkpt>
      <trkpt lat="44.2412" lon="0.85477">
        <ele>191</ele>
        <time>2025-08-17T07:21:45.569Z</time>
      </trkpt>
      <trkpt lat="44.2412" lon="0.85477">
        <ele>191</ele>
        <time>2025-08-17T07:21:46.569Z</time>
      </trkpt>
      <trkpt lat="44.2412" lon="0.85477">
        <ele>191</ele>
        <time>2025-08-17T07:21:47.569Z</time>
      </trkpt>
      <trkpt lat="44.2412" lon="0.85477">
        <ele>191</ele>
        <time>2025-08-17T07:21:48.569Z</time>
      </trkpt>
      <trkpt lat="44.2412" lon="0.85477">
        <ele>191</ele>
        <time>2025-08-17T07:21:49.569Z</time>
      </trkpt>
      <trkpt lat="44.2412" lon="0.85477">
        <ele>191</ele>
        <time>2025-08-17T07:21:50.569Z</time>
      </trkpt>
      <trkpt lat="44.2412" lon="0.85477">
        <ele>191</ele>
        <time>2025-08-17T07:21:51.569Z</time>
      </trkpt>
      <trkpt lat="44.2412" lon="0.85477">
        <ele>191</ele>
        <time>2025-08-17T07:21:52.569Z</time>
      </trkpt>
      <trkpt lat="44.2412" lon="0.85477">
        <ele>191</ele>
        <time>2025-08-17T07:21:53.569Z</time>
      </trkpt>
      <trkpt lat="44.2412" lon="0.85477">
        <ele>190</ele>
        <time>2025-08-17T07:21:54.569Z</time>
      </trkpt>
      <trkpt lat="44.2412" lon="0.85477">
        <ele>190</ele>
        <time>2025-08-17T07:21:55.569Z</time>
      </trkpt>
      <trkpt lat="44.2412" lon="0.85477">
        <ele>190</ele>
        <time>2025-08-17T07:21:56.569Z</time>
      </trkpt>
      <trkpt lat="44.2412" lon="0.85477">
        <ele>190</ele>
        <time>2025-08-17T07:21:57.569Z</time>
      </trkpt>
      <trkpt lat="44.2412" lon="0.85477">
        <ele>190</ele>
        <time>2025-08-17T07:21:58.569Z</time>
      </trkpt>
      <trkpt lat="44.2412" lon="0.85477">
        <ele>190</ele>
        <time>2025-08-17T07:21:59.569Z</time>
      </trkpt>
      <trkpt lat="44.2412" lon="0.85477">
        <ele>190</ele>
        <time>2025-08-17T07:22:00.569Z</time>
      </trkpt>
      <trkpt lat="44.2412" lon="0.85477">
        <ele>190</ele>
        <time>2025-08-17T07:22:01.569Z</time>
      </trkpt>
      <trkpt lat="44.2412" lon="0.85477">
        <ele>190</ele>
        <time>2025-08-17T07:22:02.569Z</time>
      </trkpt>
      <trkpt lat="44.2412" lon="0.85477">
        <ele>190</ele>
        <time>2025-08-17T07:22:03.569Z</time>
      </trkpt>
      <trkpt lat="44.2412" lon="0.85478">
        <ele>190</ele>
        <time>2025-08-17T07:22:04.569Z</time>
      </trkpt>
      <trkpt lat="44.2412" lon="0.85478">
        <ele>190</ele>
        <time>2025-08-17T07:22:05.569Z</time>
      </trkpt>
      <trkpt lat="44.2412" lon="0.85478">
        <ele>190</ele>
        <time>2025-08-17T07:22:06.569Z</time>
      </trkpt>
      <trkpt lat="44.2412" lon="0.85478">
        <ele>190</ele>
        <time>2025-08-17T07:22:07.569Z</time>
      </trkpt>
      <trkpt lat="44.2412" lon="0.85478">
        <ele>190</ele>
        <time>2025-08-17T07:22:08.569Z</time>
      </trkpt>
      <trkpt lat="44.2412" lon="0.85478">
        <ele>190</ele>
        <time>2025-08-17T07:22:09.569Z</time>
      </trkpt>
      <trkpt lat="44.2412" lon="0.85478">
        <ele>190</ele>
        <time>2025-08-17T07:22:10.569Z</time>
      </trkpt>
      <trkpt lat="44.2412" lon="0.85478">
        <ele>190</ele>
        <time>2025-08-17T07:22:11.569Z</time>
      </trkpt>
      <trkpt lat="44.2412" lon="0.85478">
        <ele>190</ele>
        <time>2025-08-17T07:22:12.569Z</time>
      </trkpt>
      <trkpt lat="44.2412" lon="0.85478">
        <ele>190</ele>
        <time>2025-08-17T07:22:13.569Z</time>
      </trkpt>
      <trkpt lat="44.2412" lon="0.85478">
        <ele>191</ele>
        <time>2025-08-17T07:22:14.569Z</time>
      </trkpt>
      <trkpt lat="44.2412" lon="0.85478">
        <ele>191</ele>
        <time>2025-08-17T07:22:15.569Z</time>
      </trkpt>
      <trkpt lat="44.24119" lon="0.85477">
        <ele>191</ele>
        <time>2025-08-17T07:22:16.569Z</time>
      </trkpt>
      <trkpt lat="44.24119" lon="0.85477">
        <ele>192</ele>
        <time>2025-08-17T07:22:17.569Z</time>
      </trkpt>
      <trkpt lat="44.24118" lon="0.85477">
        <ele>192</ele>
        <time>2025-08-17T07:22:18.569Z</time>
      </trkpt>
      <trkpt lat="44.24118" lon="0.85477">
        <ele>192</ele>
        <time>2025-08-17T07:22:19.569Z</time>
      </trkpt>
      <trkpt lat="44.24118" lon="0.85477">
        <ele>192</ele>
        <time>2025-08-17T07:22:20.569Z</time>
      </trkpt>
      <trkpt lat="44.24118" lon="0.85477">
        <ele>192</ele>
        <time>2025-08-17T07:22:21.569Z</time>
      </trkpt>
      <trkpt lat="44.24118" lon="0.85477">
        <ele>192</ele>
        <time>2025-08-17T07:22:22.569Z</time>
      </trkpt>
      <trkpt lat="44.24118" lon="0.85477">
        <ele>192</ele>
        <time>2025-08-17T07:22:23.569Z</time>
      </trkpt>
      <trkpt lat="44.24117" lon="0.85478">
        <ele>192</ele>
        <time>2025-08-17T07:22:24.569Z</time>
      </trkpt>
      <trkpt lat="44.24117" lon="0.85478">
        <ele>192</ele>
        <time>2025-08-17T07:22:25.569Z</time>
      </trkpt>
      <trkpt lat="44.24117" lon="0.85478">
        <ele>192</ele>
        <time>2025-08-17T07:22:26.569Z</time>
      </trkpt>
      <trkpt lat="44.24117" lon="0.85478">
        <ele>192</ele>
        <time>2025-08-17T07:22:27.569Z</time>
      </trkpt>
      <trkpt lat="44.24116" lon="0.85478">
        <ele>192</ele>
        <time>2025-08-17T07:22:28.569Z</time>
      </trkpt>
      <trkpt lat="44.24116" lon="0.85478">
        <ele>192</ele>
        <time>2025-08-17T07:22:29.569Z</time>
      </trkpt>
      <trkpt lat="44.24116" lon="0.85478">
        <ele>193</ele>
        <time>2025-08-17T07:22:30.569Z</time>
      </trkpt>
      <trkpt lat="44.24116" lon="0.85478">
        <ele>193</ele>
        <time>2025-08-17T07:22:31.569Z</time>
      </trkpt>
      <trkpt lat="44.24116" lon="0.85478">
        <ele>193</ele>
        <time>2025-08-17T07:22:32.569Z</time>
      </trkpt>
      <trkpt lat="44.24116" lon="0.85478">
        <ele>192</ele>
        <time>2025-08-17T07:22:33.569Z</time>
      </trkpt>
      <trkpt lat="44.24116" lon="0.85478">
        <ele>192</ele>
        <time>2025-08-17T07:22:34.569Z</time>
      </trkpt>
      <trkpt lat="44.24116" lon="0.85478">
        <ele>192</ele>
        <time>2025-08-17T07:22:35.569Z</time>
      </trkpt>
      <trkpt lat="44.24116" lon="0.85478">
        <ele>192</ele>
        <time>2025-08-17T07:22:36.569Z</time>
      </trkpt>
      <trkpt lat="44.24116" lon="0.85477">
        <ele>192</ele>
        <time>2025-08-17T07:22:37.569Z</time>
      </trkpt>
      <trkpt lat="44.24117" lon="0.85477">
        <ele>192</ele>
        <time>2025-08-17T07:22:38.569Z</time>
      </trkpt>
      <trkpt lat="44.24117" lon="0.85477">
        <ele>192</ele>
        <time>2025-08-17T07:22:39.569Z</time>
      </trkpt>
      <trkpt lat="44.24118" lon="0.85477">
        <ele>192</ele>
        <time>2025-08-17T07:22:40.569Z</time>
      </trkpt>
      <trkpt lat="44.24118" lon="0.85478">
        <ele>192</ele>
        <time>2025-08-17T07:22:41.569Z</time>
      </trkpt>
      <trkpt lat="44.24118" lon="0.85478">
        <ele>192</ele>
        <time>2025-08-17T07:22:42.569Z</time>
      </trkpt>
      <trkpt lat="44.24118" lon="0.85478">
        <ele>192</ele>
        <time>2025-08-17T07:22:43.569Z</time>
      </trkpt>
      <trkpt lat="44.24118" lon="0.85478">
        <ele>192</ele>
        <time>2025-08-17T07:22:44.569Z</time>
      </trkpt>
      <trkpt lat="44.24117" lon="0.85478">
        <ele>192</ele>
        <time>2025-08-17T07:22:45.569Z</time>
      </trkpt>
      <trkpt lat="44.24117" lon="0.85478">
        <ele>192</ele>
        <time>2025-08-17T07:22:46.569Z</time>
      </trkpt>
      <trkpt lat="44.24117" lon="0.85478">
        <ele>192</ele>
        <time>2025-08-17T07:22:47.569Z</time>
      </trkpt>
      <trkpt lat="44.24117" lon="0.85478">
        <ele>192</ele>
        <time>2025-08-17T07:22:48.569Z</time>
      </trkpt>
      <trkpt lat="44.24117" lon="0.85478">
        <ele>192</ele>
        <time>2025-08-17T07:22:49.569Z</time>
      </trkpt>
      <trkpt lat="44.24117" lon="0.85478">
        <ele>192</ele>
        <time>2025-08-17T07:22:50.569Z</time>
      </trkpt>
      <trkpt lat="44.24117" lon="0.85479">
        <ele>192</ele>
        <time>2025-08-17T07:22:51.569Z</time>
      </trkpt>
      <trkpt lat="44.24117" lon="0.85479">
        <ele>192</ele>
        <time>2025-08-17T07:22:52.569Z</time>
      </trkpt>
      <trkpt lat="44.24117" lon="0.85479">
        <ele>193</ele>
        <time>2025-08-17T07:22:53.569Z</time>
      </trkpt>
      <trkpt lat="44.24116" lon="0.85479">
        <ele>193</ele>
        <time>2025-08-17T07:22:54.569Z</time>
      </trkpt>
      <trkpt lat="44.24116" lon="0.85479">
        <ele>193</ele>
        <time>2025-08-17T07:22:55.569Z</time>
      </trkpt>
      <trkpt lat="44.24116" lon="0.85479">
        <ele>192</ele>
        <time>2025-08-17T07:22:56.569Z</time>
      </trkpt>
      <trkpt lat="44.24116" lon="0.85479">
        <ele>193</ele>
        <time>2025-08-17T07:22:57.569Z</time>
      </trkpt>
      <trkpt lat="44.24116" lon="0.85479">
        <ele>193</ele>
        <time>2025-08-17T07:22:58.569Z</time>
      </trkpt>
      <trkpt lat="44.24116" lon="0.85479">
        <ele>193</ele>
        <time>2025-08-17T07:22:59.569Z</time>
      </trkpt>
      <trkpt lat="44.24116" lon="0.85479">
        <ele>193</ele>
        <time>2025-08-17T07:23:00.569Z</time>
      </trkpt>
      <trkpt lat="44.24116" lon="0.85479">
        <ele>194</ele>
        <time>2025-08-17T07:23:01.569Z</time>
      </trkpt>
      <trkpt lat="44.24115" lon="0.85479">
        <ele>194</ele>
        <time>2025-08-17T07:23:02.569Z</time>
      </trkpt>
      <trkpt lat="44.24115" lon="0.85479">
        <ele>195</ele>
        <time>2025-08-17T07:23:03.569Z</time>
      </trkpt>
      <trkpt lat="44.24115" lon="0.85479">
        <ele>196</ele>
        <time>2025-08-17T07:23:04.569Z</time>
      </trkpt>
      <trkpt lat="44.24115" lon="0.85479">
        <ele>196</ele>
        <time>2025-08-17T07:23:05.569Z</time>
      </trkpt>
      <trkpt lat="44.24115" lon="0.85479">
        <ele>197</ele>
        <time>2025-08-17T07:23:06.569Z</time>
      </trkpt>
      <trkpt lat="44.24115" lon="0.85479">
        <ele>197</ele>
        <time>2025-08-17T07:23:07.569Z</time>
      </trkpt>
      <trkpt lat="44.24115" lon="0.85479">
        <ele>196</ele>
        <time>2025-08-17T07:23:08.569Z</time>
      </trkpt>
      <trkpt lat="44.24115" lon="0.85479">
        <ele>196</ele>
        <time>2025-08-17T07:23:09.569Z</time>
      </trkpt>
      <trkpt lat="44.24115" lon="0.85479">
        <ele>195</ele>
        <time>2025-08-17T07:23:10.569Z</time>
      </trkpt>
      <trkpt lat="44.24115" lon="0.85479">
        <ele>194</ele>
        <time>2025-08-17T07:23:11.569Z</time>
      </trkpt>
      <trkpt lat="44.24115" lon="0.85479">
        <ele>193</ele>
        <time>2025-08-17T07:23:12.569Z</time>
      </trkpt>
      <trkpt lat="44.24115" lon="0.85479">
        <ele>193</ele>
        <time>2025-08-17T07:23:13.569Z</time>
      </trkpt>
      <trkpt lat="44.24115" lon="0.85479">
        <ele>193</ele>
        <time>2025-08-17T07:23:14.569Z</time>
      </trkpt>
      <trkpt lat="44.24115" lon="0.85479">
        <ele>192</ele>
        <time>2025-08-17T07:23:15.569Z</time>
      </trkpt>
      <trkpt lat="44.24115" lon="0.85479">
        <ele>192</ele>
        <time>2025-08-17T07:23:16.569Z</time>
      </trkpt>
      <trkpt lat="44.24115" lon="0.85479">
        <ele>192</ele>
        <time>2025-08-17T07:23:17.569Z</time>
      </trkpt>
      <trkpt lat="44.24115" lon="0.85479">
        <ele>192</ele>
        <time>2025-08-17T07:23:18.569Z</time>
      </trkpt>
      <trkpt lat="44.24115" lon="0.85479">
        <ele>192</ele>
        <time>2025-08-17T07:23:19.569Z</time>
      </trkpt>
      <trkpt lat="44.24115" lon="0.85479">
        <ele>193</ele>
        <time>2025-08-17T07:23:20.569Z</time>
      </trkpt>
      <trkpt lat="44.24114" lon="0.85479">
        <ele>193</ele>
        <time>2025-08-17T07:23:21.569Z</time>
      </trkpt>
      <trkpt lat="44.24114" lon="0.85479">
        <ele>194</ele>
        <time>2025-08-17T07:23:22.569Z</time>
      </trkpt>
      <trkpt lat="44.24114" lon="0.85479">
        <ele>194</ele>
        <time>2025-08-17T07:23:23.569Z</time>
      </trkpt>
      <trkpt lat="44.24114" lon="0.85479">
        <ele>194</ele>
        <time>2025-08-17T07:23:24.569Z</time>
      </trkpt>
      <trkpt lat="44.24114" lon="0.85479">
        <ele>194</ele>
        <time>2025-08-17T07:23:25.569Z</time>
      </trkpt>
      <trkpt lat="44.24114" lon="0.85479">
        <ele>194</ele>
        <time>2025-08-17T07:23:26.569Z</time>
      </trkpt>
      <trkpt lat="44.24114" lon="0.85479">
        <ele>194</ele>
        <time>2025-08-17T07:23:27.569Z</time>
      </trkpt>
      <trkpt lat="44.24114" lon="0.85479">
        <ele>195</ele>
        <time>2025-08-17T07:23:28.569Z</time>
      </trkpt>
      <trkpt lat="44.24114" lon="0.85479">
        <ele>195</ele>
        <time>2025-08-17T07:23:29.569Z</time>
      </trkpt>
      <trkpt lat="44.24114" lon="0.85479">
        <ele>196</ele>
        <time>2025-08-17T07:23:30.569Z</time>
      </trkpt>
      <trkpt lat="44.24114" lon="0.85479">
        <ele>197</ele>
        <time>2025-08-17T07:23:31.569Z</time>
      </trkpt>
      <trkpt lat="44.24114" lon="0.85479">
        <ele>198</ele>
        <time>2025-08-17T07:23:32.569Z</time>
      </trkpt>
      <trkpt lat="44.24114" lon="0.85479">
        <ele>198</ele>
        <time>2025-08-17T07:23:33.569Z</time>
      </trkpt>
      <trkpt lat="44.24114" lon="0.85479">
        <ele>198</ele>
        <time>2025-08-17T07:23:34.569Z</time>
      </trkpt>
      <trkpt lat="44.24114" lon="0.85479">
        <ele>198</ele>
        <time>2025-08-17T07:23:35.569Z</time>
      </trkpt>
      <trkpt lat="44.24114" lon="0.85479">
        <ele>199</ele>
        <time>2025-08-17T07:23:36.569Z</time>
      </trkpt>
      <trkpt lat="44.24114" lon="0.85479">
        <ele>199</ele>
        <time>2025-08-17T07:23:37.569Z</time>
      </trkpt>
      <trkpt lat="44.24114" lon="0.85479">
        <ele>198</ele>
        <time>2025-08-17T07:23:38.569Z</time>
      </trkpt>
      <trkpt lat="44.24114" lon="0.85479">
        <ele>198</ele>
        <time>2025-08-17T07:23:39.569Z</time>
      </trkpt>
      <trkpt lat="44.24115" lon="0.85479">
        <ele>198</ele>
        <time>2025-08-17T07:23:40.569Z</time>
      </trkpt>
      <trkpt lat="44.24115" lon="0.8548">
        <ele>197</ele>
        <time>2025-08-17T07:23:41.569Z</time>
      </trkpt>
      <trkpt lat="44.24115" lon="0.8548">
        <ele>197</ele>
        <time>2025-08-17T07:23:42.569Z</time>
      </trkpt>
      <trkpt lat="44.24115" lon="0.8548">
        <ele>197</ele>
        <time>2025-08-17T07:23:43.569Z</time>
      </trkpt>
      <trkpt lat="44.24115" lon="0.8548">
        <ele>197</ele>
        <time>2025-08-17T07:23:44.569Z</time>
      </trkpt>
      <trkpt lat="44.24115" lon="0.8548">
        <ele>197</ele>
        <time>2025-08-17T07:23:45.569Z</time>
      </trkpt>
      <trkpt lat="44.24115" lon="0.8548">
        <ele>197</ele>
        <time>2025-08-17T07:23:46.569Z</time>
      </trkpt>
      <trkpt lat="44.24115" lon="0.8548">
        <ele>197</ele>
        <time>2025-08-17T07:23:47.569Z</time>
      </trkpt>
      <trkpt lat="44.24115" lon="0.8548">
        <ele>197</ele>
        <time>2025-08-17T07:23:48.569Z</time>
      </trkpt>
      <trkpt lat="44.24115" lon="0.8548">
        <ele>198</ele>
        <time>2025-08-17T07:23:49.569Z</time>
      </trkpt>
      <trkpt lat="44.24115" lon="0.85481">
        <ele>198</ele>
        <time>2025-08-17T07:23:50.569Z</time>
      </trkpt>
      <trkpt lat="44.24115" lon="0.85481">
        <ele>198</ele>
        <time>2025-08-17T07:23:51.569Z</time>
      </trkpt>
      <trkpt lat="44.24114" lon="0.85482">
        <ele>197</ele>
        <time>2025-08-17T07:23:52.569Z</time>
      </trkpt>
      <trkpt lat="44.24114" lon="0.85482">
        <ele>197</ele>
        <time>2025-08-17T07:23:53.569Z</time>
      </trkpt>
      <trkpt lat="44.24114" lon="0.85482">
        <ele>197</ele>
        <time>2025-08-17T07:23:54.569Z</time>
      </trkpt>
      <trkpt lat="44.24114" lon="0.85482">
        <ele>197</ele>
        <time>2025-08-17T07:23:55.569Z</time>
      </trkpt>
      <trkpt lat="44.24114" lon="0.85482">
        <ele>196</ele>
        <time>2025-08-17T07:23:56.569Z</time>
      </trkpt>
      <trkpt lat="44.24114" lon="0.85482">
        <ele>196</ele>
        <time>2025-08-17T07:23:57.569Z</time>
      </trkpt>
      <trkpt lat="44.24114" lon="0.85482">
        <ele>196</ele>
        <time>2025-08-17T07:23:58.569Z</time>
      </trkpt>
      <trkpt lat="44.24114" lon="0.85482">
        <ele>196</ele>
        <time>2025-08-17T07:23:59.569Z</time>
      </trkpt>
      <trkpt lat="44.24115" lon="0.85482">
        <ele>195</ele>
        <time>2025-08-17T07:24:00.569Z</time>
      </trkpt>
      <trkpt lat="44.24115" lon="0.85482">
        <ele>195</ele>
        <time>2025-08-17T07:24:01.569Z</time>
      </trkpt>
      <trkpt lat="44.24115" lon="0.85482">
        <ele>195</ele>
        <time>2025-08-17T07:24:02.569Z</time>
      </trkpt>
      <trkpt lat="44.24115" lon="0.85482">
        <ele>195</ele>
        <time>2025-08-17T07:24:03.569Z</time>
      </trkpt>
      <trkpt lat="44.24115" lon="0.85482">
        <ele>195</ele>
        <time>2025-08-17T07:24:04.569Z</time>
      </trkpt>
      <trkpt lat="44.24115" lon="0.85482">
        <ele>195</ele>
        <time>2025-08-17T07:24:05.569Z</time>
      </trkpt>
      <trkpt lat="44.24115" lon="0.85482">
        <ele>195</ele>
        <time>2025-08-17T07:24:06.569Z</time>
      </trkpt>
      <trkpt lat="44.24115" lon="0.85482">
        <ele>194</ele>
        <time>2025-08-17T07:24:07.569Z</time>
      </trkpt>
      <trkpt lat="44.24115" lon="0.85482">
        <ele>194</ele>
        <time>2025-08-17T07:24:08.569Z</time>
      </trkpt>
      <trkpt lat="44.24115" lon="0.85482">
        <ele>195</ele>
        <time>2025-08-17T07:24:09.569Z</time>
      </trkpt>
      <trkpt lat="44.24115" lon="0.85482">
        <ele>195</ele>
        <time>2025-08-17T07:24:10.569Z</time>
      </trkpt>
      <trkpt lat="44.24115" lon="0.85482">
        <ele>196</ele>
        <time>2025-08-17T07:24:11.569Z</time>
      </trkpt>
      <trkpt lat="44.24115" lon="0.85482">
        <ele>196</ele>
        <time>2025-08-17T07:24:12.569Z</time>
      </trkpt>
      <trkpt lat="44.24115" lon="0.85482">
        <ele>196</ele>
        <time>2025-08-17T07:24:13.569Z</time>
      </trkpt>
      <trkpt lat="44.24115" lon="0.85482">
        <ele>197</ele>
        <time>2025-08-17T07:24:14.569Z</time>
      </trkpt>
      <trkpt lat="44.24115" lon="0.85482">
        <ele>197</ele>
        <time>2025-08-17T07:24:15.569Z</time>
      </trkpt>
      <trkpt lat="44.24115" lon="0.85482">
        <ele>197</ele>
        <time>2025-08-17T07:24:16.569Z</time>
      </trkpt>
      <trkpt lat="44.24115" lon="0.85482">
        <ele>197</ele>
        <time>2025-08-17T07:24:17.569Z</time>
      </trkpt>
      <trkpt lat="44.24115" lon="0.85482">
        <ele>197</ele>
        <time>2025-08-17T07:24:18.569Z</time>
      </trkpt>
      <trkpt lat="44.24115" lon="0.85482">
        <ele>197</ele>
        <time>2025-08-17T07:24:19.569Z</time>
      </trkpt>
      <trkpt lat="44.24115" lon="0.85482">
        <ele>197</ele>
        <time>2025-08-17T07:24:20.569Z</time>
      </trkpt>
      <trkpt lat="44.24115" lon="0.85482">
        <ele>196</ele>
        <time>2025-08-17T07:24:21.569Z</time>
      </trkpt>
      <trkpt lat="44.24115" lon="0.85482">
        <ele>195</ele>
        <time>2025-08-17T07:24:22.569Z</time>
      </trkpt>
      <trkpt lat="44.24115" lon="0.85481">
        <ele>195</ele>
        <time>2025-08-17T07:24:23.569Z</time>
      </trkpt>
      <trkpt lat="44.24116" lon="0.85481">
        <ele>195</ele>
        <time>2025-08-17T07:24:24.569Z</time>
      </trkpt>
      <trkpt lat="44.24117" lon="0.85481">
        <ele>195</ele>
        <time>2025-08-17T07:24:25.569Z</time>
      </trkpt>
      <trkpt lat="44.24118" lon="0.85482">
        <ele>194</ele>
        <time>2025-08-17T07:24:26.569Z</time>
      </trkpt>
      <trkpt lat="44.24119" lon="0.85482">
        <ele>194</ele>
        <time>2025-08-17T07:24:27.569Z</time>
      </trkpt>
      <trkpt lat="44.2412" lon="0.85483">
        <ele>194</ele>
        <time>2025-08-17T07:24:28.569Z</time>
      </trkpt>
      <trkpt lat="44.24121" lon="0.85483">
        <ele>195</ele>
        <time>2025-08-17T07:24:29.569Z</time>
      </trkpt>
      <trkpt lat="44.24122" lon="0.85484">
        <ele>195</ele>
        <time>2025-08-17T07:24:30.569Z</time>
      </trkpt>
      <trkpt lat="44.24124" lon="0.85484">
        <ele>195</ele>
        <time>2025-08-17T07:24:31.569Z</time>
      </trkpt>
      <trkpt lat="44.24125" lon="0.85485">
        <ele>195</ele>
        <time>2025-08-17T07:24:32.569Z</time>
      </trkpt>
      <trkpt lat="44.24127" lon="0.85485">
        <ele>195</ele>
        <time>2025-08-17T07:24:33.569Z</time>
      </trkpt>
      <trkpt lat="44.24128" lon="0.85486">
        <ele>196</ele>
        <time>2025-08-17T07:24:34.569Z</time>
      </trkpt>
      <trkpt lat="44.24129" lon="0.85486">
        <ele>196</ele>
        <time>2025-08-17T07:24:35.569Z</time>
      </trkpt>
      <trkpt lat="44.24131" lon="0.85487">
        <ele>196</ele>
        <time>2025-08-17T07:24:36.569Z</time>
      </trkpt>
      <trkpt lat="44.24131" lon="0.85487">
        <ele>196</ele>
        <time>2025-08-17T07:24:37.569Z</time>
      </trkpt>
      <trkpt lat="44.24132" lon="0.85487">
        <ele>197</ele>
        <time>2025-08-17T07:24:38.569Z</time>
      </trkpt>
      <trkpt lat="44.24134" lon="0.85488">
        <ele>196</ele>
        <time>2025-08-17T07:24:39.569Z</time>
      </trkpt>
      <trkpt lat="44.24135" lon="0.85488">
        <ele>196</ele>
        <time>2025-08-17T07:24:40.569Z</time>
      </trkpt>
      <trkpt lat="44.24136" lon="0.85489">
        <ele>196</ele>
        <time>2025-08-17T07:24:41.569Z</time>
      </trkpt>
      <trkpt lat="44.24137" lon="0.85489">
        <ele>197</ele>
        <time>2025-08-17T07:24:42.569Z</time>
      </trkpt>
      <trkpt lat="44.24138" lon="0.85489">
        <ele>197</ele>
        <time>2025-08-17T07:24:43.569Z</time>
      </trkpt>
      <trkpt lat="44.24139" lon="0.8549">
        <ele>197</ele>
        <time>2025-08-17T07:24:44.569Z</time>
      </trkpt>
      <trkpt lat="44.2414" lon="0.8549">
        <ele>197</ele>
        <time>2025-08-17T07:24:45.569Z</time>
      </trkpt>
      <trkpt lat="44.2414" lon="0.8549">
        <ele>197</ele>
        <time>2025-08-17T07:24:46.569Z</time>
      </trkpt>
      <trkpt lat="44.24141" lon="0.85491">
        <ele>197</ele>
        <time>2025-08-17T07:24:47.569Z</time>
      </trkpt>
      <trkpt lat="44.24142" lon="0.85491">
        <ele>197</ele>
        <time>2025-08-17T07:24:48.569Z</time>
      </trkpt>
      <trkpt lat="44.24143" lon="0.85492">
        <ele>197</ele>
        <time>2025-08-17T07:24:49.569Z</time>
      </trkpt>
      <trkpt lat="44.24143" lon="0.85492">
        <ele>197</ele>
        <time>2025-08-17T07:24:50.569Z</time>
      </trkpt>
      <trkpt lat="44.24144" lon="0.85493">
        <ele>197</ele>
        <time>2025-08-17T07:24:51.569Z</time>
      </trkpt>
      <trkpt lat="44.24145" lon="0.85494">
        <ele>197</ele>
        <time>2025-08-17T07:24:52.569Z</time>
      </trkpt>
      <trkpt lat="44.24146" lon="0.85495">
        <ele>197</ele>
        <time>2025-08-17T07:24:53.569Z</time>
      </trkpt>
      <trkpt lat="44.24147" lon="0.85496">
        <ele>197</ele>
        <time>2025-08-17T07:24:54.569Z</time>
      </trkpt>
      <trkpt lat="44.24148" lon="0.85497">
        <ele>197</ele>
        <time>2025-08-17T07:24:55.569Z</time>
      </trkpt>
      <trkpt lat="44.24149" lon="0.85498">
        <ele>198</ele>
        <time>2025-08-17T07:24:56.569Z</time>
      </trkpt>
      <trkpt lat="44.2415" lon="0.85499">
        <ele>198</ele>
        <time>2025-08-17T07:24:57.569Z</time>
      </trkpt>
      <trkpt lat="44.24151" lon="0.855">
        <ele>198</ele>
        <time>2025-08-17T07:24:58.569Z</time>
      </trkpt>
      <trkpt lat="44.24152" lon="0.85501">
        <ele>198</ele>
        <time>2025-08-17T07:24:59.569Z</time>
      </trkpt>
      <trkpt lat="44.24153" lon="0.85502">
        <ele>198</ele>
        <time>2025-08-17T07:25:00.569Z</time>
      </trkpt>
      <trkpt lat="44.24154" lon="0.85503">
        <ele>198</ele>
        <time>2025-08-17T07:25:01.569Z</time>
      </trkpt>
      <trkpt lat="44.24154" lon="0.85504">
        <ele>198</ele>
        <time>2025-08-17T07:25:02.569Z</time>
      </trkpt>
      <trkpt lat="44.24155" lon="0.85505">
        <ele>198</ele>
        <time>2025-08-17T07:25:03.569Z</time>
      </trkpt>
      <trkpt lat="44.24155" lon="0.85506">
        <ele>197</ele>
        <time>2025-08-17T07:25:04.569Z</time>
      </trkpt>
      <trkpt lat="44.24156" lon="0.85507">
        <ele>198</ele>
        <time>2025-08-17T07:25:05.569Z</time>
      </trkpt>
      <trkpt lat="44.24156" lon="0.85508">
        <ele>198</ele>
        <time>2025-08-17T07:25:06.569Z</time>
      </trkpt>
      <trkpt lat="44.24157" lon="0.85509">
        <ele>198</ele>
        <time>2025-08-17T07:25:07.569Z</time>
      </trkpt>
      <trkpt lat="44.24158" lon="0.85511">
        <ele>198</ele>
        <time>2025-08-17T07:25:08.569Z</time>
      </trkpt>
      <trkpt lat="44.24159" lon="0.85512">
        <ele>198</ele>
        <time>2025-08-17T07:25:09.569Z</time>
      </trkpt>
      <trkpt lat="44.24159" lon="0.85513">
        <ele>198</ele>
        <time>2025-08-17T07:25:10.569Z</time>
      </trkpt>
      <trkpt lat="44.2416" lon="0.85514">
        <ele>198</ele>
        <time>2025-08-17T07:25:11.569Z</time>
      </trkpt>
      <trkpt lat="44.2416" lon="0.85514">
        <ele>198</ele>
        <time>2025-08-17T07:25:12.569Z</time>
      </trkpt>
      <trkpt lat="44.24161" lon="0.85515">
        <ele>198</ele>
        <time>2025-08-17T07:25:13.569Z</time>
      </trkpt>
      <trkpt lat="44.24161" lon="0.85516">
        <ele>198</ele>
        <time>2025-08-17T07:25:14.569Z</time>
      </trkpt>
      <trkpt lat="44.24161" lon="0.85517">
        <ele>199</ele>
        <time>2025-08-17T07:25:15.569Z</time>
      </trkpt>
      <trkpt lat="44.24161" lon="0.85519">
        <ele>199</ele>
        <time>2025-08-17T07:25:16.569Z</time>
      </trkpt>
      <trkpt lat="44.24161" lon="0.85521">
        <ele>199</ele>
        <time>2025-08-17T07:25:17.569Z</time>
      </trkpt>
      <trkpt lat="44.24162" lon="0.85523">
        <ele>199</ele>
        <time>2025-08-17T07:25:18.569Z</time>
      </trkpt>
      <trkpt lat="44.24163" lon="0.85524">
        <ele>199</ele>
        <time>2025-08-17T07:25:19.569Z</time>
      </trkpt>
      <trkpt lat="44.24163" lon="0.85526">
        <ele>200</ele>
        <time>2025-08-17T07:25:20.569Z</time>
      </trkpt>
      <trkpt lat="44.24163" lon="0.85527">
        <ele>200</ele>
        <time>2025-08-17T07:25:21.569Z</time>
      </trkpt>
      <trkpt lat="44.24163" lon="0.85529">
        <ele>199</ele>
        <time>2025-08-17T07:25:22.569Z</time>
      </trkpt>
      <trkpt lat="44.24164" lon="0.8553">
        <ele>199</ele>
        <time>2025-08-17T07:25:23.569Z</time>
      </trkpt>
      <trkpt lat="44.24164" lon="0.85532">
        <ele>199</ele>
        <time>2025-08-17T07:25:24.569Z</time>
      </trkpt>
      <trkpt lat="44.24164" lon="0.85533">
        <ele>198</ele>
        <time>2025-08-17T07:25:25.569Z</time>
      </trkpt>
      <trkpt lat="44.24164" lon="0.85535">
        <ele>197</ele>
        <time>2025-08-17T07:25:26.569Z</time>
      </trkpt>
      <trkpt lat="44.24165" lon="0.85537">
        <ele>197</ele>
        <time>2025-08-17T07:25:27.569Z</time>
      </trkpt>
      <trkpt lat="44.24165" lon="0.85538">
        <ele>197</ele>
        <time>2025-08-17T07:25:28.569Z</time>
      </trkpt>
      <trkpt lat="44.24166" lon="0.8554">
        <ele>197</ele>
        <time>2025-08-17T07:25:29.569Z</time>
      </trkpt>
      <trkpt lat="44.24166" lon="0.85542">
        <ele>197</ele>
        <time>2025-08-17T07:25:30.569Z</time>
      </trkpt>
      <trkpt lat="44.24167" lon="0.85543">
        <ele>196</ele>
        <time>2025-08-17T07:25:31.569Z</time>
      </trkpt>
      <trkpt lat="44.24167" lon="0.85544">
        <ele>197</ele>
        <time>2025-08-17T07:25:32.569Z</time>
      </trkpt>
      <trkpt lat="44.24168" lon="0.85546">
        <ele>197</ele>
        <time>2025-08-17T07:25:33.569Z</time>
      </trkpt>
      <trkpt lat="44.24168" lon="0.85547">
        <ele>197</ele>
        <time>2025-08-17T07:25:34.569Z</time>
      </trkpt>
      <trkpt lat="44.24169" lon="0.85549">
        <ele>197</ele>
        <time>2025-08-17T07:25:35.569Z</time>
      </trkpt>
      <trkpt lat="44.2417" lon="0.85551">
        <ele>197</ele>
        <time>2025-08-17T07:25:36.569Z</time>
      </trkpt>
      <trkpt lat="44.2417" lon="0.85553">
        <ele>198</ele>
        <time>2025-08-17T07:25:37.569Z</time>
      </trkpt>
      <trkpt lat="44.24171" lon="0.85554">
        <ele>198</ele>
        <time>2025-08-17T07:25:38.569Z</time>
      </trkpt>
      <trkpt lat="44.24171" lon="0.85556">
        <ele>198</ele>
        <time>2025-08-17T07:25:39.569Z</time>
      </trkpt>
      <trkpt lat="44.24171" lon="0.85557">
        <ele>198</ele>
        <time>2025-08-17T07:25:40.569Z</time>
      </trkpt>
      <trkpt lat="44.24171" lon="0.85559">
        <ele>198</ele>
        <time>2025-08-17T07:25:41.569Z</time>
      </trkpt>
      <trkpt lat="44.24172" lon="0.85561">
        <ele>198</ele>
        <time>2025-08-17T07:25:42.569Z</time>
      </trkpt>
      <trkpt lat="44.24172" lon="0.85562">
        <ele>198</ele>
        <time>2025-08-17T07:25:43.569Z</time>
      </trkpt>
      <trkpt lat="44.24172" lon="0.85564">
        <ele>198</ele>
        <time>2025-08-17T07:25:44.569Z</time>
      </trkpt>
      <trkpt lat="44.24172" lon="0.85565">
        <ele>198</ele>
        <time>2025-08-17T07:25:45.569Z</time>
      </trkpt>
      <trkpt lat="44.24172" lon="0.85567">
        <ele>198</ele>
        <time>2025-08-17T07:25:46.569Z</time>
      </trkpt>
      <trkpt lat="44.24172" lon="0.85568">
        <ele>198</ele>
        <time>2025-08-17T07:25:47.569Z</time>
      </trkpt>
      <trkpt lat="44.24173" lon="0.8557">
        <ele>198</ele>
        <time>2025-08-17T07:25:48.569Z</time>
      </trkpt>
      <trkpt lat="44.24173" lon="0.85571">
        <ele>198</ele>
        <time>2025-08-17T07:25:49.569Z</time>
      </trkpt>
      <trkpt lat="44.24174" lon="0.85573">
        <ele>198</ele>
        <time>2025-08-17T07:25:50.569Z</time>
      </trkpt>
      <trkpt lat="44.24174" lon="0.85574">
        <ele>198</ele>
        <time>2025-08-17T07:25:51.569Z</time>
      </trkpt>
      <trkpt lat="44.24175" lon="0.85576">
        <ele>198</ele>
        <time>2025-08-17T07:25:52.569Z</time>
      </trkpt>
      <trkpt lat="44.24175" lon="0.85578">
        <ele>198</ele>
        <time>2025-08-17T07:25:53.569Z</time>
      </trkpt>
      <trkpt lat="44.24176" lon="0.85579">
        <ele>198</ele>
        <time>2025-08-17T07:25:54.569Z</time>
      </trkpt>
      <trkpt lat="44.24176" lon="0.85581">
        <ele>198</ele>
        <time>2025-08-17T07:25:55.569Z</time>
      </trkpt>
      <trkpt lat="44.24177" lon="0.85582">
        <ele>198</ele>
        <time>2025-08-17T07:25:56.569Z</time>
      </trkpt>
      <trkpt lat="44.24177" lon="0.85584">
        <ele>198</ele>
        <time>2025-08-17T07:25:57.569Z</time>
      </trkpt>
      <trkpt lat="44.24178" lon="0.85585">
        <ele>198</ele>
        <time>2025-08-17T07:25:58.569Z</time>
      </trkpt>
      <trkpt lat="44.24178" lon="0.85587">
        <ele>198</ele>
        <time>2025-08-17T07:25:59.569Z</time>
      </trkpt>
      <trkpt lat="44.24178" lon="0.85588">
        <ele>198</ele>
        <time>2025-08-17T07:26:00.569Z</time>
      </trkpt>
      <trkpt lat="44.24179" lon="0.85589">
        <ele>199</ele>
        <time>2025-08-17T07:26:01.569Z</time>
      </trkpt>
      <trkpt lat="44.24179" lon="0.85591">
        <ele>199</ele>
        <time>2025-08-17T07:26:02.569Z</time>
      </trkpt>
      <trkpt lat="44.2418" lon="0.85592">
        <ele>199</ele>
        <time>2025-08-17T07:26:03.569Z</time>
      </trkpt>
      <trkpt lat="44.2418" lon="0.85594">
        <ele>199</ele>
        <time>2025-08-17T07:26:04.569Z</time>
      </trkpt>
      <trkpt lat="44.24181" lon="0.85596">
        <ele>199</ele>
        <time>2025-08-17T07:26:05.569Z</time>
      </trkpt>
      <trkpt lat="44.24182" lon="0.85597">
        <ele>200</ele>
        <time>2025-08-17T07:26:06.569Z</time>
      </trkpt>
      <trkpt lat="44.24182" lon="0.85599">
        <ele>200</ele>
        <time>2025-08-17T07:26:07.569Z</time>
      </trkpt>
      <trkpt lat="44.24182" lon="0.856">
        <ele>200</ele>
        <time>2025-08-17T07:26:08.569Z</time>
      </trkpt>
      <trkpt lat="44.24183" lon="0.85601">
        <ele>199</ele>
        <time>2025-08-17T07:26:09.569Z</time>
      </trkpt>
      <trkpt lat="44.24183" lon="0.85603">
        <ele>199</ele>
        <time>2025-08-17T07:26:10.569Z</time>
      </trkpt>
      <trkpt lat="44.24183" lon="0.85605">
        <ele>199</ele>
        <time>2025-08-17T07:26:11.569Z</time>
      </trkpt>
      <trkpt lat="44.24184" lon="0.85606">
        <ele>199</ele>
        <time>2025-08-17T07:26:12.569Z</time>
      </trkpt>
      <trkpt lat="44.24184" lon="0.85608">
        <ele>199</ele>
        <time>2025-08-17T07:26:13.569Z</time>
      </trkpt>
      <trkpt lat="44.24185" lon="0.85609">
        <ele>199</ele>
        <time>2025-08-17T07:26:14.569Z</time>
      </trkpt>
      <trkpt lat="44.24185" lon="0.8561">
        <ele>199</ele>
        <time>2025-08-17T07:26:15.569Z</time>
      </trkpt>
      <trkpt lat="44.24186" lon="0.85612">
        <ele>199</ele>
        <time>2025-08-17T07:26:16.569Z</time>
      </trkpt>
      <trkpt lat="44.24187" lon="0.85613">
        <ele>199</ele>
        <time>2025-08-17T07:26:17.569Z</time>
      </trkpt>
      <trkpt lat="44.24187" lon="0.85615">
        <ele>199</ele>
        <time>2025-08-17T07:26:18.569Z</time>
      </trkpt>
      <trkpt lat="44.24188" lon="0.85616">
        <ele>199</ele>
        <time>2025-08-17T07:26:19.569Z</time>
      </trkpt>
      <trkpt lat="44.24188" lon="0.85618">
        <ele>199</ele>
        <time>2025-08-17T07:26:20.569Z</time>
      </trkpt>
      <trkpt lat="44.24189" lon="0.85619">
        <ele>199</ele>
        <time>2025-08-17T07:26:21.569Z</time>
      </trkpt>
      <trkpt lat="44.24189" lon="0.85621">
        <ele>199</ele>
        <time>2025-08-17T07:26:22.569Z</time>
      </trkpt>
      <trkpt lat="44.2419" lon="0.85622">
        <ele>199</ele>
        <time>2025-08-17T07:26:23.569Z</time>
      </trkpt>
      <trkpt lat="44.2419" lon="0.85623">
        <ele>199</ele>
        <time>2025-08-17T07:26:24.569Z</time>
      </trkpt>
      <trkpt lat="44.24191" lon="0.85625">
        <ele>199</ele>
        <time>2025-08-17T07:26:25.569Z</time>
      </trkpt>
      <trkpt lat="44.24191" lon="0.85626">
        <ele>199</ele>
        <time>2025-08-17T07:26:26.569Z</time>
      </trkpt>
      <trkpt lat="44.24192" lon="0.85628">
        <ele>199</ele>
        <time>2025-08-17T07:26:27.569Z</time>
      </trkpt>
      <trkpt lat="44.24192" lon="0.85629">
        <ele>199</ele>
        <time>2025-08-17T07:26:28.569Z</time>
      </trkpt>
      <trkpt lat="44.24193" lon="0.8563">
        <ele>199</ele>
        <time>2025-08-17T07:26:29.569Z</time>
      </trkpt>
      <trkpt lat="44.24193" lon="0.85632">
        <ele>199</ele>
        <time>2025-08-17T07:26:30.569Z</time>
      </trkpt>
      <trkpt lat="44.24193" lon="0.85633">
        <ele>198</ele>
        <time>2025-08-17T07:26:31.569Z</time>
      </trkpt>
      <trkpt lat="44.24194" lon="0.85634">
        <ele>198</ele>
        <time>2025-08-17T07:26:32.569Z</time>
      </trkpt>
      <trkpt lat="44.24195" lon="0.85636">
        <ele>198</ele>
        <time>2025-08-17T07:26:33.569Z</time>
      </trkpt>
      <trkpt lat="44.24195" lon="0.85637">
        <ele>198</ele>
        <time>2025-08-17T07:26:34.569Z</time>
      </trkpt>
      <trkpt lat="44.24196" lon="0.85638">
        <ele>198</ele>
        <time>2025-08-17T07:26:35.569Z</time>
      </trkpt>
      <trkpt lat="44.24196" lon="0.8564">
        <ele>198</ele>
        <time>2025-08-17T07:26:36.569Z</time>
      </trkpt>
      <trkpt lat="44.24197" lon="0.85641">
        <ele>198</ele>
        <time>2025-08-17T07:26:37.569Z</time>
      </trkpt>
      <trkpt lat="44.24197" lon="0.85642">
        <ele>198</ele>
        <time>2025-08-17T07:26:38.569Z</time>
      </trkpt>
      <trkpt lat="44.24198" lon="0.85644">
        <ele>198</ele>
        <time>2025-08-17T07:26:39.569Z</time>
      </trkpt>
      <trkpt lat="44.24199" lon="0.85645">
        <ele>199</ele>
        <time>2025-08-17T07:26:40.569Z</time>
      </trkpt>
      <trkpt lat="44.242" lon="0.85647">
        <ele>199</ele>
        <time>2025-08-17T07:26:41.569Z</time>
      </trkpt>
      <trkpt lat="44.242" lon="0.85648">
        <ele>199</ele>
        <time>2025-08-17T07:26:42.569Z</time>
      </trkpt>
      <trkpt lat="44.24201" lon="0.8565">
        <ele>199</ele>
        <time>2025-08-17T07:26:43.569Z</time>
      </trkpt>
      <trkpt lat="44.24202" lon="0.85651">
        <ele>199</ele>
        <time>2025-08-17T07:26:44.569Z</time>
      </trkpt>
      <trkpt lat="44.24202" lon="0.85652">
        <ele>199</ele>
        <time>2025-08-17T07:26:45.569Z</time>
      </trkpt>
      <trkpt lat="44.24203" lon="0.85653">
        <ele>199</ele>
        <time>2025-08-17T07:26:46.569Z</time>
      </trkpt>
      <trkpt lat="44.24203" lon="0.85655">
        <ele>199</ele>
        <time>2025-08-17T07:26:47.569Z</time>
      </trkpt>
      <trkpt lat="44.24203" lon="0.85656">
        <ele>199</ele>
        <time>2025-08-17T07:26:48.569Z</time>
      </trkpt>
      <trkpt lat="44.24204" lon="0.85658">
        <ele>199</ele>
        <time>2025-08-17T07:26:49.569Z</time>
      </trkpt>
      <trkpt lat="44.24205" lon="0.85659">
        <ele>199</ele>
        <time>2025-08-17T07:26:50.569Z</time>
      </trkpt>
      <trkpt lat="44.24206" lon="0.85661">
        <ele>199</ele>
        <time>2025-08-17T07:26:51.569Z</time>
      </trkpt>
      <trkpt lat="44.24206" lon="0.85662">
        <ele>199</ele>
        <time>2025-08-17T07:26:52.569Z</time>
      </trkpt>
      <trkpt lat="44.24207" lon="0.85663">
        <ele>199</ele>
        <time>2025-08-17T07:26:53.569Z</time>
      </trkpt>
      <trkpt lat="44.24207" lon="0.85664">
        <ele>198</ele>
        <time>2025-08-17T07:26:54.569Z</time>
      </trkpt>
      <trkpt lat="44.24208" lon="0.85666">
        <ele>198</ele>
        <time>2025-08-17T07:26:55.569Z</time>
      </trkpt>
      <trkpt lat="44.24209" lon="0.85667">
        <ele>198</ele>
        <time>2025-08-17T07:26:56.569Z</time>
      </trkpt>
      <trkpt lat="44.24209" lon="0.85669">
        <ele>198</ele>
        <time>2025-08-17T07:26:57.569Z</time>
      </trkpt>
      <trkpt lat="44.2421" lon="0.8567">
        <ele>198</ele>
        <time>2025-08-17T07:26:58.569Z</time>
      </trkpt>
      <trkpt lat="44.2421" lon="0.85672">
        <ele>198</ele>
        <time>2025-08-17T07:26:59.569Z</time>
      </trkpt>
      <trkpt lat="44.24211" lon="0.85673">
        <ele>198</ele>
        <time>2025-08-17T07:27:00.569Z</time>
      </trkpt>
      <trkpt lat="44.24211" lon="0.85674">
        <ele>199</ele>
        <time>2025-08-17T07:27:01.569Z</time>
      </trkpt>
      <trkpt lat="44.24212" lon="0.85675">
        <ele>199</ele>
        <time>2025-08-17T07:27:02.569Z</time>
      </trkpt>
      <trkpt lat="44.24213" lon="0.85677">
        <ele>199</ele>
        <time>2025-08-17T07:27:03.569Z</time>
      </trkpt>
      <trkpt lat="44.24214" lon="0.85678">
        <ele>199</ele>
        <time>2025-08-17T07:27:04.569Z</time>
      </trkpt>
      <trkpt lat="44.24215" lon="0.8568">
        <ele>200</ele>
        <time>2025-08-17T07:27:05.569Z</time>
      </trkpt>
      <trkpt lat="44.24215" lon="0.85681">
        <ele>200</ele>
        <time>2025-08-17T07:27:06.569Z</time>
      </trkpt>
      <trkpt lat="44.24216" lon="0.85683">
        <ele>200</ele>
        <time>2025-08-17T07:27:07.569Z</time>
      </trkpt>
      <trkpt lat="44.24216" lon="0.85684">
        <ele>200</ele>
        <time>2025-08-17T07:27:08.569Z</time>
      </trkpt>
      <trkpt lat="44.24217" lon="0.85685">
        <ele>200</ele>
        <time>2025-08-17T07:27:09.569Z</time>
      </trkpt>
      <trkpt lat="44.24217" lon="0.85686">
        <ele>200</ele>
        <time>2025-08-17T07:27:10.569Z</time>
      </trkpt>
      <trkpt lat="44.24217" lon="0.85688">
        <ele>200</ele>
        <time>2025-08-17T07:27:11.569Z</time>
      </trkpt>
      <trkpt lat="44.24218" lon="0.85689">
        <ele>200</ele>
        <time>2025-08-17T07:27:12.569Z</time>
      </trkpt>
      <trkpt lat="44.24219" lon="0.85691">
        <ele>200</ele>
        <time>2025-08-17T07:27:13.569Z</time>
      </trkpt>
      <trkpt lat="44.2422" lon="0.85692">
        <ele>200</ele>
        <time>2025-08-17T07:27:14.569Z</time>
      </trkpt>
      <trkpt lat="44.2422" lon="0.85694">
        <ele>200</ele>
        <time>2025-08-17T07:27:15.569Z</time>
      </trkpt>
      <trkpt lat="44.24221" lon="0.85695">
        <ele>200</ele>
        <time>2025-08-17T07:27:16.569Z</time>
      </trkpt>
      <trkpt lat="44.24222" lon="0.85697">
        <ele>200</ele>
        <time>2025-08-17T07:27:17.569Z</time>
      </trkpt>
      <trkpt lat="44.24222" lon="0.85698">
        <ele>199</ele>
        <time>2025-08-17T07:27:18.569Z</time>
      </trkpt>
      <trkpt lat="44.24223" lon="0.85699">
        <ele>199</ele>
        <time>2025-08-17T07:27:19.569Z</time>
      </trkpt>
      <trkpt lat="44.24224" lon="0.857">
        <ele>199</ele>
        <time>2025-08-17T07:27:20.569Z</time>
      </trkpt>
      <trkpt lat="44.24224" lon="0.85702">
        <ele>199</ele>
        <time>2025-08-17T07:27:21.569Z</time>
      </trkpt>
      <trkpt lat="44.24225" lon="0.85703">
        <ele>199</ele>
        <time>2025-08-17T07:27:22.569Z</time>
      </trkpt>
      <trkpt lat="44.24226" lon="0.85705">
        <ele>200</ele>
        <time>2025-08-17T07:27:23.569Z</time>
      </trkpt>
      <trkpt lat="44.24227" lon="0.85707">
        <ele>200</ele>
        <time>2025-08-17T07:27:24.569Z</time>
      </trkpt>
      <trkpt lat="44.24228" lon="0.85708">
        <ele>200</ele>
        <time>2025-08-17T07:27:25.569Z</time>
      </trkpt>
      <trkpt lat="44.24229" lon="0.85709">
        <ele>200</ele>
        <time>2025-08-17T07:27:26.569Z</time>
      </trkpt>
      <trkpt lat="44.24229" lon="0.8571">
        <ele>200</ele>
        <time>2025-08-17T07:27:27.569Z</time>
      </trkpt>
      <trkpt lat="44.2423" lon="0.85711">
        <ele>200</ele>
        <time>2025-08-17T07:27:28.569Z</time>
      </trkpt>
      <trkpt lat="44.24231" lon="0.85712">
        <ele>200</ele>
        <time>2025-08-17T07:27:29.569Z</time>
      </trkpt>
      <trkpt lat="44.24232" lon="0.85713">
        <ele>200</ele>
        <time>2025-08-17T07:27:30.569Z</time>
      </trkpt>
      <trkpt lat="44.24233" lon="0.85715">
        <ele>200</ele>
        <time>2025-08-17T07:27:31.569Z</time>
      </trkpt>
      <trkpt lat="44.24234" lon="0.85716">
        <ele>200</ele>
        <time>2025-08-17T07:27:32.569Z</time>
      </trkpt>
      <trkpt lat="44.24235" lon="0.85717">
        <ele>200</ele>
        <time>2025-08-17T07:27:33.569Z</time>
      </trkpt>
      <trkpt lat="44.24236" lon="0.85718">
        <ele>200</ele>
        <time>2025-08-17T07:27:34.569Z</time>
      </trkpt>
      <trkpt lat="44.24237" lon="0.85719">
        <ele>200</ele>
        <time>2025-08-17T07:27:35.569Z</time>
      </trkpt>
      <trkpt lat="44.24238" lon="0.8572">
        <ele>200</ele>
        <time>2025-08-17T07:27:36.569Z</time>
      </trkpt>
      <trkpt lat="44.24239" lon="0.85721">
        <ele>199</ele>
        <time>2025-08-17T07:27:37.569Z</time>
      </trkpt>
      <trkpt lat="44.24239" lon="0.85721">
        <ele>199</ele>
        <time>2025-08-17T07:27:38.569Z</time>
      </trkpt>
      <trkpt lat="44.2424" lon="0.85722">
        <ele>199</ele>
        <time>2025-08-17T07:27:39.569Z</time>
      </trkpt>
      <trkpt lat="44.24241" lon="0.85723">
        <ele>199</ele>
        <time>2025-08-17T07:27:40.569Z</time>
      </trkpt>
      <trkpt lat="44.24242" lon="0.85724">
        <ele>199</ele>
        <time>2025-08-17T07:27:41.569Z</time>
      </trkpt>
      <trkpt lat="44.24243" lon="0.85725">
        <ele>200</ele>
        <time>2025-08-17T07:27:42.569Z</time>
      </trkpt>
      <trkpt lat="44.24245" lon="0.85726">
        <ele>200</ele>
        <time>2025-08-17T07:27:43.569Z</time>
      </trkpt>
      <trkpt lat="44.24246" lon="0.85726">
        <ele>200</ele>
        <time>2025-08-17T07:27:44.569Z</time>
      </trkpt>
      <trkpt lat="44.24247" lon="0.85727">
        <ele>199</ele>
        <time>2025-08-17T07:27:45.569Z</time>
      </trkpt>
      <trkpt lat="44.24248" lon="0.85728">
        <ele>199</ele>
        <time>2025-08-17T07:27:46.569Z</time>
      </trkpt>
      <trkpt lat="44.24249" lon="0.85728">
        <ele>199</ele>
        <time>2025-08-17T07:27:47.569Z</time>
      </trkpt>
      <trkpt lat="44.2425" lon="0.85729">
        <ele>198</ele>
        <time>2025-08-17T07:27:48.569Z</time>
      </trkpt>
      <trkpt lat="44.24251" lon="0.8573">
        <ele>198</ele>
        <time>2025-08-17T07:27:49.569Z</time>
      </trkpt>
      <trkpt lat="44.24252" lon="0.8573">
        <ele>198</ele>
        <time>2025-08-17T07:27:50.569Z</time>
      </trkpt>
      <trkpt lat="44.24254" lon="0.85731">
        <ele>199</ele>
        <time>2025-08-17T07:27:51.569Z</time>
      </trkpt>
      <trkpt lat="44.24255" lon="0.85731">
        <ele>199</ele>
        <time>2025-08-17T07:27:52.569Z</time>
      </trkpt>
      <trkpt lat="44.24256" lon="0.85732">
        <ele>199</ele>
        <time>2025-08-17T07:27:53.569Z</time>
      </trkpt>
      <trkpt lat="44.24257" lon="0.85732">
        <ele>199</ele>
        <time>2025-08-17T07:27:54.569Z</time>
      </trkpt>
      <trkpt lat="44.24258" lon="0.85732">
        <ele>199</ele>
        <time>2025-08-17T07:27:55.569Z</time>
      </trkpt>
      <trkpt lat="44.24259" lon="0.85733">
        <ele>199</ele>
        <time>2025-08-17T07:27:56.569Z</time>
      </trkpt>
      <trkpt lat="44.2426" lon="0.85733">
        <ele>199</ele>
        <time>2025-08-17T07:27:57.569Z</time>
      </trkpt>
      <trkpt lat="44.24261" lon="0.85734">
        <ele>199</ele>
        <time>2025-08-17T07:27:58.569Z</time>
      </trkpt>
      <trkpt lat="44.24262" lon="0.85734">
        <ele>199</ele>
        <time>2025-08-17T07:27:59.569Z</time>
      </trkpt>
      <trkpt lat="44.24264" lon="0.85734">
        <ele>199</ele>
        <time>2025-08-17T07:28:00.569Z</time>
      </trkpt>
      <trkpt lat="44.24265" lon="0.85734">
        <ele>199</ele>
        <time>2025-08-17T07:28:01.569Z</time>
      </trkpt>
      <trkpt lat="44.24266" lon="0.85735">
        <ele>199</ele>
        <time>2025-08-17T07:28:02.569Z</time>
      </trkpt>
      <trkpt lat="44.24267" lon="0.85735">
        <ele>199</ele>
        <time>2025-08-17T07:28:03.569Z</time>
      </trkpt>
      <trkpt lat="44.24268" lon="0.85736">
        <ele>199</ele>
        <time>2025-08-17T07:28:04.569Z</time>
      </trkpt>
      <trkpt lat="44.24269" lon="0.85736">
        <ele>199</ele>
        <time>2025-08-17T07:28:05.569Z</time>
      </trkpt>
      <trkpt lat="44.2427" lon="0.85737">
        <ele>199</ele>
        <time>2025-08-17T07:28:06.569Z</time>
      </trkpt>
      <trkpt lat="44.24272" lon="0.85737">
        <ele>200</ele>
        <time>2025-08-17T07:28:07.569Z</time>
      </trkpt>
      <trkpt lat="44.24273" lon="0.85737">
        <ele>200</ele>
        <time>2025-08-17T07:28:08.569Z</time>
      </trkpt>
      <trkpt lat="44.24274" lon="0.85737">
        <ele>200</ele>
        <time>2025-08-17T07:28:09.569Z</time>
      </trkpt>
      <trkpt lat="44.24275" lon="0.85738">
        <ele>200</ele>
        <time>2025-08-17T07:28:10.569Z</time>
      </trkpt>
      <trkpt lat="44.24276" lon="0.85738">
        <ele>200</ele>
        <time>2025-08-17T07:28:11.569Z</time>
      </trkpt>
      <trkpt lat="44.24277" lon="0.85738">
        <ele>200</ele>
        <time>2025-08-17T07:28:12.569Z</time>
      </trkpt>
      <trkpt lat="44.24278" lon="0.85739">
        <ele>200</ele>
        <time>2025-08-17T07:28:13.569Z</time>
      </trkpt>
      <trkpt lat="44.2428" lon="0.85739">
        <ele>199</ele>
        <time>2025-08-17T07:28:14.569Z</time>
      </trkpt>
      <trkpt lat="44.24281" lon="0.85739">
        <ele>199</ele>
        <time>2025-08-17T07:28:15.569Z</time>
      </trkpt>
      <trkpt lat="44.24282" lon="0.8574">
        <ele>199</ele>
        <time>2025-08-17T07:28:16.569Z</time>
      </trkpt>
      <trkpt lat="44.24283" lon="0.8574">
        <ele>199</ele>
        <time>2025-08-17T07:28:17.569Z</time>
      </trkpt>
      <trkpt lat="44.24284" lon="0.8574">
        <ele>200</ele>
        <time>2025-08-17T07:28:18.569Z</time>
      </trkpt>
      <trkpt lat="44.24285" lon="0.8574">
        <ele>200</ele>
        <time>2025-08-17T07:28:19.569Z</time>
      </trkpt>
      <trkpt lat="44.24287" lon="0.8574">
        <ele>200</ele>
        <time>2025-08-17T07:28:20.569Z</time>
      </trkpt>
      <trkpt lat="44.24288" lon="0.85741">
        <ele>200</ele>
        <time>2025-08-17T07:28:21.569Z</time>
      </trkpt>
      <trkpt lat="44.24289" lon="0.85741">
        <ele>200</ele>
        <time>2025-08-17T07:28:22.569Z</time>
      </trkpt>
      <trkpt lat="44.2429" lon="0.85741">
        <ele>200</ele>
        <time>2025-08-17T07:28:23.569Z</time>
      </trkpt>
      <trkpt lat="44.24291" lon="0.85741">
        <ele>200</ele>
        <time>2025-08-17T07:28:24.569Z</time>
      </trkpt>
      <trkpt lat="44.24293" lon="0.85742">
        <ele>200</ele>
        <time>2025-08-17T07:28:25.569Z</time>
      </trkpt>
      <trkpt lat="44.24294" lon="0.85742">
        <ele>200</ele>
        <time>2025-08-17T07:28:26.569Z</time>
      </trkpt>
      <trkpt lat="44.24295" lon="0.85742">
        <ele>200</ele>
        <time>2025-08-17T07:28:27.569Z</time>
      </trkpt>
      <trkpt lat="44.24296" lon="0.85742">
        <ele>200</ele>
        <time>2025-08-17T07:28:28.569Z</time>
      </trkpt>
      <trkpt lat="44.24297" lon="0.85742">
        <ele>200</ele>
        <time>2025-08-17T07:28:29.569Z</time>
      </trkpt>
      <trkpt lat="44.24298" lon="0.85743">
        <ele>200</ele>
        <time>2025-08-17T07:28:30.569Z</time>
      </trkpt>
      <trkpt lat="44.24299" lon="0.85743">
        <ele>200</ele>
        <time>2025-08-17T07:28:31.569Z</time>
      </trkpt>
      <trkpt lat="44.24301" lon="0.85743">
        <ele>200</ele>
        <time>2025-08-17T07:28:32.569Z</time>
      </trkpt>
      <trkpt lat="44.24302" lon="0.85743">
        <ele>200</ele>
        <time>2025-08-17T07:28:33.569Z</time>
      </trkpt>
      <trkpt lat="44.24303" lon="0.85743">
        <ele>200</ele>
        <time>2025-08-17T07:28:34.569Z</time>
      </trkpt>
      <trkpt lat="44.24304" lon="0.85744">
        <ele>201</ele>
        <time>2025-08-17T07:28:35.569Z</time>
      </trkpt>
      <trkpt lat="44.24305" lon="0.85744">
        <ele>201</ele>
        <time>2025-08-17T07:28:36.569Z</time>
      </trkpt>
      <trkpt lat="44.24306" lon="0.85744">
        <ele>201</ele>
        <time>2025-08-17T07:28:37.569Z</time>
      </trkpt>
      <trkpt lat="44.24307" lon="0.85745">
        <ele>201</ele>
        <time>2025-08-17T07:28:38.569Z</time>
      </trkpt>
      <trkpt lat="44.24309" lon="0.85745">
        <ele>201</ele>
        <time>2025-08-17T07:28:39.569Z</time>
      </trkpt>
      <trkpt lat="44.2431" lon="0.85745">
        <ele>201</ele>
        <time>2025-08-17T07:28:40.569Z</time>
      </trkpt>
      <trkpt lat="44.24311" lon="0.85745">
        <ele>202</ele>
        <time>2025-08-17T07:28:41.569Z</time>
      </trkpt>
      <trkpt lat="44.24311" lon="0.85746">
        <ele>202</ele>
        <time>2025-08-17T07:28:42.569Z</time>
      </trkpt>
      <trkpt lat="44.24313" lon="0.85746">
        <ele>201</ele>
        <time>2025-08-17T07:28:43.569Z</time>
      </trkpt>
      <trkpt lat="44.24314" lon="0.85746">
        <ele>201</ele>
        <time>2025-08-17T07:28:44.569Z</time>
      </trkpt>
      <trkpt lat="44.24315" lon="0.85747">
        <ele>201</ele>
        <time>2025-08-17T07:28:45.569Z</time>
      </trkpt>
      <trkpt lat="44.24316" lon="0.85747">
        <ele>201</ele>
        <time>2025-08-17T07:28:46.569Z</time>
      </trkpt>
      <trkpt lat="44.24317" lon="0.85747">
        <ele>202</ele>
        <time>2025-08-17T07:28:47.569Z</time>
      </trkpt>
      <trkpt lat="44.24318" lon="0.85748">
        <ele>202</ele>
        <time>2025-08-17T07:28:48.569Z</time>
      </trkpt>
      <trkpt lat="44.24319" lon="0.85748">
        <ele>202</ele>
        <time>2025-08-17T07:28:49.569Z</time>
      </trkpt>
      <trkpt lat="44.24321" lon="0.85749">
        <ele>202</ele>
        <time>2025-08-17T07:28:50.569Z</time>
      </trkpt>
      <trkpt lat="44.24322" lon="0.85749">
        <ele>202</ele>
        <time>2025-08-17T07:28:51.569Z</time>
      </trkpt>
      <trkpt lat="44.24323" lon="0.8575">
        <ele>202</ele>
        <time>2025-08-17T07:28:52.569Z</time>
      </trkpt>
      <trkpt lat="44.24324" lon="0.8575">
        <ele>203</ele>
        <time>2025-08-17T07:28:53.569Z</time>
      </trkpt>
      <trkpt lat="44.24325" lon="0.85751">
        <ele>203</ele>
        <time>2025-08-17T07:28:54.569Z</time>
      </trkpt>
      <trkpt lat="44.24326" lon="0.85751">
        <ele>203</ele>
        <time>2025-08-17T07:28:55.569Z</time>
      </trkpt>
      <trkpt lat="44.24327" lon="0.85751">
        <ele>203</ele>
        <time>2025-08-17T07:28:56.569Z</time>
      </trkpt>
      <trkpt lat="44.24328" lon="0.85752">
        <ele>203</ele>
        <time>2025-08-17T07:28:57.569Z</time>
      </trkpt>
      <trkpt lat="44.24329" lon="0.85753">
        <ele>203</ele>
        <time>2025-08-17T07:28:58.569Z</time>
      </trkpt>
      <trkpt lat="44.2433" lon="0.85753">
        <ele>203</ele>
        <time>2025-08-17T07:28:59.569Z</time>
      </trkpt>
      <trkpt lat="44.24332" lon="0.85754">
        <ele>203</ele>
        <time>2025-08-17T07:29:00.569Z</time>
      </trkpt>
      <trkpt lat="44.24332" lon="0.85755">
        <ele>203</ele>
        <time>2025-08-17T07:29:01.569Z</time>
      </trkpt>
      <trkpt lat="44.24333" lon="0.85756">
        <ele>203</ele>
        <time>2025-08-17T07:29:02.570Z</time>
      </trkpt>
      <trkpt lat="44.24334" lon="0.85757">
        <ele>203</ele>
        <time>2025-08-17T07:29:03.569Z</time>
      </trkpt>
      <trkpt lat="44.24334" lon="0.85757">
        <ele>203</ele>
        <time>2025-08-17T07:29:04.569Z</time>
      </trkpt>
      <trkpt lat="44.24336" lon="0.85759">
        <ele>202</ele>
        <time>2025-08-17T07:29:05.569Z</time>
      </trkpt>
      <trkpt lat="44.24336" lon="0.8576">
        <ele>202</ele>
        <time>2025-08-17T07:29:06.569Z</time>
      </trkpt>
      <trkpt lat="44.24337" lon="0.8576">
        <ele>202</ele>
        <time>2025-08-17T07:29:07.569Z</time>
      </trkpt>
      <trkpt lat="44.24338" lon="0.85761">
        <ele>202</ele>
        <time>2025-08-17T07:29:08.569Z</time>
      </trkpt>
      <trkpt lat="44.24339" lon="0.85762">
        <ele>202</ele>
        <time>2025-08-17T07:29:09.569Z</time>
      </trkpt>
      <trkpt lat="44.24339" lon="0.85763">
        <ele>202</ele>
        <time>2025-08-17T07:29:10.569Z</time>
      </trkpt>
      <trkpt lat="44.2434" lon="0.85764">
        <ele>202</ele>
        <time>2025-08-17T07:29:11.569Z</time>
      </trkpt>
      <trkpt lat="44.24341" lon="0.85765">
        <ele>202</ele>
        <time>2025-08-17T07:29:12.569Z</time>
      </trkpt>
      <trkpt lat="44.24342" lon="0.85767">
        <ele>202</ele>
        <time>2025-08-17T07:29:13.569Z</time>
      </trkpt>
      <trkpt lat="44.24343" lon="0.85768">
        <ele>202</ele>
        <time>2025-08-17T07:29:14.569Z</time>
      </trkpt>
      <trkpt lat="44.24343" lon="0.85768">
        <ele>202</ele>
        <time>2025-08-17T07:29:15.569Z</time>
      </trkpt>
      <trkpt lat="44.24344" lon="0.85769">
        <ele>202</ele>
        <time>2025-08-17T07:29:16.569Z</time>
      </trkpt>
      <trkpt lat="44.24344" lon="0.8577">
        <ele>202</ele>
        <time>2025-08-17T07:29:17.569Z</time>
      </trkpt>
      <trkpt lat="44.24345" lon="0.85771">
        <ele>202</ele>
        <time>2025-08-17T07:29:18.569Z</time>
      </trkpt>
      <trkpt lat="44.24346" lon="0.85773">
        <ele>202</ele>
        <time>2025-08-17T07:29:19.569Z</time>
      </trkpt>
      <trkpt lat="44.24346" lon="0.85774">
        <ele>202</ele>
        <time>2025-08-17T07:29:20.569Z</time>
      </trkpt>
      <trkpt lat="44.24347" lon="0.85775">
        <ele>201</ele>
        <time>2025-08-17T07:29:21.569Z</time>
      </trkpt>
      <trkpt lat="44.24348" lon="0.85776">
        <ele>201</ele>
        <time>2025-08-17T07:29:22.569Z</time>
      </trkpt>
      <trkpt lat="44.24349" lon="0.85778">
        <ele>202</ele>
        <time>2025-08-17T07:29:23.569Z</time>
      </trkpt>
      <trkpt lat="44.2435" lon="0.85779">
        <ele>202</ele>
        <time>2025-08-17T07:29:24.569Z</time>
      </trkpt>
      <trkpt lat="44.2435" lon="0.8578">
        <ele>202</ele>
        <time>2025-08-17T07:29:25.569Z</time>
      </trkpt>
      <trkpt lat="44.24351" lon="0.85781">
        <ele>202</ele>
        <time>2025-08-17T07:29:26.569Z</time>
      </trkpt>
      <trkpt lat="44.24352" lon="0.85782">
        <ele>202</ele>
        <time>2025-08-17T07:29:27.569Z</time>
      </trkpt>
      <trkpt lat="44.24353" lon="0.85784">
        <ele>202</ele>
        <time>2025-08-17T07:29:28.569Z</time>
      </trkpt>
      <trkpt lat="44.24354" lon="0.85785">
        <ele>202</ele>
        <time>2025-08-17T07:29:29.569Z</time>
      </trkpt>
      <trkpt lat="44.24354" lon="0.85787">
        <ele>202</ele>
        <time>2025-08-17T07:29:30.569Z</time>
      </trkpt>
      <trkpt lat="44.24355" lon="0.85789">
        <ele>201</ele>
        <time>2025-08-17T07:29:31.569Z</time>
      </trkpt>
      <trkpt lat="44.24356" lon="0.8579">
        <ele>201</ele>
        <time>2025-08-17T07:29:32.569Z</time>
      </trkpt>
      <trkpt lat="44.24356" lon="0.85791">
        <ele>201</ele>
        <time>2025-08-17T07:29:33.569Z</time>
      </trkpt>
      <trkpt lat="44.24357" lon="0.85792">
        <ele>201</ele>
        <time>2025-08-17T07:29:34.569Z</time>
      </trkpt>
      <trkpt lat="44.24358" lon="0.85794">
        <ele>201</ele>
        <time>2025-08-17T07:29:35.569Z</time>
      </trkpt>
      <trkpt lat="44.24359" lon="0.85795">
        <ele>201</ele>
        <time>2025-08-17T07:29:36.569Z</time>
      </trkpt>
      <trkpt lat="44.24359" lon="0.85796">
        <ele>200</ele>
        <time>2025-08-17T07:29:37.569Z</time>
      </trkpt>
      <trkpt lat="44.2436" lon="0.85797">
        <ele>200</ele>
        <time>2025-08-17T07:29:38.569Z</time>
      </trkpt>
      <trkpt lat="44.24361" lon="0.85799">
        <ele>200</ele>
        <time>2025-08-17T07:29:39.569Z</time>
      </trkpt>
      <trkpt lat="44.24361" lon="0.85801">
        <ele>200</ele>
        <time>2025-08-17T07:29:40.569Z</time>
      </trkpt>
      <trkpt lat="44.24362" lon="0.85802">
        <ele>200</ele>
        <time>2025-08-17T07:29:41.569Z</time>
      </trkpt>
      <trkpt lat="44.24362" lon="0.85804">
        <ele>200</ele>
        <time>2025-08-17T07:29:42.569Z</time>
      </trkpt>
      <trkpt lat="44.24363" lon="0.85805">
        <ele>200</ele>
        <time>2025-08-17T07:29:43.569Z</time>
      </trkpt>
      <trkpt lat="44.24364" lon="0.85807">
        <ele>199</ele>
        <time>2025-08-17T07:29:44.569Z</time>
      </trkpt>
      <trkpt lat="44.24364" lon="0.85808">
        <ele>199</ele>
        <time>2025-08-17T07:29:45.569Z</time>
      </trkpt>
      <trkpt lat="44.24364" lon="0.85809">
        <ele>199</ele>
        <time>2025-08-17T07:29:46.569Z</time>
      </trkpt>
      <trkpt lat="44.24365" lon="0.85811">
        <ele>199</ele>
        <time>2025-08-17T07:29:47.569Z</time>
      </trkpt>
      <trkpt lat="44.24365" lon="0.85812">
        <ele>199</ele>
        <time>2025-08-17T07:29:48.569Z</time>
      </trkpt>
      <trkpt lat="44.24366" lon="0.85813">
        <ele>199</ele>
        <time>2025-08-17T07:29:49.569Z</time>
      </trkpt>
      <trkpt lat="44.24367" lon="0.85815">
        <ele>199</ele>
        <time>2025-08-17T07:29:50.569Z</time>
      </trkpt>
      <trkpt lat="44.24367" lon="0.85817">
        <ele>199</ele>
        <time>2025-08-17T07:29:51.569Z</time>
      </trkpt>
      <trkpt lat="44.24368" lon="0.85818">
        <ele>199</ele>
        <time>2025-08-17T07:29:52.569Z</time>
      </trkpt>
      <trkpt lat="44.24369" lon="0.8582">
        <ele>200</ele>
        <time>2025-08-17T07:29:53.569Z</time>
      </trkpt>
      <trkpt lat="44.24369" lon="0.85821">
        <ele>200</ele>
        <time>2025-08-17T07:29:54.569Z</time>
      </trkpt>
      <trkpt lat="44.2437" lon="0.85822">
        <ele>200</ele>
        <time>2025-08-17T07:29:55.569Z</time>
      </trkpt>
      <trkpt lat="44.2437" lon="0.85823">
        <ele>200</ele>
        <time>2025-08-17T07:29:56.569Z</time>
      </trkpt>
      <trkpt lat="44.24371" lon="0.85825">
        <ele>199</ele>
        <time>2025-08-17T07:29:57.569Z</time>
      </trkpt>
      <trkpt lat="44.24371" lon="0.85826">
        <ele>199</ele>
        <time>2025-08-17T07:29:58.569Z</time>
      </trkpt>
      <trkpt lat="44.24372" lon="0.85828">
        <ele>198</ele>
        <time>2025-08-17T07:29:59.569Z</time>
      </trkpt>
      <trkpt lat="44.24372" lon="0.85829">
        <ele>198</ele>
        <time>2025-08-17T07:30:00.569Z</time>
      </trkpt>
      <trkpt lat="44.24373" lon="0.85831">
        <ele>198</ele>
        <time>2025-08-17T07:30:01.569Z</time>
      </trkpt>
      <trkpt lat="44.24374" lon="0.85832">
        <ele>198</ele>
        <time>2025-08-17T07:30:02.569Z</time>
      </trkpt>
      <trkpt lat="44.24374" lon="0.85834">
        <ele>198</ele>
        <time>2025-08-17T07:30:03.569Z</time>
      </trkpt>
      <trkpt lat="44.24375" lon="0.85835">
        <ele>199</ele>
        <time>2025-08-17T07:30:04.569Z</time>
      </trkpt>
      <trkpt lat="44.24375" lon="0.85836">
        <ele>199</ele>
        <time>2025-08-17T07:30:05.569Z</time>
      </trkpt>
      <trkpt lat="44.24376" lon="0.85837">
        <ele>199</ele>
        <time>2025-08-17T07:30:06.569Z</time>
      </trkpt>
      <trkpt lat="44.24377" lon="0.85838">
        <ele>199</ele>
        <time>2025-08-17T07:30:07.569Z</time>
      </trkpt>
      <trkpt lat="44.24378" lon="0.8584">
        <ele>199</ele>
        <time>2025-08-17T07:30:08.569Z</time>
      </trkpt>
      <trkpt lat="44.24378" lon="0.85841">
        <ele>199</ele>
        <time>2025-08-17T07:30:09.569Z</time>
      </trkpt>
      <trkpt lat="44.24379" lon="0.85843">
        <ele>199</ele>
        <time>2025-08-17T07:30:10.569Z</time>
      </trkpt>
      <trkpt lat="44.2438" lon="0.85845">
        <ele>198</ele>
        <time>2025-08-17T07:30:11.569Z</time>
      </trkpt>
      <trkpt lat="44.24381" lon="0.85846">
        <ele>198</ele>
        <time>2025-08-17T07:30:12.569Z</time>
      </trkpt>
      <trkpt lat="44.24382" lon="0.85847">
        <ele>198</ele>
        <time>2025-08-17T07:30:13.569Z</time>
      </trkpt>
      <trkpt lat="44.24382" lon="0.85849">
        <ele>198</ele>
        <time>2025-08-17T07:30:14.569Z</time>
      </trkpt>
      <trkpt lat="44.24383" lon="0.8585">
        <ele>198</ele>
        <time>2025-08-17T07:30:15.569Z</time>
      </trkpt>
      <trkpt lat="44.24384" lon="0.85851">
        <ele>198</ele>
        <time>2025-08-17T07:30:16.569Z</time>
      </trkpt>
      <trkpt lat="44.24384" lon="0.85852">
        <ele>198</ele>
        <time>2025-08-17T07:30:17.569Z</time>
      </trkpt>
      <trkpt lat="44.24385" lon="0.85854">
        <ele>197</ele>
        <time>2025-08-17T07:30:18.569Z</time>
      </trkpt>
      <trkpt lat="44.24386" lon="0.85855">
        <ele>197</ele>
        <time>2025-08-17T07:30:19.569Z</time>
      </trkpt>
      <trkpt lat="44.24386" lon="0.85857">
        <ele>197</ele>
        <time>2025-08-17T07:30:20.569Z</time>
      </trkpt>
      <trkpt lat="44.24387" lon="0.85858">
        <ele>197</ele>
        <time>2025-08-17T07:30:21.569Z</time>
      </trkpt>
      <trkpt lat="44.24388" lon="0.8586">
        <ele>197</ele>
        <time>2025-08-17T07:30:22.569Z</time>
      </trkpt>
      <trkpt lat="44.24389" lon="0.85861">
        <ele>196</ele>
        <time>2025-08-17T07:30:23.569Z</time>
      </trkpt>
      <trkpt lat="44.24389" lon="0.85862">
        <ele>196</ele>
        <time>2025-08-17T07:30:24.569Z</time>
      </trkpt>
      <trkpt lat="44.2439" lon="0.85863">
        <ele>196</ele>
        <time>2025-08-17T07:30:25.569Z</time>
      </trkpt>
      <trkpt lat="44.24391" lon="0.85864">
        <ele>196</ele>
        <time>2025-08-17T07:30:26.569Z</time>
      </trkpt>
      <trkpt lat="44.24392" lon="0.85865">
        <ele>196</ele>
        <time>2025-08-17T07:30:27.569Z</time>
      </trkpt>
      <trkpt lat="44.24393" lon="0.85867">
        <ele>196</ele>
        <time>2025-08-17T07:30:28.569Z</time>
      </trkpt>
      <trkpt lat="44.24393" lon="0.85868">
        <ele>197</ele>
        <time>2025-08-17T07:30:29.569Z</time>
      </trkpt>
      <trkpt lat="44.24394" lon="0.85869">
        <ele>197</ele>
        <time>2025-08-17T07:30:30.569Z</time>
      </trkpt>
      <trkpt lat="44.24395" lon="0.8587">
        <ele>197</ele>
        <time>2025-08-17T07:30:31.569Z</time>
      </trkpt>
      <trkpt lat="44.24396" lon="0.85871">
        <ele>197</ele>
        <time>2025-08-17T07:30:32.569Z</time>
      </trkpt>
      <trkpt lat="44.24397" lon="0.85872">
        <ele>197</ele>
        <time>2025-08-17T07:30:33.569Z</time>
      </trkpt>
      <trkpt lat="44.24398" lon="0.85873">
        <ele>197</ele>
        <time>2025-08-17T07:30:34.569Z</time>
      </trkpt>
      <trkpt lat="44.24399" lon="0.85874">
        <ele>197</ele>
        <time>2025-08-17T07:30:35.569Z</time>
      </trkpt>
      <trkpt lat="44.244" lon="0.85875">
        <ele>197</ele>
        <time>2025-08-17T07:30:36.569Z</time>
      </trkpt>
      <trkpt lat="44.24401" lon="0.85876">
        <ele>197</ele>
        <time>2025-08-17T07:30:37.569Z</time>
      </trkpt>
      <trkpt lat="44.24402" lon="0.85877">
        <ele>197</ele>
        <time>2025-08-17T07:30:38.569Z</time>
      </trkpt>
      <trkpt lat="44.24403" lon="0.85878">
        <ele>197</ele>
        <time>2025-08-17T07:30:39.569Z</time>
      </trkpt>
      <trkpt lat="44.24404" lon="0.85879">
        <ele>197</ele>
        <time>2025-08-17T07:30:40.569Z</time>
      </trkpt>
      <trkpt lat="44.24405" lon="0.8588">
        <ele>197</ele>
        <time>2025-08-17T07:30:41.569Z</time>
      </trkpt>
      <trkpt lat="44.24406" lon="0.8588">
        <ele>197</ele>
        <time>2025-08-17T07:30:42.569Z</time>
      </trkpt>
      <trkpt lat="44.24407" lon="0.85881">
        <ele>197</ele>
        <time>2025-08-17T07:30:43.569Z</time>
      </trkpt>
      <trkpt lat="44.24408" lon="0.85882">
        <ele>197</ele>
        <time>2025-08-17T07:30:44.569Z</time>
      </trkpt>
      <trkpt lat="44.24409" lon="0.85883">
        <ele>197</ele>
        <time>2025-08-17T07:30:45.569Z</time>
      </trkpt>
      <trkpt lat="44.2441" lon="0.85883">
        <ele>198</ele>
        <time>2025-08-17T07:30:46.569Z</time>
      </trkpt>
      <trkpt lat="44.24411" lon="0.85884">
        <ele>198</ele>
        <time>2025-08-17T07:30:47.569Z</time>
      </trkpt>
      <trkpt lat="44.24413" lon="0.85885">
        <ele>198</ele>
        <time>2025-08-17T07:30:48.569Z</time>
      </trkpt>
      <trkpt lat="44.24414" lon="0.85885">
        <ele>198</ele>
        <time>2025-08-17T07:30:49.569Z</time>
      </trkpt>
      <trkpt lat="44.24415" lon="0.85886">
        <ele>198</ele>
        <time>2025-08-17T07:30:50.569Z</time>
      </trkpt>
      <trkpt lat="44.24416" lon="0.85887">
        <ele>198</ele>
        <time>2025-08-17T07:30:51.569Z</time>
      </trkpt>
      <trkpt lat="44.24417" lon="0.85887">
        <ele>198</ele>
        <time>2025-08-17T07:30:52.569Z</time>
      </trkpt>
      <trkpt lat="44.24418" lon="0.85888">
        <ele>198</ele>
        <time>2025-08-17T07:30:53.569Z</time>
      </trkpt>
      <trkpt lat="44.24419" lon="0.85888">
        <ele>199</ele>
        <time>2025-08-17T07:30:54.569Z</time>
      </trkpt>
      <trkpt lat="44.2442" lon="0.85889">
        <ele>198</ele>
        <time>2025-08-17T07:30:55.569Z</time>
      </trkpt>
      <trkpt lat="44.24421" lon="0.85889">
        <ele>198</ele>
        <time>2025-08-17T07:30:56.569Z</time>
      </trkpt>
      <trkpt lat="44.24422" lon="0.8589">
        <ele>198</ele>
        <time>2025-08-17T07:30:57.569Z</time>
      </trkpt>
      <trkpt lat="44.24423" lon="0.85891">
        <ele>198</ele>
        <time>2025-08-17T07:30:58.569Z</time>
      </trkpt>
      <trkpt lat="44.24424" lon="0.85891">
        <ele>198</ele>
        <time>2025-08-17T07:30:59.569Z</time>
      </trkpt>
      <trkpt lat="44.24425" lon="0.85891">
        <ele>198</ele>
        <time>2025-08-17T07:31:00.569Z</time>
      </trkpt>
      <trkpt lat="44.24426" lon="0.85892">
        <ele>198</ele>
        <time>2025-08-17T07:31:01.569Z</time>
      </trkpt>
      <trkpt lat="44.24427" lon="0.85892">
        <ele>198</ele>
        <time>2025-08-17T07:31:02.569Z</time>
      </trkpt>
      <trkpt lat="44.24429" lon="0.85893">
        <ele>199</ele>
        <time>2025-08-17T07:31:03.569Z</time>
      </trkpt>
      <trkpt lat="44.2443" lon="0.85893">
        <ele>199</ele>
        <time>2025-08-17T07:31:04.569Z</time>
      </trkpt>
      <trkpt lat="44.24432" lon="0.85894">
        <ele>199</ele>
        <time>2025-08-17T07:31:05.569Z</time>
      </trkpt>
      <trkpt lat="44.24432" lon="0.85894">
        <ele>198</ele>
        <time>2025-08-17T07:31:06.569Z</time>
      </trkpt>
      <trkpt lat="44.24434" lon="0.85894">
        <ele>199</ele>
        <time>2025-08-17T07:31:07.569Z</time>
      </trkpt>
      <trkpt lat="44.24435" lon="0.85894">
        <ele>199</ele>
        <time>2025-08-17T07:31:08.569Z</time>
      </trkpt>
      <trkpt lat="44.24436" lon="0.85894">
        <ele>199</ele>
        <time>2025-08-17T07:31:09.569Z</time>
      </trkpt>
      <trkpt lat="44.24437" lon="0.85894">
        <ele>199</ele>
        <time>2025-08-17T07:31:10.569Z</time>
      </trkpt>
      <trkpt lat="44.24439" lon="0.85895">
        <ele>199</ele>
        <time>2025-08-17T07:31:11.569Z</time>
      </trkpt>
      <trkpt lat="44.2444" lon="0.85895">
        <ele>199</ele>
        <time>2025-08-17T07:31:12.569Z</time>
      </trkpt>
      <trkpt lat="44.24441" lon="0.85896">
        <ele>199</ele>
        <time>2025-08-17T07:31:13.569Z</time>
      </trkpt>
      <trkpt lat="44.24443" lon="0.85896">
        <ele>199</ele>
        <time>2025-08-17T07:31:14.569Z</time>
      </trkpt>
      <trkpt lat="44.24444" lon="0.85896">
        <ele>199</ele>
        <time>2025-08-17T07:31:15.569Z</time>
      </trkpt>
      <trkpt lat="44.24445" lon="0.85897">
        <ele>199</ele>
        <time>2025-08-17T07:31:16.569Z</time>
      </trkpt>
      <trkpt lat="44.24446" lon="0.85897">
        <ele>199</ele>
        <time>2025-08-17T07:31:17.569Z</time>
      </trkpt>
      <trkpt lat="44.24447" lon="0.85897">
        <ele>199</ele>
        <time>2025-08-17T07:31:18.569Z</time>
      </trkpt>
      <trkpt lat="44.24448" lon="0.85897">
        <ele>199</ele>
        <time>2025-08-17T07:31:19.569Z</time>
      </trkpt>
      <trkpt lat="44.24449" lon="0.85898">
        <ele>199</ele>
        <time>2025-08-17T07:31:20.569Z</time>
      </trkpt>
      <trkpt lat="44.2445" lon="0.85898">
        <ele>199</ele>
        <time>2025-08-17T07:31:21.569Z</time>
      </trkpt>
      <trkpt lat="44.24451" lon="0.85898">
        <ele>199</ele>
        <time>2025-08-17T07:31:22.569Z</time>
      </trkpt>
      <trkpt lat="44.24452" lon="0.85898">
        <ele>200</ele>
        <time>2025-08-17T07:31:23.569Z</time>
      </trkpt>
      <trkpt lat="44.24453" lon="0.85899">
        <ele>200</ele>
        <time>2025-08-17T07:31:24.569Z</time>
      </trkpt>
      <trkpt lat="44.24454" lon="0.85899">
        <ele>199</ele>
        <time>2025-08-17T07:31:25.569Z</time>
      </trkpt>
      <trkpt lat="44.24455" lon="0.859">
        <ele>199</ele>
        <time>2025-08-17T07:31:26.569Z</time>
      </trkpt>
      <trkpt lat="44.24457" lon="0.859">
        <ele>199</ele>
        <time>2025-08-17T07:31:27.569Z</time>
      </trkpt>
      <trkpt lat="44.24458" lon="0.859">
        <ele>199</ele>
        <time>2025-08-17T07:31:28.569Z</time>
      </trkpt>
      <trkpt lat="44.24459" lon="0.85901">
        <ele>199</ele>
        <time>2025-08-17T07:31:29.569Z</time>
      </trkpt>
      <trkpt lat="44.2446" lon="0.85901">
        <ele>199</ele>
        <time>2025-08-17T07:31:30.569Z</time>
      </trkpt>
      <trkpt lat="44.24461" lon="0.85901">
        <ele>199</ele>
        <time>2025-08-17T07:31:31.569Z</time>
      </trkpt>
      <trkpt lat="44.24462" lon="0.85901">
        <ele>199</ele>
        <time>2025-08-17T07:31:32.569Z</time>
      </trkpt>
      <trkpt lat="44.24463" lon="0.85902">
        <ele>199</ele>
        <time>2025-08-17T07:31:33.569Z</time>
      </trkpt>
      <trkpt lat="44.24464" lon="0.85902">
        <ele>199</ele>
        <time>2025-08-17T07:31:34.569Z</time>
      </trkpt>
      <trkpt lat="44.24466" lon="0.85902">
        <ele>200</ele>
        <time>2025-08-17T07:31:35.569Z</time>
      </trkpt>
      <trkpt lat="44.24467" lon="0.85902">
        <ele>200</ele>
        <time>2025-08-17T07:31:36.569Z</time>
      </trkpt>
      <trkpt lat="44.24468" lon="0.85902">
        <ele>201</ele>
        <time>2025-08-17T07:31:37.569Z</time>
      </trkpt>
      <trkpt lat="44.24469" lon="0.85903">
        <ele>201</ele>
        <time>2025-08-17T07:31:38.569Z</time>
      </trkpt>
      <trkpt lat="44.24471" lon="0.85903">
        <ele>201</ele>
        <time>2025-08-17T07:31:39.569Z</time>
      </trkpt>
      <trkpt lat="44.24471" lon="0.85903">
        <ele>201</ele>
        <time>2025-08-17T07:31:40.569Z</time>
      </trkpt>
      <trkpt lat="44.24473" lon="0.85903">
        <ele>201</ele>
        <time>2025-08-17T07:31:41.569Z</time>
      </trkpt>
      <trkpt lat="44.24474" lon="0.85903">
        <ele>201</ele>
        <time>2025-08-17T07:31:42.569Z</time>
      </trkpt>
      <trkpt lat="44.24475" lon="0.85903">
        <ele>202</ele>
        <time>2025-08-17T07:31:43.569Z</time>
      </trkpt>
      <trkpt lat="44.24476" lon="0.85903">
        <ele>202</ele>
        <time>2025-08-17T07:31:44.569Z</time>
      </trkpt>
      <trkpt lat="44.24477" lon="0.85903">
        <ele>202</ele>
        <time>2025-08-17T07:31:45.569Z</time>
      </trkpt>
      <trkpt lat="44.24478" lon="0.85903">
        <ele>202</ele>
        <time>2025-08-17T07:31:46.569Z</time>
      </trkpt>
      <trkpt lat="44.2448" lon="0.85904">
        <ele>203</ele>
        <time>2025-08-17T07:31:47.569Z</time>
      </trkpt>
      <trkpt lat="44.24481" lon="0.85904">
        <ele>203</ele>
        <time>2025-08-17T07:31:48.569Z</time>
      </trkpt>
      <trkpt lat="44.24482" lon="0.85904">
        <ele>203</ele>
        <time>2025-08-17T07:31:49.569Z</time>
      </trkpt>
      <trkpt lat="44.24483" lon="0.85904">
        <ele>203</ele>
        <time>2025-08-17T07:31:50.569Z</time>
      </trkpt>
      <trkpt lat="44.24484" lon="0.85905">
        <ele>203</ele>
        <time>2025-08-17T07:31:51.569Z</time>
      </trkpt>
      <trkpt lat="44.24485" lon="0.85905">
        <ele>203</ele>
        <time>2025-08-17T07:31:52.569Z</time>
      </trkpt>
      <trkpt lat="44.24487" lon="0.85905">
        <ele>204</ele>
        <time>2025-08-17T07:31:53.569Z</time>
      </trkpt>
      <trkpt lat="44.24488" lon="0.85905">
        <ele>203</ele>
        <time>2025-08-17T07:31:54.569Z</time>
      </trkpt>
      <trkpt lat="44.24489" lon="0.85906">
        <ele>203</ele>
        <time>2025-08-17T07:31:55.569Z</time>
      </trkpt>
      <trkpt lat="44.2449" lon="0.85906">
        <ele>203</ele>
        <time>2025-08-17T07:31:56.569Z</time>
      </trkpt>
      <trkpt lat="44.24491" lon="0.85907">
        <ele>203</ele>
        <time>2025-08-17T07:31:57.569Z</time>
      </trkpt>
      <trkpt lat="44.24492" lon="0.85907">
        <ele>203</ele>
        <time>2025-08-17T07:31:58.569Z</time>
      </trkpt>
      <trkpt lat="44.24493" lon="0.85907">
        <ele>203</ele>
        <time>2025-08-17T07:31:59.569Z</time>
      </trkpt>
      <trkpt lat="44.24494" lon="0.85907">
        <ele>203</ele>
        <time>2025-08-17T07:32:00.569Z</time>
      </trkpt>
      <trkpt lat="44.24495" lon="0.85906">
        <ele>204</ele>
        <time>2025-08-17T07:32:01.569Z</time>
      </trkpt>
      <trkpt lat="44.24496" lon="0.85906">
        <ele>204</ele>
        <time>2025-08-17T07:32:02.569Z</time>
      </trkpt>
      <trkpt lat="44.24497" lon="0.85906">
        <ele>205</ele>
        <time>2025-08-17T07:32:03.569Z</time>
      </trkpt>
      <trkpt lat="44.24497" lon="0.85906">
        <ele>205</ele>
        <time>2025-08-17T07:32:04.569Z</time>
      </trkpt>
      <trkpt lat="44.24497" lon="0.85906">
        <ele>205</ele>
        <time>2025-08-17T07:32:05.569Z</time>
      </trkpt>
      <trkpt lat="44.24497" lon="0.85906">
        <ele>205</ele>
        <time>2025-08-17T07:32:06.569Z</time>
      </trkpt>
      <trkpt lat="44.24497" lon="0.85906">
        <ele>204</ele>
        <time>2025-08-17T07:32:07.569Z</time>
      </trkpt>
      <trkpt lat="44.24497" lon="0.85906">
        <ele>204</ele>
        <time>2025-08-17T07:32:08.569Z</time>
      </trkpt>
      <trkpt lat="44.24498" lon="0.85906">
        <ele>204</ele>
        <time>2025-08-17T07:32:09.569Z</time>
      </trkpt>
      <trkpt lat="44.24498" lon="0.85906">
        <ele>204</ele>
        <time>2025-08-17T07:32:10.569Z</time>
      </trkpt>
      <trkpt lat="44.24499" lon="0.85906">
        <ele>203</ele>
        <time>2025-08-17T07:32:11.569Z</time>
      </trkpt>
      <trkpt lat="44.245" lon="0.85907">
        <ele>203</ele>
        <time>2025-08-17T07:32:12.569Z</time>
      </trkpt>
      <trkpt lat="44.24501" lon="0.85907">
        <ele>202</ele>
        <time>2025-08-17T07:32:13.569Z</time>
      </trkpt>
      <trkpt lat="44.24502" lon="0.85907">
        <ele>202</ele>
        <time>2025-08-17T07:32:14.569Z</time>
      </trkpt>
      <trkpt lat="44.24503" lon="0.85908">
        <ele>202</ele>
        <time>2025-08-17T07:32:15.569Z</time>
      </trkpt>
      <trkpt lat="44.24504" lon="0.85908">
        <ele>202</ele>
        <time>2025-08-17T07:32:16.569Z</time>
      </trkpt>
      <trkpt lat="44.24505" lon="0.85908">
        <ele>202</ele>
        <time>2025-08-17T07:32:17.569Z</time>
      </trkpt>
      <trkpt lat="44.24506" lon="0.85909">
        <ele>202</ele>
        <time>2025-08-17T07:32:18.569Z</time>
      </trkpt>
      <trkpt lat="44.24507" lon="0.8591">
        <ele>202</ele>
        <time>2025-08-17T07:32:19.569Z</time>
      </trkpt>
      <trkpt lat="44.24508" lon="0.8591">
        <ele>202</ele>
        <time>2025-08-17T07:32:20.569Z</time>
      </trkpt>
      <trkpt lat="44.24509" lon="0.8591">
        <ele>203</ele>
        <time>2025-08-17T07:32:21.569Z</time>
      </trkpt>
      <trkpt lat="44.2451" lon="0.85911">
        <ele>203</ele>
        <time>2025-08-17T07:32:22.569Z</time>
      </trkpt>
      <trkpt lat="44.24511" lon="0.85911">
        <ele>203</ele>
        <time>2025-08-17T07:32:23.569Z</time>
      </trkpt>
      <trkpt lat="44.24512" lon="0.85912">
        <ele>203</ele>
        <time>2025-08-17T07:32:24.569Z</time>
      </trkpt>
      <trkpt lat="44.24513" lon="0.85913">
        <ele>204</ele>
        <time>2025-08-17T07:32:25.569Z</time>
      </trkpt>
      <trkpt lat="44.24514" lon="0.85913">
        <ele>204</ele>
        <time>2025-08-17T07:32:26.569Z</time>
      </trkpt>
      <trkpt lat="44.24515" lon="0.85913">
        <ele>204</ele>
        <time>2025-08-17T07:32:27.569Z</time>
      </trkpt>
      <trkpt lat="44.24515" lon="0.85913">
        <ele>204</ele>
        <time>2025-08-17T07:32:28.569Z</time>
      </trkpt>
      <trkpt lat="44.24516" lon="0.85914">
        <ele>204</ele>
        <time>2025-08-17T07:32:29.569Z</time>
      </trkpt>
      <trkpt lat="44.24517" lon="0.85914">
        <ele>204</ele>
        <time>2025-08-17T07:32:30.569Z</time>
      </trkpt>
      <trkpt lat="44.24518" lon="0.85915">
        <ele>204</ele>
        <time>2025-08-17T07:32:31.569Z</time>
      </trkpt>
      <trkpt lat="44.24519" lon="0.85916">
        <ele>204</ele>
        <time>2025-08-17T07:32:32.569Z</time>
      </trkpt>
      <trkpt lat="44.2452" lon="0.85917">
        <ele>203</ele>
        <time>2025-08-17T07:32:33.569Z</time>
      </trkpt>
      <trkpt lat="44.24521" lon="0.85917">
        <ele>204</ele>
        <time>2025-08-17T07:32:34.569Z</time>
      </trkpt>
      <trkpt lat="44.24522" lon="0.85917">
        <ele>204</ele>
        <time>2025-08-17T07:32:35.569Z</time>
      </trkpt>
      <trkpt lat="44.24522" lon="0.85918">
        <ele>204</ele>
        <time>2025-08-17T07:32:36.569Z</time>
      </trkpt>
      <trkpt lat="44.24523" lon="0.85918">
        <ele>204</ele>
        <time>2025-08-17T07:32:37.569Z</time>
      </trkpt>
      <trkpt lat="44.24524" lon="0.85919">
        <ele>204</ele>
        <time>2025-08-17T07:32:38.569Z</time>
      </trkpt>
      <trkpt lat="44.24525" lon="0.8592">
        <ele>204</ele>
        <time>2025-08-17T07:32:39.569Z</time>
      </trkpt>
      <trkpt lat="44.24526" lon="0.8592">
        <ele>204</ele>
        <time>2025-08-17T07:32:40.569Z</time>
      </trkpt>
      <trkpt lat="44.24526" lon="0.8592">
        <ele>204</ele>
        <time>2025-08-17T07:32:41.569Z</time>
      </trkpt>
      <trkpt lat="44.24526" lon="0.85921">
        <ele>205</ele>
        <time>2025-08-17T07:32:42.569Z</time>
      </trkpt>
      <trkpt lat="44.24526" lon="0.8592">
        <ele>205</ele>
        <time>2025-08-17T07:32:43.569Z</time>
      </trkpt>
      <trkpt lat="44.24526" lon="0.8592">
        <ele>205</ele>
        <time>2025-08-17T07:32:44.569Z</time>
      </trkpt>
      <trkpt lat="44.24527" lon="0.8592">
        <ele>205</ele>
        <time>2025-08-17T07:32:45.569Z</time>
      </trkpt>
      <trkpt lat="44.24527" lon="0.8592">
        <ele>205</ele>
        <time>2025-08-17T07:32:46.569Z</time>
      </trkpt>
      <trkpt lat="44.24527" lon="0.85921">
        <ele>205</ele>
        <time>2025-08-17T07:32:47.569Z</time>
      </trkpt>
      <trkpt lat="44.24527" lon="0.85921">
        <ele>205</ele>
        <time>2025-08-17T07:32:48.569Z</time>
      </trkpt>
      <trkpt lat="44.24527" lon="0.85921">
        <ele>205</ele>
        <time>2025-08-17T07:32:49.569Z</time>
      </trkpt>
      <trkpt lat="44.24528" lon="0.85921">
        <ele>206</ele>
        <time>2025-08-17T07:32:50.569Z</time>
      </trkpt>
      <trkpt lat="44.24529" lon="0.85921">
        <ele>206</ele>
        <time>2025-08-17T07:32:51.569Z</time>
      </trkpt>
      <trkpt lat="44.2453" lon="0.8592">
        <ele>206</ele>
        <time>2025-08-17T07:32:52.569Z</time>
      </trkpt>
      <trkpt lat="44.24531" lon="0.8592">
        <ele>206</ele>
        <time>2025-08-17T07:32:53.569Z</time>
      </trkpt>
      <trkpt lat="44.24531" lon="0.85921">
        <ele>206</ele>
        <time>2025-08-17T07:32:54.569Z</time>
      </trkpt>
      <trkpt lat="44.24532" lon="0.85921">
        <ele>206</ele>
        <time>2025-08-17T07:32:55.569Z</time>
      </trkpt>
      <trkpt lat="44.24532" lon="0.85922">
        <ele>206</ele>
        <time>2025-08-17T07:32:56.569Z</time>
      </trkpt>
      <trkpt lat="44.24533" lon="0.85922">
        <ele>206</ele>
        <time>2025-08-17T07:32:57.569Z</time>
      </trkpt>
      <trkpt lat="44.24534" lon="0.85922">
        <ele>206</ele>
        <time>2025-08-17T07:32:58.569Z</time>
      </trkpt>
      <trkpt lat="44.24536" lon="0.85923">
        <ele>206</ele>
        <time>2025-08-17T07:32:59.569Z</time>
      </trkpt>
      <trkpt lat="44.24537" lon="0.85923">
        <ele>206</ele>
        <time>2025-08-17T07:33:00.569Z</time>
      </trkpt>
      <trkpt lat="44.24538" lon="0.85924">
        <ele>207</ele>
        <time>2025-08-17T07:33:01.569Z</time>
      </trkpt>
      <trkpt lat="44.24539" lon="0.85924">
        <ele>207</ele>
        <time>2025-08-17T07:33:02.569Z</time>
      </trkpt>
      <trkpt lat="44.24539" lon="0.85925">
        <ele>207</ele>
        <time>2025-08-17T07:33:03.569Z</time>
      </trkpt>
      <trkpt lat="44.2454" lon="0.85926">
        <ele>206</ele>
        <time>2025-08-17T07:33:04.569Z</time>
      </trkpt>
      <trkpt lat="44.24541" lon="0.85927">
        <ele>207</ele>
        <time>2025-08-17T07:33:05.569Z</time>
      </trkpt>
      <trkpt lat="44.24542" lon="0.85928">
        <ele>207</ele>
        <time>2025-08-17T07:33:06.569Z</time>
      </trkpt>
      <trkpt lat="44.24543" lon="0.85929">
        <ele>206</ele>
        <time>2025-08-17T07:33:07.569Z</time>
      </trkpt>
      <trkpt lat="44.24544" lon="0.8593">
        <ele>206</ele>
        <time>2025-08-17T07:33:08.569Z</time>
      </trkpt>
      <trkpt lat="44.24545" lon="0.8593">
        <ele>206</ele>
        <time>2025-08-17T07:33:09.569Z</time>
      </trkpt>
      <trkpt lat="44.24547" lon="0.85931">
        <ele>206</ele>
        <time>2025-08-17T07:33:10.569Z</time>
      </trkpt>
      <trkpt lat="44.24548" lon="0.85932">
        <ele>206</ele>
        <time>2025-08-17T07:33:11.569Z</time>
      </trkpt>
      <trkpt lat="44.2455" lon="0.85932">
        <ele>206</ele>
        <time>2025-08-17T07:33:12.569Z</time>
      </trkpt>
      <trkpt lat="44.24551" lon="0.85933">
        <ele>206</ele>
        <time>2025-08-17T07:33:13.569Z</time>
      </trkpt>
      <trkpt lat="44.24553" lon="0.85934">
        <ele>206</ele>
        <time>2025-08-17T07:33:14.569Z</time>
      </trkpt>
      <trkpt lat="44.24554" lon="0.85934">
        <ele>206</ele>
        <time>2025-08-17T07:33:15.569Z</time>
      </trkpt>
      <trkpt lat="44.24555" lon="0.85934">
        <ele>207</ele>
        <time>2025-08-17T07:33:16.569Z</time>
      </trkpt>
      <trkpt lat="44.24556" lon="0.85934">
        <ele>207</ele>
        <time>2025-08-17T07:33:17.569Z</time>
      </trkpt>
      <trkpt lat="44.24557" lon="0.85935">
        <ele>207</ele>
        <time>2025-08-17T07:33:18.569Z</time>
      </trkpt>
      <trkpt lat="44.24558" lon="0.85936">
        <ele>207</ele>
        <time>2025-08-17T07:33:19.569Z</time>
      </trkpt>
      <trkpt lat="44.24559" lon="0.85937">
        <ele>206</ele>
        <time>2025-08-17T07:33:20.569Z</time>
      </trkpt>
      <trkpt lat="44.2456" lon="0.85938">
        <ele>206</ele>
        <time>2025-08-17T07:33:21.569Z</time>
      </trkpt>
      <trkpt lat="44.24561" lon="0.85939">
        <ele>206</ele>
        <time>2025-08-17T07:33:22.569Z</time>
      </trkpt>
      <trkpt lat="44.24562" lon="0.85939">
        <ele>206</ele>
        <time>2025-08-17T07:33:23.569Z</time>
      </trkpt>
      <trkpt lat="44.24563" lon="0.8594">
        <ele>206</ele>
        <time>2025-08-17T07:33:24.569Z</time>
      </trkpt>
      <trkpt lat="44.24564" lon="0.85941">
        <ele>206</ele>
        <time>2025-08-17T07:33:25.569Z</time>
      </trkpt>
      <trkpt lat="44.24565" lon="0.85942">
        <ele>206</ele>
        <time>2025-08-17T07:33:26.569Z</time>
      </trkpt>
      <trkpt lat="44.24566" lon="0.85943">
        <ele>206</ele>
        <time>2025-08-17T07:33:27.569Z</time>
      </trkpt>
      <trkpt lat="44.24567" lon="0.85944">
        <ele>206</ele>
        <time>2025-08-17T07:33:28.569Z</time>
      </trkpt>
      <trkpt lat="44.24568" lon="0.85945">
        <ele>205</ele>
        <time>2025-08-17T07:33:29.569Z</time>
      </trkpt>
      <trkpt lat="44.24569" lon="0.85946">
        <ele>205</ele>
        <time>2025-08-17T07:33:30.569Z</time>
      </trkpt>
      <trkpt lat="44.2457" lon="0.85947">
        <ele>205</ele>
        <time>2025-08-17T07:33:31.569Z</time>
      </trkpt>
      <trkpt lat="44.24571" lon="0.85948">
        <ele>205</ele>
        <time>2025-08-17T07:33:32.569Z</time>
      </trkpt>
      <trkpt lat="44.24571" lon="0.85949">
        <ele>204</ele>
        <time>2025-08-17T07:33:33.569Z</time>
      </trkpt>
      <trkpt lat="44.24572" lon="0.85949">
        <ele>204</ele>
        <time>2025-08-17T07:33:34.569Z</time>
      </trkpt>
      <trkpt lat="44.24573" lon="0.85949">
        <ele>205</ele>
        <time>2025-08-17T07:33:35.569Z</time>
      </trkpt>
      <trkpt lat="44.24573" lon="0.8595">
        <ele>205</ele>
        <time>2025-08-17T07:33:36.569Z</time>
      </trkpt>
      <trkpt lat="44.24574" lon="0.8595">
        <ele>205</ele>
        <time>2025-08-17T07:33:37.569Z</time>
      </trkpt>
      <trkpt lat="44.24575" lon="0.85951">
        <ele>205</ele>
        <time>2025-08-17T07:33:38.569Z</time>
      </trkpt>
      <trkpt lat="44.24576" lon="0.85952">
        <ele>205</ele>
        <time>2025-08-17T07:33:39.569Z</time>
      </trkpt>
      <trkpt lat="44.24577" lon="0.85953">
        <ele>205</ele>
        <time>2025-08-17T07:33:40.569Z</time>
      </trkpt>
      <trkpt lat="44.24578" lon="0.85953">
        <ele>205</ele>
        <time>2025-08-17T07:33:41.569Z</time>
      </trkpt>
      <trkpt lat="44.24579" lon="0.85954">
        <ele>205</ele>
        <time>2025-08-17T07:33:42.569Z</time>
      </trkpt>
      <trkpt lat="44.2458" lon="0.85955">
        <ele>205</ele>
        <time>2025-08-17T07:33:43.569Z</time>
      </trkpt>
      <trkpt lat="44.24581" lon="0.85956">
        <ele>205</ele>
        <time>2025-08-17T07:33:44.569Z</time>
      </trkpt>
      <trkpt lat="44.24581" lon="0.85956">
        <ele>205</ele>
        <time>2025-08-17T07:33:45.569Z</time>
      </trkpt>
      <trkpt lat="44.24582" lon="0.85957">
        <ele>204</ele>
        <time>2025-08-17T07:33:46.569Z</time>
      </trkpt>
      <trkpt lat="44.24583" lon="0.85958">
        <ele>204</ele>
        <time>2025-08-17T07:33:47.569Z</time>
      </trkpt>
      <trkpt lat="44.24584" lon="0.85959">
        <ele>203</ele>
        <time>2025-08-17T07:33:48.569Z</time>
      </trkpt>
      <trkpt lat="44.24585" lon="0.85959">
        <ele>203</ele>
        <time>2025-08-17T07:33:49.569Z</time>
      </trkpt>
      <trkpt lat="44.24586" lon="0.8596">
        <ele>203</ele>
        <time>2025-08-17T07:33:50.569Z</time>
      </trkpt>
      <trkpt lat="44.24587" lon="0.85961">
        <ele>203</ele>
        <time>2025-08-17T07:33:51.569Z</time>
      </trkpt>
      <trkpt lat="44.24588" lon="0.85962">
        <ele>203</ele>
        <time>2025-08-17T07:33:52.569Z</time>
      </trkpt>
      <trkpt lat="44.2459" lon="0.85962">
        <ele>203</ele>
        <time>2025-08-17T07:33:53.569Z</time>
      </trkpt>
      <trkpt lat="44.24591" lon="0.85963">
        <ele>203</ele>
        <time>2025-08-17T07:33:54.569Z</time>
      </trkpt>
      <trkpt lat="44.24591" lon="0.85963">
        <ele>204</ele>
        <time>2025-08-17T07:33:55.569Z</time>
      </trkpt>
      <trkpt lat="44.24592" lon="0.85964">
        <ele>204</ele>
        <time>2025-08-17T07:33:56.569Z</time>
      </trkpt>
      <trkpt lat="44.24594" lon="0.85964">
        <ele>204</ele>
        <time>2025-08-17T07:33:57.569Z</time>
      </trkpt>
      <trkpt lat="44.24595" lon="0.85965">
        <ele>204</ele>
        <time>2025-08-17T07:33:58.569Z</time>
      </trkpt>
      <trkpt lat="44.24596" lon="0.85965">
        <ele>204</ele>
        <time>2025-08-17T07:33:59.569Z</time>
      </trkpt>
      <trkpt lat="44.24596" lon="0.85966">
        <ele>204</ele>
        <time>2025-08-17T07:34:00.569Z</time>
      </trkpt>
      <trkpt lat="44.24597" lon="0.85967">
        <ele>203</ele>
        <time>2025-08-17T07:34:01.569Z</time>
      </trkpt>
      <trkpt lat="44.24598" lon="0.85967">
        <ele>203</ele>
        <time>2025-08-17T07:34:02.569Z</time>
      </trkpt>
      <trkpt lat="44.24599" lon="0.85968">
        <ele>203</ele>
        <time>2025-08-17T07:34:03.569Z</time>
      </trkpt>
      <trkpt lat="44.246" lon="0.85968">
        <ele>203</ele>
        <time>2025-08-17T07:34:04.569Z</time>
      </trkpt>
      <trkpt lat="44.24601" lon="0.85969">
        <ele>203</ele>
        <time>2025-08-17T07:34:05.569Z</time>
      </trkpt>
      <trkpt lat="44.24602" lon="0.85969">
        <ele>203</ele>
        <time>2025-08-17T07:34:06.569Z</time>
      </trkpt>
      <trkpt lat="44.24603" lon="0.85969">
        <ele>203</ele>
        <time>2025-08-17T07:34:07.569Z</time>
      </trkpt>
      <trkpt lat="44.24603" lon="0.85969">
        <ele>204</ele>
        <time>2025-08-17T07:34:08.569Z</time>
      </trkpt>
      <trkpt lat="44.24604" lon="0.85969">
        <ele>204</ele>
        <time>2025-08-17T07:34:09.569Z</time>
      </trkpt>
      <trkpt lat="44.24605" lon="0.8597">
        <ele>204</ele>
        <time>2025-08-17T07:34:10.569Z</time>
      </trkpt>
      <trkpt lat="44.24606" lon="0.8597">
        <ele>204</ele>
        <time>2025-08-17T07:34:11.569Z</time>
      </trkpt>
      <trkpt lat="44.24607" lon="0.85971">
        <ele>204</ele>
        <time>2025-08-17T07:34:12.569Z</time>
      </trkpt>
      <trkpt lat="44.24608" lon="0.85971">
        <ele>204</ele>
        <time>2025-08-17T07:34:13.569Z</time>
      </trkpt>
      <trkpt lat="44.24609" lon="0.85972">
        <ele>203</ele>
        <time>2025-08-17T07:34:14.569Z</time>
      </trkpt>
      <trkpt lat="44.2461" lon="0.85973">
        <ele>203</ele>
        <time>2025-08-17T07:34:15.569Z</time>
      </trkpt>
      <trkpt lat="44.24611" lon="0.85973">
        <ele>203</ele>
        <time>2025-08-17T07:34:16.569Z</time>
      </trkpt>
      <trkpt lat="44.24612" lon="0.85974">
        <ele>203</ele>
        <time>2025-08-17T07:34:17.569Z</time>
      </trkpt>
      <trkpt lat="44.24613" lon="0.85974">
        <ele>203</ele>
        <time>2025-08-17T07:34:18.569Z</time>
      </trkpt>
      <trkpt lat="44.24614" lon="0.85975">
        <ele>203</ele>
        <time>2025-08-17T07:34:19.569Z</time>
      </trkpt>
      <trkpt lat="44.24615" lon="0.85975">
        <ele>203</ele>
        <time>2025-08-17T07:34:20.569Z</time>
      </trkpt>
      <trkpt lat="44.24616" lon="0.85976">
        <ele>203</ele>
        <time>2025-08-17T07:34:21.569Z</time>
      </trkpt>
      <trkpt lat="44.24617" lon="0.85977">
        <ele>203</ele>
        <time>2025-08-17T07:34:22.569Z</time>
      </trkpt>
      <trkpt lat="44.24618" lon="0.85977">
        <ele>203</ele>
        <time>2025-08-17T07:34:23.569Z</time>
      </trkpt>
      <trkpt lat="44.24619" lon="0.85978">
        <ele>203</ele>
        <time>2025-08-17T07:34:24.569Z</time>
      </trkpt>
      <trkpt lat="44.2462" lon="0.85979">
        <ele>203</ele>
        <time>2025-08-17T07:34:25.569Z</time>
      </trkpt>
      <trkpt lat="44.2462" lon="0.8598">
        <ele>202</ele>
        <time>2025-08-17T07:34:26.569Z</time>
      </trkpt>
      <trkpt lat="44.24621" lon="0.8598">
        <ele>202</ele>
        <time>2025-08-17T07:34:27.569Z</time>
      </trkpt>
      <trkpt lat="44.24623" lon="0.85981">
        <ele>203</ele>
        <time>2025-08-17T07:34:28.569Z</time>
      </trkpt>
      <trkpt lat="44.24624" lon="0.85981">
        <ele>203</ele>
        <time>2025-08-17T07:34:29.569Z</time>
      </trkpt>
      <trkpt lat="44.24625" lon="0.85982">
        <ele>204</ele>
        <time>2025-08-17T07:34:30.569Z</time>
      </trkpt>
      <trkpt lat="44.24625" lon="0.85983">
        <ele>204</ele>
        <time>2025-08-17T07:34:31.569Z</time>
      </trkpt>
      <trkpt lat="44.24626" lon="0.85983">
        <ele>204</ele>
        <time>2025-08-17T07:34:32.569Z</time>
      </trkpt>
      <trkpt lat="44.24627" lon="0.85984">
        <ele>204</ele>
        <time>2025-08-17T07:34:33.569Z</time>
      </trkpt>
      <trkpt lat="44.24628" lon="0.85984">
        <ele>204</ele>
        <time>2025-08-17T07:34:34.569Z</time>
      </trkpt>
      <trkpt lat="44.24629" lon="0.85985">
        <ele>204</ele>
        <time>2025-08-17T07:34:35.569Z</time>
      </trkpt>
      <trkpt lat="44.2463" lon="0.85985">
        <ele>204</ele>
        <time>2025-08-17T07:34:36.569Z</time>
      </trkpt>
      <trkpt lat="44.24631" lon="0.85986">
        <ele>204</ele>
        <time>2025-08-17T07:34:37.569Z</time>
      </trkpt>
      <trkpt lat="44.24632" lon="0.85987">
        <ele>203</ele>
        <time>2025-08-17T07:34:38.569Z</time>
      </trkpt>
      <trkpt lat="44.24633" lon="0.85987">
        <ele>204</ele>
        <time>2025-08-17T07:34:39.569Z</time>
      </trkpt>
      <trkpt lat="44.24634" lon="0.85987">
        <ele>204</ele>
        <time>2025-08-17T07:34:40.569Z</time>
      </trkpt>
      <trkpt lat="44.24635" lon="0.85988">
        <ele>204</ele>
        <time>2025-08-17T07:34:41.569Z</time>
      </trkpt>
      <trkpt lat="44.24636" lon="0.85989">
        <ele>204</ele>
        <time>2025-08-17T07:34:42.569Z</time>
      </trkpt>
      <trkpt lat="44.24637" lon="0.85989">
        <ele>204</ele>
        <time>2025-08-17T07:34:43.569Z</time>
      </trkpt>
      <trkpt lat="44.24638" lon="0.8599">
        <ele>204</ele>
        <time>2025-08-17T07:34:44.569Z</time>
      </trkpt>
      <trkpt lat="44.24638" lon="0.85991">
        <ele>204</ele>
        <time>2025-08-17T07:34:45.569Z</time>
      </trkpt>
      <trkpt lat="44.24639" lon="0.85992">
        <ele>204</ele>
        <time>2025-08-17T07:34:46.569Z</time>
      </trkpt>
      <trkpt lat="44.2464" lon="0.85993">
        <ele>205</ele>
        <time>2025-08-17T07:34:47.569Z</time>
      </trkpt>
      <trkpt lat="44.24641" lon="0.85994">
        <ele>205</ele>
        <time>2025-08-17T07:34:48.569Z</time>
      </trkpt>
      <trkpt lat="44.24642" lon="0.85994">
        <ele>205</ele>
        <time>2025-08-17T07:34:49.569Z</time>
      </trkpt>
      <trkpt lat="44.24643" lon="0.85995">
        <ele>205</ele>
        <time>2025-08-17T07:34:50.569Z</time>
      </trkpt>
      <trkpt lat="44.24644" lon="0.85996">
        <ele>205</ele>
        <time>2025-08-17T07:34:51.569Z</time>
      </trkpt>
      <trkpt lat="44.24645" lon="0.85996">
        <ele>205</ele>
        <time>2025-08-17T07:34:52.569Z</time>
      </trkpt>
      <trkpt lat="44.24646" lon="0.85997">
        <ele>205</ele>
        <time>2025-08-17T07:34:53.569Z</time>
      </trkpt>
      <trkpt lat="44.24647" lon="0.85997">
        <ele>205</ele>
        <time>2025-08-17T07:34:54.569Z</time>
      </trkpt>
      <trkpt lat="44.24648" lon="0.85998">
        <ele>205</ele>
        <time>2025-08-17T07:34:55.569Z</time>
      </trkpt>
      <trkpt lat="44.24649" lon="0.86">
        <ele>205</ele>
        <time>2025-08-17T07:34:56.569Z</time>
      </trkpt>
      <trkpt lat="44.2465" lon="0.86001">
        <ele>205</ele>
        <time>2025-08-17T07:34:57.569Z</time>
      </trkpt>
      <trkpt lat="44.2465" lon="0.86002">
        <ele>205</ele>
        <time>2025-08-17T07:34:58.569Z</time>
      </trkpt>
      <trkpt lat="44.24651" lon="0.86003">
        <ele>205</ele>
        <time>2025-08-17T07:34:59.569Z</time>
      </trkpt>
      <trkpt lat="44.24652" lon="0.86004">
        <ele>205</ele>
        <time>2025-08-17T07:35:00.569Z</time>
      </trkpt>
      <trkpt lat="44.24652" lon="0.86005">
        <ele>205</ele>
        <time>2025-08-17T07:35:01.569Z</time>
      </trkpt>
      <trkpt lat="44.24653" lon="0.86005">
        <ele>205</ele>
        <time>2025-08-17T07:35:02.569Z</time>
      </trkpt>
      <trkpt lat="44.24653" lon="0.86006">
        <ele>205</ele>
        <time>2025-08-17T07:35:03.569Z</time>
      </trkpt>
      <trkpt lat="44.24654" lon="0.86007">
        <ele>205</ele>
        <time>2025-08-17T07:35:04.569Z</time>
      </trkpt>
      <trkpt lat="44.24654" lon="0.86009">
        <ele>205</ele>
        <time>2025-08-17T07:35:05.569Z</time>
      </trkpt>
      <trkpt lat="44.24655" lon="0.86009">
        <ele>205</ele>
        <time>2025-08-17T07:35:06.569Z</time>
      </trkpt>
      <trkpt lat="44.24656" lon="0.8601">
        <ele>205</ele>
        <time>2025-08-17T07:35:07.569Z</time>
      </trkpt>
      <trkpt lat="44.24657" lon="0.86011">
        <ele>205</ele>
        <time>2025-08-17T07:35:08.569Z</time>
      </trkpt>
      <trkpt lat="44.24657" lon="0.86012">
        <ele>204</ele>
        <time>2025-08-17T07:35:09.569Z</time>
      </trkpt>
      <trkpt lat="44.24658" lon="0.86013">
        <ele>204</ele>
        <time>2025-08-17T07:35:10.569Z</time>
      </trkpt>
      <trkpt lat="44.24659" lon="0.86014">
        <ele>204</ele>
        <time>2025-08-17T07:35:11.569Z</time>
      </trkpt>
      <trkpt lat="44.24659" lon="0.86015">
        <ele>204</ele>
        <time>2025-08-17T07:35:12.569Z</time>
      </trkpt>
      <trkpt lat="44.2466" lon="0.86016">
        <ele>204</ele>
        <time>2025-08-17T07:35:13.569Z</time>
      </trkpt>
      <trkpt lat="44.24661" lon="0.86017">
        <ele>204</ele>
        <time>2025-08-17T07:35:14.569Z</time>
      </trkpt>
      <trkpt lat="44.24661" lon="0.86017">
        <ele>204</ele>
        <time>2025-08-17T07:35:15.569Z</time>
      </trkpt>
      <trkpt lat="44.24662" lon="0.86019">
        <ele>204</ele>
        <time>2025-08-17T07:35:16.569Z</time>
      </trkpt>
      <trkpt lat="44.24662" lon="0.86019">
        <ele>204</ele>
        <time>2025-08-17T07:35:17.569Z</time>
      </trkpt>
      <trkpt lat="44.24663" lon="0.8602">
        <ele>204</ele>
        <time>2025-08-17T07:35:18.569Z</time>
      </trkpt>
      <trkpt lat="44.24663" lon="0.86021">
        <ele>205</ele>
        <time>2025-08-17T07:35:19.569Z</time>
      </trkpt>
      <trkpt lat="44.24664" lon="0.86022">
        <ele>205</ele>
        <time>2025-08-17T07:35:20.569Z</time>
      </trkpt>
      <trkpt lat="44.24664" lon="0.86022">
        <ele>205</ele>
        <time>2025-08-17T07:35:21.569Z</time>
      </trkpt>
      <trkpt lat="44.24665" lon="0.86024">
        <ele>205</ele>
        <time>2025-08-17T07:35:22.569Z</time>
      </trkpt>
      <trkpt lat="44.24666" lon="0.86025">
        <ele>205</ele>
        <time>2025-08-17T07:35:23.569Z</time>
      </trkpt>
      <trkpt lat="44.24666" lon="0.86026">
        <ele>205</ele>
        <time>2025-08-17T07:35:24.569Z</time>
      </trkpt>
      <trkpt lat="44.24667" lon="0.86027">
        <ele>205</ele>
        <time>2025-08-17T07:35:25.569Z</time>
      </trkpt>
      <trkpt lat="44.24667" lon="0.86028">
        <ele>205</ele>
        <time>2025-08-17T07:35:26.569Z</time>
      </trkpt>
      <trkpt lat="44.24668" lon="0.86029">
        <ele>205</ele>
        <time>2025-08-17T07:35:27.569Z</time>
      </trkpt>
      <trkpt lat="44.24668" lon="0.8603">
        <ele>205</ele>
        <time>2025-08-17T07:35:28.569Z</time>
      </trkpt>
      <trkpt lat="44.24668" lon="0.86031">
        <ele>205</ele>
        <time>2025-08-17T07:35:29.569Z</time>
      </trkpt>
      <trkpt lat="44.24668" lon="0.86032">
        <ele>206</ele>
        <time>2025-08-17T07:35:30.569Z</time>
      </trkpt>
      <trkpt lat="44.24669" lon="0.86033">
        <ele>206</ele>
        <time>2025-08-17T07:35:31.569Z</time>
      </trkpt>
      <trkpt lat="44.2467" lon="0.86034">
        <ele>206</ele>
        <time>2025-08-17T07:35:32.569Z</time>
      </trkpt>
      <trkpt lat="44.24671" lon="0.86035">
        <ele>206</ele>
        <time>2025-08-17T07:35:33.569Z</time>
      </trkpt>
      <trkpt lat="44.24671" lon="0.86036">
        <ele>206</ele>
        <time>2025-08-17T07:35:34.569Z</time>
      </trkpt>
      <trkpt lat="44.24671" lon="0.86037">
        <ele>206</ele>
        <time>2025-08-17T07:35:35.569Z</time>
      </trkpt>
      <trkpt lat="44.24672" lon="0.86038">
        <ele>206</ele>
        <time>2025-08-17T07:35:36.569Z</time>
      </trkpt>
      <trkpt lat="44.24673" lon="0.86039">
        <ele>206</ele>
        <time>2025-08-17T07:35:37.569Z</time>
      </trkpt>
      <trkpt lat="44.24674" lon="0.8604">
        <ele>206</ele>
        <time>2025-08-17T07:35:38.569Z</time>
      </trkpt>
      <trkpt lat="44.24675" lon="0.86041">
        <ele>206</ele>
        <time>2025-08-17T07:35:39.569Z</time>
      </trkpt>
      <trkpt lat="44.24675" lon="0.86042">
        <ele>206</ele>
        <time>2025-08-17T07:35:40.569Z</time>
      </trkpt>
      <trkpt lat="44.24676" lon="0.86043">
        <ele>206</ele>
        <time>2025-08-17T07:35:41.569Z</time>
      </trkpt>
      <trkpt lat="44.24676" lon="0.86043">
        <ele>206</ele>
        <time>2025-08-17T07:35:42.569Z</time>
      </trkpt>
      <trkpt lat="44.24677" lon="0.86044">
        <ele>206</ele>
        <time>2025-08-17T07:35:43.569Z</time>
      </trkpt>
      <trkpt lat="44.24678" lon="0.86045">
        <ele>206</ele>
        <time>2025-08-17T07:35:44.569Z</time>
      </trkpt>
      <trkpt lat="44.24679" lon="0.86046">
        <ele>206</ele>
        <time>2025-08-17T07:35:45.569Z</time>
      </trkpt>
      <trkpt lat="44.2468" lon="0.86047">
        <ele>207</ele>
        <time>2025-08-17T07:35:46.569Z</time>
      </trkpt>
      <trkpt lat="44.24681" lon="0.86048">
        <ele>207</ele>
        <time>2025-08-17T07:35:47.569Z</time>
      </trkpt>
      <trkpt lat="44.24681" lon="0.86049">
        <ele>207</ele>
        <time>2025-08-17T07:35:48.569Z</time>
      </trkpt>
      <trkpt lat="44.24682" lon="0.8605">
        <ele>207</ele>
        <time>2025-08-17T07:35:49.569Z</time>
      </trkpt>
      <trkpt lat="44.24683" lon="0.86051">
        <ele>206</ele>
        <time>2025-08-17T07:35:50.569Z</time>
      </trkpt>
      <trkpt lat="44.24683" lon="0.86051">
        <ele>207</ele>
        <time>2025-08-17T07:35:51.569Z</time>
      </trkpt>
      <trkpt lat="44.24683" lon="0.86053">
        <ele>207</ele>
        <time>2025-08-17T07:35:52.569Z</time>
      </trkpt>
      <trkpt lat="44.24684" lon="0.86054">
        <ele>207</ele>
        <time>2025-08-17T07:35:53.569Z</time>
      </trkpt>
      <trkpt lat="44.24684" lon="0.86055">
        <ele>207</ele>
        <time>2025-08-17T07:35:54.569Z</time>
      </trkpt>
      <trkpt lat="44.24685" lon="0.86056">
        <ele>207</ele>
        <time>2025-08-17T07:35:55.569Z</time>
      </trkpt>
      <trkpt lat="44.24686" lon="0.86057">
        <ele>207</ele>
        <time>2025-08-17T07:35:56.569Z</time>
      </trkpt>
      <trkpt lat="44.24686" lon="0.86058">
        <ele>206</ele>
        <time>2025-08-17T07:35:57.569Z</time>
      </trkpt>
      <trkpt lat="44.24687" lon="0.86059">
        <ele>206</ele>
        <time>2025-08-17T07:35:58.569Z</time>
      </trkpt>
      <trkpt lat="44.24688" lon="0.86059">
        <ele>206</ele>
        <time>2025-08-17T07:35:59.569Z</time>
      </trkpt>
      <trkpt lat="44.24688" lon="0.8606">
        <ele>206</ele>
        <time>2025-08-17T07:36:00.569Z</time>
      </trkpt>
      <trkpt lat="44.24689" lon="0.86061">
        <ele>206</ele>
        <time>2025-08-17T07:36:01.569Z</time>
      </trkpt>
      <trkpt lat="44.24689" lon="0.86063">
        <ele>206</ele>
        <time>2025-08-17T07:36:02.569Z</time>
      </trkpt>
      <trkpt lat="44.2469" lon="0.86063">
        <ele>207</ele>
        <time>2025-08-17T07:36:03.569Z</time>
      </trkpt>
      <trkpt lat="44.2469" lon="0.86064">
        <ele>207</ele>
        <time>2025-08-17T07:36:04.569Z</time>
      </trkpt>
      <trkpt lat="44.24691" lon="0.86065">
        <ele>206</ele>
        <time>2025-08-17T07:36:05.569Z</time>
      </trkpt>
      <trkpt lat="44.24692" lon="0.86066">
        <ele>206</ele>
        <time>2025-08-17T07:36:06.569Z</time>
      </trkpt>
      <trkpt lat="44.24692" lon="0.86067">
        <ele>206</ele>
        <time>2025-08-17T07:36:07.569Z</time>
      </trkpt>
      <trkpt lat="44.24693" lon="0.86068">
        <ele>206</ele>
        <time>2025-08-17T07:36:08.569Z</time>
      </trkpt>
      <trkpt lat="44.24693" lon="0.86069">
        <ele>206</ele>
        <time>2025-08-17T07:36:09.569Z</time>
      </trkpt>
      <trkpt lat="44.24694" lon="0.8607">
        <ele>206</ele>
        <time>2025-08-17T07:36:10.569Z</time>
      </trkpt>
      <trkpt lat="44.24695" lon="0.86071">
        <ele>206</ele>
        <time>2025-08-17T07:36:11.569Z</time>
      </trkpt>
      <trkpt lat="44.24696" lon="0.86072">
        <ele>206</ele>
        <time>2025-08-17T07:36:12.569Z</time>
      </trkpt>
      <trkpt lat="44.24697" lon="0.86073">
        <ele>206</ele>
        <time>2025-08-17T07:36:13.569Z</time>
      </trkpt>
      <trkpt lat="44.24697" lon="0.86073">
        <ele>206</ele>
        <time>2025-08-17T07:36:14.569Z</time>
      </trkpt>
      <trkpt lat="44.24698" lon="0.86075">
        <ele>206</ele>
        <time>2025-08-17T07:36:15.569Z</time>
      </trkpt>
      <trkpt lat="44.24698" lon="0.86076">
        <ele>206</ele>
        <time>2025-08-17T07:36:16.569Z</time>
      </trkpt>
      <trkpt lat="44.24699" lon="0.86077">
        <ele>206</ele>
        <time>2025-08-17T07:36:17.569Z</time>
      </trkpt>
      <trkpt lat="44.24699" lon="0.86078">
        <ele>206</ele>
        <time>2025-08-17T07:36:18.569Z</time>
      </trkpt>
      <trkpt lat="44.247" lon="0.86079">
        <ele>206</ele>
        <time>2025-08-17T07:36:19.569Z</time>
      </trkpt>
      <trkpt lat="44.247" lon="0.8608">
        <ele>206</ele>
        <time>2025-08-17T07:36:20.569Z</time>
      </trkpt>
      <trkpt lat="44.24701" lon="0.86081">
        <ele>205</ele>
        <time>2025-08-17T07:36:21.569Z</time>
      </trkpt>
      <trkpt lat="44.24702" lon="0.86082">
        <ele>205</ele>
        <time>2025-08-17T07:36:22.569Z</time>
      </trkpt>
      <trkpt lat="44.24703" lon="0.86083">
        <ele>205</ele>
        <time>2025-08-17T07:36:23.569Z</time>
      </trkpt>
      <trkpt lat="44.24703" lon="0.86084">
        <ele>205</ele>
        <time>2025-08-17T07:36:24.569Z</time>
      </trkpt>
      <trkpt lat="44.24704" lon="0.86085">
        <ele>205</ele>
        <time>2025-08-17T07:36:25.569Z</time>
      </trkpt>
      <trkpt lat="44.24705" lon="0.86086">
        <ele>205</ele>
        <time>2025-08-17T07:36:26.569Z</time>
      </trkpt>
      <trkpt lat="44.24705" lon="0.86087">
        <ele>204</ele>
        <time>2025-08-17T07:36:27.569Z</time>
      </trkpt>
      <trkpt lat="44.24705" lon="0.86088">
        <ele>204</ele>
        <time>2025-08-17T07:36:28.569Z</time>
      </trkpt>
      <trkpt lat="44.24706" lon="0.86089">
        <ele>204</ele>
        <time>2025-08-17T07:36:29.569Z</time>
      </trkpt>
      <trkpt lat="44.24707" lon="0.8609">
        <ele>204</ele>
        <time>2025-08-17T07:36:30.569Z</time>
      </trkpt>
      <trkpt lat="44.24708" lon="0.86091">
        <ele>205</ele>
        <time>2025-08-17T07:36:31.569Z</time>
      </trkpt>
      <trkpt lat="44.24708" lon="0.86092">
        <ele>205</ele>
        <time>2025-08-17T07:36:32.569Z</time>
      </trkpt>
      <trkpt lat="44.24709" lon="0.86093">
        <ele>205</ele>
        <time>2025-08-17T07:36:33.569Z</time>
      </trkpt>
      <trkpt lat="44.2471" lon="0.86094">
        <ele>205</ele>
        <time>2025-08-17T07:36:34.569Z</time>
      </trkpt>
      <trkpt lat="44.2471" lon="0.86095">
        <ele>206</ele>
        <time>2025-08-17T07:36:35.569Z</time>
      </trkpt>
      <trkpt lat="44.24711" lon="0.86096">
        <ele>206</ele>
        <time>2025-08-17T07:36:36.569Z</time>
      </trkpt>
      <trkpt lat="44.24712" lon="0.86097">
        <ele>206</ele>
        <time>2025-08-17T07:36:37.569Z</time>
      </trkpt>
      <trkpt lat="44.24712" lon="0.86098">
        <ele>206</ele>
        <time>2025-08-17T07:36:38.569Z</time>
      </trkpt>
      <trkpt lat="44.24713" lon="0.86099">
        <ele>206</ele>
        <time>2025-08-17T07:36:39.569Z</time>
      </trkpt>
      <trkpt lat="44.24713" lon="0.861">
        <ele>206</ele>
        <time>2025-08-17T07:36:40.569Z</time>
      </trkpt>
      <trkpt lat="44.24714" lon="0.86101">
        <ele>206</ele>
        <time>2025-08-17T07:36:41.569Z</time>
      </trkpt>
      <trkpt lat="44.24715" lon="0.86102">
        <ele>206</ele>
        <time>2025-08-17T07:36:42.569Z</time>
      </trkpt>
      <trkpt lat="44.24715" lon="0.86104">
        <ele>206</ele>
        <time>2025-08-17T07:36:43.569Z</time>
      </trkpt>
      <trkpt lat="44.24716" lon="0.86105">
        <ele>207</ele>
        <time>2025-08-17T07:36:44.569Z</time>
      </trkpt>
      <trkpt lat="44.24716" lon="0.86106">
        <ele>207</ele>
        <time>2025-08-17T07:36:45.569Z</time>
      </trkpt>
      <trkpt lat="44.24717" lon="0.86107">
        <ele>207</ele>
        <time>2025-08-17T07:36:46.569Z</time>
      </trkpt>
      <trkpt lat="44.24718" lon="0.86108">
        <ele>207</ele>
        <time>2025-08-17T07:36:47.569Z</time>
      </trkpt>
      <trkpt lat="44.24719" lon="0.86109">
        <ele>208</ele>
        <time>2025-08-17T07:36:48.569Z</time>
      </trkpt>
      <trkpt lat="44.2472" lon="0.8611">
        <ele>208</ele>
        <time>2025-08-17T07:36:49.569Z</time>
      </trkpt>
      <trkpt lat="44.24721" lon="0.86111">
        <ele>209</ele>
        <time>2025-08-17T07:36:50.569Z</time>
      </trkpt>
      <trkpt lat="44.24722" lon="0.86112">
        <ele>209</ele>
        <time>2025-08-17T07:36:51.569Z</time>
      </trkpt>
      <trkpt lat="44.24722" lon="0.86114">
        <ele>210</ele>
        <time>2025-08-17T07:36:52.569Z</time>
      </trkpt>
      <trkpt lat="44.24723" lon="0.86115">
        <ele>210</ele>
        <time>2025-08-17T07:36:53.569Z</time>
      </trkpt>
      <trkpt lat="44.24724" lon="0.86116">
        <ele>210</ele>
        <time>2025-08-17T07:36:54.569Z</time>
      </trkpt>
      <trkpt lat="44.24725" lon="0.86117">
        <ele>210</ele>
        <time>2025-08-17T07:36:55.569Z</time>
      </trkpt>
      <trkpt lat="44.24726" lon="0.86118">
        <ele>210</ele>
        <time>2025-08-17T07:36:56.569Z</time>
      </trkpt>
      <trkpt lat="44.24727" lon="0.86119">
        <ele>210</ele>
        <time>2025-08-17T07:36:57.569Z</time>
      </trkpt>
      <trkpt lat="44.24728" lon="0.8612">
        <ele>210</ele>
        <time>2025-08-17T07:36:58.569Z</time>
      </trkpt>
      <trkpt lat="44.24728" lon="0.86122">
        <ele>210</ele>
        <time>2025-08-17T07:36:59.569Z</time>
      </trkpt>
      <trkpt lat="44.24729" lon="0.86123">
        <ele>210</ele>
        <time>2025-08-17T07:37:00.569Z</time>
      </trkpt>
      <trkpt lat="44.2473" lon="0.86124">
        <ele>211</ele>
        <time>2025-08-17T07:37:01.569Z</time>
      </trkpt>
      <trkpt lat="44.24731" lon="0.86125">
        <ele>210</ele>
        <time>2025-08-17T07:37:02.569Z</time>
      </trkpt>
      <trkpt lat="44.24731" lon="0.86126">
        <ele>210</ele>
        <time>2025-08-17T07:37:03.569Z</time>
      </trkpt>
      <trkpt lat="44.24732" lon="0.86128">
        <ele>210</ele>
        <time>2025-08-17T07:37:04.569Z</time>
      </trkpt>
      <trkpt lat="44.24733" lon="0.86129">
        <ele>210</ele>
        <time>2025-08-17T07:37:05.569Z</time>
      </trkpt>
      <trkpt lat="44.24734" lon="0.8613">
        <ele>210</ele>
        <time>2025-08-17T07:37:06.569Z</time>
      </trkpt>
      <trkpt lat="44.24734" lon="0.86131">
        <ele>209</ele>
        <time>2025-08-17T07:37:07.569Z</time>
      </trkpt>
      <trkpt lat="44.24735" lon="0.86133">
        <ele>209</ele>
        <time>2025-08-17T07:37:08.569Z</time>
      </trkpt>
      <trkpt lat="44.24736" lon="0.86134">
        <ele>209</ele>
        <time>2025-08-17T07:37:09.569Z</time>
      </trkpt>
      <trkpt lat="44.24736" lon="0.86136">
        <ele>209</ele>
        <time>2025-08-17T07:37:10.569Z</time>
      </trkpt>
      <trkpt lat="44.24737" lon="0.86137">
        <ele>208</ele>
        <time>2025-08-17T07:37:11.569Z</time>
      </trkpt>
      <trkpt lat="44.24738" lon="0.86138">
        <ele>208</ele>
        <time>2025-08-17T07:37:12.569Z</time>
      </trkpt>
      <trkpt lat="44.24738" lon="0.8614">
        <ele>208</ele>
        <time>2025-08-17T07:37:13.569Z</time>
      </trkpt>
      <trkpt lat="44.24739" lon="0.86141">
        <ele>208</ele>
        <time>2025-08-17T07:37:14.569Z</time>
      </trkpt>
      <trkpt lat="44.2474" lon="0.86142">
        <ele>207</ele>
        <time>2025-08-17T07:37:15.569Z</time>
      </trkpt>
      <trkpt lat="44.2474" lon="0.86143">
        <ele>207</ele>
        <time>2025-08-17T07:37:16.569Z</time>
      </trkpt>
      <trkpt lat="44.24741" lon="0.86144">
        <ele>206</ele>
        <time>2025-08-17T07:37:17.569Z</time>
      </trkpt>
      <trkpt lat="44.24741" lon="0.86145">
        <ele>206</ele>
        <time>2025-08-17T07:37:18.569Z</time>
      </trkpt>
      <trkpt lat="44.24742" lon="0.86146">
        <ele>206</ele>
        <time>2025-08-17T07:37:19.569Z</time>
      </trkpt>
      <trkpt lat="44.24743" lon="0.86147">
        <ele>206</ele>
        <time>2025-08-17T07:37:20.569Z</time>
      </trkpt>
      <trkpt lat="44.24744" lon="0.86148">
        <ele>206</ele>
        <time>2025-08-17T07:37:21.569Z</time>
      </trkpt>
      <trkpt lat="44.24744" lon="0.86149">
        <ele>206</ele>
        <time>2025-08-17T07:37:22.569Z</time>
      </trkpt>
      <trkpt lat="44.24745" lon="0.8615">
        <ele>206</ele>
        <time>2025-08-17T07:37:23.569Z</time>
      </trkpt>
      <trkpt lat="44.24746" lon="0.86151">
        <ele>206</ele>
        <time>2025-08-17T07:37:24.569Z</time>
      </trkpt>
      <trkpt lat="44.24746" lon="0.86152">
        <ele>206</ele>
        <time>2025-08-17T07:37:25.569Z</time>
      </trkpt>
      <trkpt lat="44.24746" lon="0.86153">
        <ele>206</ele>
        <time>2025-08-17T07:37:26.569Z</time>
      </trkpt>
      <trkpt lat="44.24747" lon="0.86154">
        <ele>206</ele>
        <time>2025-08-17T07:37:27.569Z</time>
      </trkpt>
      <trkpt lat="44.24747" lon="0.86155">
        <ele>206</ele>
        <time>2025-08-17T07:37:28.569Z</time>
      </trkpt>
      <trkpt lat="44.24748" lon="0.86155">
        <ele>206</ele>
        <time>2025-08-17T07:37:29.569Z</time>
      </trkpt>
      <trkpt lat="44.24749" lon="0.86156">
        <ele>207</ele>
        <time>2025-08-17T07:37:30.569Z</time>
      </trkpt>
      <trkpt lat="44.24749" lon="0.86157">
        <ele>207</ele>
        <time>2025-08-17T07:37:31.569Z</time>
      </trkpt>
      <trkpt lat="44.2475" lon="0.86158">
        <ele>207</ele>
        <time>2025-08-17T07:37:32.569Z</time>
      </trkpt>
      <trkpt lat="44.24751" lon="0.86159">
        <ele>207</ele>
        <time>2025-08-17T07:37:33.569Z</time>
      </trkpt>
      <trkpt lat="44.24751" lon="0.8616">
        <ele>207</ele>
        <time>2025-08-17T07:37:34.569Z</time>
      </trkpt>
      <trkpt lat="44.24752" lon="0.86161">
        <ele>207</ele>
        <time>2025-08-17T07:37:35.569Z</time>
      </trkpt>
      <trkpt lat="44.24753" lon="0.86162">
        <ele>207</ele>
        <time>2025-08-17T07:37:36.569Z</time>
      </trkpt>
      <trkpt lat="44.24753" lon="0.86163">
        <ele>207</ele>
        <time>2025-08-17T07:37:37.569Z</time>
      </trkpt>
      <trkpt lat="44.24754" lon="0.86164">
        <ele>208</ele>
        <time>2025-08-17T07:37:38.569Z</time>
      </trkpt>
      <trkpt lat="44.24754" lon="0.86165">
        <ele>208</ele>
        <time>2025-08-17T07:37:39.569Z</time>
      </trkpt>
      <trkpt lat="44.24755" lon="0.86167">
        <ele>207</ele>
        <time>2025-08-17T07:37:40.569Z</time>
      </trkpt>
      <trkpt lat="44.24755" lon="0.86168">
        <ele>207</ele>
        <time>2025-08-17T07:37:41.569Z</time>
      </trkpt>
      <trkpt lat="44.24756" lon="0.8617">
        <ele>207</ele>
        <time>2025-08-17T07:37:42.569Z</time>
      </trkpt>
      <trkpt lat="44.24757" lon="0.86172">
        <ele>207</ele>
        <time>2025-08-17T07:37:43.569Z</time>
      </trkpt>
      <trkpt lat="44.24757" lon="0.86173">
        <ele>207</ele>
        <time>2025-08-17T07:37:44.569Z</time>
      </trkpt>
      <trkpt lat="44.24758" lon="0.86173">
        <ele>208</ele>
        <time>2025-08-17T07:37:45.569Z</time>
      </trkpt>
      <trkpt lat="44.24759" lon="0.86175">
        <ele>208</ele>
        <time>2025-08-17T07:37:46.569Z</time>
      </trkpt>
      <trkpt lat="44.2476" lon="0.86176">
        <ele>208</ele>
        <time>2025-08-17T07:37:47.569Z</time>
      </trkpt>
      <trkpt lat="44.2476" lon="0.86176">
        <ele>208</ele>
        <time>2025-08-17T07:37:48.569Z</time>
      </trkpt>
      <trkpt lat="44.24761" lon="0.86177">
        <ele>208</ele>
        <time>2025-08-17T07:37:49.569Z</time>
      </trkpt>
      <trkpt lat="44.24762" lon="0.86178">
        <ele>209</ele>
        <time>2025-08-17T07:37:50.569Z</time>
      </trkpt>
      <trkpt lat="44.24762" lon="0.86179">
        <ele>209</ele>
        <time>2025-08-17T07:37:51.569Z</time>
      </trkpt>
      <trkpt lat="44.24763" lon="0.8618">
        <ele>209</ele>
        <time>2025-08-17T07:37:52.569Z</time>
      </trkpt>
      <trkpt lat="44.24764" lon="0.86181">
        <ele>209</ele>
        <time>2025-08-17T07:37:53.569Z</time>
      </trkpt>
      <trkpt lat="44.24765" lon="0.86182">
        <ele>209</ele>
        <time>2025-08-17T07:37:54.569Z</time>
      </trkpt>
      <trkpt lat="44.24765" lon="0.86183">
        <ele>209</ele>
        <time>2025-08-17T07:37:55.569Z</time>
      </trkpt>
      <trkpt lat="44.24766" lon="0.86184">
        <ele>209</ele>
        <time>2025-08-17T07:37:56.569Z</time>
      </trkpt>
      <trkpt lat="44.24767" lon="0.86185">
        <ele>209</ele>
        <time>2025-08-17T07:37:57.569Z</time>
      </trkpt>
      <trkpt lat="44.24768" lon="0.86185">
        <ele>210</ele>
        <time>2025-08-17T07:37:58.569Z</time>
      </trkpt>
      <trkpt lat="44.24768" lon="0.86186">
        <ele>210</ele>
        <time>2025-08-17T07:37:59.569Z</time>
      </trkpt>
      <trkpt lat="44.24769" lon="0.86187">
        <ele>211</ele>
        <time>2025-08-17T07:38:00.569Z</time>
      </trkpt>
      <trkpt lat="44.2477" lon="0.86188">
        <ele>211</ele>
        <time>2025-08-17T07:38:01.569Z</time>
      </trkpt>
      <trkpt lat="44.24771" lon="0.86188">
        <ele>211</ele>
        <time>2025-08-17T07:38:02.569Z</time>
      </trkpt>
      <trkpt lat="44.24771" lon="0.86189">
        <ele>211</ele>
        <time>2025-08-17T07:38:03.569Z</time>
      </trkpt>
      <trkpt lat="44.24772" lon="0.8619">
        <ele>211</ele>
        <time>2025-08-17T07:38:04.569Z</time>
      </trkpt>
      <trkpt lat="44.24773" lon="0.86191">
        <ele>211</ele>
        <time>2025-08-17T07:38:05.569Z</time>
      </trkpt>
      <trkpt lat="44.24774" lon="0.86192">
        <ele>211</ele>
        <time>2025-08-17T07:38:06.569Z</time>
      </trkpt>
      <trkpt lat="44.24774" lon="0.86193">
        <ele>211</ele>
        <time>2025-08-17T07:38:07.569Z</time>
      </trkpt>
      <trkpt lat="44.24775" lon="0.86194">
        <ele>211</ele>
        <time>2025-08-17T07:38:08.569Z</time>
      </trkpt>
      <trkpt lat="44.24776" lon="0.86195">
        <ele>210</ele>
        <time>2025-08-17T07:38:09.569Z</time>
      </trkpt>
      <trkpt lat="44.24777" lon="0.86196">
        <ele>211</ele>
        <time>2025-08-17T07:38:10.569Z</time>
      </trkpt>
      <trkpt lat="44.24778" lon="0.86198">
        <ele>210</ele>
        <time>2025-08-17T07:38:11.569Z</time>
      </trkpt>
      <trkpt lat="44.24778" lon="0.86199">
        <ele>210</ele>
        <time>2025-08-17T07:38:12.569Z</time>
      </trkpt>
      <trkpt lat="44.24779" lon="0.86199">
        <ele>210</ele>
        <time>2025-08-17T07:38:13.569Z</time>
      </trkpt>
      <trkpt lat="44.2478" lon="0.86201">
        <ele>210</ele>
        <time>2025-08-17T07:38:14.569Z</time>
      </trkpt>
      <trkpt lat="44.2478" lon="0.86201">
        <ele>210</ele>
        <time>2025-08-17T07:38:15.569Z</time>
      </trkpt>
      <trkpt lat="44.24781" lon="0.86202">
        <ele>210</ele>
        <time>2025-08-17T07:38:16.569Z</time>
      </trkpt>
      <trkpt lat="44.24782" lon="0.86203">
        <ele>210</ele>
        <time>2025-08-17T07:38:17.569Z</time>
      </trkpt>
      <trkpt lat="44.24783" lon="0.86204">
        <ele>210</ele>
        <time>2025-08-17T07:38:18.569Z</time>
      </trkpt>
      <trkpt lat="44.24784" lon="0.86205">
        <ele>210</ele>
        <time>2025-08-17T07:38:19.569Z</time>
      </trkpt>
      <trkpt lat="44.24785" lon="0.86206">
        <ele>210</ele>
        <time>2025-08-17T07:38:20.569Z</time>
      </trkpt>
      <trkpt lat="44.24786" lon="0.86207">
        <ele>210</ele>
        <time>2025-08-17T07:38:21.569Z</time>
      </trkpt>
      <trkpt lat="44.24786" lon="0.86209">
        <ele>210</ele>
        <time>2025-08-17T07:38:22.569Z</time>
      </trkpt>
      <trkpt lat="44.24787" lon="0.8621">
        <ele>210</ele>
        <time>2025-08-17T07:38:23.569Z</time>
      </trkpt>
      <trkpt lat="44.24788" lon="0.86211">
        <ele>210</ele>
        <time>2025-08-17T07:38:24.569Z</time>
      </trkpt>
      <trkpt lat="44.24788" lon="0.86212">
        <ele>210</ele>
        <time>2025-08-17T07:38:25.569Z</time>
      </trkpt>
      <trkpt lat="44.24789" lon="0.86213">
        <ele>210</ele>
        <time>2025-08-17T07:38:26.569Z</time>
      </trkpt>
      <trkpt lat="44.2479" lon="0.86214">
        <ele>211</ele>
        <time>2025-08-17T07:38:27.569Z</time>
      </trkpt>
      <trkpt lat="44.24791" lon="0.86215">
        <ele>211</ele>
        <time>2025-08-17T07:38:28.569Z</time>
      </trkpt>
      <trkpt lat="44.24791" lon="0.86217">
        <ele>211</ele>
        <time>2025-08-17T07:38:29.569Z</time>
      </trkpt>
      <trkpt lat="44.24792" lon="0.86218">
        <ele>211</ele>
        <time>2025-08-17T07:38:30.569Z</time>
      </trkpt>
      <trkpt lat="44.24793" lon="0.86219">
        <ele>211</ele>
        <time>2025-08-17T07:38:31.569Z</time>
      </trkpt>
      <trkpt lat="44.24794" lon="0.8622">
        <ele>212</ele>
        <time>2025-08-17T07:38:32.569Z</time>
      </trkpt>
      <trkpt lat="44.24795" lon="0.86221">
        <ele>212</ele>
        <time>2025-08-17T07:38:33.569Z</time>
      </trkpt>
      <trkpt lat="44.24795" lon="0.86222">
        <ele>212</ele>
        <time>2025-08-17T07:38:34.569Z</time>
      </trkpt>
      <trkpt lat="44.24796" lon="0.86223">
        <ele>212</ele>
        <time>2025-08-17T07:38:35.569Z</time>
      </trkpt>
      <trkpt lat="44.24797" lon="0.86224">
        <ele>211</ele>
        <time>2025-08-17T07:38:36.569Z</time>
      </trkpt>
      <trkpt lat="44.24798" lon="0.86225">
        <ele>211</ele>
        <time>2025-08-17T07:38:37.569Z</time>
      </trkpt>
      <trkpt lat="44.24799" lon="0.86226">
        <ele>211</ele>
        <time>2025-08-17T07:38:38.569Z</time>
      </trkpt>
      <trkpt lat="44.24799" lon="0.86227">
        <ele>211</ele>
        <time>2025-08-17T07:38:39.569Z</time>
      </trkpt>
      <trkpt lat="44.24799" lon="0.86228">
        <ele>211</ele>
        <time>2025-08-17T07:38:40.569Z</time>
      </trkpt>
      <trkpt lat="44.248" lon="0.86229">
        <ele>211</ele>
        <time>2025-08-17T07:38:41.569Z</time>
      </trkpt>
      <trkpt lat="44.24801" lon="0.8623">
        <ele>211</ele>
        <time>2025-08-17T07:38:42.569Z</time>
      </trkpt>
      <trkpt lat="44.24802" lon="0.86231">
        <ele>211</ele>
        <time>2025-08-17T07:38:43.569Z</time>
      </trkpt>
      <trkpt lat="44.24803" lon="0.86232">
        <ele>212</ele>
        <time>2025-08-17T07:38:44.569Z</time>
      </trkpt>
      <trkpt lat="44.24804" lon="0.86234">
        <ele>212</ele>
        <time>2025-08-17T07:38:45.569Z</time>
      </trkpt>
      <trkpt lat="44.24805" lon="0.86235">
        <ele>212</ele>
        <time>2025-08-17T07:38:46.569Z</time>
      </trkpt>
      <trkpt lat="44.24806" lon="0.86236">
        <ele>211</ele>
        <time>2025-08-17T07:38:47.569Z</time>
      </trkpt>
      <trkpt lat="44.24807" lon="0.86237">
        <ele>211</ele>
        <time>2025-08-17T07:38:48.569Z</time>
      </trkpt>
      <trkpt lat="44.24807" lon="0.86238">
        <ele>211</ele>
        <time>2025-08-17T07:38:49.569Z</time>
      </trkpt>
      <trkpt lat="44.24808" lon="0.86239">
        <ele>211</ele>
        <time>2025-08-17T07:38:50.569Z</time>
      </trkpt>
      <trkpt lat="44.24809" lon="0.8624">
        <ele>211</ele>
        <time>2025-08-17T07:38:51.569Z</time>
      </trkpt>
      <trkpt lat="44.2481" lon="0.86241">
        <ele>211</ele>
        <time>2025-08-17T07:38:52.569Z</time>
      </trkpt>
      <trkpt lat="44.24811" lon="0.86242">
        <ele>211</ele>
        <time>2025-08-17T07:38:53.569Z</time>
      </trkpt>
      <trkpt lat="44.24812" lon="0.86243">
        <ele>211</ele>
        <time>2025-08-17T07:38:54.569Z</time>
      </trkpt>
      <trkpt lat="44.24813" lon="0.86244">
        <ele>211</ele>
        <time>2025-08-17T07:38:55.569Z</time>
      </trkpt>
      <trkpt lat="44.24814" lon="0.86245">
        <ele>212</ele>
        <time>2025-08-17T07:38:56.569Z</time>
      </trkpt>
      <trkpt lat="44.24815" lon="0.86245">
        <ele>212</ele>
        <time>2025-08-17T07:38:57.569Z</time>
      </trkpt>
      <trkpt lat="44.24816" lon="0.86246">
        <ele>212</ele>
        <time>2025-08-17T07:38:58.569Z</time>
      </trkpt>
      <trkpt lat="44.24818" lon="0.86247">
        <ele>213</ele>
        <time>2025-08-17T07:38:59.569Z</time>
      </trkpt>
      <trkpt lat="44.24819" lon="0.86248">
        <ele>213</ele>
        <time>2025-08-17T07:39:00.569Z</time>
      </trkpt>
      <trkpt lat="44.2482" lon="0.86249">
        <ele>213</ele>
        <time>2025-08-17T07:39:01.569Z</time>
      </trkpt>
      <trkpt lat="44.24821" lon="0.86249">
        <ele>214</ele>
        <time>2025-08-17T07:39:02.569Z</time>
      </trkpt>
      <trkpt lat="44.24822" lon="0.8625">
        <ele>213</ele>
        <time>2025-08-17T07:39:03.569Z</time>
      </trkpt>
      <trkpt lat="44.24822" lon="0.86251">
        <ele>213</ele>
        <time>2025-08-17T07:39:04.569Z</time>
      </trkpt>
      <trkpt lat="44.24823" lon="0.86252">
        <ele>213</ele>
        <time>2025-08-17T07:39:05.569Z</time>
      </trkpt>
      <trkpt lat="44.24824" lon="0.86253">
        <ele>213</ele>
        <time>2025-08-17T07:39:06.569Z</time>
      </trkpt>
      <trkpt lat="44.24825" lon="0.86254">
        <ele>213</ele>
        <time>2025-08-17T07:39:07.569Z</time>
      </trkpt>
      <trkpt lat="44.24826" lon="0.86255">
        <ele>213</ele>
        <time>2025-08-17T07:39:08.569Z</time>
      </trkpt>
      <trkpt lat="44.24827" lon="0.86256">
        <ele>213</ele>
        <time>2025-08-17T07:39:09.569Z</time>
      </trkpt>
      <trkpt lat="44.24828" lon="0.86257">
        <ele>213</ele>
        <time>2025-08-17T07:39:10.569Z</time>
      </trkpt>
      <trkpt lat="44.24829" lon="0.86258">
        <ele>213</ele>
        <time>2025-08-17T07:39:11.569Z</time>
      </trkpt>
      <trkpt lat="44.24829" lon="0.86259">
        <ele>213</ele>
        <time>2025-08-17T07:39:12.569Z</time>
      </trkpt>
      <trkpt lat="44.2483" lon="0.8626">
        <ele>213</ele>
        <time>2025-08-17T07:39:13.569Z</time>
      </trkpt>
      <trkpt lat="44.24831" lon="0.86261">
        <ele>213</ele>
        <time>2025-08-17T07:39:14.569Z</time>
      </trkpt>
      <trkpt lat="44.24832" lon="0.86262">
        <ele>213</ele>
        <time>2025-08-17T07:39:15.569Z</time>
      </trkpt>
      <trkpt lat="44.24833" lon="0.86263">
        <ele>213</ele>
        <time>2025-08-17T07:39:16.569Z</time>
      </trkpt>
      <trkpt lat="44.24834" lon="0.86264">
        <ele>213</ele>
        <time>2025-08-17T07:39:17.569Z</time>
      </trkpt>
      <trkpt lat="44.24835" lon="0.86265">
        <ele>213</ele>
        <time>2025-08-17T07:39:18.569Z</time>
      </trkpt>
      <trkpt lat="44.24836" lon="0.86266">
        <ele>213</ele>
        <time>2025-08-17T07:39:19.569Z</time>
      </trkpt>
      <trkpt lat="44.24837" lon="0.86267">
        <ele>213</ele>
        <time>2025-08-17T07:39:20.569Z</time>
      </trkpt>
      <trkpt lat="44.24838" lon="0.86268">
        <ele>213</ele>
        <time>2025-08-17T07:39:21.569Z</time>
      </trkpt>
      <trkpt lat="44.2484" lon="0.86269">
        <ele>214</ele>
        <time>2025-08-17T07:39:22.569Z</time>
      </trkpt>
      <trkpt lat="44.2484" lon="0.8627">
        <ele>214</ele>
        <time>2025-08-17T07:39:23.569Z</time>
      </trkpt>
      <trkpt lat="44.24841" lon="0.8627">
        <ele>214</ele>
        <time>2025-08-17T07:39:24.569Z</time>
      </trkpt>
      <trkpt lat="44.24842" lon="0.86272">
        <ele>214</ele>
        <time>2025-08-17T07:39:25.569Z</time>
      </trkpt>
      <trkpt lat="44.24843" lon="0.86273">
        <ele>214</ele>
        <time>2025-08-17T07:39:26.569Z</time>
      </trkpt>
      <trkpt lat="44.24844" lon="0.86273">
        <ele>214</ele>
        <time>2025-08-17T07:39:27.569Z</time>
      </trkpt>
      <trkpt lat="44.24845" lon="0.86274">
        <ele>214</ele>
        <time>2025-08-17T07:39:28.569Z</time>
      </trkpt>
      <trkpt lat="44.24846" lon="0.86275">
        <ele>214</ele>
        <time>2025-08-17T07:39:29.569Z</time>
      </trkpt>
      <trkpt lat="44.24847" lon="0.86275">
        <ele>214</ele>
        <time>2025-08-17T07:39:30.569Z</time>
      </trkpt>
      <trkpt lat="44.24848" lon="0.86276">
        <ele>214</ele>
        <time>2025-08-17T07:39:31.569Z</time>
      </trkpt>
      <trkpt lat="44.24849" lon="0.86277">
        <ele>214</ele>
        <time>2025-08-17T07:39:32.569Z</time>
      </trkpt>
      <trkpt lat="44.2485" lon="0.86278">
        <ele>214</ele>
        <time>2025-08-17T07:39:33.569Z</time>
      </trkpt>
      <trkpt lat="44.24851" lon="0.86279">
        <ele>214</ele>
        <time>2025-08-17T07:39:34.569Z</time>
      </trkpt>
      <trkpt lat="44.24852" lon="0.8628">
        <ele>214</ele>
        <time>2025-08-17T07:39:35.569Z</time>
      </trkpt>
      <trkpt lat="44.24853" lon="0.8628">
        <ele>214</ele>
        <time>2025-08-17T07:39:36.569Z</time>
      </trkpt>
      <trkpt lat="44.24854" lon="0.86281">
        <ele>214</ele>
        <time>2025-08-17T07:39:37.569Z</time>
      </trkpt>
      <trkpt lat="44.24854" lon="0.86282">
        <ele>214</ele>
        <time>2025-08-17T07:39:38.569Z</time>
      </trkpt>
      <trkpt lat="44.24855" lon="0.86283">
        <ele>215</ele>
        <time>2025-08-17T07:39:39.569Z</time>
      </trkpt>
      <trkpt lat="44.24856" lon="0.86284">
        <ele>215</ele>
        <time>2025-08-17T07:39:40.569Z</time>
      </trkpt>
      <trkpt lat="44.24857" lon="0.86285">
        <ele>215</ele>
        <time>2025-08-17T07:39:41.569Z</time>
      </trkpt>
      <trkpt lat="44.24858" lon="0.86286">
        <ele>215</ele>
        <time>2025-08-17T07:39:42.569Z</time>
      </trkpt>
      <trkpt lat="44.24859" lon="0.86287">
        <ele>215</ele>
        <time>2025-08-17T07:39:43.569Z</time>
      </trkpt>
      <trkpt lat="44.2486" lon="0.86287">
        <ele>215</ele>
        <time>2025-08-17T07:39:44.569Z</time>
      </trkpt>
      <trkpt lat="44.24861" lon="0.86288">
        <ele>215</ele>
        <time>2025-08-17T07:39:45.569Z</time>
      </trkpt>
      <trkpt lat="44.24862" lon="0.86289">
        <ele>215</ele>
        <time>2025-08-17T07:39:46.569Z</time>
      </trkpt>
      <trkpt lat="44.24863" lon="0.8629">
        <ele>216</ele>
        <time>2025-08-17T07:39:47.569Z</time>
      </trkpt>
      <trkpt lat="44.24864" lon="0.86291">
        <ele>216</ele>
        <time>2025-08-17T07:39:48.569Z</time>
      </trkpt>
      <trkpt lat="44.24865" lon="0.86292">
        <ele>216</ele>
        <time>2025-08-17T07:39:49.569Z</time>
      </trkpt>
      <trkpt lat="44.24866" lon="0.86293">
        <ele>217</ele>
        <time>2025-08-17T07:39:50.569Z</time>
      </trkpt>
      <trkpt lat="44.24867" lon="0.86294">
        <ele>218</ele>
        <time>2025-08-17T07:39:51.569Z</time>
      </trkpt>
      <trkpt lat="44.24868" lon="0.86294">
        <ele>218</ele>
        <time>2025-08-17T07:39:52.569Z</time>
      </trkpt>
      <trkpt lat="44.24869" lon="0.86295">
        <ele>218</ele>
        <time>2025-08-17T07:39:53.569Z</time>
      </trkpt>
      <trkpt lat="44.2487" lon="0.86296">
        <ele>218</ele>
        <time>2025-08-17T07:39:54.569Z</time>
      </trkpt>
      <trkpt lat="44.24871" lon="0.86296">
        <ele>218</ele>
        <time>2025-08-17T07:39:55.569Z</time>
      </trkpt>
      <trkpt lat="44.24871" lon="0.86297">
        <ele>218</ele>
        <time>2025-08-17T07:39:56.569Z</time>
      </trkpt>
      <trkpt lat="44.24872" lon="0.86297">
        <ele>218</ele>
        <time>2025-08-17T07:39:57.569Z</time>
      </trkpt>
      <trkpt lat="44.24872" lon="0.86297">
        <ele>218</ele>
        <time>2025-08-17T07:39:58.569Z</time>
      </trkpt>
      <trkpt lat="44.24872" lon="0.86297">
        <ele>218</ele>
        <time>2025-08-17T07:39:59.569Z</time>
      </trkpt>
      <trkpt lat="44.24872" lon="0.86297">
        <ele>217</ele>
        <time>2025-08-17T07:40:00.569Z</time>
      </trkpt>
      <trkpt lat="44.24872" lon="0.86297">
        <ele>217</ele>
        <time>2025-08-17T07:40:01.569Z</time>
      </trkpt>
      <trkpt lat="44.24872" lon="0.86297">
        <ele>217</ele>
        <time>2025-08-17T07:40:02.569Z</time>
      </trkpt>
      <trkpt lat="44.24872" lon="0.86297">
        <ele>217</ele>
        <time>2025-08-17T07:40:03.569Z</time>
      </trkpt>
      <trkpt lat="44.24872" lon="0.86297">
        <ele>216</ele>
        <time>2025-08-17T07:40:04.569Z</time>
      </trkpt>
      <trkpt lat="44.24872" lon="0.86297">
        <ele>216</ele>
        <time>2025-08-17T07:40:05.569Z</time>
      </trkpt>
      <trkpt lat="44.24872" lon="0.86297">
        <ele>216</ele>
        <time>2025-08-17T07:40:06.569Z</time>
      </trkpt>
      <trkpt lat="44.24872" lon="0.86297">
        <ele>216</ele>
        <time>2025-08-17T07:40:07.569Z</time>
      </trkpt>
      <trkpt lat="44.24872" lon="0.86297">
        <ele>216</ele>
        <time>2025-08-17T07:40:08.569Z</time>
      </trkpt>
      <trkpt lat="44.24872" lon="0.86297">
        <ele>216</ele>
        <time>2025-08-17T07:40:09.569Z</time>
      </trkpt>
      <trkpt lat="44.24872" lon="0.86297">
        <ele>216</ele>
        <time>2025-08-17T07:40:10.569Z</time>
      </trkpt>
      <trkpt lat="44.24873" lon="0.86297">
        <ele>216</ele>
        <time>2025-08-17T07:40:11.569Z</time>
      </trkpt>
      <trkpt lat="44.24873" lon="0.86298">
        <ele>216</ele>
        <time>2025-08-17T07:40:12.569Z</time>
      </trkpt>
      <trkpt lat="44.24873" lon="0.86299">
        <ele>216</ele>
        <time>2025-08-17T07:40:13.569Z</time>
      </trkpt>
      <trkpt lat="44.24874" lon="0.863">
        <ele>216</ele>
        <time>2025-08-17T07:40:14.569Z</time>
      </trkpt>
      <trkpt lat="44.24875" lon="0.86301">
        <ele>216</ele>
        <time>2025-08-17T07:40:15.569Z</time>
      </trkpt>
      <trkpt lat="44.24876" lon="0.86303">
        <ele>216</ele>
        <time>2025-08-17T07:40:16.569Z</time>
      </trkpt>
      <trkpt lat="44.24877" lon="0.86304">
        <ele>216</ele>
        <time>2025-08-17T07:40:17.569Z</time>
      </trkpt>
      <trkpt lat="44.24878" lon="0.86305">
        <ele>216</ele>
        <time>2025-08-17T07:40:18.569Z</time>
      </trkpt>
      <trkpt lat="44.24879" lon="0.86306">
        <ele>216</ele>
        <time>2025-08-17T07:40:19.569Z</time>
      </trkpt>
      <trkpt lat="44.2488" lon="0.86307">
        <ele>216</ele>
        <time>2025-08-17T07:40:20.569Z</time>
      </trkpt>
      <trkpt lat="44.24881" lon="0.86307">
        <ele>216</ele>
        <time>2025-08-17T07:40:21.569Z</time>
      </trkpt>
      <trkpt lat="44.24882" lon="0.86309">
        <ele>216</ele>
        <time>2025-08-17T07:40:22.569Z</time>
      </trkpt>
      <trkpt lat="44.24883" lon="0.8631">
        <ele>216</ele>
        <time>2025-08-17T07:40:23.569Z</time>
      </trkpt>
      <trkpt lat="44.24884" lon="0.86311">
        <ele>217</ele>
        <time>2025-08-17T07:40:24.569Z</time>
      </trkpt>
      <trkpt lat="44.24885" lon="0.86312">
        <ele>217</ele>
        <time>2025-08-17T07:40:25.569Z</time>
      </trkpt>
      <trkpt lat="44.24886" lon="0.86313">
        <ele>217</ele>
        <time>2025-08-17T07:40:26.569Z</time>
      </trkpt>
      <trkpt lat="44.24887" lon="0.86314">
        <ele>217</ele>
        <time>2025-08-17T07:40:27.569Z</time>
      </trkpt>
      <trkpt lat="44.24888" lon="0.86315">
        <ele>217</ele>
        <time>2025-08-17T07:40:28.569Z</time>
      </trkpt>
      <trkpt lat="44.24889" lon="0.86316">
        <ele>217</ele>
        <time>2025-08-17T07:40:29.569Z</time>
      </trkpt>
      <trkpt lat="44.2489" lon="0.86317">
        <ele>217</ele>
        <time>2025-08-17T07:40:30.569Z</time>
      </trkpt>
      <trkpt lat="44.24891" lon="0.86318">
        <ele>217</ele>
        <time>2025-08-17T07:40:31.569Z</time>
      </trkpt>
      <trkpt lat="44.24892" lon="0.86319">
        <ele>217</ele>
        <time>2025-08-17T07:40:32.569Z</time>
      </trkpt>
      <trkpt lat="44.24893" lon="0.8632">
        <ele>217</ele>
        <time>2025-08-17T07:40:33.569Z</time>
      </trkpt>
      <trkpt lat="44.24894" lon="0.86321">
        <ele>217</ele>
        <time>2025-08-17T07:40:34.569Z</time>
      </trkpt>
      <trkpt lat="44.24895" lon="0.86322">
        <ele>217</ele>
        <time>2025-08-17T07:40:35.569Z</time>
      </trkpt>
      <trkpt lat="44.24897" lon="0.86323">
        <ele>217</ele>
        <time>2025-08-17T07:40:36.569Z</time>
      </trkpt>
      <trkpt lat="44.24898" lon="0.86324">
        <ele>218</ele>
        <time>2025-08-17T07:40:37.569Z</time>
      </trkpt>
      <trkpt lat="44.24899" lon="0.86325">
        <ele>218</ele>
        <time>2025-08-17T07:40:38.569Z</time>
      </trkpt>
      <trkpt lat="44.249" lon="0.86326">
        <ele>218</ele>
        <time>2025-08-17T07:40:39.569Z</time>
      </trkpt>
      <trkpt lat="44.24901" lon="0.86327">
        <ele>218</ele>
        <time>2025-08-17T07:40:40.569Z</time>
      </trkpt>
      <trkpt lat="44.24902" lon="0.86329">
        <ele>219</ele>
        <time>2025-08-17T07:40:41.569Z</time>
      </trkpt>
      <trkpt lat="44.24903" lon="0.8633">
        <ele>219</ele>
        <time>2025-08-17T07:40:42.569Z</time>
      </trkpt>
      <trkpt lat="44.24903" lon="0.86331">
        <ele>219</ele>
        <time>2025-08-17T07:40:43.569Z</time>
      </trkpt>
      <trkpt lat="44.24904" lon="0.86332">
        <ele>219</ele>
        <time>2025-08-17T07:40:44.569Z</time>
      </trkpt>
      <trkpt lat="44.24905" lon="0.86333">
        <ele>219</ele>
        <time>2025-08-17T07:40:45.569Z</time>
      </trkpt>
      <trkpt lat="44.24907" lon="0.86334">
        <ele>219</ele>
        <time>2025-08-17T07:40:46.569Z</time>
      </trkpt>
      <trkpt lat="44.24908" lon="0.86335">
        <ele>219</ele>
        <time>2025-08-17T07:40:47.569Z</time>
      </trkpt>
      <trkpt lat="44.24909" lon="0.86336">
        <ele>219</ele>
        <time>2025-08-17T07:40:48.569Z</time>
      </trkpt>
      <trkpt lat="44.2491" lon="0.86337">
        <ele>219</ele>
        <time>2025-08-17T07:40:49.569Z</time>
      </trkpt>
      <trkpt lat="44.24911" lon="0.86339">
        <ele>219</ele>
        <time>2025-08-17T07:40:50.569Z</time>
      </trkpt>
      <trkpt lat="44.24912" lon="0.86339">
        <ele>219</ele>
        <time>2025-08-17T07:40:51.569Z</time>
      </trkpt>
      <trkpt lat="44.24913" lon="0.8634">
        <ele>219</ele>
        <time>2025-08-17T07:40:52.569Z</time>
      </trkpt>
      <trkpt lat="44.24914" lon="0.86341">
        <ele>219</ele>
        <time>2025-08-17T07:40:53.569Z</time>
      </trkpt>
      <trkpt lat="44.24915" lon="0.86342">
        <ele>219</ele>
        <time>2025-08-17T07:40:54.569Z</time>
      </trkpt>
      <trkpt lat="44.24916" lon="0.86343">
        <ele>218</ele>
        <time>2025-08-17T07:40:55.569Z</time>
      </trkpt>
      <trkpt lat="44.24917" lon="0.86344">
        <ele>218</ele>
        <time>2025-08-17T07:40:56.569Z</time>
      </trkpt>
      <trkpt lat="44.24918" lon="0.86345">
        <ele>218</ele>
        <time>2025-08-17T07:40:57.569Z</time>
      </trkpt>
      <trkpt lat="44.24919" lon="0.86346">
        <ele>218</ele>
        <time>2025-08-17T07:40:58.569Z</time>
      </trkpt>
      <trkpt lat="44.2492" lon="0.86347">
        <ele>218</ele>
        <time>2025-08-17T07:40:59.569Z</time>
      </trkpt>
      <trkpt lat="44.24921" lon="0.86348">
        <ele>218</ele>
        <time>2025-08-17T07:41:00.569Z</time>
      </trkpt>
      <trkpt lat="44.24922" lon="0.8635">
        <ele>218</ele>
        <time>2025-08-17T07:41:01.569Z</time>
      </trkpt>
      <trkpt lat="44.24923" lon="0.86351">
        <ele>217</ele>
        <time>2025-08-17T07:41:02.569Z</time>
      </trkpt>
      <trkpt lat="44.24924" lon="0.86352">
        <ele>217</ele>
        <time>2025-08-17T07:41:03.569Z</time>
      </trkpt>
      <trkpt lat="44.24925" lon="0.86353">
        <ele>217</ele>
        <time>2025-08-17T07:41:04.569Z</time>
      </trkpt>
      <trkpt lat="44.24926" lon="0.86354">
        <ele>217</ele>
        <time>2025-08-17T07:41:05.569Z</time>
      </trkpt>
      <trkpt lat="44.24927" lon="0.86355">
        <ele>217</ele>
        <time>2025-08-17T07:41:06.569Z</time>
      </trkpt>
      <trkpt lat="44.24928" lon="0.86356">
        <ele>217</ele>
        <time>2025-08-17T07:41:07.569Z</time>
      </trkpt>
      <trkpt lat="44.24929" lon="0.86357">
        <ele>217</ele>
        <time>2025-08-17T07:41:08.569Z</time>
      </trkpt>
      <trkpt lat="44.2493" lon="0.86358">
        <ele>217</ele>
        <time>2025-08-17T07:41:09.569Z</time>
      </trkpt>
      <trkpt lat="44.24931" lon="0.86359">
        <ele>217</ele>
        <time>2025-08-17T07:41:10.569Z</time>
      </trkpt>
      <trkpt lat="44.24932" lon="0.86359">
        <ele>217</ele>
        <time>2025-08-17T07:41:11.569Z</time>
      </trkpt>
      <trkpt lat="44.24933" lon="0.8636">
        <ele>218</ele>
        <time>2025-08-17T07:41:12.569Z</time>
      </trkpt>
      <trkpt lat="44.24935" lon="0.8636">
        <ele>218</ele>
        <time>2025-08-17T07:41:13.569Z</time>
      </trkpt>
      <trkpt lat="44.24936" lon="0.86361">
        <ele>218</ele>
        <time>2025-08-17T07:41:14.569Z</time>
      </trkpt>
      <trkpt lat="44.24937" lon="0.86362">
        <ele>218</ele>
        <time>2025-08-17T07:41:15.569Z</time>
      </trkpt>
      <trkpt lat="44.24938" lon="0.86363">
        <ele>218</ele>
        <time>2025-08-17T07:41:16.569Z</time>
      </trkpt>
      <trkpt lat="44.24938" lon="0.86364">
        <ele>218</ele>
        <time>2025-08-17T07:41:17.569Z</time>
      </trkpt>
      <trkpt lat="44.24939" lon="0.86365">
        <ele>217</ele>
        <time>2025-08-17T07:41:18.569Z</time>
      </trkpt>
      <trkpt lat="44.2494" lon="0.86366">
        <ele>217</ele>
        <time>2025-08-17T07:41:19.569Z</time>
      </trkpt>
      <trkpt lat="44.24941" lon="0.86367">
        <ele>217</ele>
        <time>2025-08-17T07:41:20.569Z</time>
      </trkpt>
      <trkpt lat="44.24942" lon="0.86368">
        <ele>217</ele>
        <time>2025-08-17T07:41:21.569Z</time>
      </trkpt>
      <trkpt lat="44.24943" lon="0.86369">
        <ele>217</ele>
        <time>2025-08-17T07:41:22.569Z</time>
      </trkpt>
      <trkpt lat="44.24944" lon="0.8637">
        <ele>217</ele>
        <time>2025-08-17T07:41:23.569Z</time>
      </trkpt>
      <trkpt lat="44.24945" lon="0.8637">
        <ele>217</ele>
        <time>2025-08-17T07:41:24.569Z</time>
      </trkpt>
      <trkpt lat="44.24946" lon="0.86371">
        <ele>217</ele>
        <time>2025-08-17T07:41:25.569Z</time>
      </trkpt>
      <trkpt lat="44.24947" lon="0.86372">
        <ele>217</ele>
        <time>2025-08-17T07:41:26.569Z</time>
      </trkpt>
      <trkpt lat="44.24947" lon="0.86373">
        <ele>217</ele>
        <time>2025-08-17T07:41:27.569Z</time>
      </trkpt>
      <trkpt lat="44.24949" lon="0.86374">
        <ele>217</ele>
        <time>2025-08-17T07:41:28.569Z</time>
      </trkpt>
      <trkpt lat="44.2495" lon="0.86375">
        <ele>217</ele>
        <time>2025-08-17T07:41:29.569Z</time>
      </trkpt>
      <trkpt lat="44.2495" lon="0.86376">
        <ele>217</ele>
        <time>2025-08-17T07:41:30.569Z</time>
      </trkpt>
      <trkpt lat="44.24951" lon="0.86377">
        <ele>217</ele>
        <time>2025-08-17T07:41:31.569Z</time>
      </trkpt>
      <trkpt lat="44.24952" lon="0.86378">
        <ele>216</ele>
        <time>2025-08-17T07:41:32.569Z</time>
      </trkpt>
      <trkpt lat="44.24953" lon="0.86379">
        <ele>216</ele>
        <time>2025-08-17T07:41:33.569Z</time>
      </trkpt>
      <trkpt lat="44.24954" lon="0.8638">
        <ele>216</ele>
        <time>2025-08-17T07:41:34.569Z</time>
      </trkpt>
      <trkpt lat="44.24955" lon="0.86381">
        <ele>216</ele>
        <time>2025-08-17T07:41:35.569Z</time>
      </trkpt>
      <trkpt lat="44.24956" lon="0.86381">
        <ele>215</ele>
        <time>2025-08-17T07:41:36.569Z</time>
      </trkpt>
      <trkpt lat="44.24957" lon="0.86382">
        <ele>216</ele>
        <time>2025-08-17T07:41:37.569Z</time>
      </trkpt>
      <trkpt lat="44.24958" lon="0.86383">
        <ele>216</ele>
        <time>2025-08-17T07:41:38.569Z</time>
      </trkpt>
      <trkpt lat="44.24959" lon="0.86384">
        <ele>215</ele>
        <time>2025-08-17T07:41:39.569Z</time>
      </trkpt>
      <trkpt lat="44.2496" lon="0.86385">
        <ele>215</ele>
        <time>2025-08-17T07:41:40.569Z</time>
      </trkpt>
      <trkpt lat="44.24961" lon="0.86386">
        <ele>215</ele>
        <time>2025-08-17T07:41:41.569Z</time>
      </trkpt>
      <trkpt lat="44.24962" lon="0.86387">
        <ele>215</ele>
        <time>2025-08-17T07:41:42.569Z</time>
      </trkpt>
      <trkpt lat="44.24963" lon="0.86387">
        <ele>215</ele>
        <time>2025-08-17T07:41:43.569Z</time>
      </trkpt>
      <trkpt lat="44.24963" lon="0.86388">
        <ele>214</ele>
        <time>2025-08-17T07:41:44.569Z</time>
      </trkpt>
      <trkpt lat="44.24964" lon="0.86388">
        <ele>214</ele>
        <time>2025-08-17T07:41:45.569Z</time>
      </trkpt>
      <trkpt lat="44.24965" lon="0.86389">
        <ele>215</ele>
        <time>2025-08-17T07:41:46.569Z</time>
      </trkpt>
      <trkpt lat="44.24966" lon="0.8639">
        <ele>215</ele>
        <time>2025-08-17T07:41:47.569Z</time>
      </trkpt>
      <trkpt lat="44.24967" lon="0.8639">
        <ele>215</ele>
        <time>2025-08-17T07:41:48.569Z</time>
      </trkpt>
      <trkpt lat="44.24968" lon="0.86391">
        <ele>215</ele>
        <time>2025-08-17T07:41:49.569Z</time>
      </trkpt>
      <trkpt lat="44.24968" lon="0.86392">
        <ele>215</ele>
        <time>2025-08-17T07:41:50.569Z</time>
      </trkpt>
      <trkpt lat="44.24969" lon="0.86393">
        <ele>215</ele>
        <time>2025-08-17T07:41:51.569Z</time>
      </trkpt>
      <trkpt lat="44.2497" lon="0.86393">
        <ele>215</ele>
        <time>2025-08-17T07:41:52.569Z</time>
      </trkpt>
      <trkpt lat="44.24971" lon="0.86394">
        <ele>215</ele>
        <time>2025-08-17T07:41:53.569Z</time>
      </trkpt>
      <trkpt lat="44.24972" lon="0.86395">
        <ele>215</ele>
        <time>2025-08-17T07:41:54.569Z</time>
      </trkpt>
      <trkpt lat="44.24973" lon="0.86395">
        <ele>215</ele>
        <time>2025-08-17T07:41:55.569Z</time>
      </trkpt>
      <trkpt lat="44.24974" lon="0.86396">
        <ele>215</ele>
        <time>2025-08-17T07:41:56.569Z</time>
      </trkpt>
      <trkpt lat="44.24975" lon="0.86397">
        <ele>215</ele>
        <time>2025-08-17T07:41:57.569Z</time>
      </trkpt>
      <trkpt lat="44.24976" lon="0.86397">
        <ele>216</ele>
        <time>2025-08-17T07:41:58.569Z</time>
      </trkpt>
      <trkpt lat="44.24977" lon="0.86398">
        <ele>216</ele>
        <time>2025-08-17T07:41:59.569Z</time>
      </trkpt>
      <trkpt lat="44.24978" lon="0.86399">
        <ele>216</ele>
        <time>2025-08-17T07:42:00.569Z</time>
      </trkpt>
      <trkpt lat="44.24979" lon="0.864">
        <ele>216</ele>
        <time>2025-08-17T07:42:01.569Z</time>
      </trkpt>
      <trkpt lat="44.2498" lon="0.864">
        <ele>216</ele>
        <time>2025-08-17T07:42:02.569Z</time>
      </trkpt>
      <trkpt lat="44.24981" lon="0.86401">
        <ele>216</ele>
        <time>2025-08-17T07:42:03.569Z</time>
      </trkpt>
      <trkpt lat="44.24982" lon="0.86402">
        <ele>216</ele>
        <time>2025-08-17T07:42:04.569Z</time>
      </trkpt>
      <trkpt lat="44.24983" lon="0.86403">
        <ele>216</ele>
        <time>2025-08-17T07:42:05.569Z</time>
      </trkpt>
      <trkpt lat="44.24983" lon="0.86403">
        <ele>216</ele>
        <time>2025-08-17T07:42:06.569Z</time>
      </trkpt>
      <trkpt lat="44.24984" lon="0.86404">
        <ele>216</ele>
        <time>2025-08-17T07:42:07.569Z</time>
      </trkpt>
      <trkpt lat="44.24985" lon="0.86405">
        <ele>216</ele>
        <time>2025-08-17T07:42:08.569Z</time>
      </trkpt>
      <trkpt lat="44.24986" lon="0.86406">
        <ele>216</ele>
        <time>2025-08-17T07:42:09.569Z</time>
      </trkpt>
      <trkpt lat="44.24987" lon="0.86407">
        <ele>216</ele>
        <time>2025-08-17T07:42:10.569Z</time>
      </trkpt>
      <trkpt lat="44.24988" lon="0.86408">
        <ele>216</ele>
        <time>2025-08-17T07:42:11.569Z</time>
      </trkpt>
      <trkpt lat="44.24989" lon="0.86409">
        <ele>216</ele>
        <time>2025-08-17T07:42:12.569Z</time>
      </trkpt>
      <trkpt lat="44.2499" lon="0.86409">
        <ele>217</ele>
        <time>2025-08-17T07:42:13.569Z</time>
      </trkpt>
      <trkpt lat="44.2499" lon="0.8641">
        <ele>217</ele>
        <time>2025-08-17T07:42:14.569Z</time>
      </trkpt>
      <trkpt lat="44.24991" lon="0.86411">
        <ele>217</ele>
        <time>2025-08-17T07:42:15.569Z</time>
      </trkpt>
      <trkpt lat="44.24992" lon="0.86411">
        <ele>217</ele>
        <time>2025-08-17T07:42:16.569Z</time>
      </trkpt>
      <trkpt lat="44.24993" lon="0.86412">
        <ele>217</ele>
        <time>2025-08-17T07:42:17.569Z</time>
      </trkpt>
      <trkpt lat="44.24994" lon="0.86412">
        <ele>218</ele>
        <time>2025-08-17T07:42:18.569Z</time>
      </trkpt>
      <trkpt lat="44.24996" lon="0.86413">
        <ele>218</ele>
        <time>2025-08-17T07:42:19.569Z</time>
      </trkpt>
      <trkpt lat="44.24996" lon="0.86414">
        <ele>218</ele>
        <time>2025-08-17T07:42:20.569Z</time>
      </trkpt>
      <trkpt lat="44.24998" lon="0.86415">
        <ele>217</ele>
        <time>2025-08-17T07:42:21.569Z</time>
      </trkpt>
      <trkpt lat="44.24998" lon="0.86416">
        <ele>217</ele>
        <time>2025-08-17T07:42:22.569Z</time>
      </trkpt>
      <trkpt lat="44.24999" lon="0.86417">
        <ele>217</ele>
        <time>2025-08-17T07:42:23.569Z</time>
      </trkpt>
      <trkpt lat="44.25" lon="0.86418">
        <ele>217</ele>
        <time>2025-08-17T07:42:24.569Z</time>
      </trkpt>
      <trkpt lat="44.25001" lon="0.86419">
        <ele>217</ele>
        <time>2025-08-17T07:42:25.569Z</time>
      </trkpt>
      <trkpt lat="44.25002" lon="0.86421">
        <ele>217</ele>
        <time>2025-08-17T07:42:26.569Z</time>
      </trkpt>
      <trkpt lat="44.25003" lon="0.86422">
        <ele>216</ele>
        <time>2025-08-17T07:42:27.569Z</time>
      </trkpt>
      <trkpt lat="44.25003" lon="0.86423">
        <ele>216</ele>
        <time>2025-08-17T07:42:28.569Z</time>
      </trkpt>
      <trkpt lat="44.25004" lon="0.86425">
        <ele>215</ele>
        <time>2025-08-17T07:42:29.569Z</time>
      </trkpt>
      <trkpt lat="44.25005" lon="0.86426">
        <ele>215</ele>
        <time>2025-08-17T07:42:30.569Z</time>
      </trkpt>
      <trkpt lat="44.25007" lon="0.86427">
        <ele>215</ele>
        <time>2025-08-17T07:42:31.569Z</time>
      </trkpt>
      <trkpt lat="44.25008" lon="0.86428">
        <ele>215</ele>
        <time>2025-08-17T07:42:32.569Z</time>
      </trkpt>
      <trkpt lat="44.25009" lon="0.86429">
        <ele>215</ele>
        <time>2025-08-17T07:42:33.569Z</time>
      </trkpt>
      <trkpt lat="44.2501" lon="0.8643">
        <ele>215</ele>
        <time>2025-08-17T07:42:34.569Z</time>
      </trkpt>
      <trkpt lat="44.25011" lon="0.8643">
        <ele>215</ele>
        <time>2025-08-17T07:42:35.569Z</time>
      </trkpt>
      <trkpt lat="44.25012" lon="0.86431">
        <ele>215</ele>
        <time>2025-08-17T07:42:36.569Z</time>
      </trkpt>
      <trkpt lat="44.25013" lon="0.86431">
        <ele>215</ele>
        <time>2025-08-17T07:42:37.569Z</time>
      </trkpt>
      <trkpt lat="44.25014" lon="0.86432">
        <ele>215</ele>
        <time>2025-08-17T07:42:38.569Z</time>
      </trkpt>
      <trkpt lat="44.25015" lon="0.86433">
        <ele>216</ele>
        <time>2025-08-17T07:42:39.569Z</time>
      </trkpt>
      <trkpt lat="44.25016" lon="0.86434">
        <ele>216</ele>
        <time>2025-08-17T07:42:40.569Z</time>
      </trkpt>
      <trkpt lat="44.25016" lon="0.86434">
        <ele>216</ele>
        <time>2025-08-17T07:42:41.569Z</time>
      </trkpt>
      <trkpt lat="44.25017" lon="0.86435">
        <ele>216</ele>
        <time>2025-08-17T07:42:42.569Z</time>
      </trkpt>
      <trkpt lat="44.25017" lon="0.86436">
        <ele>215</ele>
        <time>2025-08-17T07:42:43.569Z</time>
      </trkpt>
      <trkpt lat="44.25018" lon="0.86436">
        <ele>215</ele>
        <time>2025-08-17T07:42:44.569Z</time>
      </trkpt>
      <trkpt lat="44.25018" lon="0.86436">
        <ele>214</ele>
        <time>2025-08-17T07:42:45.569Z</time>
      </trkpt>
      <trkpt lat="44.25018" lon="0.86436">
        <ele>214</ele>
        <time>2025-08-17T07:42:46.569Z</time>
      </trkpt>
      <trkpt lat="44.25019" lon="0.86436">
        <ele>214</ele>
        <time>2025-08-17T07:42:47.569Z</time>
      </trkpt>
      <trkpt lat="44.25019" lon="0.86436">
        <ele>213</ele>
        <time>2025-08-17T07:42:48.569Z</time>
      </trkpt>
      <trkpt lat="44.2502" lon="0.86436">
        <ele>214</ele>
        <time>2025-08-17T07:42:49.569Z</time>
      </trkpt>
      <trkpt lat="44.2502" lon="0.86437">
        <ele>214</ele>
        <time>2025-08-17T07:42:50.569Z</time>
      </trkpt>
      <trkpt lat="44.25021" lon="0.86438">
        <ele>214</ele>
        <time>2025-08-17T07:42:51.569Z</time>
      </trkpt>
      <trkpt lat="44.25022" lon="0.86439">
        <ele>214</ele>
        <time>2025-08-17T07:42:52.569Z</time>
      </trkpt>
      <trkpt lat="44.25022" lon="0.8644">
        <ele>214</ele>
        <time>2025-08-17T07:42:53.569Z</time>
      </trkpt>
      <trkpt lat="44.25023" lon="0.86441">
        <ele>214</ele>
        <time>2025-08-17T07:42:54.569Z</time>
      </trkpt>
      <trkpt lat="44.25023" lon="0.86442">
        <ele>213</ele>
        <time>2025-08-17T07:42:55.569Z</time>
      </trkpt>
      <trkpt lat="44.25024" lon="0.86444">
        <ele>213</ele>
        <time>2025-08-17T07:42:56.569Z</time>
      </trkpt>
      <trkpt lat="44.25024" lon="0.86445">
        <ele>213</ele>
        <time>2025-08-17T07:42:57.569Z</time>
      </trkpt>
      <trkpt lat="44.25025" lon="0.86446">
        <ele>213</ele>
        <time>2025-08-17T07:42:58.569Z</time>
      </trkpt>
      <trkpt lat="44.25025" lon="0.86448">
        <ele>213</ele>
        <time>2025-08-17T07:42:59.569Z</time>
      </trkpt>
      <trkpt lat="44.25026" lon="0.86449">
        <ele>213</ele>
        <time>2025-08-17T07:43:00.569Z</time>
      </trkpt>
      <trkpt lat="44.25027" lon="0.8645">
        <ele>214</ele>
        <time>2025-08-17T07:43:01.569Z</time>
      </trkpt>
      <trkpt lat="44.25028" lon="0.86451">
        <ele>214</ele>
        <time>2025-08-17T07:43:02.569Z</time>
      </trkpt>
      <trkpt lat="44.25028" lon="0.86453">
        <ele>214</ele>
        <time>2025-08-17T07:43:03.569Z</time>
      </trkpt>
      <trkpt lat="44.25029" lon="0.86454">
        <ele>214</ele>
        <time>2025-08-17T07:43:04.569Z</time>
      </trkpt>
      <trkpt lat="44.25029" lon="0.86455">
        <ele>214</ele>
        <time>2025-08-17T07:43:05.569Z</time>
      </trkpt>
      <trkpt lat="44.2503" lon="0.86456">
        <ele>215</ele>
        <time>2025-08-17T07:43:06.569Z</time>
      </trkpt>
      <trkpt lat="44.25031" lon="0.86457">
        <ele>215</ele>
        <time>2025-08-17T07:43:07.569Z</time>
      </trkpt>
      <trkpt lat="44.25032" lon="0.86459">
        <ele>215</ele>
        <time>2025-08-17T07:43:08.569Z</time>
      </trkpt>
      <trkpt lat="44.25033" lon="0.8646">
        <ele>215</ele>
        <time>2025-08-17T07:43:09.569Z</time>
      </trkpt>
      <trkpt lat="44.25034" lon="0.86461">
        <ele>215</ele>
        <time>2025-08-17T07:43:10.569Z</time>
      </trkpt>
      <trkpt lat="44.25034" lon="0.86462">
        <ele>216</ele>
        <time>2025-08-17T07:43:11.569Z</time>
      </trkpt>
      <trkpt lat="44.25035" lon="0.86463">
        <ele>216</ele>
        <time>2025-08-17T07:43:12.569Z</time>
      </trkpt>
      <trkpt lat="44.25036" lon="0.86464">
        <ele>216</ele>
        <time>2025-08-17T07:43:13.569Z</time>
      </trkpt>
      <trkpt lat="44.25037" lon="0.86465">
        <ele>216</ele>
        <time>2025-08-17T07:43:14.569Z</time>
      </trkpt>
      <trkpt lat="44.25038" lon="0.86466">
        <ele>216</ele>
        <time>2025-08-17T07:43:15.569Z</time>
      </trkpt>
      <trkpt lat="44.25039" lon="0.86467">
        <ele>216</ele>
        <time>2025-08-17T07:43:16.569Z</time>
      </trkpt>
      <trkpt lat="44.2504" lon="0.86468">
        <ele>216</ele>
        <time>2025-08-17T07:43:17.569Z</time>
      </trkpt>
      <trkpt lat="44.2504" lon="0.86469">
        <ele>216</ele>
        <time>2025-08-17T07:43:18.569Z</time>
      </trkpt>
      <trkpt lat="44.25041" lon="0.8647">
        <ele>216</ele>
        <time>2025-08-17T07:43:19.569Z</time>
      </trkpt>
      <trkpt lat="44.25042" lon="0.86471">
        <ele>216</ele>
        <time>2025-08-17T07:43:20.569Z</time>
      </trkpt>
      <trkpt lat="44.25043" lon="0.86472">
        <ele>216</ele>
        <time>2025-08-17T07:43:21.569Z</time>
      </trkpt>
      <trkpt lat="44.25044" lon="0.86473">
        <ele>216</ele>
        <time>2025-08-17T07:43:22.569Z</time>
      </trkpt>
      <trkpt lat="44.25045" lon="0.86474">
        <ele>216</ele>
        <time>2025-08-17T07:43:23.569Z</time>
      </trkpt>
      <trkpt lat="44.25046" lon="0.86475">
        <ele>216</ele>
        <time>2025-08-17T07:43:24.569Z</time>
      </trkpt>
      <trkpt lat="44.25046" lon="0.86476">
        <ele>216</ele>
        <time>2025-08-17T07:43:25.569Z</time>
      </trkpt>
      <trkpt lat="44.25047" lon="0.86477">
        <ele>215</ele>
        <time>2025-08-17T07:43:26.569Z</time>
      </trkpt>
      <trkpt lat="44.25048" lon="0.86478">
        <ele>215</ele>
        <time>2025-08-17T07:43:27.569Z</time>
      </trkpt>
      <trkpt lat="44.25049" lon="0.86479">
        <ele>215</ele>
        <time>2025-08-17T07:43:28.569Z</time>
      </trkpt>
      <trkpt lat="44.2505" lon="0.8648">
        <ele>215</ele>
        <time>2025-08-17T07:43:29.569Z</time>
      </trkpt>
      <trkpt lat="44.25051" lon="0.86481">
        <ele>215</ele>
        <time>2025-08-17T07:43:30.569Z</time>
      </trkpt>
      <trkpt lat="44.25052" lon="0.86482">
        <ele>215</ele>
        <time>2025-08-17T07:43:31.569Z</time>
      </trkpt>
      <trkpt lat="44.25053" lon="0.86483">
        <ele>216</ele>
        <time>2025-08-17T07:43:32.569Z</time>
      </trkpt>
      <trkpt lat="44.25053" lon="0.86484">
        <ele>216</ele>
        <time>2025-08-17T07:43:33.569Z</time>
      </trkpt>
      <trkpt lat="44.25054" lon="0.86485">
        <ele>216</ele>
        <time>2025-08-17T07:43:34.569Z</time>
      </trkpt>
      <trkpt lat="44.25055" lon="0.86485">
        <ele>216</ele>
        <time>2025-08-17T07:43:35.569Z</time>
      </trkpt>
      <trkpt lat="44.25056" lon="0.86486">
        <ele>216</ele>
        <time>2025-08-17T07:43:36.569Z</time>
      </trkpt>
      <trkpt lat="44.25058" lon="0.86487">
        <ele>216</ele>
        <time>2025-08-17T07:43:37.569Z</time>
      </trkpt>
      <trkpt lat="44.25059" lon="0.86488">
        <ele>216</ele>
        <time>2025-08-17T07:43:38.569Z</time>
      </trkpt>
      <trkpt lat="44.2506" lon="0.86489">
        <ele>216</ele>
        <time>2025-08-17T07:43:39.569Z</time>
      </trkpt>
      <trkpt lat="44.2506" lon="0.86489">
        <ele>216</ele>
        <time>2025-08-17T07:43:40.569Z</time>
      </trkpt>
      <trkpt lat="44.25061" lon="0.8649">
        <ele>217</ele>
        <time>2025-08-17T07:43:41.569Z</time>
      </trkpt>
      <trkpt lat="44.25062" lon="0.86491">
        <ele>217</ele>
        <time>2025-08-17T07:43:42.569Z</time>
      </trkpt>
      <trkpt lat="44.25063" lon="0.86492">
        <ele>217</ele>
        <time>2025-08-17T07:43:43.569Z</time>
      </trkpt>
      <trkpt lat="44.25064" lon="0.86493">
        <ele>218</ele>
        <time>2025-08-17T07:43:44.569Z</time>
      </trkpt>
      <trkpt lat="44.25065" lon="0.86494">
        <ele>218</ele>
        <time>2025-08-17T07:43:45.569Z</time>
      </trkpt>
      <trkpt lat="44.25066" lon="0.86495">
        <ele>217</ele>
        <time>2025-08-17T07:43:46.569Z</time>
      </trkpt>
      <trkpt lat="44.25067" lon="0.86495">
        <ele>217</ele>
        <time>2025-08-17T07:43:47.569Z</time>
      </trkpt>
      <trkpt lat="44.25067" lon="0.86496">
        <ele>217</ele>
        <time>2025-08-17T07:43:48.569Z</time>
      </trkpt>
      <trkpt lat="44.25068" lon="0.86497">
        <ele>217</ele>
        <time>2025-08-17T07:43:49.569Z</time>
      </trkpt>
      <trkpt lat="44.25069" lon="0.86498">
        <ele>217</ele>
        <time>2025-08-17T07:43:50.569Z</time>
      </trkpt>
      <trkpt lat="44.2507" lon="0.86499">
        <ele>217</ele>
        <time>2025-08-17T07:43:51.569Z</time>
      </trkpt>
      <trkpt lat="44.25071" lon="0.86499">
        <ele>218</ele>
        <time>2025-08-17T07:43:52.569Z</time>
      </trkpt>
      <trkpt lat="44.25072" lon="0.865">
        <ele>218</ele>
        <time>2025-08-17T07:43:53.569Z</time>
      </trkpt>
      <trkpt lat="44.25073" lon="0.86501">
        <ele>219</ele>
        <time>2025-08-17T07:43:54.569Z</time>
      </trkpt>
      <trkpt lat="44.25074" lon="0.86502">
        <ele>219</ele>
        <time>2025-08-17T07:43:55.569Z</time>
      </trkpt>
      <trkpt lat="44.25075" lon="0.86502">
        <ele>218</ele>
        <time>2025-08-17T07:43:56.569Z</time>
      </trkpt>
      <trkpt lat="44.25076" lon="0.86503">
        <ele>218</ele>
        <time>2025-08-17T07:43:57.569Z</time>
      </trkpt>
      <trkpt lat="44.25077" lon="0.86504">
        <ele>218</ele>
        <time>2025-08-17T07:43:58.569Z</time>
      </trkpt>
      <trkpt lat="44.25078" lon="0.86504">
        <ele>218</ele>
        <time>2025-08-17T07:43:59.569Z</time>
      </trkpt>
      <trkpt lat="44.25079" lon="0.86505">
        <ele>219</ele>
        <time>2025-08-17T07:44:00.569Z</time>
      </trkpt>
      <trkpt lat="44.2508" lon="0.86506">
        <ele>219</ele>
        <time>2025-08-17T07:44:01.569Z</time>
      </trkpt>
      <trkpt lat="44.25081" lon="0.86506">
        <ele>219</ele>
        <time>2025-08-17T07:44:02.569Z</time>
      </trkpt>
      <trkpt lat="44.25082" lon="0.86507">
        <ele>219</ele>
        <time>2025-08-17T07:44:03.569Z</time>
      </trkpt>
      <trkpt lat="44.25083" lon="0.86508">
        <ele>218</ele>
        <time>2025-08-17T07:44:04.569Z</time>
      </trkpt>
      <trkpt lat="44.25084" lon="0.86509">
        <ele>218</ele>
        <time>2025-08-17T07:44:05.569Z</time>
      </trkpt>
      <trkpt lat="44.25084" lon="0.8651">
        <ele>218</ele>
        <time>2025-08-17T07:44:06.569Z</time>
      </trkpt>
      <trkpt lat="44.25085" lon="0.86511">
        <ele>218</ele>
        <time>2025-08-17T07:44:07.569Z</time>
      </trkpt>
      <trkpt lat="44.25086" lon="0.86512">
        <ele>218</ele>
        <time>2025-08-17T07:44:08.569Z</time>
      </trkpt>
      <trkpt lat="44.25087" lon="0.86512">
        <ele>218</ele>
        <time>2025-08-17T07:44:09.569Z</time>
      </trkpt>
      <trkpt lat="44.25088" lon="0.86513">
        <ele>218</ele>
        <time>2025-08-17T07:44:10.569Z</time>
      </trkpt>
      <trkpt lat="44.25089" lon="0.86514">
        <ele>217</ele>
        <time>2025-08-17T07:44:11.569Z</time>
      </trkpt>
      <trkpt lat="44.2509" lon="0.86515">
        <ele>217</ele>
        <time>2025-08-17T07:44:12.569Z</time>
      </trkpt>
      <trkpt lat="44.25091" lon="0.86516">
        <ele>217</ele>
        <time>2025-08-17T07:44:13.569Z</time>
      </trkpt>
      <trkpt lat="44.25092" lon="0.86516">
        <ele>217</ele>
        <time>2025-08-17T07:44:14.569Z</time>
      </trkpt>
      <trkpt lat="44.25093" lon="0.86517">
        <ele>217</ele>
        <time>2025-08-17T07:44:15.569Z</time>
      </trkpt>
      <trkpt lat="44.25093" lon="0.86518">
        <ele>217</ele>
        <time>2025-08-17T07:44:16.569Z</time>
      </trkpt>
      <trkpt lat="44.25094" lon="0.86519">
        <ele>216</ele>
        <time>2025-08-17T07:44:17.569Z</time>
      </trkpt>
      <trkpt lat="44.25095" lon="0.8652">
        <ele>216</ele>
        <time>2025-08-17T07:44:18.569Z</time>
      </trkpt>
      <trkpt lat="44.25096" lon="0.8652">
        <ele>216</ele>
        <time>2025-08-17T07:44:19.569Z</time>
      </trkpt>
      <trkpt lat="44.25097" lon="0.86521">
        <ele>216</ele>
        <time>2025-08-17T07:44:20.569Z</time>
      </trkpt>
      <trkpt lat="44.25098" lon="0.86521">
        <ele>216</ele>
        <time>2025-08-17T07:44:21.569Z</time>
      </trkpt>
      <trkpt lat="44.25098" lon="0.86522">
        <ele>215</ele>
        <time>2025-08-17T07:44:22.569Z</time>
      </trkpt>
      <trkpt lat="44.25099" lon="0.86523">
        <ele>215</ele>
        <time>2025-08-17T07:44:23.569Z</time>
      </trkpt>
      <trkpt lat="44.251" lon="0.86524">
        <ele>215</ele>
        <time>2025-08-17T07:44:24.569Z</time>
      </trkpt>
      <trkpt lat="44.25101" lon="0.86525">
        <ele>215</ele>
        <time>2025-08-17T07:44:25.569Z</time>
      </trkpt>
      <trkpt lat="44.25102" lon="0.86525">
        <ele>215</ele>
        <time>2025-08-17T07:44:26.569Z</time>
      </trkpt>
      <trkpt lat="44.25103" lon="0.86526">
        <ele>215</ele>
        <time>2025-08-17T07:44:27.569Z</time>
      </trkpt>
      <trkpt lat="44.25103" lon="0.86527">
        <ele>215</ele>
        <time>2025-08-17T07:44:28.569Z</time>
      </trkpt>
      <trkpt lat="44.25104" lon="0.86528">
        <ele>215</ele>
        <time>2025-08-17T07:44:29.569Z</time>
      </trkpt>
      <trkpt lat="44.25105" lon="0.86529">
        <ele>215</ele>
        <time>2025-08-17T07:44:30.569Z</time>
      </trkpt>
      <trkpt lat="44.25106" lon="0.8653">
        <ele>215</ele>
        <time>2025-08-17T07:44:31.569Z</time>
      </trkpt>
      <trkpt lat="44.25107" lon="0.86531">
        <ele>214</ele>
        <time>2025-08-17T07:44:32.569Z</time>
      </trkpt>
      <trkpt lat="44.25108" lon="0.86532">
        <ele>214</ele>
        <time>2025-08-17T07:44:33.569Z</time>
      </trkpt>
      <trkpt lat="44.25109" lon="0.86532">
        <ele>215</ele>
        <time>2025-08-17T07:44:34.569Z</time>
      </trkpt>
      <trkpt lat="44.2511" lon="0.86533">
        <ele>215</ele>
        <time>2025-08-17T07:44:35.569Z</time>
      </trkpt>
      <trkpt lat="44.25111" lon="0.86534">
        <ele>215</ele>
        <time>2025-08-17T07:44:36.569Z</time>
      </trkpt>
      <trkpt lat="44.25112" lon="0.86535">
        <ele>215</ele>
        <time>2025-08-17T07:44:37.569Z</time>
      </trkpt>
      <trkpt lat="44.25113" lon="0.86536">
        <ele>215</ele>
        <time>2025-08-17T07:44:38.569Z</time>
      </trkpt>
      <trkpt lat="44.25114" lon="0.86537">
        <ele>215</ele>
        <time>2025-08-17T07:44:39.569Z</time>
      </trkpt>
      <trkpt lat="44.25115" lon="0.86537">
        <ele>216</ele>
        <time>2025-08-17T07:44:40.569Z</time>
      </trkpt>
      <trkpt lat="44.25116" lon="0.86538">
        <ele>216</ele>
        <time>2025-08-17T07:44:41.569Z</time>
      </trkpt>
      <trkpt lat="44.25118" lon="0.8654">
        <ele>216</ele>
        <time>2025-08-17T07:44:42.569Z</time>
      </trkpt>
      <trkpt lat="44.25119" lon="0.86541">
        <ele>216</ele>
        <time>2025-08-17T07:44:43.569Z</time>
      </trkpt>
      <trkpt lat="44.2512" lon="0.86541">
        <ele>215</ele>
        <time>2025-08-17T07:44:44.569Z</time>
      </trkpt>
      <trkpt lat="44.25121" lon="0.86542">
        <ele>215</ele>
        <time>2025-08-17T07:44:45.569Z</time>
      </trkpt>
      <trkpt lat="44.25121" lon="0.86543">
        <ele>215</ele>
        <time>2025-08-17T07:44:46.569Z</time>
      </trkpt>
      <trkpt lat="44.25122" lon="0.86544">
        <ele>215</ele>
        <time>2025-08-17T07:44:47.569Z</time>
      </trkpt>
      <trkpt lat="44.25123" lon="0.86545">
        <ele>215</ele>
        <time>2025-08-17T07:44:48.569Z</time>
      </trkpt>
      <trkpt lat="44.25125" lon="0.86545">
        <ele>215</ele>
        <time>2025-08-17T07:44:49.569Z</time>
      </trkpt>
      <trkpt lat="44.25126" lon="0.86546">
        <ele>215</ele>
        <time>2025-08-17T07:44:50.569Z</time>
      </trkpt>
      <trkpt lat="44.25126" lon="0.86547">
        <ele>215</ele>
        <time>2025-08-17T07:44:51.569Z</time>
      </trkpt>
      <trkpt lat="44.25127" lon="0.86548">
        <ele>215</ele>
        <time>2025-08-17T07:44:52.569Z</time>
      </trkpt>
      <trkpt lat="44.25128" lon="0.86548">
        <ele>216</ele>
        <time>2025-08-17T07:44:53.569Z</time>
      </trkpt>
      <trkpt lat="44.25129" lon="0.86549">
        <ele>216</ele>
        <time>2025-08-17T07:44:54.569Z</time>
      </trkpt>
      <trkpt lat="44.2513" lon="0.8655">
        <ele>216</ele>
        <time>2025-08-17T07:44:55.569Z</time>
      </trkpt>
      <trkpt lat="44.25131" lon="0.86551">
        <ele>216</ele>
        <time>2025-08-17T07:44:56.569Z</time>
      </trkpt>
      <trkpt lat="44.25132" lon="0.86551">
        <ele>216</ele>
        <time>2025-08-17T07:44:57.569Z</time>
      </trkpt>
      <trkpt lat="44.25133" lon="0.86552">
        <ele>216</ele>
        <time>2025-08-17T07:44:58.569Z</time>
      </trkpt>
      <trkpt lat="44.25134" lon="0.86553">
        <ele>216</ele>
        <time>2025-08-17T07:44:59.569Z</time>
      </trkpt>
      <trkpt lat="44.25135" lon="0.86554">
        <ele>216</ele>
        <time>2025-08-17T07:45:00.569Z</time>
      </trkpt>
      <trkpt lat="44.25136" lon="0.86554">
        <ele>216</ele>
        <time>2025-08-17T07:45:01.569Z</time>
      </trkpt>
      <trkpt lat="44.25137" lon="0.86555">
        <ele>217</ele>
        <time>2025-08-17T07:45:02.569Z</time>
      </trkpt>
      <trkpt lat="44.25138" lon="0.86556">
        <ele>217</ele>
        <time>2025-08-17T07:45:03.569Z</time>
      </trkpt>
      <trkpt lat="44.25139" lon="0.86557">
        <ele>217</ele>
        <time>2025-08-17T07:45:04.569Z</time>
      </trkpt>
      <trkpt lat="44.2514" lon="0.86558">
        <ele>217</ele>
        <time>2025-08-17T07:45:05.569Z</time>
      </trkpt>
      <trkpt lat="44.25141" lon="0.86559">
        <ele>217</ele>
        <time>2025-08-17T07:45:06.569Z</time>
      </trkpt>
      <trkpt lat="44.25142" lon="0.86559">
        <ele>217</ele>
        <time>2025-08-17T07:45:07.569Z</time>
      </trkpt>
      <trkpt lat="44.25143" lon="0.8656">
        <ele>217</ele>
        <time>2025-08-17T07:45:08.569Z</time>
      </trkpt>
      <trkpt lat="44.25144" lon="0.86561">
        <ele>218</ele>
        <time>2025-08-17T07:45:09.569Z</time>
      </trkpt>
      <trkpt lat="44.25145" lon="0.86561">
        <ele>218</ele>
        <time>2025-08-17T07:45:10.569Z</time>
      </trkpt>
      <trkpt lat="44.25146" lon="0.86562">
        <ele>218</ele>
        <time>2025-08-17T07:45:11.569Z</time>
      </trkpt>
      <trkpt lat="44.25147" lon="0.86563">
        <ele>218</ele>
        <time>2025-08-17T07:45:12.569Z</time>
      </trkpt>
      <trkpt lat="44.25147" lon="0.86563">
        <ele>218</ele>
        <time>2025-08-17T07:45:13.569Z</time>
      </trkpt>
      <trkpt lat="44.25148" lon="0.86564">
        <ele>218</ele>
        <time>2025-08-17T07:45:14.569Z</time>
      </trkpt>
      <trkpt lat="44.25149" lon="0.86564">
        <ele>218</ele>
        <time>2025-08-17T07:45:15.569Z</time>
      </trkpt>
      <trkpt lat="44.2515" lon="0.86565">
        <ele>218</ele>
        <time>2025-08-17T07:45:16.569Z</time>
      </trkpt>
      <trkpt lat="44.25151" lon="0.86565">
        <ele>217</ele>
        <time>2025-08-17T07:45:17.569Z</time>
      </trkpt>
      <trkpt lat="44.25152" lon="0.86565">
        <ele>217</ele>
        <time>2025-08-17T07:45:18.569Z</time>
      </trkpt>
      <trkpt lat="44.25154" lon="0.86565">
        <ele>218</ele>
        <time>2025-08-17T07:45:19.569Z</time>
      </trkpt>
      <trkpt lat="44.25155" lon="0.86565">
        <ele>218</ele>
        <time>2025-08-17T07:45:20.569Z</time>
      </trkpt>
      <trkpt lat="44.25156" lon="0.86565">
        <ele>218</ele>
        <time>2025-08-17T07:45:21.569Z</time>
      </trkpt>
      <trkpt lat="44.25157" lon="0.86565">
        <ele>218</ele>
        <time>2025-08-17T07:45:22.569Z</time>
      </trkpt>
      <trkpt lat="44.25158" lon="0.86566">
        <ele>219</ele>
        <time>2025-08-17T07:45:23.569Z</time>
      </trkpt>
      <trkpt lat="44.25159" lon="0.86566">
        <ele>219</ele>
        <time>2025-08-17T07:45:24.569Z</time>
      </trkpt>
      <trkpt lat="44.2516" lon="0.86566">
        <ele>219</ele>
        <time>2025-08-17T07:45:25.569Z</time>
      </trkpt>
      <trkpt lat="44.25161" lon="0.86566">
        <ele>219</ele>
        <time>2025-08-17T07:45:26.569Z</time>
      </trkpt>
      <trkpt lat="44.25162" lon="0.86566">
        <ele>219</ele>
        <time>2025-08-17T07:45:27.569Z</time>
      </trkpt>
      <trkpt lat="44.25163" lon="0.86566">
        <ele>219</ele>
        <time>2025-08-17T07:45:28.569Z</time>
      </trkpt>
      <trkpt lat="44.25164" lon="0.86566">
        <ele>219</ele>
        <time>2025-08-17T07:45:29.569Z</time>
      </trkpt>
      <trkpt lat="44.25164" lon="0.86565">
        <ele>219</ele>
        <time>2025-08-17T07:45:30.569Z</time>
      </trkpt>
      <trkpt lat="44.25165" lon="0.86565">
        <ele>219</ele>
        <time>2025-08-17T07:45:31.569Z</time>
      </trkpt>
      <trkpt lat="44.25166" lon="0.86565">
        <ele>219</ele>
        <time>2025-08-17T07:45:32.569Z</time>
      </trkpt>
      <trkpt lat="44.25167" lon="0.86564">
        <ele>219</ele>
        <time>2025-08-17T07:45:33.569Z</time>
      </trkpt>
      <trkpt lat="44.25168" lon="0.86563">
        <ele>219</ele>
        <time>2025-08-17T07:45:34.569Z</time>
      </trkpt>
      <trkpt lat="44.25168" lon="0.86563">
        <ele>219</ele>
        <time>2025-08-17T07:45:35.569Z</time>
      </trkpt>
      <trkpt lat="44.25169" lon="0.86562">
        <ele>219</ele>
        <time>2025-08-17T07:45:36.569Z</time>
      </trkpt>
      <trkpt lat="44.25169" lon="0.86561">
        <ele>219</ele>
        <time>2025-08-17T07:45:37.569Z</time>
      </trkpt>
      <trkpt lat="44.2517" lon="0.8656">
        <ele>219</ele>
        <time>2025-08-17T07:45:38.569Z</time>
      </trkpt>
      <trkpt lat="44.2517" lon="0.86559">
        <ele>218</ele>
        <time>2025-08-17T07:45:39.569Z</time>
      </trkpt>
      <trkpt lat="44.2517" lon="0.86559">
        <ele>218</ele>
        <time>2025-08-17T07:45:40.569Z</time>
      </trkpt>
      <trkpt lat="44.25171" lon="0.86558">
        <ele>218</ele>
        <time>2025-08-17T07:45:41.569Z</time>
      </trkpt>
      <trkpt lat="44.25172" lon="0.86557">
        <ele>218</ele>
        <time>2025-08-17T07:45:42.569Z</time>
      </trkpt>
      <trkpt lat="44.25172" lon="0.86556">
        <ele>218</ele>
        <time>2025-08-17T07:45:43.569Z</time>
      </trkpt>
      <trkpt lat="44.25173" lon="0.86555">
        <ele>218</ele>
        <time>2025-08-17T07:45:44.569Z</time>
      </trkpt>
      <trkpt lat="44.25174" lon="0.86554">
        <ele>217</ele>
        <time>2025-08-17T07:45:45.569Z</time>
      </trkpt>
      <trkpt lat="44.25175" lon="0.86554">
        <ele>217</ele>
        <time>2025-08-17T07:45:46.569Z</time>
      </trkpt>
      <trkpt lat="44.25176" lon="0.86553">
        <ele>217</ele>
        <time>2025-08-17T07:45:47.569Z</time>
      </trkpt>
      <trkpt lat="44.25176" lon="0.86552">
        <ele>217</ele>
        <time>2025-08-17T07:45:48.569Z</time>
      </trkpt>
      <trkpt lat="44.25177" lon="0.86551">
        <ele>217</ele>
        <time>2025-08-17T07:45:49.569Z</time>
      </trkpt>
      <trkpt lat="44.25178" lon="0.8655">
        <ele>217</ele>
        <time>2025-08-17T07:45:50.569Z</time>
      </trkpt>
      <trkpt lat="44.25179" lon="0.8655">
        <ele>217</ele>
        <time>2025-08-17T07:45:51.569Z</time>
      </trkpt>
      <trkpt lat="44.25179" lon="0.86549">
        <ele>217</ele>
        <time>2025-08-17T07:45:52.569Z</time>
      </trkpt>
      <trkpt lat="44.2518" lon="0.86549">
        <ele>217</ele>
        <time>2025-08-17T07:45:53.569Z</time>
      </trkpt>
      <trkpt lat="44.2518" lon="0.86549">
        <ele>217</ele>
        <time>2025-08-17T07:45:54.569Z</time>
      </trkpt>
      <trkpt lat="44.2518" lon="0.86549">
        <ele>216</ele>
        <time>2025-08-17T07:45:55.569Z</time>
      </trkpt>
      <trkpt lat="44.2518" lon="0.86549">
        <ele>216</ele>
        <time>2025-08-17T07:45:56.569Z</time>
      </trkpt>
      <trkpt lat="44.2518" lon="0.86549">
        <ele>216</ele>
        <time>2025-08-17T07:45:57.569Z</time>
      </trkpt>
      <trkpt lat="44.25181" lon="0.86549">
        <ele>216</ele>
        <time>2025-08-17T07:45:58.569Z</time>
      </trkpt>
      <trkpt lat="44.25181" lon="0.86549">
        <ele>216</ele>
        <time>2025-08-17T07:45:59.569Z</time>
      </trkpt>
      <trkpt lat="44.25182" lon="0.86548">
        <ele>217</ele>
        <time>2025-08-17T07:46:00.569Z</time>
      </trkpt>
      <trkpt lat="44.25182" lon="0.86547">
        <ele>217</ele>
        <time>2025-08-17T07:46:01.569Z</time>
      </trkpt>
      <trkpt lat="44.25183" lon="0.86545">
        <ele>217</ele>
        <time>2025-08-17T07:46:02.569Z</time>
      </trkpt>
      <trkpt lat="44.25184" lon="0.86544">
        <ele>217</ele>
        <time>2025-08-17T07:46:03.569Z</time>
      </trkpt>
      <trkpt lat="44.25184" lon="0.86544">
        <ele>217</ele>
        <time>2025-08-17T07:46:04.569Z</time>
      </trkpt>
      <trkpt lat="44.25185" lon="0.86543">
        <ele>217</ele>
        <time>2025-08-17T07:46:05.569Z</time>
      </trkpt>
      <trkpt lat="44.25186" lon="0.86542">
        <ele>217</ele>
        <time>2025-08-17T07:46:06.569Z</time>
      </trkpt>
      <trkpt lat="44.25187" lon="0.8654">
        <ele>217</ele>
        <time>2025-08-17T07:46:07.569Z</time>
      </trkpt>
      <trkpt lat="44.25188" lon="0.86539">
        <ele>217</ele>
        <time>2025-08-17T07:46:08.569Z</time>
      </trkpt>
      <trkpt lat="44.25189" lon="0.86539">
        <ele>217</ele>
        <time>2025-08-17T07:46:09.569Z</time>
      </trkpt>
      <trkpt lat="44.25189" lon="0.86538">
        <ele>217</ele>
        <time>2025-08-17T07:46:10.569Z</time>
      </trkpt>
      <trkpt lat="44.2519" lon="0.86537">
        <ele>217</ele>
        <time>2025-08-17T07:46:11.569Z</time>
      </trkpt>
      <trkpt lat="44.25191" lon="0.86537">
        <ele>216</ele>
        <time>2025-08-17T07:46:12.569Z</time>
      </trkpt>
      <trkpt lat="44.25192" lon="0.86536">
        <ele>216</ele>
        <time>2025-08-17T07:46:13.569Z</time>
      </trkpt>
      <trkpt lat="44.25193" lon="0.86535">
        <ele>216</ele>
        <time>2025-08-17T07:46:14.569Z</time>
      </trkpt>
      <trkpt lat="44.25194" lon="0.86534">
        <ele>217</ele>
        <time>2025-08-17T07:46:15.569Z</time>
      </trkpt>
      <trkpt lat="44.25194" lon="0.86533">
        <ele>217</ele>
        <time>2025-08-17T07:46:16.569Z</time>
      </trkpt>
      <trkpt lat="44.25195" lon="0.86532">
        <ele>218</ele>
        <time>2025-08-17T07:46:17.569Z</time>
      </trkpt>
      <trkpt lat="44.25196" lon="0.86531">
        <ele>218</ele>
        <time>2025-08-17T07:46:18.569Z</time>
      </trkpt>
      <trkpt lat="44.25197" lon="0.8653">
        <ele>219</ele>
        <time>2025-08-17T07:46:19.569Z</time>
      </trkpt>
      <trkpt lat="44.25197" lon="0.86529">
        <ele>219</ele>
        <time>2025-08-17T07:46:20.569Z</time>
      </trkpt>
      <trkpt lat="44.25198" lon="0.86529">
        <ele>220</ele>
        <time>2025-08-17T07:46:21.569Z</time>
      </trkpt>
      <trkpt lat="44.25199" lon="0.86528">
        <ele>220</ele>
        <time>2025-08-17T07:46:22.569Z</time>
      </trkpt>
      <trkpt lat="44.252" lon="0.86527">
        <ele>220</ele>
        <time>2025-08-17T07:46:23.569Z</time>
      </trkpt>
      <trkpt lat="44.25201" lon="0.86526">
        <ele>220</ele>
        <time>2025-08-17T07:46:24.569Z</time>
      </trkpt>
      <trkpt lat="44.25202" lon="0.86525">
        <ele>220</ele>
        <time>2025-08-17T07:46:25.569Z</time>
      </trkpt>
      <trkpt lat="44.25203" lon="0.86524">
        <ele>221</ele>
        <time>2025-08-17T07:46:26.569Z</time>
      </trkpt>
      <trkpt lat="44.25204" lon="0.86523">
        <ele>221</ele>
        <time>2025-08-17T07:46:27.569Z</time>
      </trkpt>
      <trkpt lat="44.25205" lon="0.86522">
        <ele>220</ele>
        <time>2025-08-17T07:46:28.569Z</time>
      </trkpt>
      <trkpt lat="44.25205" lon="0.86522">
        <ele>220</ele>
        <time>2025-08-17T07:46:29.569Z</time>
      </trkpt>
      <trkpt lat="44.25206" lon="0.86521">
        <ele>220</ele>
        <time>2025-08-17T07:46:30.569Z</time>
      </trkpt>
      <trkpt lat="44.25207" lon="0.8652">
        <ele>220</ele>
        <time>2025-08-17T07:46:31.569Z</time>
      </trkpt>
      <trkpt lat="44.25208" lon="0.8652">
        <ele>220</ele>
        <time>2025-08-17T07:46:32.569Z</time>
      </trkpt>
      <trkpt lat="44.25209" lon="0.86519">
        <ele>220</ele>
        <time>2025-08-17T07:46:33.569Z</time>
      </trkpt>
      <trkpt lat="44.2521" lon="0.86518">
        <ele>220</ele>
        <time>2025-08-17T07:46:34.569Z</time>
      </trkpt>
      <trkpt lat="44.25211" lon="0.86517">
        <ele>220</ele>
        <time>2025-08-17T07:46:35.569Z</time>
      </trkpt>
      <trkpt lat="44.25211" lon="0.86517">
        <ele>220</ele>
        <time>2025-08-17T07:46:36.569Z</time>
      </trkpt>
      <trkpt lat="44.25213" lon="0.86516">
        <ele>220</ele>
        <time>2025-08-17T07:46:37.569Z</time>
      </trkpt>
      <trkpt lat="44.25213" lon="0.86515">
        <ele>220</ele>
        <time>2025-08-17T07:46:38.569Z</time>
      </trkpt>
      <trkpt lat="44.25214" lon="0.86514">
        <ele>220</ele>
        <time>2025-08-17T07:46:39.569Z</time>
      </trkpt>
      <trkpt lat="44.25215" lon="0.86513">
        <ele>220</ele>
        <time>2025-08-17T07:46:40.569Z</time>
      </trkpt>
      <trkpt lat="44.25216" lon="0.86512">
        <ele>220</ele>
        <time>2025-08-17T07:46:41.569Z</time>
      </trkpt>
      <trkpt lat="44.25217" lon="0.86512">
        <ele>220</ele>
        <time>2025-08-17T07:46:42.569Z</time>
      </trkpt>
      <trkpt lat="44.25218" lon="0.86511">
        <ele>220</ele>
        <time>2025-08-17T07:46:43.569Z</time>
      </trkpt>
      <trkpt lat="44.25219" lon="0.86511">
        <ele>220</ele>
        <time>2025-08-17T07:46:44.569Z</time>
      </trkpt>
      <trkpt lat="44.2522" lon="0.86512">
        <ele>220</ele>
        <time>2025-08-17T07:46:45.569Z</time>
      </trkpt>
      <trkpt lat="44.25221" lon="0.86512">
        <ele>219</ele>
        <time>2025-08-17T07:46:46.569Z</time>
      </trkpt>
      <trkpt lat="44.25221" lon="0.86512">
        <ele>219</ele>
        <time>2025-08-17T07:46:47.569Z</time>
      </trkpt>
      <trkpt lat="44.25221" lon="0.86511">
        <ele>218</ele>
        <time>2025-08-17T07:46:48.569Z</time>
      </trkpt>
      <trkpt lat="44.25221" lon="0.86511">
        <ele>218</ele>
        <time>2025-08-17T07:46:49.569Z</time>
      </trkpt>
      <trkpt lat="44.25221" lon="0.86509">
        <ele>218</ele>
        <time>2025-08-17T07:46:50.569Z</time>
      </trkpt>
      <trkpt lat="44.25221" lon="0.86508">
        <ele>217</ele>
        <time>2025-08-17T07:46:51.569Z</time>
      </trkpt>
      <trkpt lat="44.25222" lon="0.86507">
        <ele>217</ele>
        <time>2025-08-17T07:46:52.569Z</time>
      </trkpt>
      <trkpt lat="44.25223" lon="0.86505">
        <ele>217</ele>
        <time>2025-08-17T07:46:53.569Z</time>
      </trkpt>
      <trkpt lat="44.25224" lon="0.86504">
        <ele>217</ele>
        <time>2025-08-17T07:46:54.569Z</time>
      </trkpt>
      <trkpt lat="44.25225" lon="0.86503">
        <ele>217</ele>
        <time>2025-08-17T07:46:55.569Z</time>
      </trkpt>
      <trkpt lat="44.25226" lon="0.86502">
        <ele>217</ele>
        <time>2025-08-17T07:46:56.569Z</time>
      </trkpt>
      <trkpt lat="44.25227" lon="0.865">
        <ele>217</ele>
        <time>2025-08-17T07:46:57.569Z</time>
      </trkpt>
      <trkpt lat="44.25228" lon="0.865">
        <ele>217</ele>
        <time>2025-08-17T07:46:58.569Z</time>
      </trkpt>
      <trkpt lat="44.25229" lon="0.86498">
        <ele>217</ele>
        <time>2025-08-17T07:46:59.569Z</time>
      </trkpt>
      <trkpt lat="44.25231" lon="0.86498">
        <ele>217</ele>
        <time>2025-08-17T07:47:00.569Z</time>
      </trkpt>
      <trkpt lat="44.25231" lon="0.86496">
        <ele>217</ele>
        <time>2025-08-17T07:47:01.569Z</time>
      </trkpt>
      <trkpt lat="44.25232" lon="0.86496">
        <ele>217</ele>
        <time>2025-08-17T07:47:02.569Z</time>
      </trkpt>
      <trkpt lat="44.25233" lon="0.86495">
        <ele>217</ele>
        <time>2025-08-17T07:47:03.569Z</time>
      </trkpt>
      <trkpt lat="44.25234" lon="0.86494">
        <ele>217</ele>
        <time>2025-08-17T07:47:04.569Z</time>
      </trkpt>
      <trkpt lat="44.25235" lon="0.86493">
        <ele>218</ele>
        <time>2025-08-17T07:47:05.569Z</time>
      </trkpt>
      <trkpt lat="44.25236" lon="0.86492">
        <ele>218</ele>
        <time>2025-08-17T07:47:06.569Z</time>
      </trkpt>
      <trkpt lat="44.25237" lon="0.86491">
        <ele>219</ele>
        <time>2025-08-17T07:47:07.569Z</time>
      </trkpt>
      <trkpt lat="44.25238" lon="0.86489">
        <ele>218</ele>
        <time>2025-08-17T07:47:08.569Z</time>
      </trkpt>
      <trkpt lat="44.25239" lon="0.86488">
        <ele>218</ele>
        <time>2025-08-17T07:47:09.569Z</time>
      </trkpt>
      <trkpt lat="44.2524" lon="0.86487">
        <ele>219</ele>
        <time>2025-08-17T07:47:10.569Z</time>
      </trkpt>
      <trkpt lat="44.25241" lon="0.86486">
        <ele>219</ele>
        <time>2025-08-17T07:47:11.569Z</time>
      </trkpt>
      <trkpt lat="44.25242" lon="0.86484">
        <ele>219</ele>
        <time>2025-08-17T07:47:12.569Z</time>
      </trkpt>
      <trkpt lat="44.25243" lon="0.86483">
        <ele>219</ele>
        <time>2025-08-17T07:47:13.569Z</time>
      </trkpt>
      <trkpt lat="44.25245" lon="0.86482">
        <ele>219</ele>
        <time>2025-08-17T07:47:14.569Z</time>
      </trkpt>
      <trkpt lat="44.25246" lon="0.86481">
        <ele>220</ele>
        <time>2025-08-17T07:47:15.569Z</time>
      </trkpt>
      <trkpt lat="44.25246" lon="0.8648">
        <ele>220</ele>
        <time>2025-08-17T07:47:16.569Z</time>
      </trkpt>
      <trkpt lat="44.25247" lon="0.8648">
        <ele>220</ele>
        <time>2025-08-17T07:47:17.569Z</time>
      </trkpt>
      <trkpt lat="44.25248" lon="0.86479">
        <ele>219</ele>
        <time>2025-08-17T07:47:18.569Z</time>
      </trkpt>
      <trkpt lat="44.25249" lon="0.86478">
        <ele>219</ele>
        <time>2025-08-17T07:47:19.569Z</time>
      </trkpt>
      <trkpt lat="44.2525" lon="0.86477">
        <ele>219</ele>
        <time>2025-08-17T07:47:20.569Z</time>
      </trkpt>
      <trkpt lat="44.25252" lon="0.86476">
        <ele>219</ele>
        <time>2025-08-17T07:47:21.569Z</time>
      </trkpt>
      <trkpt lat="44.25253" lon="0.86474">
        <ele>219</ele>
        <time>2025-08-17T07:47:22.569Z</time>
      </trkpt>
      <trkpt lat="44.25254" lon="0.86473">
        <ele>219</ele>
        <time>2025-08-17T07:47:23.569Z</time>
      </trkpt>
      <trkpt lat="44.25254" lon="0.86472">
        <ele>219</ele>
        <time>2025-08-17T07:47:24.569Z</time>
      </trkpt>
      <trkpt lat="44.25255" lon="0.86471">
        <ele>219</ele>
        <time>2025-08-17T07:47:25.569Z</time>
      </trkpt>
      <trkpt lat="44.25256" lon="0.86469">
        <ele>218</ele>
        <time>2025-08-17T07:47:26.569Z</time>
      </trkpt>
      <trkpt lat="44.25257" lon="0.86468">
        <ele>218</ele>
        <time>2025-08-17T07:47:27.569Z</time>
      </trkpt>
      <trkpt lat="44.25257" lon="0.86467">
        <ele>218</ele>
        <time>2025-08-17T07:47:28.569Z</time>
      </trkpt>
      <trkpt lat="44.25258" lon="0.86465">
        <ele>217</ele>
        <time>2025-08-17T07:47:29.569Z</time>
      </trkpt>
      <trkpt lat="44.2526" lon="0.86464">
        <ele>217</ele>
        <time>2025-08-17T07:47:30.569Z</time>
      </trkpt>
      <trkpt lat="44.2526" lon="0.86463">
        <ele>217</ele>
        <time>2025-08-17T07:47:31.569Z</time>
      </trkpt>
      <trkpt lat="44.25261" lon="0.86462">
        <ele>217</ele>
        <time>2025-08-17T07:47:32.569Z</time>
      </trkpt>
      <trkpt lat="44.25261" lon="0.86461">
        <ele>217</ele>
        <time>2025-08-17T07:47:33.569Z</time>
      </trkpt>
      <trkpt lat="44.25262" lon="0.8646">
        <ele>217</ele>
        <time>2025-08-17T07:47:34.569Z</time>
      </trkpt>
      <trkpt lat="44.25263" lon="0.86459">
        <ele>217</ele>
        <time>2025-08-17T07:47:35.569Z</time>
      </trkpt>
      <trkpt lat="44.25265" lon="0.86458">
        <ele>217</ele>
        <time>2025-08-17T07:47:36.569Z</time>
      </trkpt>
      <trkpt lat="44.25266" lon="0.86456">
        <ele>217</ele>
        <time>2025-08-17T07:47:37.569Z</time>
      </trkpt>
      <trkpt lat="44.25267" lon="0.86454">
        <ele>217</ele>
        <time>2025-08-17T07:47:38.569Z</time>
      </trkpt>
      <trkpt lat="44.25267" lon="0.86453">
        <ele>217</ele>
        <time>2025-08-17T07:47:39.569Z</time>
      </trkpt>
      <trkpt lat="44.25268" lon="0.86451">
        <ele>217</ele>
        <time>2025-08-17T07:47:40.569Z</time>
      </trkpt>
      <trkpt lat="44.25269" lon="0.8645">
        <ele>217</ele>
        <time>2025-08-17T07:47:41.569Z</time>
      </trkpt>
      <trkpt lat="44.2527" lon="0.86449">
        <ele>217</ele>
        <time>2025-08-17T07:47:42.569Z</time>
      </trkpt>
      <trkpt lat="44.25272" lon="0.86447">
        <ele>217</ele>
        <time>2025-08-17T07:47:43.569Z</time>
      </trkpt>
      <trkpt lat="44.25272" lon="0.86445">
        <ele>217</ele>
        <time>2025-08-17T07:47:44.569Z</time>
      </trkpt>
      <trkpt lat="44.25273" lon="0.86444">
        <ele>217</ele>
        <time>2025-08-17T07:47:45.569Z</time>
      </trkpt>
      <trkpt lat="44.25274" lon="0.86443">
        <ele>217</ele>
        <time>2025-08-17T07:47:46.569Z</time>
      </trkpt>
      <trkpt lat="44.25275" lon="0.86442">
        <ele>218</ele>
        <time>2025-08-17T07:47:47.569Z</time>
      </trkpt>
      <trkpt lat="44.25276" lon="0.86441">
        <ele>218</ele>
        <time>2025-08-17T07:47:48.569Z</time>
      </trkpt>
      <trkpt lat="44.25276" lon="0.86439">
        <ele>218</ele>
        <time>2025-08-17T07:47:49.569Z</time>
      </trkpt>
      <trkpt lat="44.25277" lon="0.86438">
        <ele>218</ele>
        <time>2025-08-17T07:47:50.569Z</time>
      </trkpt>
      <trkpt lat="44.25278" lon="0.86437">
        <ele>218</ele>
        <time>2025-08-17T07:47:51.569Z</time>
      </trkpt>
      <trkpt lat="44.25279" lon="0.86436">
        <ele>219</ele>
        <time>2025-08-17T07:47:52.569Z</time>
      </trkpt>
      <trkpt lat="44.2528" lon="0.86435">
        <ele>219</ele>
        <time>2025-08-17T07:47:53.569Z</time>
      </trkpt>
      <trkpt lat="44.25281" lon="0.86434">
        <ele>219</ele>
        <time>2025-08-17T07:47:54.569Z</time>
      </trkpt>
      <trkpt lat="44.25282" lon="0.86433">
        <ele>219</ele>
        <time>2025-08-17T07:47:55.569Z</time>
      </trkpt>
      <trkpt lat="44.25283" lon="0.86431">
        <ele>219</ele>
        <time>2025-08-17T07:47:56.569Z</time>
      </trkpt>
      <trkpt lat="44.25284" lon="0.8643">
        <ele>219</ele>
        <time>2025-08-17T07:47:57.569Z</time>
      </trkpt>
      <trkpt lat="44.25285" lon="0.86429">
        <ele>219</ele>
        <time>2025-08-17T07:47:58.569Z</time>
      </trkpt>
      <trkpt lat="44.25285" lon="0.86428">
        <ele>219</ele>
        <time>2025-08-17T07:47:59.569Z</time>
      </trkpt>
      <trkpt lat="44.25286" lon="0.86427">
        <ele>219</ele>
        <time>2025-08-17T07:48:00.569Z</time>
      </trkpt>
      <trkpt lat="44.25287" lon="0.86426">
        <ele>219</ele>
        <time>2025-08-17T07:48:01.569Z</time>
      </trkpt>
      <trkpt lat="44.25287" lon="0.86425">
        <ele>219</ele>
        <time>2025-08-17T07:48:02.569Z</time>
      </trkpt>
      <trkpt lat="44.25288" lon="0.86424">
        <ele>219</ele>
        <time>2025-08-17T07:48:03.569Z</time>
      </trkpt>
      <trkpt lat="44.25289" lon="0.86422">
        <ele>219</ele>
        <time>2025-08-17T07:48:04.569Z</time>
      </trkpt>
      <trkpt lat="44.2529" lon="0.86421">
        <ele>219</ele>
        <time>2025-08-17T07:48:05.569Z</time>
      </trkpt>
      <trkpt lat="44.25291" lon="0.8642">
        <ele>219</ele>
        <time>2025-08-17T07:48:06.569Z</time>
      </trkpt>
      <trkpt lat="44.25292" lon="0.86418">
        <ele>219</ele>
        <time>2025-08-17T07:48:07.569Z</time>
      </trkpt>
      <trkpt lat="44.25293" lon="0.86417">
        <ele>219</ele>
        <time>2025-08-17T07:48:08.569Z</time>
      </trkpt>
      <trkpt lat="44.25293" lon="0.86415">
        <ele>220</ele>
        <time>2025-08-17T07:48:09.569Z</time>
      </trkpt>
      <trkpt lat="44.25294" lon="0.86414">
        <ele>220</ele>
        <time>2025-08-17T07:48:10.569Z</time>
      </trkpt>
      <trkpt lat="44.25294" lon="0.86413">
        <ele>219</ele>
        <time>2025-08-17T07:48:11.569Z</time>
      </trkpt>
      <trkpt lat="44.25295" lon="0.86411">
        <ele>219</ele>
        <time>2025-08-17T07:48:12.569Z</time>
      </trkpt>
      <trkpt lat="44.25296" lon="0.86411">
        <ele>219</ele>
        <time>2025-08-17T07:48:13.569Z</time>
      </trkpt>
      <trkpt lat="44.25297" lon="0.8641">
        <ele>219</ele>
        <time>2025-08-17T07:48:14.569Z</time>
      </trkpt>
      <trkpt lat="44.25298" lon="0.86409">
        <ele>219</ele>
        <time>2025-08-17T07:48:15.569Z</time>
      </trkpt>
      <trkpt lat="44.25298" lon="0.86407">
        <ele>220</ele>
        <time>2025-08-17T07:48:16.569Z</time>
      </trkpt>
      <trkpt lat="44.25299" lon="0.86405">
        <ele>220</ele>
        <time>2025-08-17T07:48:17.569Z</time>
      </trkpt>
      <trkpt lat="44.253" lon="0.86404">
        <ele>220</ele>
        <time>2025-08-17T07:48:18.569Z</time>
      </trkpt>
      <trkpt lat="44.253" lon="0.86403">
        <ele>221</ele>
        <time>2025-08-17T07:48:19.569Z</time>
      </trkpt>
      <trkpt lat="44.25301" lon="0.86401">
        <ele>221</ele>
        <time>2025-08-17T07:48:20.569Z</time>
      </trkpt>
      <trkpt lat="44.25301" lon="0.86399">
        <ele>221</ele>
        <time>2025-08-17T07:48:21.569Z</time>
      </trkpt>
      <trkpt lat="44.25302" lon="0.86398">
        <ele>220</ele>
        <time>2025-08-17T07:48:22.569Z</time>
      </trkpt>
      <trkpt lat="44.25302" lon="0.86396">
        <ele>220</ele>
        <time>2025-08-17T07:48:23.569Z</time>
      </trkpt>
      <trkpt lat="44.25303" lon="0.86395">
        <ele>220</ele>
        <time>2025-08-17T07:48:24.569Z</time>
      </trkpt>
      <trkpt lat="44.25304" lon="0.86394">
        <ele>220</ele>
        <time>2025-08-17T07:48:25.569Z</time>
      </trkpt>
      <trkpt lat="44.25304" lon="0.86392">
        <ele>220</ele>
        <time>2025-08-17T07:48:26.569Z</time>
      </trkpt>
      <trkpt lat="44.25305" lon="0.86391">
        <ele>220</ele>
        <time>2025-08-17T07:48:27.569Z</time>
      </trkpt>
      <trkpt lat="44.25306" lon="0.8639">
        <ele>220</ele>
        <time>2025-08-17T07:48:28.569Z</time>
      </trkpt>
      <trkpt lat="44.25307" lon="0.86388">
        <ele>219</ele>
        <time>2025-08-17T07:48:29.569Z</time>
      </trkpt>
      <trkpt lat="44.25307" lon="0.86387">
        <ele>219</ele>
        <time>2025-08-17T07:48:30.569Z</time>
      </trkpt>
      <trkpt lat="44.25308" lon="0.86386">
        <ele>220</ele>
        <time>2025-08-17T07:48:31.569Z</time>
      </trkpt>
      <trkpt lat="44.25308" lon="0.86384">
        <ele>220</ele>
        <time>2025-08-17T07:48:32.569Z</time>
      </trkpt>
      <trkpt lat="44.25309" lon="0.86383">
        <ele>220</ele>
        <time>2025-08-17T07:48:33.569Z</time>
      </trkpt>
      <trkpt lat="44.25309" lon="0.86382">
        <ele>220</ele>
        <time>2025-08-17T07:48:34.569Z</time>
      </trkpt>
      <trkpt lat="44.2531" lon="0.8638">
        <ele>220</ele>
        <time>2025-08-17T07:48:35.569Z</time>
      </trkpt>
      <trkpt lat="44.2531" lon="0.86379">
        <ele>220</ele>
        <time>2025-08-17T07:48:36.569Z</time>
      </trkpt>
      <trkpt lat="44.25311" lon="0.86377">
        <ele>220</ele>
        <time>2025-08-17T07:48:37.569Z</time>
      </trkpt>
      <trkpt lat="44.25311" lon="0.86376">
        <ele>219</ele>
        <time>2025-08-17T07:48:38.569Z</time>
      </trkpt>
      <trkpt lat="44.25312" lon="0.86375">
        <ele>219</ele>
        <time>2025-08-17T07:48:39.569Z</time>
      </trkpt>
      <trkpt lat="44.25313" lon="0.86374">
        <ele>219</ele>
        <time>2025-08-17T07:48:40.569Z</time>
      </trkpt>
      <trkpt lat="44.25313" lon="0.86372">
        <ele>218</ele>
        <time>2025-08-17T07:48:41.569Z</time>
      </trkpt>
      <trkpt lat="44.25314" lon="0.86371">
        <ele>218</ele>
        <time>2025-08-17T07:48:42.569Z</time>
      </trkpt>
      <trkpt lat="44.25314" lon="0.86369">
        <ele>218</ele>
        <time>2025-08-17T07:48:43.569Z</time>
      </trkpt>
      <trkpt lat="44.25315" lon="0.86368">
        <ele>218</ele>
        <time>2025-08-17T07:48:44.569Z</time>
      </trkpt>
      <trkpt lat="44.25316" lon="0.86366">
        <ele>218</ele>
        <time>2025-08-17T07:48:45.569Z</time>
      </trkpt>
      <trkpt lat="44.25316" lon="0.86364">
        <ele>218</ele>
        <time>2025-08-17T07:48:46.569Z</time>
      </trkpt>
      <trkpt lat="44.25317" lon="0.86362">
        <ele>219</ele>
        <time>2025-08-17T07:48:47.569Z</time>
      </trkpt>
      <trkpt lat="44.25318" lon="0.86361">
        <ele>219</ele>
        <time>2025-08-17T07:48:48.569Z</time>
      </trkpt>
      <trkpt lat="44.25318" lon="0.86359">
        <ele>219</ele>
        <time>2025-08-17T07:48:49.569Z</time>
      </trkpt>
      <trkpt lat="44.25319" lon="0.86357">
        <ele>219</ele>
        <time>2025-08-17T07:48:50.569Z</time>
      </trkpt>
      <trkpt lat="44.2532" lon="0.86356">
        <ele>219</ele>
        <time>2025-08-17T07:48:51.569Z</time>
      </trkpt>
      <trkpt lat="44.2532" lon="0.86354">
        <ele>218</ele>
        <time>2025-08-17T07:48:52.569Z</time>
      </trkpt>
      <trkpt lat="44.2532" lon="0.86353">
        <ele>218</ele>
        <time>2025-08-17T07:48:53.569Z</time>
      </trkpt>
      <trkpt lat="44.25321" lon="0.86352">
        <ele>218</ele>
        <time>2025-08-17T07:48:54.569Z</time>
      </trkpt>
      <trkpt lat="44.25322" lon="0.8635">
        <ele>218</ele>
        <time>2025-08-17T07:48:55.569Z</time>
      </trkpt>
      <trkpt lat="44.25322" lon="0.8635">
        <ele>217</ele>
        <time>2025-08-17T07:48:56.569Z</time>
      </trkpt>
      <trkpt lat="44.25323" lon="0.86349">
        <ele>217</ele>
        <time>2025-08-17T07:48:57.569Z</time>
      </trkpt>
      <trkpt lat="44.25324" lon="0.86348">
        <ele>217</ele>
        <time>2025-08-17T07:48:58.569Z</time>
      </trkpt>
      <trkpt lat="44.25324" lon="0.86347">
        <ele>216</ele>
        <time>2025-08-17T07:48:59.569Z</time>
      </trkpt>
      <trkpt lat="44.25325" lon="0.86346">
        <ele>216</ele>
        <time>2025-08-17T07:49:00.569Z</time>
      </trkpt>
      <trkpt lat="44.25325" lon="0.86345">
        <ele>216</ele>
        <time>2025-08-17T07:49:01.569Z</time>
      </trkpt>
      <trkpt lat="44.25325" lon="0.86344">
        <ele>215</ele>
        <time>2025-08-17T07:49:02.569Z</time>
      </trkpt>
      <trkpt lat="44.25326" lon="0.86342">
        <ele>215</ele>
        <time>2025-08-17T07:49:03.569Z</time>
      </trkpt>
      <trkpt lat="44.25327" lon="0.86341">
        <ele>215</ele>
        <time>2025-08-17T07:49:04.569Z</time>
      </trkpt>
      <trkpt lat="44.25327" lon="0.8634">
        <ele>215</ele>
        <time>2025-08-17T07:49:05.569Z</time>
      </trkpt>
      <trkpt lat="44.25328" lon="0.86338">
        <ele>215</ele>
        <time>2025-08-17T07:49:06.569Z</time>
      </trkpt>
      <trkpt lat="44.25329" lon="0.86337">
        <ele>215</ele>
        <time>2025-08-17T07:49:07.569Z</time>
      </trkpt>
      <trkpt lat="44.25329" lon="0.86336">
        <ele>215</ele>
        <time>2025-08-17T07:49:08.569Z</time>
      </trkpt>
      <trkpt lat="44.2533" lon="0.86335">
        <ele>214</ele>
        <time>2025-08-17T07:49:09.569Z</time>
      </trkpt>
      <trkpt lat="44.25331" lon="0.86333">
        <ele>214</ele>
        <time>2025-08-17T07:49:10.569Z</time>
      </trkpt>
      <trkpt lat="44.25331" lon="0.86332">
        <ele>213</ele>
        <time>2025-08-17T07:49:11.569Z</time>
      </trkpt>
      <trkpt lat="44.25332" lon="0.86331">
        <ele>213</ele>
        <time>2025-08-17T07:49:12.569Z</time>
      </trkpt>
      <trkpt lat="44.25333" lon="0.8633">
        <ele>213</ele>
        <time>2025-08-17T07:49:13.569Z</time>
      </trkpt>
      <trkpt lat="44.25334" lon="0.86328">
        <ele>213</ele>
        <time>2025-08-17T07:49:14.569Z</time>
      </trkpt>
      <trkpt lat="44.25334" lon="0.86327">
        <ele>213</ele>
        <time>2025-08-17T07:49:15.569Z</time>
      </trkpt>
      <trkpt lat="44.25335" lon="0.86326">
        <ele>213</ele>
        <time>2025-08-17T07:49:16.569Z</time>
      </trkpt>
      <trkpt lat="44.25336" lon="0.86325">
        <ele>213</ele>
        <time>2025-08-17T07:49:17.569Z</time>
      </trkpt>
      <trkpt lat="44.25337" lon="0.86323">
        <ele>213</ele>
        <time>2025-08-17T07:49:18.569Z</time>
      </trkpt>
      <trkpt lat="44.25338" lon="0.86322">
        <ele>213</ele>
        <time>2025-08-17T07:49:19.569Z</time>
      </trkpt>
      <trkpt lat="44.25339" lon="0.8632">
        <ele>213</ele>
        <time>2025-08-17T07:49:20.569Z</time>
      </trkpt>
      <trkpt lat="44.2534" lon="0.86319">
        <ele>214</ele>
        <time>2025-08-17T07:49:21.569Z</time>
      </trkpt>
      <trkpt lat="44.2534" lon="0.86317">
        <ele>215</ele>
        <time>2025-08-17T07:49:22.569Z</time>
      </trkpt>
      <trkpt lat="44.25341" lon="0.86316">
        <ele>215</ele>
        <time>2025-08-17T07:49:23.569Z</time>
      </trkpt>
      <trkpt lat="44.25341" lon="0.86315">
        <ele>215</ele>
        <time>2025-08-17T07:49:24.569Z</time>
      </trkpt>
      <trkpt lat="44.25342" lon="0.86313">
        <ele>215</ele>
        <time>2025-08-17T07:49:25.569Z</time>
      </trkpt>
      <trkpt lat="44.25343" lon="0.86313">
        <ele>215</ele>
        <time>2025-08-17T07:49:26.569Z</time>
      </trkpt>
      <trkpt lat="44.25344" lon="0.86312">
        <ele>215</ele>
        <time>2025-08-17T07:49:27.569Z</time>
      </trkpt>
      <trkpt lat="44.25345" lon="0.86311">
        <ele>215</ele>
        <time>2025-08-17T07:49:28.569Z</time>
      </trkpt>
      <trkpt lat="44.25345" lon="0.86311">
        <ele>215</ele>
        <time>2025-08-17T07:49:29.569Z</time>
      </trkpt>
      <trkpt lat="44.25346" lon="0.8631">
        <ele>214</ele>
        <time>2025-08-17T07:49:30.569Z</time>
      </trkpt>
      <trkpt lat="44.25347" lon="0.86309">
        <ele>215</ele>
        <time>2025-08-17T07:49:31.569Z</time>
      </trkpt>
      <trkpt lat="44.25347" lon="0.86308">
        <ele>215</ele>
        <time>2025-08-17T07:49:32.569Z</time>
      </trkpt>
      <trkpt lat="44.25348" lon="0.86307">
        <ele>215</ele>
        <time>2025-08-17T07:49:33.569Z</time>
      </trkpt>
      <trkpt lat="44.25349" lon="0.86306">
        <ele>215</ele>
        <time>2025-08-17T07:49:34.569Z</time>
      </trkpt>
      <trkpt lat="44.25349" lon="0.86306">
        <ele>215</ele>
        <time>2025-08-17T07:49:35.569Z</time>
      </trkpt>
      <trkpt lat="44.25349" lon="0.86306">
        <ele>215</ele>
        <time>2025-08-17T07:49:36.569Z</time>
      </trkpt>
      <trkpt lat="44.25349" lon="0.86306">
        <ele>215</ele>
        <time>2025-08-17T07:49:37.569Z</time>
      </trkpt>
      <trkpt lat="44.25349" lon="0.86306">
        <ele>215</ele>
        <time>2025-08-17T07:49:38.569Z</time>
      </trkpt>
      <trkpt lat="44.25349" lon="0.86306">
        <ele>214</ele>
        <time>2025-08-17T07:49:39.569Z</time>
      </trkpt>
      <trkpt lat="44.25349" lon="0.86306">
        <ele>214</ele>
        <time>2025-08-17T07:49:40.569Z</time>
      </trkpt>
      <trkpt lat="44.25349" lon="0.86305">
        <ele>213</ele>
        <time>2025-08-17T07:49:41.569Z</time>
      </trkpt>
      <trkpt lat="44.2535" lon="0.86303">
        <ele>213</ele>
        <time>2025-08-17T07:49:42.569Z</time>
      </trkpt>
      <trkpt lat="44.2535" lon="0.86301">
        <ele>213</ele>
        <time>2025-08-17T07:49:43.569Z</time>
      </trkpt>
      <trkpt lat="44.25351" lon="0.863">
        <ele>213</ele>
        <time>2025-08-17T07:49:44.569Z</time>
      </trkpt>
      <trkpt lat="44.25352" lon="0.86298">
        <ele>213</ele>
        <time>2025-08-17T07:49:45.569Z</time>
      </trkpt>
      <trkpt lat="44.25352" lon="0.86297">
        <ele>213</ele>
        <time>2025-08-17T07:49:46.569Z</time>
      </trkpt>
      <trkpt lat="44.25353" lon="0.86295">
        <ele>213</ele>
        <time>2025-08-17T07:49:47.569Z</time>
      </trkpt>
      <trkpt lat="44.25354" lon="0.86294">
        <ele>213</ele>
        <time>2025-08-17T07:49:48.569Z</time>
      </trkpt>
      <trkpt lat="44.25354" lon="0.86292">
        <ele>213</ele>
        <time>2025-08-17T07:49:49.569Z</time>
      </trkpt>
      <trkpt lat="44.25355" lon="0.86291">
        <ele>213</ele>
        <time>2025-08-17T07:49:50.569Z</time>
      </trkpt>
      <trkpt lat="44.25356" lon="0.8629">
        <ele>213</ele>
        <time>2025-08-17T07:49:51.569Z</time>
      </trkpt>
      <trkpt lat="44.25356" lon="0.86288">
        <ele>213</ele>
        <time>2025-08-17T07:49:52.569Z</time>
      </trkpt>
      <trkpt lat="44.25357" lon="0.86287">
        <ele>213</ele>
        <time>2025-08-17T07:49:53.569Z</time>
      </trkpt>
      <trkpt lat="44.25358" lon="0.86286">
        <ele>213</ele>
        <time>2025-08-17T07:49:54.569Z</time>
      </trkpt>
      <trkpt lat="44.25359" lon="0.86284">
        <ele>213</ele>
        <time>2025-08-17T07:49:55.569Z</time>
      </trkpt>
      <trkpt lat="44.2536" lon="0.86283">
        <ele>213</ele>
        <time>2025-08-17T07:49:56.569Z</time>
      </trkpt>
      <trkpt lat="44.25361" lon="0.86281">
        <ele>213</ele>
        <time>2025-08-17T07:49:57.569Z</time>
      </trkpt>
      <trkpt lat="44.25361" lon="0.8628">
        <ele>213</ele>
        <time>2025-08-17T07:49:58.569Z</time>
      </trkpt>
      <trkpt lat="44.25362" lon="0.86278">
        <ele>213</ele>
        <time>2025-08-17T07:49:59.569Z</time>
      </trkpt>
      <trkpt lat="44.25363" lon="0.86277">
        <ele>213</ele>
        <time>2025-08-17T07:50:00.569Z</time>
      </trkpt>
      <trkpt lat="44.25364" lon="0.86276">
        <ele>213</ele>
        <time>2025-08-17T07:50:01.569Z</time>
      </trkpt>
      <trkpt lat="44.25365" lon="0.86274">
        <ele>213</ele>
        <time>2025-08-17T07:50:02.569Z</time>
      </trkpt>
      <trkpt lat="44.25365" lon="0.86273">
        <ele>213</ele>
        <time>2025-08-17T07:50:03.569Z</time>
      </trkpt>
      <trkpt lat="44.25366" lon="0.86272">
        <ele>213</ele>
        <time>2025-08-17T07:50:04.569Z</time>
      </trkpt>
      <trkpt lat="44.25367" lon="0.8627">
        <ele>213</ele>
        <time>2025-08-17T07:50:05.569Z</time>
      </trkpt>
      <trkpt lat="44.25368" lon="0.86269">
        <ele>213</ele>
        <time>2025-08-17T07:50:06.569Z</time>
      </trkpt>
      <trkpt lat="44.25369" lon="0.86267">
        <ele>213</ele>
        <time>2025-08-17T07:50:07.569Z</time>
      </trkpt>
      <trkpt lat="44.2537" lon="0.86266">
        <ele>213</ele>
        <time>2025-08-17T07:50:08.569Z</time>
      </trkpt>
      <trkpt lat="44.2537" lon="0.86264">
        <ele>213</ele>
        <time>2025-08-17T07:50:09.569Z</time>
      </trkpt>
      <trkpt lat="44.25371" lon="0.86263">
        <ele>213</ele>
        <time>2025-08-17T07:50:10.569Z</time>
      </trkpt>
      <trkpt lat="44.25372" lon="0.86262">
        <ele>213</ele>
        <time>2025-08-17T07:50:11.569Z</time>
      </trkpt>
      <trkpt lat="44.25373" lon="0.8626">
        <ele>213</ele>
        <time>2025-08-17T07:50:12.569Z</time>
      </trkpt>
      <trkpt lat="44.25373" lon="0.86259">
        <ele>214</ele>
        <time>2025-08-17T07:50:13.569Z</time>
      </trkpt>
      <trkpt lat="44.25374" lon="0.86258">
        <ele>213</ele>
        <time>2025-08-17T07:50:14.569Z</time>
      </trkpt>
      <trkpt lat="44.25375" lon="0.86257">
        <ele>213</ele>
        <time>2025-08-17T07:50:15.569Z</time>
      </trkpt>
      <trkpt lat="44.25376" lon="0.86256">
        <ele>213</ele>
        <time>2025-08-17T07:50:16.569Z</time>
      </trkpt>
      <trkpt lat="44.25377" lon="0.86254">
        <ele>213</ele>
        <time>2025-08-17T07:50:17.569Z</time>
      </trkpt>
      <trkpt lat="44.25377" lon="0.86253">
        <ele>213</ele>
        <time>2025-08-17T07:50:18.569Z</time>
      </trkpt>
      <trkpt lat="44.25378" lon="0.86252">
        <ele>213</ele>
        <time>2025-08-17T07:50:19.569Z</time>
      </trkpt>
      <trkpt lat="44.25379" lon="0.8625">
        <ele>213</ele>
        <time>2025-08-17T07:50:20.569Z</time>
      </trkpt>
      <trkpt lat="44.2538" lon="0.86249">
        <ele>213</ele>
        <time>2025-08-17T07:50:21.569Z</time>
      </trkpt>
      <trkpt lat="44.25381" lon="0.86248">
        <ele>213</ele>
        <time>2025-08-17T07:50:22.569Z</time>
      </trkpt>
      <trkpt lat="44.25381" lon="0.86247">
        <ele>213</ele>
        <time>2025-08-17T07:50:23.569Z</time>
      </trkpt>
      <trkpt lat="44.25382" lon="0.86246">
        <ele>213</ele>
        <time>2025-08-17T07:50:24.569Z</time>
      </trkpt>
      <trkpt lat="44.25383" lon="0.86245">
        <ele>213</ele>
        <time>2025-08-17T07:50:25.569Z</time>
      </trkpt>
      <trkpt lat="44.25384" lon="0.86244">
        <ele>213</ele>
        <time>2025-08-17T07:50:26.569Z</time>
      </trkpt>
      <trkpt lat="44.25385" lon="0.86242">
        <ele>213</ele>
        <time>2025-08-17T07:50:27.569Z</time>
      </trkpt>
      <trkpt lat="44.25386" lon="0.86241">
        <ele>213</ele>
        <time>2025-08-17T07:50:28.569Z</time>
      </trkpt>
      <trkpt lat="44.25386" lon="0.8624">
        <ele>213</ele>
        <time>2025-08-17T07:50:29.569Z</time>
      </trkpt>
      <trkpt lat="44.25387" lon="0.86239">
        <ele>213</ele>
        <time>2025-08-17T07:50:30.569Z</time>
      </trkpt>
      <trkpt lat="44.25387" lon="0.86237">
        <ele>212</ele>
        <time>2025-08-17T07:50:31.569Z</time>
      </trkpt>
      <trkpt lat="44.25388" lon="0.86236">
        <ele>212</ele>
        <time>2025-08-17T07:50:32.569Z</time>
      </trkpt>
      <trkpt lat="44.25389" lon="0.86235">
        <ele>212</ele>
        <time>2025-08-17T07:50:33.569Z</time>
      </trkpt>
      <trkpt lat="44.2539" lon="0.86234">
        <ele>212</ele>
        <time>2025-08-17T07:50:34.569Z</time>
      </trkpt>
      <trkpt lat="44.25391" lon="0.86233">
        <ele>212</ele>
        <time>2025-08-17T07:50:35.569Z</time>
      </trkpt>
      <trkpt lat="44.25391" lon="0.86231">
        <ele>212</ele>
        <time>2025-08-17T07:50:36.569Z</time>
      </trkpt>
      <trkpt lat="44.25392" lon="0.8623">
        <ele>212</ele>
        <time>2025-08-17T07:50:37.569Z</time>
      </trkpt>
      <trkpt lat="44.25393" lon="0.86228">
        <ele>212</ele>
        <time>2025-08-17T07:50:38.569Z</time>
      </trkpt>
      <trkpt lat="44.25393" lon="0.86227">
        <ele>213</ele>
        <time>2025-08-17T07:50:39.569Z</time>
      </trkpt>
      <trkpt lat="44.25394" lon="0.86226">
        <ele>213</ele>
        <time>2025-08-17T07:50:40.569Z</time>
      </trkpt>
      <trkpt lat="44.25394" lon="0.86225">
        <ele>213</ele>
        <time>2025-08-17T07:50:41.569Z</time>
      </trkpt>
      <trkpt lat="44.25395" lon="0.86223">
        <ele>213</ele>
        <time>2025-08-17T07:50:42.569Z</time>
      </trkpt>
      <trkpt lat="44.25396" lon="0.86222">
        <ele>213</ele>
        <time>2025-08-17T07:50:43.569Z</time>
      </trkpt>
      <trkpt lat="44.25396" lon="0.86221">
        <ele>213</ele>
        <time>2025-08-17T07:50:44.569Z</time>
      </trkpt>
      <trkpt lat="44.25397" lon="0.8622">
        <ele>212</ele>
        <time>2025-08-17T07:50:45.569Z</time>
      </trkpt>
      <trkpt lat="44.25398" lon="0.86218">
        <ele>212</ele>
        <time>2025-08-17T07:50:46.569Z</time>
      </trkpt>
      <trkpt lat="44.25398" lon="0.86217">
        <ele>212</ele>
        <time>2025-08-17T07:50:47.569Z</time>
      </trkpt>
      <trkpt lat="44.25399" lon="0.86215">
        <ele>212</ele>
        <time>2025-08-17T07:50:48.569Z</time>
      </trkpt>
      <trkpt lat="44.25399" lon="0.86214">
        <ele>211</ele>
        <time>2025-08-17T07:50:49.569Z</time>
      </trkpt>
      <trkpt lat="44.254" lon="0.86213">
        <ele>211</ele>
        <time>2025-08-17T07:50:50.569Z</time>
      </trkpt>
      <trkpt lat="44.25401" lon="0.86212">
        <ele>211</ele>
        <time>2025-08-17T07:50:51.569Z</time>
      </trkpt>
      <trkpt lat="44.25402" lon="0.86211">
        <ele>211</ele>
        <time>2025-08-17T07:50:52.569Z</time>
      </trkpt>
      <trkpt lat="44.25402" lon="0.86209">
        <ele>210</ele>
        <time>2025-08-17T07:50:53.569Z</time>
      </trkpt>
      <trkpt lat="44.25403" lon="0.86208">
        <ele>210</ele>
        <time>2025-08-17T07:50:54.569Z</time>
      </trkpt>
      <trkpt lat="44.25404" lon="0.86206">
        <ele>210</ele>
        <time>2025-08-17T07:50:55.569Z</time>
      </trkpt>
      <trkpt lat="44.25404" lon="0.86204">
        <ele>210</ele>
        <time>2025-08-17T07:50:56.569Z</time>
      </trkpt>
      <trkpt lat="44.25405" lon="0.86203">
        <ele>210</ele>
        <time>2025-08-17T07:50:57.569Z</time>
      </trkpt>
      <trkpt lat="44.25406" lon="0.86201">
        <ele>210</ele>
        <time>2025-08-17T07:50:58.569Z</time>
      </trkpt>
      <trkpt lat="44.25406" lon="0.862">
        <ele>209</ele>
        <time>2025-08-17T07:50:59.569Z</time>
      </trkpt>
      <trkpt lat="44.25407" lon="0.86199">
        <ele>209</ele>
        <time>2025-08-17T07:51:00.569Z</time>
      </trkpt>
      <trkpt lat="44.25408" lon="0.86198">
        <ele>209</ele>
        <time>2025-08-17T07:51:01.569Z</time>
      </trkpt>
      <trkpt lat="44.25409" lon="0.86197">
        <ele>209</ele>
        <time>2025-08-17T07:51:02.569Z</time>
      </trkpt>
      <trkpt lat="44.25409" lon="0.86195">
        <ele>208</ele>
        <time>2025-08-17T07:51:03.569Z</time>
      </trkpt>
      <trkpt lat="44.2541" lon="0.86194">
        <ele>208</ele>
        <time>2025-08-17T07:51:04.569Z</time>
      </trkpt>
      <trkpt lat="44.2541" lon="0.86193">
        <ele>208</ele>
        <time>2025-08-17T07:51:05.569Z</time>
      </trkpt>
      <trkpt lat="44.25411" lon="0.86192">
        <ele>208</ele>
        <time>2025-08-17T07:51:06.569Z</time>
      </trkpt>
      <trkpt lat="44.25412" lon="0.86191">
        <ele>208</ele>
        <time>2025-08-17T07:51:07.569Z</time>
      </trkpt>
      <trkpt lat="44.25412" lon="0.8619">
        <ele>208</ele>
        <time>2025-08-17T07:51:08.569Z</time>
      </trkpt>
      <trkpt lat="44.25413" lon="0.86189">
        <ele>208</ele>
        <time>2025-08-17T07:51:09.569Z</time>
      </trkpt>
      <trkpt lat="44.25414" lon="0.86188">
        <ele>208</ele>
        <time>2025-08-17T07:51:10.569Z</time>
      </trkpt>
      <trkpt lat="44.25415" lon="0.86187">
        <ele>208</ele>
        <time>2025-08-17T07:51:11.569Z</time>
      </trkpt>
      <trkpt lat="44.25415" lon="0.86186">
        <ele>208</ele>
        <time>2025-08-17T07:51:12.569Z</time>
      </trkpt>
      <trkpt lat="44.25415" lon="0.86186">
        <ele>208</ele>
        <time>2025-08-17T07:51:13.569Z</time>
      </trkpt>
      <trkpt lat="44.25416" lon="0.86185">
        <ele>208</ele>
        <time>2025-08-17T07:51:14.569Z</time>
      </trkpt>
      <trkpt lat="44.25416" lon="0.86185">
        <ele>207</ele>
        <time>2025-08-17T07:51:15.569Z</time>
      </trkpt>
      <trkpt lat="44.25416" lon="0.86184">
        <ele>207</ele>
        <time>2025-08-17T07:51:16.569Z</time>
      </trkpt>
      <trkpt lat="44.25417" lon="0.86184">
        <ele>207</ele>
        <time>2025-08-17T07:51:17.569Z</time>
      </trkpt>
      <trkpt lat="44.25417" lon="0.86184">
        <ele>207</ele>
        <time>2025-08-17T07:51:18.569Z</time>
      </trkpt>
      <trkpt lat="44.25417" lon="0.86184">
        <ele>207</ele>
        <time>2025-08-17T07:51:19.569Z</time>
      </trkpt>
      <trkpt lat="44.25417" lon="0.86184">
        <ele>207</ele>
        <time>2025-08-17T07:51:20.569Z</time>
      </trkpt>
      <trkpt lat="44.25417" lon="0.86184">
        <ele>207</ele>
        <time>2025-08-17T07:51:21.569Z</time>
      </trkpt>
      <trkpt lat="44.25417" lon="0.86184">
        <ele>207</ele>
        <time>2025-08-17T07:51:22.569Z</time>
      </trkpt>
      <trkpt lat="44.25417" lon="0.86184">
        <ele>207</ele>
        <time>2025-08-17T07:51:23.569Z</time>
      </trkpt>
      <trkpt lat="44.25417" lon="0.86183">
        <ele>207</ele>
        <time>2025-08-17T07:51:24.569Z</time>
      </trkpt>
      <trkpt lat="44.25418" lon="0.86183">
        <ele>207</ele>
        <time>2025-08-17T07:51:25.569Z</time>
      </trkpt>
      <trkpt lat="44.25418" lon="0.86182">
        <ele>207</ele>
        <time>2025-08-17T07:51:26.569Z</time>
      </trkpt>
      <trkpt lat="44.25419" lon="0.86182">
        <ele>207</ele>
        <time>2025-08-17T07:51:27.569Z</time>
      </trkpt>
      <trkpt lat="44.25419" lon="0.86181">
        <ele>207</ele>
        <time>2025-08-17T07:51:28.569Z</time>
      </trkpt>
      <trkpt lat="44.2542" lon="0.86181">
        <ele>207</ele>
        <time>2025-08-17T07:51:29.569Z</time>
      </trkpt>
      <trkpt lat="44.25421" lon="0.86181">
        <ele>207</ele>
        <time>2025-08-17T07:51:30.569Z</time>
      </trkpt>
      <trkpt lat="44.25421" lon="0.86181">
        <ele>207</ele>
        <time>2025-08-17T07:51:31.569Z</time>
      </trkpt>
      <trkpt lat="44.25422" lon="0.86181">
        <ele>206</ele>
        <time>2025-08-17T07:51:32.569Z</time>
      </trkpt>
      <trkpt lat="44.25422" lon="0.86181">
        <ele>206</ele>
        <time>2025-08-17T07:51:33.569Z</time>
      </trkpt>
      <trkpt lat="44.25421" lon="0.86181">
        <ele>205</ele>
        <time>2025-08-17T07:51:34.569Z</time>
      </trkpt>
      <trkpt lat="44.25421" lon="0.8618">
        <ele>205</ele>
        <time>2025-08-17T07:51:35.569Z</time>
      </trkpt>
      <trkpt lat="44.2542" lon="0.86179">
        <ele>205</ele>
        <time>2025-08-17T07:51:36.569Z</time>
      </trkpt>
      <trkpt lat="44.2542" lon="0.86179">
        <ele>205</ele>
        <time>2025-08-17T07:51:37.569Z</time>
      </trkpt>
      <trkpt lat="44.25419" lon="0.86177">
        <ele>205</ele>
        <time>2025-08-17T07:51:38.569Z</time>
      </trkpt>
      <trkpt lat="44.25419" lon="0.86175">
        <ele>205</ele>
        <time>2025-08-17T07:51:39.569Z</time>
      </trkpt>
      <trkpt lat="44.25419" lon="0.86174">
        <ele>206</ele>
        <time>2025-08-17T07:51:40.569Z</time>
      </trkpt>
      <trkpt lat="44.25419" lon="0.86172">
        <ele>206</ele>
        <time>2025-08-17T07:51:41.569Z</time>
      </trkpt>
      <trkpt lat="44.2542" lon="0.86171">
        <ele>206</ele>
        <time>2025-08-17T07:51:42.569Z</time>
      </trkpt>
      <trkpt lat="44.25421" lon="0.8617">
        <ele>206</ele>
        <time>2025-08-17T07:51:43.569Z</time>
      </trkpt>
      <trkpt lat="44.25421" lon="0.86168">
        <ele>206</ele>
        <time>2025-08-17T07:51:44.569Z</time>
      </trkpt>
      <trkpt lat="44.25422" lon="0.86167">
        <ele>206</ele>
        <time>2025-08-17T07:51:45.569Z</time>
      </trkpt>
      <trkpt lat="44.25423" lon="0.86166">
        <ele>206</ele>
        <time>2025-08-17T07:51:46.569Z</time>
      </trkpt>
      <trkpt lat="44.25424" lon="0.86165">
        <ele>207</ele>
        <time>2025-08-17T07:51:47.569Z</time>
      </trkpt>
      <trkpt lat="44.25424" lon="0.86163">
        <ele>207</ele>
        <time>2025-08-17T07:51:48.569Z</time>
      </trkpt>
      <trkpt lat="44.25424" lon="0.86162">
        <ele>207</ele>
        <time>2025-08-17T07:51:49.569Z</time>
      </trkpt>
      <trkpt lat="44.25425" lon="0.86161">
        <ele>207</ele>
        <time>2025-08-17T07:51:50.569Z</time>
      </trkpt>
      <trkpt lat="44.25426" lon="0.86159">
        <ele>206</ele>
        <time>2025-08-17T07:51:51.569Z</time>
      </trkpt>
      <trkpt lat="44.25427" lon="0.86158">
        <ele>206</ele>
        <time>2025-08-17T07:51:52.569Z</time>
      </trkpt>
      <trkpt lat="44.25427" lon="0.86156">
        <ele>206</ele>
        <time>2025-08-17T07:51:53.569Z</time>
      </trkpt>
      <trkpt lat="44.25428" lon="0.86155">
        <ele>206</ele>
        <time>2025-08-17T07:51:54.569Z</time>
      </trkpt>
      <trkpt lat="44.25429" lon="0.86154">
        <ele>206</ele>
        <time>2025-08-17T07:51:55.569Z</time>
      </trkpt>
      <trkpt lat="44.25429" lon="0.86152">
        <ele>206</ele>
        <time>2025-08-17T07:51:56.569Z</time>
      </trkpt>
      <trkpt lat="44.2543" lon="0.86151">
        <ele>206</ele>
        <time>2025-08-17T07:51:57.569Z</time>
      </trkpt>
      <trkpt lat="44.25431" lon="0.8615">
        <ele>206</ele>
        <time>2025-08-17T07:51:58.569Z</time>
      </trkpt>
      <trkpt lat="44.25432" lon="0.86149">
        <ele>206</ele>
        <time>2025-08-17T07:51:59.569Z</time>
      </trkpt>
      <trkpt lat="44.25432" lon="0.86148">
        <ele>206</ele>
        <time>2025-08-17T07:52:00.569Z</time>
      </trkpt>
      <trkpt lat="44.25433" lon="0.86146">
        <ele>206</ele>
        <time>2025-08-17T07:52:01.569Z</time>
      </trkpt>
      <trkpt lat="44.25434" lon="0.86145">
        <ele>206</ele>
        <time>2025-08-17T07:52:02.569Z</time>
      </trkpt>
      <trkpt lat="44.25435" lon="0.86143">
        <ele>206</ele>
        <time>2025-08-17T07:52:03.569Z</time>
      </trkpt>
      <trkpt lat="44.25435" lon="0.86141">
        <ele>206</ele>
        <time>2025-08-17T07:52:04.569Z</time>
      </trkpt>
      <trkpt lat="44.25436" lon="0.8614">
        <ele>206</ele>
        <time>2025-08-17T07:52:05.569Z</time>
      </trkpt>
      <trkpt lat="44.25437" lon="0.86138">
        <ele>206</ele>
        <time>2025-08-17T07:52:06.569Z</time>
      </trkpt>
      <trkpt lat="44.25437" lon="0.86137">
        <ele>207</ele>
        <time>2025-08-17T07:52:07.569Z</time>
      </trkpt>
      <trkpt lat="44.25438" lon="0.86135">
        <ele>207</ele>
        <time>2025-08-17T07:52:08.569Z</time>
      </trkpt>
      <trkpt lat="44.25438" lon="0.86134">
        <ele>207</ele>
        <time>2025-08-17T07:52:09.569Z</time>
      </trkpt>
      <trkpt lat="44.25439" lon="0.86133">
        <ele>207</ele>
        <time>2025-08-17T07:52:10.569Z</time>
      </trkpt>
      <trkpt lat="44.2544" lon="0.86132">
        <ele>207</ele>
        <time>2025-08-17T07:52:11.569Z</time>
      </trkpt>
      <trkpt lat="44.25441" lon="0.86131">
        <ele>207</ele>
        <time>2025-08-17T07:52:12.569Z</time>
      </trkpt>
      <trkpt lat="44.25441" lon="0.86129">
        <ele>207</ele>
        <time>2025-08-17T07:52:13.569Z</time>
      </trkpt>
      <trkpt lat="44.25442" lon="0.86128">
        <ele>207</ele>
        <time>2025-08-17T07:52:14.569Z</time>
      </trkpt>
      <trkpt lat="44.25443" lon="0.86127">
        <ele>207</ele>
        <time>2025-08-17T07:52:15.569Z</time>
      </trkpt>
      <trkpt lat="44.25444" lon="0.86125">
        <ele>206</ele>
        <time>2025-08-17T07:52:16.569Z</time>
      </trkpt>
      <trkpt lat="44.25444" lon="0.86124">
        <ele>206</ele>
        <time>2025-08-17T07:52:17.569Z</time>
      </trkpt>
      <trkpt lat="44.25445" lon="0.86122">
        <ele>206</ele>
        <time>2025-08-17T07:52:18.569Z</time>
      </trkpt>
      <trkpt lat="44.25445" lon="0.86121">
        <ele>206</ele>
        <time>2025-08-17T07:52:19.569Z</time>
      </trkpt>
      <trkpt lat="44.25446" lon="0.86119">
        <ele>205</ele>
        <time>2025-08-17T07:52:20.569Z</time>
      </trkpt>
      <trkpt lat="44.25447" lon="0.86118">
        <ele>205</ele>
        <time>2025-08-17T07:52:21.569Z</time>
      </trkpt>
      <trkpt lat="44.25448" lon="0.86117">
        <ele>205</ele>
        <time>2025-08-17T07:52:22.569Z</time>
      </trkpt>
      <trkpt lat="44.25448" lon="0.86115">
        <ele>204</ele>
        <time>2025-08-17T07:52:23.569Z</time>
      </trkpt>
      <trkpt lat="44.25449" lon="0.86114">
        <ele>204</ele>
        <time>2025-08-17T07:52:24.569Z</time>
      </trkpt>
      <trkpt lat="44.2545" lon="0.86112">
        <ele>204</ele>
        <time>2025-08-17T07:52:25.569Z</time>
      </trkpt>
      <trkpt lat="44.2545" lon="0.8611">
        <ele>205</ele>
        <time>2025-08-17T07:52:26.569Z</time>
      </trkpt>
      <trkpt lat="44.25451" lon="0.86109">
        <ele>205</ele>
        <time>2025-08-17T07:52:27.569Z</time>
      </trkpt>
      <trkpt lat="44.25452" lon="0.86107">
        <ele>206</ele>
        <time>2025-08-17T07:52:28.569Z</time>
      </trkpt>
      <trkpt lat="44.25453" lon="0.86106">
        <ele>206</ele>
        <time>2025-08-17T07:52:29.569Z</time>
      </trkpt>
      <trkpt lat="44.25454" lon="0.86105">
        <ele>206</ele>
        <time>2025-08-17T07:52:30.569Z</time>
      </trkpt>
      <trkpt lat="44.25454" lon="0.86103">
        <ele>207</ele>
        <time>2025-08-17T07:52:31.569Z</time>
      </trkpt>
      <trkpt lat="44.25455" lon="0.86102">
        <ele>206</ele>
        <time>2025-08-17T07:52:32.569Z</time>
      </trkpt>
      <trkpt lat="44.25456" lon="0.86101">
        <ele>206</ele>
        <time>2025-08-17T07:52:33.569Z</time>
      </trkpt>
      <trkpt lat="44.25457" lon="0.861">
        <ele>206</ele>
        <time>2025-08-17T07:52:34.569Z</time>
      </trkpt>
      <trkpt lat="44.25458" lon="0.86099">
        <ele>206</ele>
        <time>2025-08-17T07:52:35.569Z</time>
      </trkpt>
      <trkpt lat="44.25458" lon="0.86097">
        <ele>206</ele>
        <time>2025-08-17T07:52:36.569Z</time>
      </trkpt>
      <trkpt lat="44.25459" lon="0.86095">
        <ele>206</ele>
        <time>2025-08-17T07:52:37.569Z</time>
      </trkpt>
      <trkpt lat="44.2546" lon="0.86094">
        <ele>206</ele>
        <time>2025-08-17T07:52:38.569Z</time>
      </trkpt>
      <trkpt lat="44.25461" lon="0.86092">
        <ele>206</ele>
        <time>2025-08-17T07:52:39.569Z</time>
      </trkpt>
      <trkpt lat="44.25461" lon="0.86091">
        <ele>206</ele>
        <time>2025-08-17T07:52:40.569Z</time>
      </trkpt>
      <trkpt lat="44.25462" lon="0.86089">
        <ele>206</ele>
        <time>2025-08-17T07:52:41.569Z</time>
      </trkpt>
      <trkpt lat="44.25463" lon="0.86088">
        <ele>206</ele>
        <time>2025-08-17T07:52:42.569Z</time>
      </trkpt>
      <trkpt lat="44.25464" lon="0.86087">
        <ele>206</ele>
        <time>2025-08-17T07:52:43.569Z</time>
      </trkpt>
      <trkpt lat="44.25465" lon="0.86086">
        <ele>207</ele>
        <time>2025-08-17T07:52:44.569Z</time>
      </trkpt>
      <trkpt lat="44.25466" lon="0.86085">
        <ele>207</ele>
        <time>2025-08-17T07:52:45.569Z</time>
      </trkpt>
      <trkpt lat="44.25466" lon="0.86084">
        <ele>207</ele>
        <time>2025-08-17T07:52:46.569Z</time>
      </trkpt>
      <trkpt lat="44.25467" lon="0.86082">
        <ele>207</ele>
        <time>2025-08-17T07:52:47.569Z</time>
      </trkpt>
      <trkpt lat="44.25468" lon="0.86081">
        <ele>207</ele>
        <time>2025-08-17T07:52:48.569Z</time>
      </trkpt>
      <trkpt lat="44.25469" lon="0.86079">
        <ele>206</ele>
        <time>2025-08-17T07:52:49.569Z</time>
      </trkpt>
      <trkpt lat="44.25469" lon="0.86078">
        <ele>206</ele>
        <time>2025-08-17T07:52:50.569Z</time>
      </trkpt>
      <trkpt lat="44.2547" lon="0.86077">
        <ele>206</ele>
        <time>2025-08-17T07:52:51.569Z</time>
      </trkpt>
      <trkpt lat="44.2547" lon="0.86075">
        <ele>206</ele>
        <time>2025-08-17T07:52:52.569Z</time>
      </trkpt>
      <trkpt lat="44.25471" lon="0.86074">
        <ele>205</ele>
        <time>2025-08-17T07:52:53.569Z</time>
      </trkpt>
      <trkpt lat="44.25471" lon="0.86072">
        <ele>205</ele>
        <time>2025-08-17T07:52:54.569Z</time>
      </trkpt>
      <trkpt lat="44.25472" lon="0.86071">
        <ele>204</ele>
        <time>2025-08-17T07:52:55.569Z</time>
      </trkpt>
      <trkpt lat="44.25473" lon="0.8607">
        <ele>204</ele>
        <time>2025-08-17T07:52:56.569Z</time>
      </trkpt>
      <trkpt lat="44.25473" lon="0.86068">
        <ele>203</ele>
        <time>2025-08-17T07:52:57.569Z</time>
      </trkpt>
      <trkpt lat="44.25474" lon="0.86067">
        <ele>203</ele>
        <time>2025-08-17T07:52:58.569Z</time>
      </trkpt>
      <trkpt lat="44.25474" lon="0.86065">
        <ele>202</ele>
        <time>2025-08-17T07:52:59.569Z</time>
      </trkpt>
      <trkpt lat="44.25474" lon="0.86063">
        <ele>202</ele>
        <time>2025-08-17T07:53:00.569Z</time>
      </trkpt>
      <trkpt lat="44.25475" lon="0.86062">
        <ele>202</ele>
        <time>2025-08-17T07:53:01.569Z</time>
      </trkpt>
      <trkpt lat="44.25475" lon="0.8606">
        <ele>202</ele>
        <time>2025-08-17T07:53:02.569Z</time>
      </trkpt>
      <trkpt lat="44.25476" lon="0.86058">
        <ele>202</ele>
        <time>2025-08-17T07:53:03.569Z</time>
      </trkpt>
      <trkpt lat="44.25477" lon="0.86057">
        <ele>202</ele>
        <time>2025-08-17T07:53:04.569Z</time>
      </trkpt>
      <trkpt lat="44.25477" lon="0.86055">
        <ele>202</ele>
        <time>2025-08-17T07:53:05.569Z</time>
      </trkpt>
      <trkpt lat="44.25478" lon="0.86054">
        <ele>201</ele>
        <time>2025-08-17T07:53:06.569Z</time>
      </trkpt>
      <trkpt lat="44.25478" lon="0.86052">
        <ele>201</ele>
        <time>2025-08-17T07:53:07.569Z</time>
      </trkpt>
      <trkpt lat="44.25478" lon="0.86051">
        <ele>201</ele>
        <time>2025-08-17T07:53:08.569Z</time>
      </trkpt>
      <trkpt lat="44.25479" lon="0.8605">
        <ele>200</ele>
        <time>2025-08-17T07:53:09.569Z</time>
      </trkpt>
      <trkpt lat="44.2548" lon="0.86049">
        <ele>200</ele>
        <time>2025-08-17T07:53:10.569Z</time>
      </trkpt>
      <trkpt lat="44.2548" lon="0.86047">
        <ele>200</ele>
        <time>2025-08-17T07:53:11.569Z</time>
      </trkpt>
      <trkpt lat="44.2548" lon="0.86045">
        <ele>200</ele>
        <time>2025-08-17T07:53:12.569Z</time>
      </trkpt>
      <trkpt lat="44.25481" lon="0.86044">
        <ele>200</ele>
        <time>2025-08-17T07:53:13.569Z</time>
      </trkpt>
      <trkpt lat="44.25482" lon="0.86042">
        <ele>200</ele>
        <time>2025-08-17T07:53:14.569Z</time>
      </trkpt>
      <trkpt lat="44.25482" lon="0.86041">
        <ele>200</ele>
        <time>2025-08-17T07:53:15.569Z</time>
      </trkpt>
      <trkpt lat="44.25483" lon="0.8604">
        <ele>200</ele>
        <time>2025-08-17T07:53:16.569Z</time>
      </trkpt>
      <trkpt lat="44.25483" lon="0.86038">
        <ele>200</ele>
        <time>2025-08-17T07:53:17.569Z</time>
      </trkpt>
      <trkpt lat="44.25484" lon="0.86037">
        <ele>199</ele>
        <time>2025-08-17T07:53:18.569Z</time>
      </trkpt>
      <trkpt lat="44.25484" lon="0.86036">
        <ele>199</ele>
        <time>2025-08-17T07:53:19.569Z</time>
      </trkpt>
      <trkpt lat="44.25484" lon="0.86034">
        <ele>199</ele>
        <time>2025-08-17T07:53:20.569Z</time>
      </trkpt>
      <trkpt lat="44.25485" lon="0.86033">
        <ele>199</ele>
        <time>2025-08-17T07:53:21.569Z</time>
      </trkpt>
      <trkpt lat="44.25486" lon="0.86031">
        <ele>199</ele>
        <time>2025-08-17T07:53:22.569Z</time>
      </trkpt>
      <trkpt lat="44.25487" lon="0.8603">
        <ele>200</ele>
        <time>2025-08-17T07:53:23.569Z</time>
      </trkpt>
      <trkpt lat="44.25487" lon="0.86029">
        <ele>200</ele>
        <time>2025-08-17T07:53:24.569Z</time>
      </trkpt>
      <trkpt lat="44.25488" lon="0.86028">
        <ele>201</ele>
        <time>2025-08-17T07:53:25.569Z</time>
      </trkpt>
      <trkpt lat="44.25489" lon="0.86026">
        <ele>201</ele>
        <time>2025-08-17T07:53:26.569Z</time>
      </trkpt>
      <trkpt lat="44.2549" lon="0.86025">
        <ele>202</ele>
        <time>2025-08-17T07:53:27.569Z</time>
      </trkpt>
      <trkpt lat="44.25491" lon="0.86023">
        <ele>202</ele>
        <time>2025-08-17T07:53:28.569Z</time>
      </trkpt>
      <trkpt lat="44.25492" lon="0.86021">
        <ele>203</ele>
        <time>2025-08-17T07:53:29.569Z</time>
      </trkpt>
      <trkpt lat="44.25493" lon="0.8602">
        <ele>203</ele>
        <time>2025-08-17T07:53:30.569Z</time>
      </trkpt>
      <trkpt lat="44.25494" lon="0.86018">
        <ele>204</ele>
        <time>2025-08-17T07:53:31.569Z</time>
      </trkpt>
      <trkpt lat="44.25495" lon="0.86017">
        <ele>204</ele>
        <time>2025-08-17T07:53:32.569Z</time>
      </trkpt>
      <trkpt lat="44.25496" lon="0.86016">
        <ele>204</ele>
        <time>2025-08-17T07:53:33.569Z</time>
      </trkpt>
      <trkpt lat="44.25496" lon="0.86016">
        <ele>205</ele>
        <time>2025-08-17T07:53:34.569Z</time>
      </trkpt>
      <trkpt lat="44.25497" lon="0.86014">
        <ele>205</ele>
        <time>2025-08-17T07:53:35.569Z</time>
      </trkpt>
      <trkpt lat="44.25498" lon="0.86013">
        <ele>204</ele>
        <time>2025-08-17T07:53:36.569Z</time>
      </trkpt>
      <trkpt lat="44.25499" lon="0.86012">
        <ele>204</ele>
        <time>2025-08-17T07:53:37.569Z</time>
      </trkpt>
      <trkpt lat="44.25499" lon="0.86011">
        <ele>204</ele>
        <time>2025-08-17T07:53:38.569Z</time>
      </trkpt>
      <trkpt lat="44.255" lon="0.86009">
        <ele>205</ele>
        <time>2025-08-17T07:53:39.569Z</time>
      </trkpt>
      <trkpt lat="44.25501" lon="0.86008">
        <ele>205</ele>
        <time>2025-08-17T07:53:40.569Z</time>
      </trkpt>
      <trkpt lat="44.25502" lon="0.86007">
        <ele>204</ele>
        <time>2025-08-17T07:53:41.569Z</time>
      </trkpt>
      <trkpt lat="44.25503" lon="0.86006">
        <ele>204</ele>
        <time>2025-08-17T07:53:42.569Z</time>
      </trkpt>
      <trkpt lat="44.25503" lon="0.86005">
        <ele>205</ele>
        <time>2025-08-17T07:53:43.569Z</time>
      </trkpt>
      <trkpt lat="44.25504" lon="0.86003">
        <ele>205</ele>
        <time>2025-08-17T07:53:44.569Z</time>
      </trkpt>
      <trkpt lat="44.25505" lon="0.86002">
        <ele>205</ele>
        <time>2025-08-17T07:53:45.569Z</time>
      </trkpt>
      <trkpt lat="44.25506" lon="0.86001">
        <ele>206</ele>
        <time>2025-08-17T07:53:46.569Z</time>
      </trkpt>
      <trkpt lat="44.25507" lon="0.85999">
        <ele>206</ele>
        <time>2025-08-17T07:53:47.569Z</time>
      </trkpt>
      <trkpt lat="44.25508" lon="0.85998">
        <ele>206</ele>
        <time>2025-08-17T07:53:48.569Z</time>
      </trkpt>
      <trkpt lat="44.25508" lon="0.85996">
        <ele>206</ele>
        <time>2025-08-17T07:53:49.569Z</time>
      </trkpt>
      <trkpt lat="44.25509" lon="0.85995">
        <ele>206</ele>
        <time>2025-08-17T07:53:50.569Z</time>
      </trkpt>
      <trkpt lat="44.2551" lon="0.85993">
        <ele>206</ele>
        <time>2025-08-17T07:53:51.569Z</time>
      </trkpt>
      <trkpt lat="44.25511" lon="0.85992">
        <ele>206</ele>
        <time>2025-08-17T07:53:52.569Z</time>
      </trkpt>
      <trkpt lat="44.25511" lon="0.85992">
        <ele>205</ele>
        <time>2025-08-17T07:53:53.569Z</time>
      </trkpt>
      <trkpt lat="44.25512" lon="0.85991">
        <ele>205</ele>
        <time>2025-08-17T07:53:54.569Z</time>
      </trkpt>
      <trkpt lat="44.25513" lon="0.8599">
        <ele>205</ele>
        <time>2025-08-17T07:53:55.569Z</time>
      </trkpt>
      <trkpt lat="44.25513" lon="0.85988">
        <ele>204</ele>
        <time>2025-08-17T07:53:56.569Z</time>
      </trkpt>
      <trkpt lat="44.25514" lon="0.85986">
        <ele>204</ele>
        <time>2025-08-17T07:53:57.569Z</time>
      </trkpt>
      <trkpt lat="44.25515" lon="0.85985">
        <ele>204</ele>
        <time>2025-08-17T07:53:58.569Z</time>
      </trkpt>
      <trkpt lat="44.25516" lon="0.85983">
        <ele>204</ele>
        <time>2025-08-17T07:53:59.569Z</time>
      </trkpt>
      <trkpt lat="44.25516" lon="0.85982">
        <ele>204</ele>
        <time>2025-08-17T07:54:00.569Z</time>
      </trkpt>
      <trkpt lat="44.25517" lon="0.8598">
        <ele>204</ele>
        <time>2025-08-17T07:54:01.569Z</time>
      </trkpt>
      <trkpt lat="44.25517" lon="0.85978">
        <ele>204</ele>
        <time>2025-08-17T07:54:02.569Z</time>
      </trkpt>
      <trkpt lat="44.25518" lon="0.85976">
        <ele>204</ele>
        <time>2025-08-17T07:54:03.569Z</time>
      </trkpt>
      <trkpt lat="44.25519" lon="0.85975">
        <ele>204</ele>
        <time>2025-08-17T07:54:04.569Z</time>
      </trkpt>
      <trkpt lat="44.25519" lon="0.85974">
        <ele>204</ele>
        <time>2025-08-17T07:54:05.569Z</time>
      </trkpt>
      <trkpt lat="44.2552" lon="0.85973">
        <ele>204</ele>
        <time>2025-08-17T07:54:06.569Z</time>
      </trkpt>
      <trkpt lat="44.25521" lon="0.85972">
        <ele>204</ele>
        <time>2025-08-17T07:54:07.569Z</time>
      </trkpt>
      <trkpt lat="44.25522" lon="0.85971">
        <ele>204</ele>
        <time>2025-08-17T07:54:08.569Z</time>
      </trkpt>
      <trkpt lat="44.25523" lon="0.8597">
        <ele>204</ele>
        <time>2025-08-17T07:54:09.569Z</time>
      </trkpt>
      <trkpt lat="44.25524" lon="0.85968">
        <ele>204</ele>
        <time>2025-08-17T07:54:10.569Z</time>
      </trkpt>
      <trkpt lat="44.25525" lon="0.85967">
        <ele>204</ele>
        <time>2025-08-17T07:54:11.569Z</time>
      </trkpt>
      <trkpt lat="44.25526" lon="0.85966">
        <ele>204</ele>
        <time>2025-08-17T07:54:12.569Z</time>
      </trkpt>
      <trkpt lat="44.25526" lon="0.85964">
        <ele>204</ele>
        <time>2025-08-17T07:54:13.569Z</time>
      </trkpt>
      <trkpt lat="44.25527" lon="0.85962">
        <ele>204</ele>
        <time>2025-08-17T07:54:14.569Z</time>
      </trkpt>
      <trkpt lat="44.25528" lon="0.85961">
        <ele>205</ele>
        <time>2025-08-17T07:54:15.569Z</time>
      </trkpt>
      <trkpt lat="44.25528" lon="0.85959">
        <ele>205</ele>
        <time>2025-08-17T07:54:16.569Z</time>
      </trkpt>
      <trkpt lat="44.25529" lon="0.85958">
        <ele>204</ele>
        <time>2025-08-17T07:54:17.569Z</time>
      </trkpt>
      <trkpt lat="44.25529" lon="0.85957">
        <ele>204</ele>
        <time>2025-08-17T07:54:18.569Z</time>
      </trkpt>
      <trkpt lat="44.2553" lon="0.85955">
        <ele>204</ele>
        <time>2025-08-17T07:54:19.569Z</time>
      </trkpt>
      <trkpt lat="44.2553" lon="0.85954">
        <ele>204</ele>
        <time>2025-08-17T07:54:20.569Z</time>
      </trkpt>
      <trkpt lat="44.25531" lon="0.85952">
        <ele>204</ele>
        <time>2025-08-17T07:54:21.569Z</time>
      </trkpt>
      <trkpt lat="44.25532" lon="0.85951">
        <ele>205</ele>
        <time>2025-08-17T07:54:22.569Z</time>
      </trkpt>
      <trkpt lat="44.25533" lon="0.8595">
        <ele>205</ele>
        <time>2025-08-17T07:54:23.569Z</time>
      </trkpt>
      <trkpt lat="44.25534" lon="0.85948">
        <ele>205</ele>
        <time>2025-08-17T07:54:24.569Z</time>
      </trkpt>
      <trkpt lat="44.25535" lon="0.85946">
        <ele>205</ele>
        <time>2025-08-17T07:54:25.569Z</time>
      </trkpt>
      <trkpt lat="44.25535" lon="0.85945">
        <ele>205</ele>
        <time>2025-08-17T07:54:26.569Z</time>
      </trkpt>
      <trkpt lat="44.25536" lon="0.85944">
        <ele>205</ele>
        <time>2025-08-17T07:54:27.569Z</time>
      </trkpt>
      <trkpt lat="44.25537" lon="0.85943">
        <ele>205</ele>
        <time>2025-08-17T07:54:28.569Z</time>
      </trkpt>
      <trkpt lat="44.25537" lon="0.85942">
        <ele>205</ele>
        <time>2025-08-17T07:54:29.569Z</time>
      </trkpt>
      <trkpt lat="44.25538" lon="0.8594">
        <ele>205</ele>
        <time>2025-08-17T07:54:30.569Z</time>
      </trkpt>
      <trkpt lat="44.25539" lon="0.85939">
        <ele>205</ele>
        <time>2025-08-17T07:54:31.569Z</time>
      </trkpt>
      <trkpt lat="44.25539" lon="0.85938">
        <ele>205</ele>
        <time>2025-08-17T07:54:32.569Z</time>
      </trkpt>
      <trkpt lat="44.2554" lon="0.85936">
        <ele>205</ele>
        <time>2025-08-17T07:54:33.569Z</time>
      </trkpt>
      <trkpt lat="44.25541" lon="0.85934">
        <ele>205</ele>
        <time>2025-08-17T07:54:34.569Z</time>
      </trkpt>
      <trkpt lat="44.25541" lon="0.85933">
        <ele>205</ele>
        <time>2025-08-17T07:54:35.569Z</time>
      </trkpt>
      <trkpt lat="44.25542" lon="0.85931">
        <ele>205</ele>
        <time>2025-08-17T07:54:36.569Z</time>
      </trkpt>
      <trkpt lat="44.25543" lon="0.8593">
        <ele>205</ele>
        <time>2025-08-17T07:54:37.569Z</time>
      </trkpt>
      <trkpt lat="44.25544" lon="0.85928">
        <ele>205</ele>
        <time>2025-08-17T07:54:38.569Z</time>
      </trkpt>
      <trkpt lat="44.25545" lon="0.85927">
        <ele>205</ele>
        <time>2025-08-17T07:54:39.569Z</time>
      </trkpt>
      <trkpt lat="44.25545" lon="0.85926">
        <ele>204</ele>
        <time>2025-08-17T07:54:40.569Z</time>
      </trkpt>
      <trkpt lat="44.25546" lon="0.85925">
        <ele>204</ele>
        <time>2025-08-17T07:54:41.569Z</time>
      </trkpt>
      <trkpt lat="44.25547" lon="0.85924">
        <ele>204</ele>
        <time>2025-08-17T07:54:42.569Z</time>
      </trkpt>
      <trkpt lat="44.25548" lon="0.85924">
        <ele>203</ele>
        <time>2025-08-17T07:54:43.569Z</time>
      </trkpt>
      <trkpt lat="44.25548" lon="0.85923">
        <ele>203</ele>
        <time>2025-08-17T07:54:44.569Z</time>
      </trkpt>
      <trkpt lat="44.25549" lon="0.85921">
        <ele>203</ele>
        <time>2025-08-17T07:54:45.569Z</time>
      </trkpt>
      <trkpt lat="44.2555" lon="0.8592">
        <ele>203</ele>
        <time>2025-08-17T07:54:46.569Z</time>
      </trkpt>
      <trkpt lat="44.25551" lon="0.8592">
        <ele>202</ele>
        <time>2025-08-17T07:54:47.569Z</time>
      </trkpt>
      <trkpt lat="44.25551" lon="0.85919">
        <ele>202</ele>
        <time>2025-08-17T07:54:48.569Z</time>
      </trkpt>
      <trkpt lat="44.25552" lon="0.85917">
        <ele>202</ele>
        <time>2025-08-17T07:54:49.569Z</time>
      </trkpt>
      <trkpt lat="44.25553" lon="0.85916">
        <ele>202</ele>
        <time>2025-08-17T07:54:50.569Z</time>
      </trkpt>
      <trkpt lat="44.25554" lon="0.85914">
        <ele>203</ele>
        <time>2025-08-17T07:54:51.569Z</time>
      </trkpt>
      <trkpt lat="44.25554" lon="0.85913">
        <ele>203</ele>
        <time>2025-08-17T07:54:52.569Z</time>
      </trkpt>
      <trkpt lat="44.25555" lon="0.85912">
        <ele>203</ele>
        <time>2025-08-17T07:54:53.569Z</time>
      </trkpt>
      <trkpt lat="44.25556" lon="0.85911">
        <ele>203</ele>
        <time>2025-08-17T07:54:54.569Z</time>
      </trkpt>
      <trkpt lat="44.25557" lon="0.85909">
        <ele>203</ele>
        <time>2025-08-17T07:54:55.569Z</time>
      </trkpt>
      <trkpt lat="44.25558" lon="0.85908">
        <ele>203</ele>
        <time>2025-08-17T07:54:56.569Z</time>
      </trkpt>
      <trkpt lat="44.25559" lon="0.85907">
        <ele>203</ele>
        <time>2025-08-17T07:54:57.569Z</time>
      </trkpt>
      <trkpt lat="44.2556" lon="0.85905">
        <ele>203</ele>
        <time>2025-08-17T07:54:58.569Z</time>
      </trkpt>
      <trkpt lat="44.25561" lon="0.85903">
        <ele>203</ele>
        <time>2025-08-17T07:54:59.569Z</time>
      </trkpt>
      <trkpt lat="44.25562" lon="0.85902">
        <ele>203</ele>
        <time>2025-08-17T07:55:00.569Z</time>
      </trkpt>
      <trkpt lat="44.25563" lon="0.85901">
        <ele>204</ele>
        <time>2025-08-17T07:55:01.569Z</time>
      </trkpt>
      <trkpt lat="44.25564" lon="0.85899">
        <ele>204</ele>
        <time>2025-08-17T07:55:02.569Z</time>
      </trkpt>
      <trkpt lat="44.25565" lon="0.85898">
        <ele>204</ele>
        <time>2025-08-17T07:55:03.569Z</time>
      </trkpt>
      <trkpt lat="44.25566" lon="0.85897">
        <ele>204</ele>
        <time>2025-08-17T07:55:04.569Z</time>
      </trkpt>
      <trkpt lat="44.25567" lon="0.85896">
        <ele>205</ele>
        <time>2025-08-17T07:55:05.569Z</time>
      </trkpt>
      <trkpt lat="44.25568" lon="0.85895">
        <ele>205</ele>
        <time>2025-08-17T07:55:06.569Z</time>
      </trkpt>
      <trkpt lat="44.25569" lon="0.85894">
        <ele>205</ele>
        <time>2025-08-17T07:55:07.569Z</time>
      </trkpt>
      <trkpt lat="44.25569" lon="0.85893">
        <ele>205</ele>
        <time>2025-08-17T07:55:08.569Z</time>
      </trkpt>
      <trkpt lat="44.25571" lon="0.85891">
        <ele>205</ele>
        <time>2025-08-17T07:55:09.569Z</time>
      </trkpt>
      <trkpt lat="44.25572" lon="0.8589">
        <ele>205</ele>
        <time>2025-08-17T07:55:10.569Z</time>
      </trkpt>
      <trkpt lat="44.25573" lon="0.85889">
        <ele>205</ele>
        <time>2025-08-17T07:55:11.569Z</time>
      </trkpt>
      <trkpt lat="44.25574" lon="0.85887">
        <ele>205</ele>
        <time>2025-08-17T07:55:12.569Z</time>
      </trkpt>
      <trkpt lat="44.25575" lon="0.85886">
        <ele>205</ele>
        <time>2025-08-17T07:55:13.569Z</time>
      </trkpt>
      <trkpt lat="44.25576" lon="0.85885">
        <ele>206</ele>
        <time>2025-08-17T07:55:14.569Z</time>
      </trkpt>
      <trkpt lat="44.25576" lon="0.85883">
        <ele>206</ele>
        <time>2025-08-17T07:55:15.569Z</time>
      </trkpt>
      <trkpt lat="44.25577" lon="0.85882">
        <ele>206</ele>
        <time>2025-08-17T07:55:16.569Z</time>
      </trkpt>
      <trkpt lat="44.25578" lon="0.85881">
        <ele>205</ele>
        <time>2025-08-17T07:55:17.569Z</time>
      </trkpt>
      <trkpt lat="44.25579" lon="0.8588">
        <ele>205</ele>
        <time>2025-08-17T07:55:18.569Z</time>
      </trkpt>
      <trkpt lat="44.2558" lon="0.85879">
        <ele>205</ele>
        <time>2025-08-17T07:55:19.569Z</time>
      </trkpt>
      <trkpt lat="44.25581" lon="0.85878">
        <ele>205</ele>
        <time>2025-08-17T07:55:20.569Z</time>
      </trkpt>
      <trkpt lat="44.25582" lon="0.85877">
        <ele>206</ele>
        <time>2025-08-17T07:55:21.569Z</time>
      </trkpt>
      <trkpt lat="44.25583" lon="0.85875">
        <ele>206</ele>
        <time>2025-08-17T07:55:22.569Z</time>
      </trkpt>
      <trkpt lat="44.25584" lon="0.85874">
        <ele>206</ele>
        <time>2025-08-17T07:55:23.569Z</time>
      </trkpt>
      <trkpt lat="44.25585" lon="0.85873">
        <ele>206</ele>
        <time>2025-08-17T07:55:24.569Z</time>
      </trkpt>
      <trkpt lat="44.25586" lon="0.85872">
        <ele>206</ele>
        <time>2025-08-17T07:55:25.569Z</time>
      </trkpt>
      <trkpt lat="44.25587" lon="0.8587">
        <ele>206</ele>
        <time>2025-08-17T07:55:26.569Z</time>
      </trkpt>
      <trkpt lat="44.25587" lon="0.8587">
        <ele>205</ele>
        <time>2025-08-17T07:55:27.569Z</time>
      </trkpt>
      <trkpt lat="44.25588" lon="0.85868">
        <ele>205</ele>
        <time>2025-08-17T07:55:28.569Z</time>
      </trkpt>
      <trkpt lat="44.25589" lon="0.85867">
        <ele>205</ele>
        <time>2025-08-17T07:55:29.569Z</time>
      </trkpt>
      <trkpt lat="44.2559" lon="0.85866">
        <ele>205</ele>
        <time>2025-08-17T07:55:30.569Z</time>
      </trkpt>
      <trkpt lat="44.25591" lon="0.85865">
        <ele>204</ele>
        <time>2025-08-17T07:55:31.569Z</time>
      </trkpt>
      <trkpt lat="44.25592" lon="0.85864">
        <ele>204</ele>
        <time>2025-08-17T07:55:32.569Z</time>
      </trkpt>
      <trkpt lat="44.25593" lon="0.85863">
        <ele>204</ele>
        <time>2025-08-17T07:55:33.569Z</time>
      </trkpt>
      <trkpt lat="44.25594" lon="0.85862">
        <ele>204</ele>
        <time>2025-08-17T07:55:34.569Z</time>
      </trkpt>
      <trkpt lat="44.25595" lon="0.8586">
        <ele>204</ele>
        <time>2025-08-17T07:55:35.569Z</time>
      </trkpt>
      <trkpt lat="44.25596" lon="0.85859">
        <ele>204</ele>
        <time>2025-08-17T07:55:36.569Z</time>
      </trkpt>
      <trkpt lat="44.25597" lon="0.85858">
        <ele>204</ele>
        <time>2025-08-17T07:55:37.569Z</time>
      </trkpt>
      <trkpt lat="44.25598" lon="0.85857">
        <ele>204</ele>
        <time>2025-08-17T07:55:38.569Z</time>
      </trkpt>
      <trkpt lat="44.25599" lon="0.85855">
        <ele>205</ele>
        <time>2025-08-17T07:55:39.569Z</time>
      </trkpt>
      <trkpt lat="44.256" lon="0.85854">
        <ele>205</ele>
        <time>2025-08-17T07:55:40.569Z</time>
      </trkpt>
      <trkpt lat="44.256" lon="0.85853">
        <ele>205</ele>
        <time>2025-08-17T07:55:41.569Z</time>
      </trkpt>
      <trkpt lat="44.25601" lon="0.85851">
        <ele>205</ele>
        <time>2025-08-17T07:55:42.569Z</time>
      </trkpt>
      <trkpt lat="44.25602" lon="0.8585">
        <ele>205</ele>
        <time>2025-08-17T07:55:43.569Z</time>
      </trkpt>
      <trkpt lat="44.25603" lon="0.85849">
        <ele>205</ele>
        <time>2025-08-17T07:55:44.569Z</time>
      </trkpt>
      <trkpt lat="44.25604" lon="0.85847">
        <ele>205</ele>
        <time>2025-08-17T07:55:45.569Z</time>
      </trkpt>
      <trkpt lat="44.25605" lon="0.85846">
        <ele>205</ele>
        <time>2025-08-17T07:55:46.569Z</time>
      </trkpt>
      <trkpt lat="44.25607" lon="0.85844">
        <ele>206</ele>
        <time>2025-08-17T07:55:47.569Z</time>
      </trkpt>
      <trkpt lat="44.25608" lon="0.85843">
        <ele>206</ele>
        <time>2025-08-17T07:55:48.569Z</time>
      </trkpt>
      <trkpt lat="44.25609" lon="0.85841">
        <ele>206</ele>
        <time>2025-08-17T07:55:49.569Z</time>
      </trkpt>
      <trkpt lat="44.2561" lon="0.8584">
        <ele>206</ele>
        <time>2025-08-17T07:55:50.569Z</time>
      </trkpt>
      <trkpt lat="44.25611" lon="0.85839">
        <ele>206</ele>
        <time>2025-08-17T07:55:51.569Z</time>
      </trkpt>
      <trkpt lat="44.25612" lon="0.85837">
        <ele>206</ele>
        <time>2025-08-17T07:55:52.569Z</time>
      </trkpt>
      <trkpt lat="44.25613" lon="0.85836">
        <ele>206</ele>
        <time>2025-08-17T07:55:53.569Z</time>
      </trkpt>
      <trkpt lat="44.25614" lon="0.85834">
        <ele>206</ele>
        <time>2025-08-17T07:55:54.569Z</time>
      </trkpt>
      <trkpt lat="44.25615" lon="0.85833">
        <ele>205</ele>
        <time>2025-08-17T07:55:55.569Z</time>
      </trkpt>
      <trkpt lat="44.25615" lon="0.85831">
        <ele>205</ele>
        <time>2025-08-17T07:55:56.569Z</time>
      </trkpt>
      <trkpt lat="44.25616" lon="0.8583">
        <ele>205</ele>
        <time>2025-08-17T07:55:57.569Z</time>
      </trkpt>
      <trkpt lat="44.25617" lon="0.85829">
        <ele>205</ele>
        <time>2025-08-17T07:55:58.569Z</time>
      </trkpt>
      <trkpt lat="44.25618" lon="0.85828">
        <ele>205</ele>
        <time>2025-08-17T07:55:59.569Z</time>
      </trkpt>
      <trkpt lat="44.25619" lon="0.85826">
        <ele>204</ele>
        <time>2025-08-17T07:56:00.569Z</time>
      </trkpt>
      <trkpt lat="44.25619" lon="0.85825">
        <ele>204</ele>
        <time>2025-08-17T07:56:01.569Z</time>
      </trkpt>
      <trkpt lat="44.2562" lon="0.85824">
        <ele>204</ele>
        <time>2025-08-17T07:56:02.569Z</time>
      </trkpt>
      <trkpt lat="44.25621" lon="0.85822">
        <ele>204</ele>
        <time>2025-08-17T07:56:03.569Z</time>
      </trkpt>
      <trkpt lat="44.25621" lon="0.85821">
        <ele>203</ele>
        <time>2025-08-17T07:56:04.569Z</time>
      </trkpt>
      <trkpt lat="44.25622" lon="0.8582">
        <ele>203</ele>
        <time>2025-08-17T07:56:05.569Z</time>
      </trkpt>
      <trkpt lat="44.25623" lon="0.85819">
        <ele>202</ele>
        <time>2025-08-17T07:56:06.569Z</time>
      </trkpt>
      <trkpt lat="44.25624" lon="0.85818">
        <ele>202</ele>
        <time>2025-08-17T07:56:07.569Z</time>
      </trkpt>
      <trkpt lat="44.25624" lon="0.85817">
        <ele>202</ele>
        <time>2025-08-17T07:56:08.569Z</time>
      </trkpt>
      <trkpt lat="44.25625" lon="0.85816">
        <ele>202</ele>
        <time>2025-08-17T07:56:09.569Z</time>
      </trkpt>
      <trkpt lat="44.25626" lon="0.85815">
        <ele>202</ele>
        <time>2025-08-17T07:56:10.569Z</time>
      </trkpt>
      <trkpt lat="44.25627" lon="0.85814">
        <ele>202</ele>
        <time>2025-08-17T07:56:11.569Z</time>
      </trkpt>
      <trkpt lat="44.25628" lon="0.85813">
        <ele>202</ele>
        <time>2025-08-17T07:56:12.569Z</time>
      </trkpt>
      <trkpt lat="44.25628" lon="0.85812">
        <ele>202</ele>
        <time>2025-08-17T07:56:13.569Z</time>
      </trkpt>
      <trkpt lat="44.2563" lon="0.85811">
        <ele>203</ele>
        <time>2025-08-17T07:56:14.569Z</time>
      </trkpt>
      <trkpt lat="44.2563" lon="0.8581">
        <ele>204</ele>
        <time>2025-08-17T07:56:15.569Z</time>
      </trkpt>
      <trkpt lat="44.25631" lon="0.85809">
        <ele>205</ele>
        <time>2025-08-17T07:56:16.569Z</time>
      </trkpt>
      <trkpt lat="44.25632" lon="0.85807">
        <ele>205</ele>
        <time>2025-08-17T07:56:17.569Z</time>
      </trkpt>
      <trkpt lat="44.25633" lon="0.85806">
        <ele>205</ele>
        <time>2025-08-17T07:56:18.569Z</time>
      </trkpt>
      <trkpt lat="44.25634" lon="0.85806">
        <ele>206</ele>
        <time>2025-08-17T07:56:19.569Z</time>
      </trkpt>
      <trkpt lat="44.25635" lon="0.85805">
        <ele>206</ele>
        <time>2025-08-17T07:56:20.569Z</time>
      </trkpt>
      <trkpt lat="44.25636" lon="0.85804">
        <ele>206</ele>
        <time>2025-08-17T07:56:21.569Z</time>
      </trkpt>
      <trkpt lat="44.25637" lon="0.85803">
        <ele>206</ele>
        <time>2025-08-17T07:56:22.569Z</time>
      </trkpt>
      <trkpt lat="44.25638" lon="0.85802">
        <ele>206</ele>
        <time>2025-08-17T07:56:23.569Z</time>
      </trkpt>
      <trkpt lat="44.25639" lon="0.85801">
        <ele>206</ele>
        <time>2025-08-17T07:56:24.569Z</time>
      </trkpt>
      <trkpt lat="44.2564" lon="0.858">
        <ele>205</ele>
        <time>2025-08-17T07:56:25.569Z</time>
      </trkpt>
      <trkpt lat="44.25641" lon="0.85799">
        <ele>205</ele>
        <time>2025-08-17T07:56:26.569Z</time>
      </trkpt>
      <trkpt lat="44.25642" lon="0.85798">
        <ele>205</ele>
        <time>2025-08-17T07:56:27.569Z</time>
      </trkpt>
      <trkpt lat="44.25643" lon="0.85797">
        <ele>205</ele>
        <time>2025-08-17T07:56:28.569Z</time>
      </trkpt>
      <trkpt lat="44.25644" lon="0.85797">
        <ele>204</ele>
        <time>2025-08-17T07:56:29.569Z</time>
      </trkpt>
      <trkpt lat="44.25645" lon="0.85797">
        <ele>204</ele>
        <time>2025-08-17T07:56:30.569Z</time>
      </trkpt>
      <trkpt lat="44.25646" lon="0.85796">
        <ele>204</ele>
        <time>2025-08-17T07:56:31.569Z</time>
      </trkpt>
      <trkpt lat="44.25647" lon="0.85795">
        <ele>205</ele>
        <time>2025-08-17T07:56:32.569Z</time>
      </trkpt>
      <trkpt lat="44.25648" lon="0.85794">
        <ele>205</ele>
        <time>2025-08-17T07:56:33.569Z</time>
      </trkpt>
      <trkpt lat="44.25648" lon="0.85793">
        <ele>205</ele>
        <time>2025-08-17T07:56:34.569Z</time>
      </trkpt>
      <trkpt lat="44.25649" lon="0.85792">
        <ele>205</ele>
        <time>2025-08-17T07:56:35.569Z</time>
      </trkpt>
      <trkpt lat="44.2565" lon="0.85791">
        <ele>204</ele>
        <time>2025-08-17T07:56:36.569Z</time>
      </trkpt>
      <trkpt lat="44.25651" lon="0.85791">
        <ele>204</ele>
        <time>2025-08-17T07:56:37.569Z</time>
      </trkpt>
      <trkpt lat="44.25651" lon="0.8579">
        <ele>204</ele>
        <time>2025-08-17T07:56:38.569Z</time>
      </trkpt>
      <trkpt lat="44.25652" lon="0.85789">
        <ele>204</ele>
        <time>2025-08-17T07:56:39.569Z</time>
      </trkpt>
      <trkpt lat="44.25653" lon="0.85789">
        <ele>203</ele>
        <time>2025-08-17T07:56:40.569Z</time>
      </trkpt>
      <trkpt lat="44.25654" lon="0.85788">
        <ele>203</ele>
        <time>2025-08-17T07:56:41.569Z</time>
      </trkpt>
      <trkpt lat="44.25655" lon="0.85788">
        <ele>203</ele>
        <time>2025-08-17T07:56:42.569Z</time>
      </trkpt>
      <trkpt lat="44.25656" lon="0.85787">
        <ele>202</ele>
        <time>2025-08-17T07:56:43.569Z</time>
      </trkpt>
      <trkpt lat="44.25658" lon="0.85788">
        <ele>202</ele>
        <time>2025-08-17T07:56:44.569Z</time>
      </trkpt>
      <trkpt lat="44.25659" lon="0.85788">
        <ele>202</ele>
        <time>2025-08-17T07:56:45.569Z</time>
      </trkpt>
      <trkpt lat="44.2566" lon="0.85788">
        <ele>202</ele>
        <time>2025-08-17T07:56:46.569Z</time>
      </trkpt>
      <trkpt lat="44.25661" lon="0.85788">
        <ele>202</ele>
        <time>2025-08-17T07:56:47.569Z</time>
      </trkpt>
      <trkpt lat="44.25662" lon="0.85788">
        <ele>202</ele>
        <time>2025-08-17T07:56:48.569Z</time>
      </trkpt>
      <trkpt lat="44.25664" lon="0.85788">
        <ele>202</ele>
        <time>2025-08-17T07:56:49.569Z</time>
      </trkpt>
      <trkpt lat="44.25665" lon="0.85788">
        <ele>202</ele>
        <time>2025-08-17T07:56:50.569Z</time>
      </trkpt>
      <trkpt lat="44.25667" lon="0.85788">
        <ele>202</ele>
        <time>2025-08-17T07:56:51.569Z</time>
      </trkpt>
      <trkpt lat="44.25668" lon="0.85788">
        <ele>202</ele>
        <time>2025-08-17T07:56:52.569Z</time>
      </trkpt>
      <trkpt lat="44.2567" lon="0.85788">
        <ele>202</ele>
        <time>2025-08-17T07:56:53.569Z</time>
      </trkpt>
      <trkpt lat="44.25671" lon="0.85788">
        <ele>202</ele>
        <time>2025-08-17T07:56:54.569Z</time>
      </trkpt>
      <trkpt lat="44.25673" lon="0.85788">
        <ele>202</ele>
        <time>2025-08-17T07:56:55.569Z</time>
      </trkpt>
      <trkpt lat="44.25674" lon="0.85788">
        <ele>202</ele>
        <time>2025-08-17T07:56:56.569Z</time>
      </trkpt>
      <trkpt lat="44.25675" lon="0.85788">
        <ele>202</ele>
        <time>2025-08-17T07:56:57.569Z</time>
      </trkpt>
      <trkpt lat="44.25676" lon="0.85788">
        <ele>203</ele>
        <time>2025-08-17T07:56:58.569Z</time>
      </trkpt>
      <trkpt lat="44.25677" lon="0.85788">
        <ele>202</ele>
        <time>2025-08-17T07:56:59.569Z</time>
      </trkpt>
      <trkpt lat="44.25678" lon="0.85788">
        <ele>202</ele>
        <time>2025-08-17T07:57:00.569Z</time>
      </trkpt>
      <trkpt lat="44.25679" lon="0.85788">
        <ele>203</ele>
        <time>2025-08-17T07:57:01.569Z</time>
      </trkpt>
      <trkpt lat="44.2568" lon="0.85788">
        <ele>203</ele>
        <time>2025-08-17T07:57:02.569Z</time>
      </trkpt>
      <trkpt lat="44.25681" lon="0.85788">
        <ele>203</ele>
        <time>2025-08-17T07:57:03.569Z</time>
      </trkpt>
      <trkpt lat="44.25683" lon="0.85788">
        <ele>202</ele>
        <time>2025-08-17T07:57:04.569Z</time>
      </trkpt>
      <trkpt lat="44.25684" lon="0.85788">
        <ele>202</ele>
        <time>2025-08-17T07:57:05.569Z</time>
      </trkpt>
      <trkpt lat="44.25685" lon="0.85788">
        <ele>202</ele>
        <time>2025-08-17T07:57:06.569Z</time>
      </trkpt>
      <trkpt lat="44.25686" lon="0.85788">
        <ele>202</ele>
        <time>2025-08-17T07:57:07.569Z</time>
      </trkpt>
      <trkpt lat="44.25687" lon="0.85788">
        <ele>202</ele>
        <time>2025-08-17T07:57:08.569Z</time>
      </trkpt>
      <trkpt lat="44.25688" lon="0.85788">
        <ele>203</ele>
        <time>2025-08-17T07:57:09.569Z</time>
      </trkpt>
      <trkpt lat="44.25688" lon="0.85787">
        <ele>202</ele>
        <time>2025-08-17T07:57:10.569Z</time>
      </trkpt>
      <trkpt lat="44.25689" lon="0.85787">
        <ele>202</ele>
        <time>2025-08-17T07:57:11.569Z</time>
      </trkpt>
      <trkpt lat="44.25689" lon="0.85787">
        <ele>203</ele>
        <time>2025-08-17T07:57:12.569Z</time>
      </trkpt>
      <trkpt lat="44.25689" lon="0.85787">
        <ele>203</ele>
        <time>2025-08-17T07:57:13.569Z</time>
      </trkpt>
      <trkpt lat="44.25689" lon="0.85787">
        <ele>203</ele>
        <time>2025-08-17T07:57:14.569Z</time>
      </trkpt>
      <trkpt lat="44.25689" lon="0.85786">
        <ele>203</ele>
        <time>2025-08-17T07:57:15.569Z</time>
      </trkpt>
      <trkpt lat="44.25689" lon="0.85786">
        <ele>203</ele>
        <time>2025-08-17T07:57:16.569Z</time>
      </trkpt>
      <trkpt lat="44.25689" lon="0.85786">
        <ele>203</ele>
        <time>2025-08-17T07:57:17.569Z</time>
      </trkpt>
      <trkpt lat="44.25689" lon="0.85786">
        <ele>203</ele>
        <time>2025-08-17T07:57:18.569Z</time>
      </trkpt>
      <trkpt lat="44.25689" lon="0.85786">
        <ele>203</ele>
        <time>2025-08-17T07:57:19.569Z</time>
      </trkpt>
      <trkpt lat="44.25689" lon="0.85786">
        <ele>203</ele>
        <time>2025-08-17T07:57:20.569Z</time>
      </trkpt>
      <trkpt lat="44.25689" lon="0.85786">
        <ele>203</ele>
        <time>2025-08-17T07:57:21.569Z</time>
      </trkpt>
      <trkpt lat="44.25689" lon="0.85786">
        <ele>203</ele>
        <time>2025-08-17T07:57:22.569Z</time>
      </trkpt>
      <trkpt lat="44.25689" lon="0.85786">
        <ele>203</ele>
        <time>2025-08-17T07:57:23.569Z</time>
      </trkpt>
      <trkpt lat="44.25689" lon="0.85786">
        <ele>203</ele>
        <time>2025-08-17T07:57:24.569Z</time>
      </trkpt>
      <trkpt lat="44.25689" lon="0.85786">
        <ele>203</ele>
        <time>2025-08-17T07:57:25.569Z</time>
      </trkpt>
      <trkpt lat="44.25689" lon="0.85786">
        <ele>203</ele>
        <time>2025-08-17T07:57:26.569Z</time>
      </trkpt>
      <trkpt lat="44.25689" lon="0.85786">
        <ele>203</ele>
        <time>2025-08-17T07:57:27.569Z</time>
      </trkpt>
      <trkpt lat="44.25689" lon="0.85786">
        <ele>203</ele>
        <time>2025-08-17T07:57:28.569Z</time>
      </trkpt>
      <trkpt lat="44.25689" lon="0.85786">
        <ele>203</ele>
        <time>2025-08-17T07:57:29.569Z</time>
      </trkpt>
      <trkpt lat="44.25689" lon="0.85786">
        <ele>203</ele>
        <time>2025-08-17T07:57:30.569Z</time>
      </trkpt>
      <trkpt lat="44.25689" lon="0.85786">
        <ele>203</ele>
        <time>2025-08-17T07:57:31.569Z</time>
      </trkpt>
      <trkpt lat="44.25689" lon="0.85786">
        <ele>202</ele>
        <time>2025-08-17T07:57:32.569Z</time>
      </trkpt>
      <trkpt lat="44.25689" lon="0.85786">
        <ele>202</ele>
        <time>2025-08-17T07:57:33.569Z</time>
      </trkpt>
      <trkpt lat="44.25689" lon="0.85786">
        <ele>202</ele>
        <time>2025-08-17T07:57:34.569Z</time>
      </trkpt>
      <trkpt lat="44.25689" lon="0.85786">
        <ele>202</ele>
        <time>2025-08-17T07:57:35.569Z</time>
      </trkpt>
      <trkpt lat="44.25689" lon="0.85786">
        <ele>201</ele>
        <time>2025-08-17T07:57:36.570Z</time>
      </trkpt>
      <trkpt lat="44.25689" lon="0.85786">
        <ele>201</ele>
        <time>2025-08-17T07:57:37.569Z</time>
      </trkpt>
      <trkpt lat="44.25689" lon="0.85786">
        <ele>201</ele>
        <time>2025-08-17T07:57:38.569Z</time>
      </trkpt>
      <trkpt lat="44.25689" lon="0.85786">
        <ele>200</ele>
        <time>2025-08-17T07:57:39.569Z</time>
      </trkpt>
      <trkpt lat="44.25689" lon="0.85786">
        <ele>200</ele>
        <time>2025-08-17T07:57:40.569Z</time>
      </trkpt>
      <trkpt lat="44.25689" lon="0.85786">
        <ele>199</ele>
        <time>2025-08-17T07:57:41.569Z</time>
      </trkpt>
      <trkpt lat="44.25689" lon="0.85786">
        <ele>199</ele>
        <time>2025-08-17T07:57:42.569Z</time>
      </trkpt>
      <trkpt lat="44.25689" lon="0.85786">
        <ele>199</ele>
        <time>2025-08-17T07:57:43.569Z</time>
      </trkpt>
      <trkpt lat="44.25689" lon="0.85786">
        <ele>199</ele>
        <time>2025-08-17T07:57:44.569Z</time>
      </trkpt>
      <trkpt lat="44.25689" lon="0.85786">
        <ele>199</ele>
        <time>2025-08-17T07:57:45.569Z</time>
      </trkpt>
      <trkpt lat="44.25689" lon="0.85786">
        <ele>199</ele>
        <time>2025-08-17T07:57:46.569Z</time>
      </trkpt>
      <trkpt lat="44.25689" lon="0.85786">
        <ele>199</ele>
        <time>2025-08-17T07:57:47.569Z</time>
      </trkpt>
      <trkpt lat="44.25689" lon="0.85786">
        <ele>199</ele>
        <time>2025-08-17T07:57:48.569Z</time>
      </trkpt>
      <trkpt lat="44.25689" lon="0.85786">
        <ele>199</ele>
        <time>2025-08-17T07:57:49.569Z</time>
      </trkpt>
      <trkpt lat="44.25689" lon="0.85786">
        <ele>199</ele>
        <time>2025-08-17T07:57:50.569Z</time>
      </trkpt>
      <trkpt lat="44.25689" lon="0.85786">
        <ele>200</ele>
        <time>2025-08-17T07:57:51.569Z</time>
      </trkpt>
      <trkpt lat="44.25689" lon="0.85786">
        <ele>200</ele>
        <time>2025-08-17T07:57:52.569Z</time>
      </trkpt>
      <trkpt lat="44.25689" lon="0.85786">
        <ele>199</ele>
        <time>2025-08-17T07:57:53.569Z</time>
      </trkpt>
      <trkpt lat="44.25689" lon="0.85786">
        <ele>199</ele>
        <time>2025-08-17T07:57:54.569Z</time>
      </trkpt>
      <trkpt lat="44.2569" lon="0.85786">
        <ele>199</ele>
        <time>2025-08-17T07:57:55.569Z</time>
      </trkpt>
      <trkpt lat="44.2569" lon="0.85786">
        <ele>199</ele>
        <time>2025-08-17T07:57:56.569Z</time>
      </trkpt>
      <trkpt lat="44.2569" lon="0.85786">
        <ele>198</ele>
        <time>2025-08-17T07:57:57.569Z</time>
      </trkpt>
      <trkpt lat="44.2569" lon="0.85785">
        <ele>198</ele>
        <time>2025-08-17T07:57:58.569Z</time>
      </trkpt>
      <trkpt lat="44.2569" lon="0.85786">
        <ele>198</ele>
        <time>2025-08-17T07:57:59.569Z</time>
      </trkpt>
      <trkpt lat="44.2569" lon="0.85786">
        <ele>197</ele>
        <time>2025-08-17T07:58:00.569Z</time>
      </trkpt>
      <trkpt lat="44.2569" lon="0.85786">
        <ele>197</ele>
        <time>2025-08-17T07:58:01.569Z</time>
      </trkpt>
      <trkpt lat="44.2569" lon="0.85786">
        <ele>197</ele>
        <time>2025-08-17T07:58:02.569Z</time>
      </trkpt>
      <trkpt lat="44.2569" lon="0.85787">
        <ele>196</ele>
        <time>2025-08-17T07:58:03.569Z</time>
      </trkpt>
      <trkpt lat="44.2569" lon="0.85787">
        <ele>196</ele>
        <time>2025-08-17T07:58:04.569Z</time>
      </trkpt>
      <trkpt lat="44.25689" lon="0.85787">
        <ele>196</ele>
        <time>2025-08-17T07:58:05.569Z</time>
      </trkpt>
      <trkpt lat="44.2569" lon="0.85787">
        <ele>196</ele>
        <time>2025-08-17T07:58:06.569Z</time>
      </trkpt>
      <trkpt lat="44.2569" lon="0.85786">
        <ele>196</ele>
        <time>2025-08-17T07:58:07.569Z</time>
      </trkpt>
      <trkpt lat="44.25691" lon="0.85785">
        <ele>196</ele>
        <time>2025-08-17T07:58:08.569Z</time>
      </trkpt>
      <trkpt lat="44.25691" lon="0.85785">
        <ele>196</ele>
        <time>2025-08-17T07:58:09.569Z</time>
      </trkpt>
      <trkpt lat="44.25691" lon="0.85785">
        <ele>196</ele>
        <time>2025-08-17T07:58:10.569Z</time>
      </trkpt>
      <trkpt lat="44.25691" lon="0.85785">
        <ele>196</ele>
        <time>2025-08-17T07:58:11.569Z</time>
      </trkpt>
      <trkpt lat="44.25691" lon="0.85785">
        <ele>196</ele>
        <time>2025-08-17T07:58:12.569Z</time>
      </trkpt>
      <trkpt lat="44.25691" lon="0.85785">
        <ele>196</ele>
        <time>2025-08-17T07:58:13.569Z</time>
      </trkpt>
      <trkpt lat="44.25691" lon="0.85785">
        <ele>196</ele>
        <time>2025-08-17T07:58:14.569Z</time>
      </trkpt>
      <trkpt lat="44.25691" lon="0.85785">
        <ele>196</ele>
        <time>2025-08-17T07:58:15.569Z</time>
      </trkpt>
      <trkpt lat="44.25692" lon="0.85786">
        <ele>197</ele>
        <time>2025-08-17T07:58:16.569Z</time>
      </trkpt>
      <trkpt lat="44.25692" lon="0.85786">
        <ele>197</ele>
        <time>2025-08-17T07:58:17.569Z</time>
      </trkpt>
      <trkpt lat="44.25693" lon="0.85786">
        <ele>197</ele>
        <time>2025-08-17T07:58:18.569Z</time>
      </trkpt>
      <trkpt lat="44.25693" lon="0.85786">
        <ele>197</ele>
        <time>2025-08-17T07:58:19.569Z</time>
      </trkpt>
      <trkpt lat="44.25693" lon="0.85786">
        <ele>197</ele>
        <time>2025-08-17T07:58:20.569Z</time>
      </trkpt>
      <trkpt lat="44.25694" lon="0.85787">
        <ele>197</ele>
        <time>2025-08-17T07:58:21.569Z</time>
      </trkpt>
      <trkpt lat="44.25694" lon="0.85787">
        <ele>197</ele>
        <time>2025-08-17T07:58:22.569Z</time>
      </trkpt>
      <trkpt lat="44.25694" lon="0.85787">
        <ele>197</ele>
        <time>2025-08-17T07:58:23.569Z</time>
      </trkpt>
      <trkpt lat="44.25694" lon="0.85787">
        <ele>198</ele>
        <time>2025-08-17T07:58:24.569Z</time>
      </trkpt>
      <trkpt lat="44.25694" lon="0.85788">
        <ele>198</ele>
        <time>2025-08-17T07:58:25.569Z</time>
      </trkpt>
      <trkpt lat="44.25695" lon="0.85788">
        <ele>198</ele>
        <time>2025-08-17T07:58:26.569Z</time>
      </trkpt>
      <trkpt lat="44.25692" lon="0.85787">
        <ele>198</ele>
        <time>2025-08-17T07:58:27.569Z</time>
      </trkpt>
      <trkpt lat="44.25692" lon="0.85786">
        <ele>198</ele>
        <time>2025-08-17T07:58:28.569Z</time>
      </trkpt>
      <trkpt lat="44.25691" lon="0.85786">
        <ele>199</ele>
        <time>2025-08-17T07:58:29.569Z</time>
      </trkpt>
      <trkpt lat="44.25691" lon="0.85786">
        <ele>199</ele>
        <time>2025-08-17T07:58:30.569Z</time>
      </trkpt>
      <trkpt lat="44.25692" lon="0.85787">
        <ele>199</ele>
        <time>2025-08-17T07:58:31.569Z</time>
      </trkpt>
      <trkpt lat="44.25692" lon="0.85788">
        <ele>200</ele>
        <time>2025-08-17T07:58:32.569Z</time>
      </trkpt>
      <trkpt lat="44.25693" lon="0.85788">
        <ele>200</ele>
        <time>2025-08-17T07:58:33.569Z</time>
      </trkpt>
      <trkpt lat="44.25693" lon="0.85788">
        <ele>200</ele>
        <time>2025-08-17T07:58:34.569Z</time>
      </trkpt>
      <trkpt lat="44.25693" lon="0.85788">
        <ele>200</ele>
        <time>2025-08-17T07:58:35.569Z</time>
      </trkpt>
      <trkpt lat="44.25693" lon="0.85788">
        <ele>201</ele>
        <time>2025-08-17T07:58:36.569Z</time>
      </trkpt>
      <trkpt lat="44.25693" lon="0.85788">
        <ele>201</ele>
        <time>2025-08-17T07:58:37.569Z</time>
      </trkpt>
      <trkpt lat="44.25692" lon="0.85788">
        <ele>201</ele>
        <time>2025-08-17T07:58:38.569Z</time>
      </trkpt>
      <trkpt lat="44.25692" lon="0.85788">
        <ele>201</ele>
        <time>2025-08-17T07:58:39.569Z</time>
      </trkpt>
      <trkpt lat="44.25692" lon="0.85788">
        <ele>201</ele>
        <time>2025-08-17T07:58:40.569Z</time>
      </trkpt>
      <trkpt lat="44.25692" lon="0.85788">
        <ele>201</ele>
        <time>2025-08-17T07:58:41.569Z</time>
      </trkpt>
      <trkpt lat="44.25692" lon="0.85789">
        <ele>201</ele>
        <time>2025-08-17T07:58:42.569Z</time>
      </trkpt>
      <trkpt lat="44.25692" lon="0.85789">
        <ele>201</ele>
        <time>2025-08-17T07:58:43.569Z</time>
      </trkpt>
      <trkpt lat="44.25692" lon="0.85789">
        <ele>201</ele>
        <time>2025-08-17T07:58:44.569Z</time>
      </trkpt>
      <trkpt lat="44.25692" lon="0.8579">
        <ele>201</ele>
        <time>2025-08-17T07:58:45.569Z</time>
      </trkpt>
      <trkpt lat="44.25692" lon="0.8579">
        <ele>201</ele>
        <time>2025-08-17T07:58:46.569Z</time>
      </trkpt>
      <trkpt lat="44.25692" lon="0.8579">
        <ele>201</ele>
        <time>2025-08-17T07:58:47.569Z</time>
      </trkpt>
      <trkpt lat="44.25691" lon="0.8579">
        <ele>200</ele>
        <time>2025-08-17T07:58:48.569Z</time>
      </trkpt>
      <trkpt lat="44.25691" lon="0.8579">
        <ele>200</ele>
        <time>2025-08-17T07:58:49.569Z</time>
      </trkpt>
      <trkpt lat="44.2569" lon="0.85791">
        <ele>200</ele>
        <time>2025-08-17T07:58:50.569Z</time>
      </trkpt>
      <trkpt lat="44.2569" lon="0.85791">
        <ele>201</ele>
        <time>2025-08-17T07:58:51.569Z</time>
      </trkpt>
      <trkpt lat="44.2569" lon="0.85791">
        <ele>201</ele>
        <time>2025-08-17T07:58:52.569Z</time>
      </trkpt>
      <trkpt lat="44.2569" lon="0.85791">
        <ele>201</ele>
        <time>2025-08-17T07:58:53.569Z</time>
      </trkpt>
      <trkpt lat="44.2569" lon="0.85792">
        <ele>201</ele>
        <time>2025-08-17T07:58:54.569Z</time>
      </trkpt>
      <trkpt lat="44.2569" lon="0.85792">
        <ele>201</ele>
        <time>2025-08-17T07:58:55.569Z</time>
      </trkpt>
      <trkpt lat="44.2569" lon="0.85792">
        <ele>201</ele>
        <time>2025-08-17T07:58:56.569Z</time>
      </trkpt>
      <trkpt lat="44.2569" lon="0.85792">
        <ele>201</ele>
        <time>2025-08-17T07:58:57.569Z</time>
      </trkpt>
      <trkpt lat="44.2569" lon="0.85792">
        <ele>201</ele>
        <time>2025-08-17T07:58:58.569Z</time>
      </trkpt>
      <trkpt lat="44.2569" lon="0.85792">
        <ele>201</ele>
        <time>2025-08-17T07:58:59.569Z</time>
      </trkpt>
      <trkpt lat="44.2569" lon="0.85792">
        <ele>201</ele>
        <time>2025-08-17T07:59:00.569Z</time>
      </trkpt>
      <trkpt lat="44.2569" lon="0.85792">
        <ele>200</ele>
        <time>2025-08-17T07:59:01.569Z</time>
      </trkpt>
      <trkpt lat="44.2569" lon="0.85792">
        <ele>201</ele>
        <time>2025-08-17T07:59:02.569Z</time>
      </trkpt>
      <trkpt lat="44.2569" lon="0.85792">
        <ele>201</ele>
        <time>2025-08-17T07:59:03.569Z</time>
      </trkpt>
      <trkpt lat="44.2569" lon="0.85792">
        <ele>201</ele>
        <time>2025-08-17T07:59:04.569Z</time>
      </trkpt>
      <trkpt lat="44.2569" lon="0.85792">
        <ele>201</ele>
        <time>2025-08-17T07:59:05.569Z</time>
      </trkpt>
      <trkpt lat="44.2569" lon="0.85792">
        <ele>201</ele>
        <time>2025-08-17T07:59:06.569Z</time>
      </trkpt>
      <trkpt lat="44.25691" lon="0.85792">
        <ele>201</ele>
        <time>2025-08-17T07:59:07.569Z</time>
      </trkpt>
      <trkpt lat="44.25691" lon="0.85792">
        <ele>202</ele>
        <time>2025-08-17T07:59:08.569Z</time>
      </trkpt>
      <trkpt lat="44.25691" lon="0.85792">
        <ele>202</ele>
        <time>2025-08-17T07:59:09.569Z</time>
      </trkpt>
      <trkpt lat="44.25691" lon="0.85792">
        <ele>202</ele>
        <time>2025-08-17T07:59:10.569Z</time>
      </trkpt>
      <trkpt lat="44.25691" lon="0.85792">
        <ele>202</ele>
        <time>2025-08-17T07:59:11.569Z</time>
      </trkpt>
      <trkpt lat="44.25691" lon="0.85792">
        <ele>202</ele>
        <time>2025-08-17T07:59:12.569Z</time>
      </trkpt>
      <trkpt lat="44.25691" lon="0.85792">
        <ele>203</ele>
        <time>2025-08-17T07:59:13.569Z</time>
      </trkpt>
      <trkpt lat="44.25691" lon="0.85792">
        <ele>203</ele>
        <time>2025-08-17T07:59:14.569Z</time>
      </trkpt>
      <trkpt lat="44.25691" lon="0.85791">
        <ele>204</ele>
        <time>2025-08-17T07:59:15.569Z</time>
      </trkpt>
      <trkpt lat="44.25691" lon="0.85791">
        <ele>204</ele>
        <time>2025-08-17T07:59:16.569Z</time>
      </trkpt>
      <trkpt lat="44.25691" lon="0.85792">
        <ele>204</ele>
        <time>2025-08-17T07:59:17.569Z</time>
      </trkpt>
      <trkpt lat="44.25691" lon="0.85792">
        <ele>205</ele>
        <time>2025-08-17T07:59:18.569Z</time>
      </trkpt>
      <trkpt lat="44.25691" lon="0.85792">
        <ele>205</ele>
        <time>2025-08-17T07:59:19.569Z</time>
      </trkpt>
      <trkpt lat="44.25691" lon="0.85792">
        <ele>205</ele>
        <time>2025-08-17T07:59:20.569Z</time>
      </trkpt>
      <trkpt lat="44.25691" lon="0.85792">
        <ele>204</ele>
        <time>2025-08-17T07:59:21.569Z</time>
      </trkpt>
      <trkpt lat="44.25691" lon="0.85792">
        <ele>204</ele>
        <time>2025-08-17T07:59:22.569Z</time>
      </trkpt>
      <trkpt lat="44.25691" lon="0.85792">
        <ele>204</ele>
        <time>2025-08-17T07:59:23.569Z</time>
      </trkpt>
      <trkpt lat="44.25691" lon="0.85792">
        <ele>203</ele>
        <time>2025-08-17T07:59:24.569Z</time>
      </trkpt>
      <trkpt lat="44.25691" lon="0.85791">
        <ele>203</ele>
        <time>2025-08-17T07:59:25.569Z</time>
      </trkpt>
      <trkpt lat="44.25691" lon="0.85791">
        <ele>203</ele>
        <time>2025-08-17T07:59:26.569Z</time>
      </trkpt>
      <trkpt lat="44.25691" lon="0.85791">
        <ele>203</ele>
        <time>2025-08-17T07:59:27.569Z</time>
      </trkpt>
      <trkpt lat="44.25692" lon="0.85791">
        <ele>202</ele>
        <time>2025-08-17T07:59:28.569Z</time>
      </trkpt>
      <trkpt lat="44.25692" lon="0.85791">
        <ele>202</ele>
        <time>2025-08-17T07:59:29.569Z</time>
      </trkpt>
      <trkpt lat="44.25692" lon="0.85791">
        <ele>202</ele>
        <time>2025-08-17T07:59:30.569Z</time>
      </trkpt>
      <trkpt lat="44.25692" lon="0.85791">
        <ele>201</ele>
        <time>2025-08-17T07:59:31.569Z</time>
      </trkpt>
      <trkpt lat="44.25692" lon="0.85791">
        <ele>201</ele>
        <time>2025-08-17T07:59:32.569Z</time>
      </trkpt>
      <trkpt lat="44.25692" lon="0.85791">
        <ele>201</ele>
        <time>2025-08-17T07:59:33.569Z</time>
      </trkpt>
      <trkpt lat="44.25692" lon="0.85791">
        <ele>201</ele>
        <time>2025-08-17T07:59:34.569Z</time>
      </trkpt>
      <trkpt lat="44.25692" lon="0.85791">
        <ele>201</ele>
        <time>2025-08-17T07:59:35.569Z</time>
      </trkpt>
      <trkpt lat="44.25692" lon="0.85791">
        <ele>201</ele>
        <time>2025-08-17T07:59:36.569Z</time>
      </trkpt>
      <trkpt lat="44.25692" lon="0.85791">
        <ele>201</ele>
        <time>2025-08-17T07:59:37.569Z</time>
      </trkpt>
      <trkpt lat="44.25692" lon="0.85791">
        <ele>201</ele>
        <time>2025-08-17T07:59:38.569Z</time>
      </trkpt>
      <trkpt lat="44.25692" lon="0.85791">
        <ele>201</ele>
        <time>2025-08-17T07:59:39.569Z</time>
      </trkpt>
      <trkpt lat="44.25692" lon="0.85791">
        <ele>201</ele>
        <time>2025-08-17T07:59:40.569Z</time>
      </trkpt>
      <trkpt lat="44.25692" lon="0.85791">
        <ele>201</ele>
        <time>2025-08-17T07:59:41.569Z</time>
      </trkpt>
      <trkpt lat="44.25692" lon="0.85791">
        <ele>201</ele>
        <time>2025-08-17T07:59:42.569Z</time>
      </trkpt>
      <trkpt lat="44.25692" lon="0.85791">
        <ele>201</ele>
        <time>2025-08-17T07:59:43.569Z</time>
      </trkpt>
      <trkpt lat="44.25692" lon="0.85791">
        <ele>201</ele>
        <time>2025-08-17T07:59:44.569Z</time>
      </trkpt>
      <trkpt lat="44.25692" lon="0.85791">
        <ele>200</ele>
        <time>2025-08-17T07:59:45.569Z</time>
      </trkpt>
      <trkpt lat="44.25692" lon="0.85791">
        <ele>200</ele>
        <time>2025-08-17T07:59:46.569Z</time>
      </trkpt>
      <trkpt lat="44.25693" lon="0.85791">
        <ele>200</ele>
        <time>2025-08-17T07:59:47.569Z</time>
      </trkpt>
      <trkpt lat="44.25692" lon="0.85791">
        <ele>199</ele>
        <time>2025-08-17T07:59:48.569Z</time>
      </trkpt>
      <trkpt lat="44.25692" lon="0.85791">
        <ele>199</ele>
        <time>2025-08-17T07:59:49.569Z</time>
      </trkpt>
      <trkpt lat="44.25692" lon="0.85791">
        <ele>199</ele>
        <time>2025-08-17T07:59:50.569Z</time>
      </trkpt>
      <trkpt lat="44.25693" lon="0.85791">
        <ele>200</ele>
        <time>2025-08-17T07:59:51.569Z</time>
      </trkpt>
      <trkpt lat="44.25693" lon="0.85791">
        <ele>200</ele>
        <time>2025-08-17T07:59:52.569Z</time>
      </trkpt>
      <trkpt lat="44.25693" lon="0.85791">
        <ele>200</ele>
        <time>2025-08-17T07:59:53.569Z</time>
      </trkpt>
      <trkpt lat="44.25693" lon="0.85791">
        <ele>199</ele>
        <time>2025-08-17T07:59:54.569Z</time>
      </trkpt>
      <trkpt lat="44.25693" lon="0.85791">
        <ele>199</ele>
        <time>2025-08-17T07:59:55.569Z</time>
      </trkpt>
      <trkpt lat="44.25693" lon="0.85791">
        <ele>199</ele>
        <time>2025-08-17T07:59:56.569Z</time>
      </trkpt>
      <trkpt lat="44.25693" lon="0.85791">
        <ele>199</ele>
        <time>2025-08-17T07:59:57.569Z</time>
      </trkpt>
      <trkpt lat="44.25693" lon="0.85791">
        <ele>199</ele>
        <time>2025-08-17T07:59:58.569Z</time>
      </trkpt>
      <trkpt lat="44.25693" lon="0.85791">
        <ele>199</ele>
        <time>2025-08-17T07:59:59.569Z</time>
      </trkpt>
      <trkpt lat="44.25693" lon="0.85792">
        <ele>198</ele>
        <time>2025-08-17T08:00:00.569Z</time>
      </trkpt>
      <trkpt lat="44.25693" lon="0.85792">
        <ele>198</ele>
        <time>2025-08-17T08:00:01.569Z</time>
      </trkpt>
      <trkpt lat="44.25693" lon="0.85792">
        <ele>198</ele>
        <time>2025-08-17T08:00:02.569Z</time>
      </trkpt>
      <trkpt lat="44.25693" lon="0.85792">
        <ele>198</ele>
        <time>2025-08-17T08:00:03.569Z</time>
      </trkpt>
      <trkpt lat="44.25693" lon="0.85792">
        <ele>198</ele>
        <time>2025-08-17T08:00:04.569Z</time>
      </trkpt>
      <trkpt lat="44.25693" lon="0.85792">
        <ele>198</ele>
        <time>2025-08-17T08:00:05.569Z</time>
      </trkpt>
      <trkpt lat="44.25693" lon="0.85792">
        <ele>198</ele>
        <time>2025-08-17T08:00:06.569Z</time>
      </trkpt>
      <trkpt lat="44.25693" lon="0.85792">
        <ele>199</ele>
        <time>2025-08-17T08:00:07.569Z</time>
      </trkpt>
      <trkpt lat="44.25693" lon="0.85792">
        <ele>199</ele>
        <time>2025-08-17T08:00:08.569Z</time>
      </trkpt>
      <trkpt lat="44.25693" lon="0.85792">
        <ele>199</ele>
        <time>2025-08-17T08:00:09.569Z</time>
      </trkpt>
      <trkpt lat="44.25693" lon="0.85792">
        <ele>199</ele>
        <time>2025-08-17T08:00:10.569Z</time>
      </trkpt>
      <trkpt lat="44.25693" lon="0.85792">
        <ele>199</ele>
        <time>2025-08-17T08:00:11.569Z</time>
      </trkpt>
      <trkpt lat="44.25694" lon="0.85792">
        <ele>200</ele>
        <time>2025-08-17T08:00:12.569Z</time>
      </trkpt>
      <trkpt lat="44.25694" lon="0.85792">
        <ele>200</ele>
        <time>2025-08-17T08:00:13.569Z</time>
      </trkpt>
      <trkpt lat="44.25694" lon="0.85791">
        <ele>200</ele>
        <time>2025-08-17T08:00:14.569Z</time>
      </trkpt>
      <trkpt lat="44.25694" lon="0.85791">
        <ele>200</ele>
        <time>2025-08-17T08:00:15.569Z</time>
      </trkpt>
      <trkpt lat="44.25694" lon="0.85791">
        <ele>201</ele>
        <time>2025-08-17T08:00:16.569Z</time>
      </trkpt>
      <trkpt lat="44.25694" lon="0.85791">
        <ele>201</ele>
        <time>2025-08-17T08:00:17.569Z</time>
      </trkpt>
      <trkpt lat="44.25694" lon="0.85791">
        <ele>200</ele>
        <time>2025-08-17T08:00:18.569Z</time>
      </trkpt>
      <trkpt lat="44.25695" lon="0.85791">
        <ele>200</ele>
        <time>2025-08-17T08:00:19.569Z</time>
      </trkpt>
      <trkpt lat="44.25695" lon="0.85791">
        <ele>200</ele>
        <time>2025-08-17T08:00:20.569Z</time>
      </trkpt>
      <trkpt lat="44.25695" lon="0.85791">
        <ele>200</ele>
        <time>2025-08-17T08:00:21.569Z</time>
      </trkpt>
      <trkpt lat="44.25695" lon="0.85791">
        <ele>200</ele>
        <time>2025-08-17T08:00:22.569Z</time>
      </trkpt>
      <trkpt lat="44.25695" lon="0.85791">
        <ele>200</ele>
        <time>2025-08-17T08:00:23.569Z</time>
      </trkpt>
      <trkpt lat="44.25695" lon="0.85791">
        <ele>200</ele>
        <time>2025-08-17T08:00:24.569Z</time>
      </trkpt>
      <trkpt lat="44.25695" lon="0.85791">
        <ele>200</ele>
        <time>2025-08-17T08:00:25.569Z</time>
      </trkpt>
      <trkpt lat="44.25695" lon="0.85791">
        <ele>200</ele>
        <time>2025-08-17T08:00:26.569Z</time>
      </trkpt>
      <trkpt lat="44.25695" lon="0.85791">
        <ele>200</ele>
        <time>2025-08-17T08:00:27.569Z</time>
      </trkpt>
      <trkpt lat="44.25695" lon="0.85791">
        <ele>200</ele>
        <time>2025-08-17T08:00:28.569Z</time>
      </trkpt>
      <trkpt lat="44.25695" lon="0.85791">
        <ele>200</ele>
        <time>2025-08-17T08:00:29.569Z</time>
      </trkpt>
      <trkpt lat="44.25695" lon="0.85791">
        <ele>200</ele>
        <time>2025-08-17T08:00:30.569Z</time>
      </trkpt>
      <trkpt lat="44.25695" lon="0.85792">
        <ele>200</ele>
        <time>2025-08-17T08:00:31.569Z</time>
      </trkpt>
      <trkpt lat="44.25695" lon="0.85792">
        <ele>200</ele>
        <time>2025-08-17T08:00:32.569Z</time>
      </trkpt>
      <trkpt lat="44.25695" lon="0.85792">
        <ele>200</ele>
        <time>2025-08-17T08:00:33.569Z</time>
      </trkpt>
      <trkpt lat="44.25695" lon="0.85792">
        <ele>201</ele>
        <time>2025-08-17T08:00:34.569Z</time>
      </trkpt>
      <trkpt lat="44.25695" lon="0.85792">
        <ele>201</ele>
        <time>2025-08-17T08:00:35.569Z</time>
      </trkpt>
      <trkpt lat="44.25695" lon="0.85792">
        <ele>201</ele>
        <time>2025-08-17T08:00:36.569Z</time>
      </trkpt>
      <trkpt lat="44.25695" lon="0.85792">
        <ele>200</ele>
        <time>2025-08-17T08:00:37.569Z</time>
      </trkpt>
      <trkpt lat="44.25695" lon="0.85792">
        <ele>200</ele>
        <time>2025-08-17T08:00:38.569Z</time>
      </trkpt>
      <trkpt lat="44.25695" lon="0.85792">
        <ele>199</ele>
        <time>2025-08-17T08:00:39.569Z</time>
      </trkpt>
      <trkpt lat="44.25694" lon="0.85792">
        <ele>199</ele>
        <time>2025-08-17T08:00:40.569Z</time>
      </trkpt>
      <trkpt lat="44.25694" lon="0.85792">
        <ele>199</ele>
        <time>2025-08-17T08:00:41.569Z</time>
      </trkpt>
      <trkpt lat="44.25694" lon="0.85792">
        <ele>199</ele>
        <time>2025-08-17T08:00:42.569Z</time>
      </trkpt>
      <trkpt lat="44.25694" lon="0.85792">
        <ele>199</ele>
        <time>2025-08-17T08:00:43.569Z</time>
      </trkpt>
      <trkpt lat="44.25694" lon="0.85792">
        <ele>199</ele>
        <time>2025-08-17T08:00:44.569Z</time>
      </trkpt>
      <trkpt lat="44.25694" lon="0.85792">
        <ele>200</ele>
        <time>2025-08-17T08:00:45.569Z</time>
      </trkpt>
      <trkpt lat="44.25694" lon="0.85792">
        <ele>200</ele>
        <time>2025-08-17T08:00:46.569Z</time>
      </trkpt>
      <trkpt lat="44.25694" lon="0.85792">
        <ele>200</ele>
        <time>2025-08-17T08:00:47.569Z</time>
      </trkpt>
      <trkpt lat="44.25694" lon="0.85792">
        <ele>200</ele>
        <time>2025-08-17T08:00:48.569Z</time>
      </trkpt>
      <trkpt lat="44.25694" lon="0.85792">
        <ele>200</ele>
        <time>2025-08-17T08:00:49.569Z</time>
      </trkpt>
      <trkpt lat="44.25694" lon="0.85792">
        <ele>200</ele>
        <time>2025-08-17T08:00:50.569Z</time>
      </trkpt>
      <trkpt lat="44.25694" lon="0.85792">
        <ele>200</ele>
        <time>2025-08-17T08:00:51.569Z</time>
      </trkpt>
      <trkpt lat="44.25694" lon="0.85792">
        <ele>200</ele>
        <time>2025-08-17T08:00:52.569Z</time>
      </trkpt>
      <trkpt lat="44.25694" lon="0.85793">
        <ele>200</ele>
        <time>2025-08-17T08:00:53.569Z</time>
      </trkpt>
      <trkpt lat="44.25694" lon="0.85793">
        <ele>201</ele>
        <time>2025-08-17T08:00:54.569Z</time>
      </trkpt>
      <trkpt lat="44.25694" lon="0.85793">
        <ele>201</ele>
        <time>2025-08-17T08:00:55.569Z</time>
      </trkpt>
      <trkpt lat="44.25694" lon="0.85793">
        <ele>201</ele>
        <time>2025-08-17T08:00:56.569Z</time>
      </trkpt>
      <trkpt lat="44.25694" lon="0.85793">
        <ele>201</ele>
        <time>2025-08-17T08:00:57.569Z</time>
      </trkpt>
      <trkpt lat="44.25694" lon="0.85793">
        <ele>200</ele>
        <time>2025-08-17T08:00:58.569Z</time>
      </trkpt>
      <trkpt lat="44.25694" lon="0.85793">
        <ele>200</ele>
        <time>2025-08-17T08:00:59.569Z</time>
      </trkpt>
      <trkpt lat="44.25693" lon="0.85793">
        <ele>200</ele>
        <time>2025-08-17T08:01:00.569Z</time>
      </trkpt>
      <trkpt lat="44.25693" lon="0.85793">
        <ele>200</ele>
        <time>2025-08-17T08:01:01.569Z</time>
      </trkpt>
      <trkpt lat="44.25693" lon="0.85793">
        <ele>200</ele>
        <time>2025-08-17T08:01:02.569Z</time>
      </trkpt>
      <trkpt lat="44.25693" lon="0.85793">
        <ele>200</ele>
        <time>2025-08-17T08:01:03.569Z</time>
      </trkpt>
      <trkpt lat="44.25693" lon="0.85793">
        <ele>199</ele>
        <time>2025-08-17T08:01:04.569Z</time>
      </trkpt>
      <trkpt lat="44.25693" lon="0.85793">
        <ele>199</ele>
        <time>2025-08-17T08:01:05.569Z</time>
      </trkpt>
      <trkpt lat="44.25693" lon="0.85793">
        <ele>199</ele>
        <time>2025-08-17T08:01:06.569Z</time>
      </trkpt>
      <trkpt lat="44.25693" lon="0.85793">
        <ele>199</ele>
        <time>2025-08-17T08:01:07.569Z</time>
      </trkpt>
      <trkpt lat="44.25693" lon="0.85793">
        <ele>198</ele>
        <time>2025-08-17T08:01:08.569Z</time>
      </trkpt>
      <trkpt lat="44.25693" lon="0.85792">
        <ele>198</ele>
        <time>2025-08-17T08:01:09.569Z</time>
      </trkpt>
      <trkpt lat="44.25694" lon="0.85792">
        <ele>198</ele>
        <time>2025-08-17T08:01:10.569Z</time>
      </trkpt>
      <trkpt lat="44.25694" lon="0.85792">
        <ele>198</ele>
        <time>2025-08-17T08:01:11.569Z</time>
      </trkpt>
      <trkpt lat="44.25694" lon="0.85792">
        <ele>197</ele>
        <time>2025-08-17T08:01:12.569Z</time>
      </trkpt>
      <trkpt lat="44.25694" lon="0.85792">
        <ele>197</ele>
        <time>2025-08-17T08:01:13.569Z</time>
      </trkpt>
      <trkpt lat="44.25694" lon="0.85792">
        <ele>197</ele>
        <time>2025-08-17T08:01:14.569Z</time>
      </trkpt>
      <trkpt lat="44.25694" lon="0.85792">
        <ele>197</ele>
        <time>2025-08-17T08:01:15.569Z</time>
      </trkpt>
      <trkpt lat="44.25694" lon="0.85792">
        <ele>198</ele>
        <time>2025-08-17T08:01:16.569Z</time>
      </trkpt>
      <trkpt lat="44.25694" lon="0.85792">
        <ele>198</ele>
        <time>2025-08-17T08:01:17.569Z</time>
      </trkpt>
      <trkpt lat="44.25694" lon="0.85792">
        <ele>198</ele>
        <time>2025-08-17T08:01:18.569Z</time>
      </trkpt>
      <trkpt lat="44.25694" lon="0.85792">
        <ele>198</ele>
        <time>2025-08-17T08:01:19.569Z</time>
      </trkpt>
      <trkpt lat="44.25694" lon="0.85792">
        <ele>198</ele>
        <time>2025-08-17T08:01:20.569Z</time>
      </trkpt>
      <trkpt lat="44.25694" lon="0.85792">
        <ele>199</ele>
        <time>2025-08-17T08:01:21.569Z</time>
      </trkpt>
      <trkpt lat="44.25694" lon="0.85792">
        <ele>199</ele>
        <time>2025-08-17T08:01:22.569Z</time>
      </trkpt>
      <trkpt lat="44.25694" lon="0.85792">
        <ele>200</ele>
        <time>2025-08-17T08:01:23.569Z</time>
      </trkpt>
      <trkpt lat="44.25694" lon="0.85792">
        <ele>200</ele>
        <time>2025-08-17T08:01:24.569Z</time>
      </trkpt>
      <trkpt lat="44.25694" lon="0.85792">
        <ele>200</ele>
        <time>2025-08-17T08:01:25.569Z</time>
      </trkpt>
      <trkpt lat="44.25694" lon="0.85792">
        <ele>200</ele>
        <time>2025-08-17T08:01:26.569Z</time>
      </trkpt>
      <trkpt lat="44.25694" lon="0.85792">
        <ele>200</ele>
        <time>2025-08-17T08:01:27.569Z</time>
      </trkpt>
      <trkpt lat="44.25694" lon="0.85792">
        <ele>200</ele>
        <time>2025-08-17T08:01:28.569Z</time>
      </trkpt>
      <trkpt lat="44.25694" lon="0.85792">
        <ele>201</ele>
        <time>2025-08-17T08:01:29.569Z</time>
      </trkpt>
      <trkpt lat="44.25694" lon="0.85792">
        <ele>201</ele>
        <time>2025-08-17T08:01:30.569Z</time>
      </trkpt>
      <trkpt lat="44.25694" lon="0.85792">
        <ele>201</ele>
        <time>2025-08-17T08:01:31.569Z</time>
      </trkpt>
      <trkpt lat="44.25694" lon="0.85792">
        <ele>200</ele>
        <time>2025-08-17T08:01:32.569Z</time>
      </trkpt>
      <trkpt lat="44.25694" lon="0.85792">
        <ele>200</ele>
        <time>2025-08-17T08:01:33.569Z</time>
      </trkpt>
      <trkpt lat="44.25694" lon="0.85791">
        <ele>201</ele>
        <time>2025-08-17T08:01:34.569Z</time>
      </trkpt>
      <trkpt lat="44.25694" lon="0.85791">
        <ele>201</ele>
        <time>2025-08-17T08:01:35.569Z</time>
      </trkpt>
      <trkpt lat="44.25694" lon="0.85791">
        <ele>201</ele>
        <time>2025-08-17T08:01:36.569Z</time>
      </trkpt>
      <trkpt lat="44.25694" lon="0.85791">
        <ele>201</ele>
        <time>2025-08-17T08:01:37.569Z</time>
      </trkpt>
      <trkpt lat="44.25694" lon="0.85791">
        <ele>202</ele>
        <time>2025-08-17T08:01:38.569Z</time>
      </trkpt>
      <trkpt lat="44.25694" lon="0.85791">
        <ele>202</ele>
        <time>2025-08-17T08:01:39.569Z</time>
      </trkpt>
      <trkpt lat="44.25694" lon="0.85791">
        <ele>201</ele>
        <time>2025-08-17T08:01:40.569Z</time>
      </trkpt>
      <trkpt lat="44.25694" lon="0.85791">
        <ele>201</ele>
        <time>2025-08-17T08:01:41.569Z</time>
      </trkpt>
      <trkpt lat="44.25694" lon="0.85792">
        <ele>201</ele>
        <time>2025-08-17T08:01:42.569Z</time>
      </trkpt>
      <trkpt lat="44.25694" lon="0.85791">
        <ele>202</ele>
        <time>2025-08-17T08:01:43.569Z</time>
      </trkpt>
      <trkpt lat="44.25694" lon="0.85791">
        <ele>202</ele>
        <time>2025-08-17T08:01:44.569Z</time>
      </trkpt>
      <trkpt lat="44.25694" lon="0.85791">
        <ele>203</ele>
        <time>2025-08-17T08:01:45.569Z</time>
      </trkpt>
      <trkpt lat="44.25694" lon="0.85791">
        <ele>203</ele>
        <time>2025-08-17T08:01:46.569Z</time>
      </trkpt>
      <trkpt lat="44.25694" lon="0.85791">
        <ele>203</ele>
        <time>2025-08-17T08:01:47.569Z</time>
      </trkpt>
      <trkpt lat="44.25694" lon="0.8579">
        <ele>203</ele>
        <time>2025-08-17T08:01:48.569Z</time>
      </trkpt>
      <trkpt lat="44.25694" lon="0.85789">
        <ele>204</ele>
        <time>2025-08-17T08:01:49.569Z</time>
      </trkpt>
      <trkpt lat="44.25693" lon="0.85788">
        <ele>204</ele>
        <time>2025-08-17T08:01:50.569Z</time>
      </trkpt>
      <trkpt lat="44.25693" lon="0.85787">
        <ele>204</ele>
        <time>2025-08-17T08:01:51.569Z</time>
      </trkpt>
      <trkpt lat="44.25693" lon="0.85786">
        <ele>204</ele>
        <time>2025-08-17T08:01:52.569Z</time>
      </trkpt>
      <trkpt lat="44.25693" lon="0.85785">
        <ele>204</ele>
        <time>2025-08-17T08:01:53.569Z</time>
      </trkpt>
      <trkpt lat="44.25692" lon="0.85784">
        <ele>204</ele>
        <time>2025-08-17T08:01:54.569Z</time>
      </trkpt>
      <trkpt lat="44.25691" lon="0.85783">
        <ele>204</ele>
        <time>2025-08-17T08:01:55.569Z</time>
      </trkpt>
      <trkpt lat="44.25691" lon="0.85782">
        <ele>204</ele>
        <time>2025-08-17T08:01:56.569Z</time>
      </trkpt>
      <trkpt lat="44.2569" lon="0.85781">
        <ele>204</ele>
        <time>2025-08-17T08:01:57.569Z</time>
      </trkpt>
      <trkpt lat="44.2569" lon="0.8578">
        <ele>204</ele>
        <time>2025-08-17T08:01:58.569Z</time>
      </trkpt>
      <trkpt lat="44.2569" lon="0.85779">
        <ele>204</ele>
        <time>2025-08-17T08:01:59.569Z</time>
      </trkpt>
      <trkpt lat="44.25689" lon="0.85777">
        <ele>204</ele>
        <time>2025-08-17T08:02:00.569Z</time>
      </trkpt>
      <trkpt lat="44.25689" lon="0.85776">
        <ele>204</ele>
        <time>2025-08-17T08:02:01.569Z</time>
      </trkpt>
      <trkpt lat="44.25688" lon="0.85774">
        <ele>204</ele>
        <time>2025-08-17T08:02:02.569Z</time>
      </trkpt>
      <trkpt lat="44.25688" lon="0.85773">
        <ele>205</ele>
        <time>2025-08-17T08:02:03.569Z</time>
      </trkpt>
      <trkpt lat="44.25688" lon="0.85771">
        <ele>205</ele>
        <time>2025-08-17T08:02:04.569Z</time>
      </trkpt>
      <trkpt lat="44.25687" lon="0.8577">
        <ele>205</ele>
        <time>2025-08-17T08:02:05.569Z</time>
      </trkpt>
      <trkpt lat="44.25686" lon="0.85769">
        <ele>205</ele>
        <time>2025-08-17T08:02:06.569Z</time>
      </trkpt>
      <trkpt lat="44.25686" lon="0.85768">
        <ele>205</ele>
        <time>2025-08-17T08:02:07.569Z</time>
      </trkpt>
      <trkpt lat="44.25685" lon="0.85766">
        <ele>206</ele>
        <time>2025-08-17T08:02:08.569Z</time>
      </trkpt>
      <trkpt lat="44.25684" lon="0.85765">
        <ele>206</ele>
        <time>2025-08-17T08:02:09.569Z</time>
      </trkpt>
      <trkpt lat="44.25683" lon="0.85763">
        <ele>206</ele>
        <time>2025-08-17T08:02:10.569Z</time>
      </trkpt>
      <trkpt lat="44.25682" lon="0.85761">
        <ele>206</ele>
        <time>2025-08-17T08:02:11.569Z</time>
      </trkpt>
      <trkpt lat="44.25682" lon="0.85759">
        <ele>206</ele>
        <time>2025-08-17T08:02:12.569Z</time>
      </trkpt>
      <trkpt lat="44.25681" lon="0.85757">
        <ele>206</ele>
        <time>2025-08-17T08:02:13.569Z</time>
      </trkpt>
      <trkpt lat="44.25681" lon="0.85756">
        <ele>206</ele>
        <time>2025-08-17T08:02:14.569Z</time>
      </trkpt>
      <trkpt lat="44.2568" lon="0.85754">
        <ele>206</ele>
        <time>2025-08-17T08:02:15.569Z</time>
      </trkpt>
      <trkpt lat="44.2568" lon="0.85752">
        <ele>206</ele>
        <time>2025-08-17T08:02:16.569Z</time>
      </trkpt>
      <trkpt lat="44.25679" lon="0.85751">
        <ele>206</ele>
        <time>2025-08-17T08:02:17.569Z</time>
      </trkpt>
      <trkpt lat="44.25679" lon="0.8575">
        <ele>206</ele>
        <time>2025-08-17T08:02:18.569Z</time>
      </trkpt>
      <trkpt lat="44.25679" lon="0.85749">
        <ele>207</ele>
        <time>2025-08-17T08:02:19.569Z</time>
      </trkpt>
      <trkpt lat="44.25678" lon="0.85748">
        <ele>207</ele>
        <time>2025-08-17T08:02:20.569Z</time>
      </trkpt>
      <trkpt lat="44.25678" lon="0.85748">
        <ele>207</ele>
        <time>2025-08-17T08:02:21.569Z</time>
      </trkpt>
      <trkpt lat="44.25678" lon="0.85748">
        <ele>207</ele>
        <time>2025-08-17T08:02:22.569Z</time>
      </trkpt>
      <trkpt lat="44.25678" lon="0.85748">
        <ele>207</ele>
        <time>2025-08-17T08:02:23.569Z</time>
      </trkpt>
      <trkpt lat="44.25677" lon="0.85747">
        <ele>207</ele>
        <time>2025-08-17T08:02:24.569Z</time>
      </trkpt>
      <trkpt lat="44.25676" lon="0.85746">
        <ele>207</ele>
        <time>2025-08-17T08:02:25.569Z</time>
      </trkpt>
      <trkpt lat="44.25676" lon="0.85744">
        <ele>207</ele>
        <time>2025-08-17T08:02:26.569Z</time>
      </trkpt>
      <trkpt lat="44.25675" lon="0.85742">
        <ele>207</ele>
        <time>2025-08-17T08:02:27.569Z</time>
      </trkpt>
      <trkpt lat="44.25674" lon="0.85741">
        <ele>208</ele>
        <time>2025-08-17T08:02:28.569Z</time>
      </trkpt>
      <trkpt lat="44.25674" lon="0.85739">
        <ele>208</ele>
        <time>2025-08-17T08:02:29.569Z</time>
      </trkpt>
      <trkpt lat="44.25673" lon="0.85737">
        <ele>208</ele>
        <time>2025-08-17T08:02:30.569Z</time>
      </trkpt>
      <trkpt lat="44.25673" lon="0.85735">
        <ele>208</ele>
        <time>2025-08-17T08:02:31.569Z</time>
      </trkpt>
      <trkpt lat="44.25673" lon="0.85733">
        <ele>208</ele>
        <time>2025-08-17T08:02:32.569Z</time>
      </trkpt>
      <trkpt lat="44.25673" lon="0.85731">
        <ele>208</ele>
        <time>2025-08-17T08:02:33.569Z</time>
      </trkpt>
      <trkpt lat="44.25673" lon="0.85729">
        <ele>208</ele>
        <time>2025-08-17T08:02:34.569Z</time>
      </trkpt>
      <trkpt lat="44.25673" lon="0.85727">
        <ele>208</ele>
        <time>2025-08-17T08:02:35.569Z</time>
      </trkpt>
      <trkpt lat="44.25674" lon="0.85725">
        <ele>207</ele>
        <time>2025-08-17T08:02:36.569Z</time>
      </trkpt>
      <trkpt lat="44.25674" lon="0.85723">
        <ele>207</ele>
        <time>2025-08-17T08:02:37.569Z</time>
      </trkpt>
      <trkpt lat="44.25675" lon="0.85722">
        <ele>207</ele>
        <time>2025-08-17T08:02:38.569Z</time>
      </trkpt>
      <trkpt lat="44.25676" lon="0.85721">
        <ele>207</ele>
        <time>2025-08-17T08:02:39.569Z</time>
      </trkpt>
      <trkpt lat="44.25677" lon="0.8572">
        <ele>207</ele>
        <time>2025-08-17T08:02:40.569Z</time>
      </trkpt>
      <trkpt lat="44.25678" lon="0.85719">
        <ele>208</ele>
        <time>2025-08-17T08:02:41.569Z</time>
      </trkpt>
      <trkpt lat="44.25678" lon="0.85717">
        <ele>208</ele>
        <time>2025-08-17T08:02:42.569Z</time>
      </trkpt>
      <trkpt lat="44.25679" lon="0.85716">
        <ele>208</ele>
        <time>2025-08-17T08:02:43.569Z</time>
      </trkpt>
      <trkpt lat="44.2568" lon="0.85715">
        <ele>208</ele>
        <time>2025-08-17T08:02:44.569Z</time>
      </trkpt>
      <trkpt lat="44.2568" lon="0.85714">
        <ele>208</ele>
        <time>2025-08-17T08:02:45.569Z</time>
      </trkpt>
      <trkpt lat="44.25681" lon="0.85712">
        <ele>208</ele>
        <time>2025-08-17T08:02:46.569Z</time>
      </trkpt>
      <trkpt lat="44.25682" lon="0.8571">
        <ele>208</ele>
        <time>2025-08-17T08:02:47.569Z</time>
      </trkpt>
      <trkpt lat="44.25683" lon="0.85709">
        <ele>209</ele>
        <time>2025-08-17T08:02:48.569Z</time>
      </trkpt>
      <trkpt lat="44.25684" lon="0.85708">
        <ele>209</ele>
        <time>2025-08-17T08:02:49.569Z</time>
      </trkpt>
      <trkpt lat="44.25684" lon="0.85706">
        <ele>209</ele>
        <time>2025-08-17T08:02:50.569Z</time>
      </trkpt>
      <trkpt lat="44.25684" lon="0.85705">
        <ele>209</ele>
        <time>2025-08-17T08:02:51.569Z</time>
      </trkpt>
      <trkpt lat="44.25685" lon="0.85703">
        <ele>209</ele>
        <time>2025-08-17T08:02:52.569Z</time>
      </trkpt>
      <trkpt lat="44.25687" lon="0.85702">
        <ele>210</ele>
        <time>2025-08-17T08:02:53.569Z</time>
      </trkpt>
      <trkpt lat="44.25687" lon="0.85701">
        <ele>210</ele>
        <time>2025-08-17T08:02:54.569Z</time>
      </trkpt>
      <trkpt lat="44.25688" lon="0.857">
        <ele>210</ele>
        <time>2025-08-17T08:02:55.569Z</time>
      </trkpt>
      <trkpt lat="44.25689" lon="0.85698">
        <ele>210</ele>
        <time>2025-08-17T08:02:56.569Z</time>
      </trkpt>
      <trkpt lat="44.2569" lon="0.85696">
        <ele>210</ele>
        <time>2025-08-17T08:02:57.569Z</time>
      </trkpt>
      <trkpt lat="44.25691" lon="0.85695">
        <ele>210</ele>
        <time>2025-08-17T08:02:58.569Z</time>
      </trkpt>
      <trkpt lat="44.25692" lon="0.85694">
        <ele>210</ele>
        <time>2025-08-17T08:02:59.569Z</time>
      </trkpt>
      <trkpt lat="44.25692" lon="0.85692">
        <ele>210</ele>
        <time>2025-08-17T08:03:00.569Z</time>
      </trkpt>
      <trkpt lat="44.25693" lon="0.8569">
        <ele>211</ele>
        <time>2025-08-17T08:03:01.569Z</time>
      </trkpt>
      <trkpt lat="44.25693" lon="0.85688">
        <ele>211</ele>
        <time>2025-08-17T08:03:02.569Z</time>
      </trkpt>
      <trkpt lat="44.25694" lon="0.85687">
        <ele>211</ele>
        <time>2025-08-17T08:03:03.569Z</time>
      </trkpt>
      <trkpt lat="44.25695" lon="0.85686">
        <ele>211</ele>
        <time>2025-08-17T08:03:04.569Z</time>
      </trkpt>
      <trkpt lat="44.25696" lon="0.85685">
        <ele>210</ele>
        <time>2025-08-17T08:03:05.569Z</time>
      </trkpt>
      <trkpt lat="44.25696" lon="0.85683">
        <ele>210</ele>
        <time>2025-08-17T08:03:06.569Z</time>
      </trkpt>
      <trkpt lat="44.25697" lon="0.85682">
        <ele>210</ele>
        <time>2025-08-17T08:03:07.569Z</time>
      </trkpt>
      <trkpt lat="44.25697" lon="0.8568">
        <ele>210</ele>
        <time>2025-08-17T08:03:08.569Z</time>
      </trkpt>
      <trkpt lat="44.25698" lon="0.85679">
        <ele>209</ele>
        <time>2025-08-17T08:03:09.569Z</time>
      </trkpt>
      <trkpt lat="44.25698" lon="0.85678">
        <ele>209</ele>
        <time>2025-08-17T08:03:10.569Z</time>
      </trkpt>
      <trkpt lat="44.25699" lon="0.85677">
        <ele>208</ele>
        <time>2025-08-17T08:03:11.569Z</time>
      </trkpt>
      <trkpt lat="44.257" lon="0.85676">
        <ele>208</ele>
        <time>2025-08-17T08:03:12.569Z</time>
      </trkpt>
      <trkpt lat="44.25701" lon="0.85675">
        <ele>207</ele>
        <time>2025-08-17T08:03:13.569Z</time>
      </trkpt>
      <trkpt lat="44.25701" lon="0.85674">
        <ele>207</ele>
        <time>2025-08-17T08:03:14.569Z</time>
      </trkpt>
      <trkpt lat="44.25702" lon="0.85672">
        <ele>207</ele>
        <time>2025-08-17T08:03:15.569Z</time>
      </trkpt>
      <trkpt lat="44.25702" lon="0.85671">
        <ele>207</ele>
        <time>2025-08-17T08:03:16.569Z</time>
      </trkpt>
      <trkpt lat="44.25703" lon="0.8567">
        <ele>207</ele>
        <time>2025-08-17T08:03:17.569Z</time>
      </trkpt>
      <trkpt lat="44.25704" lon="0.85669">
        <ele>207</ele>
        <time>2025-08-17T08:03:18.569Z</time>
      </trkpt>
      <trkpt lat="44.25704" lon="0.85668">
        <ele>207</ele>
        <time>2025-08-17T08:03:19.569Z</time>
      </trkpt>
      <trkpt lat="44.25705" lon="0.85667">
        <ele>207</ele>
        <time>2025-08-17T08:03:20.569Z</time>
      </trkpt>
      <trkpt lat="44.25706" lon="0.85666">
        <ele>207</ele>
        <time>2025-08-17T08:03:21.569Z</time>
      </trkpt>
      <trkpt lat="44.25707" lon="0.85664">
        <ele>207</ele>
        <time>2025-08-17T08:03:22.569Z</time>
      </trkpt>
      <trkpt lat="44.25708" lon="0.85663">
        <ele>207</ele>
        <time>2025-08-17T08:03:23.569Z</time>
      </trkpt>
      <trkpt lat="44.25708" lon="0.85661">
        <ele>207</ele>
        <time>2025-08-17T08:03:24.569Z</time>
      </trkpt>
      <trkpt lat="44.25709" lon="0.85659">
        <ele>206</ele>
        <time>2025-08-17T08:03:25.569Z</time>
      </trkpt>
      <trkpt lat="44.2571" lon="0.85658">
        <ele>206</ele>
        <time>2025-08-17T08:03:26.569Z</time>
      </trkpt>
      <trkpt lat="44.25712" lon="0.85657">
        <ele>206</ele>
        <time>2025-08-17T08:03:27.569Z</time>
      </trkpt>
      <trkpt lat="44.25713" lon="0.85656">
        <ele>206</ele>
        <time>2025-08-17T08:03:28.569Z</time>
      </trkpt>
      <trkpt lat="44.25714" lon="0.85655">
        <ele>206</ele>
        <time>2025-08-17T08:03:29.569Z</time>
      </trkpt>
      <trkpt lat="44.25714" lon="0.85654">
        <ele>206</ele>
        <time>2025-08-17T08:03:30.569Z</time>
      </trkpt>
      <trkpt lat="44.25715" lon="0.85653">
        <ele>205</ele>
        <time>2025-08-17T08:03:31.569Z</time>
      </trkpt>
      <trkpt lat="44.25716" lon="0.85651">
        <ele>205</ele>
        <time>2025-08-17T08:03:32.569Z</time>
      </trkpt>
      <trkpt lat="44.25717" lon="0.8565">
        <ele>205</ele>
        <time>2025-08-17T08:03:33.569Z</time>
      </trkpt>
      <trkpt lat="44.25717" lon="0.85649">
        <ele>205</ele>
        <time>2025-08-17T08:03:34.569Z</time>
      </trkpt>
      <trkpt lat="44.25717" lon="0.85647">
        <ele>205</ele>
        <time>2025-08-17T08:03:35.569Z</time>
      </trkpt>
      <trkpt lat="44.25717" lon="0.85646">
        <ele>205</ele>
        <time>2025-08-17T08:03:36.569Z</time>
      </trkpt>
      <trkpt lat="44.25717" lon="0.85645">
        <ele>205</ele>
        <time>2025-08-17T08:03:37.569Z</time>
      </trkpt>
      <trkpt lat="44.25717" lon="0.85644">
        <ele>205</ele>
        <time>2025-08-17T08:03:38.569Z</time>
      </trkpt>
      <trkpt lat="44.25718" lon="0.85643">
        <ele>205</ele>
        <time>2025-08-17T08:03:39.569Z</time>
      </trkpt>
      <trkpt lat="44.25718" lon="0.85643">
        <ele>205</ele>
        <time>2025-08-17T08:03:40.569Z</time>
      </trkpt>
      <trkpt lat="44.25718" lon="0.85642">
        <ele>205</ele>
        <time>2025-08-17T08:03:41.569Z</time>
      </trkpt>
      <trkpt lat="44.25717" lon="0.85642">
        <ele>204</ele>
        <time>2025-08-17T08:03:42.569Z</time>
      </trkpt>
      <trkpt lat="44.25717" lon="0.85642">
        <ele>204</ele>
        <time>2025-08-17T08:03:43.569Z</time>
      </trkpt>
      <trkpt lat="44.25716" lon="0.85641">
        <ele>204</ele>
        <time>2025-08-17T08:03:44.569Z</time>
      </trkpt>
      <trkpt lat="44.25715" lon="0.8564">
        <ele>204</ele>
        <time>2025-08-17T08:03:45.569Z</time>
      </trkpt>
      <trkpt lat="44.25714" lon="0.85639">
        <ele>204</ele>
        <time>2025-08-17T08:03:46.569Z</time>
      </trkpt>
      <trkpt lat="44.25714" lon="0.85637">
        <ele>204</ele>
        <time>2025-08-17T08:03:47.569Z</time>
      </trkpt>
      <trkpt lat="44.25713" lon="0.85636">
        <ele>204</ele>
        <time>2025-08-17T08:03:48.569Z</time>
      </trkpt>
      <trkpt lat="44.25712" lon="0.85635">
        <ele>204</ele>
        <time>2025-08-17T08:03:49.569Z</time>
      </trkpt>
      <trkpt lat="44.25711" lon="0.85634">
        <ele>204</ele>
        <time>2025-08-17T08:03:50.569Z</time>
      </trkpt>
      <trkpt lat="44.2571" lon="0.85633">
        <ele>204</ele>
        <time>2025-08-17T08:03:51.569Z</time>
      </trkpt>
      <trkpt lat="44.25709" lon="0.85631">
        <ele>204</ele>
        <time>2025-08-17T08:03:52.569Z</time>
      </trkpt>
      <trkpt lat="44.25709" lon="0.85631">
        <ele>204</ele>
        <time>2025-08-17T08:03:53.569Z</time>
      </trkpt>
      <trkpt lat="44.25708" lon="0.85631">
        <ele>205</ele>
        <time>2025-08-17T08:03:54.569Z</time>
      </trkpt>
      <trkpt lat="44.25707" lon="0.8563">
        <ele>205</ele>
        <time>2025-08-17T08:03:55.569Z</time>
      </trkpt>
      <trkpt lat="44.25707" lon="0.85629">
        <ele>205</ele>
        <time>2025-08-17T08:03:56.569Z</time>
      </trkpt>
      <trkpt lat="44.25706" lon="0.85629">
        <ele>205</ele>
        <time>2025-08-17T08:03:57.569Z</time>
      </trkpt>
      <trkpt lat="44.25705" lon="0.85627">
        <ele>205</ele>
        <time>2025-08-17T08:03:58.569Z</time>
      </trkpt>
      <trkpt lat="44.25704" lon="0.85626">
        <ele>205</ele>
        <time>2025-08-17T08:03:59.569Z</time>
      </trkpt>
      <trkpt lat="44.25703" lon="0.85625">
        <ele>206</ele>
        <time>2025-08-17T08:04:00.569Z</time>
      </trkpt>
      <trkpt lat="44.25703" lon="0.85624">
        <ele>206</ele>
        <time>2025-08-17T08:04:01.569Z</time>
      </trkpt>
      <trkpt lat="44.25702" lon="0.85622">
        <ele>206</ele>
        <time>2025-08-17T08:04:02.569Z</time>
      </trkpt>
      <trkpt lat="44.25701" lon="0.85621">
        <ele>207</ele>
        <time>2025-08-17T08:04:03.569Z</time>
      </trkpt>
      <trkpt lat="44.25701" lon="0.85618">
        <ele>207</ele>
        <time>2025-08-17T08:04:04.569Z</time>
      </trkpt>
      <trkpt lat="44.25701" lon="0.85616">
        <ele>208</ele>
        <time>2025-08-17T08:04:05.569Z</time>
      </trkpt>
      <trkpt lat="44.257" lon="0.85614">
        <ele>208</ele>
        <time>2025-08-17T08:04:06.569Z</time>
      </trkpt>
      <trkpt lat="44.25698" lon="0.85613">
        <ele>208</ele>
        <time>2025-08-17T08:04:07.569Z</time>
      </trkpt>
      <trkpt lat="44.25698" lon="0.85614">
        <ele>208</ele>
        <time>2025-08-17T08:04:08.569Z</time>
      </trkpt>
      <trkpt lat="44.25697" lon="0.85614">
        <ele>208</ele>
        <time>2025-08-17T08:04:09.569Z</time>
      </trkpt>
      <trkpt lat="44.25696" lon="0.85613">
        <ele>208</ele>
        <time>2025-08-17T08:04:10.569Z</time>
      </trkpt>
      <trkpt lat="44.25695" lon="0.85612">
        <ele>208</ele>
        <time>2025-08-17T08:04:11.569Z</time>
      </trkpt>
      <trkpt lat="44.25694" lon="0.8561">
        <ele>208</ele>
        <time>2025-08-17T08:04:12.569Z</time>
      </trkpt>
      <trkpt lat="44.25694" lon="0.85609">
        <ele>208</ele>
        <time>2025-08-17T08:04:13.569Z</time>
      </trkpt>
      <trkpt lat="44.25693" lon="0.85607">
        <ele>207</ele>
        <time>2025-08-17T08:04:14.569Z</time>
      </trkpt>
      <trkpt lat="44.25692" lon="0.85606">
        <ele>207</ele>
        <time>2025-08-17T08:04:15.569Z</time>
      </trkpt>
      <trkpt lat="44.25692" lon="0.85605">
        <ele>207</ele>
        <time>2025-08-17T08:04:16.569Z</time>
      </trkpt>
      <trkpt lat="44.25691" lon="0.85604">
        <ele>207</ele>
        <time>2025-08-17T08:04:17.569Z</time>
      </trkpt>
      <trkpt lat="44.2569" lon="0.85602">
        <ele>206</ele>
        <time>2025-08-17T08:04:18.569Z</time>
      </trkpt>
      <trkpt lat="44.2569" lon="0.85601">
        <ele>206</ele>
        <time>2025-08-17T08:04:19.569Z</time>
      </trkpt>
      <trkpt lat="44.25689" lon="0.856">
        <ele>205</ele>
        <time>2025-08-17T08:04:20.569Z</time>
      </trkpt>
      <trkpt lat="44.25688" lon="0.85599">
        <ele>205</ele>
        <time>2025-08-17T08:04:21.569Z</time>
      </trkpt>
      <trkpt lat="44.25688" lon="0.85598">
        <ele>205</ele>
        <time>2025-08-17T08:04:22.569Z</time>
      </trkpt>
      <trkpt lat="44.25687" lon="0.85596">
        <ele>204</ele>
        <time>2025-08-17T08:04:23.569Z</time>
      </trkpt>
      <trkpt lat="44.25686" lon="0.85596">
        <ele>204</ele>
        <time>2025-08-17T08:04:24.569Z</time>
      </trkpt>
      <trkpt lat="44.25686" lon="0.85595">
        <ele>204</ele>
        <time>2025-08-17T08:04:25.569Z</time>
      </trkpt>
      <trkpt lat="44.25685" lon="0.85594">
        <ele>204</ele>
        <time>2025-08-17T08:04:26.569Z</time>
      </trkpt>
      <trkpt lat="44.25684" lon="0.85593">
        <ele>204</ele>
        <time>2025-08-17T08:04:27.569Z</time>
      </trkpt>
      <trkpt lat="44.25684" lon="0.85592">
        <ele>204</ele>
        <time>2025-08-17T08:04:28.569Z</time>
      </trkpt>
      <trkpt lat="44.25683" lon="0.85591">
        <ele>204</ele>
        <time>2025-08-17T08:04:29.569Z</time>
      </trkpt>
      <trkpt lat="44.25682" lon="0.8559">
        <ele>204</ele>
        <time>2025-08-17T08:04:30.569Z</time>
      </trkpt>
      <trkpt lat="44.25681" lon="0.85589">
        <ele>204</ele>
        <time>2025-08-17T08:04:31.569Z</time>
      </trkpt>
      <trkpt lat="44.25681" lon="0.85588">
        <ele>204</ele>
        <time>2025-08-17T08:04:32.569Z</time>
      </trkpt>
      <trkpt lat="44.2568" lon="0.85587">
        <ele>203</ele>
        <time>2025-08-17T08:04:33.569Z</time>
      </trkpt>
      <trkpt lat="44.25679" lon="0.85587">
        <ele>203</ele>
        <time>2025-08-17T08:04:34.569Z</time>
      </trkpt>
      <trkpt lat="44.25679" lon="0.85586">
        <ele>203</ele>
        <time>2025-08-17T08:04:35.569Z</time>
      </trkpt>
      <trkpt lat="44.25678" lon="0.85585">
        <ele>203</ele>
        <time>2025-08-17T08:04:36.569Z</time>
      </trkpt>
      <trkpt lat="44.25677" lon="0.85584">
        <ele>203</ele>
        <time>2025-08-17T08:04:37.569Z</time>
      </trkpt>
      <trkpt lat="44.25677" lon="0.85582">
        <ele>203</ele>
        <time>2025-08-17T08:04:38.569Z</time>
      </trkpt>
      <trkpt lat="44.25677" lon="0.85582">
        <ele>203</ele>
        <time>2025-08-17T08:04:39.569Z</time>
      </trkpt>
      <trkpt lat="44.25676" lon="0.85581">
        <ele>203</ele>
        <time>2025-08-17T08:04:40.569Z</time>
      </trkpt>
      <trkpt lat="44.25676" lon="0.8558">
        <ele>203</ele>
        <time>2025-08-17T08:04:41.569Z</time>
      </trkpt>
      <trkpt lat="44.25676" lon="0.85578">
        <ele>202</ele>
        <time>2025-08-17T08:04:42.569Z</time>
      </trkpt>
      <trkpt lat="44.25676" lon="0.85577">
        <ele>202</ele>
        <time>2025-08-17T08:04:43.569Z</time>
      </trkpt>
      <trkpt lat="44.25677" lon="0.85576">
        <ele>202</ele>
        <time>2025-08-17T08:04:44.569Z</time>
      </trkpt>
      <trkpt lat="44.25677" lon="0.85575">
        <ele>201</ele>
        <time>2025-08-17T08:04:45.569Z</time>
      </trkpt>
      <trkpt lat="44.25678" lon="0.85572">
        <ele>201</ele>
        <time>2025-08-17T08:04:46.569Z</time>
      </trkpt>
      <trkpt lat="44.2568" lon="0.85571">
        <ele>200</ele>
        <time>2025-08-17T08:04:47.569Z</time>
      </trkpt>
      <trkpt lat="44.25681" lon="0.85569">
        <ele>200</ele>
        <time>2025-08-17T08:04:48.569Z</time>
      </trkpt>
      <trkpt lat="44.25681" lon="0.85569">
        <ele>200</ele>
        <time>2025-08-17T08:04:49.569Z</time>
      </trkpt>
      <trkpt lat="44.25684" lon="0.85567">
        <ele>199</ele>
        <time>2025-08-17T08:04:50.569Z</time>
      </trkpt>
      <trkpt lat="44.25685" lon="0.85566">
        <ele>198</ele>
        <time>2025-08-17T08:04:51.569Z</time>
      </trkpt>
      <trkpt lat="44.25686" lon="0.85565">
        <ele>198</ele>
        <time>2025-08-17T08:04:52.569Z</time>
      </trkpt>
      <trkpt lat="44.25687" lon="0.85564">
        <ele>198</ele>
        <time>2025-08-17T08:04:53.569Z</time>
      </trkpt>
      <trkpt lat="44.25687" lon="0.85562">
        <ele>198</ele>
        <time>2025-08-17T08:04:54.569Z</time>
      </trkpt>
      <trkpt lat="44.25688" lon="0.85561">
        <ele>198</ele>
        <time>2025-08-17T08:04:55.569Z</time>
      </trkpt>
      <trkpt lat="44.25688" lon="0.85559">
        <ele>198</ele>
        <time>2025-08-17T08:04:56.569Z</time>
      </trkpt>
      <trkpt lat="44.2569" lon="0.85558">
        <ele>198</ele>
        <time>2025-08-17T08:04:57.569Z</time>
      </trkpt>
      <trkpt lat="44.2569" lon="0.85557">
        <ele>198</ele>
        <time>2025-08-17T08:04:58.569Z</time>
      </trkpt>
      <trkpt lat="44.25691" lon="0.85556">
        <ele>198</ele>
        <time>2025-08-17T08:04:59.569Z</time>
      </trkpt>
      <trkpt lat="44.25692" lon="0.85556">
        <ele>198</ele>
        <time>2025-08-17T08:05:00.569Z</time>
      </trkpt>
      <trkpt lat="44.25693" lon="0.85554">
        <ele>198</ele>
        <time>2025-08-17T08:05:01.569Z</time>
      </trkpt>
      <trkpt lat="44.25694" lon="0.85553">
        <ele>199</ele>
        <time>2025-08-17T08:05:02.569Z</time>
      </trkpt>
      <trkpt lat="44.25695" lon="0.85551">
        <ele>199</ele>
        <time>2025-08-17T08:05:03.569Z</time>
      </trkpt>
      <trkpt lat="44.25696" lon="0.85549">
        <ele>199</ele>
        <time>2025-08-17T08:05:04.569Z</time>
      </trkpt>
      <trkpt lat="44.25697" lon="0.85547">
        <ele>199</ele>
        <time>2025-08-17T08:05:05.569Z</time>
      </trkpt>
      <trkpt lat="44.25698" lon="0.85545">
        <ele>199</ele>
        <time>2025-08-17T08:05:06.569Z</time>
      </trkpt>
      <trkpt lat="44.25699" lon="0.85544">
        <ele>199</ele>
        <time>2025-08-17T08:05:07.569Z</time>
      </trkpt>
      <trkpt lat="44.257" lon="0.85542">
        <ele>199</ele>
        <time>2025-08-17T08:05:08.569Z</time>
      </trkpt>
      <trkpt lat="44.25701" lon="0.8554">
        <ele>199</ele>
        <time>2025-08-17T08:05:09.569Z</time>
      </trkpt>
      <trkpt lat="44.25702" lon="0.85539">
        <ele>199</ele>
        <time>2025-08-17T08:05:10.569Z</time>
      </trkpt>
      <trkpt lat="44.25703" lon="0.85537">
        <ele>199</ele>
        <time>2025-08-17T08:05:11.569Z</time>
      </trkpt>
      <trkpt lat="44.25704" lon="0.85536">
        <ele>199</ele>
        <time>2025-08-17T08:05:12.569Z</time>
      </trkpt>
      <trkpt lat="44.25704" lon="0.85535">
        <ele>199</ele>
        <time>2025-08-17T08:05:13.569Z</time>
      </trkpt>
      <trkpt lat="44.25704" lon="0.85534">
        <ele>198</ele>
        <time>2025-08-17T08:05:14.569Z</time>
      </trkpt>
      <trkpt lat="44.25705" lon="0.85532">
        <ele>198</ele>
        <time>2025-08-17T08:05:15.569Z</time>
      </trkpt>
      <trkpt lat="44.25706" lon="0.85531">
        <ele>198</ele>
        <time>2025-08-17T08:05:16.569Z</time>
      </trkpt>
      <trkpt lat="44.25707" lon="0.8553">
        <ele>198</ele>
        <time>2025-08-17T08:05:17.569Z</time>
      </trkpt>
      <trkpt lat="44.25708" lon="0.85529">
        <ele>198</ele>
        <time>2025-08-17T08:05:18.569Z</time>
      </trkpt>
      <trkpt lat="44.25709" lon="0.85528">
        <ele>198</ele>
        <time>2025-08-17T08:05:19.569Z</time>
      </trkpt>
      <trkpt lat="44.25709" lon="0.85527">
        <ele>198</ele>
        <time>2025-08-17T08:05:20.569Z</time>
      </trkpt>
      <trkpt lat="44.2571" lon="0.85526">
        <ele>198</ele>
        <time>2025-08-17T08:05:21.569Z</time>
      </trkpt>
      <trkpt lat="44.2571" lon="0.85525">
        <ele>199</ele>
        <time>2025-08-17T08:05:22.569Z</time>
      </trkpt>
      <trkpt lat="44.25711" lon="0.85524">
        <ele>198</ele>
        <time>2025-08-17T08:05:23.569Z</time>
      </trkpt>
      <trkpt lat="44.25712" lon="0.85523">
        <ele>198</ele>
        <time>2025-08-17T08:05:24.569Z</time>
      </trkpt>
      <trkpt lat="44.25712" lon="0.85523">
        <ele>198</ele>
        <time>2025-08-17T08:05:25.569Z</time>
      </trkpt>
      <trkpt lat="44.25714" lon="0.85521">
        <ele>197</ele>
        <time>2025-08-17T08:05:26.569Z</time>
      </trkpt>
      <trkpt lat="44.25715" lon="0.8552">
        <ele>197</ele>
        <time>2025-08-17T08:05:27.569Z</time>
      </trkpt>
      <trkpt lat="44.25716" lon="0.85519">
        <ele>197</ele>
        <time>2025-08-17T08:05:28.569Z</time>
      </trkpt>
      <trkpt lat="44.25717" lon="0.85518">
        <ele>197</ele>
        <time>2025-08-17T08:05:29.569Z</time>
      </trkpt>
      <trkpt lat="44.25719" lon="0.85518">
        <ele>196</ele>
        <time>2025-08-17T08:05:30.569Z</time>
      </trkpt>
      <trkpt lat="44.25719" lon="0.85516">
        <ele>196</ele>
        <time>2025-08-17T08:05:31.569Z</time>
      </trkpt>
      <trkpt lat="44.2572" lon="0.85515">
        <ele>196</ele>
        <time>2025-08-17T08:05:32.569Z</time>
      </trkpt>
      <trkpt lat="44.25721" lon="0.85514">
        <ele>196</ele>
        <time>2025-08-17T08:05:33.569Z</time>
      </trkpt>
      <trkpt lat="44.25722" lon="0.85513">
        <ele>196</ele>
        <time>2025-08-17T08:05:34.569Z</time>
      </trkpt>
      <trkpt lat="44.25723" lon="0.85512">
        <ele>196</ele>
        <time>2025-08-17T08:05:35.569Z</time>
      </trkpt>
      <trkpt lat="44.25724" lon="0.85511">
        <ele>195</ele>
        <time>2025-08-17T08:05:36.569Z</time>
      </trkpt>
      <trkpt lat="44.25725" lon="0.85509">
        <ele>195</ele>
        <time>2025-08-17T08:05:37.569Z</time>
      </trkpt>
      <trkpt lat="44.25725" lon="0.85508">
        <ele>195</ele>
        <time>2025-08-17T08:05:38.569Z</time>
      </trkpt>
      <trkpt lat="44.25726" lon="0.85507">
        <ele>195</ele>
        <time>2025-08-17T08:05:39.569Z</time>
      </trkpt>
      <trkpt lat="44.25726" lon="0.85506">
        <ele>195</ele>
        <time>2025-08-17T08:05:40.569Z</time>
      </trkpt>
      <trkpt lat="44.25727" lon="0.85504">
        <ele>195</ele>
        <time>2025-08-17T08:05:41.569Z</time>
      </trkpt>
      <trkpt lat="44.25728" lon="0.85503">
        <ele>195</ele>
        <time>2025-08-17T08:05:42.569Z</time>
      </trkpt>
      <trkpt lat="44.25728" lon="0.85502">
        <ele>195</ele>
        <time>2025-08-17T08:05:43.569Z</time>
      </trkpt>
      <trkpt lat="44.25729" lon="0.85501">
        <ele>195</ele>
        <time>2025-08-17T08:05:44.569Z</time>
      </trkpt>
      <trkpt lat="44.2573" lon="0.85499">
        <ele>195</ele>
        <time>2025-08-17T08:05:45.569Z</time>
      </trkpt>
      <trkpt lat="44.25731" lon="0.85498">
        <ele>195</ele>
        <time>2025-08-17T08:05:46.569Z</time>
      </trkpt>
      <trkpt lat="44.25732" lon="0.85496">
        <ele>195</ele>
        <time>2025-08-17T08:05:47.569Z</time>
      </trkpt>
      <trkpt lat="44.25732" lon="0.85495">
        <ele>195</ele>
        <time>2025-08-17T08:05:48.569Z</time>
      </trkpt>
      <trkpt lat="44.25733" lon="0.85494">
        <ele>195</ele>
        <time>2025-08-17T08:05:49.569Z</time>
      </trkpt>
      <trkpt lat="44.25734" lon="0.85492">
        <ele>195</ele>
        <time>2025-08-17T08:05:50.569Z</time>
      </trkpt>
      <trkpt lat="44.25735" lon="0.85491">
        <ele>195</ele>
        <time>2025-08-17T08:05:51.569Z</time>
      </trkpt>
      <trkpt lat="44.25736" lon="0.8549">
        <ele>195</ele>
        <time>2025-08-17T08:05:52.569Z</time>
      </trkpt>
      <trkpt lat="44.25736" lon="0.85488">
        <ele>195</ele>
        <time>2025-08-17T08:05:53.569Z</time>
      </trkpt>
      <trkpt lat="44.25737" lon="0.85487">
        <ele>195</ele>
        <time>2025-08-17T08:05:54.569Z</time>
      </trkpt>
      <trkpt lat="44.25738" lon="0.85486">
        <ele>195</ele>
        <time>2025-08-17T08:05:55.569Z</time>
      </trkpt>
      <trkpt lat="44.25739" lon="0.85485">
        <ele>195</ele>
        <time>2025-08-17T08:05:56.569Z</time>
      </trkpt>
      <trkpt lat="44.2574" lon="0.85484">
        <ele>194</ele>
        <time>2025-08-17T08:05:57.569Z</time>
      </trkpt>
      <trkpt lat="44.25741" lon="0.85483">
        <ele>194</ele>
        <time>2025-08-17T08:05:58.569Z</time>
      </trkpt>
      <trkpt lat="44.25742" lon="0.85482">
        <ele>194</ele>
        <time>2025-08-17T08:05:59.569Z</time>
      </trkpt>
      <trkpt lat="44.25743" lon="0.8548">
        <ele>194</ele>
        <time>2025-08-17T08:06:00.569Z</time>
      </trkpt>
      <trkpt lat="44.25744" lon="0.85479">
        <ele>194</ele>
        <time>2025-08-17T08:06:01.569Z</time>
      </trkpt>
      <trkpt lat="44.25745" lon="0.85478">
        <ele>194</ele>
        <time>2025-08-17T08:06:02.569Z</time>
      </trkpt>
      <trkpt lat="44.25746" lon="0.85476">
        <ele>194</ele>
        <time>2025-08-17T08:06:03.569Z</time>
      </trkpt>
      <trkpt lat="44.25747" lon="0.85474">
        <ele>194</ele>
        <time>2025-08-17T08:06:04.569Z</time>
      </trkpt>
      <trkpt lat="44.25747" lon="0.85472">
        <ele>194</ele>
        <time>2025-08-17T08:06:05.569Z</time>
      </trkpt>
      <trkpt lat="44.25748" lon="0.8547">
        <ele>195</ele>
        <time>2025-08-17T08:06:06.569Z</time>
      </trkpt>
      <trkpt lat="44.25749" lon="0.85469">
        <ele>195</ele>
        <time>2025-08-17T08:06:07.569Z</time>
      </trkpt>
      <trkpt lat="44.2575" lon="0.85469">
        <ele>195</ele>
        <time>2025-08-17T08:06:08.569Z</time>
      </trkpt>
      <trkpt lat="44.25751" lon="0.85468">
        <ele>194</ele>
        <time>2025-08-17T08:06:09.569Z</time>
      </trkpt>
      <trkpt lat="44.25752" lon="0.85466">
        <ele>194</ele>
        <time>2025-08-17T08:06:10.569Z</time>
      </trkpt>
      <trkpt lat="44.25753" lon="0.85465">
        <ele>194</ele>
        <time>2025-08-17T08:06:11.569Z</time>
      </trkpt>
      <trkpt lat="44.25755" lon="0.85464">
        <ele>194</ele>
        <time>2025-08-17T08:06:12.569Z</time>
      </trkpt>
      <trkpt lat="44.25756" lon="0.85463">
        <ele>194</ele>
        <time>2025-08-17T08:06:13.569Z</time>
      </trkpt>
      <trkpt lat="44.25757" lon="0.85462">
        <ele>194</ele>
        <time>2025-08-17T08:06:14.569Z</time>
      </trkpt>
      <trkpt lat="44.25758" lon="0.85461">
        <ele>194</ele>
        <time>2025-08-17T08:06:15.569Z</time>
      </trkpt>
      <trkpt lat="44.25759" lon="0.85461">
        <ele>194</ele>
        <time>2025-08-17T08:06:16.569Z</time>
      </trkpt>
      <trkpt lat="44.25761" lon="0.8546">
        <ele>194</ele>
        <time>2025-08-17T08:06:17.569Z</time>
      </trkpt>
      <trkpt lat="44.25761" lon="0.85458">
        <ele>194</ele>
        <time>2025-08-17T08:06:18.569Z</time>
      </trkpt>
      <trkpt lat="44.25762" lon="0.85456">
        <ele>194</ele>
        <time>2025-08-17T08:06:19.569Z</time>
      </trkpt>
      <trkpt lat="44.25763" lon="0.85455">
        <ele>195</ele>
        <time>2025-08-17T08:06:20.569Z</time>
      </trkpt>
      <trkpt lat="44.25764" lon="0.85454">
        <ele>195</ele>
        <time>2025-08-17T08:06:21.569Z</time>
      </trkpt>
      <trkpt lat="44.25764" lon="0.85453">
        <ele>195</ele>
        <time>2025-08-17T08:06:22.569Z</time>
      </trkpt>
      <trkpt lat="44.25764" lon="0.85452">
        <ele>195</ele>
        <time>2025-08-17T08:06:23.569Z</time>
      </trkpt>
      <trkpt lat="44.25765" lon="0.85451">
        <ele>195</ele>
        <time>2025-08-17T08:06:24.569Z</time>
      </trkpt>
      <trkpt lat="44.25766" lon="0.8545">
        <ele>195</ele>
        <time>2025-08-17T08:06:25.569Z</time>
      </trkpt>
      <trkpt lat="44.25767" lon="0.8545">
        <ele>195</ele>
        <time>2025-08-17T08:06:26.569Z</time>
      </trkpt>
      <trkpt lat="44.25767" lon="0.85448">
        <ele>195</ele>
        <time>2025-08-17T08:06:27.569Z</time>
      </trkpt>
      <trkpt lat="44.25768" lon="0.85447">
        <ele>195</ele>
        <time>2025-08-17T08:06:28.569Z</time>
      </trkpt>
      <trkpt lat="44.25768" lon="0.85446">
        <ele>194</ele>
        <time>2025-08-17T08:06:29.569Z</time>
      </trkpt>
      <trkpt lat="44.25769" lon="0.85445">
        <ele>194</ele>
        <time>2025-08-17T08:06:30.569Z</time>
      </trkpt>
      <trkpt lat="44.25769" lon="0.85443">
        <ele>194</ele>
        <time>2025-08-17T08:06:31.569Z</time>
      </trkpt>
      <trkpt lat="44.2577" lon="0.85442">
        <ele>193</ele>
        <time>2025-08-17T08:06:32.569Z</time>
      </trkpt>
      <trkpt lat="44.25771" lon="0.8544">
        <ele>193</ele>
        <time>2025-08-17T08:06:33.569Z</time>
      </trkpt>
      <trkpt lat="44.25772" lon="0.85439">
        <ele>193</ele>
        <time>2025-08-17T08:06:34.569Z</time>
      </trkpt>
      <trkpt lat="44.25773" lon="0.85438">
        <ele>193</ele>
        <time>2025-08-17T08:06:35.569Z</time>
      </trkpt>
      <trkpt lat="44.25773" lon="0.85436">
        <ele>193</ele>
        <time>2025-08-17T08:06:36.569Z</time>
      </trkpt>
      <trkpt lat="44.25774" lon="0.85436">
        <ele>193</ele>
        <time>2025-08-17T08:06:37.569Z</time>
      </trkpt>
      <trkpt lat="44.25774" lon="0.85434">
        <ele>193</ele>
        <time>2025-08-17T08:06:38.569Z</time>
      </trkpt>
      <trkpt lat="44.25775" lon="0.85432">
        <ele>193</ele>
        <time>2025-08-17T08:06:39.569Z</time>
      </trkpt>
      <trkpt lat="44.25776" lon="0.85431">
        <ele>193</ele>
        <time>2025-08-17T08:06:40.569Z</time>
      </trkpt>
      <trkpt lat="44.25776" lon="0.85429">
        <ele>193</ele>
        <time>2025-08-17T08:06:41.569Z</time>
      </trkpt>
      <trkpt lat="44.25777" lon="0.85428">
        <ele>193</ele>
        <time>2025-08-17T08:06:42.569Z</time>
      </trkpt>
      <trkpt lat="44.25777" lon="0.85426">
        <ele>193</ele>
        <time>2025-08-17T08:06:43.569Z</time>
      </trkpt>
      <trkpt lat="44.25778" lon="0.85425">
        <ele>193</ele>
        <time>2025-08-17T08:06:44.569Z</time>
      </trkpt>
      <trkpt lat="44.25778" lon="0.85424">
        <ele>193</ele>
        <time>2025-08-17T08:06:45.569Z</time>
      </trkpt>
      <trkpt lat="44.25778" lon="0.85423">
        <ele>194</ele>
        <time>2025-08-17T08:06:46.569Z</time>
      </trkpt>
      <trkpt lat="44.25779" lon="0.85422">
        <ele>194</ele>
        <time>2025-08-17T08:06:47.569Z</time>
      </trkpt>
      <trkpt lat="44.25779" lon="0.85421">
        <ele>194</ele>
        <time>2025-08-17T08:06:48.569Z</time>
      </trkpt>
      <trkpt lat="44.2578" lon="0.8542">
        <ele>194</ele>
        <time>2025-08-17T08:06:49.569Z</time>
      </trkpt>
      <trkpt lat="44.25781" lon="0.85419">
        <ele>194</ele>
        <time>2025-08-17T08:06:50.569Z</time>
      </trkpt>
      <trkpt lat="44.25781" lon="0.85417">
        <ele>194</ele>
        <time>2025-08-17T08:06:51.569Z</time>
      </trkpt>
      <trkpt lat="44.25782" lon="0.85416">
        <ele>194</ele>
        <time>2025-08-17T08:06:52.569Z</time>
      </trkpt>
      <trkpt lat="44.25782" lon="0.85414">
        <ele>194</ele>
        <time>2025-08-17T08:06:53.569Z</time>
      </trkpt>
      <trkpt lat="44.25782" lon="0.85413">
        <ele>194</ele>
        <time>2025-08-17T08:06:54.569Z</time>
      </trkpt>
      <trkpt lat="44.25783" lon="0.85411">
        <ele>194</ele>
        <time>2025-08-17T08:06:55.569Z</time>
      </trkpt>
      <trkpt lat="44.25784" lon="0.8541">
        <ele>193</ele>
        <time>2025-08-17T08:06:56.569Z</time>
      </trkpt>
      <trkpt lat="44.25785" lon="0.85409">
        <ele>193</ele>
        <time>2025-08-17T08:06:57.569Z</time>
      </trkpt>
      <trkpt lat="44.25785" lon="0.85407">
        <ele>194</ele>
        <time>2025-08-17T08:06:58.569Z</time>
      </trkpt>
      <trkpt lat="44.25786" lon="0.85406">
        <ele>194</ele>
        <time>2025-08-17T08:06:59.569Z</time>
      </trkpt>
      <trkpt lat="44.25787" lon="0.85405">
        <ele>194</ele>
        <time>2025-08-17T08:07:00.569Z</time>
      </trkpt>
      <trkpt lat="44.25788" lon="0.85404">
        <ele>194</ele>
        <time>2025-08-17T08:07:01.569Z</time>
      </trkpt>
      <trkpt lat="44.25789" lon="0.85403">
        <ele>195</ele>
        <time>2025-08-17T08:07:02.569Z</time>
      </trkpt>
      <trkpt lat="44.2579" lon="0.85402">
        <ele>195</ele>
        <time>2025-08-17T08:07:03.569Z</time>
      </trkpt>
      <trkpt lat="44.25791" lon="0.85401">
        <ele>195</ele>
        <time>2025-08-17T08:07:04.569Z</time>
      </trkpt>
      <trkpt lat="44.25792" lon="0.854">
        <ele>195</ele>
        <time>2025-08-17T08:07:05.569Z</time>
      </trkpt>
      <trkpt lat="44.25793" lon="0.85398">
        <ele>195</ele>
        <time>2025-08-17T08:07:06.569Z</time>
      </trkpt>
      <trkpt lat="44.25794" lon="0.85397">
        <ele>195</ele>
        <time>2025-08-17T08:07:07.569Z</time>
      </trkpt>
      <trkpt lat="44.25795" lon="0.85396">
        <ele>194</ele>
        <time>2025-08-17T08:07:08.569Z</time>
      </trkpt>
      <trkpt lat="44.25796" lon="0.85395">
        <ele>194</ele>
        <time>2025-08-17T08:07:09.569Z</time>
      </trkpt>
      <trkpt lat="44.25796" lon="0.85394">
        <ele>194</ele>
        <time>2025-08-17T08:07:10.569Z</time>
      </trkpt>
      <trkpt lat="44.25797" lon="0.85393">
        <ele>193</ele>
        <time>2025-08-17T08:07:11.569Z</time>
      </trkpt>
      <trkpt lat="44.25798" lon="0.85392">
        <ele>193</ele>
        <time>2025-08-17T08:07:12.569Z</time>
      </trkpt>
      <trkpt lat="44.25799" lon="0.85391">
        <ele>193</ele>
        <time>2025-08-17T08:07:13.569Z</time>
      </trkpt>
      <trkpt lat="44.258" lon="0.8539">
        <ele>193</ele>
        <time>2025-08-17T08:07:14.569Z</time>
      </trkpt>
      <trkpt lat="44.25801" lon="0.85389">
        <ele>193</ele>
        <time>2025-08-17T08:07:15.569Z</time>
      </trkpt>
      <trkpt lat="44.25802" lon="0.85388">
        <ele>193</ele>
        <time>2025-08-17T08:07:16.569Z</time>
      </trkpt>
      <trkpt lat="44.25803" lon="0.85387">
        <ele>193</ele>
        <time>2025-08-17T08:07:17.569Z</time>
      </trkpt>
      <trkpt lat="44.25804" lon="0.85386">
        <ele>193</ele>
        <time>2025-08-17T08:07:18.569Z</time>
      </trkpt>
      <trkpt lat="44.25805" lon="0.85385">
        <ele>193</ele>
        <time>2025-08-17T08:07:19.569Z</time>
      </trkpt>
      <trkpt lat="44.25806" lon="0.85383">
        <ele>193</ele>
        <time>2025-08-17T08:07:20.569Z</time>
      </trkpt>
      <trkpt lat="44.25807" lon="0.85382">
        <ele>193</ele>
        <time>2025-08-17T08:07:21.569Z</time>
      </trkpt>
      <trkpt lat="44.25808" lon="0.85381">
        <ele>193</ele>
        <time>2025-08-17T08:07:22.569Z</time>
      </trkpt>
      <trkpt lat="44.25809" lon="0.8538">
        <ele>193</ele>
        <time>2025-08-17T08:07:23.569Z</time>
      </trkpt>
      <trkpt lat="44.2581" lon="0.85379">
        <ele>193</ele>
        <time>2025-08-17T08:07:24.569Z</time>
      </trkpt>
      <trkpt lat="44.2581" lon="0.85378">
        <ele>193</ele>
        <time>2025-08-17T08:07:25.569Z</time>
      </trkpt>
      <trkpt lat="44.25811" lon="0.85377">
        <ele>194</ele>
        <time>2025-08-17T08:07:26.569Z</time>
      </trkpt>
      <trkpt lat="44.25812" lon="0.85376">
        <ele>194</ele>
        <time>2025-08-17T08:07:27.569Z</time>
      </trkpt>
      <trkpt lat="44.25813" lon="0.85375">
        <ele>193</ele>
        <time>2025-08-17T08:07:28.569Z</time>
      </trkpt>
      <trkpt lat="44.25813" lon="0.85374">
        <ele>194</ele>
        <time>2025-08-17T08:07:29.569Z</time>
      </trkpt>
      <trkpt lat="44.25813" lon="0.85373">
        <ele>194</ele>
        <time>2025-08-17T08:07:30.569Z</time>
      </trkpt>
      <trkpt lat="44.25813" lon="0.85373">
        <ele>194</ele>
        <time>2025-08-17T08:07:31.569Z</time>
      </trkpt>
      <trkpt lat="44.25814" lon="0.85373">
        <ele>194</ele>
        <time>2025-08-17T08:07:32.569Z</time>
      </trkpt>
      <trkpt lat="44.25814" lon="0.85372">
        <ele>194</ele>
        <time>2025-08-17T08:07:33.569Z</time>
      </trkpt>
      <trkpt lat="44.25814" lon="0.85371">
        <ele>194</ele>
        <time>2025-08-17T08:07:34.569Z</time>
      </trkpt>
      <trkpt lat="44.25814" lon="0.8537">
        <ele>194</ele>
        <time>2025-08-17T08:07:35.569Z</time>
      </trkpt>
      <trkpt lat="44.25815" lon="0.85368">
        <ele>194</ele>
        <time>2025-08-17T08:07:36.569Z</time>
      </trkpt>
      <trkpt lat="44.25816" lon="0.85367">
        <ele>194</ele>
        <time>2025-08-17T08:07:37.569Z</time>
      </trkpt>
      <trkpt lat="44.25817" lon="0.85366">
        <ele>194</ele>
        <time>2025-08-17T08:07:38.569Z</time>
      </trkpt>
      <trkpt lat="44.25817" lon="0.85364">
        <ele>194</ele>
        <time>2025-08-17T08:07:39.569Z</time>
      </trkpt>
      <trkpt lat="44.25818" lon="0.85363">
        <ele>194</ele>
        <time>2025-08-17T08:07:40.569Z</time>
      </trkpt>
      <trkpt lat="44.25819" lon="0.85361">
        <ele>194</ele>
        <time>2025-08-17T08:07:41.569Z</time>
      </trkpt>
      <trkpt lat="44.25819" lon="0.8536">
        <ele>194</ele>
        <time>2025-08-17T08:07:42.569Z</time>
      </trkpt>
      <trkpt lat="44.2582" lon="0.85359">
        <ele>195</ele>
        <time>2025-08-17T08:07:43.569Z</time>
      </trkpt>
      <trkpt lat="44.25821" lon="0.85358">
        <ele>195</ele>
        <time>2025-08-17T08:07:44.569Z</time>
      </trkpt>
      <trkpt lat="44.25822" lon="0.85357">
        <ele>195</ele>
        <time>2025-08-17T08:07:45.569Z</time>
      </trkpt>
      <trkpt lat="44.25823" lon="0.85355">
        <ele>195</ele>
        <time>2025-08-17T08:07:46.569Z</time>
      </trkpt>
      <trkpt lat="44.25824" lon="0.85354">
        <ele>194</ele>
        <time>2025-08-17T08:07:47.569Z</time>
      </trkpt>
      <trkpt lat="44.25824" lon="0.85353">
        <ele>194</ele>
        <time>2025-08-17T08:07:48.569Z</time>
      </trkpt>
      <trkpt lat="44.25824" lon="0.85351">
        <ele>194</ele>
        <time>2025-08-17T08:07:49.569Z</time>
      </trkpt>
      <trkpt lat="44.25825" lon="0.8535">
        <ele>194</ele>
        <time>2025-08-17T08:07:50.569Z</time>
      </trkpt>
      <trkpt lat="44.25826" lon="0.8535">
        <ele>194</ele>
        <time>2025-08-17T08:07:51.569Z</time>
      </trkpt>
      <trkpt lat="44.25827" lon="0.85349">
        <ele>194</ele>
        <time>2025-08-17T08:07:52.569Z</time>
      </trkpt>
      <trkpt lat="44.25827" lon="0.85347">
        <ele>194</ele>
        <time>2025-08-17T08:07:53.569Z</time>
      </trkpt>
      <trkpt lat="44.25828" lon="0.85346">
        <ele>194</ele>
        <time>2025-08-17T08:07:54.569Z</time>
      </trkpt>
      <trkpt lat="44.25829" lon="0.85345">
        <ele>194</ele>
        <time>2025-08-17T08:07:55.569Z</time>
      </trkpt>
      <trkpt lat="44.2583" lon="0.85344">
        <ele>194</ele>
        <time>2025-08-17T08:07:56.569Z</time>
      </trkpt>
      <trkpt lat="44.25831" lon="0.85343">
        <ele>194</ele>
        <time>2025-08-17T08:07:57.569Z</time>
      </trkpt>
      <trkpt lat="44.25832" lon="0.85342">
        <ele>193</ele>
        <time>2025-08-17T08:07:58.569Z</time>
      </trkpt>
      <trkpt lat="44.25832" lon="0.85341">
        <ele>193</ele>
        <time>2025-08-17T08:07:59.569Z</time>
      </trkpt>
      <trkpt lat="44.25833" lon="0.8534">
        <ele>193</ele>
        <time>2025-08-17T08:08:00.569Z</time>
      </trkpt>
      <trkpt lat="44.25834" lon="0.85339">
        <ele>193</ele>
        <time>2025-08-17T08:08:01.569Z</time>
      </trkpt>
      <trkpt lat="44.25834" lon="0.85337">
        <ele>193</ele>
        <time>2025-08-17T08:08:02.569Z</time>
      </trkpt>
      <trkpt lat="44.25835" lon="0.85336">
        <ele>193</ele>
        <time>2025-08-17T08:08:03.569Z</time>
      </trkpt>
      <trkpt lat="44.25835" lon="0.85334">
        <ele>193</ele>
        <time>2025-08-17T08:08:04.569Z</time>
      </trkpt>
      <trkpt lat="44.25836" lon="0.85332">
        <ele>193</ele>
        <time>2025-08-17T08:08:05.569Z</time>
      </trkpt>
      <trkpt lat="44.25836" lon="0.85331">
        <ele>194</ele>
        <time>2025-08-17T08:08:06.569Z</time>
      </trkpt>
      <trkpt lat="44.25837" lon="0.8533">
        <ele>194</ele>
        <time>2025-08-17T08:08:07.569Z</time>
      </trkpt>
      <trkpt lat="44.25837" lon="0.85329">
        <ele>194</ele>
        <time>2025-08-17T08:08:08.569Z</time>
      </trkpt>
      <trkpt lat="44.25838" lon="0.85328">
        <ele>194</ele>
        <time>2025-08-17T08:08:09.569Z</time>
      </trkpt>
      <trkpt lat="44.25839" lon="0.85326">
        <ele>194</ele>
        <time>2025-08-17T08:08:10.569Z</time>
      </trkpt>
      <trkpt lat="44.2584" lon="0.85325">
        <ele>194</ele>
        <time>2025-08-17T08:08:11.569Z</time>
      </trkpt>
      <trkpt lat="44.2584" lon="0.85324">
        <ele>194</ele>
        <time>2025-08-17T08:08:12.569Z</time>
      </trkpt>
      <trkpt lat="44.25841" lon="0.85322">
        <ele>194</ele>
        <time>2025-08-17T08:08:13.569Z</time>
      </trkpt>
      <trkpt lat="44.25841" lon="0.85321">
        <ele>194</ele>
        <time>2025-08-17T08:08:14.569Z</time>
      </trkpt>
      <trkpt lat="44.25842" lon="0.8532">
        <ele>193</ele>
        <time>2025-08-17T08:08:15.569Z</time>
      </trkpt>
      <trkpt lat="44.25842" lon="0.85318">
        <ele>193</ele>
        <time>2025-08-17T08:08:16.569Z</time>
      </trkpt>
      <trkpt lat="44.25843" lon="0.85317">
        <ele>193</ele>
        <time>2025-08-17T08:08:17.569Z</time>
      </trkpt>
      <trkpt lat="44.25844" lon="0.85316">
        <ele>193</ele>
        <time>2025-08-17T08:08:18.569Z</time>
      </trkpt>
      <trkpt lat="44.25845" lon="0.85315">
        <ele>193</ele>
        <time>2025-08-17T08:08:19.569Z</time>
      </trkpt>
      <trkpt lat="44.25846" lon="0.85314">
        <ele>193</ele>
        <time>2025-08-17T08:08:20.569Z</time>
      </trkpt>
      <trkpt lat="44.25846" lon="0.85312">
        <ele>193</ele>
        <time>2025-08-17T08:08:21.569Z</time>
      </trkpt>
      <trkpt lat="44.25847" lon="0.85311">
        <ele>193</ele>
        <time>2025-08-17T08:08:22.569Z</time>
      </trkpt>
      <trkpt lat="44.25848" lon="0.8531">
        <ele>193</ele>
        <time>2025-08-17T08:08:23.569Z</time>
      </trkpt>
      <trkpt lat="44.25848" lon="0.85308">
        <ele>193</ele>
        <time>2025-08-17T08:08:24.569Z</time>
      </trkpt>
      <trkpt lat="44.25848" lon="0.85307">
        <ele>193</ele>
        <time>2025-08-17T08:08:25.569Z</time>
      </trkpt>
      <trkpt lat="44.25849" lon="0.85306">
        <ele>193</ele>
        <time>2025-08-17T08:08:26.569Z</time>
      </trkpt>
      <trkpt lat="44.25849" lon="0.85305">
        <ele>193</ele>
        <time>2025-08-17T08:08:27.569Z</time>
      </trkpt>
      <trkpt lat="44.2585" lon="0.85304">
        <ele>193</ele>
        <time>2025-08-17T08:08:28.569Z</time>
      </trkpt>
      <trkpt lat="44.2585" lon="0.85303">
        <ele>192</ele>
        <time>2025-08-17T08:08:29.569Z</time>
      </trkpt>
      <trkpt lat="44.25851" lon="0.85303">
        <ele>192</ele>
        <time>2025-08-17T08:08:30.569Z</time>
      </trkpt>
      <trkpt lat="44.25851" lon="0.85302">
        <ele>192</ele>
        <time>2025-08-17T08:08:31.569Z</time>
      </trkpt>
      <trkpt lat="44.25852" lon="0.85301">
        <ele>192</ele>
        <time>2025-08-17T08:08:32.569Z</time>
      </trkpt>
      <trkpt lat="44.25853" lon="0.853">
        <ele>191</ele>
        <time>2025-08-17T08:08:33.569Z</time>
      </trkpt>
      <trkpt lat="44.25853" lon="0.853">
        <ele>191</ele>
        <time>2025-08-17T08:08:34.569Z</time>
      </trkpt>
      <trkpt lat="44.25854" lon="0.85299">
        <ele>191</ele>
        <time>2025-08-17T08:08:35.569Z</time>
      </trkpt>
      <trkpt lat="44.25854" lon="0.85298">
        <ele>191</ele>
        <time>2025-08-17T08:08:36.569Z</time>
      </trkpt>
      <trkpt lat="44.25855" lon="0.85297">
        <ele>191</ele>
        <time>2025-08-17T08:08:37.569Z</time>
      </trkpt>
      <trkpt lat="44.25856" lon="0.85297">
        <ele>191</ele>
        <time>2025-08-17T08:08:38.569Z</time>
      </trkpt>
      <trkpt lat="44.25856" lon="0.85296">
        <ele>191</ele>
        <time>2025-08-17T08:08:39.569Z</time>
      </trkpt>
      <trkpt lat="44.25857" lon="0.85295">
        <ele>191</ele>
        <time>2025-08-17T08:08:40.569Z</time>
      </trkpt>
      <trkpt lat="44.25857" lon="0.85294">
        <ele>191</ele>
        <time>2025-08-17T08:08:41.569Z</time>
      </trkpt>
      <trkpt lat="44.25858" lon="0.85293">
        <ele>191</ele>
        <time>2025-08-17T08:08:42.569Z</time>
      </trkpt>
      <trkpt lat="44.25858" lon="0.85293">
        <ele>191</ele>
        <time>2025-08-17T08:08:43.569Z</time>
      </trkpt>
      <trkpt lat="44.25859" lon="0.85292">
        <ele>191</ele>
        <time>2025-08-17T08:08:44.569Z</time>
      </trkpt>
      <trkpt lat="44.25859" lon="0.85291">
        <ele>191</ele>
        <time>2025-08-17T08:08:45.569Z</time>
      </trkpt>
      <trkpt lat="44.2586" lon="0.85291">
        <ele>191</ele>
        <time>2025-08-17T08:08:46.569Z</time>
      </trkpt>
      <trkpt lat="44.2586" lon="0.8529">
        <ele>191</ele>
        <time>2025-08-17T08:08:47.569Z</time>
      </trkpt>
      <trkpt lat="44.25861" lon="0.85289">
        <ele>190</ele>
        <time>2025-08-17T08:08:48.569Z</time>
      </trkpt>
      <trkpt lat="44.25862" lon="0.85288">
        <ele>190</ele>
        <time>2025-08-17T08:08:49.569Z</time>
      </trkpt>
      <trkpt lat="44.25862" lon="0.85287">
        <ele>190</ele>
        <time>2025-08-17T08:08:50.569Z</time>
      </trkpt>
      <trkpt lat="44.25863" lon="0.85287">
        <ele>190</ele>
        <time>2025-08-17T08:08:51.569Z</time>
      </trkpt>
      <trkpt lat="44.25863" lon="0.85286">
        <ele>190</ele>
        <time>2025-08-17T08:08:52.569Z</time>
      </trkpt>
      <trkpt lat="44.25864" lon="0.85286">
        <ele>190</ele>
        <time>2025-08-17T08:08:53.569Z</time>
      </trkpt>
      <trkpt lat="44.25865" lon="0.85285">
        <ele>189</ele>
        <time>2025-08-17T08:08:54.569Z</time>
      </trkpt>
      <trkpt lat="44.25865" lon="0.85285">
        <ele>189</ele>
        <time>2025-08-17T08:08:55.569Z</time>
      </trkpt>
      <trkpt lat="44.25866" lon="0.85285">
        <ele>189</ele>
        <time>2025-08-17T08:08:56.569Z</time>
      </trkpt>
      <trkpt lat="44.25866" lon="0.85284">
        <ele>188</ele>
        <time>2025-08-17T08:08:57.569Z</time>
      </trkpt>
      <trkpt lat="44.25867" lon="0.85283">
        <ele>188</ele>
        <time>2025-08-17T08:08:58.569Z</time>
      </trkpt>
      <trkpt lat="44.25867" lon="0.85282">
        <ele>188</ele>
        <time>2025-08-17T08:08:59.569Z</time>
      </trkpt>
      <trkpt lat="44.25867" lon="0.85281">
        <ele>187</ele>
        <time>2025-08-17T08:09:00.569Z</time>
      </trkpt>
      <trkpt lat="44.25867" lon="0.8528">
        <ele>187</ele>
        <time>2025-08-17T08:09:01.569Z</time>
      </trkpt>
      <trkpt lat="44.25867" lon="0.85279">
        <ele>187</ele>
        <time>2025-08-17T08:09:02.569Z</time>
      </trkpt>
      <trkpt lat="44.25867" lon="0.85277">
        <ele>187</ele>
        <time>2025-08-17T08:09:03.569Z</time>
      </trkpt>
      <trkpt lat="44.25868" lon="0.85276">
        <ele>187</ele>
        <time>2025-08-17T08:09:04.569Z</time>
      </trkpt>
      <trkpt lat="44.25868" lon="0.85275">
        <ele>186</ele>
        <time>2025-08-17T08:09:05.569Z</time>
      </trkpt>
      <trkpt lat="44.25869" lon="0.85274">
        <ele>186</ele>
        <time>2025-08-17T08:09:06.569Z</time>
      </trkpt>
      <trkpt lat="44.2587" lon="0.85273">
        <ele>186</ele>
        <time>2025-08-17T08:09:07.569Z</time>
      </trkpt>
      <trkpt lat="44.2587" lon="0.85272">
        <ele>186</ele>
        <time>2025-08-17T08:09:08.569Z</time>
      </trkpt>
      <trkpt lat="44.25871" lon="0.85271">
        <ele>185</ele>
        <time>2025-08-17T08:09:09.569Z</time>
      </trkpt>
      <trkpt lat="44.25871" lon="0.85269">
        <ele>185</ele>
        <time>2025-08-17T08:09:10.569Z</time>
      </trkpt>
      <trkpt lat="44.25871" lon="0.85268">
        <ele>185</ele>
        <time>2025-08-17T08:09:11.569Z</time>
      </trkpt>
      <trkpt lat="44.25872" lon="0.85267">
        <ele>184</ele>
        <time>2025-08-17T08:09:12.569Z</time>
      </trkpt>
      <trkpt lat="44.25872" lon="0.85267">
        <ele>184</ele>
        <time>2025-08-17T08:09:13.569Z</time>
      </trkpt>
      <trkpt lat="44.25873" lon="0.85266">
        <ele>184</ele>
        <time>2025-08-17T08:09:14.569Z</time>
      </trkpt>
      <trkpt lat="44.25873" lon="0.85265">
        <ele>184</ele>
        <time>2025-08-17T08:09:15.569Z</time>
      </trkpt>
      <trkpt lat="44.25873" lon="0.85264">
        <ele>184</ele>
        <time>2025-08-17T08:09:16.569Z</time>
      </trkpt>
      <trkpt lat="44.25874" lon="0.85263">
        <ele>184</ele>
        <time>2025-08-17T08:09:17.569Z</time>
      </trkpt>
      <trkpt lat="44.25874" lon="0.85262">
        <ele>184</ele>
        <time>2025-08-17T08:09:18.569Z</time>
      </trkpt>
      <trkpt lat="44.25874" lon="0.85261">
        <ele>183</ele>
        <time>2025-08-17T08:09:19.569Z</time>
      </trkpt>
      <trkpt lat="44.25875" lon="0.8526">
        <ele>183</ele>
        <time>2025-08-17T08:09:20.569Z</time>
      </trkpt>
      <trkpt lat="44.25876" lon="0.8526">
        <ele>183</ele>
        <time>2025-08-17T08:09:21.569Z</time>
      </trkpt>
      <trkpt lat="44.25876" lon="0.85258">
        <ele>183</ele>
        <time>2025-08-17T08:09:22.569Z</time>
      </trkpt>
      <trkpt lat="44.25877" lon="0.85257">
        <ele>182</ele>
        <time>2025-08-17T08:09:23.569Z</time>
      </trkpt>
      <trkpt lat="44.25877" lon="0.85256">
        <ele>182</ele>
        <time>2025-08-17T08:09:24.569Z</time>
      </trkpt>
      <trkpt lat="44.25878" lon="0.85255">
        <ele>182</ele>
        <time>2025-08-17T08:09:25.569Z</time>
      </trkpt>
      <trkpt lat="44.25878" lon="0.85254">
        <ele>181</ele>
        <time>2025-08-17T08:09:26.569Z</time>
      </trkpt>
      <trkpt lat="44.25879" lon="0.85253">
        <ele>181</ele>
        <time>2025-08-17T08:09:27.569Z</time>
      </trkpt>
      <trkpt lat="44.25879" lon="0.85252">
        <ele>181</ele>
        <time>2025-08-17T08:09:28.569Z</time>
      </trkpt>
      <trkpt lat="44.25879" lon="0.8525">
        <ele>181</ele>
        <time>2025-08-17T08:09:29.569Z</time>
      </trkpt>
      <trkpt lat="44.2588" lon="0.85249">
        <ele>180</ele>
        <time>2025-08-17T08:09:30.569Z</time>
      </trkpt>
      <trkpt lat="44.2588" lon="0.85248">
        <ele>180</ele>
        <time>2025-08-17T08:09:31.569Z</time>
      </trkpt>
      <trkpt lat="44.25881" lon="0.85247">
        <ele>180</ele>
        <time>2025-08-17T08:09:32.569Z</time>
      </trkpt>
      <trkpt lat="44.25881" lon="0.85247">
        <ele>179</ele>
        <time>2025-08-17T08:09:33.569Z</time>
      </trkpt>
      <trkpt lat="44.25881" lon="0.85246">
        <ele>179</ele>
        <time>2025-08-17T08:09:34.569Z</time>
      </trkpt>
      <trkpt lat="44.25882" lon="0.85244">
        <ele>179</ele>
        <time>2025-08-17T08:09:35.569Z</time>
      </trkpt>
      <trkpt lat="44.25882" lon="0.85243">
        <ele>179</ele>
        <time>2025-08-17T08:09:36.569Z</time>
      </trkpt>
      <trkpt lat="44.25882" lon="0.85241">
        <ele>179</ele>
        <time>2025-08-17T08:09:37.569Z</time>
      </trkpt>
      <trkpt lat="44.25883" lon="0.8524">
        <ele>179</ele>
        <time>2025-08-17T08:09:38.569Z</time>
      </trkpt>
      <trkpt lat="44.25883" lon="0.85239">
        <ele>178</ele>
        <time>2025-08-17T08:09:39.569Z</time>
      </trkpt>
      <trkpt lat="44.25884" lon="0.85237">
        <ele>178</ele>
        <time>2025-08-17T08:09:40.569Z</time>
      </trkpt>
      <trkpt lat="44.25884" lon="0.85236">
        <ele>178</ele>
        <time>2025-08-17T08:09:41.569Z</time>
      </trkpt>
      <trkpt lat="44.25884" lon="0.85235">
        <ele>178</ele>
        <time>2025-08-17T08:09:42.569Z</time>
      </trkpt>
      <trkpt lat="44.25885" lon="0.85233">
        <ele>178</ele>
        <time>2025-08-17T08:09:43.569Z</time>
      </trkpt>
      <trkpt lat="44.25885" lon="0.85233">
        <ele>178</ele>
        <time>2025-08-17T08:09:44.569Z</time>
      </trkpt>
      <trkpt lat="44.25886" lon="0.85232">
        <ele>178</ele>
        <time>2025-08-17T08:09:45.569Z</time>
      </trkpt>
      <trkpt lat="44.25887" lon="0.85231">
        <ele>179</ele>
        <time>2025-08-17T08:09:46.569Z</time>
      </trkpt>
      <trkpt lat="44.25887" lon="0.8523">
        <ele>179</ele>
        <time>2025-08-17T08:09:47.569Z</time>
      </trkpt>
      <trkpt lat="44.25888" lon="0.85229">
        <ele>179</ele>
        <time>2025-08-17T08:09:48.569Z</time>
      </trkpt>
      <trkpt lat="44.25889" lon="0.85228">
        <ele>179</ele>
        <time>2025-08-17T08:09:49.569Z</time>
      </trkpt>
      <trkpt lat="44.25889" lon="0.85227">
        <ele>179</ele>
        <time>2025-08-17T08:09:50.569Z</time>
      </trkpt>
      <trkpt lat="44.2589" lon="0.85225">
        <ele>179</ele>
        <time>2025-08-17T08:09:51.569Z</time>
      </trkpt>
      <trkpt lat="44.2589" lon="0.85224">
        <ele>179</ele>
        <time>2025-08-17T08:09:52.569Z</time>
      </trkpt>
      <trkpt lat="44.2589" lon="0.85223">
        <ele>179</ele>
        <time>2025-08-17T08:09:53.569Z</time>
      </trkpt>
      <trkpt lat="44.25891" lon="0.85222">
        <ele>179</ele>
        <time>2025-08-17T08:09:54.569Z</time>
      </trkpt>
      <trkpt lat="44.25891" lon="0.85221">
        <ele>178</ele>
        <time>2025-08-17T08:09:55.569Z</time>
      </trkpt>
      <trkpt lat="44.25892" lon="0.8522">
        <ele>178</ele>
        <time>2025-08-17T08:09:56.569Z</time>
      </trkpt>
      <trkpt lat="44.25893" lon="0.85218">
        <ele>178</ele>
        <time>2025-08-17T08:09:57.569Z</time>
      </trkpt>
      <trkpt lat="44.25893" lon="0.85215">
        <ele>178</ele>
        <time>2025-08-17T08:09:58.569Z</time>
      </trkpt>
      <trkpt lat="44.25894" lon="0.85213">
        <ele>178</ele>
        <time>2025-08-17T08:09:59.569Z</time>
      </trkpt>
      <trkpt lat="44.25894" lon="0.85212">
        <ele>178</ele>
        <time>2025-08-17T08:10:00.569Z</time>
      </trkpt>
      <trkpt lat="44.25894" lon="0.85211">
        <ele>178</ele>
        <time>2025-08-17T08:10:01.569Z</time>
      </trkpt>
      <trkpt lat="44.25895" lon="0.85209">
        <ele>179</ele>
        <time>2025-08-17T08:10:02.569Z</time>
      </trkpt>
      <trkpt lat="44.25895" lon="0.85209">
        <ele>179</ele>
        <time>2025-08-17T08:10:03.569Z</time>
      </trkpt>
      <trkpt lat="44.25895" lon="0.85208">
        <ele>179</ele>
        <time>2025-08-17T08:10:04.569Z</time>
      </trkpt>
      <trkpt lat="44.25895" lon="0.85208">
        <ele>179</ele>
        <time>2025-08-17T08:10:05.569Z</time>
      </trkpt>
      <trkpt lat="44.25895" lon="0.85207">
        <ele>179</ele>
        <time>2025-08-17T08:10:06.569Z</time>
      </trkpt>
      <trkpt lat="44.25896" lon="0.85206">
        <ele>178</ele>
        <time>2025-08-17T08:10:07.569Z</time>
      </trkpt>
      <trkpt lat="44.25896" lon="0.85205">
        <ele>178</ele>
        <time>2025-08-17T08:10:08.569Z</time>
      </trkpt>
      <trkpt lat="44.25897" lon="0.85205">
        <ele>178</ele>
        <time>2025-08-17T08:10:09.569Z</time>
      </trkpt>
      <trkpt lat="44.25897" lon="0.85204">
        <ele>177</ele>
        <time>2025-08-17T08:10:10.569Z</time>
      </trkpt>
      <trkpt lat="44.25898" lon="0.85204">
        <ele>177</ele>
        <time>2025-08-17T08:10:11.569Z</time>
      </trkpt>
      <trkpt lat="44.25898" lon="0.85203">
        <ele>177</ele>
        <time>2025-08-17T08:10:12.569Z</time>
      </trkpt>
      <trkpt lat="44.25899" lon="0.85203">
        <ele>176</ele>
        <time>2025-08-17T08:10:13.569Z</time>
      </trkpt>
      <trkpt lat="44.25899" lon="0.85203">
        <ele>176</ele>
        <time>2025-08-17T08:10:14.569Z</time>
      </trkpt>
      <trkpt lat="44.25899" lon="0.85203">
        <ele>176</ele>
        <time>2025-08-17T08:10:15.569Z</time>
      </trkpt>
      <trkpt lat="44.25899" lon="0.85202">
        <ele>176</ele>
        <time>2025-08-17T08:10:16.569Z</time>
      </trkpt>
      <trkpt lat="44.259" lon="0.85201">
        <ele>175</ele>
        <time>2025-08-17T08:10:17.569Z</time>
      </trkpt>
      <trkpt lat="44.259" lon="0.852">
        <ele>175</ele>
        <time>2025-08-17T08:10:18.569Z</time>
      </trkpt>
      <trkpt lat="44.25901" lon="0.85199">
        <ele>174</ele>
        <time>2025-08-17T08:10:19.569Z</time>
      </trkpt>
      <trkpt lat="44.25901" lon="0.85199">
        <ele>174</ele>
        <time>2025-08-17T08:10:20.569Z</time>
      </trkpt>
      <trkpt lat="44.25901" lon="0.85199">
        <ele>174</ele>
        <time>2025-08-17T08:10:21.569Z</time>
      </trkpt>
      <trkpt lat="44.25902" lon="0.85198">
        <ele>175</ele>
        <time>2025-08-17T08:10:22.569Z</time>
      </trkpt>
      <trkpt lat="44.25902" lon="0.85198">
        <ele>175</ele>
        <time>2025-08-17T08:10:23.569Z</time>
      </trkpt>
      <trkpt lat="44.25902" lon="0.85198">
        <ele>175</ele>
        <time>2025-08-17T08:10:24.569Z</time>
      </trkpt>
      <trkpt lat="44.25902" lon="0.85198">
        <ele>175</ele>
        <time>2025-08-17T08:10:25.569Z</time>
      </trkpt>
      <trkpt lat="44.25902" lon="0.85198">
        <ele>176</ele>
        <time>2025-08-17T08:10:26.569Z</time>
      </trkpt>
      <trkpt lat="44.25901" lon="0.85198">
        <ele>176</ele>
        <time>2025-08-17T08:10:27.569Z</time>
      </trkpt>
      <trkpt lat="44.25901" lon="0.85198">
        <ele>176</ele>
        <time>2025-08-17T08:10:28.569Z</time>
      </trkpt>
      <trkpt lat="44.25902" lon="0.85197">
        <ele>177</ele>
        <time>2025-08-17T08:10:29.569Z</time>
      </trkpt>
      <trkpt lat="44.25903" lon="0.85197">
        <ele>177</ele>
        <time>2025-08-17T08:10:30.569Z</time>
      </trkpt>
      <trkpt lat="44.25903" lon="0.85196">
        <ele>177</ele>
        <time>2025-08-17T08:10:31.569Z</time>
      </trkpt>
      <trkpt lat="44.25904" lon="0.85195">
        <ele>177</ele>
        <time>2025-08-17T08:10:32.569Z</time>
      </trkpt>
      <trkpt lat="44.25904" lon="0.85194">
        <ele>178</ele>
        <time>2025-08-17T08:10:33.569Z</time>
      </trkpt>
      <trkpt lat="44.25905" lon="0.85193">
        <ele>178</ele>
        <time>2025-08-17T08:10:34.569Z</time>
      </trkpt>
      <trkpt lat="44.25905" lon="0.85192">
        <ele>178</ele>
        <time>2025-08-17T08:10:35.569Z</time>
      </trkpt>
      <trkpt lat="44.25906" lon="0.85191">
        <ele>178</ele>
        <time>2025-08-17T08:10:36.569Z</time>
      </trkpt>
      <trkpt lat="44.25906" lon="0.8519">
        <ele>177</ele>
        <time>2025-08-17T08:10:37.569Z</time>
      </trkpt>
      <trkpt lat="44.25906" lon="0.85189">
        <ele>177</ele>
        <time>2025-08-17T08:10:38.569Z</time>
      </trkpt>
      <trkpt lat="44.25907" lon="0.85188">
        <ele>176</ele>
        <time>2025-08-17T08:10:39.569Z</time>
      </trkpt>
      <trkpt lat="44.25908" lon="0.85187">
        <ele>176</ele>
        <time>2025-08-17T08:10:40.569Z</time>
      </trkpt>
      <trkpt lat="44.25908" lon="0.85186">
        <ele>175</ele>
        <time>2025-08-17T08:10:41.569Z</time>
      </trkpt>
      <trkpt lat="44.25909" lon="0.85186">
        <ele>175</ele>
        <time>2025-08-17T08:10:42.569Z</time>
      </trkpt>
      <trkpt lat="44.25909" lon="0.85185">
        <ele>174</ele>
        <time>2025-08-17T08:10:43.569Z</time>
      </trkpt>
      <trkpt lat="44.2591" lon="0.85184">
        <ele>173</ele>
        <time>2025-08-17T08:10:44.569Z</time>
      </trkpt>
      <trkpt lat="44.2591" lon="0.85183">
        <ele>173</ele>
        <time>2025-08-17T08:10:45.569Z</time>
      </trkpt>
      <trkpt lat="44.25911" lon="0.85182">
        <ele>173</ele>
        <time>2025-08-17T08:10:46.569Z</time>
      </trkpt>
      <trkpt lat="44.25912" lon="0.85181">
        <ele>173</ele>
        <time>2025-08-17T08:10:47.569Z</time>
      </trkpt>
      <trkpt lat="44.25912" lon="0.8518">
        <ele>172</ele>
        <time>2025-08-17T08:10:48.569Z</time>
      </trkpt>
      <trkpt lat="44.25913" lon="0.85179">
        <ele>172</ele>
        <time>2025-08-17T08:10:49.569Z</time>
      </trkpt>
      <trkpt lat="44.25913" lon="0.85179">
        <ele>172</ele>
        <time>2025-08-17T08:10:50.569Z</time>
      </trkpt>
      <trkpt lat="44.25914" lon="0.85178">
        <ele>172</ele>
        <time>2025-08-17T08:10:51.569Z</time>
      </trkpt>
      <trkpt lat="44.25914" lon="0.85178">
        <ele>172</ele>
        <time>2025-08-17T08:10:52.569Z</time>
      </trkpt>
      <trkpt lat="44.25914" lon="0.85176">
        <ele>171</ele>
        <time>2025-08-17T08:10:53.569Z</time>
      </trkpt>
      <trkpt lat="44.25914" lon="0.85176">
        <ele>171</ele>
        <time>2025-08-17T08:10:54.569Z</time>
      </trkpt>
      <trkpt lat="44.25914" lon="0.85176">
        <ele>171</ele>
        <time>2025-08-17T08:10:55.569Z</time>
      </trkpt>
      <trkpt lat="44.25914" lon="0.85176">
        <ele>171</ele>
        <time>2025-08-17T08:10:56.569Z</time>
      </trkpt>
      <trkpt lat="44.25914" lon="0.85175">
        <ele>171</ele>
        <time>2025-08-17T08:10:57.569Z</time>
      </trkpt>
      <trkpt lat="44.25914" lon="0.85175">
        <ele>171</ele>
        <time>2025-08-17T08:10:58.569Z</time>
      </trkpt>
      <trkpt lat="44.25915" lon="0.85174">
        <ele>171</ele>
        <time>2025-08-17T08:10:59.569Z</time>
      </trkpt>
      <trkpt lat="44.25915" lon="0.85174">
        <ele>170</ele>
        <time>2025-08-17T08:11:00.569Z</time>
      </trkpt>
      <trkpt lat="44.25915" lon="0.85173">
        <ele>170</ele>
        <time>2025-08-17T08:11:01.569Z</time>
      </trkpt>
      <trkpt lat="44.25916" lon="0.85172">
        <ele>170</ele>
        <time>2025-08-17T08:11:02.569Z</time>
      </trkpt>
      <trkpt lat="44.25916" lon="0.85171">
        <ele>170</ele>
        <time>2025-08-17T08:11:03.569Z</time>
      </trkpt>
      <trkpt lat="44.25916" lon="0.8517">
        <ele>171</ele>
        <time>2025-08-17T08:11:04.569Z</time>
      </trkpt>
      <trkpt lat="44.25917" lon="0.85169">
        <ele>171</ele>
        <time>2025-08-17T08:11:05.569Z</time>
      </trkpt>
      <trkpt lat="44.25917" lon="0.85168">
        <ele>171</ele>
        <time>2025-08-17T08:11:06.569Z</time>
      </trkpt>
      <trkpt lat="44.25917" lon="0.85167">
        <ele>171</ele>
        <time>2025-08-17T08:11:07.569Z</time>
      </trkpt>
      <trkpt lat="44.25917" lon="0.85166">
        <ele>171</ele>
        <time>2025-08-17T08:11:08.569Z</time>
      </trkpt>
      <trkpt lat="44.25917" lon="0.85165">
        <ele>170</ele>
        <time>2025-08-17T08:11:09.569Z</time>
      </trkpt>
      <trkpt lat="44.25918" lon="0.85164">
        <ele>170</ele>
        <time>2025-08-17T08:11:10.569Z</time>
      </trkpt>
      <trkpt lat="44.25918" lon="0.85163">
        <ele>170</ele>
        <time>2025-08-17T08:11:11.569Z</time>
      </trkpt>
      <trkpt lat="44.25919" lon="0.85162">
        <ele>170</ele>
        <time>2025-08-17T08:11:12.569Z</time>
      </trkpt>
      <trkpt lat="44.25919" lon="0.85161">
        <ele>170</ele>
        <time>2025-08-17T08:11:13.569Z</time>
      </trkpt>
      <trkpt lat="44.2592" lon="0.8516">
        <ele>170</ele>
        <time>2025-08-17T08:11:14.569Z</time>
      </trkpt>
      <trkpt lat="44.2592" lon="0.85159">
        <ele>170</ele>
        <time>2025-08-17T08:11:15.569Z</time>
      </trkpt>
      <trkpt lat="44.2592" lon="0.85158">
        <ele>170</ele>
        <time>2025-08-17T08:11:16.569Z</time>
      </trkpt>
      <trkpt lat="44.25921" lon="0.85157">
        <ele>170</ele>
        <time>2025-08-17T08:11:17.569Z</time>
      </trkpt>
      <trkpt lat="44.25922" lon="0.85157">
        <ele>170</ele>
        <time>2025-08-17T08:11:18.569Z</time>
      </trkpt>
      <trkpt lat="44.25922" lon="0.85156">
        <ele>170</ele>
        <time>2025-08-17T08:11:19.569Z</time>
      </trkpt>
      <trkpt lat="44.25923" lon="0.85155">
        <ele>170</ele>
        <time>2025-08-17T08:11:20.569Z</time>
      </trkpt>
      <trkpt lat="44.25924" lon="0.85154">
        <ele>169</ele>
        <time>2025-08-17T08:11:21.569Z</time>
      </trkpt>
      <trkpt lat="44.25924" lon="0.85153">
        <ele>169</ele>
        <time>2025-08-17T08:11:22.569Z</time>
      </trkpt>
      <trkpt lat="44.25925" lon="0.85152">
        <ele>169</ele>
        <time>2025-08-17T08:11:23.569Z</time>
      </trkpt>
      <trkpt lat="44.25925" lon="0.85151">
        <ele>168</ele>
        <time>2025-08-17T08:11:24.569Z</time>
      </trkpt>
      <trkpt lat="44.25926" lon="0.8515">
        <ele>168</ele>
        <time>2025-08-17T08:11:25.569Z</time>
      </trkpt>
      <trkpt lat="44.25927" lon="0.85149">
        <ele>168</ele>
        <time>2025-08-17T08:11:26.569Z</time>
      </trkpt>
      <trkpt lat="44.25927" lon="0.85149">
        <ele>168</ele>
        <time>2025-08-17T08:11:27.569Z</time>
      </trkpt>
      <trkpt lat="44.25928" lon="0.85148">
        <ele>168</ele>
        <time>2025-08-17T08:11:28.569Z</time>
      </trkpt>
      <trkpt lat="44.25928" lon="0.85146">
        <ele>168</ele>
        <time>2025-08-17T08:11:29.569Z</time>
      </trkpt>
      <trkpt lat="44.25928" lon="0.85146">
        <ele>168</ele>
        <time>2025-08-17T08:11:30.569Z</time>
      </trkpt>
      <trkpt lat="44.25928" lon="0.85146">
        <ele>168</ele>
        <time>2025-08-17T08:11:31.569Z</time>
      </trkpt>
      <trkpt lat="44.25929" lon="0.85143">
        <ele>168</ele>
        <time>2025-08-17T08:11:32.569Z</time>
      </trkpt>
      <trkpt lat="44.25929" lon="0.85142">
        <ele>168</ele>
        <time>2025-08-17T08:11:33.569Z</time>
      </trkpt>
      <trkpt lat="44.25929" lon="0.85142">
        <ele>168</ele>
        <time>2025-08-17T08:11:34.569Z</time>
      </trkpt>
      <trkpt lat="44.25931" lon="0.85141">
        <ele>168</ele>
        <time>2025-08-17T08:11:35.569Z</time>
      </trkpt>
      <trkpt lat="44.25932" lon="0.8514">
        <ele>168</ele>
        <time>2025-08-17T08:11:36.569Z</time>
      </trkpt>
      <trkpt lat="44.25932" lon="0.8514">
        <ele>168</ele>
        <time>2025-08-17T08:11:37.569Z</time>
      </trkpt>
      <trkpt lat="44.25933" lon="0.85139">
        <ele>168</ele>
        <time>2025-08-17T08:11:38.569Z</time>
      </trkpt>
      <trkpt lat="44.25934" lon="0.85138">
        <ele>167</ele>
        <time>2025-08-17T08:11:39.569Z</time>
      </trkpt>
      <trkpt lat="44.25934" lon="0.85137">
        <ele>167</ele>
        <time>2025-08-17T08:11:40.569Z</time>
      </trkpt>
      <trkpt lat="44.25935" lon="0.85136">
        <ele>167</ele>
        <time>2025-08-17T08:11:41.569Z</time>
      </trkpt>
      <trkpt lat="44.25936" lon="0.85135">
        <ele>167</ele>
        <time>2025-08-17T08:11:42.569Z</time>
      </trkpt>
      <trkpt lat="44.25936" lon="0.85135">
        <ele>167</ele>
        <time>2025-08-17T08:11:43.569Z</time>
      </trkpt>
      <trkpt lat="44.25937" lon="0.85134">
        <ele>167</ele>
        <time>2025-08-17T08:11:44.569Z</time>
      </trkpt>
      <trkpt lat="44.25937" lon="0.85133">
        <ele>167</ele>
        <time>2025-08-17T08:11:45.569Z</time>
      </trkpt>
      <trkpt lat="44.25938" lon="0.85132">
        <ele>167</ele>
        <time>2025-08-17T08:11:46.569Z</time>
      </trkpt>
      <trkpt lat="44.25938" lon="0.85131">
        <ele>167</ele>
        <time>2025-08-17T08:11:47.569Z</time>
      </trkpt>
      <trkpt lat="44.25939" lon="0.8513">
        <ele>167</ele>
        <time>2025-08-17T08:11:48.569Z</time>
      </trkpt>
      <trkpt lat="44.2594" lon="0.8513">
        <ele>167</ele>
        <time>2025-08-17T08:11:49.569Z</time>
      </trkpt>
      <trkpt lat="44.25941" lon="0.85129">
        <ele>166</ele>
        <time>2025-08-17T08:11:50.569Z</time>
      </trkpt>
      <trkpt lat="44.25942" lon="0.85128">
        <ele>166</ele>
        <time>2025-08-17T08:11:51.569Z</time>
      </trkpt>
      <trkpt lat="44.25943" lon="0.85127">
        <ele>166</ele>
        <time>2025-08-17T08:11:52.569Z</time>
      </trkpt>
      <trkpt lat="44.25943" lon="0.85126">
        <ele>165</ele>
        <time>2025-08-17T08:11:53.569Z</time>
      </trkpt>
      <trkpt lat="44.25943" lon="0.85125">
        <ele>166</ele>
        <time>2025-08-17T08:11:54.569Z</time>
      </trkpt>
      <trkpt lat="44.25944" lon="0.85124">
        <ele>166</ele>
        <time>2025-08-17T08:11:55.569Z</time>
      </trkpt>
      <trkpt lat="44.25945" lon="0.85123">
        <ele>166</ele>
        <time>2025-08-17T08:11:56.569Z</time>
      </trkpt>
      <trkpt lat="44.25945" lon="0.85122">
        <ele>166</ele>
        <time>2025-08-17T08:11:57.569Z</time>
      </trkpt>
      <trkpt lat="44.25945" lon="0.85121">
        <ele>166</ele>
        <time>2025-08-17T08:11:58.569Z</time>
      </trkpt>
      <trkpt lat="44.25946" lon="0.8512">
        <ele>166</ele>
        <time>2025-08-17T08:11:59.569Z</time>
      </trkpt>
      <trkpt lat="44.25946" lon="0.85118">
        <ele>166</ele>
        <time>2025-08-17T08:12:00.569Z</time>
      </trkpt>
      <trkpt lat="44.25947" lon="0.85117">
        <ele>166</ele>
        <time>2025-08-17T08:12:01.569Z</time>
      </trkpt>
      <trkpt lat="44.25947" lon="0.85116">
        <ele>166</ele>
        <time>2025-08-17T08:12:02.569Z</time>
      </trkpt>
      <trkpt lat="44.25948" lon="0.85115">
        <ele>166</ele>
        <time>2025-08-17T08:12:03.569Z</time>
      </trkpt>
      <trkpt lat="44.25949" lon="0.85114">
        <ele>165</ele>
        <time>2025-08-17T08:12:04.569Z</time>
      </trkpt>
      <trkpt lat="44.2595" lon="0.85114">
        <ele>165</ele>
        <time>2025-08-17T08:12:05.569Z</time>
      </trkpt>
      <trkpt lat="44.2595" lon="0.85113">
        <ele>165</ele>
        <time>2025-08-17T08:12:06.569Z</time>
      </trkpt>
      <trkpt lat="44.2595" lon="0.85113">
        <ele>165</ele>
        <time>2025-08-17T08:12:07.569Z</time>
      </trkpt>
      <trkpt lat="44.25952" lon="0.85111">
        <ele>164</ele>
        <time>2025-08-17T08:12:08.569Z</time>
      </trkpt>
      <trkpt lat="44.25953" lon="0.8511">
        <ele>164</ele>
        <time>2025-08-17T08:12:09.569Z</time>
      </trkpt>
      <trkpt lat="44.25953" lon="0.8511">
        <ele>164</ele>
        <time>2025-08-17T08:12:10.569Z</time>
      </trkpt>
      <trkpt lat="44.25954" lon="0.85109">
        <ele>163</ele>
        <time>2025-08-17T08:12:11.569Z</time>
      </trkpt>
      <trkpt lat="44.25954" lon="0.85108">
        <ele>163</ele>
        <time>2025-08-17T08:12:12.569Z</time>
      </trkpt>
      <trkpt lat="44.25954" lon="0.85108">
        <ele>163</ele>
        <time>2025-08-17T08:12:13.569Z</time>
      </trkpt>
      <trkpt lat="44.25954" lon="0.85108">
        <ele>163</ele>
        <time>2025-08-17T08:12:14.569Z</time>
      </trkpt>
      <trkpt lat="44.25954" lon="0.85107">
        <ele>163</ele>
        <time>2025-08-17T08:12:15.569Z</time>
      </trkpt>
      <trkpt lat="44.25954" lon="0.85107">
        <ele>163</ele>
        <time>2025-08-17T08:12:16.569Z</time>
      </trkpt>
      <trkpt lat="44.25954" lon="0.85107">
        <ele>163</ele>
        <time>2025-08-17T08:12:17.569Z</time>
      </trkpt>
      <trkpt lat="44.25954" lon="0.85107">
        <ele>163</ele>
        <time>2025-08-17T08:12:18.569Z</time>
      </trkpt>
      <trkpt lat="44.25954" lon="0.85107">
        <ele>163</ele>
        <time>2025-08-17T08:12:19.569Z</time>
      </trkpt>
      <trkpt lat="44.25954" lon="0.85107">
        <ele>163</ele>
        <time>2025-08-17T08:12:20.569Z</time>
      </trkpt>
      <trkpt lat="44.25954" lon="0.85107">
        <ele>163</ele>
        <time>2025-08-17T08:12:21.569Z</time>
      </trkpt>
      <trkpt lat="44.25954" lon="0.85107">
        <ele>163</ele>
        <time>2025-08-17T08:12:22.569Z</time>
      </trkpt>
      <trkpt lat="44.25954" lon="0.85107">
        <ele>163</ele>
        <time>2025-08-17T08:12:23.569Z</time>
      </trkpt>
      <trkpt lat="44.25954" lon="0.85107">
        <ele>163</ele>
        <time>2025-08-17T08:12:24.569Z</time>
      </trkpt>
      <trkpt lat="44.25954" lon="0.85107">
        <ele>163</ele>
        <time>2025-08-17T08:12:25.569Z</time>
      </trkpt>
      <trkpt lat="44.25954" lon="0.85107">
        <ele>163</ele>
        <time>2025-08-17T08:12:26.569Z</time>
      </trkpt>
      <trkpt lat="44.25954" lon="0.85108">
        <ele>163</ele>
        <time>2025-08-17T08:12:27.569Z</time>
      </trkpt>
      <trkpt lat="44.25954" lon="0.85108">
        <ele>163</ele>
        <time>2025-08-17T08:12:28.569Z</time>
      </trkpt>
      <trkpt lat="44.25954" lon="0.85107">
        <ele>163</ele>
        <time>2025-08-17T08:12:29.569Z</time>
      </trkpt>
      <trkpt lat="44.25954" lon="0.85107">
        <ele>163</ele>
        <time>2025-08-17T08:12:30.569Z</time>
      </trkpt>
      <trkpt lat="44.25954" lon="0.85107">
        <ele>162</ele>
        <time>2025-08-17T08:12:31.569Z</time>
      </trkpt>
      <trkpt lat="44.25954" lon="0.85107">
        <ele>162</ele>
        <time>2025-08-17T08:12:32.569Z</time>
      </trkpt>
      <trkpt lat="44.25954" lon="0.85107">
        <ele>162</ele>
        <time>2025-08-17T08:12:33.569Z</time>
      </trkpt>
      <trkpt lat="44.25954" lon="0.85107">
        <ele>162</ele>
        <time>2025-08-17T08:12:34.569Z</time>
      </trkpt>
      <trkpt lat="44.25954" lon="0.85107">
        <ele>162</ele>
        <time>2025-08-17T08:12:35.569Z</time>
      </trkpt>
      <trkpt lat="44.25954" lon="0.85107">
        <ele>161</ele>
        <time>2025-08-17T08:12:36.569Z</time>
      </trkpt>
      <trkpt lat="44.25954" lon="0.85107">
        <ele>161</ele>
        <time>2025-08-17T08:12:37.569Z</time>
      </trkpt>
      <trkpt lat="44.25954" lon="0.85106">
        <ele>161</ele>
        <time>2025-08-17T08:12:38.569Z</time>
      </trkpt>
      <trkpt lat="44.25955" lon="0.85106">
        <ele>161</ele>
        <time>2025-08-17T08:12:39.569Z</time>
      </trkpt>
      <trkpt lat="44.25956" lon="0.85106">
        <ele>161</ele>
        <time>2025-08-17T08:12:40.569Z</time>
      </trkpt>
      <trkpt lat="44.25956" lon="0.85105">
        <ele>160</ele>
        <time>2025-08-17T08:12:41.569Z</time>
      </trkpt>
      <trkpt lat="44.25957" lon="0.85104">
        <ele>160</ele>
        <time>2025-08-17T08:12:42.569Z</time>
      </trkpt>
      <trkpt lat="44.25957" lon="0.85104">
        <ele>160</ele>
        <time>2025-08-17T08:12:43.569Z</time>
      </trkpt>
      <trkpt lat="44.25958" lon="0.85102">
        <ele>160</ele>
        <time>2025-08-17T08:12:44.569Z</time>
      </trkpt>
      <trkpt lat="44.25958" lon="0.85102">
        <ele>160</ele>
        <time>2025-08-17T08:12:45.569Z</time>
      </trkpt>
      <trkpt lat="44.25958" lon="0.85102">
        <ele>160</ele>
        <time>2025-08-17T08:12:46.569Z</time>
      </trkpt>
      <trkpt lat="44.2596" lon="0.85099">
        <ele>160</ele>
        <time>2025-08-17T08:12:47.569Z</time>
      </trkpt>
      <trkpt lat="44.25961" lon="0.85098">
        <ele>161</ele>
        <time>2025-08-17T08:12:48.569Z</time>
      </trkpt>
      <trkpt lat="44.25961" lon="0.85097">
        <ele>161</ele>
        <time>2025-08-17T08:12:49.569Z</time>
      </trkpt>
      <trkpt lat="44.25962" lon="0.85096">
        <ele>161</ele>
        <time>2025-08-17T08:12:50.569Z</time>
      </trkpt>
      <trkpt lat="44.25962" lon="0.85095">
        <ele>161</ele>
        <time>2025-08-17T08:12:51.569Z</time>
      </trkpt>
      <trkpt lat="44.25962" lon="0.85094">
        <ele>161</ele>
        <time>2025-08-17T08:12:52.569Z</time>
      </trkpt>
      <trkpt lat="44.25963" lon="0.85093">
        <ele>161</ele>
        <time>2025-08-17T08:12:53.569Z</time>
      </trkpt>
      <trkpt lat="44.25964" lon="0.85093">
        <ele>161</ele>
        <time>2025-08-17T08:12:54.569Z</time>
      </trkpt>
      <trkpt lat="44.25964" lon="0.85091">
        <ele>161</ele>
        <time>2025-08-17T08:12:55.569Z</time>
      </trkpt>
      <trkpt lat="44.25964" lon="0.8509">
        <ele>160</ele>
        <time>2025-08-17T08:12:56.569Z</time>
      </trkpt>
      <trkpt lat="44.25965" lon="0.85089">
        <ele>160</ele>
        <time>2025-08-17T08:12:57.569Z</time>
      </trkpt>
      <trkpt lat="44.25965" lon="0.85088">
        <ele>160</ele>
        <time>2025-08-17T08:12:58.569Z</time>
      </trkpt>
      <trkpt lat="44.25966" lon="0.85087">
        <ele>160</ele>
        <time>2025-08-17T08:12:59.569Z</time>
      </trkpt>
      <trkpt lat="44.25967" lon="0.85086">
        <ele>159</ele>
        <time>2025-08-17T08:13:00.569Z</time>
      </trkpt>
      <trkpt lat="44.25968" lon="0.85085">
        <ele>159</ele>
        <time>2025-08-17T08:13:01.569Z</time>
      </trkpt>
      <trkpt lat="44.25968" lon="0.85084">
        <ele>159</ele>
        <time>2025-08-17T08:13:02.569Z</time>
      </trkpt>
      <trkpt lat="44.25969" lon="0.85083">
        <ele>158</ele>
        <time>2025-08-17T08:13:03.569Z</time>
      </trkpt>
      <trkpt lat="44.2597" lon="0.85083">
        <ele>158</ele>
        <time>2025-08-17T08:13:04.569Z</time>
      </trkpt>
      <trkpt lat="44.25971" lon="0.85082">
        <ele>158</ele>
        <time>2025-08-17T08:13:05.569Z</time>
      </trkpt>
      <trkpt lat="44.25972" lon="0.85081">
        <ele>157</ele>
        <time>2025-08-17T08:13:06.569Z</time>
      </trkpt>
      <trkpt lat="44.25973" lon="0.85081">
        <ele>157</ele>
        <time>2025-08-17T08:13:07.569Z</time>
      </trkpt>
      <trkpt lat="44.25974" lon="0.8508">
        <ele>157</ele>
        <time>2025-08-17T08:13:08.569Z</time>
      </trkpt>
      <trkpt lat="44.25975" lon="0.8508">
        <ele>157</ele>
        <time>2025-08-17T08:13:09.569Z</time>
      </trkpt>
      <trkpt lat="44.25975" lon="0.85079">
        <ele>157</ele>
        <time>2025-08-17T08:13:10.569Z</time>
      </trkpt>
      <trkpt lat="44.25976" lon="0.85078">
        <ele>157</ele>
        <time>2025-08-17T08:13:11.569Z</time>
      </trkpt>
      <trkpt lat="44.25977" lon="0.85077">
        <ele>158</ele>
        <time>2025-08-17T08:13:12.569Z</time>
      </trkpt>
      <trkpt lat="44.25978" lon="0.85076">
        <ele>158</ele>
        <time>2025-08-17T08:13:13.569Z</time>
      </trkpt>
      <trkpt lat="44.25978" lon="0.85075">
        <ele>158</ele>
        <time>2025-08-17T08:13:14.569Z</time>
      </trkpt>
      <trkpt lat="44.25979" lon="0.85075">
        <ele>157</ele>
        <time>2025-08-17T08:13:15.569Z</time>
      </trkpt>
      <trkpt lat="44.25979" lon="0.85074">
        <ele>157</ele>
        <time>2025-08-17T08:13:16.569Z</time>
      </trkpt>
      <trkpt lat="44.2598" lon="0.85073">
        <ele>156</ele>
        <time>2025-08-17T08:13:17.569Z</time>
      </trkpt>
      <trkpt lat="44.25981" lon="0.85072">
        <ele>156</ele>
        <time>2025-08-17T08:13:18.569Z</time>
      </trkpt>
      <trkpt lat="44.25981" lon="0.85071">
        <ele>156</ele>
        <time>2025-08-17T08:13:19.569Z</time>
      </trkpt>
      <trkpt lat="44.25982" lon="0.85069">
        <ele>156</ele>
        <time>2025-08-17T08:13:20.569Z</time>
      </trkpt>
      <trkpt lat="44.25982" lon="0.85068">
        <ele>156</ele>
        <time>2025-08-17T08:13:21.569Z</time>
      </trkpt>
      <trkpt lat="44.25983" lon="0.85067">
        <ele>156</ele>
        <time>2025-08-17T08:13:22.569Z</time>
      </trkpt>
      <trkpt lat="44.25982" lon="0.85065">
        <ele>156</ele>
        <time>2025-08-17T08:13:23.569Z</time>
      </trkpt>
      <trkpt lat="44.25983" lon="0.85065">
        <ele>155</ele>
        <time>2025-08-17T08:13:24.569Z</time>
      </trkpt>
      <trkpt lat="44.25984" lon="0.85065">
        <ele>155</ele>
        <time>2025-08-17T08:13:25.569Z</time>
      </trkpt>
      <trkpt lat="44.25985" lon="0.85064">
        <ele>155</ele>
        <time>2025-08-17T08:13:26.569Z</time>
      </trkpt>
      <trkpt lat="44.25986" lon="0.85064">
        <ele>155</ele>
        <time>2025-08-17T08:13:27.569Z</time>
      </trkpt>
      <trkpt lat="44.25986" lon="0.85063">
        <ele>155</ele>
        <time>2025-08-17T08:13:28.569Z</time>
      </trkpt>
      <trkpt lat="44.25987" lon="0.85062">
        <ele>155</ele>
        <time>2025-08-17T08:13:29.569Z</time>
      </trkpt>
      <trkpt lat="44.25987" lon="0.85062">
        <ele>154</ele>
        <time>2025-08-17T08:13:30.569Z</time>
      </trkpt>
      <trkpt lat="44.25987" lon="0.85062">
        <ele>155</ele>
        <time>2025-08-17T08:13:31.569Z</time>
      </trkpt>
      <trkpt lat="44.25987" lon="0.85061">
        <ele>155</ele>
        <time>2025-08-17T08:13:32.569Z</time>
      </trkpt>
      <trkpt lat="44.25988" lon="0.85061">
        <ele>155</ele>
        <time>2025-08-17T08:13:33.569Z</time>
      </trkpt>
      <trkpt lat="44.25989" lon="0.85061">
        <ele>155</ele>
        <time>2025-08-17T08:13:34.569Z</time>
      </trkpt>
      <trkpt lat="44.25989" lon="0.8506">
        <ele>155</ele>
        <time>2025-08-17T08:13:35.569Z</time>
      </trkpt>
      <trkpt lat="44.25989" lon="0.85059">
        <ele>154</ele>
        <time>2025-08-17T08:13:36.569Z</time>
      </trkpt>
      <trkpt lat="44.2599" lon="0.85059">
        <ele>154</ele>
        <time>2025-08-17T08:13:37.569Z</time>
      </trkpt>
      <trkpt lat="44.2599" lon="0.85058">
        <ele>154</ele>
        <time>2025-08-17T08:13:38.569Z</time>
      </trkpt>
      <trkpt lat="44.2599" lon="0.85058">
        <ele>154</ele>
        <time>2025-08-17T08:13:39.569Z</time>
      </trkpt>
      <trkpt lat="44.25991" lon="0.85058">
        <ele>153</ele>
        <time>2025-08-17T08:13:40.569Z</time>
      </trkpt>
      <trkpt lat="44.25992" lon="0.85057">
        <ele>153</ele>
        <time>2025-08-17T08:13:41.569Z</time>
      </trkpt>
      <trkpt lat="44.25992" lon="0.85057">
        <ele>153</ele>
        <time>2025-08-17T08:13:42.569Z</time>
      </trkpt>
      <trkpt lat="44.25993" lon="0.85056">
        <ele>153</ele>
        <time>2025-08-17T08:13:43.569Z</time>
      </trkpt>
      <trkpt lat="44.25994" lon="0.85056">
        <ele>153</ele>
        <time>2025-08-17T08:13:44.569Z</time>
      </trkpt>
      <trkpt lat="44.25994" lon="0.85055">
        <ele>153</ele>
        <time>2025-08-17T08:13:45.569Z</time>
      </trkpt>
      <trkpt lat="44.25995" lon="0.85055">
        <ele>153</ele>
        <time>2025-08-17T08:13:46.569Z</time>
      </trkpt>
      <trkpt lat="44.25996" lon="0.85054">
        <ele>153</ele>
        <time>2025-08-17T08:13:47.569Z</time>
      </trkpt>
      <trkpt lat="44.25997" lon="0.85054">
        <ele>154</ele>
        <time>2025-08-17T08:13:48.569Z</time>
      </trkpt>
      <trkpt lat="44.25997" lon="0.85054">
        <ele>154</ele>
        <time>2025-08-17T08:13:49.569Z</time>
      </trkpt>
      <trkpt lat="44.25998" lon="0.85053">
        <ele>154</ele>
        <time>2025-08-17T08:13:50.569Z</time>
      </trkpt>
      <trkpt lat="44.25998" lon="0.85053">
        <ele>154</ele>
        <time>2025-08-17T08:13:51.569Z</time>
      </trkpt>
      <trkpt lat="44.25999" lon="0.85052">
        <ele>154</ele>
        <time>2025-08-17T08:13:52.569Z</time>
      </trkpt>
      <trkpt lat="44.26" lon="0.85052">
        <ele>154</ele>
        <time>2025-08-17T08:13:53.569Z</time>
      </trkpt>
      <trkpt lat="44.26" lon="0.85051">
        <ele>154</ele>
        <time>2025-08-17T08:13:54.569Z</time>
      </trkpt>
      <trkpt lat="44.26001" lon="0.8505">
        <ele>154</ele>
        <time>2025-08-17T08:13:55.569Z</time>
      </trkpt>
      <trkpt lat="44.26002" lon="0.8505">
        <ele>154</ele>
        <time>2025-08-17T08:13:56.569Z</time>
      </trkpt>
      <trkpt lat="44.26003" lon="0.85049">
        <ele>154</ele>
        <time>2025-08-17T08:13:57.569Z</time>
      </trkpt>
      <trkpt lat="44.26004" lon="0.85049">
        <ele>154</ele>
        <time>2025-08-17T08:13:58.569Z</time>
      </trkpt>
      <trkpt lat="44.26005" lon="0.85049">
        <ele>154</ele>
        <time>2025-08-17T08:13:59.569Z</time>
      </trkpt>
      <trkpt lat="44.26006" lon="0.85048">
        <ele>154</ele>
        <time>2025-08-17T08:14:00.569Z</time>
      </trkpt>
      <trkpt lat="44.26007" lon="0.85048">
        <ele>153</ele>
        <time>2025-08-17T08:14:01.569Z</time>
      </trkpt>
      <trkpt lat="44.26007" lon="0.85047">
        <ele>154</ele>
        <time>2025-08-17T08:14:02.569Z</time>
      </trkpt>
      <trkpt lat="44.26008" lon="0.85047">
        <ele>154</ele>
        <time>2025-08-17T08:14:03.569Z</time>
      </trkpt>
      <trkpt lat="44.26009" lon="0.85046">
        <ele>154</ele>
        <time>2025-08-17T08:14:04.569Z</time>
      </trkpt>
      <trkpt lat="44.26009" lon="0.85044">
        <ele>154</ele>
        <time>2025-08-17T08:14:05.569Z</time>
      </trkpt>
      <trkpt lat="44.2601" lon="0.85043">
        <ele>154</ele>
        <time>2025-08-17T08:14:06.569Z</time>
      </trkpt>
      <trkpt lat="44.26012" lon="0.85042">
        <ele>154</ele>
        <time>2025-08-17T08:14:07.569Z</time>
      </trkpt>
      <trkpt lat="44.26013" lon="0.8504">
        <ele>154</ele>
        <time>2025-08-17T08:14:08.569Z</time>
      </trkpt>
      <trkpt lat="44.26014" lon="0.85039">
        <ele>154</ele>
        <time>2025-08-17T08:14:09.569Z</time>
      </trkpt>
      <trkpt lat="44.26014" lon="0.85038">
        <ele>154</ele>
        <time>2025-08-17T08:14:10.569Z</time>
      </trkpt>
      <trkpt lat="44.26014" lon="0.85037">
        <ele>154</ele>
        <time>2025-08-17T08:14:11.569Z</time>
      </trkpt>
      <trkpt lat="44.26014" lon="0.85036">
        <ele>154</ele>
        <time>2025-08-17T08:14:12.569Z</time>
      </trkpt>
      <trkpt lat="44.26014" lon="0.85035">
        <ele>154</ele>
        <time>2025-08-17T08:14:13.569Z</time>
      </trkpt>
      <trkpt lat="44.26015" lon="0.85034">
        <ele>153</ele>
        <time>2025-08-17T08:14:14.569Z</time>
      </trkpt>
      <trkpt lat="44.26016" lon="0.85034">
        <ele>153</ele>
        <time>2025-08-17T08:14:15.569Z</time>
      </trkpt>
      <trkpt lat="44.26017" lon="0.85033">
        <ele>153</ele>
        <time>2025-08-17T08:14:16.569Z</time>
      </trkpt>
      <trkpt lat="44.26017" lon="0.85033">
        <ele>153</ele>
        <time>2025-08-17T08:14:17.569Z</time>
      </trkpt>
      <trkpt lat="44.26018" lon="0.85032">
        <ele>153</ele>
        <time>2025-08-17T08:14:18.569Z</time>
      </trkpt>
      <trkpt lat="44.26019" lon="0.85031">
        <ele>153</ele>
        <time>2025-08-17T08:14:19.569Z</time>
      </trkpt>
      <trkpt lat="44.26019" lon="0.85031">
        <ele>153</ele>
        <time>2025-08-17T08:14:20.569Z</time>
      </trkpt>
      <trkpt lat="44.26019" lon="0.85029">
        <ele>153</ele>
        <time>2025-08-17T08:14:21.569Z</time>
      </trkpt>
      <trkpt lat="44.2602" lon="0.85029">
        <ele>153</ele>
        <time>2025-08-17T08:14:22.569Z</time>
      </trkpt>
      <trkpt lat="44.2602" lon="0.85028">
        <ele>153</ele>
        <time>2025-08-17T08:14:23.569Z</time>
      </trkpt>
      <trkpt lat="44.26021" lon="0.85027">
        <ele>153</ele>
        <time>2025-08-17T08:14:24.569Z</time>
      </trkpt>
      <trkpt lat="44.26022" lon="0.85026">
        <ele>152</ele>
        <time>2025-08-17T08:14:25.569Z</time>
      </trkpt>
      <trkpt lat="44.26023" lon="0.85025">
        <ele>152</ele>
        <time>2025-08-17T08:14:26.569Z</time>
      </trkpt>
      <trkpt lat="44.26023" lon="0.85024">
        <ele>152</ele>
        <time>2025-08-17T08:14:27.569Z</time>
      </trkpt>
      <trkpt lat="44.26024" lon="0.85023">
        <ele>152</ele>
        <time>2025-08-17T08:14:28.569Z</time>
      </trkpt>
      <trkpt lat="44.26025" lon="0.85022">
        <ele>152</ele>
        <time>2025-08-17T08:14:29.569Z</time>
      </trkpt>
      <trkpt lat="44.26025" lon="0.85022">
        <ele>152</ele>
        <time>2025-08-17T08:14:30.569Z</time>
      </trkpt>
      <trkpt lat="44.26026" lon="0.85022">
        <ele>152</ele>
        <time>2025-08-17T08:14:31.569Z</time>
      </trkpt>
      <trkpt lat="44.26027" lon="0.85021">
        <ele>151</ele>
        <time>2025-08-17T08:14:32.569Z</time>
      </trkpt>
      <trkpt lat="44.26027" lon="0.8502">
        <ele>151</ele>
        <time>2025-08-17T08:14:33.569Z</time>
      </trkpt>
      <trkpt lat="44.26028" lon="0.85019">
        <ele>151</ele>
        <time>2025-08-17T08:14:34.569Z</time>
      </trkpt>
      <trkpt lat="44.26029" lon="0.85018">
        <ele>150</ele>
        <time>2025-08-17T08:14:35.569Z</time>
      </trkpt>
      <trkpt lat="44.2603" lon="0.85017">
        <ele>150</ele>
        <time>2025-08-17T08:14:36.569Z</time>
      </trkpt>
      <trkpt lat="44.2603" lon="0.85017">
        <ele>150</ele>
        <time>2025-08-17T08:14:37.569Z</time>
      </trkpt>
      <trkpt lat="44.26031" lon="0.85016">
        <ele>150</ele>
        <time>2025-08-17T08:14:38.569Z</time>
      </trkpt>
      <trkpt lat="44.26031" lon="0.85015">
        <ele>149</ele>
        <time>2025-08-17T08:14:39.569Z</time>
      </trkpt>
      <trkpt lat="44.26032" lon="0.85015">
        <ele>149</ele>
        <time>2025-08-17T08:14:40.569Z</time>
      </trkpt>
      <trkpt lat="44.26032" lon="0.85014">
        <ele>149</ele>
        <time>2025-08-17T08:14:41.569Z</time>
      </trkpt>
      <trkpt lat="44.26032" lon="0.85014">
        <ele>149</ele>
        <time>2025-08-17T08:14:42.569Z</time>
      </trkpt>
      <trkpt lat="44.26033" lon="0.85014">
        <ele>149</ele>
        <time>2025-08-17T08:14:43.569Z</time>
      </trkpt>
      <trkpt lat="44.26034" lon="0.85013">
        <ele>149</ele>
        <time>2025-08-17T08:14:44.569Z</time>
      </trkpt>
      <trkpt lat="44.26035" lon="0.85013">
        <ele>148</ele>
        <time>2025-08-17T08:14:45.569Z</time>
      </trkpt>
      <trkpt lat="44.26036" lon="0.85013">
        <ele>148</ele>
        <time>2025-08-17T08:14:46.569Z</time>
      </trkpt>
      <trkpt lat="44.26037" lon="0.85013">
        <ele>148</ele>
        <time>2025-08-17T08:14:47.569Z</time>
      </trkpt>
      <trkpt lat="44.26038" lon="0.85013">
        <ele>147</ele>
        <time>2025-08-17T08:14:48.569Z</time>
      </trkpt>
      <trkpt lat="44.26038" lon="0.85012">
        <ele>147</ele>
        <time>2025-08-17T08:14:49.569Z</time>
      </trkpt>
      <trkpt lat="44.26039" lon="0.85012">
        <ele>147</ele>
        <time>2025-08-17T08:14:50.569Z</time>
      </trkpt>
      <trkpt lat="44.26039" lon="0.85012">
        <ele>147</ele>
        <time>2025-08-17T08:14:51.569Z</time>
      </trkpt>
      <trkpt lat="44.26039" lon="0.85012">
        <ele>148</ele>
        <time>2025-08-17T08:14:52.569Z</time>
      </trkpt>
      <trkpt lat="44.26038" lon="0.85012">
        <ele>148</ele>
        <time>2025-08-17T08:14:53.569Z</time>
      </trkpt>
      <trkpt lat="44.26038" lon="0.85012">
        <ele>148</ele>
        <time>2025-08-17T08:14:54.569Z</time>
      </trkpt>
      <trkpt lat="44.26038" lon="0.85012">
        <ele>148</ele>
        <time>2025-08-17T08:14:55.569Z</time>
      </trkpt>
      <trkpt lat="44.26039" lon="0.85011">
        <ele>149</ele>
        <time>2025-08-17T08:14:56.569Z</time>
      </trkpt>
      <trkpt lat="44.2604" lon="0.85011">
        <ele>149</ele>
        <time>2025-08-17T08:14:57.569Z</time>
      </trkpt>
      <trkpt lat="44.2604" lon="0.85011">
        <ele>150</ele>
        <time>2025-08-17T08:14:58.569Z</time>
      </trkpt>
      <trkpt lat="44.2604" lon="0.85011">
        <ele>151</ele>
        <time>2025-08-17T08:14:59.569Z</time>
      </trkpt>
      <trkpt lat="44.2604" lon="0.85011">
        <ele>151</ele>
        <time>2025-08-17T08:15:00.569Z</time>
      </trkpt>
      <trkpt lat="44.26041" lon="0.8501">
        <ele>152</ele>
        <time>2025-08-17T08:15:01.569Z</time>
      </trkpt>
      <trkpt lat="44.26041" lon="0.8501">
        <ele>152</ele>
        <time>2025-08-17T08:15:02.569Z</time>
      </trkpt>
      <trkpt lat="44.26042" lon="0.8501">
        <ele>153</ele>
        <time>2025-08-17T08:15:03.569Z</time>
      </trkpt>
      <trkpt lat="44.26042" lon="0.85009">
        <ele>153</ele>
        <time>2025-08-17T08:15:04.569Z</time>
      </trkpt>
      <trkpt lat="44.26042" lon="0.8501">
        <ele>153</ele>
        <time>2025-08-17T08:15:05.569Z</time>
      </trkpt>
      <trkpt lat="44.26042" lon="0.8501">
        <ele>154</ele>
        <time>2025-08-17T08:15:06.569Z</time>
      </trkpt>
      <trkpt lat="44.26042" lon="0.8501">
        <ele>154</ele>
        <time>2025-08-17T08:15:07.569Z</time>
      </trkpt>
      <trkpt lat="44.26042" lon="0.8501">
        <ele>154</ele>
        <time>2025-08-17T08:15:08.569Z</time>
      </trkpt>
      <trkpt lat="44.26042" lon="0.8501">
        <ele>154</ele>
        <time>2025-08-17T08:15:09.569Z</time>
      </trkpt>
      <trkpt lat="44.26042" lon="0.8501">
        <ele>154</ele>
        <time>2025-08-17T08:15:10.569Z</time>
      </trkpt>
      <trkpt lat="44.26042" lon="0.85011">
        <ele>154</ele>
        <time>2025-08-17T08:15:11.569Z</time>
      </trkpt>
      <trkpt lat="44.26042" lon="0.85011">
        <ele>154</ele>
        <time>2025-08-17T08:15:12.569Z</time>
      </trkpt>
      <trkpt lat="44.26042" lon="0.85011">
        <ele>154</ele>
        <time>2025-08-17T08:15:13.569Z</time>
      </trkpt>
      <trkpt lat="44.26042" lon="0.85011">
        <ele>154</ele>
        <time>2025-08-17T08:15:14.569Z</time>
      </trkpt>
      <trkpt lat="44.26042" lon="0.85011">
        <ele>154</ele>
        <time>2025-08-17T08:15:15.569Z</time>
      </trkpt>
      <trkpt lat="44.26042" lon="0.85011">
        <ele>154</ele>
        <time>2025-08-17T08:15:16.569Z</time>
      </trkpt>
      <trkpt lat="44.26041" lon="0.85012">
        <ele>154</ele>
        <time>2025-08-17T08:15:17.569Z</time>
      </trkpt>
      <trkpt lat="44.26041" lon="0.85012">
        <ele>154</ele>
        <time>2025-08-17T08:15:18.569Z</time>
      </trkpt>
      <trkpt lat="44.26041" lon="0.85012">
        <ele>154</ele>
        <time>2025-08-17T08:15:19.569Z</time>
      </trkpt>
      <trkpt lat="44.26042" lon="0.85012">
        <ele>154</ele>
        <time>2025-08-17T08:15:20.569Z</time>
      </trkpt>
      <trkpt lat="44.26042" lon="0.85012">
        <ele>155</ele>
        <time>2025-08-17T08:15:21.569Z</time>
      </trkpt>
      <trkpt lat="44.26041" lon="0.85012">
        <ele>155</ele>
        <time>2025-08-17T08:15:22.569Z</time>
      </trkpt>
      <trkpt lat="44.26041" lon="0.85012">
        <ele>155</ele>
        <time>2025-08-17T08:15:23.569Z</time>
      </trkpt>
      <trkpt lat="44.26042" lon="0.85012">
        <ele>156</ele>
        <time>2025-08-17T08:15:24.569Z</time>
      </trkpt>
      <trkpt lat="44.26041" lon="0.85012">
        <ele>156</ele>
        <time>2025-08-17T08:15:25.569Z</time>
      </trkpt>
      <trkpt lat="44.26042" lon="0.85012">
        <ele>156</ele>
        <time>2025-08-17T08:15:26.569Z</time>
      </trkpt>
      <trkpt lat="44.26042" lon="0.85012">
        <ele>156</ele>
        <time>2025-08-17T08:15:27.569Z</time>
      </trkpt>
      <trkpt lat="44.26042" lon="0.85012">
        <ele>157</ele>
        <time>2025-08-17T08:15:28.569Z</time>
      </trkpt>
      <trkpt lat="44.26042" lon="0.85012">
        <ele>157</ele>
        <time>2025-08-17T08:15:29.569Z</time>
      </trkpt>
      <trkpt lat="44.26042" lon="0.85012">
        <ele>157</ele>
        <time>2025-08-17T08:15:30.569Z</time>
      </trkpt>
      <trkpt lat="44.26042" lon="0.85011">
        <ele>157</ele>
        <time>2025-08-17T08:15:31.569Z</time>
      </trkpt>
      <trkpt lat="44.26042" lon="0.85012">
        <ele>157</ele>
        <time>2025-08-17T08:15:32.569Z</time>
      </trkpt>
      <trkpt lat="44.26041" lon="0.85011">
        <ele>157</ele>
        <time>2025-08-17T08:15:33.569Z</time>
      </trkpt>
      <trkpt lat="44.26041" lon="0.85011">
        <ele>157</ele>
        <time>2025-08-17T08:15:34.569Z</time>
      </trkpt>
      <trkpt lat="44.26041" lon="0.85012">
        <ele>157</ele>
        <time>2025-08-17T08:15:35.569Z</time>
      </trkpt>
      <trkpt lat="44.26041" lon="0.85012">
        <ele>157</ele>
        <time>2025-08-17T08:15:36.569Z</time>
      </trkpt>
      <trkpt lat="44.26041" lon="0.85012">
        <ele>157</ele>
        <time>2025-08-17T08:15:37.569Z</time>
      </trkpt>
      <trkpt lat="44.26042" lon="0.85012">
        <ele>157</ele>
        <time>2025-08-17T08:15:38.569Z</time>
      </trkpt>
      <trkpt lat="44.26042" lon="0.85012">
        <ele>157</ele>
        <time>2025-08-17T08:15:39.569Z</time>
      </trkpt>
      <trkpt lat="44.26043" lon="0.85013">
        <ele>157</ele>
        <time>2025-08-17T08:15:40.569Z</time>
      </trkpt>
      <trkpt lat="44.26043" lon="0.85013">
        <ele>157</ele>
        <time>2025-08-17T08:15:41.569Z</time>
      </trkpt>
      <trkpt lat="44.26044" lon="0.85013">
        <ele>157</ele>
        <time>2025-08-17T08:15:42.569Z</time>
      </trkpt>
      <trkpt lat="44.26044" lon="0.85013">
        <ele>157</ele>
        <time>2025-08-17T08:15:43.569Z</time>
      </trkpt>
      <trkpt lat="44.26044" lon="0.85013">
        <ele>157</ele>
        <time>2025-08-17T08:15:44.569Z</time>
      </trkpt>
      <trkpt lat="44.26044" lon="0.85013">
        <ele>158</ele>
        <time>2025-08-17T08:15:45.569Z</time>
      </trkpt>
      <trkpt lat="44.26044" lon="0.85013">
        <ele>158</ele>
        <time>2025-08-17T08:15:46.569Z</time>
      </trkpt>
      <trkpt lat="44.26044" lon="0.85013">
        <ele>158</ele>
        <time>2025-08-17T08:15:47.569Z</time>
      </trkpt>
      <trkpt lat="44.26044" lon="0.85013">
        <ele>158</ele>
        <time>2025-08-17T08:15:48.569Z</time>
      </trkpt>
      <trkpt lat="44.26044" lon="0.85014">
        <ele>158</ele>
        <time>2025-08-17T08:15:49.569Z</time>
      </trkpt>
      <trkpt lat="44.26044" lon="0.85013">
        <ele>158</ele>
        <time>2025-08-17T08:15:50.569Z</time>
      </trkpt>
      <trkpt lat="44.26044" lon="0.85013">
        <ele>158</ele>
        <time>2025-08-17T08:15:51.569Z</time>
      </trkpt>
      <trkpt lat="44.26043" lon="0.85012">
        <ele>158</ele>
        <time>2025-08-17T08:15:52.569Z</time>
      </trkpt>
      <trkpt lat="44.26043" lon="0.85011">
        <ele>159</ele>
        <time>2025-08-17T08:15:53.569Z</time>
      </trkpt>
      <trkpt lat="44.26044" lon="0.85011">
        <ele>159</ele>
        <time>2025-08-17T08:15:54.569Z</time>
      </trkpt>
      <trkpt lat="44.26045" lon="0.85011">
        <ele>159</ele>
        <time>2025-08-17T08:15:55.569Z</time>
      </trkpt>
      <trkpt lat="44.26046" lon="0.8501">
        <ele>159</ele>
        <time>2025-08-17T08:15:56.569Z</time>
      </trkpt>
      <trkpt lat="44.26046" lon="0.8501">
        <ele>159</ele>
        <time>2025-08-17T08:15:57.569Z</time>
      </trkpt>
      <trkpt lat="44.26046" lon="0.8501">
        <ele>159</ele>
        <time>2025-08-17T08:15:58.569Z</time>
      </trkpt>
      <trkpt lat="44.26046" lon="0.8501">
        <ele>160</ele>
        <time>2025-08-17T08:15:59.569Z</time>
      </trkpt>
      <trkpt lat="44.26045" lon="0.8501">
        <ele>160</ele>
        <time>2025-08-17T08:16:00.569Z</time>
      </trkpt>
      <trkpt lat="44.26045" lon="0.8501">
        <ele>160</ele>
        <time>2025-08-17T08:16:01.569Z</time>
      </trkpt>
      <trkpt lat="44.26044" lon="0.8501">
        <ele>160</ele>
        <time>2025-08-17T08:16:02.569Z</time>
      </trkpt>
      <trkpt lat="44.26044" lon="0.85009">
        <ele>161</ele>
        <time>2025-08-17T08:16:03.569Z</time>
      </trkpt>
      <trkpt lat="44.26044" lon="0.85009">
        <ele>161</ele>
        <time>2025-08-17T08:16:04.569Z</time>
      </trkpt>
      <trkpt lat="44.26044" lon="0.85008">
        <ele>161</ele>
        <time>2025-08-17T08:16:05.569Z</time>
      </trkpt>
      <trkpt lat="44.26045" lon="0.85008">
        <ele>161</ele>
        <time>2025-08-17T08:16:06.569Z</time>
      </trkpt>
      <trkpt lat="44.26045" lon="0.85008">
        <ele>161</ele>
        <time>2025-08-17T08:16:07.569Z</time>
      </trkpt>
      <trkpt lat="44.26045" lon="0.85008">
        <ele>161</ele>
        <time>2025-08-17T08:16:08.569Z</time>
      </trkpt>
      <trkpt lat="44.26045" lon="0.85008">
        <ele>161</ele>
        <time>2025-08-17T08:16:09.569Z</time>
      </trkpt>
      <trkpt lat="44.26045" lon="0.85008">
        <ele>162</ele>
        <time>2025-08-17T08:16:10.569Z</time>
      </trkpt>
      <trkpt lat="44.26045" lon="0.85008">
        <ele>162</ele>
        <time>2025-08-17T08:16:11.569Z</time>
      </trkpt>
      <trkpt lat="44.26045" lon="0.85008">
        <ele>162</ele>
        <time>2025-08-17T08:16:12.569Z</time>
      </trkpt>
      <trkpt lat="44.26045" lon="0.85008">
        <ele>162</ele>
        <time>2025-08-17T08:16:13.569Z</time>
      </trkpt>
      <trkpt lat="44.26045" lon="0.85008">
        <ele>162</ele>
        <time>2025-08-17T08:16:14.569Z</time>
      </trkpt>
      <trkpt lat="44.26045" lon="0.85008">
        <ele>162</ele>
        <time>2025-08-17T08:16:15.569Z</time>
      </trkpt>
      <trkpt lat="44.26045" lon="0.85009">
        <ele>161</ele>
        <time>2025-08-17T08:16:16.569Z</time>
      </trkpt>
      <trkpt lat="44.26046" lon="0.85009">
        <ele>161</ele>
        <time>2025-08-17T08:16:17.569Z</time>
      </trkpt>
      <trkpt lat="44.26046" lon="0.85009">
        <ele>160</ele>
        <time>2025-08-17T08:16:18.569Z</time>
      </trkpt>
      <trkpt lat="44.26046" lon="0.85009">
        <ele>160</ele>
        <time>2025-08-17T08:16:19.569Z</time>
      </trkpt>
      <trkpt lat="44.26046" lon="0.85009">
        <ele>160</ele>
        <time>2025-08-17T08:16:20.569Z</time>
      </trkpt>
      <trkpt lat="44.26046" lon="0.85008">
        <ele>160</ele>
        <time>2025-08-17T08:16:21.569Z</time>
      </trkpt>
      <trkpt lat="44.26046" lon="0.85008">
        <ele>160</ele>
        <time>2025-08-17T08:16:22.569Z</time>
      </trkpt>
      <trkpt lat="44.26046" lon="0.85008">
        <ele>160</ele>
        <time>2025-08-17T08:16:23.569Z</time>
      </trkpt>
      <trkpt lat="44.26046" lon="0.85007">
        <ele>160</ele>
        <time>2025-08-17T08:16:24.569Z</time>
      </trkpt>
      <trkpt lat="44.26046" lon="0.85006">
        <ele>160</ele>
        <time>2025-08-17T08:16:25.569Z</time>
      </trkpt>
      <trkpt lat="44.26046" lon="0.85006">
        <ele>161</ele>
        <time>2025-08-17T08:16:26.569Z</time>
      </trkpt>
      <trkpt lat="44.26046" lon="0.85006">
        <ele>161</ele>
        <time>2025-08-17T08:16:27.569Z</time>
      </trkpt>
      <trkpt lat="44.26046" lon="0.85006">
        <ele>162</ele>
        <time>2025-08-17T08:16:28.569Z</time>
      </trkpt>
      <trkpt lat="44.26046" lon="0.85006">
        <ele>163</ele>
        <time>2025-08-17T08:16:29.569Z</time>
      </trkpt>
      <trkpt lat="44.26046" lon="0.85006">
        <ele>163</ele>
        <time>2025-08-17T08:16:30.569Z</time>
      </trkpt>
      <trkpt lat="44.26046" lon="0.85007">
        <ele>163</ele>
        <time>2025-08-17T08:16:31.569Z</time>
      </trkpt>
      <trkpt lat="44.26047" lon="0.85007">
        <ele>163</ele>
        <time>2025-08-17T08:16:32.569Z</time>
      </trkpt>
      <trkpt lat="44.26047" lon="0.85007">
        <ele>163</ele>
        <time>2025-08-17T08:16:33.569Z</time>
      </trkpt>
      <trkpt lat="44.26047" lon="0.85007">
        <ele>163</ele>
        <time>2025-08-17T08:16:34.569Z</time>
      </trkpt>
      <trkpt lat="44.26047" lon="0.85007">
        <ele>163</ele>
        <time>2025-08-17T08:16:35.569Z</time>
      </trkpt>
      <trkpt lat="44.26046" lon="0.85007">
        <ele>164</ele>
        <time>2025-08-17T08:16:36.569Z</time>
      </trkpt>
      <trkpt lat="44.26046" lon="0.85007">
        <ele>164</ele>
        <time>2025-08-17T08:16:37.569Z</time>
      </trkpt>
      <trkpt lat="44.26046" lon="0.85007">
        <ele>163</ele>
        <time>2025-08-17T08:16:38.569Z</time>
      </trkpt>
      <trkpt lat="44.26046" lon="0.85007">
        <ele>163</ele>
        <time>2025-08-17T08:16:39.569Z</time>
      </trkpt>
      <trkpt lat="44.26046" lon="0.85007">
        <ele>163</ele>
        <time>2025-08-17T08:16:40.569Z</time>
      </trkpt>
      <trkpt lat="44.26046" lon="0.85007">
        <ele>162</ele>
        <time>2025-08-17T08:16:41.569Z</time>
      </trkpt>
      <trkpt lat="44.26046" lon="0.85007">
        <ele>162</ele>
        <time>2025-08-17T08:16:42.569Z</time>
      </trkpt>
      <trkpt lat="44.26046" lon="0.85008">
        <ele>161</ele>
        <time>2025-08-17T08:16:43.569Z</time>
      </trkpt>
      <trkpt lat="44.26045" lon="0.85007">
        <ele>161</ele>
        <time>2025-08-17T08:16:44.569Z</time>
      </trkpt>
      <trkpt lat="44.26045" lon="0.85007">
        <ele>161</ele>
        <time>2025-08-17T08:16:45.569Z</time>
      </trkpt>
      <trkpt lat="44.26045" lon="0.85007">
        <ele>160</ele>
        <time>2025-08-17T08:16:46.569Z</time>
      </trkpt>
      <trkpt lat="44.26045" lon="0.85007">
        <ele>160</ele>
        <time>2025-08-17T08:16:47.569Z</time>
      </trkpt>
      <trkpt lat="44.26045" lon="0.85007">
        <ele>159</ele>
        <time>2025-08-17T08:16:48.569Z</time>
      </trkpt>
      <trkpt lat="44.26045" lon="0.85007">
        <ele>158</ele>
        <time>2025-08-17T08:16:49.569Z</time>
      </trkpt>
      <trkpt lat="44.26045" lon="0.85007">
        <ele>158</ele>
        <time>2025-08-17T08:16:50.569Z</time>
      </trkpt>
      <trkpt lat="44.26045" lon="0.85007">
        <ele>157</ele>
        <time>2025-08-17T08:16:51.569Z</time>
      </trkpt>
      <trkpt lat="44.26045" lon="0.85008">
        <ele>157</ele>
        <time>2025-08-17T08:16:52.569Z</time>
      </trkpt>
      <trkpt lat="44.26046" lon="0.85008">
        <ele>156</ele>
        <time>2025-08-17T08:16:53.569Z</time>
      </trkpt>
      <trkpt lat="44.26046" lon="0.85008">
        <ele>156</ele>
        <time>2025-08-17T08:16:54.569Z</time>
      </trkpt>
      <trkpt lat="44.26046" lon="0.85007">
        <ele>156</ele>
        <time>2025-08-17T08:16:55.569Z</time>
      </trkpt>
      <trkpt lat="44.26046" lon="0.85007">
        <ele>156</ele>
        <time>2025-08-17T08:16:56.569Z</time>
      </trkpt>
      <trkpt lat="44.26046" lon="0.85007">
        <ele>155</ele>
        <time>2025-08-17T08:16:57.569Z</time>
      </trkpt>
      <trkpt lat="44.26046" lon="0.85007">
        <ele>155</ele>
        <time>2025-08-17T08:16:58.569Z</time>
      </trkpt>
      <trkpt lat="44.26046" lon="0.85007">
        <ele>154</ele>
        <time>2025-08-17T08:16:59.569Z</time>
      </trkpt>
      <trkpt lat="44.26046" lon="0.85007">
        <ele>154</ele>
        <time>2025-08-17T08:17:00.569Z</time>
      </trkpt>
      <trkpt lat="44.26046" lon="0.85007">
        <ele>154</ele>
        <time>2025-08-17T08:17:01.569Z</time>
      </trkpt>
      <trkpt lat="44.26046" lon="0.85007">
        <ele>154</ele>
        <time>2025-08-17T08:17:02.569Z</time>
      </trkpt>
      <trkpt lat="44.26046" lon="0.85007">
        <ele>153</ele>
        <time>2025-08-17T08:17:03.569Z</time>
      </trkpt>
      <trkpt lat="44.26046" lon="0.85007">
        <ele>153</ele>
        <time>2025-08-17T08:17:04.569Z</time>
      </trkpt>
      <trkpt lat="44.26046" lon="0.85007">
        <ele>152</ele>
        <time>2025-08-17T08:17:05.569Z</time>
      </trkpt>
      <trkpt lat="44.26046" lon="0.85007">
        <ele>152</ele>
        <time>2025-08-17T08:17:06.569Z</time>
      </trkpt>
      <trkpt lat="44.26046" lon="0.85007">
        <ele>152</ele>
        <time>2025-08-17T08:17:07.569Z</time>
      </trkpt>
      <trkpt lat="44.26046" lon="0.85007">
        <ele>152</ele>
        <time>2025-08-17T08:17:08.569Z</time>
      </trkpt>
      <trkpt lat="44.26046" lon="0.85007">
        <ele>152</ele>
        <time>2025-08-17T08:17:09.569Z</time>
      </trkpt>
      <trkpt lat="44.26047" lon="0.85007">
        <ele>152</ele>
        <time>2025-08-17T08:17:10.569Z</time>
      </trkpt>
      <trkpt lat="44.26046" lon="0.85007">
        <ele>151</ele>
        <time>2025-08-17T08:17:11.569Z</time>
      </trkpt>
      <trkpt lat="44.26046" lon="0.85007">
        <ele>151</ele>
        <time>2025-08-17T08:17:12.569Z</time>
      </trkpt>
      <trkpt lat="44.26046" lon="0.85007">
        <ele>151</ele>
        <time>2025-08-17T08:17:13.569Z</time>
      </trkpt>
      <trkpt lat="44.26046" lon="0.85007">
        <ele>151</ele>
        <time>2025-08-17T08:17:14.569Z</time>
      </trkpt>
      <trkpt lat="44.26046" lon="0.85006">
        <ele>151</ele>
        <time>2025-08-17T08:17:15.569Z</time>
      </trkpt>
      <trkpt lat="44.26046" lon="0.85006">
        <ele>151</ele>
        <time>2025-08-17T08:17:16.569Z</time>
      </trkpt>
      <trkpt lat="44.26045" lon="0.85006">
        <ele>151</ele>
        <time>2025-08-17T08:17:17.569Z</time>
      </trkpt>
      <trkpt lat="44.26045" lon="0.85006">
        <ele>151</ele>
        <time>2025-08-17T08:17:18.569Z</time>
      </trkpt>
      <trkpt lat="44.26045" lon="0.85006">
        <ele>151</ele>
        <time>2025-08-17T08:17:19.569Z</time>
      </trkpt>
      <trkpt lat="44.26045" lon="0.85006">
        <ele>151</ele>
        <time>2025-08-17T08:17:20.569Z</time>
      </trkpt>
      <trkpt lat="44.26045" lon="0.85007">
        <ele>151</ele>
        <time>2025-08-17T08:17:21.569Z</time>
      </trkpt>
      <trkpt lat="44.26045" lon="0.85007">
        <ele>152</ele>
        <time>2025-08-17T08:17:22.569Z</time>
      </trkpt>
      <trkpt lat="44.26044" lon="0.85007">
        <ele>152</ele>
        <time>2025-08-17T08:17:23.569Z</time>
      </trkpt>
      <trkpt lat="44.26044" lon="0.85007">
        <ele>152</ele>
        <time>2025-08-17T08:17:24.569Z</time>
      </trkpt>
      <trkpt lat="44.26044" lon="0.85007">
        <ele>152</ele>
        <time>2025-08-17T08:17:25.569Z</time>
      </trkpt>
      <trkpt lat="44.26044" lon="0.85007">
        <ele>152</ele>
        <time>2025-08-17T08:17:26.569Z</time>
      </trkpt>
      <trkpt lat="44.26044" lon="0.85007">
        <ele>153</ele>
        <time>2025-08-17T08:17:27.569Z</time>
      </trkpt>
      <trkpt lat="44.26044" lon="0.85006">
        <ele>153</ele>
        <time>2025-08-17T08:17:28.569Z</time>
      </trkpt>
      <trkpt lat="44.26044" lon="0.85006">
        <ele>153</ele>
        <time>2025-08-17T08:17:29.569Z</time>
      </trkpt>
      <trkpt lat="44.26044" lon="0.85005">
        <ele>153</ele>
        <time>2025-08-17T08:17:30.569Z</time>
      </trkpt>
      <trkpt lat="44.26044" lon="0.85004">
        <ele>154</ele>
        <time>2025-08-17T08:17:31.569Z</time>
      </trkpt>
      <trkpt lat="44.26044" lon="0.85004">
        <ele>154</ele>
        <time>2025-08-17T08:17:32.569Z</time>
      </trkpt>
      <trkpt lat="44.26044" lon="0.85004">
        <ele>154</ele>
        <time>2025-08-17T08:17:33.569Z</time>
      </trkpt>
      <trkpt lat="44.26044" lon="0.85004">
        <ele>154</ele>
        <time>2025-08-17T08:17:34.569Z</time>
      </trkpt>
      <trkpt lat="44.26044" lon="0.85004">
        <ele>154</ele>
        <time>2025-08-17T08:17:35.569Z</time>
      </trkpt>
      <trkpt lat="44.26044" lon="0.85005">
        <ele>154</ele>
        <time>2025-08-17T08:17:36.569Z</time>
      </trkpt>
      <trkpt lat="44.26044" lon="0.85005">
        <ele>153</ele>
        <time>2025-08-17T08:17:37.569Z</time>
      </trkpt>
      <trkpt lat="44.26044" lon="0.85005">
        <ele>153</ele>
        <time>2025-08-17T08:17:38.569Z</time>
      </trkpt>
      <trkpt lat="44.26044" lon="0.85005">
        <ele>153</ele>
        <time>2025-08-17T08:17:39.569Z</time>
      </trkpt>
      <trkpt lat="44.26044" lon="0.85005">
        <ele>153</ele>
        <time>2025-08-17T08:17:40.569Z</time>
      </trkpt>
      <trkpt lat="44.26044" lon="0.85005">
        <ele>153</ele>
        <time>2025-08-17T08:17:41.569Z</time>
      </trkpt>
      <trkpt lat="44.26044" lon="0.85005">
        <ele>153</ele>
        <time>2025-08-17T08:17:42.569Z</time>
      </trkpt>
      <trkpt lat="44.26044" lon="0.85004">
        <ele>152</ele>
        <time>2025-08-17T08:17:43.569Z</time>
      </trkpt>
      <trkpt lat="44.26044" lon="0.85004">
        <ele>152</ele>
        <time>2025-08-17T08:17:44.569Z</time>
      </trkpt>
      <trkpt lat="44.26044" lon="0.85004">
        <ele>152</ele>
        <time>2025-08-17T08:17:45.569Z</time>
      </trkpt>
      <trkpt lat="44.26044" lon="0.85005">
        <ele>153</ele>
        <time>2025-08-17T08:17:46.569Z</time>
      </trkpt>
      <trkpt lat="44.26044" lon="0.85005">
        <ele>153</ele>
        <time>2025-08-17T08:17:47.569Z</time>
      </trkpt>
      <trkpt lat="44.26044" lon="0.85005">
        <ele>153</ele>
        <time>2025-08-17T08:17:48.569Z</time>
      </trkpt>
      <trkpt lat="44.26045" lon="0.85005">
        <ele>153</ele>
        <time>2025-08-17T08:17:49.569Z</time>
      </trkpt>
      <trkpt lat="44.26045" lon="0.85006">
        <ele>153</ele>
        <time>2025-08-17T08:17:50.569Z</time>
      </trkpt>
      <trkpt lat="44.26045" lon="0.85006">
        <ele>153</ele>
        <time>2025-08-17T08:17:51.569Z</time>
      </trkpt>
      <trkpt lat="44.26045" lon="0.85006">
        <ele>153</ele>
        <time>2025-08-17T08:17:52.569Z</time>
      </trkpt>
      <trkpt lat="44.26045" lon="0.85006">
        <ele>154</ele>
        <time>2025-08-17T08:17:53.569Z</time>
      </trkpt>
      <trkpt lat="44.26045" lon="0.85006">
        <ele>154</ele>
        <time>2025-08-17T08:17:54.569Z</time>
      </trkpt>
      <trkpt lat="44.26045" lon="0.85006">
        <ele>154</ele>
        <time>2025-08-17T08:17:55.569Z</time>
      </trkpt>
      <trkpt lat="44.26045" lon="0.85006">
        <ele>155</ele>
        <time>2025-08-17T08:17:56.569Z</time>
      </trkpt>
      <trkpt lat="44.26045" lon="0.85006">
        <ele>155</ele>
        <time>2025-08-17T08:17:57.569Z</time>
      </trkpt>
      <trkpt lat="44.26045" lon="0.85006">
        <ele>155</ele>
        <time>2025-08-17T08:17:58.569Z</time>
      </trkpt>
      <trkpt lat="44.26045" lon="0.85006">
        <ele>155</ele>
        <time>2025-08-17T08:17:59.569Z</time>
      </trkpt>
      <trkpt lat="44.26045" lon="0.85006">
        <ele>155</ele>
        <time>2025-08-17T08:18:00.569Z</time>
      </trkpt>
      <trkpt lat="44.26045" lon="0.85006">
        <ele>155</ele>
        <time>2025-08-17T08:18:01.569Z</time>
      </trkpt>
      <trkpt lat="44.26045" lon="0.85005">
        <ele>154</ele>
        <time>2025-08-17T08:18:02.569Z</time>
      </trkpt>
      <trkpt lat="44.26045" lon="0.85005">
        <ele>154</ele>
        <time>2025-08-17T08:18:03.569Z</time>
      </trkpt>
      <trkpt lat="44.26046" lon="0.85005">
        <ele>154</ele>
        <time>2025-08-17T08:18:04.569Z</time>
      </trkpt>
      <trkpt lat="44.26046" lon="0.85005">
        <ele>154</ele>
        <time>2025-08-17T08:18:05.569Z</time>
      </trkpt>
      <trkpt lat="44.26045" lon="0.85006">
        <ele>154</ele>
        <time>2025-08-17T08:18:06.569Z</time>
      </trkpt>
      <trkpt lat="44.26045" lon="0.85006">
        <ele>155</ele>
        <time>2025-08-17T08:18:07.569Z</time>
      </trkpt>
      <trkpt lat="44.26045" lon="0.85006">
        <ele>155</ele>
        <time>2025-08-17T08:18:08.569Z</time>
      </trkpt>
      <trkpt lat="44.26045" lon="0.85006">
        <ele>155</ele>
        <time>2025-08-17T08:18:09.569Z</time>
      </trkpt>
      <trkpt lat="44.26046" lon="0.85006">
        <ele>155</ele>
        <time>2025-08-17T08:18:10.569Z</time>
      </trkpt>
      <trkpt lat="44.26046" lon="0.85007">
        <ele>155</ele>
        <time>2025-08-17T08:18:11.569Z</time>
      </trkpt>
      <trkpt lat="44.26046" lon="0.85007">
        <ele>155</ele>
        <time>2025-08-17T08:18:12.569Z</time>
      </trkpt>
      <trkpt lat="44.26046" lon="0.85006">
        <ele>155</ele>
        <time>2025-08-17T08:18:13.569Z</time>
      </trkpt>
      <trkpt lat="44.26046" lon="0.85005">
        <ele>155</ele>
        <time>2025-08-17T08:18:14.569Z</time>
      </trkpt>
      <trkpt lat="44.26046" lon="0.85004">
        <ele>155</ele>
        <time>2025-08-17T08:18:15.569Z</time>
      </trkpt>
      <trkpt lat="44.26046" lon="0.85004">
        <ele>155</ele>
        <time>2025-08-17T08:18:16.569Z</time>
      </trkpt>
      <trkpt lat="44.26046" lon="0.85004">
        <ele>154</ele>
        <time>2025-08-17T08:18:17.569Z</time>
      </trkpt>
      <trkpt lat="44.26045" lon="0.85004">
        <ele>154</ele>
        <time>2025-08-17T08:18:18.569Z</time>
      </trkpt>
      <trkpt lat="44.26045" lon="0.85004">
        <ele>154</ele>
        <time>2025-08-17T08:18:19.569Z</time>
      </trkpt>
      <trkpt lat="44.26045" lon="0.85004">
        <ele>154</ele>
        <time>2025-08-17T08:18:20.569Z</time>
      </trkpt>
      <trkpt lat="44.26045" lon="0.85004">
        <ele>154</ele>
        <time>2025-08-17T08:18:21.569Z</time>
      </trkpt>
      <trkpt lat="44.26045" lon="0.85004">
        <ele>154</ele>
        <time>2025-08-17T08:18:22.569Z</time>
      </trkpt>
      <trkpt lat="44.26045" lon="0.85004">
        <ele>153</ele>
        <time>2025-08-17T08:18:23.569Z</time>
      </trkpt>
      <trkpt lat="44.26045" lon="0.85004">
        <ele>153</ele>
        <time>2025-08-17T08:18:24.569Z</time>
      </trkpt>
      <trkpt lat="44.26044" lon="0.85004">
        <ele>153</ele>
        <time>2025-08-17T08:18:25.569Z</time>
      </trkpt>
      <trkpt lat="44.26043" lon="0.85003">
        <ele>153</ele>
        <time>2025-08-17T08:18:26.569Z</time>
      </trkpt>
      <trkpt lat="44.26043" lon="0.85003">
        <ele>152</ele>
        <time>2025-08-17T08:18:27.569Z</time>
      </trkpt>
      <trkpt lat="44.26043" lon="0.85002">
        <ele>152</ele>
        <time>2025-08-17T08:18:28.569Z</time>
      </trkpt>
      <trkpt lat="44.26043" lon="0.85002">
        <ele>152</ele>
        <time>2025-08-17T08:18:29.569Z</time>
      </trkpt>
      <trkpt lat="44.26043" lon="0.85002">
        <ele>152</ele>
        <time>2025-08-17T08:18:30.569Z</time>
      </trkpt>
      <trkpt lat="44.26043" lon="0.85002">
        <ele>152</ele>
        <time>2025-08-17T08:18:31.569Z</time>
      </trkpt>
      <trkpt lat="44.26043" lon="0.85002">
        <ele>152</ele>
        <time>2025-08-17T08:18:32.569Z</time>
      </trkpt>
      <trkpt lat="44.26043" lon="0.85002">
        <ele>152</ele>
        <time>2025-08-17T08:18:33.569Z</time>
      </trkpt>
      <trkpt lat="44.26042" lon="0.85002">
        <ele>152</ele>
        <time>2025-08-17T08:18:34.569Z</time>
      </trkpt>
      <trkpt lat="44.26043" lon="0.85002">
        <ele>152</ele>
        <time>2025-08-17T08:18:35.569Z</time>
      </trkpt>
      <trkpt lat="44.26043" lon="0.85002">
        <ele>153</ele>
        <time>2025-08-17T08:18:36.569Z</time>
      </trkpt>
      <trkpt lat="44.26043" lon="0.85002">
        <ele>152</ele>
        <time>2025-08-17T08:18:37.569Z</time>
      </trkpt>
      <trkpt lat="44.26043" lon="0.85002">
        <ele>152</ele>
        <time>2025-08-17T08:18:38.569Z</time>
      </trkpt>
      <trkpt lat="44.26044" lon="0.85002">
        <ele>152</ele>
        <time>2025-08-17T08:18:39.569Z</time>
      </trkpt>
      <trkpt lat="44.26044" lon="0.85002">
        <ele>151</ele>
        <time>2025-08-17T08:18:40.569Z</time>
      </trkpt>
      <trkpt lat="44.26043" lon="0.85002">
        <ele>151</ele>
        <time>2025-08-17T08:18:41.569Z</time>
      </trkpt>
      <trkpt lat="44.26043" lon="0.85002">
        <ele>150</ele>
        <time>2025-08-17T08:18:42.569Z</time>
      </trkpt>
      <trkpt lat="44.26043" lon="0.85001">
        <ele>150</ele>
        <time>2025-08-17T08:18:43.569Z</time>
      </trkpt>
      <trkpt lat="44.26043" lon="0.85001">
        <ele>149</ele>
        <time>2025-08-17T08:18:44.569Z</time>
      </trkpt>
      <trkpt lat="44.26043" lon="0.85002">
        <ele>148</ele>
        <time>2025-08-17T08:18:45.569Z</time>
      </trkpt>
      <trkpt lat="44.26043" lon="0.85002">
        <ele>147</ele>
        <time>2025-08-17T08:18:46.569Z</time>
      </trkpt>
      <trkpt lat="44.26043" lon="0.85002">
        <ele>146</ele>
        <time>2025-08-17T08:18:47.569Z</time>
      </trkpt>
      <trkpt lat="44.26043" lon="0.85002">
        <ele>146</ele>
        <time>2025-08-17T08:18:48.569Z</time>
      </trkpt>
      <trkpt lat="44.26043" lon="0.85002">
        <ele>145</ele>
        <time>2025-08-17T08:18:49.569Z</time>
      </trkpt>
      <trkpt lat="44.26043" lon="0.85002">
        <ele>145</ele>
        <time>2025-08-17T08:18:50.569Z</time>
      </trkpt>
      <trkpt lat="44.26043" lon="0.85002">
        <ele>144</ele>
        <time>2025-08-17T08:18:51.569Z</time>
      </trkpt>
      <trkpt lat="44.26043" lon="0.85002">
        <ele>144</ele>
        <time>2025-08-17T08:18:52.569Z</time>
      </trkpt>
      <trkpt lat="44.26043" lon="0.85002">
        <ele>143</ele>
        <time>2025-08-17T08:18:53.569Z</time>
      </trkpt>
      <trkpt lat="44.26043" lon="0.85002">
        <ele>143</ele>
        <time>2025-08-17T08:18:54.569Z</time>
      </trkpt>
      <trkpt lat="44.26043" lon="0.85002">
        <ele>142</ele>
        <time>2025-08-17T08:18:55.569Z</time>
      </trkpt>
      <trkpt lat="44.26043" lon="0.85002">
        <ele>142</ele>
        <time>2025-08-17T08:18:56.569Z</time>
      </trkpt>
      <trkpt lat="44.26043" lon="0.85003">
        <ele>142</ele>
        <time>2025-08-17T08:18:57.569Z</time>
      </trkpt>
      <trkpt lat="44.26043" lon="0.85003">
        <ele>142</ele>
        <time>2025-08-17T08:18:58.569Z</time>
      </trkpt>
      <trkpt lat="44.26043" lon="0.85003">
        <ele>142</ele>
        <time>2025-08-17T08:18:59.569Z</time>
      </trkpt>
      <trkpt lat="44.26043" lon="0.85003">
        <ele>142</ele>
        <time>2025-08-17T08:19:00.569Z</time>
      </trkpt>
      <trkpt lat="44.26043" lon="0.85003">
        <ele>143</ele>
        <time>2025-08-17T08:19:01.569Z</time>
      </trkpt>
      <trkpt lat="44.26043" lon="0.85003">
        <ele>144</ele>
        <time>2025-08-17T08:19:02.569Z</time>
      </trkpt>
      <trkpt lat="44.26043" lon="0.85003">
        <ele>145</ele>
        <time>2025-08-17T08:19:03.569Z</time>
      </trkpt>
      <trkpt lat="44.26043" lon="0.85003">
        <ele>145</ele>
        <time>2025-08-17T08:19:04.569Z</time>
      </trkpt>
      <trkpt lat="44.26043" lon="0.85003">
        <ele>146</ele>
        <time>2025-08-17T08:19:05.569Z</time>
      </trkpt>
      <trkpt lat="44.26043" lon="0.85003">
        <ele>146</ele>
        <time>2025-08-17T08:19:06.569Z</time>
      </trkpt>
      <trkpt lat="44.26043" lon="0.85003">
        <ele>147</ele>
        <time>2025-08-17T08:19:07.569Z</time>
      </trkpt>
      <trkpt lat="44.26043" lon="0.85003">
        <ele>147</ele>
        <time>2025-08-17T08:19:08.569Z</time>
      </trkpt>
      <trkpt lat="44.26043" lon="0.85003">
        <ele>147</ele>
        <time>2025-08-17T08:19:09.569Z</time>
      </trkpt>
      <trkpt lat="44.26043" lon="0.85003">
        <ele>147</ele>
        <time>2025-08-17T08:19:10.569Z</time>
      </trkpt>
      <trkpt lat="44.26043" lon="0.85003">
        <ele>147</ele>
        <time>2025-08-17T08:19:11.569Z</time>
      </trkpt>
      <trkpt lat="44.26043" lon="0.85003">
        <ele>148</ele>
        <time>2025-08-17T08:19:12.569Z</time>
      </trkpt>
      <trkpt lat="44.26044" lon="0.85003">
        <ele>148</ele>
        <time>2025-08-17T08:19:13.569Z</time>
      </trkpt>
      <trkpt lat="44.26043" lon="0.85003">
        <ele>148</ele>
        <time>2025-08-17T08:19:14.569Z</time>
      </trkpt>
      <trkpt lat="44.26043" lon="0.85003">
        <ele>148</ele>
        <time>2025-08-17T08:19:15.569Z</time>
      </trkpt>
      <trkpt lat="44.26042" lon="0.85003">
        <ele>148</ele>
        <time>2025-08-17T08:19:16.569Z</time>
      </trkpt>
      <trkpt lat="44.26042" lon="0.85003">
        <ele>147</ele>
        <time>2025-08-17T08:19:17.569Z</time>
      </trkpt>
      <trkpt lat="44.26041" lon="0.85003">
        <ele>147</ele>
        <time>2025-08-17T08:19:18.569Z</time>
      </trkpt>
      <trkpt lat="44.26041" lon="0.85002">
        <ele>147</ele>
        <time>2025-08-17T08:19:19.569Z</time>
      </trkpt>
      <trkpt lat="44.26041" lon="0.85002">
        <ele>147</ele>
        <time>2025-08-17T08:19:20.569Z</time>
      </trkpt>
      <trkpt lat="44.26041" lon="0.85002">
        <ele>147</ele>
        <time>2025-08-17T08:19:21.569Z</time>
      </trkpt>
      <trkpt lat="44.2604" lon="0.85003">
        <ele>147</ele>
        <time>2025-08-17T08:19:22.569Z</time>
      </trkpt>
      <trkpt lat="44.2604" lon="0.85003">
        <ele>148</ele>
        <time>2025-08-17T08:19:23.569Z</time>
      </trkpt>
      <trkpt lat="44.2604" lon="0.85003">
        <ele>148</ele>
        <time>2025-08-17T08:19:24.569Z</time>
      </trkpt>
      <trkpt lat="44.2604" lon="0.85003">
        <ele>148</ele>
        <time>2025-08-17T08:19:25.569Z</time>
      </trkpt>
      <trkpt lat="44.2604" lon="0.85003">
        <ele>148</ele>
        <time>2025-08-17T08:19:26.569Z</time>
      </trkpt>
      <trkpt lat="44.2604" lon="0.85004">
        <ele>148</ele>
        <time>2025-08-17T08:19:27.569Z</time>
      </trkpt>
      <trkpt lat="44.2604" lon="0.85004">
        <ele>148</ele>
        <time>2025-08-17T08:19:28.569Z</time>
      </trkpt>
      <trkpt lat="44.2604" lon="0.85004">
        <ele>148</ele>
        <time>2025-08-17T08:19:29.569Z</time>
      </trkpt>
      <trkpt lat="44.26041" lon="0.85004">
        <ele>147</ele>
        <time>2025-08-17T08:19:30.569Z</time>
      </trkpt>
      <trkpt lat="44.26041" lon="0.85005">
        <ele>147</ele>
        <time>2025-08-17T08:19:31.569Z</time>
      </trkpt>
      <trkpt lat="44.26041" lon="0.85005">
        <ele>147</ele>
        <time>2025-08-17T08:19:32.569Z</time>
      </trkpt>
      <trkpt lat="44.26041" lon="0.85005">
        <ele>147</ele>
        <time>2025-08-17T08:19:33.569Z</time>
      </trkpt>
      <trkpt lat="44.26041" lon="0.85005">
        <ele>147</ele>
        <time>2025-08-17T08:19:34.569Z</time>
      </trkpt>
      <trkpt lat="44.26041" lon="0.85005">
        <ele>147</ele>
        <time>2025-08-17T08:19:35.569Z</time>
      </trkpt>
      <trkpt lat="44.26041" lon="0.85004">
        <ele>147</ele>
        <time>2025-08-17T08:19:36.569Z</time>
      </trkpt>
      <trkpt lat="44.26041" lon="0.85004">
        <ele>147</ele>
        <time>2025-08-17T08:19:37.569Z</time>
      </trkpt>
      <trkpt lat="44.26041" lon="0.85003">
        <ele>147</ele>
        <time>2025-08-17T08:19:38.569Z</time>
      </trkpt>
      <trkpt lat="44.26041" lon="0.85003">
        <ele>147</ele>
        <time>2025-08-17T08:19:39.569Z</time>
      </trkpt>
      <trkpt lat="44.2604" lon="0.85003">
        <ele>148</ele>
        <time>2025-08-17T08:19:40.569Z</time>
      </trkpt>
      <trkpt lat="44.2604" lon="0.85003">
        <ele>148</ele>
        <time>2025-08-17T08:19:41.569Z</time>
      </trkpt>
      <trkpt lat="44.2604" lon="0.85003">
        <ele>149</ele>
        <time>2025-08-17T08:19:42.569Z</time>
      </trkpt>
      <trkpt lat="44.2604" lon="0.85003">
        <ele>149</ele>
        <time>2025-08-17T08:19:43.569Z</time>
      </trkpt>
      <trkpt lat="44.2604" lon="0.85003">
        <ele>149</ele>
        <time>2025-08-17T08:19:44.569Z</time>
      </trkpt>
      <trkpt lat="44.2604" lon="0.85003">
        <ele>150</ele>
        <time>2025-08-17T08:19:45.569Z</time>
      </trkpt>
      <trkpt lat="44.2604" lon="0.85003">
        <ele>150</ele>
        <time>2025-08-17T08:19:46.569Z</time>
      </trkpt>
      <trkpt lat="44.2604" lon="0.85003">
        <ele>151</ele>
        <time>2025-08-17T08:19:47.569Z</time>
      </trkpt>
      <trkpt lat="44.2604" lon="0.85003">
        <ele>151</ele>
        <time>2025-08-17T08:19:48.569Z</time>
      </trkpt>
      <trkpt lat="44.2604" lon="0.85003">
        <ele>152</ele>
        <time>2025-08-17T08:19:49.569Z</time>
      </trkpt>
      <trkpt lat="44.2604" lon="0.85002">
        <ele>152</ele>
        <time>2025-08-17T08:19:50.569Z</time>
      </trkpt>
      <trkpt lat="44.2604" lon="0.85002">
        <ele>152</ele>
        <time>2025-08-17T08:19:51.569Z</time>
      </trkpt>
      <trkpt lat="44.2604" lon="0.85002">
        <ele>153</ele>
        <time>2025-08-17T08:19:52.569Z</time>
      </trkpt>
      <trkpt lat="44.2604" lon="0.85002">
        <ele>153</ele>
        <time>2025-08-17T08:19:53.569Z</time>
      </trkpt>
      <trkpt lat="44.2604" lon="0.85001">
        <ele>153</ele>
        <time>2025-08-17T08:19:54.569Z</time>
      </trkpt>
      <trkpt lat="44.2604" lon="0.85">
        <ele>154</ele>
        <time>2025-08-17T08:19:55.569Z</time>
      </trkpt>
      <trkpt lat="44.2604" lon="0.85">
        <ele>154</ele>
        <time>2025-08-17T08:19:56.569Z</time>
      </trkpt>
      <trkpt lat="44.2604" lon="0.85">
        <ele>154</ele>
        <time>2025-08-17T08:19:57.569Z</time>
      </trkpt>
      <trkpt lat="44.2604" lon="0.85">
        <ele>154</ele>
        <time>2025-08-17T08:19:58.569Z</time>
      </trkpt>
      <trkpt lat="44.2604" lon="0.85">
        <ele>154</ele>
        <time>2025-08-17T08:19:59.569Z</time>
      </trkpt>
      <trkpt lat="44.2604" lon="0.85">
        <ele>154</ele>
        <time>2025-08-17T08:20:00.569Z</time>
      </trkpt>
      <trkpt lat="44.2604" lon="0.85">
        <ele>153</ele>
        <time>2025-08-17T08:20:01.569Z</time>
      </trkpt>
      <trkpt lat="44.2604" lon="0.84999">
        <ele>153</ele>
        <time>2025-08-17T08:20:02.569Z</time>
      </trkpt>
      <trkpt lat="44.2604" lon="0.84999">
        <ele>153</ele>
        <time>2025-08-17T08:20:03.569Z</time>
      </trkpt>
      <trkpt lat="44.2604" lon="0.84999">
        <ele>153</ele>
        <time>2025-08-17T08:20:04.569Z</time>
      </trkpt>
      <trkpt lat="44.2604" lon="0.84999">
        <ele>152</ele>
        <time>2025-08-17T08:20:05.569Z</time>
      </trkpt>
      <trkpt lat="44.2604" lon="0.84999">
        <ele>152</ele>
        <time>2025-08-17T08:20:06.569Z</time>
      </trkpt>
      <trkpt lat="44.2604" lon="0.84999">
        <ele>152</ele>
        <time>2025-08-17T08:20:07.569Z</time>
      </trkpt>
      <trkpt lat="44.2604" lon="0.84999">
        <ele>152</ele>
        <time>2025-08-17T08:20:08.569Z</time>
      </trkpt>
      <trkpt lat="44.2604" lon="0.84999">
        <ele>152</ele>
        <time>2025-08-17T08:20:09.569Z</time>
      </trkpt>
      <trkpt lat="44.2604" lon="0.84999">
        <ele>152</ele>
        <time>2025-08-17T08:20:10.569Z</time>
      </trkpt>
      <trkpt lat="44.2604" lon="0.84999">
        <ele>152</ele>
        <time>2025-08-17T08:20:11.569Z</time>
      </trkpt>
      <trkpt lat="44.2604" lon="0.84999">
        <ele>152</ele>
        <time>2025-08-17T08:20:12.569Z</time>
      </trkpt>
      <trkpt lat="44.26039" lon="0.84999">
        <ele>153</ele>
        <time>2025-08-17T08:20:13.569Z</time>
      </trkpt>
      <trkpt lat="44.26039" lon="0.84999">
        <ele>153</ele>
        <time>2025-08-17T08:20:14.569Z</time>
      </trkpt>
      <trkpt lat="44.26038" lon="0.84999">
        <ele>153</ele>
        <time>2025-08-17T08:20:15.569Z</time>
      </trkpt>
      <trkpt lat="44.26038" lon="0.84998">
        <ele>154</ele>
        <time>2025-08-17T08:20:16.569Z</time>
      </trkpt>
      <trkpt lat="44.26038" lon="0.84998">
        <ele>154</ele>
        <time>2025-08-17T08:20:17.569Z</time>
      </trkpt>
      <trkpt lat="44.26037" lon="0.84998">
        <ele>155</ele>
        <time>2025-08-17T08:20:18.569Z</time>
      </trkpt>
      <trkpt lat="44.26037" lon="0.84997">
        <ele>155</ele>
        <time>2025-08-17T08:20:19.569Z</time>
      </trkpt>
      <trkpt lat="44.26037" lon="0.84996">
        <ele>155</ele>
        <time>2025-08-17T08:20:20.569Z</time>
      </trkpt>
      <trkpt lat="44.26037" lon="0.84995">
        <ele>155</ele>
        <time>2025-08-17T08:20:21.569Z</time>
      </trkpt>
      <trkpt lat="44.26036" lon="0.84995">
        <ele>154</ele>
        <time>2025-08-17T08:20:22.569Z</time>
      </trkpt>
      <trkpt lat="44.26036" lon="0.84994">
        <ele>154</ele>
        <time>2025-08-17T08:20:23.569Z</time>
      </trkpt>
      <trkpt lat="44.26035" lon="0.84993">
        <ele>154</ele>
        <time>2025-08-17T08:20:24.569Z</time>
      </trkpt>
      <trkpt lat="44.26034" lon="0.84992">
        <ele>153</ele>
        <time>2025-08-17T08:20:25.569Z</time>
      </trkpt>
      <trkpt lat="44.26033" lon="0.84991">
        <ele>153</ele>
        <time>2025-08-17T08:20:26.569Z</time>
      </trkpt>
      <trkpt lat="44.26033" lon="0.8499">
        <ele>153</ele>
        <time>2025-08-17T08:20:27.569Z</time>
      </trkpt>
      <trkpt lat="44.26032" lon="0.8499">
        <ele>153</ele>
        <time>2025-08-17T08:20:28.569Z</time>
      </trkpt>
      <trkpt lat="44.26032" lon="0.8499">
        <ele>152</ele>
        <time>2025-08-17T08:20:29.569Z</time>
      </trkpt>
      <trkpt lat="44.26032" lon="0.8499">
        <ele>152</ele>
        <time>2025-08-17T08:20:30.569Z</time>
      </trkpt>
      <trkpt lat="44.26031" lon="0.8499">
        <ele>151</ele>
        <time>2025-08-17T08:20:31.569Z</time>
      </trkpt>
      <trkpt lat="44.26031" lon="0.84989">
        <ele>151</ele>
        <time>2025-08-17T08:20:32.569Z</time>
      </trkpt>
      <trkpt lat="44.26031" lon="0.84989">
        <ele>151</ele>
        <time>2025-08-17T08:20:33.569Z</time>
      </trkpt>
      <trkpt lat="44.2603" lon="0.84989">
        <ele>151</ele>
        <time>2025-08-17T08:20:34.569Z</time>
      </trkpt>
      <trkpt lat="44.26029" lon="0.84988">
        <ele>150</ele>
        <time>2025-08-17T08:20:35.569Z</time>
      </trkpt>
      <trkpt lat="44.26029" lon="0.84988">
        <ele>150</ele>
        <time>2025-08-17T08:20:36.569Z</time>
      </trkpt>
      <trkpt lat="44.26028" lon="0.84987">
        <ele>149</ele>
        <time>2025-08-17T08:20:37.569Z</time>
      </trkpt>
      <trkpt lat="44.26028" lon="0.84986">
        <ele>148</ele>
        <time>2025-08-17T08:20:38.569Z</time>
      </trkpt>
      <trkpt lat="44.26027" lon="0.84985">
        <ele>148</ele>
        <time>2025-08-17T08:20:39.569Z</time>
      </trkpt>
      <trkpt lat="44.26027" lon="0.84985">
        <ele>147</ele>
        <time>2025-08-17T08:20:40.569Z</time>
      </trkpt>
      <trkpt lat="44.26027" lon="0.84985">
        <ele>146</ele>
        <time>2025-08-17T08:20:41.569Z</time>
      </trkpt>
      <trkpt lat="44.26027" lon="0.84984">
        <ele>146</ele>
        <time>2025-08-17T08:20:42.569Z</time>
      </trkpt>
      <trkpt lat="44.26027" lon="0.84984">
        <ele>145</ele>
        <time>2025-08-17T08:20:43.569Z</time>
      </trkpt>
      <trkpt lat="44.26027" lon="0.84984">
        <ele>145</ele>
        <time>2025-08-17T08:20:44.569Z</time>
      </trkpt>
      <trkpt lat="44.26026" lon="0.84983">
        <ele>145</ele>
        <time>2025-08-17T08:20:45.569Z</time>
      </trkpt>
      <trkpt lat="44.26025" lon="0.84982">
        <ele>145</ele>
        <time>2025-08-17T08:20:46.569Z</time>
      </trkpt>
      <trkpt lat="44.26025" lon="0.84982">
        <ele>145</ele>
        <time>2025-08-17T08:20:47.569Z</time>
      </trkpt>
      <trkpt lat="44.26024" lon="0.84981">
        <ele>146</ele>
        <time>2025-08-17T08:20:48.569Z</time>
      </trkpt>
      <trkpt lat="44.26024" lon="0.8498">
        <ele>146</ele>
        <time>2025-08-17T08:20:49.569Z</time>
      </trkpt>
      <trkpt lat="44.26022" lon="0.84978">
        <ele>146</ele>
        <time>2025-08-17T08:20:50.569Z</time>
      </trkpt>
      <trkpt lat="44.26021" lon="0.84978">
        <ele>146</ele>
        <time>2025-08-17T08:20:51.569Z</time>
      </trkpt>
      <trkpt lat="44.26021" lon="0.84978">
        <ele>146</ele>
        <time>2025-08-17T08:20:52.569Z</time>
      </trkpt>
      <trkpt lat="44.2602" lon="0.84977">
        <ele>147</ele>
        <time>2025-08-17T08:20:53.569Z</time>
      </trkpt>
      <trkpt lat="44.26019" lon="0.84976">
        <ele>147</ele>
        <time>2025-08-17T08:20:54.569Z</time>
      </trkpt>
      <trkpt lat="44.26019" lon="0.84976">
        <ele>147</ele>
        <time>2025-08-17T08:20:55.569Z</time>
      </trkpt>
      <trkpt lat="44.26018" lon="0.84975">
        <ele>147</ele>
        <time>2025-08-17T08:20:56.569Z</time>
      </trkpt>
      <trkpt lat="44.26018" lon="0.84974">
        <ele>147</ele>
        <time>2025-08-17T08:20:57.569Z</time>
      </trkpt>
      <trkpt lat="44.26017" lon="0.84973">
        <ele>147</ele>
        <time>2025-08-17T08:20:58.569Z</time>
      </trkpt>
      <trkpt lat="44.26017" lon="0.84972">
        <ele>147</ele>
        <time>2025-08-17T08:20:59.569Z</time>
      </trkpt>
      <trkpt lat="44.26017" lon="0.84971">
        <ele>147</ele>
        <time>2025-08-17T08:21:00.569Z</time>
      </trkpt>
      <trkpt lat="44.26016" lon="0.8497">
        <ele>147</ele>
        <time>2025-08-17T08:21:01.569Z</time>
      </trkpt>
      <trkpt lat="44.26015" lon="0.84969">
        <ele>147</ele>
        <time>2025-08-17T08:21:02.569Z</time>
      </trkpt>
      <trkpt lat="44.26014" lon="0.84968">
        <ele>147</ele>
        <time>2025-08-17T08:21:03.569Z</time>
      </trkpt>
      <trkpt lat="44.26014" lon="0.84967">
        <ele>147</ele>
        <time>2025-08-17T08:21:04.569Z</time>
      </trkpt>
      <trkpt lat="44.26013" lon="0.84967">
        <ele>147</ele>
        <time>2025-08-17T08:21:05.569Z</time>
      </trkpt>
      <trkpt lat="44.26012" lon="0.84966">
        <ele>147</ele>
        <time>2025-08-17T08:21:06.569Z</time>
      </trkpt>
      <trkpt lat="44.26011" lon="0.84965">
        <ele>147</ele>
        <time>2025-08-17T08:21:07.569Z</time>
      </trkpt>
      <trkpt lat="44.2601" lon="0.84965">
        <ele>147</ele>
        <time>2025-08-17T08:21:08.569Z</time>
      </trkpt>
      <trkpt lat="44.2601" lon="0.84964">
        <ele>146</ele>
        <time>2025-08-17T08:21:09.569Z</time>
      </trkpt>
      <trkpt lat="44.26009" lon="0.84964">
        <ele>146</ele>
        <time>2025-08-17T08:21:10.569Z</time>
      </trkpt>
      <trkpt lat="44.26008" lon="0.84963">
        <ele>146</ele>
        <time>2025-08-17T08:21:11.569Z</time>
      </trkpt>
      <trkpt lat="44.26007" lon="0.84962">
        <ele>146</ele>
        <time>2025-08-17T08:21:12.569Z</time>
      </trkpt>
      <trkpt lat="44.26007" lon="0.8496">
        <ele>146</ele>
        <time>2025-08-17T08:21:13.569Z</time>
      </trkpt>
      <trkpt lat="44.26006" lon="0.8496">
        <ele>146</ele>
        <time>2025-08-17T08:21:14.569Z</time>
      </trkpt>
      <trkpt lat="44.26006" lon="0.84959">
        <ele>145</ele>
        <time>2025-08-17T08:21:15.569Z</time>
      </trkpt>
      <trkpt lat="44.26006" lon="0.84958">
        <ele>145</ele>
        <time>2025-08-17T08:21:16.569Z</time>
      </trkpt>
      <trkpt lat="44.26005" lon="0.84958">
        <ele>145</ele>
        <time>2025-08-17T08:21:17.569Z</time>
      </trkpt>
      <trkpt lat="44.26006" lon="0.84957">
        <ele>145</ele>
        <time>2025-08-17T08:21:18.569Z</time>
      </trkpt>
      <trkpt lat="44.26005" lon="0.84957">
        <ele>145</ele>
        <time>2025-08-17T08:21:19.569Z</time>
      </trkpt>
      <trkpt lat="44.26004" lon="0.84956">
        <ele>145</ele>
        <time>2025-08-17T08:21:20.569Z</time>
      </trkpt>
      <trkpt lat="44.26004" lon="0.84955">
        <ele>145</ele>
        <time>2025-08-17T08:21:21.569Z</time>
      </trkpt>
      <trkpt lat="44.26003" lon="0.84955">
        <ele>146</ele>
        <time>2025-08-17T08:21:22.569Z</time>
      </trkpt>
      <trkpt lat="44.26003" lon="0.84955">
        <ele>146</ele>
        <time>2025-08-17T08:21:23.569Z</time>
      </trkpt>
      <trkpt lat="44.26002" lon="0.84954">
        <ele>146</ele>
        <time>2025-08-17T08:21:24.569Z</time>
      </trkpt>
      <trkpt lat="44.25999" lon="0.84951">
        <ele>145</ele>
        <time>2025-08-17T08:21:25.569Z</time>
      </trkpt>
      <trkpt lat="44.25998" lon="0.84949">
        <ele>145</ele>
        <time>2025-08-17T08:21:26.569Z</time>
      </trkpt>
      <trkpt lat="44.25997" lon="0.84947">
        <ele>145</ele>
        <time>2025-08-17T08:21:27.569Z</time>
      </trkpt>
      <trkpt lat="44.25997" lon="0.84947">
        <ele>145</ele>
        <time>2025-08-17T08:21:28.569Z</time>
      </trkpt>
      <trkpt lat="44.25996" lon="0.84946">
        <ele>146</ele>
        <time>2025-08-17T08:21:29.569Z</time>
      </trkpt>
      <trkpt lat="44.25995" lon="0.84946">
        <ele>146</ele>
        <time>2025-08-17T08:21:30.569Z</time>
      </trkpt>
      <trkpt lat="44.25994" lon="0.84945">
        <ele>146</ele>
        <time>2025-08-17T08:21:31.569Z</time>
      </trkpt>
      <trkpt lat="44.25994" lon="0.84945">
        <ele>146</ele>
        <time>2025-08-17T08:21:32.569Z</time>
      </trkpt>
      <trkpt lat="44.25994" lon="0.84943">
        <ele>146</ele>
        <time>2025-08-17T08:21:33.569Z</time>
      </trkpt>
      <trkpt lat="44.25994" lon="0.84942">
        <ele>146</ele>
        <time>2025-08-17T08:21:34.569Z</time>
      </trkpt>
      <trkpt lat="44.25994" lon="0.84942">
        <ele>146</ele>
        <time>2025-08-17T08:21:35.569Z</time>
      </trkpt>
      <trkpt lat="44.25995" lon="0.84942">
        <ele>145</ele>
        <time>2025-08-17T08:21:36.569Z</time>
      </trkpt>
      <trkpt lat="44.25994" lon="0.84941">
        <ele>145</ele>
        <time>2025-08-17T08:21:37.569Z</time>
      </trkpt>
      <trkpt lat="44.25994" lon="0.8494">
        <ele>145</ele>
        <time>2025-08-17T08:21:38.569Z</time>
      </trkpt>
      <trkpt lat="44.25993" lon="0.84939">
        <ele>145</ele>
        <time>2025-08-17T08:21:39.569Z</time>
      </trkpt>
      <trkpt lat="44.25992" lon="0.84939">
        <ele>145</ele>
        <time>2025-08-17T08:21:40.569Z</time>
      </trkpt>
      <trkpt lat="44.25992" lon="0.84938">
        <ele>145</ele>
        <time>2025-08-17T08:21:41.569Z</time>
      </trkpt>
      <trkpt lat="44.25992" lon="0.84937">
        <ele>145</ele>
        <time>2025-08-17T08:21:42.569Z</time>
      </trkpt>
      <trkpt lat="44.25991" lon="0.84935">
        <ele>144</ele>
        <time>2025-08-17T08:21:43.569Z</time>
      </trkpt>
      <trkpt lat="44.2599" lon="0.84935">
        <ele>144</ele>
        <time>2025-08-17T08:21:44.569Z</time>
      </trkpt>
      <trkpt lat="44.2599" lon="0.84935">
        <ele>143</ele>
        <time>2025-08-17T08:21:45.569Z</time>
      </trkpt>
      <trkpt lat="44.25989" lon="0.84934">
        <ele>143</ele>
        <time>2025-08-17T08:21:46.569Z</time>
      </trkpt>
      <trkpt lat="44.25989" lon="0.84934">
        <ele>143</ele>
        <time>2025-08-17T08:21:47.569Z</time>
      </trkpt>
      <trkpt lat="44.25988" lon="0.84933">
        <ele>143</ele>
        <time>2025-08-17T08:21:48.569Z</time>
      </trkpt>
      <trkpt lat="44.25988" lon="0.84933">
        <ele>142</ele>
        <time>2025-08-17T08:21:49.569Z</time>
      </trkpt>
      <trkpt lat="44.25987" lon="0.84933">
        <ele>142</ele>
        <time>2025-08-17T08:21:50.569Z</time>
      </trkpt>
      <trkpt lat="44.25987" lon="0.84932">
        <ele>142</ele>
        <time>2025-08-17T08:21:51.569Z</time>
      </trkpt>
      <trkpt lat="44.25986" lon="0.84931">
        <ele>142</ele>
        <time>2025-08-17T08:21:52.569Z</time>
      </trkpt>
      <trkpt lat="44.25985" lon="0.84931">
        <ele>142</ele>
        <time>2025-08-17T08:21:53.569Z</time>
      </trkpt>
      <trkpt lat="44.25984" lon="0.84929">
        <ele>141</ele>
        <time>2025-08-17T08:21:54.569Z</time>
      </trkpt>
      <trkpt lat="44.25984" lon="0.84928">
        <ele>141</ele>
        <time>2025-08-17T08:21:55.569Z</time>
      </trkpt>
      <trkpt lat="44.25984" lon="0.84927">
        <ele>141</ele>
        <time>2025-08-17T08:21:56.569Z</time>
      </trkpt>
      <trkpt lat="44.25983" lon="0.84926">
        <ele>140</ele>
        <time>2025-08-17T08:21:57.569Z</time>
      </trkpt>
      <trkpt lat="44.25982" lon="0.84925">
        <ele>140</ele>
        <time>2025-08-17T08:21:58.569Z</time>
      </trkpt>
      <trkpt lat="44.25982" lon="0.84924">
        <ele>140</ele>
        <time>2025-08-17T08:21:59.569Z</time>
      </trkpt>
      <trkpt lat="44.25982" lon="0.84924">
        <ele>140</ele>
        <time>2025-08-17T08:22:00.569Z</time>
      </trkpt>
      <trkpt lat="44.25981" lon="0.84923">
        <ele>140</ele>
        <time>2025-08-17T08:22:01.569Z</time>
      </trkpt>
      <trkpt lat="44.2598" lon="0.84922">
        <ele>140</ele>
        <time>2025-08-17T08:22:02.569Z</time>
      </trkpt>
      <trkpt lat="44.2598" lon="0.84921">
        <ele>140</ele>
        <time>2025-08-17T08:22:03.569Z</time>
      </trkpt>
      <trkpt lat="44.25979" lon="0.8492">
        <ele>139</ele>
        <time>2025-08-17T08:22:04.569Z</time>
      </trkpt>
      <trkpt lat="44.25979" lon="0.84919">
        <ele>139</ele>
        <time>2025-08-17T08:22:05.569Z</time>
      </trkpt>
      <trkpt lat="44.25979" lon="0.84919">
        <ele>139</ele>
        <time>2025-08-17T08:22:06.569Z</time>
      </trkpt>
      <trkpt lat="44.25979" lon="0.84919">
        <ele>139</ele>
        <time>2025-08-17T08:22:07.569Z</time>
      </trkpt>
      <trkpt lat="44.25978" lon="0.84918">
        <ele>138</ele>
        <time>2025-08-17T08:22:08.569Z</time>
      </trkpt>
      <trkpt lat="44.25978" lon="0.84917">
        <ele>138</ele>
        <time>2025-08-17T08:22:09.569Z</time>
      </trkpt>
      <trkpt lat="44.25977" lon="0.84917">
        <ele>137</ele>
        <time>2025-08-17T08:22:10.569Z</time>
      </trkpt>
      <trkpt lat="44.25976" lon="0.84916">
        <ele>137</ele>
        <time>2025-08-17T08:22:11.569Z</time>
      </trkpt>
      <trkpt lat="44.25976" lon="0.84915">
        <ele>137</ele>
        <time>2025-08-17T08:22:12.569Z</time>
      </trkpt>
      <trkpt lat="44.25975" lon="0.84916">
        <ele>136</ele>
        <time>2025-08-17T08:22:13.569Z</time>
      </trkpt>
      <trkpt lat="44.25974" lon="0.84915">
        <ele>135</ele>
        <time>2025-08-17T08:22:14.569Z</time>
      </trkpt>
      <trkpt lat="44.25973" lon="0.84914">
        <ele>135</ele>
        <time>2025-08-17T08:22:15.569Z</time>
      </trkpt>
      <trkpt lat="44.25972" lon="0.84914">
        <ele>135</ele>
        <time>2025-08-17T08:22:16.569Z</time>
      </trkpt>
      <trkpt lat="44.25972" lon="0.84913">
        <ele>135</ele>
        <time>2025-08-17T08:22:17.569Z</time>
      </trkpt>
      <trkpt lat="44.25971" lon="0.84912">
        <ele>135</ele>
        <time>2025-08-17T08:22:18.569Z</time>
      </trkpt>
      <trkpt lat="44.2597" lon="0.84912">
        <ele>135</ele>
        <time>2025-08-17T08:22:19.569Z</time>
      </trkpt>
      <trkpt lat="44.25969" lon="0.84911">
        <ele>135</ele>
        <time>2025-08-17T08:22:20.569Z</time>
      </trkpt>
      <trkpt lat="44.25968" lon="0.84911">
        <ele>135</ele>
        <time>2025-08-17T08:22:21.569Z</time>
      </trkpt>
      <trkpt lat="44.25967" lon="0.84911">
        <ele>136</ele>
        <time>2025-08-17T08:22:22.569Z</time>
      </trkpt>
      <trkpt lat="44.25966" lon="0.8491">
        <ele>136</ele>
        <time>2025-08-17T08:22:23.569Z</time>
      </trkpt>
      <trkpt lat="44.25965" lon="0.8491">
        <ele>137</ele>
        <time>2025-08-17T08:22:24.569Z</time>
      </trkpt>
      <trkpt lat="44.25963" lon="0.84909">
        <ele>137</ele>
        <time>2025-08-17T08:22:25.569Z</time>
      </trkpt>
      <trkpt lat="44.25963" lon="0.84909">
        <ele>138</ele>
        <time>2025-08-17T08:22:26.569Z</time>
      </trkpt>
      <trkpt lat="44.25962" lon="0.84909">
        <ele>138</ele>
        <time>2025-08-17T08:22:27.569Z</time>
      </trkpt>
      <trkpt lat="44.25961" lon="0.84909">
        <ele>139</ele>
        <time>2025-08-17T08:22:28.569Z</time>
      </trkpt>
      <trkpt lat="44.2596" lon="0.84909">
        <ele>139</ele>
        <time>2025-08-17T08:22:29.569Z</time>
      </trkpt>
      <trkpt lat="44.2596" lon="0.84908">
        <ele>139</ele>
        <time>2025-08-17T08:22:30.569Z</time>
      </trkpt>
      <trkpt lat="44.25959" lon="0.84908">
        <ele>139</ele>
        <time>2025-08-17T08:22:31.569Z</time>
      </trkpt>
      <trkpt lat="44.25958" lon="0.84909">
        <ele>139</ele>
        <time>2025-08-17T08:22:32.569Z</time>
      </trkpt>
      <trkpt lat="44.25958" lon="0.8491">
        <ele>138</ele>
        <time>2025-08-17T08:22:33.569Z</time>
      </trkpt>
      <trkpt lat="44.25957" lon="0.84909">
        <ele>138</ele>
        <time>2025-08-17T08:22:34.569Z</time>
      </trkpt>
      <trkpt lat="44.25957" lon="0.84911">
        <ele>137</ele>
        <time>2025-08-17T08:22:35.569Z</time>
      </trkpt>
      <trkpt lat="44.25957" lon="0.8491">
        <ele>137</ele>
        <time>2025-08-17T08:22:36.569Z</time>
      </trkpt>
      <trkpt lat="44.25956" lon="0.84909">
        <ele>136</ele>
        <time>2025-08-17T08:22:37.569Z</time>
      </trkpt>
      <trkpt lat="44.25955" lon="0.84907">
        <ele>135</ele>
        <time>2025-08-17T08:22:38.569Z</time>
      </trkpt>
      <trkpt lat="44.25955" lon="0.84906">
        <ele>135</ele>
        <time>2025-08-17T08:22:39.569Z</time>
      </trkpt>
      <trkpt lat="44.25954" lon="0.84905">
        <ele>135</ele>
        <time>2025-08-17T08:22:40.569Z</time>
      </trkpt>
      <trkpt lat="44.25954" lon="0.84905">
        <ele>134</ele>
        <time>2025-08-17T08:22:41.569Z</time>
      </trkpt>
      <trkpt lat="44.25954" lon="0.84905">
        <ele>134</ele>
        <time>2025-08-17T08:22:42.569Z</time>
      </trkpt>
      <trkpt lat="44.25954" lon="0.84905">
        <ele>134</ele>
        <time>2025-08-17T08:22:43.569Z</time>
      </trkpt>
      <trkpt lat="44.25953" lon="0.84905">
        <ele>134</ele>
        <time>2025-08-17T08:22:44.569Z</time>
      </trkpt>
      <trkpt lat="44.25953" lon="0.84905">
        <ele>133</ele>
        <time>2025-08-17T08:22:45.569Z</time>
      </trkpt>
      <trkpt lat="44.25952" lon="0.84906">
        <ele>133</ele>
        <time>2025-08-17T08:22:46.569Z</time>
      </trkpt>
      <trkpt lat="44.25951" lon="0.84906">
        <ele>133</ele>
        <time>2025-08-17T08:22:47.569Z</time>
      </trkpt>
      <trkpt lat="44.25951" lon="0.84906">
        <ele>133</ele>
        <time>2025-08-17T08:22:48.569Z</time>
      </trkpt>
      <trkpt lat="44.25951" lon="0.84906">
        <ele>133</ele>
        <time>2025-08-17T08:22:49.569Z</time>
      </trkpt>
      <trkpt lat="44.2595" lon="0.84905">
        <ele>132</ele>
        <time>2025-08-17T08:22:50.569Z</time>
      </trkpt>
      <trkpt lat="44.25948" lon="0.84905">
        <ele>132</ele>
        <time>2025-08-17T08:22:51.569Z</time>
      </trkpt>
      <trkpt lat="44.25946" lon="0.84904">
        <ele>132</ele>
        <time>2025-08-17T08:22:52.569Z</time>
      </trkpt>
      <trkpt lat="44.25944" lon="0.84903">
        <ele>131</ele>
        <time>2025-08-17T08:22:53.569Z</time>
      </trkpt>
      <trkpt lat="44.25942" lon="0.84903">
        <ele>131</ele>
        <time>2025-08-17T08:22:54.569Z</time>
      </trkpt>
      <trkpt lat="44.25941" lon="0.84903">
        <ele>130</ele>
        <time>2025-08-17T08:22:55.569Z</time>
      </trkpt>
      <trkpt lat="44.2594" lon="0.84903">
        <ele>130</ele>
        <time>2025-08-17T08:22:56.569Z</time>
      </trkpt>
      <trkpt lat="44.25938" lon="0.84904">
        <ele>129</ele>
        <time>2025-08-17T08:22:57.569Z</time>
      </trkpt>
      <trkpt lat="44.25937" lon="0.84904">
        <ele>129</ele>
        <time>2025-08-17T08:22:58.569Z</time>
      </trkpt>
      <trkpt lat="44.25935" lon="0.84904">
        <ele>129</ele>
        <time>2025-08-17T08:22:59.569Z</time>
      </trkpt>
      <trkpt lat="44.25934" lon="0.84905">
        <ele>128</ele>
        <time>2025-08-17T08:23:00.569Z</time>
      </trkpt>
      <trkpt lat="44.25933" lon="0.84906">
        <ele>128</ele>
        <time>2025-08-17T08:23:01.569Z</time>
      </trkpt>
      <trkpt lat="44.25931" lon="0.84906">
        <ele>128</ele>
        <time>2025-08-17T08:23:02.569Z</time>
      </trkpt>
      <trkpt lat="44.25929" lon="0.84904">
        <ele>128</ele>
        <time>2025-08-17T08:23:03.569Z</time>
      </trkpt>
      <trkpt lat="44.25927" lon="0.84903">
        <ele>129</ele>
        <time>2025-08-17T08:23:04.569Z</time>
      </trkpt>
      <trkpt lat="44.25926" lon="0.84902">
        <ele>129</ele>
        <time>2025-08-17T08:23:05.569Z</time>
      </trkpt>
      <trkpt lat="44.25926" lon="0.84901">
        <ele>129</ele>
        <time>2025-08-17T08:23:06.569Z</time>
      </trkpt>
      <trkpt lat="44.25925" lon="0.84902">
        <ele>128</ele>
        <time>2025-08-17T08:23:07.569Z</time>
      </trkpt>
      <trkpt lat="44.25925" lon="0.84901">
        <ele>128</ele>
        <time>2025-08-17T08:23:08.569Z</time>
      </trkpt>
      <trkpt lat="44.25925" lon="0.84901">
        <ele>128</ele>
        <time>2025-08-17T08:23:09.569Z</time>
      </trkpt>
      <trkpt lat="44.25925" lon="0.84901">
        <ele>127</ele>
        <time>2025-08-17T08:23:10.569Z</time>
      </trkpt>
      <trkpt lat="44.25924" lon="0.84901">
        <ele>127</ele>
        <time>2025-08-17T08:23:11.569Z</time>
      </trkpt>
      <trkpt lat="44.25924" lon="0.84901">
        <ele>127</ele>
        <time>2025-08-17T08:23:12.569Z</time>
      </trkpt>
      <trkpt lat="44.25924" lon="0.84901">
        <ele>127</ele>
        <time>2025-08-17T08:23:13.569Z</time>
      </trkpt>
      <trkpt lat="44.25923" lon="0.849">
        <ele>127</ele>
        <time>2025-08-17T08:23:14.569Z</time>
      </trkpt>
      <trkpt lat="44.25922" lon="0.849">
        <ele>126</ele>
        <time>2025-08-17T08:23:15.569Z</time>
      </trkpt>
      <trkpt lat="44.25921" lon="0.84899">
        <ele>126</ele>
        <time>2025-08-17T08:23:16.569Z</time>
      </trkpt>
      <trkpt lat="44.2592" lon="0.84899">
        <ele>126</ele>
        <time>2025-08-17T08:23:17.569Z</time>
      </trkpt>
      <trkpt lat="44.25919" lon="0.84899">
        <ele>125</ele>
        <time>2025-08-17T08:23:18.569Z</time>
      </trkpt>
      <trkpt lat="44.25918" lon="0.84899">
        <ele>125</ele>
        <time>2025-08-17T08:23:19.569Z</time>
      </trkpt>
      <trkpt lat="44.25917" lon="0.84899">
        <ele>124</ele>
        <time>2025-08-17T08:23:20.569Z</time>
      </trkpt>
      <trkpt lat="44.25916" lon="0.84898">
        <ele>124</ele>
        <time>2025-08-17T08:23:21.569Z</time>
      </trkpt>
      <trkpt lat="44.25916" lon="0.84898">
        <ele>124</ele>
        <time>2025-08-17T08:23:22.569Z</time>
      </trkpt>
      <trkpt lat="44.25915" lon="0.84897">
        <ele>124</ele>
        <time>2025-08-17T08:23:23.569Z</time>
      </trkpt>
      <trkpt lat="44.25914" lon="0.84896">
        <ele>124</ele>
        <time>2025-08-17T08:23:24.569Z</time>
      </trkpt>
      <trkpt lat="44.25913" lon="0.84895">
        <ele>124</ele>
        <time>2025-08-17T08:23:25.569Z</time>
      </trkpt>
      <trkpt lat="44.25912" lon="0.84895">
        <ele>124</ele>
        <time>2025-08-17T08:23:26.569Z</time>
      </trkpt>
      <trkpt lat="44.25911" lon="0.84894">
        <ele>124</ele>
        <time>2025-08-17T08:23:27.569Z</time>
      </trkpt>
      <trkpt lat="44.25909" lon="0.84894">
        <ele>125</ele>
        <time>2025-08-17T08:23:28.569Z</time>
      </trkpt>
      <trkpt lat="44.25908" lon="0.84894">
        <ele>125</ele>
        <time>2025-08-17T08:23:29.569Z</time>
      </trkpt>
      <trkpt lat="44.25907" lon="0.84893">
        <ele>125</ele>
        <time>2025-08-17T08:23:30.569Z</time>
      </trkpt>
      <trkpt lat="44.25906" lon="0.84892">
        <ele>125</ele>
        <time>2025-08-17T08:23:31.569Z</time>
      </trkpt>
      <trkpt lat="44.25905" lon="0.84891">
        <ele>125</ele>
        <time>2025-08-17T08:23:32.569Z</time>
      </trkpt>
      <trkpt lat="44.25904" lon="0.84891">
        <ele>124</ele>
        <time>2025-08-17T08:23:33.569Z</time>
      </trkpt>
      <trkpt lat="44.25903" lon="0.84891">
        <ele>124</ele>
        <time>2025-08-17T08:23:34.569Z</time>
      </trkpt>
      <trkpt lat="44.25902" lon="0.8489">
        <ele>124</ele>
        <time>2025-08-17T08:23:35.569Z</time>
      </trkpt>
      <trkpt lat="44.25901" lon="0.8489">
        <ele>124</ele>
        <time>2025-08-17T08:23:36.569Z</time>
      </trkpt>
      <trkpt lat="44.259" lon="0.84889">
        <ele>124</ele>
        <time>2025-08-17T08:23:37.569Z</time>
      </trkpt>
      <trkpt lat="44.25899" lon="0.84889">
        <ele>124</ele>
        <time>2025-08-17T08:23:38.569Z</time>
      </trkpt>
      <trkpt lat="44.25898" lon="0.84888">
        <ele>124</ele>
        <time>2025-08-17T08:23:39.569Z</time>
      </trkpt>
      <trkpt lat="44.25897" lon="0.84888">
        <ele>124</ele>
        <time>2025-08-17T08:23:40.569Z</time>
      </trkpt>
      <trkpt lat="44.25896" lon="0.84888">
        <ele>124</ele>
        <time>2025-08-17T08:23:41.569Z</time>
      </trkpt>
      <trkpt lat="44.25895" lon="0.84887">
        <ele>124</ele>
        <time>2025-08-17T08:23:42.569Z</time>
      </trkpt>
      <trkpt lat="44.25894" lon="0.84887">
        <ele>125</ele>
        <time>2025-08-17T08:23:43.569Z</time>
      </trkpt>
      <trkpt lat="44.25893" lon="0.84886">
        <ele>125</ele>
        <time>2025-08-17T08:23:44.569Z</time>
      </trkpt>
      <trkpt lat="44.25892" lon="0.84886">
        <ele>125</ele>
        <time>2025-08-17T08:23:45.569Z</time>
      </trkpt>
      <trkpt lat="44.25891" lon="0.84886">
        <ele>125</ele>
        <time>2025-08-17T08:23:46.569Z</time>
      </trkpt>
      <trkpt lat="44.2589" lon="0.84886">
        <ele>125</ele>
        <time>2025-08-17T08:23:47.569Z</time>
      </trkpt>
      <trkpt lat="44.25889" lon="0.84886">
        <ele>125</ele>
        <time>2025-08-17T08:23:48.569Z</time>
      </trkpt>
      <trkpt lat="44.25888" lon="0.84885">
        <ele>125</ele>
        <time>2025-08-17T08:23:49.569Z</time>
      </trkpt>
      <trkpt lat="44.25886" lon="0.84885">
        <ele>125</ele>
        <time>2025-08-17T08:23:50.569Z</time>
      </trkpt>
      <trkpt lat="44.25885" lon="0.84884">
        <ele>125</ele>
        <time>2025-08-17T08:23:51.569Z</time>
      </trkpt>
      <trkpt lat="44.25884" lon="0.84884">
        <ele>125</ele>
        <time>2025-08-17T08:23:52.569Z</time>
      </trkpt>
      <trkpt lat="44.25884" lon="0.84884">
        <ele>124</ele>
        <time>2025-08-17T08:23:53.569Z</time>
      </trkpt>
      <trkpt lat="44.25883" lon="0.84884">
        <ele>124</ele>
        <time>2025-08-17T08:23:54.569Z</time>
      </trkpt>
      <trkpt lat="44.25882" lon="0.84884">
        <ele>123</ele>
        <time>2025-08-17T08:23:55.569Z</time>
      </trkpt>
      <trkpt lat="44.25881" lon="0.84883">
        <ele>123</ele>
        <time>2025-08-17T08:23:56.569Z</time>
      </trkpt>
      <trkpt lat="44.2588" lon="0.84883">
        <ele>122</ele>
        <time>2025-08-17T08:23:57.569Z</time>
      </trkpt>
      <trkpt lat="44.25879" lon="0.84883">
        <ele>121</ele>
        <time>2025-08-17T08:23:58.569Z</time>
      </trkpt>
      <trkpt lat="44.25878" lon="0.84883">
        <ele>121</ele>
        <time>2025-08-17T08:23:59.569Z</time>
      </trkpt>
      <trkpt lat="44.25877" lon="0.84883">
        <ele>120</ele>
        <time>2025-08-17T08:24:00.569Z</time>
      </trkpt>
      <trkpt lat="44.25877" lon="0.84883">
        <ele>119</ele>
        <time>2025-08-17T08:24:01.569Z</time>
      </trkpt>
      <trkpt lat="44.25876" lon="0.84883">
        <ele>119</ele>
        <time>2025-08-17T08:24:02.569Z</time>
      </trkpt>
      <trkpt lat="44.25875" lon="0.84883">
        <ele>118</ele>
        <time>2025-08-17T08:24:03.569Z</time>
      </trkpt>
      <trkpt lat="44.25873" lon="0.84882">
        <ele>118</ele>
        <time>2025-08-17T08:24:04.569Z</time>
      </trkpt>
      <trkpt lat="44.25872" lon="0.84882">
        <ele>118</ele>
        <time>2025-08-17T08:24:05.569Z</time>
      </trkpt>
      <trkpt lat="44.25871" lon="0.84881">
        <ele>118</ele>
        <time>2025-08-17T08:24:06.569Z</time>
      </trkpt>
      <trkpt lat="44.2587" lon="0.84881">
        <ele>118</ele>
        <time>2025-08-17T08:24:07.569Z</time>
      </trkpt>
      <trkpt lat="44.25869" lon="0.8488">
        <ele>118</ele>
        <time>2025-08-17T08:24:08.569Z</time>
      </trkpt>
      <trkpt lat="44.25868" lon="0.8488">
        <ele>119</ele>
        <time>2025-08-17T08:24:09.569Z</time>
      </trkpt>
      <trkpt lat="44.25867" lon="0.8488">
        <ele>119</ele>
        <time>2025-08-17T08:24:10.569Z</time>
      </trkpt>
      <trkpt lat="44.25866" lon="0.8488">
        <ele>119</ele>
        <time>2025-08-17T08:24:11.569Z</time>
      </trkpt>
      <trkpt lat="44.25865" lon="0.84879">
        <ele>119</ele>
        <time>2025-08-17T08:24:12.569Z</time>
      </trkpt>
      <trkpt lat="44.25864" lon="0.84878">
        <ele>119</ele>
        <time>2025-08-17T08:24:13.569Z</time>
      </trkpt>
      <trkpt lat="44.25863" lon="0.84877">
        <ele>119</ele>
        <time>2025-08-17T08:24:14.569Z</time>
      </trkpt>
      <trkpt lat="44.25862" lon="0.84877">
        <ele>119</ele>
        <time>2025-08-17T08:24:15.569Z</time>
      </trkpt>
      <trkpt lat="44.25861" lon="0.84877">
        <ele>118</ele>
        <time>2025-08-17T08:24:16.569Z</time>
      </trkpt>
      <trkpt lat="44.25861" lon="0.84877">
        <ele>118</ele>
        <time>2025-08-17T08:24:17.569Z</time>
      </trkpt>
      <trkpt lat="44.25861" lon="0.84876">
        <ele>118</ele>
        <time>2025-08-17T08:24:18.569Z</time>
      </trkpt>
      <trkpt lat="44.25859" lon="0.84876">
        <ele>118</ele>
        <time>2025-08-17T08:24:19.569Z</time>
      </trkpt>
      <trkpt lat="44.25857" lon="0.84877">
        <ele>118</ele>
        <time>2025-08-17T08:24:20.569Z</time>
      </trkpt>
      <trkpt lat="44.25856" lon="0.84877">
        <ele>118</ele>
        <time>2025-08-17T08:24:21.569Z</time>
      </trkpt>
      <trkpt lat="44.25856" lon="0.84877">
        <ele>118</ele>
        <time>2025-08-17T08:24:22.569Z</time>
      </trkpt>
      <trkpt lat="44.25855" lon="0.84877">
        <ele>118</ele>
        <time>2025-08-17T08:24:23.569Z</time>
      </trkpt>
      <trkpt lat="44.25854" lon="0.84876">
        <ele>117</ele>
        <time>2025-08-17T08:24:24.569Z</time>
      </trkpt>
      <trkpt lat="44.25853" lon="0.84875">
        <ele>117</ele>
        <time>2025-08-17T08:24:25.569Z</time>
      </trkpt>
      <trkpt lat="44.25852" lon="0.84875">
        <ele>117</ele>
        <time>2025-08-17T08:24:26.569Z</time>
      </trkpt>
      <trkpt lat="44.2585" lon="0.84874">
        <ele>117</ele>
        <time>2025-08-17T08:24:27.569Z</time>
      </trkpt>
      <trkpt lat="44.2585" lon="0.84874">
        <ele>117</ele>
        <time>2025-08-17T08:24:28.569Z</time>
      </trkpt>
      <trkpt lat="44.25849" lon="0.84873">
        <ele>117</ele>
        <time>2025-08-17T08:24:29.569Z</time>
      </trkpt>
      <trkpt lat="44.25848" lon="0.84873">
        <ele>117</ele>
        <time>2025-08-17T08:24:30.569Z</time>
      </trkpt>
      <trkpt lat="44.25847" lon="0.84872">
        <ele>117</ele>
        <time>2025-08-17T08:24:31.569Z</time>
      </trkpt>
      <trkpt lat="44.25846" lon="0.84871">
        <ele>117</ele>
        <time>2025-08-17T08:24:32.569Z</time>
      </trkpt>
      <trkpt lat="44.25845" lon="0.84871">
        <ele>117</ele>
        <time>2025-08-17T08:24:33.569Z</time>
      </trkpt>
      <trkpt lat="44.25844" lon="0.8487">
        <ele>117</ele>
        <time>2025-08-17T08:24:34.569Z</time>
      </trkpt>
      <trkpt lat="44.25843" lon="0.8487">
        <ele>117</ele>
        <time>2025-08-17T08:24:35.569Z</time>
      </trkpt>
      <trkpt lat="44.25841" lon="0.84869">
        <ele>117</ele>
        <time>2025-08-17T08:24:36.569Z</time>
      </trkpt>
      <trkpt lat="44.2584" lon="0.84868">
        <ele>117</ele>
        <time>2025-08-17T08:24:37.569Z</time>
      </trkpt>
      <trkpt lat="44.25839" lon="0.84867">
        <ele>117</ele>
        <time>2025-08-17T08:24:38.569Z</time>
      </trkpt>
      <trkpt lat="44.25837" lon="0.84867">
        <ele>117</ele>
        <time>2025-08-17T08:24:39.569Z</time>
      </trkpt>
      <trkpt lat="44.25836" lon="0.84867">
        <ele>118</ele>
        <time>2025-08-17T08:24:40.569Z</time>
      </trkpt>
      <trkpt lat="44.25835" lon="0.84867">
        <ele>118</ele>
        <time>2025-08-17T08:24:41.569Z</time>
      </trkpt>
      <trkpt lat="44.25834" lon="0.84866">
        <ele>118</ele>
        <time>2025-08-17T08:24:42.569Z</time>
      </trkpt>
      <trkpt lat="44.25832" lon="0.84865">
        <ele>118</ele>
        <time>2025-08-17T08:24:43.569Z</time>
      </trkpt>
      <trkpt lat="44.25831" lon="0.84865">
        <ele>118</ele>
        <time>2025-08-17T08:24:44.569Z</time>
      </trkpt>
      <trkpt lat="44.25831" lon="0.84866">
        <ele>118</ele>
        <time>2025-08-17T08:24:45.569Z</time>
      </trkpt>
      <trkpt lat="44.2583" lon="0.84866">
        <ele>118</ele>
        <time>2025-08-17T08:24:46.569Z</time>
      </trkpt>
      <trkpt lat="44.25829" lon="0.84867">
        <ele>118</ele>
        <time>2025-08-17T08:24:47.569Z</time>
      </trkpt>
      <trkpt lat="44.25827" lon="0.84868">
        <ele>118</ele>
        <time>2025-08-17T08:24:48.569Z</time>
      </trkpt>
      <trkpt lat="44.25826" lon="0.84869">
        <ele>118</ele>
        <time>2025-08-17T08:24:49.569Z</time>
      </trkpt>
      <trkpt lat="44.25825" lon="0.84869">
        <ele>117</ele>
        <time>2025-08-17T08:24:50.569Z</time>
      </trkpt>
      <trkpt lat="44.25824" lon="0.84869">
        <ele>116</ele>
        <time>2025-08-17T08:24:51.569Z</time>
      </trkpt>
      <trkpt lat="44.25822" lon="0.84869">
        <ele>116</ele>
        <time>2025-08-17T08:24:52.569Z</time>
      </trkpt>
      <trkpt lat="44.25822" lon="0.84868">
        <ele>115</ele>
        <time>2025-08-17T08:24:53.569Z</time>
      </trkpt>
      <trkpt lat="44.25821" lon="0.84867">
        <ele>114</ele>
        <time>2025-08-17T08:24:54.569Z</time>
      </trkpt>
      <trkpt lat="44.2582" lon="0.84867">
        <ele>113</ele>
        <time>2025-08-17T08:24:55.569Z</time>
      </trkpt>
      <trkpt lat="44.25819" lon="0.84867">
        <ele>113</ele>
        <time>2025-08-17T08:24:56.569Z</time>
      </trkpt>
      <trkpt lat="44.25818" lon="0.84867">
        <ele>112</ele>
        <time>2025-08-17T08:24:57.569Z</time>
      </trkpt>
      <trkpt lat="44.25816" lon="0.84867">
        <ele>112</ele>
        <time>2025-08-17T08:24:58.569Z</time>
      </trkpt>
      <trkpt lat="44.25815" lon="0.84866">
        <ele>111</ele>
        <time>2025-08-17T08:24:59.569Z</time>
      </trkpt>
      <trkpt lat="44.25814" lon="0.84866">
        <ele>111</ele>
        <time>2025-08-17T08:25:00.569Z</time>
      </trkpt>
      <trkpt lat="44.25813" lon="0.84865">
        <ele>111</ele>
        <time>2025-08-17T08:25:01.569Z</time>
      </trkpt>
      <trkpt lat="44.25811" lon="0.84863">
        <ele>112</ele>
        <time>2025-08-17T08:25:02.569Z</time>
      </trkpt>
      <trkpt lat="44.2581" lon="0.84861">
        <ele>113</ele>
        <time>2025-08-17T08:25:03.569Z</time>
      </trkpt>
      <trkpt lat="44.2581" lon="0.8486">
        <ele>113</ele>
        <time>2025-08-17T08:25:04.569Z</time>
      </trkpt>
      <trkpt lat="44.2581" lon="0.84859">
        <ele>113</ele>
        <time>2025-08-17T08:25:05.569Z</time>
      </trkpt>
      <trkpt lat="44.25809" lon="0.84858">
        <ele>113</ele>
        <time>2025-08-17T08:25:06.569Z</time>
      </trkpt>
      <trkpt lat="44.25809" lon="0.84858">
        <ele>113</ele>
        <time>2025-08-17T08:25:07.569Z</time>
      </trkpt>
      <trkpt lat="44.25808" lon="0.84857">
        <ele>113</ele>
        <time>2025-08-17T08:25:08.569Z</time>
      </trkpt>
      <trkpt lat="44.25807" lon="0.84856">
        <ele>113</ele>
        <time>2025-08-17T08:25:09.569Z</time>
      </trkpt>
      <trkpt lat="44.25806" lon="0.84855">
        <ele>112</ele>
        <time>2025-08-17T08:25:10.569Z</time>
      </trkpt>
      <trkpt lat="44.25805" lon="0.84854">
        <ele>112</ele>
        <time>2025-08-17T08:25:11.569Z</time>
      </trkpt>
      <trkpt lat="44.25803" lon="0.84853">
        <ele>112</ele>
        <time>2025-08-17T08:25:12.569Z</time>
      </trkpt>
      <trkpt lat="44.25802" lon="0.84853">
        <ele>112</ele>
        <time>2025-08-17T08:25:13.569Z</time>
      </trkpt>
      <trkpt lat="44.25801" lon="0.84852">
        <ele>112</ele>
        <time>2025-08-17T08:25:14.569Z</time>
      </trkpt>
      <trkpt lat="44.258" lon="0.84851">
        <ele>112</ele>
        <time>2025-08-17T08:25:15.569Z</time>
      </trkpt>
      <trkpt lat="44.25799" lon="0.84851">
        <ele>112</ele>
        <time>2025-08-17T08:25:16.569Z</time>
      </trkpt>
      <trkpt lat="44.25798" lon="0.84851">
        <ele>112</ele>
        <time>2025-08-17T08:25:17.569Z</time>
      </trkpt>
      <trkpt lat="44.25796" lon="0.8485">
        <ele>112</ele>
        <time>2025-08-17T08:25:18.569Z</time>
      </trkpt>
      <trkpt lat="44.25795" lon="0.84849">
        <ele>112</ele>
        <time>2025-08-17T08:25:19.569Z</time>
      </trkpt>
      <trkpt lat="44.25794" lon="0.84849">
        <ele>112</ele>
        <time>2025-08-17T08:25:20.569Z</time>
      </trkpt>
      <trkpt lat="44.25793" lon="0.84848">
        <ele>111</ele>
        <time>2025-08-17T08:25:21.569Z</time>
      </trkpt>
      <trkpt lat="44.25792" lon="0.84847">
        <ele>111</ele>
        <time>2025-08-17T08:25:22.569Z</time>
      </trkpt>
      <trkpt lat="44.25791" lon="0.84847">
        <ele>111</ele>
        <time>2025-08-17T08:25:23.569Z</time>
      </trkpt>
      <trkpt lat="44.2579" lon="0.84846">
        <ele>111</ele>
        <time>2025-08-17T08:25:24.569Z</time>
      </trkpt>
      <trkpt lat="44.25789" lon="0.84846">
        <ele>111</ele>
        <time>2025-08-17T08:25:25.569Z</time>
      </trkpt>
      <trkpt lat="44.25787" lon="0.84846">
        <ele>111</ele>
        <time>2025-08-17T08:25:26.569Z</time>
      </trkpt>
      <trkpt lat="44.25786" lon="0.84845">
        <ele>111</ele>
        <time>2025-08-17T08:25:27.569Z</time>
      </trkpt>
      <trkpt lat="44.25785" lon="0.84845">
        <ele>111</ele>
        <time>2025-08-17T08:25:28.569Z</time>
      </trkpt>
      <trkpt lat="44.25784" lon="0.84845">
        <ele>111</ele>
        <time>2025-08-17T08:25:29.569Z</time>
      </trkpt>
      <trkpt lat="44.25783" lon="0.84845">
        <ele>111</ele>
        <time>2025-08-17T08:25:30.569Z</time>
      </trkpt>
      <trkpt lat="44.25781" lon="0.84845">
        <ele>111</ele>
        <time>2025-08-17T08:25:31.569Z</time>
      </trkpt>
      <trkpt lat="44.2578" lon="0.84845">
        <ele>111</ele>
        <time>2025-08-17T08:25:32.569Z</time>
      </trkpt>
      <trkpt lat="44.25779" lon="0.84845">
        <ele>111</ele>
        <time>2025-08-17T08:25:33.569Z</time>
      </trkpt>
      <trkpt lat="44.25778" lon="0.84845">
        <ele>110</ele>
        <time>2025-08-17T08:25:34.569Z</time>
      </trkpt>
      <trkpt lat="44.25777" lon="0.84845">
        <ele>110</ele>
        <time>2025-08-17T08:25:35.569Z</time>
      </trkpt>
      <trkpt lat="44.25775" lon="0.84845">
        <ele>110</ele>
        <time>2025-08-17T08:25:36.569Z</time>
      </trkpt>
      <trkpt lat="44.25774" lon="0.84844">
        <ele>110</ele>
        <time>2025-08-17T08:25:37.569Z</time>
      </trkpt>
      <trkpt lat="44.25773" lon="0.84844">
        <ele>110</ele>
        <time>2025-08-17T08:25:38.569Z</time>
      </trkpt>
      <trkpt lat="44.25772" lon="0.84844">
        <ele>109</ele>
        <time>2025-08-17T08:25:39.569Z</time>
      </trkpt>
      <trkpt lat="44.25771" lon="0.84844">
        <ele>109</ele>
        <time>2025-08-17T08:25:40.569Z</time>
      </trkpt>
      <trkpt lat="44.2577" lon="0.84844">
        <ele>109</ele>
        <time>2025-08-17T08:25:41.569Z</time>
      </trkpt>
      <trkpt lat="44.25769" lon="0.84843">
        <ele>109</ele>
        <time>2025-08-17T08:25:42.569Z</time>
      </trkpt>
      <trkpt lat="44.25768" lon="0.84843">
        <ele>109</ele>
        <time>2025-08-17T08:25:43.569Z</time>
      </trkpt>
      <trkpt lat="44.25767" lon="0.84843">
        <ele>109</ele>
        <time>2025-08-17T08:25:44.569Z</time>
      </trkpt>
      <trkpt lat="44.25766" lon="0.84842">
        <ele>109</ele>
        <time>2025-08-17T08:25:45.569Z</time>
      </trkpt>
      <trkpt lat="44.25765" lon="0.84842">
        <ele>109</ele>
        <time>2025-08-17T08:25:46.569Z</time>
      </trkpt>
      <trkpt lat="44.25764" lon="0.84842">
        <ele>109</ele>
        <time>2025-08-17T08:25:47.569Z</time>
      </trkpt>
      <trkpt lat="44.25763" lon="0.84842">
        <ele>109</ele>
        <time>2025-08-17T08:25:48.569Z</time>
      </trkpt>
      <trkpt lat="44.25762" lon="0.84842">
        <ele>109</ele>
        <time>2025-08-17T08:25:49.569Z</time>
      </trkpt>
      <trkpt lat="44.25761" lon="0.84841">
        <ele>110</ele>
        <time>2025-08-17T08:25:50.569Z</time>
      </trkpt>
      <trkpt lat="44.2576" lon="0.84841">
        <ele>110</ele>
        <time>2025-08-17T08:25:51.569Z</time>
      </trkpt>
      <trkpt lat="44.25759" lon="0.8484">
        <ele>110</ele>
        <time>2025-08-17T08:25:52.569Z</time>
      </trkpt>
      <trkpt lat="44.25758" lon="0.8484">
        <ele>110</ele>
        <time>2025-08-17T08:25:53.569Z</time>
      </trkpt>
      <trkpt lat="44.25757" lon="0.84839">
        <ele>110</ele>
        <time>2025-08-17T08:25:54.569Z</time>
      </trkpt>
      <trkpt lat="44.25756" lon="0.84839">
        <ele>110</ele>
        <time>2025-08-17T08:25:55.569Z</time>
      </trkpt>
      <trkpt lat="44.25755" lon="0.84839">
        <ele>110</ele>
        <time>2025-08-17T08:25:56.569Z</time>
      </trkpt>
      <trkpt lat="44.25754" lon="0.84839">
        <ele>110</ele>
        <time>2025-08-17T08:25:57.569Z</time>
      </trkpt>
      <trkpt lat="44.25754" lon="0.84839">
        <ele>110</ele>
        <time>2025-08-17T08:25:58.569Z</time>
      </trkpt>
      <trkpt lat="44.25753" lon="0.84839">
        <ele>110</ele>
        <time>2025-08-17T08:25:59.569Z</time>
      </trkpt>
      <trkpt lat="44.25752" lon="0.84839">
        <ele>110</ele>
        <time>2025-08-17T08:26:00.569Z</time>
      </trkpt>
      <trkpt lat="44.25751" lon="0.84839">
        <ele>110</ele>
        <time>2025-08-17T08:26:01.569Z</time>
      </trkpt>
      <trkpt lat="44.2575" lon="0.84838">
        <ele>110</ele>
        <time>2025-08-17T08:26:02.569Z</time>
      </trkpt>
      <trkpt lat="44.25749" lon="0.84838">
        <ele>110</ele>
        <time>2025-08-17T08:26:03.569Z</time>
      </trkpt>
      <trkpt lat="44.25748" lon="0.84837">
        <ele>111</ele>
        <time>2025-08-17T08:26:04.569Z</time>
      </trkpt>
      <trkpt lat="44.25748" lon="0.84836">
        <ele>111</ele>
        <time>2025-08-17T08:26:05.569Z</time>
      </trkpt>
      <trkpt lat="44.25747" lon="0.84836">
        <ele>111</ele>
        <time>2025-08-17T08:26:06.569Z</time>
      </trkpt>
      <trkpt lat="44.25746" lon="0.84835">
        <ele>111</ele>
        <time>2025-08-17T08:26:07.569Z</time>
      </trkpt>
      <trkpt lat="44.25746" lon="0.84835">
        <ele>112</ele>
        <time>2025-08-17T08:26:08.569Z</time>
      </trkpt>
      <trkpt lat="44.25745" lon="0.84834">
        <ele>112</ele>
        <time>2025-08-17T08:26:09.569Z</time>
      </trkpt>
      <trkpt lat="44.25744" lon="0.84834">
        <ele>113</ele>
        <time>2025-08-17T08:26:10.569Z</time>
      </trkpt>
      <trkpt lat="44.25743" lon="0.84834">
        <ele>113</ele>
        <time>2025-08-17T08:26:11.569Z</time>
      </trkpt>
      <trkpt lat="44.25742" lon="0.84833">
        <ele>114</ele>
        <time>2025-08-17T08:26:12.569Z</time>
      </trkpt>
      <trkpt lat="44.25741" lon="0.84833">
        <ele>114</ele>
        <time>2025-08-17T08:26:13.569Z</time>
      </trkpt>
      <trkpt lat="44.25741" lon="0.84832">
        <ele>115</ele>
        <time>2025-08-17T08:26:14.569Z</time>
      </trkpt>
      <trkpt lat="44.2574" lon="0.84832">
        <ele>115</ele>
        <time>2025-08-17T08:26:15.569Z</time>
      </trkpt>
      <trkpt lat="44.25739" lon="0.84831">
        <ele>115</ele>
        <time>2025-08-17T08:26:16.569Z</time>
      </trkpt>
      <trkpt lat="44.25738" lon="0.84831">
        <ele>115</ele>
        <time>2025-08-17T08:26:17.569Z</time>
      </trkpt>
      <trkpt lat="44.25737" lon="0.8483">
        <ele>115</ele>
        <time>2025-08-17T08:26:18.569Z</time>
      </trkpt>
      <trkpt lat="44.25736" lon="0.8483">
        <ele>115</ele>
        <time>2025-08-17T08:26:19.569Z</time>
      </trkpt>
      <trkpt lat="44.25735" lon="0.84829">
        <ele>115</ele>
        <time>2025-08-17T08:26:20.569Z</time>
      </trkpt>
      <trkpt lat="44.25735" lon="0.84828">
        <ele>115</ele>
        <time>2025-08-17T08:26:21.569Z</time>
      </trkpt>
      <trkpt lat="44.25734" lon="0.84828">
        <ele>115</ele>
        <time>2025-08-17T08:26:22.569Z</time>
      </trkpt>
      <trkpt lat="44.25734" lon="0.84828">
        <ele>115</ele>
        <time>2025-08-17T08:26:23.569Z</time>
      </trkpt>
      <trkpt lat="44.25734" lon="0.84827">
        <ele>115</ele>
        <time>2025-08-17T08:26:24.569Z</time>
      </trkpt>
      <trkpt lat="44.25733" lon="0.84827">
        <ele>115</ele>
        <time>2025-08-17T08:26:25.569Z</time>
      </trkpt>
      <trkpt lat="44.25732" lon="0.84826">
        <ele>115</ele>
        <time>2025-08-17T08:26:26.569Z</time>
      </trkpt>
      <trkpt lat="44.25732" lon="0.84826">
        <ele>115</ele>
        <time>2025-08-17T08:26:27.569Z</time>
      </trkpt>
      <trkpt lat="44.25731" lon="0.84825">
        <ele>116</ele>
        <time>2025-08-17T08:26:28.569Z</time>
      </trkpt>
      <trkpt lat="44.2573" lon="0.84825">
        <ele>116</ele>
        <time>2025-08-17T08:26:29.569Z</time>
      </trkpt>
      <trkpt lat="44.25729" lon="0.84824">
        <ele>116</ele>
        <time>2025-08-17T08:26:30.569Z</time>
      </trkpt>
      <trkpt lat="44.25729" lon="0.84824">
        <ele>116</ele>
        <time>2025-08-17T08:26:31.569Z</time>
      </trkpt>
      <trkpt lat="44.25727" lon="0.84823">
        <ele>116</ele>
        <time>2025-08-17T08:26:32.569Z</time>
      </trkpt>
      <trkpt lat="44.25726" lon="0.84822">
        <ele>116</ele>
        <time>2025-08-17T08:26:33.569Z</time>
      </trkpt>
      <trkpt lat="44.25726" lon="0.84821">
        <ele>116</ele>
        <time>2025-08-17T08:26:34.569Z</time>
      </trkpt>
      <trkpt lat="44.25725" lon="0.8482">
        <ele>117</ele>
        <time>2025-08-17T08:26:35.569Z</time>
      </trkpt>
      <trkpt lat="44.25724" lon="0.84819">
        <ele>117</ele>
        <time>2025-08-17T08:26:36.569Z</time>
      </trkpt>
      <trkpt lat="44.25723" lon="0.84819">
        <ele>117</ele>
        <time>2025-08-17T08:26:37.569Z</time>
      </trkpt>
      <trkpt lat="44.25722" lon="0.84818">
        <ele>118</ele>
        <time>2025-08-17T08:26:38.569Z</time>
      </trkpt>
      <trkpt lat="44.25721" lon="0.84817">
        <ele>118</ele>
        <time>2025-08-17T08:26:39.569Z</time>
      </trkpt>
      <trkpt lat="44.25721" lon="0.84816">
        <ele>118</ele>
        <time>2025-08-17T08:26:40.569Z</time>
      </trkpt>
      <trkpt lat="44.2572" lon="0.84815">
        <ele>118</ele>
        <time>2025-08-17T08:26:41.569Z</time>
      </trkpt>
      <trkpt lat="44.25719" lon="0.84814">
        <ele>118</ele>
        <time>2025-08-17T08:26:42.569Z</time>
      </trkpt>
      <trkpt lat="44.25719" lon="0.84813">
        <ele>119</ele>
        <time>2025-08-17T08:26:43.569Z</time>
      </trkpt>
      <trkpt lat="44.25718" lon="0.84812">
        <ele>119</ele>
        <time>2025-08-17T08:26:44.570Z</time>
      </trkpt>
      <trkpt lat="44.25717" lon="0.84812">
        <ele>119</ele>
        <time>2025-08-17T08:26:45.569Z</time>
      </trkpt>
      <trkpt lat="44.25717" lon="0.84811">
        <ele>119</ele>
        <time>2025-08-17T08:26:46.569Z</time>
      </trkpt>
      <trkpt lat="44.25716" lon="0.84811">
        <ele>119</ele>
        <time>2025-08-17T08:26:47.569Z</time>
      </trkpt>
      <trkpt lat="44.25715" lon="0.84811">
        <ele>120</ele>
        <time>2025-08-17T08:26:48.569Z</time>
      </trkpt>
      <trkpt lat="44.25714" lon="0.8481">
        <ele>120</ele>
        <time>2025-08-17T08:26:49.569Z</time>
      </trkpt>
      <trkpt lat="44.25713" lon="0.84809">
        <ele>120</ele>
        <time>2025-08-17T08:26:50.569Z</time>
      </trkpt>
      <trkpt lat="44.25713" lon="0.84809">
        <ele>120</ele>
        <time>2025-08-17T08:26:51.569Z</time>
      </trkpt>
      <trkpt lat="44.25712" lon="0.84808">
        <ele>120</ele>
        <time>2025-08-17T08:26:52.569Z</time>
      </trkpt>
      <trkpt lat="44.25711" lon="0.84807">
        <ele>120</ele>
        <time>2025-08-17T08:26:53.569Z</time>
      </trkpt>
      <trkpt lat="44.2571" lon="0.84806">
        <ele>121</ele>
        <time>2025-08-17T08:26:54.569Z</time>
      </trkpt>
      <trkpt lat="44.2571" lon="0.84805">
        <ele>121</ele>
        <time>2025-08-17T08:26:55.569Z</time>
      </trkpt>
      <trkpt lat="44.25709" lon="0.84804">
        <ele>122</ele>
        <time>2025-08-17T08:26:56.569Z</time>
      </trkpt>
      <trkpt lat="44.25709" lon="0.84803">
        <ele>122</ele>
        <time>2025-08-17T08:26:57.569Z</time>
      </trkpt>
      <trkpt lat="44.25708" lon="0.84802">
        <ele>122</ele>
        <time>2025-08-17T08:26:58.569Z</time>
      </trkpt>
      <trkpt lat="44.25708" lon="0.84802">
        <ele>122</ele>
        <time>2025-08-17T08:26:59.569Z</time>
      </trkpt>
      <trkpt lat="44.25707" lon="0.84802">
        <ele>122</ele>
        <time>2025-08-17T08:27:00.569Z</time>
      </trkpt>
      <trkpt lat="44.25706" lon="0.84801">
        <ele>122</ele>
        <time>2025-08-17T08:27:01.569Z</time>
      </trkpt>
      <trkpt lat="44.25706" lon="0.84801">
        <ele>122</ele>
        <time>2025-08-17T08:27:02.569Z</time>
      </trkpt>
      <trkpt lat="44.25705" lon="0.84801">
        <ele>122</ele>
        <time>2025-08-17T08:27:03.569Z</time>
      </trkpt>
      <trkpt lat="44.25705" lon="0.84801">
        <ele>122</ele>
        <time>2025-08-17T08:27:04.569Z</time>
      </trkpt>
      <trkpt lat="44.25705" lon="0.848">
        <ele>122</ele>
        <time>2025-08-17T08:27:05.569Z</time>
      </trkpt>
      <trkpt lat="44.25704" lon="0.84799">
        <ele>122</ele>
        <time>2025-08-17T08:27:06.569Z</time>
      </trkpt>
      <trkpt lat="44.25704" lon="0.84798">
        <ele>122</ele>
        <time>2025-08-17T08:27:07.569Z</time>
      </trkpt>
      <trkpt lat="44.25703" lon="0.84796">
        <ele>122</ele>
        <time>2025-08-17T08:27:08.569Z</time>
      </trkpt>
      <trkpt lat="44.25703" lon="0.84796">
        <ele>122</ele>
        <time>2025-08-17T08:27:09.569Z</time>
      </trkpt>
      <trkpt lat="44.25702" lon="0.84794">
        <ele>123</ele>
        <time>2025-08-17T08:27:10.569Z</time>
      </trkpt>
      <trkpt lat="44.25701" lon="0.84793">
        <ele>123</ele>
        <time>2025-08-17T08:27:11.569Z</time>
      </trkpt>
      <trkpt lat="44.25701" lon="0.84793">
        <ele>123</ele>
        <time>2025-08-17T08:27:12.569Z</time>
      </trkpt>
      <trkpt lat="44.257" lon="0.84792">
        <ele>123</ele>
        <time>2025-08-17T08:27:13.569Z</time>
      </trkpt>
      <trkpt lat="44.257" lon="0.84792">
        <ele>123</ele>
        <time>2025-08-17T08:27:14.569Z</time>
      </trkpt>
      <trkpt lat="44.257" lon="0.84791">
        <ele>124</ele>
        <time>2025-08-17T08:27:15.569Z</time>
      </trkpt>
      <trkpt lat="44.257" lon="0.84791">
        <ele>124</ele>
        <time>2025-08-17T08:27:16.569Z</time>
      </trkpt>
      <trkpt lat="44.257" lon="0.84791">
        <ele>124</ele>
        <time>2025-08-17T08:27:17.569Z</time>
      </trkpt>
      <trkpt lat="44.25699" lon="0.84791">
        <ele>125</ele>
        <time>2025-08-17T08:27:18.569Z</time>
      </trkpt>
      <trkpt lat="44.25699" lon="0.8479">
        <ele>125</ele>
        <time>2025-08-17T08:27:19.569Z</time>
      </trkpt>
      <trkpt lat="44.25699" lon="0.84789">
        <ele>126</ele>
        <time>2025-08-17T08:27:20.569Z</time>
      </trkpt>
      <trkpt lat="44.25698" lon="0.84789">
        <ele>126</ele>
        <time>2025-08-17T08:27:21.569Z</time>
      </trkpt>
      <trkpt lat="44.25697" lon="0.84788">
        <ele>127</ele>
        <time>2025-08-17T08:27:22.569Z</time>
      </trkpt>
      <trkpt lat="44.25697" lon="0.84787">
        <ele>127</ele>
        <time>2025-08-17T08:27:23.569Z</time>
      </trkpt>
      <trkpt lat="44.25697" lon="0.84786">
        <ele>128</ele>
        <time>2025-08-17T08:27:24.569Z</time>
      </trkpt>
      <trkpt lat="44.25696" lon="0.84785">
        <ele>128</ele>
        <time>2025-08-17T08:27:25.569Z</time>
      </trkpt>
      <trkpt lat="44.25696" lon="0.84784">
        <ele>128</ele>
        <time>2025-08-17T08:27:26.569Z</time>
      </trkpt>
      <trkpt lat="44.25695" lon="0.84784">
        <ele>129</ele>
        <time>2025-08-17T08:27:27.569Z</time>
      </trkpt>
      <trkpt lat="44.25694" lon="0.84783">
        <ele>129</ele>
        <time>2025-08-17T08:27:28.569Z</time>
      </trkpt>
      <trkpt lat="44.25693" lon="0.84782">
        <ele>129</ele>
        <time>2025-08-17T08:27:29.569Z</time>
      </trkpt>
      <trkpt lat="44.25693" lon="0.84782">
        <ele>129</ele>
        <time>2025-08-17T08:27:30.569Z</time>
      </trkpt>
      <trkpt lat="44.25692" lon="0.84782">
        <ele>129</ele>
        <time>2025-08-17T08:27:31.569Z</time>
      </trkpt>
      <trkpt lat="44.25692" lon="0.84782">
        <ele>129</ele>
        <time>2025-08-17T08:27:32.569Z</time>
      </trkpt>
      <trkpt lat="44.25691" lon="0.84781">
        <ele>129</ele>
        <time>2025-08-17T08:27:33.569Z</time>
      </trkpt>
      <trkpt lat="44.25691" lon="0.8478">
        <ele>128</ele>
        <time>2025-08-17T08:27:34.569Z</time>
      </trkpt>
      <trkpt lat="44.2569" lon="0.84779">
        <ele>128</ele>
        <time>2025-08-17T08:27:35.569Z</time>
      </trkpt>
      <trkpt lat="44.2569" lon="0.84778">
        <ele>127</ele>
        <time>2025-08-17T08:27:36.569Z</time>
      </trkpt>
      <trkpt lat="44.25689" lon="0.84777">
        <ele>127</ele>
        <time>2025-08-17T08:27:37.569Z</time>
      </trkpt>
      <trkpt lat="44.25688" lon="0.84776">
        <ele>127</ele>
        <time>2025-08-17T08:27:38.569Z</time>
      </trkpt>
      <trkpt lat="44.25688" lon="0.84775">
        <ele>127</ele>
        <time>2025-08-17T08:27:39.569Z</time>
      </trkpt>
      <trkpt lat="44.25688" lon="0.84774">
        <ele>126</ele>
        <time>2025-08-17T08:27:40.569Z</time>
      </trkpt>
      <trkpt lat="44.25687" lon="0.84773">
        <ele>126</ele>
        <time>2025-08-17T08:27:41.569Z</time>
      </trkpt>
      <trkpt lat="44.25687" lon="0.84772">
        <ele>126</ele>
        <time>2025-08-17T08:27:42.569Z</time>
      </trkpt>
      <trkpt lat="44.25686" lon="0.84772">
        <ele>126</ele>
        <time>2025-08-17T08:27:43.569Z</time>
      </trkpt>
      <trkpt lat="44.25685" lon="0.84771">
        <ele>126</ele>
        <time>2025-08-17T08:27:44.569Z</time>
      </trkpt>
      <trkpt lat="44.25685" lon="0.84769">
        <ele>126</ele>
        <time>2025-08-17T08:27:45.569Z</time>
      </trkpt>
      <trkpt lat="44.25684" lon="0.84768">
        <ele>126</ele>
        <time>2025-08-17T08:27:46.569Z</time>
      </trkpt>
      <trkpt lat="44.25683" lon="0.84766">
        <ele>126</ele>
        <time>2025-08-17T08:27:47.569Z</time>
      </trkpt>
      <trkpt lat="44.25683" lon="0.84765">
        <ele>127</ele>
        <time>2025-08-17T08:27:48.569Z</time>
      </trkpt>
      <trkpt lat="44.25682" lon="0.84764">
        <ele>128</ele>
        <time>2025-08-17T08:27:49.569Z</time>
      </trkpt>
      <trkpt lat="44.25681" lon="0.84763">
        <ele>128</ele>
        <time>2025-08-17T08:27:50.569Z</time>
      </trkpt>
      <trkpt lat="44.25681" lon="0.84762">
        <ele>128</ele>
        <time>2025-08-17T08:27:51.569Z</time>
      </trkpt>
      <trkpt lat="44.2568" lon="0.84761">
        <ele>129</ele>
        <time>2025-08-17T08:27:52.569Z</time>
      </trkpt>
      <trkpt lat="44.25679" lon="0.8476">
        <ele>129</ele>
        <time>2025-08-17T08:27:53.569Z</time>
      </trkpt>
      <trkpt lat="44.25679" lon="0.84759">
        <ele>129</ele>
        <time>2025-08-17T08:27:54.569Z</time>
      </trkpt>
      <trkpt lat="44.25678" lon="0.84758">
        <ele>129</ele>
        <time>2025-08-17T08:27:55.569Z</time>
      </trkpt>
      <trkpt lat="44.25677" lon="0.84757">
        <ele>129</ele>
        <time>2025-08-17T08:27:56.569Z</time>
      </trkpt>
      <trkpt lat="44.25677" lon="0.84756">
        <ele>129</ele>
        <time>2025-08-17T08:27:57.569Z</time>
      </trkpt>
      <trkpt lat="44.25676" lon="0.84755">
        <ele>129</ele>
        <time>2025-08-17T08:27:58.569Z</time>
      </trkpt>
      <trkpt lat="44.25675" lon="0.84754">
        <ele>130</ele>
        <time>2025-08-17T08:27:59.569Z</time>
      </trkpt>
      <trkpt lat="44.25675" lon="0.84753">
        <ele>130</ele>
        <time>2025-08-17T08:28:00.569Z</time>
      </trkpt>
      <trkpt lat="44.25674" lon="0.84752">
        <ele>131</ele>
        <time>2025-08-17T08:28:01.569Z</time>
      </trkpt>
      <trkpt lat="44.25673" lon="0.84751">
        <ele>131</ele>
        <time>2025-08-17T08:28:02.569Z</time>
      </trkpt>
      <trkpt lat="44.25673" lon="0.8475">
        <ele>132</ele>
        <time>2025-08-17T08:28:03.569Z</time>
      </trkpt>
      <trkpt lat="44.25672" lon="0.84749">
        <ele>132</ele>
        <time>2025-08-17T08:28:04.569Z</time>
      </trkpt>
      <trkpt lat="44.25672" lon="0.84748">
        <ele>132</ele>
        <time>2025-08-17T08:28:05.569Z</time>
      </trkpt>
      <trkpt lat="44.25671" lon="0.84747">
        <ele>132</ele>
        <time>2025-08-17T08:28:06.569Z</time>
      </trkpt>
      <trkpt lat="44.25671" lon="0.84746">
        <ele>132</ele>
        <time>2025-08-17T08:28:07.569Z</time>
      </trkpt>
      <trkpt lat="44.2567" lon="0.84745">
        <ele>132</ele>
        <time>2025-08-17T08:28:08.569Z</time>
      </trkpt>
      <trkpt lat="44.25669" lon="0.84744">
        <ele>132</ele>
        <time>2025-08-17T08:28:09.569Z</time>
      </trkpt>
      <trkpt lat="44.25669" lon="0.84743">
        <ele>132</ele>
        <time>2025-08-17T08:28:10.569Z</time>
      </trkpt>
      <trkpt lat="44.25668" lon="0.84743">
        <ele>132</ele>
        <time>2025-08-17T08:28:11.569Z</time>
      </trkpt>
      <trkpt lat="44.25668" lon="0.84742">
        <ele>131</ele>
        <time>2025-08-17T08:28:12.569Z</time>
      </trkpt>
      <trkpt lat="44.25667" lon="0.84742">
        <ele>131</ele>
        <time>2025-08-17T08:28:13.569Z</time>
      </trkpt>
      <trkpt lat="44.25667" lon="0.84741">
        <ele>132</ele>
        <time>2025-08-17T08:28:14.569Z</time>
      </trkpt>
      <trkpt lat="44.25666" lon="0.8474">
        <ele>132</ele>
        <time>2025-08-17T08:28:15.569Z</time>
      </trkpt>
      <trkpt lat="44.25666" lon="0.84739">
        <ele>132</ele>
        <time>2025-08-17T08:28:16.569Z</time>
      </trkpt>
      <trkpt lat="44.25665" lon="0.84738">
        <ele>132</ele>
        <time>2025-08-17T08:28:17.569Z</time>
      </trkpt>
      <trkpt lat="44.25664" lon="0.84737">
        <ele>132</ele>
        <time>2025-08-17T08:28:18.569Z</time>
      </trkpt>
      <trkpt lat="44.25664" lon="0.84736">
        <ele>132</ele>
        <time>2025-08-17T08:28:19.569Z</time>
      </trkpt>
      <trkpt lat="44.25663" lon="0.84735">
        <ele>133</ele>
        <time>2025-08-17T08:28:20.569Z</time>
      </trkpt>
      <trkpt lat="44.25662" lon="0.84734">
        <ele>133</ele>
        <time>2025-08-17T08:28:21.569Z</time>
      </trkpt>
      <trkpt lat="44.25662" lon="0.84733">
        <ele>133</ele>
        <time>2025-08-17T08:28:22.569Z</time>
      </trkpt>
      <trkpt lat="44.25661" lon="0.84732">
        <ele>133</ele>
        <time>2025-08-17T08:28:23.569Z</time>
      </trkpt>
      <trkpt lat="44.25661" lon="0.84731">
        <ele>133</ele>
        <time>2025-08-17T08:28:24.569Z</time>
      </trkpt>
      <trkpt lat="44.2566" lon="0.8473">
        <ele>133</ele>
        <time>2025-08-17T08:28:25.569Z</time>
      </trkpt>
      <trkpt lat="44.25659" lon="0.8473">
        <ele>134</ele>
        <time>2025-08-17T08:28:26.569Z</time>
      </trkpt>
      <trkpt lat="44.25658" lon="0.84729">
        <ele>134</ele>
        <time>2025-08-17T08:28:27.569Z</time>
      </trkpt>
      <trkpt lat="44.25658" lon="0.84728">
        <ele>134</ele>
        <time>2025-08-17T08:28:28.569Z</time>
      </trkpt>
      <trkpt lat="44.25657" lon="0.84727">
        <ele>134</ele>
        <time>2025-08-17T08:28:29.569Z</time>
      </trkpt>
      <trkpt lat="44.25657" lon="0.84726">
        <ele>135</ele>
        <time>2025-08-17T08:28:30.569Z</time>
      </trkpt>
      <trkpt lat="44.25656" lon="0.84726">
        <ele>135</ele>
        <time>2025-08-17T08:28:31.569Z</time>
      </trkpt>
      <trkpt lat="44.25656" lon="0.84725">
        <ele>135</ele>
        <time>2025-08-17T08:28:32.569Z</time>
      </trkpt>
      <trkpt lat="44.25655" lon="0.84724">
        <ele>135</ele>
        <time>2025-08-17T08:28:33.569Z</time>
      </trkpt>
      <trkpt lat="44.25654" lon="0.84722">
        <ele>135</ele>
        <time>2025-08-17T08:28:34.569Z</time>
      </trkpt>
      <trkpt lat="44.25654" lon="0.84721">
        <ele>135</ele>
        <time>2025-08-17T08:28:35.569Z</time>
      </trkpt>
      <trkpt lat="44.25653" lon="0.8472">
        <ele>135</ele>
        <time>2025-08-17T08:28:36.569Z</time>
      </trkpt>
      <trkpt lat="44.25653" lon="0.84719">
        <ele>136</ele>
        <time>2025-08-17T08:28:37.569Z</time>
      </trkpt>
      <trkpt lat="44.25652" lon="0.84718">
        <ele>136</ele>
        <time>2025-08-17T08:28:38.569Z</time>
      </trkpt>
      <trkpt lat="44.25651" lon="0.84717">
        <ele>136</ele>
        <time>2025-08-17T08:28:39.569Z</time>
      </trkpt>
      <trkpt lat="44.25651" lon="0.84717">
        <ele>136</ele>
        <time>2025-08-17T08:28:40.569Z</time>
      </trkpt>
      <trkpt lat="44.2565" lon="0.84716">
        <ele>136</ele>
        <time>2025-08-17T08:28:41.569Z</time>
      </trkpt>
      <trkpt lat="44.25649" lon="0.84715">
        <ele>136</ele>
        <time>2025-08-17T08:28:42.569Z</time>
      </trkpt>
      <trkpt lat="44.25649" lon="0.84714">
        <ele>136</ele>
        <time>2025-08-17T08:28:43.569Z</time>
      </trkpt>
      <trkpt lat="44.25648" lon="0.84714">
        <ele>136</ele>
        <time>2025-08-17T08:28:44.569Z</time>
      </trkpt>
      <trkpt lat="44.25647" lon="0.84712">
        <ele>137</ele>
        <time>2025-08-17T08:28:45.569Z</time>
      </trkpt>
      <trkpt lat="44.25647" lon="0.84711">
        <ele>137</ele>
        <time>2025-08-17T08:28:46.569Z</time>
      </trkpt>
      <trkpt lat="44.25646" lon="0.84711">
        <ele>137</ele>
        <time>2025-08-17T08:28:47.569Z</time>
      </trkpt>
      <trkpt lat="44.25646" lon="0.8471">
        <ele>137</ele>
        <time>2025-08-17T08:28:48.569Z</time>
      </trkpt>
      <trkpt lat="44.25645" lon="0.84708">
        <ele>137</ele>
        <time>2025-08-17T08:28:49.569Z</time>
      </trkpt>
      <trkpt lat="44.25644" lon="0.84707">
        <ele>137</ele>
        <time>2025-08-17T08:28:50.569Z</time>
      </trkpt>
      <trkpt lat="44.25644" lon="0.84706">
        <ele>138</ele>
        <time>2025-08-17T08:28:51.569Z</time>
      </trkpt>
      <trkpt lat="44.25643" lon="0.84705">
        <ele>138</ele>
        <time>2025-08-17T08:28:52.569Z</time>
      </trkpt>
      <trkpt lat="44.25642" lon="0.84705">
        <ele>138</ele>
        <time>2025-08-17T08:28:53.569Z</time>
      </trkpt>
      <trkpt lat="44.25642" lon="0.84704">
        <ele>138</ele>
        <time>2025-08-17T08:28:54.569Z</time>
      </trkpt>
      <trkpt lat="44.25641" lon="0.84703">
        <ele>138</ele>
        <time>2025-08-17T08:28:55.569Z</time>
      </trkpt>
      <trkpt lat="44.2564" lon="0.84702">
        <ele>138</ele>
        <time>2025-08-17T08:28:56.569Z</time>
      </trkpt>
      <trkpt lat="44.25639" lon="0.84701">
        <ele>139</ele>
        <time>2025-08-17T08:28:57.569Z</time>
      </trkpt>
      <trkpt lat="44.25639" lon="0.847">
        <ele>139</ele>
        <time>2025-08-17T08:28:58.569Z</time>
      </trkpt>
      <trkpt lat="44.25638" lon="0.84699">
        <ele>139</ele>
        <time>2025-08-17T08:28:59.569Z</time>
      </trkpt>
      <trkpt lat="44.25638" lon="0.84698">
        <ele>139</ele>
        <time>2025-08-17T08:29:00.569Z</time>
      </trkpt>
      <trkpt lat="44.25638" lon="0.84698">
        <ele>139</ele>
        <time>2025-08-17T08:29:01.569Z</time>
      </trkpt>
      <trkpt lat="44.25637" lon="0.84696">
        <ele>138</ele>
        <time>2025-08-17T08:29:02.569Z</time>
      </trkpt>
      <trkpt lat="44.25636" lon="0.84695">
        <ele>138</ele>
        <time>2025-08-17T08:29:03.569Z</time>
      </trkpt>
      <trkpt lat="44.25636" lon="0.84695">
        <ele>138</ele>
        <time>2025-08-17T08:29:04.569Z</time>
      </trkpt>
      <trkpt lat="44.25635" lon="0.84693">
        <ele>139</ele>
        <time>2025-08-17T08:29:05.569Z</time>
      </trkpt>
      <trkpt lat="44.25634" lon="0.84692">
        <ele>139</ele>
        <time>2025-08-17T08:29:06.569Z</time>
      </trkpt>
      <trkpt lat="44.25634" lon="0.84691">
        <ele>139</ele>
        <time>2025-08-17T08:29:07.569Z</time>
      </trkpt>
      <trkpt lat="44.25633" lon="0.8469">
        <ele>139</ele>
        <time>2025-08-17T08:29:08.569Z</time>
      </trkpt>
      <trkpt lat="44.25633" lon="0.84689">
        <ele>139</ele>
        <time>2025-08-17T08:29:09.569Z</time>
      </trkpt>
      <trkpt lat="44.25632" lon="0.84689">
        <ele>140</ele>
        <time>2025-08-17T08:29:10.569Z</time>
      </trkpt>
      <trkpt lat="44.25632" lon="0.84688">
        <ele>140</ele>
        <time>2025-08-17T08:29:11.569Z</time>
      </trkpt>
      <trkpt lat="44.25631" lon="0.84687">
        <ele>140</ele>
        <time>2025-08-17T08:29:12.569Z</time>
      </trkpt>
      <trkpt lat="44.25631" lon="0.84686">
        <ele>140</ele>
        <time>2025-08-17T08:29:13.569Z</time>
      </trkpt>
      <trkpt lat="44.2563" lon="0.84685">
        <ele>140</ele>
        <time>2025-08-17T08:29:14.569Z</time>
      </trkpt>
      <trkpt lat="44.25629" lon="0.84685">
        <ele>140</ele>
        <time>2025-08-17T08:29:15.569Z</time>
      </trkpt>
      <trkpt lat="44.25629" lon="0.84684">
        <ele>140</ele>
        <time>2025-08-17T08:29:16.569Z</time>
      </trkpt>
      <trkpt lat="44.25628" lon="0.84683">
        <ele>140</ele>
        <time>2025-08-17T08:29:17.569Z</time>
      </trkpt>
      <trkpt lat="44.25628" lon="0.84682">
        <ele>140</ele>
        <time>2025-08-17T08:29:18.569Z</time>
      </trkpt>
      <trkpt lat="44.25627" lon="0.84682">
        <ele>140</ele>
        <time>2025-08-17T08:29:19.569Z</time>
      </trkpt>
      <trkpt lat="44.25626" lon="0.84681">
        <ele>140</ele>
        <time>2025-08-17T08:29:20.569Z</time>
      </trkpt>
      <trkpt lat="44.25625" lon="0.84681">
        <ele>140</ele>
        <time>2025-08-17T08:29:21.569Z</time>
      </trkpt>
      <trkpt lat="44.25625" lon="0.8468">
        <ele>141</ele>
        <time>2025-08-17T08:29:22.569Z</time>
      </trkpt>
      <trkpt lat="44.25624" lon="0.84679">
        <ele>141</ele>
        <time>2025-08-17T08:29:23.569Z</time>
      </trkpt>
      <trkpt lat="44.25624" lon="0.84678">
        <ele>141</ele>
        <time>2025-08-17T08:29:24.569Z</time>
      </trkpt>
      <trkpt lat="44.25623" lon="0.84677">
        <ele>141</ele>
        <time>2025-08-17T08:29:25.569Z</time>
      </trkpt>
      <trkpt lat="44.25623" lon="0.84675">
        <ele>142</ele>
        <time>2025-08-17T08:29:26.569Z</time>
      </trkpt>
      <trkpt lat="44.25622" lon="0.84675">
        <ele>142</ele>
        <time>2025-08-17T08:29:27.569Z</time>
      </trkpt>
      <trkpt lat="44.25622" lon="0.84674">
        <ele>142</ele>
        <time>2025-08-17T08:29:28.569Z</time>
      </trkpt>
      <trkpt lat="44.25621" lon="0.84673">
        <ele>142</ele>
        <time>2025-08-17T08:29:29.569Z</time>
      </trkpt>
      <trkpt lat="44.2562" lon="0.84672">
        <ele>142</ele>
        <time>2025-08-17T08:29:30.569Z</time>
      </trkpt>
      <trkpt lat="44.2562" lon="0.84671">
        <ele>143</ele>
        <time>2025-08-17T08:29:31.569Z</time>
      </trkpt>
      <trkpt lat="44.25619" lon="0.84671">
        <ele>143</ele>
        <time>2025-08-17T08:29:32.569Z</time>
      </trkpt>
      <trkpt lat="44.25619" lon="0.8467">
        <ele>142</ele>
        <time>2025-08-17T08:29:33.569Z</time>
      </trkpt>
      <trkpt lat="44.25618" lon="0.84669">
        <ele>142</ele>
        <time>2025-08-17T08:29:34.569Z</time>
      </trkpt>
      <trkpt lat="44.25618" lon="0.84668">
        <ele>142</ele>
        <time>2025-08-17T08:29:35.569Z</time>
      </trkpt>
      <trkpt lat="44.25618" lon="0.84667">
        <ele>142</ele>
        <time>2025-08-17T08:29:36.569Z</time>
      </trkpt>
      <trkpt lat="44.25617" lon="0.84665">
        <ele>142</ele>
        <time>2025-08-17T08:29:37.569Z</time>
      </trkpt>
      <trkpt lat="44.25617" lon="0.84665">
        <ele>142</ele>
        <time>2025-08-17T08:29:38.569Z</time>
      </trkpt>
      <trkpt lat="44.25616" lon="0.84664">
        <ele>142</ele>
        <time>2025-08-17T08:29:39.569Z</time>
      </trkpt>
      <trkpt lat="44.25616" lon="0.84663">
        <ele>142</ele>
        <time>2025-08-17T08:29:40.569Z</time>
      </trkpt>
      <trkpt lat="44.25615" lon="0.84662">
        <ele>142</ele>
        <time>2025-08-17T08:29:41.569Z</time>
      </trkpt>
      <trkpt lat="44.25615" lon="0.84661">
        <ele>142</ele>
        <time>2025-08-17T08:29:42.569Z</time>
      </trkpt>
      <trkpt lat="44.25614" lon="0.8466">
        <ele>142</ele>
        <time>2025-08-17T08:29:43.569Z</time>
      </trkpt>
      <trkpt lat="44.25614" lon="0.84659">
        <ele>143</ele>
        <time>2025-08-17T08:29:44.569Z</time>
      </trkpt>
      <trkpt lat="44.25613" lon="0.84659">
        <ele>143</ele>
        <time>2025-08-17T08:29:45.569Z</time>
      </trkpt>
      <trkpt lat="44.25613" lon="0.84658">
        <ele>144</ele>
        <time>2025-08-17T08:29:46.569Z</time>
      </trkpt>
      <trkpt lat="44.25612" lon="0.84657">
        <ele>144</ele>
        <time>2025-08-17T08:29:47.569Z</time>
      </trkpt>
      <trkpt lat="44.25612" lon="0.84657">
        <ele>145</ele>
        <time>2025-08-17T08:29:48.569Z</time>
      </trkpt>
      <trkpt lat="44.25612" lon="0.84656">
        <ele>145</ele>
        <time>2025-08-17T08:29:49.569Z</time>
      </trkpt>
      <trkpt lat="44.25611" lon="0.84656">
        <ele>145</ele>
        <time>2025-08-17T08:29:50.569Z</time>
      </trkpt>
      <trkpt lat="44.25611" lon="0.84655">
        <ele>145</ele>
        <time>2025-08-17T08:29:51.569Z</time>
      </trkpt>
      <trkpt lat="44.25611" lon="0.84655">
        <ele>145</ele>
        <time>2025-08-17T08:29:52.569Z</time>
      </trkpt>
      <trkpt lat="44.25611" lon="0.84655">
        <ele>145</ele>
        <time>2025-08-17T08:29:53.569Z</time>
      </trkpt>
      <trkpt lat="44.2561" lon="0.84655">
        <ele>146</ele>
        <time>2025-08-17T08:29:54.569Z</time>
      </trkpt>
      <trkpt lat="44.2561" lon="0.84654">
        <ele>146</ele>
        <time>2025-08-17T08:29:55.569Z</time>
      </trkpt>
      <trkpt lat="44.2561" lon="0.84654">
        <ele>146</ele>
        <time>2025-08-17T08:29:56.569Z</time>
      </trkpt>
      <trkpt lat="44.2561" lon="0.84654">
        <ele>146</ele>
        <time>2025-08-17T08:29:57.569Z</time>
      </trkpt>
      <trkpt lat="44.2561" lon="0.84654">
        <ele>146</ele>
        <time>2025-08-17T08:29:58.569Z</time>
      </trkpt>
      <trkpt lat="44.2561" lon="0.84654">
        <ele>146</ele>
        <time>2025-08-17T08:29:59.569Z</time>
      </trkpt>
      <trkpt lat="44.2561" lon="0.84654">
        <ele>146</ele>
        <time>2025-08-17T08:30:00.569Z</time>
      </trkpt>
      <trkpt lat="44.2561" lon="0.84654">
        <ele>146</ele>
        <time>2025-08-17T08:30:01.569Z</time>
      </trkpt>
      <trkpt lat="44.2561" lon="0.84654">
        <ele>146</ele>
        <time>2025-08-17T08:30:02.569Z</time>
      </trkpt>
      <trkpt lat="44.2561" lon="0.84654">
        <ele>146</ele>
        <time>2025-08-17T08:30:03.569Z</time>
      </trkpt>
      <trkpt lat="44.2561" lon="0.84654">
        <ele>146</ele>
        <time>2025-08-17T08:30:04.569Z</time>
      </trkpt>
      <trkpt lat="44.2561" lon="0.84654">
        <ele>146</ele>
        <time>2025-08-17T08:30:05.569Z</time>
      </trkpt>
      <trkpt lat="44.2561" lon="0.84653">
        <ele>146</ele>
        <time>2025-08-17T08:30:06.569Z</time>
      </trkpt>
      <trkpt lat="44.2561" lon="0.84653">
        <ele>147</ele>
        <time>2025-08-17T08:30:07.569Z</time>
      </trkpt>
      <trkpt lat="44.2561" lon="0.84653">
        <ele>147</ele>
        <time>2025-08-17T08:30:08.569Z</time>
      </trkpt>
      <trkpt lat="44.2561" lon="0.84653">
        <ele>147</ele>
        <time>2025-08-17T08:30:09.569Z</time>
      </trkpt>
      <trkpt lat="44.2561" lon="0.84652">
        <ele>147</ele>
        <time>2025-08-17T08:30:10.569Z</time>
      </trkpt>
      <trkpt lat="44.2561" lon="0.84652">
        <ele>148</ele>
        <time>2025-08-17T08:30:11.569Z</time>
      </trkpt>
      <trkpt lat="44.2561" lon="0.84652">
        <ele>148</ele>
        <time>2025-08-17T08:30:12.569Z</time>
      </trkpt>
      <trkpt lat="44.2561" lon="0.84651">
        <ele>148</ele>
        <time>2025-08-17T08:30:13.569Z</time>
      </trkpt>
      <trkpt lat="44.2561" lon="0.84651">
        <ele>148</ele>
        <time>2025-08-17T08:30:14.569Z</time>
      </trkpt>
      <trkpt lat="44.2561" lon="0.84651">
        <ele>148</ele>
        <time>2025-08-17T08:30:15.569Z</time>
      </trkpt>
      <trkpt lat="44.2561" lon="0.8465">
        <ele>148</ele>
        <time>2025-08-17T08:30:16.569Z</time>
      </trkpt>
      <trkpt lat="44.2561" lon="0.8465">
        <ele>148</ele>
        <time>2025-08-17T08:30:17.569Z</time>
      </trkpt>
      <trkpt lat="44.2561" lon="0.84651">
        <ele>148</ele>
        <time>2025-08-17T08:30:18.569Z</time>
      </trkpt>
      <trkpt lat="44.2561" lon="0.84651">
        <ele>148</ele>
        <time>2025-08-17T08:30:19.569Z</time>
      </trkpt>
      <trkpt lat="44.2561" lon="0.8465">
        <ele>148</ele>
        <time>2025-08-17T08:30:20.569Z</time>
      </trkpt>
      <trkpt lat="44.2561" lon="0.8465">
        <ele>148</ele>
        <time>2025-08-17T08:30:21.569Z</time>
      </trkpt>
      <trkpt lat="44.2561" lon="0.8465">
        <ele>148</ele>
        <time>2025-08-17T08:30:22.569Z</time>
      </trkpt>
      <trkpt lat="44.25611" lon="0.84649">
        <ele>148</ele>
        <time>2025-08-17T08:30:23.569Z</time>
      </trkpt>
      <trkpt lat="44.25611" lon="0.84649">
        <ele>148</ele>
        <time>2025-08-17T08:30:24.569Z</time>
      </trkpt>
      <trkpt lat="44.25611" lon="0.84649">
        <ele>148</ele>
        <time>2025-08-17T08:30:25.569Z</time>
      </trkpt>
      <trkpt lat="44.25611" lon="0.84648">
        <ele>148</ele>
        <time>2025-08-17T08:30:26.569Z</time>
      </trkpt>
      <trkpt lat="44.25611" lon="0.84648">
        <ele>148</ele>
        <time>2025-08-17T08:30:27.569Z</time>
      </trkpt>
      <trkpt lat="44.25612" lon="0.84648">
        <ele>148</ele>
        <time>2025-08-17T08:30:28.569Z</time>
      </trkpt>
      <trkpt lat="44.25612" lon="0.84648">
        <ele>148</ele>
        <time>2025-08-17T08:30:29.569Z</time>
      </trkpt>
      <trkpt lat="44.25612" lon="0.84648">
        <ele>149</ele>
        <time>2025-08-17T08:30:30.569Z</time>
      </trkpt>
      <trkpt lat="44.25612" lon="0.84648">
        <ele>149</ele>
        <time>2025-08-17T08:30:31.569Z</time>
      </trkpt>
      <trkpt lat="44.25612" lon="0.84648">
        <ele>149</ele>
        <time>2025-08-17T08:30:32.569Z</time>
      </trkpt>
      <trkpt lat="44.25612" lon="0.84648">
        <ele>150</ele>
        <time>2025-08-17T08:30:33.569Z</time>
      </trkpt>
      <trkpt lat="44.25612" lon="0.84648">
        <ele>150</ele>
        <time>2025-08-17T08:30:34.569Z</time>
      </trkpt>
      <trkpt lat="44.25612" lon="0.84648">
        <ele>150</ele>
        <time>2025-08-17T08:30:35.569Z</time>
      </trkpt>
      <trkpt lat="44.25612" lon="0.84648">
        <ele>150</ele>
        <time>2025-08-17T08:30:36.569Z</time>
      </trkpt>
      <trkpt lat="44.25612" lon="0.84648">
        <ele>150</ele>
        <time>2025-08-17T08:30:37.569Z</time>
      </trkpt>
      <trkpt lat="44.25612" lon="0.84648">
        <ele>149</ele>
        <time>2025-08-17T08:30:38.569Z</time>
      </trkpt>
      <trkpt lat="44.25612" lon="0.84648">
        <ele>149</ele>
        <time>2025-08-17T08:30:39.569Z</time>
      </trkpt>
      <trkpt lat="44.25612" lon="0.84648">
        <ele>149</ele>
        <time>2025-08-17T08:30:40.569Z</time>
      </trkpt>
      <trkpt lat="44.25612" lon="0.84648">
        <ele>148</ele>
        <time>2025-08-17T08:30:41.569Z</time>
      </trkpt>
      <trkpt lat="44.25612" lon="0.84648">
        <ele>148</ele>
        <time>2025-08-17T08:30:42.569Z</time>
      </trkpt>
      <trkpt lat="44.25612" lon="0.84648">
        <ele>148</ele>
        <time>2025-08-17T08:30:43.569Z</time>
      </trkpt>
      <trkpt lat="44.25612" lon="0.84648">
        <ele>148</ele>
        <time>2025-08-17T08:30:44.569Z</time>
      </trkpt>
      <trkpt lat="44.25612" lon="0.84648">
        <ele>148</ele>
        <time>2025-08-17T08:30:45.569Z</time>
      </trkpt>
      <trkpt lat="44.25612" lon="0.84648">
        <ele>148</ele>
        <time>2025-08-17T08:30:46.569Z</time>
      </trkpt>
      <trkpt lat="44.25612" lon="0.84648">
        <ele>147</ele>
        <time>2025-08-17T08:30:47.569Z</time>
      </trkpt>
      <trkpt lat="44.25611" lon="0.84648">
        <ele>147</ele>
        <time>2025-08-17T08:30:48.569Z</time>
      </trkpt>
      <trkpt lat="44.25611" lon="0.84648">
        <ele>147</ele>
        <time>2025-08-17T08:30:49.569Z</time>
      </trkpt>
      <trkpt lat="44.25611" lon="0.84648">
        <ele>147</ele>
        <time>2025-08-17T08:30:50.569Z</time>
      </trkpt>
      <trkpt lat="44.25611" lon="0.84648">
        <ele>147</ele>
        <time>2025-08-17T08:30:51.569Z</time>
      </trkpt>
      <trkpt lat="44.25611" lon="0.84648">
        <ele>147</ele>
        <time>2025-08-17T08:30:52.569Z</time>
      </trkpt>
      <trkpt lat="44.25611" lon="0.84648">
        <ele>147</ele>
        <time>2025-08-17T08:30:53.569Z</time>
      </trkpt>
      <trkpt lat="44.25611" lon="0.84648">
        <ele>147</ele>
        <time>2025-08-17T08:30:54.569Z</time>
      </trkpt>
      <trkpt lat="44.25611" lon="0.84647">
        <ele>147</ele>
        <time>2025-08-17T08:30:55.569Z</time>
      </trkpt>
      <trkpt lat="44.25611" lon="0.84647">
        <ele>147</ele>
        <time>2025-08-17T08:30:56.569Z</time>
      </trkpt>
      <trkpt lat="44.25611" lon="0.84647">
        <ele>147</ele>
        <time>2025-08-17T08:30:57.569Z</time>
      </trkpt>
      <trkpt lat="44.25611" lon="0.84647">
        <ele>147</ele>
        <time>2025-08-17T08:30:58.569Z</time>
      </trkpt>
      <trkpt lat="44.25611" lon="0.84648">
        <ele>147</ele>
        <time>2025-08-17T08:30:59.569Z</time>
      </trkpt>
      <trkpt lat="44.25611" lon="0.84648">
        <ele>147</ele>
        <time>2025-08-17T08:31:00.569Z</time>
      </trkpt>
      <trkpt lat="44.25611" lon="0.84648">
        <ele>147</ele>
        <time>2025-08-17T08:31:01.569Z</time>
      </trkpt>
      <trkpt lat="44.25611" lon="0.84648">
        <ele>147</ele>
        <time>2025-08-17T08:31:02.569Z</time>
      </trkpt>
      <trkpt lat="44.25611" lon="0.84648">
        <ele>147</ele>
        <time>2025-08-17T08:31:03.569Z</time>
      </trkpt>
      <trkpt lat="44.25611" lon="0.84648">
        <ele>147</ele>
        <time>2025-08-17T08:31:04.569Z</time>
      </trkpt>
      <trkpt lat="44.25611" lon="0.84648">
        <ele>147</ele>
        <time>2025-08-17T08:31:05.569Z</time>
      </trkpt>
      <trkpt lat="44.25611" lon="0.84648">
        <ele>147</ele>
        <time>2025-08-17T08:31:06.569Z</time>
      </trkpt>
      <trkpt lat="44.25611" lon="0.84648">
        <ele>147</ele>
        <time>2025-08-17T08:31:07.569Z</time>
      </trkpt>
      <trkpt lat="44.25611" lon="0.84648">
        <ele>147</ele>
        <time>2025-08-17T08:31:08.569Z</time>
      </trkpt>
      <trkpt lat="44.25611" lon="0.84648">
        <ele>147</ele>
        <time>2025-08-17T08:31:09.569Z</time>
      </trkpt>
      <trkpt lat="44.25611" lon="0.84647">
        <ele>147</ele>
        <time>2025-08-17T08:31:10.569Z</time>
      </trkpt>
      <trkpt lat="44.25611" lon="0.84647">
        <ele>147</ele>
        <time>2025-08-17T08:31:11.569Z</time>
      </trkpt>
      <trkpt lat="44.25611" lon="0.84647">
        <ele>147</ele>
        <time>2025-08-17T08:31:12.569Z</time>
      </trkpt>
      <trkpt lat="44.25611" lon="0.84647">
        <ele>147</ele>
        <time>2025-08-17T08:31:13.569Z</time>
      </trkpt>
      <trkpt lat="44.25611" lon="0.84647">
        <ele>147</ele>
        <time>2025-08-17T08:31:14.569Z</time>
      </trkpt>
      <trkpt lat="44.25611" lon="0.84647">
        <ele>147</ele>
        <time>2025-08-17T08:31:15.569Z</time>
      </trkpt>
      <trkpt lat="44.25611" lon="0.84647">
        <ele>147</ele>
        <time>2025-08-17T08:31:16.569Z</time>
      </trkpt>
      <trkpt lat="44.25611" lon="0.84647">
        <ele>147</ele>
        <time>2025-08-17T08:31:17.569Z</time>
      </trkpt>
      <trkpt lat="44.25611" lon="0.84647">
        <ele>147</ele>
        <time>2025-08-17T08:31:18.569Z</time>
      </trkpt>
      <trkpt lat="44.25611" lon="0.84647">
        <ele>147</ele>
        <time>2025-08-17T08:31:19.569Z</time>
      </trkpt>
      <trkpt lat="44.25611" lon="0.84647">
        <ele>147</ele>
        <time>2025-08-17T08:31:20.569Z</time>
      </trkpt>
      <trkpt lat="44.25611" lon="0.84647">
        <ele>147</ele>
        <time>2025-08-17T08:31:21.569Z</time>
      </trkpt>
      <trkpt lat="44.25611" lon="0.84647">
        <ele>147</ele>
        <time>2025-08-17T08:31:22.570Z</time>
      </trkpt>
      <trkpt lat="44.25611" lon="0.84647">
        <ele>148</ele>
        <time>2025-08-17T08:31:23.569Z</time>
      </trkpt>
      <trkpt lat="44.25611" lon="0.84647">
        <ele>148</ele>
        <time>2025-08-17T08:31:24.569Z</time>
      </trkpt>
      <trkpt lat="44.25611" lon="0.84647">
        <ele>149</ele>
        <time>2025-08-17T08:31:25.569Z</time>
      </trkpt>
      <trkpt lat="44.25611" lon="0.84647">
        <ele>149</ele>
        <time>2025-08-17T08:31:26.569Z</time>
      </trkpt>
      <trkpt lat="44.25611" lon="0.84646">
        <ele>149</ele>
        <time>2025-08-17T08:31:27.569Z</time>
      </trkpt>
      <trkpt lat="44.25611" lon="0.84646">
        <ele>148</ele>
        <time>2025-08-17T08:31:28.569Z</time>
      </trkpt>
      <trkpt lat="44.25611" lon="0.84646">
        <ele>148</ele>
        <time>2025-08-17T08:31:29.569Z</time>
      </trkpt>
      <trkpt lat="44.25611" lon="0.84646">
        <ele>148</ele>
        <time>2025-08-17T08:31:30.569Z</time>
      </trkpt>
      <trkpt lat="44.25611" lon="0.84646">
        <ele>148</ele>
        <time>2025-08-17T08:31:31.569Z</time>
      </trkpt>
      <trkpt lat="44.25611" lon="0.84646">
        <ele>147</ele>
        <time>2025-08-17T08:31:32.569Z</time>
      </trkpt>
      <trkpt lat="44.25611" lon="0.84646">
        <ele>147</ele>
        <time>2025-08-17T08:31:33.569Z</time>
      </trkpt>
      <trkpt lat="44.25611" lon="0.84646">
        <ele>147</ele>
        <time>2025-08-17T08:31:34.569Z</time>
      </trkpt>
      <trkpt lat="44.25611" lon="0.84646">
        <ele>147</ele>
        <time>2025-08-17T08:31:35.569Z</time>
      </trkpt>
      <trkpt lat="44.25611" lon="0.84646">
        <ele>147</ele>
        <time>2025-08-17T08:31:36.569Z</time>
      </trkpt>
      <trkpt lat="44.25611" lon="0.84646">
        <ele>146</ele>
        <time>2025-08-17T08:31:37.569Z</time>
      </trkpt>
      <trkpt lat="44.25611" lon="0.84646">
        <ele>146</ele>
        <time>2025-08-17T08:31:38.569Z</time>
      </trkpt>
      <trkpt lat="44.25611" lon="0.84646">
        <ele>146</ele>
        <time>2025-08-17T08:31:39.569Z</time>
      </trkpt>
      <trkpt lat="44.25611" lon="0.84646">
        <ele>146</ele>
        <time>2025-08-17T08:31:40.569Z</time>
      </trkpt>
      <trkpt lat="44.25612" lon="0.84646">
        <ele>146</ele>
        <time>2025-08-17T08:31:41.569Z</time>
      </trkpt>
      <trkpt lat="44.25612" lon="0.84646">
        <ele>146</ele>
        <time>2025-08-17T08:31:42.569Z</time>
      </trkpt>
      <trkpt lat="44.25611" lon="0.84646">
        <ele>146</ele>
        <time>2025-08-17T08:31:43.569Z</time>
      </trkpt>
      <trkpt lat="44.25611" lon="0.84646">
        <ele>146</ele>
        <time>2025-08-17T08:31:44.569Z</time>
      </trkpt>
      <trkpt lat="44.25611" lon="0.84646">
        <ele>145</ele>
        <time>2025-08-17T08:31:45.569Z</time>
      </trkpt>
      <trkpt lat="44.25611" lon="0.84646">
        <ele>145</ele>
        <time>2025-08-17T08:31:46.569Z</time>
      </trkpt>
      <trkpt lat="44.25611" lon="0.84646">
        <ele>146</ele>
        <time>2025-08-17T08:31:47.569Z</time>
      </trkpt>
      <trkpt lat="44.25611" lon="0.84646">
        <ele>146</ele>
        <time>2025-08-17T08:31:48.569Z</time>
      </trkpt>
      <trkpt lat="44.25611" lon="0.84646">
        <ele>146</ele>
        <time>2025-08-17T08:31:49.569Z</time>
      </trkpt>
      <trkpt lat="44.25611" lon="0.84646">
        <ele>147</ele>
        <time>2025-08-17T08:31:50.569Z</time>
      </trkpt>
      <trkpt lat="44.25611" lon="0.84645">
        <ele>147</ele>
        <time>2025-08-17T08:31:51.569Z</time>
      </trkpt>
      <trkpt lat="44.2561" lon="0.84644">
        <ele>148</ele>
        <time>2025-08-17T08:31:52.569Z</time>
      </trkpt>
      <trkpt lat="44.2561" lon="0.84644">
        <ele>148</ele>
        <time>2025-08-17T08:31:53.569Z</time>
      </trkpt>
      <trkpt lat="44.2561" lon="0.84643">
        <ele>148</ele>
        <time>2025-08-17T08:31:54.569Z</time>
      </trkpt>
      <trkpt lat="44.2561" lon="0.84643">
        <ele>148</ele>
        <time>2025-08-17T08:31:55.569Z</time>
      </trkpt>
      <trkpt lat="44.2561" lon="0.84642">
        <ele>147</ele>
        <time>2025-08-17T08:31:56.569Z</time>
      </trkpt>
      <trkpt lat="44.2561" lon="0.84641">
        <ele>147</ele>
        <time>2025-08-17T08:31:57.569Z</time>
      </trkpt>
      <trkpt lat="44.2561" lon="0.84641">
        <ele>147</ele>
        <time>2025-08-17T08:31:58.569Z</time>
      </trkpt>
      <trkpt lat="44.2561" lon="0.84641">
        <ele>147</ele>
        <time>2025-08-17T08:31:59.569Z</time>
      </trkpt>
      <trkpt lat="44.2561" lon="0.84641">
        <ele>147</ele>
        <time>2025-08-17T08:32:00.569Z</time>
      </trkpt>
      <trkpt lat="44.2561" lon="0.84641">
        <ele>147</ele>
        <time>2025-08-17T08:32:01.569Z</time>
      </trkpt>
      <trkpt lat="44.2561" lon="0.84641">
        <ele>147</ele>
        <time>2025-08-17T08:32:02.569Z</time>
      </trkpt>
      <trkpt lat="44.25609" lon="0.84641">
        <ele>147</ele>
        <time>2025-08-17T08:32:03.569Z</time>
      </trkpt>
      <trkpt lat="44.25609" lon="0.84641">
        <ele>147</ele>
        <time>2025-08-17T08:32:04.569Z</time>
      </trkpt>
      <trkpt lat="44.25609" lon="0.84641">
        <ele>148</ele>
        <time>2025-08-17T08:32:05.569Z</time>
      </trkpt>
      <trkpt lat="44.25609" lon="0.84641">
        <ele>148</ele>
        <time>2025-08-17T08:32:06.569Z</time>
      </trkpt>
      <trkpt lat="44.25609" lon="0.84641">
        <ele>148</ele>
        <time>2025-08-17T08:32:07.569Z</time>
      </trkpt>
      <trkpt lat="44.25609" lon="0.8464">
        <ele>148</ele>
        <time>2025-08-17T08:32:08.569Z</time>
      </trkpt>
      <trkpt lat="44.25609" lon="0.8464">
        <ele>148</ele>
        <time>2025-08-17T08:32:09.569Z</time>
      </trkpt>
      <trkpt lat="44.25609" lon="0.8464">
        <ele>148</ele>
        <time>2025-08-17T08:32:10.569Z</time>
      </trkpt>
      <trkpt lat="44.25609" lon="0.8464">
        <ele>148</ele>
        <time>2025-08-17T08:32:11.569Z</time>
      </trkpt>
      <trkpt lat="44.25609" lon="0.8464">
        <ele>148</ele>
        <time>2025-08-17T08:32:12.569Z</time>
      </trkpt>
      <trkpt lat="44.25609" lon="0.84639">
        <ele>148</ele>
        <time>2025-08-17T08:32:13.569Z</time>
      </trkpt>
      <trkpt lat="44.25609" lon="0.84639">
        <ele>148</ele>
        <time>2025-08-17T08:32:14.569Z</time>
      </trkpt>
      <trkpt lat="44.25609" lon="0.84639">
        <ele>148</ele>
        <time>2025-08-17T08:32:15.569Z</time>
      </trkpt>
      <trkpt lat="44.25609" lon="0.84639">
        <ele>148</ele>
        <time>2025-08-17T08:32:16.569Z</time>
      </trkpt>
      <trkpt lat="44.25609" lon="0.8464">
        <ele>148</ele>
        <time>2025-08-17T08:32:17.569Z</time>
      </trkpt>
      <trkpt lat="44.25609" lon="0.8464">
        <ele>148</ele>
        <time>2025-08-17T08:32:18.569Z</time>
      </trkpt>
      <trkpt lat="44.25609" lon="0.8464">
        <ele>148</ele>
        <time>2025-08-17T08:32:19.569Z</time>
      </trkpt>
      <trkpt lat="44.25609" lon="0.8464">
        <ele>148</ele>
        <time>2025-08-17T08:32:20.569Z</time>
      </trkpt>
      <trkpt lat="44.25609" lon="0.8464">
        <ele>148</ele>
        <time>2025-08-17T08:32:21.569Z</time>
      </trkpt>
      <trkpt lat="44.25609" lon="0.8464">
        <ele>148</ele>
        <time>2025-08-17T08:32:22.569Z</time>
      </trkpt>
      <trkpt lat="44.25609" lon="0.8464">
        <ele>148</ele>
        <time>2025-08-17T08:32:23.569Z</time>
      </trkpt>
      <trkpt lat="44.2561" lon="0.8464">
        <ele>148</ele>
        <time>2025-08-17T08:32:24.569Z</time>
      </trkpt>
      <trkpt lat="44.2561" lon="0.8464">
        <ele>149</ele>
        <time>2025-08-17T08:32:25.569Z</time>
      </trkpt>
      <trkpt lat="44.2561" lon="0.8464">
        <ele>149</ele>
        <time>2025-08-17T08:32:26.569Z</time>
      </trkpt>
      <trkpt lat="44.25611" lon="0.8464">
        <ele>149</ele>
        <time>2025-08-17T08:32:27.569Z</time>
      </trkpt>
      <trkpt lat="44.25611" lon="0.8464">
        <ele>148</ele>
        <time>2025-08-17T08:32:28.569Z</time>
      </trkpt>
      <trkpt lat="44.25611" lon="0.8464">
        <ele>148</ele>
        <time>2025-08-17T08:32:29.569Z</time>
      </trkpt>
      <trkpt lat="44.25611" lon="0.8464">
        <ele>148</ele>
        <time>2025-08-17T08:32:30.569Z</time>
      </trkpt>
      <trkpt lat="44.25611" lon="0.8464">
        <ele>148</ele>
        <time>2025-08-17T08:32:31.569Z</time>
      </trkpt>
      <trkpt lat="44.2561" lon="0.8464">
        <ele>147</ele>
        <time>2025-08-17T08:32:32.569Z</time>
      </trkpt>
      <trkpt lat="44.2561" lon="0.8464">
        <ele>147</ele>
        <time>2025-08-17T08:32:33.569Z</time>
      </trkpt>
      <trkpt lat="44.25611" lon="0.8464">
        <ele>147</ele>
        <time>2025-08-17T08:32:34.569Z</time>
      </trkpt>
      <trkpt lat="44.25611" lon="0.8464">
        <ele>147</ele>
        <time>2025-08-17T08:32:35.569Z</time>
      </trkpt>
      <trkpt lat="44.25611" lon="0.8464">
        <ele>148</ele>
        <time>2025-08-17T08:32:36.569Z</time>
      </trkpt>
      <trkpt lat="44.25611" lon="0.8464">
        <ele>148</ele>
        <time>2025-08-17T08:32:37.569Z</time>
      </trkpt>
      <trkpt lat="44.25611" lon="0.8464">
        <ele>148</ele>
        <time>2025-08-17T08:32:38.569Z</time>
      </trkpt>
      <trkpt lat="44.25611" lon="0.8464">
        <ele>148</ele>
        <time>2025-08-17T08:32:39.569Z</time>
      </trkpt>
      <trkpt lat="44.25611" lon="0.8464">
        <ele>148</ele>
        <time>2025-08-17T08:32:40.569Z</time>
      </trkpt>
      <trkpt lat="44.25612" lon="0.8464">
        <ele>149</ele>
        <time>2025-08-17T08:32:41.569Z</time>
      </trkpt>
      <trkpt lat="44.25612" lon="0.84639">
        <ele>149</ele>
        <time>2025-08-17T08:32:42.569Z</time>
      </trkpt>
      <trkpt lat="44.25612" lon="0.84639">
        <ele>149</ele>
        <time>2025-08-17T08:32:43.569Z</time>
      </trkpt>
      <trkpt lat="44.25612" lon="0.84638">
        <ele>149</ele>
        <time>2025-08-17T08:32:44.569Z</time>
      </trkpt>
      <trkpt lat="44.25613" lon="0.84638">
        <ele>149</ele>
        <time>2025-08-17T08:32:45.569Z</time>
      </trkpt>
      <trkpt lat="44.25613" lon="0.84637">
        <ele>149</ele>
        <time>2025-08-17T08:32:46.569Z</time>
      </trkpt>
      <trkpt lat="44.25614" lon="0.84637">
        <ele>149</ele>
        <time>2025-08-17T08:32:47.569Z</time>
      </trkpt>
      <trkpt lat="44.25614" lon="0.84637">
        <ele>149</ele>
        <time>2025-08-17T08:32:48.569Z</time>
      </trkpt>
      <trkpt lat="44.25615" lon="0.84637">
        <ele>150</ele>
        <time>2025-08-17T08:32:49.569Z</time>
      </trkpt>
      <trkpt lat="44.25616" lon="0.84637">
        <ele>150</ele>
        <time>2025-08-17T08:32:50.569Z</time>
      </trkpt>
      <trkpt lat="44.25617" lon="0.84637">
        <ele>150</ele>
        <time>2025-08-17T08:32:51.569Z</time>
      </trkpt>
      <trkpt lat="44.25618" lon="0.84636">
        <ele>150</ele>
        <time>2025-08-17T08:32:52.569Z</time>
      </trkpt>
      <trkpt lat="44.25619" lon="0.84636">
        <ele>150</ele>
        <time>2025-08-17T08:32:53.569Z</time>
      </trkpt>
      <trkpt lat="44.2562" lon="0.84635">
        <ele>150</ele>
        <time>2025-08-17T08:32:54.569Z</time>
      </trkpt>
      <trkpt lat="44.25621" lon="0.84635">
        <ele>150</ele>
        <time>2025-08-17T08:32:55.569Z</time>
      </trkpt>
      <trkpt lat="44.25622" lon="0.84634">
        <ele>150</ele>
        <time>2025-08-17T08:32:56.569Z</time>
      </trkpt>
      <trkpt lat="44.25622" lon="0.84634">
        <ele>150</ele>
        <time>2025-08-17T08:32:57.569Z</time>
      </trkpt>
      <trkpt lat="44.25624" lon="0.84634">
        <ele>150</ele>
        <time>2025-08-17T08:32:58.569Z</time>
      </trkpt>
      <trkpt lat="44.25626" lon="0.84633">
        <ele>150</ele>
        <time>2025-08-17T08:32:59.569Z</time>
      </trkpt>
      <trkpt lat="44.25627" lon="0.84632">
        <ele>150</ele>
        <time>2025-08-17T08:33:00.569Z</time>
      </trkpt>
      <trkpt lat="44.25628" lon="0.84632">
        <ele>149</ele>
        <time>2025-08-17T08:33:01.569Z</time>
      </trkpt>
      <trkpt lat="44.25629" lon="0.84631">
        <ele>149</ele>
        <time>2025-08-17T08:33:02.569Z</time>
      </trkpt>
      <trkpt lat="44.2563" lon="0.84631">
        <ele>150</ele>
        <time>2025-08-17T08:33:03.569Z</time>
      </trkpt>
      <trkpt lat="44.25631" lon="0.8463">
        <ele>150</ele>
        <time>2025-08-17T08:33:04.569Z</time>
      </trkpt>
      <trkpt lat="44.25633" lon="0.84629">
        <ele>150</ele>
        <time>2025-08-17T08:33:05.569Z</time>
      </trkpt>
      <trkpt lat="44.25633" lon="0.84629">
        <ele>150</ele>
        <time>2025-08-17T08:33:06.569Z</time>
      </trkpt>
      <trkpt lat="44.25635" lon="0.84628">
        <ele>150</ele>
        <time>2025-08-17T08:33:07.569Z</time>
      </trkpt>
      <trkpt lat="44.25636" lon="0.84627">
        <ele>149</ele>
        <time>2025-08-17T08:33:08.569Z</time>
      </trkpt>
      <trkpt lat="44.25637" lon="0.84627">
        <ele>149</ele>
        <time>2025-08-17T08:33:09.569Z</time>
      </trkpt>
      <trkpt lat="44.25638" lon="0.84626">
        <ele>149</ele>
        <time>2025-08-17T08:33:10.569Z</time>
      </trkpt>
      <trkpt lat="44.25639" lon="0.84625">
        <ele>149</ele>
        <time>2025-08-17T08:33:11.569Z</time>
      </trkpt>
      <trkpt lat="44.2564" lon="0.84625">
        <ele>149</ele>
        <time>2025-08-17T08:33:12.569Z</time>
      </trkpt>
      <trkpt lat="44.25641" lon="0.84625">
        <ele>149</ele>
        <time>2025-08-17T08:33:13.569Z</time>
      </trkpt>
      <trkpt lat="44.25642" lon="0.84624">
        <ele>149</ele>
        <time>2025-08-17T08:33:14.569Z</time>
      </trkpt>
      <trkpt lat="44.25643" lon="0.84623">
        <ele>149</ele>
        <time>2025-08-17T08:33:15.569Z</time>
      </trkpt>
      <trkpt lat="44.25644" lon="0.84623">
        <ele>148</ele>
        <time>2025-08-17T08:33:16.569Z</time>
      </trkpt>
      <trkpt lat="44.25645" lon="0.84622">
        <ele>148</ele>
        <time>2025-08-17T08:33:17.569Z</time>
      </trkpt>
      <trkpt lat="44.25646" lon="0.84622">
        <ele>147</ele>
        <time>2025-08-17T08:33:18.569Z</time>
      </trkpt>
      <trkpt lat="44.25647" lon="0.84621">
        <ele>147</ele>
        <time>2025-08-17T08:33:19.569Z</time>
      </trkpt>
      <trkpt lat="44.25648" lon="0.8462">
        <ele>147</ele>
        <time>2025-08-17T08:33:20.569Z</time>
      </trkpt>
      <trkpt lat="44.25649" lon="0.84619">
        <ele>147</ele>
        <time>2025-08-17T08:33:21.569Z</time>
      </trkpt>
      <trkpt lat="44.2565" lon="0.84619">
        <ele>147</ele>
        <time>2025-08-17T08:33:22.569Z</time>
      </trkpt>
      <trkpt lat="44.25651" lon="0.84618">
        <ele>147</ele>
        <time>2025-08-17T08:33:23.569Z</time>
      </trkpt>
      <trkpt lat="44.25652" lon="0.84618">
        <ele>148</ele>
        <time>2025-08-17T08:33:24.569Z</time>
      </trkpt>
      <trkpt lat="44.25653" lon="0.84617">
        <ele>148</ele>
        <time>2025-08-17T08:33:25.569Z</time>
      </trkpt>
      <trkpt lat="44.25654" lon="0.84617">
        <ele>148</ele>
        <time>2025-08-17T08:33:26.569Z</time>
      </trkpt>
      <trkpt lat="44.25655" lon="0.84616">
        <ele>148</ele>
        <time>2025-08-17T08:33:27.569Z</time>
      </trkpt>
      <trkpt lat="44.25656" lon="0.84616">
        <ele>147</ele>
        <time>2025-08-17T08:33:28.569Z</time>
      </trkpt>
      <trkpt lat="44.25657" lon="0.84615">
        <ele>147</ele>
        <time>2025-08-17T08:33:29.569Z</time>
      </trkpt>
      <trkpt lat="44.25658" lon="0.84614">
        <ele>147</ele>
        <time>2025-08-17T08:33:30.569Z</time>
      </trkpt>
      <trkpt lat="44.2566" lon="0.84613">
        <ele>147</ele>
        <time>2025-08-17T08:33:31.569Z</time>
      </trkpt>
      <trkpt lat="44.25661" lon="0.84613">
        <ele>147</ele>
        <time>2025-08-17T08:33:32.569Z</time>
      </trkpt>
      <trkpt lat="44.25662" lon="0.84612">
        <ele>146</ele>
        <time>2025-08-17T08:33:33.569Z</time>
      </trkpt>
      <trkpt lat="44.25663" lon="0.84611">
        <ele>146</ele>
        <time>2025-08-17T08:33:34.569Z</time>
      </trkpt>
      <trkpt lat="44.25663" lon="0.84611">
        <ele>146</ele>
        <time>2025-08-17T08:33:35.569Z</time>
      </trkpt>
      <trkpt lat="44.25664" lon="0.84611">
        <ele>146</ele>
        <time>2025-08-17T08:33:36.569Z</time>
      </trkpt>
      <trkpt lat="44.25665" lon="0.8461">
        <ele>146</ele>
        <time>2025-08-17T08:33:37.569Z</time>
      </trkpt>
      <trkpt lat="44.25666" lon="0.84609">
        <ele>146</ele>
        <time>2025-08-17T08:33:38.569Z</time>
      </trkpt>
      <trkpt lat="44.25667" lon="0.84608">
        <ele>146</ele>
        <time>2025-08-17T08:33:39.569Z</time>
      </trkpt>
      <trkpt lat="44.25668" lon="0.84608">
        <ele>146</ele>
        <time>2025-08-17T08:33:40.569Z</time>
      </trkpt>
      <trkpt lat="44.25669" lon="0.84607">
        <ele>146</ele>
        <time>2025-08-17T08:33:41.569Z</time>
      </trkpt>
      <trkpt lat="44.25671" lon="0.84606">
        <ele>146</ele>
        <time>2025-08-17T08:33:42.569Z</time>
      </trkpt>
      <trkpt lat="44.25672" lon="0.84606">
        <ele>146</ele>
        <time>2025-08-17T08:33:43.569Z</time>
      </trkpt>
      <trkpt lat="44.25673" lon="0.84606">
        <ele>146</ele>
        <time>2025-08-17T08:33:44.569Z</time>
      </trkpt>
      <trkpt lat="44.25674" lon="0.84605">
        <ele>146</ele>
        <time>2025-08-17T08:33:45.569Z</time>
      </trkpt>
      <trkpt lat="44.25675" lon="0.84605">
        <ele>146</ele>
        <time>2025-08-17T08:33:46.569Z</time>
      </trkpt>
      <trkpt lat="44.25676" lon="0.84604">
        <ele>146</ele>
        <time>2025-08-17T08:33:47.569Z</time>
      </trkpt>
      <trkpt lat="44.25677" lon="0.84604">
        <ele>146</ele>
        <time>2025-08-17T08:33:48.569Z</time>
      </trkpt>
      <trkpt lat="44.25677" lon="0.84604">
        <ele>146</ele>
        <time>2025-08-17T08:33:49.569Z</time>
      </trkpt>
      <trkpt lat="44.25678" lon="0.84604">
        <ele>146</ele>
        <time>2025-08-17T08:33:50.569Z</time>
      </trkpt>
      <trkpt lat="44.25678" lon="0.84603">
        <ele>146</ele>
        <time>2025-08-17T08:33:51.569Z</time>
      </trkpt>
      <trkpt lat="44.25679" lon="0.84602">
        <ele>146</ele>
        <time>2025-08-17T08:33:52.569Z</time>
      </trkpt>
      <trkpt lat="44.2568" lon="0.84602">
        <ele>146</ele>
        <time>2025-08-17T08:33:53.569Z</time>
      </trkpt>
      <trkpt lat="44.25681" lon="0.84601">
        <ele>146</ele>
        <time>2025-08-17T08:33:54.569Z</time>
      </trkpt>
      <trkpt lat="44.25682" lon="0.846">
        <ele>146</ele>
        <time>2025-08-17T08:33:55.569Z</time>
      </trkpt>
      <trkpt lat="44.25683" lon="0.846">
        <ele>146</ele>
        <time>2025-08-17T08:33:56.569Z</time>
      </trkpt>
      <trkpt lat="44.25684" lon="0.84599">
        <ele>146</ele>
        <time>2025-08-17T08:33:57.569Z</time>
      </trkpt>
      <trkpt lat="44.25685" lon="0.84599">
        <ele>146</ele>
        <time>2025-08-17T08:33:58.569Z</time>
      </trkpt>
      <trkpt lat="44.25686" lon="0.84598">
        <ele>145</ele>
        <time>2025-08-17T08:33:59.569Z</time>
      </trkpt>
      <trkpt lat="44.25687" lon="0.84597">
        <ele>145</ele>
        <time>2025-08-17T08:34:00.569Z</time>
      </trkpt>
      <trkpt lat="44.25688" lon="0.84597">
        <ele>145</ele>
        <time>2025-08-17T08:34:01.569Z</time>
      </trkpt>
      <trkpt lat="44.25689" lon="0.84597">
        <ele>145</ele>
        <time>2025-08-17T08:34:02.569Z</time>
      </trkpt>
      <trkpt lat="44.2569" lon="0.84596">
        <ele>145</ele>
        <time>2025-08-17T08:34:03.569Z</time>
      </trkpt>
      <trkpt lat="44.25691" lon="0.84596">
        <ele>145</ele>
        <time>2025-08-17T08:34:04.569Z</time>
      </trkpt>
      <trkpt lat="44.25693" lon="0.84595">
        <ele>145</ele>
        <time>2025-08-17T08:34:05.569Z</time>
      </trkpt>
      <trkpt lat="44.25694" lon="0.84595">
        <ele>144</ele>
        <time>2025-08-17T08:34:06.569Z</time>
      </trkpt>
      <trkpt lat="44.25696" lon="0.84595">
        <ele>144</ele>
        <time>2025-08-17T08:34:07.569Z</time>
      </trkpt>
      <trkpt lat="44.25696" lon="0.84595">
        <ele>144</ele>
        <time>2025-08-17T08:34:08.569Z</time>
      </trkpt>
      <trkpt lat="44.25698" lon="0.84594">
        <ele>143</ele>
        <time>2025-08-17T08:34:09.569Z</time>
      </trkpt>
      <trkpt lat="44.25699" lon="0.84593">
        <ele>143</ele>
        <time>2025-08-17T08:34:10.569Z</time>
      </trkpt>
      <trkpt lat="44.257" lon="0.84592">
        <ele>143</ele>
        <time>2025-08-17T08:34:11.569Z</time>
      </trkpt>
      <trkpt lat="44.25701" lon="0.84591">
        <ele>144</ele>
        <time>2025-08-17T08:34:12.569Z</time>
      </trkpt>
      <trkpt lat="44.25701" lon="0.84591">
        <ele>144</ele>
        <time>2025-08-17T08:34:13.569Z</time>
      </trkpt>
      <trkpt lat="44.25701" lon="0.84591">
        <ele>144</ele>
        <time>2025-08-17T08:34:14.569Z</time>
      </trkpt>
      <trkpt lat="44.25703" lon="0.8459">
        <ele>143</ele>
        <time>2025-08-17T08:34:15.569Z</time>
      </trkpt>
      <trkpt lat="44.25705" lon="0.84588">
        <ele>143</ele>
        <time>2025-08-17T08:34:16.569Z</time>
      </trkpt>
      <trkpt lat="44.25705" lon="0.84587">
        <ele>144</ele>
        <time>2025-08-17T08:34:17.569Z</time>
      </trkpt>
      <trkpt lat="44.25706" lon="0.84585">
        <ele>144</ele>
        <time>2025-08-17T08:34:18.569Z</time>
      </trkpt>
      <trkpt lat="44.25707" lon="0.84585">
        <ele>144</ele>
        <time>2025-08-17T08:34:19.569Z</time>
      </trkpt>
      <trkpt lat="44.25708" lon="0.84584">
        <ele>144</ele>
        <time>2025-08-17T08:34:20.569Z</time>
      </trkpt>
      <trkpt lat="44.25709" lon="0.84582">
        <ele>144</ele>
        <time>2025-08-17T08:34:21.569Z</time>
      </trkpt>
      <trkpt lat="44.25711" lon="0.84581">
        <ele>144</ele>
        <time>2025-08-17T08:34:22.569Z</time>
      </trkpt>
      <trkpt lat="44.25712" lon="0.84579">
        <ele>144</ele>
        <time>2025-08-17T08:34:23.569Z</time>
      </trkpt>
      <trkpt lat="44.25713" lon="0.84578">
        <ele>144</ele>
        <time>2025-08-17T08:34:24.569Z</time>
      </trkpt>
      <trkpt lat="44.25714" lon="0.84578">
        <ele>143</ele>
        <time>2025-08-17T08:34:25.569Z</time>
      </trkpt>
      <trkpt lat="44.25715" lon="0.84577">
        <ele>143</ele>
        <time>2025-08-17T08:34:26.569Z</time>
      </trkpt>
      <trkpt lat="44.25716" lon="0.84576">
        <ele>143</ele>
        <time>2025-08-17T08:34:27.569Z</time>
      </trkpt>
      <trkpt lat="44.25717" lon="0.84575">
        <ele>143</ele>
        <time>2025-08-17T08:34:28.569Z</time>
      </trkpt>
      <trkpt lat="44.25718" lon="0.84575">
        <ele>142</ele>
        <time>2025-08-17T08:34:29.569Z</time>
      </trkpt>
      <trkpt lat="44.25719" lon="0.84574">
        <ele>142</ele>
        <time>2025-08-17T08:34:30.569Z</time>
      </trkpt>
      <trkpt lat="44.2572" lon="0.84573">
        <ele>142</ele>
        <time>2025-08-17T08:34:31.569Z</time>
      </trkpt>
      <trkpt lat="44.25721" lon="0.84572">
        <ele>142</ele>
        <time>2025-08-17T08:34:32.569Z</time>
      </trkpt>
      <trkpt lat="44.25722" lon="0.84571">
        <ele>142</ele>
        <time>2025-08-17T08:34:33.569Z</time>
      </trkpt>
      <trkpt lat="44.25723" lon="0.84571">
        <ele>142</ele>
        <time>2025-08-17T08:34:34.569Z</time>
      </trkpt>
      <trkpt lat="44.25725" lon="0.8457">
        <ele>141</ele>
        <time>2025-08-17T08:34:35.569Z</time>
      </trkpt>
      <trkpt lat="44.25726" lon="0.8457">
        <ele>141</ele>
        <time>2025-08-17T08:34:36.569Z</time>
      </trkpt>
      <trkpt lat="44.25727" lon="0.84569">
        <ele>141</ele>
        <time>2025-08-17T08:34:37.569Z</time>
      </trkpt>
      <trkpt lat="44.25728" lon="0.84568">
        <ele>141</ele>
        <time>2025-08-17T08:34:38.569Z</time>
      </trkpt>
      <trkpt lat="44.25729" lon="0.84567">
        <ele>141</ele>
        <time>2025-08-17T08:34:39.569Z</time>
      </trkpt>
      <trkpt lat="44.25729" lon="0.84565">
        <ele>141</ele>
        <time>2025-08-17T08:34:40.569Z</time>
      </trkpt>
      <trkpt lat="44.2573" lon="0.84564">
        <ele>141</ele>
        <time>2025-08-17T08:34:41.569Z</time>
      </trkpt>
      <trkpt lat="44.25731" lon="0.84563">
        <ele>141</ele>
        <time>2025-08-17T08:34:42.569Z</time>
      </trkpt>
      <trkpt lat="44.25732" lon="0.84562">
        <ele>141</ele>
        <time>2025-08-17T08:34:43.569Z</time>
      </trkpt>
      <trkpt lat="44.25733" lon="0.84561">
        <ele>141</ele>
        <time>2025-08-17T08:34:44.569Z</time>
      </trkpt>
      <trkpt lat="44.25734" lon="0.8456">
        <ele>141</ele>
        <time>2025-08-17T08:34:45.569Z</time>
      </trkpt>
      <trkpt lat="44.25735" lon="0.84559">
        <ele>141</ele>
        <time>2025-08-17T08:34:46.569Z</time>
      </trkpt>
      <trkpt lat="44.25736" lon="0.84558">
        <ele>141</ele>
        <time>2025-08-17T08:34:47.569Z</time>
      </trkpt>
      <trkpt lat="44.25737" lon="0.84557">
        <ele>141</ele>
        <time>2025-08-17T08:34:48.569Z</time>
      </trkpt>
      <trkpt lat="44.25738" lon="0.84556">
        <ele>141</ele>
        <time>2025-08-17T08:34:49.569Z</time>
      </trkpt>
      <trkpt lat="44.25739" lon="0.84555">
        <ele>141</ele>
        <time>2025-08-17T08:34:50.569Z</time>
      </trkpt>
      <trkpt lat="44.25739" lon="0.84555">
        <ele>141</ele>
        <time>2025-08-17T08:34:51.569Z</time>
      </trkpt>
      <trkpt lat="44.2574" lon="0.84554">
        <ele>141</ele>
        <time>2025-08-17T08:34:52.569Z</time>
      </trkpt>
      <trkpt lat="44.25741" lon="0.84553">
        <ele>141</ele>
        <time>2025-08-17T08:34:53.569Z</time>
      </trkpt>
      <trkpt lat="44.25743" lon="0.84551">
        <ele>141</ele>
        <time>2025-08-17T08:34:54.569Z</time>
      </trkpt>
      <trkpt lat="44.25744" lon="0.8455">
        <ele>141</ele>
        <time>2025-08-17T08:34:55.569Z</time>
      </trkpt>
      <trkpt lat="44.25745" lon="0.84549">
        <ele>141</ele>
        <time>2025-08-17T08:34:56.569Z</time>
      </trkpt>
      <trkpt lat="44.25746" lon="0.84548">
        <ele>142</ele>
        <time>2025-08-17T08:34:57.569Z</time>
      </trkpt>
      <trkpt lat="44.25747" lon="0.84547">
        <ele>142</ele>
        <time>2025-08-17T08:34:58.569Z</time>
      </trkpt>
      <trkpt lat="44.25749" lon="0.84546">
        <ele>142</ele>
        <time>2025-08-17T08:34:59.569Z</time>
      </trkpt>
      <trkpt lat="44.2575" lon="0.84545">
        <ele>142</ele>
        <time>2025-08-17T08:35:00.569Z</time>
      </trkpt>
      <trkpt lat="44.25751" lon="0.84544">
        <ele>142</ele>
        <time>2025-08-17T08:35:01.569Z</time>
      </trkpt>
      <trkpt lat="44.25752" lon="0.84543">
        <ele>142</ele>
        <time>2025-08-17T08:35:02.569Z</time>
      </trkpt>
      <trkpt lat="44.25753" lon="0.84542">
        <ele>142</ele>
        <time>2025-08-17T08:35:03.569Z</time>
      </trkpt>
      <trkpt lat="44.25754" lon="0.84541">
        <ele>141</ele>
        <time>2025-08-17T08:35:04.569Z</time>
      </trkpt>
      <trkpt lat="44.25755" lon="0.8454">
        <ele>141</ele>
        <time>2025-08-17T08:35:05.569Z</time>
      </trkpt>
      <trkpt lat="44.25756" lon="0.84539">
        <ele>140</ele>
        <time>2025-08-17T08:35:06.569Z</time>
      </trkpt>
      <trkpt lat="44.25757" lon="0.84538">
        <ele>140</ele>
        <time>2025-08-17T08:35:07.569Z</time>
      </trkpt>
      <trkpt lat="44.25758" lon="0.84537">
        <ele>139</ele>
        <time>2025-08-17T08:35:08.569Z</time>
      </trkpt>
      <trkpt lat="44.25759" lon="0.84536">
        <ele>139</ele>
        <time>2025-08-17T08:35:09.569Z</time>
      </trkpt>
      <trkpt lat="44.2576" lon="0.84534">
        <ele>139</ele>
        <time>2025-08-17T08:35:10.569Z</time>
      </trkpt>
      <trkpt lat="44.25761" lon="0.84533">
        <ele>139</ele>
        <time>2025-08-17T08:35:11.569Z</time>
      </trkpt>
      <trkpt lat="44.25762" lon="0.84532">
        <ele>139</ele>
        <time>2025-08-17T08:35:12.569Z</time>
      </trkpt>
      <trkpt lat="44.25764" lon="0.84531">
        <ele>138</ele>
        <time>2025-08-17T08:35:13.569Z</time>
      </trkpt>
      <trkpt lat="44.25765" lon="0.8453">
        <ele>138</ele>
        <time>2025-08-17T08:35:14.569Z</time>
      </trkpt>
      <trkpt lat="44.25766" lon="0.84529">
        <ele>138</ele>
        <time>2025-08-17T08:35:15.569Z</time>
      </trkpt>
      <trkpt lat="44.25767" lon="0.84528">
        <ele>138</ele>
        <time>2025-08-17T08:35:16.569Z</time>
      </trkpt>
      <trkpt lat="44.25768" lon="0.84527">
        <ele>137</ele>
        <time>2025-08-17T08:35:17.569Z</time>
      </trkpt>
      <trkpt lat="44.25769" lon="0.84526">
        <ele>137</ele>
        <time>2025-08-17T08:35:18.569Z</time>
      </trkpt>
      <trkpt lat="44.2577" lon="0.84524">
        <ele>137</ele>
        <time>2025-08-17T08:35:19.569Z</time>
      </trkpt>
      <trkpt lat="44.2577" lon="0.84523">
        <ele>137</ele>
        <time>2025-08-17T08:35:20.569Z</time>
      </trkpt>
      <trkpt lat="44.25772" lon="0.84521">
        <ele>137</ele>
        <time>2025-08-17T08:35:21.569Z</time>
      </trkpt>
      <trkpt lat="44.25773" lon="0.8452">
        <ele>137</ele>
        <time>2025-08-17T08:35:22.569Z</time>
      </trkpt>
      <trkpt lat="44.25773" lon="0.84519">
        <ele>137</ele>
        <time>2025-08-17T08:35:23.569Z</time>
      </trkpt>
      <trkpt lat="44.25774" lon="0.84518">
        <ele>137</ele>
        <time>2025-08-17T08:35:24.569Z</time>
      </trkpt>
      <trkpt lat="44.25775" lon="0.84517">
        <ele>137</ele>
        <time>2025-08-17T08:35:25.569Z</time>
      </trkpt>
      <trkpt lat="44.25776" lon="0.84516">
        <ele>137</ele>
        <time>2025-08-17T08:35:26.569Z</time>
      </trkpt>
      <trkpt lat="44.25777" lon="0.84514">
        <ele>137</ele>
        <time>2025-08-17T08:35:27.569Z</time>
      </trkpt>
      <trkpt lat="44.25778" lon="0.84513">
        <ele>137</ele>
        <time>2025-08-17T08:35:28.569Z</time>
      </trkpt>
      <trkpt lat="44.25778" lon="0.84513">
        <ele>137</ele>
        <time>2025-08-17T08:35:29.569Z</time>
      </trkpt>
      <trkpt lat="44.25778" lon="0.84511">
        <ele>138</ele>
        <time>2025-08-17T08:35:30.569Z</time>
      </trkpt>
      <trkpt lat="44.25779" lon="0.8451">
        <ele>138</ele>
        <time>2025-08-17T08:35:31.569Z</time>
      </trkpt>
      <trkpt lat="44.25781" lon="0.84509">
        <ele>138</ele>
        <time>2025-08-17T08:35:32.569Z</time>
      </trkpt>
      <trkpt lat="44.25782" lon="0.84508">
        <ele>138</ele>
        <time>2025-08-17T08:35:33.569Z</time>
      </trkpt>
      <trkpt lat="44.25783" lon="0.84506">
        <ele>139</ele>
        <time>2025-08-17T08:35:34.569Z</time>
      </trkpt>
      <trkpt lat="44.25784" lon="0.84505">
        <ele>139</ele>
        <time>2025-08-17T08:35:35.569Z</time>
      </trkpt>
      <trkpt lat="44.25784" lon="0.84504">
        <ele>139</ele>
        <time>2025-08-17T08:35:36.569Z</time>
      </trkpt>
      <trkpt lat="44.25785" lon="0.84502">
        <ele>139</ele>
        <time>2025-08-17T08:35:37.569Z</time>
      </trkpt>
      <trkpt lat="44.25786" lon="0.84501">
        <ele>139</ele>
        <time>2025-08-17T08:35:38.569Z</time>
      </trkpt>
      <trkpt lat="44.25787" lon="0.84499">
        <ele>139</ele>
        <time>2025-08-17T08:35:39.569Z</time>
      </trkpt>
      <trkpt lat="44.25787" lon="0.84498">
        <ele>139</ele>
        <time>2025-08-17T08:35:40.569Z</time>
      </trkpt>
      <trkpt lat="44.25788" lon="0.84498">
        <ele>139</ele>
        <time>2025-08-17T08:35:41.569Z</time>
      </trkpt>
      <trkpt lat="44.25789" lon="0.84497">
        <ele>140</ele>
        <time>2025-08-17T08:35:42.569Z</time>
      </trkpt>
      <trkpt lat="44.2579" lon="0.84496">
        <ele>140</ele>
        <time>2025-08-17T08:35:43.569Z</time>
      </trkpt>
      <trkpt lat="44.25791" lon="0.84494">
        <ele>139</ele>
        <time>2025-08-17T08:35:44.569Z</time>
      </trkpt>
      <trkpt lat="44.25792" lon="0.84493">
        <ele>139</ele>
        <time>2025-08-17T08:35:45.569Z</time>
      </trkpt>
      <trkpt lat="44.25793" lon="0.84492">
        <ele>139</ele>
        <time>2025-08-17T08:35:46.569Z</time>
      </trkpt>
      <trkpt lat="44.25793" lon="0.84491">
        <ele>139</ele>
        <time>2025-08-17T08:35:47.569Z</time>
      </trkpt>
      <trkpt lat="44.25794" lon="0.8449">
        <ele>138</ele>
        <time>2025-08-17T08:35:48.569Z</time>
      </trkpt>
      <trkpt lat="44.25795" lon="0.84489">
        <ele>138</ele>
        <time>2025-08-17T08:35:49.569Z</time>
      </trkpt>
      <trkpt lat="44.25796" lon="0.84487">
        <ele>138</ele>
        <time>2025-08-17T08:35:50.569Z</time>
      </trkpt>
      <trkpt lat="44.25797" lon="0.84486">
        <ele>138</ele>
        <time>2025-08-17T08:35:51.569Z</time>
      </trkpt>
      <trkpt lat="44.25798" lon="0.84485">
        <ele>138</ele>
        <time>2025-08-17T08:35:52.569Z</time>
      </trkpt>
      <trkpt lat="44.25799" lon="0.84484">
        <ele>137</ele>
        <time>2025-08-17T08:35:53.569Z</time>
      </trkpt>
      <trkpt lat="44.258" lon="0.84483">
        <ele>137</ele>
        <time>2025-08-17T08:35:54.569Z</time>
      </trkpt>
      <trkpt lat="44.25801" lon="0.84481">
        <ele>137</ele>
        <time>2025-08-17T08:35:55.569Z</time>
      </trkpt>
      <trkpt lat="44.25802" lon="0.8448">
        <ele>137</ele>
        <time>2025-08-17T08:35:56.569Z</time>
      </trkpt>
      <trkpt lat="44.25803" lon="0.84479">
        <ele>137</ele>
        <time>2025-08-17T08:35:57.569Z</time>
      </trkpt>
      <trkpt lat="44.25804" lon="0.84478">
        <ele>137</ele>
        <time>2025-08-17T08:35:58.569Z</time>
      </trkpt>
      <trkpt lat="44.25806" lon="0.84477">
        <ele>136</ele>
        <time>2025-08-17T08:35:59.569Z</time>
      </trkpt>
      <trkpt lat="44.25807" lon="0.84477">
        <ele>136</ele>
        <time>2025-08-17T08:36:00.569Z</time>
      </trkpt>
      <trkpt lat="44.25808" lon="0.84476">
        <ele>136</ele>
        <time>2025-08-17T08:36:01.569Z</time>
      </trkpt>
      <trkpt lat="44.25808" lon="0.84475">
        <ele>135</ele>
        <time>2025-08-17T08:36:02.569Z</time>
      </trkpt>
      <trkpt lat="44.25809" lon="0.84474">
        <ele>135</ele>
        <time>2025-08-17T08:36:03.569Z</time>
      </trkpt>
      <trkpt lat="44.2581" lon="0.84473">
        <ele>135</ele>
        <time>2025-08-17T08:36:04.569Z</time>
      </trkpt>
      <trkpt lat="44.25811" lon="0.84471">
        <ele>134</ele>
        <time>2025-08-17T08:36:05.569Z</time>
      </trkpt>
      <trkpt lat="44.25812" lon="0.8447">
        <ele>135</ele>
        <time>2025-08-17T08:36:06.569Z</time>
      </trkpt>
      <trkpt lat="44.25812" lon="0.8447">
        <ele>135</ele>
        <time>2025-08-17T08:36:07.569Z</time>
      </trkpt>
      <trkpt lat="44.25813" lon="0.84468">
        <ele>135</ele>
        <time>2025-08-17T08:36:08.569Z</time>
      </trkpt>
      <trkpt lat="44.25814" lon="0.84466">
        <ele>135</ele>
        <time>2025-08-17T08:36:09.569Z</time>
      </trkpt>
      <trkpt lat="44.25815" lon="0.84463">
        <ele>135</ele>
        <time>2025-08-17T08:36:10.569Z</time>
      </trkpt>
      <trkpt lat="44.25816" lon="0.84462">
        <ele>135</ele>
        <time>2025-08-17T08:36:11.569Z</time>
      </trkpt>
      <trkpt lat="44.25817" lon="0.84462">
        <ele>135</ele>
        <time>2025-08-17T08:36:12.569Z</time>
      </trkpt>
      <trkpt lat="44.25818" lon="0.84461">
        <ele>135</ele>
        <time>2025-08-17T08:36:13.569Z</time>
      </trkpt>
      <trkpt lat="44.25819" lon="0.8446">
        <ele>135</ele>
        <time>2025-08-17T08:36:14.569Z</time>
      </trkpt>
      <trkpt lat="44.2582" lon="0.8446">
        <ele>134</ele>
        <time>2025-08-17T08:36:15.569Z</time>
      </trkpt>
      <trkpt lat="44.25821" lon="0.84459">
        <ele>134</ele>
        <time>2025-08-17T08:36:16.569Z</time>
      </trkpt>
      <trkpt lat="44.25822" lon="0.84458">
        <ele>134</ele>
        <time>2025-08-17T08:36:17.569Z</time>
      </trkpt>
      <trkpt lat="44.25823" lon="0.84457">
        <ele>134</ele>
        <time>2025-08-17T08:36:18.569Z</time>
      </trkpt>
      <trkpt lat="44.25824" lon="0.84456">
        <ele>134</ele>
        <time>2025-08-17T08:36:19.569Z</time>
      </trkpt>
      <trkpt lat="44.25825" lon="0.84454">
        <ele>133</ele>
        <time>2025-08-17T08:36:20.569Z</time>
      </trkpt>
      <trkpt lat="44.25826" lon="0.84453">
        <ele>133</ele>
        <time>2025-08-17T08:36:21.569Z</time>
      </trkpt>
      <trkpt lat="44.25827" lon="0.84452">
        <ele>133</ele>
        <time>2025-08-17T08:36:22.569Z</time>
      </trkpt>
      <trkpt lat="44.25828" lon="0.84451">
        <ele>133</ele>
        <time>2025-08-17T08:36:23.569Z</time>
      </trkpt>
      <trkpt lat="44.25828" lon="0.8445">
        <ele>133</ele>
        <time>2025-08-17T08:36:24.569Z</time>
      </trkpt>
      <trkpt lat="44.25829" lon="0.84449">
        <ele>133</ele>
        <time>2025-08-17T08:36:25.569Z</time>
      </trkpt>
      <trkpt lat="44.2583" lon="0.84448">
        <ele>133</ele>
        <time>2025-08-17T08:36:26.569Z</time>
      </trkpt>
      <trkpt lat="44.25831" lon="0.84447">
        <ele>133</ele>
        <time>2025-08-17T08:36:27.569Z</time>
      </trkpt>
      <trkpt lat="44.25832" lon="0.84446">
        <ele>132</ele>
        <time>2025-08-17T08:36:28.569Z</time>
      </trkpt>
      <trkpt lat="44.25833" lon="0.84444">
        <ele>133</ele>
        <time>2025-08-17T08:36:29.569Z</time>
      </trkpt>
      <trkpt lat="44.25834" lon="0.84443">
        <ele>133</ele>
        <time>2025-08-17T08:36:30.569Z</time>
      </trkpt>
      <trkpt lat="44.25834" lon="0.84442">
        <ele>133</ele>
        <time>2025-08-17T08:36:31.569Z</time>
      </trkpt>
      <trkpt lat="44.25836" lon="0.8444">
        <ele>133</ele>
        <time>2025-08-17T08:36:32.569Z</time>
      </trkpt>
      <trkpt lat="44.25837" lon="0.84439">
        <ele>133</ele>
        <time>2025-08-17T08:36:33.569Z</time>
      </trkpt>
      <trkpt lat="44.25838" lon="0.84437">
        <ele>134</ele>
        <time>2025-08-17T08:36:34.569Z</time>
      </trkpt>
      <trkpt lat="44.25839" lon="0.84436">
        <ele>134</ele>
        <time>2025-08-17T08:36:35.569Z</time>
      </trkpt>
      <trkpt lat="44.2584" lon="0.84434">
        <ele>133</ele>
        <time>2025-08-17T08:36:36.569Z</time>
      </trkpt>
      <trkpt lat="44.2584" lon="0.84433">
        <ele>133</ele>
        <time>2025-08-17T08:36:37.569Z</time>
      </trkpt>
      <trkpt lat="44.25841" lon="0.84432">
        <ele>133</ele>
        <time>2025-08-17T08:36:38.569Z</time>
      </trkpt>
      <trkpt lat="44.25842" lon="0.84431">
        <ele>133</ele>
        <time>2025-08-17T08:36:39.569Z</time>
      </trkpt>
      <trkpt lat="44.25843" lon="0.8443">
        <ele>133</ele>
        <time>2025-08-17T08:36:40.569Z</time>
      </trkpt>
      <trkpt lat="44.25844" lon="0.84429">
        <ele>133</ele>
        <time>2025-08-17T08:36:41.569Z</time>
      </trkpt>
      <trkpt lat="44.25845" lon="0.84428">
        <ele>132</ele>
        <time>2025-08-17T08:36:42.569Z</time>
      </trkpt>
      <trkpt lat="44.25846" lon="0.84427">
        <ele>132</ele>
        <time>2025-08-17T08:36:43.569Z</time>
      </trkpt>
      <trkpt lat="44.25847" lon="0.84426">
        <ele>132</ele>
        <time>2025-08-17T08:36:44.569Z</time>
      </trkpt>
      <trkpt lat="44.25847" lon="0.84426">
        <ele>132</ele>
        <time>2025-08-17T08:36:45.569Z</time>
      </trkpt>
      <trkpt lat="44.25848" lon="0.84425">
        <ele>132</ele>
        <time>2025-08-17T08:36:46.569Z</time>
      </trkpt>
      <trkpt lat="44.25849" lon="0.84423">
        <ele>132</ele>
        <time>2025-08-17T08:36:47.569Z</time>
      </trkpt>
      <trkpt lat="44.25851" lon="0.84421">
        <ele>132</ele>
        <time>2025-08-17T08:36:48.569Z</time>
      </trkpt>
      <trkpt lat="44.25852" lon="0.84419">
        <ele>132</ele>
        <time>2025-08-17T08:36:49.569Z</time>
      </trkpt>
      <trkpt lat="44.25853" lon="0.84418">
        <ele>132</ele>
        <time>2025-08-17T08:36:50.569Z</time>
      </trkpt>
      <trkpt lat="44.25854" lon="0.84417">
        <ele>132</ele>
        <time>2025-08-17T08:36:51.569Z</time>
      </trkpt>
      <trkpt lat="44.25855" lon="0.84416">
        <ele>132</ele>
        <time>2025-08-17T08:36:52.569Z</time>
      </trkpt>
      <trkpt lat="44.25856" lon="0.84415">
        <ele>132</ele>
        <time>2025-08-17T08:36:53.569Z</time>
      </trkpt>
      <trkpt lat="44.25857" lon="0.84414">
        <ele>132</ele>
        <time>2025-08-17T08:36:54.569Z</time>
      </trkpt>
      <trkpt lat="44.25858" lon="0.84413">
        <ele>132</ele>
        <time>2025-08-17T08:36:55.569Z</time>
      </trkpt>
      <trkpt lat="44.25858" lon="0.84411">
        <ele>132</ele>
        <time>2025-08-17T08:36:56.569Z</time>
      </trkpt>
      <trkpt lat="44.25859" lon="0.8441">
        <ele>132</ele>
        <time>2025-08-17T08:36:57.569Z</time>
      </trkpt>
      <trkpt lat="44.2586" lon="0.84409">
        <ele>132</ele>
        <time>2025-08-17T08:36:58.569Z</time>
      </trkpt>
      <trkpt lat="44.25861" lon="0.84408">
        <ele>131</ele>
        <time>2025-08-17T08:36:59.569Z</time>
      </trkpt>
      <trkpt lat="44.25862" lon="0.84407">
        <ele>131</ele>
        <time>2025-08-17T08:37:00.569Z</time>
      </trkpt>
      <trkpt lat="44.25863" lon="0.84406">
        <ele>131</ele>
        <time>2025-08-17T08:37:01.569Z</time>
      </trkpt>
      <trkpt lat="44.25864" lon="0.84405">
        <ele>130</ele>
        <time>2025-08-17T08:37:02.569Z</time>
      </trkpt>
      <trkpt lat="44.25865" lon="0.84403">
        <ele>130</ele>
        <time>2025-08-17T08:37:03.569Z</time>
      </trkpt>
      <trkpt lat="44.25866" lon="0.84402">
        <ele>130</ele>
        <time>2025-08-17T08:37:04.569Z</time>
      </trkpt>
      <trkpt lat="44.25867" lon="0.844">
        <ele>130</ele>
        <time>2025-08-17T08:37:05.569Z</time>
      </trkpt>
      <trkpt lat="44.25868" lon="0.84399">
        <ele>130</ele>
        <time>2025-08-17T08:37:06.569Z</time>
      </trkpt>
      <trkpt lat="44.25869" lon="0.84398">
        <ele>129</ele>
        <time>2025-08-17T08:37:07.569Z</time>
      </trkpt>
      <trkpt lat="44.2587" lon="0.84397">
        <ele>129</ele>
        <time>2025-08-17T08:37:08.569Z</time>
      </trkpt>
      <trkpt lat="44.2587" lon="0.84396">
        <ele>129</ele>
        <time>2025-08-17T08:37:09.569Z</time>
      </trkpt>
      <trkpt lat="44.25871" lon="0.84395">
        <ele>129</ele>
        <time>2025-08-17T08:37:10.569Z</time>
      </trkpt>
      <trkpt lat="44.25872" lon="0.84394">
        <ele>129</ele>
        <time>2025-08-17T08:37:11.569Z</time>
      </trkpt>
      <trkpt lat="44.25873" lon="0.84393">
        <ele>129</ele>
        <time>2025-08-17T08:37:12.569Z</time>
      </trkpt>
      <trkpt lat="44.25874" lon="0.84392">
        <ele>129</ele>
        <time>2025-08-17T08:37:13.569Z</time>
      </trkpt>
      <trkpt lat="44.25876" lon="0.84391">
        <ele>128</ele>
        <time>2025-08-17T08:37:14.569Z</time>
      </trkpt>
      <trkpt lat="44.25877" lon="0.8439">
        <ele>128</ele>
        <time>2025-08-17T08:37:15.569Z</time>
      </trkpt>
      <trkpt lat="44.25877" lon="0.84389">
        <ele>128</ele>
        <time>2025-08-17T08:37:16.569Z</time>
      </trkpt>
      <trkpt lat="44.25878" lon="0.84388">
        <ele>128</ele>
        <time>2025-08-17T08:37:17.569Z</time>
      </trkpt>
      <trkpt lat="44.25879" lon="0.84387">
        <ele>128</ele>
        <time>2025-08-17T08:37:18.569Z</time>
      </trkpt>
      <trkpt lat="44.2588" lon="0.84385">
        <ele>128</ele>
        <time>2025-08-17T08:37:19.569Z</time>
      </trkpt>
      <trkpt lat="44.2588" lon="0.84384">
        <ele>128</ele>
        <time>2025-08-17T08:37:20.569Z</time>
      </trkpt>
      <trkpt lat="44.25881" lon="0.84383">
        <ele>128</ele>
        <time>2025-08-17T08:37:21.569Z</time>
      </trkpt>
      <trkpt lat="44.25881" lon="0.84383">
        <ele>128</ele>
        <time>2025-08-17T08:37:22.569Z</time>
      </trkpt>
      <trkpt lat="44.25882" lon="0.84382">
        <ele>128</ele>
        <time>2025-08-17T08:37:23.569Z</time>
      </trkpt>
      <trkpt lat="44.25883" lon="0.84381">
        <ele>127</ele>
        <time>2025-08-17T08:37:24.569Z</time>
      </trkpt>
      <trkpt lat="44.25885" lon="0.84379">
        <ele>127</ele>
        <time>2025-08-17T08:37:25.569Z</time>
      </trkpt>
      <trkpt lat="44.25886" lon="0.84377">
        <ele>127</ele>
        <time>2025-08-17T08:37:26.569Z</time>
      </trkpt>
      <trkpt lat="44.25887" lon="0.84376">
        <ele>126</ele>
        <time>2025-08-17T08:37:27.569Z</time>
      </trkpt>
      <trkpt lat="44.25888" lon="0.84375">
        <ele>126</ele>
        <time>2025-08-17T08:37:28.569Z</time>
      </trkpt>
      <trkpt lat="44.25889" lon="0.84374">
        <ele>126</ele>
        <time>2025-08-17T08:37:29.569Z</time>
      </trkpt>
      <trkpt lat="44.2589" lon="0.84373">
        <ele>126</ele>
        <time>2025-08-17T08:37:30.569Z</time>
      </trkpt>
      <trkpt lat="44.25891" lon="0.84372">
        <ele>126</ele>
        <time>2025-08-17T08:37:31.569Z</time>
      </trkpt>
      <trkpt lat="44.25892" lon="0.84371">
        <ele>126</ele>
        <time>2025-08-17T08:37:32.569Z</time>
      </trkpt>
      <trkpt lat="44.25892" lon="0.8437">
        <ele>126</ele>
        <time>2025-08-17T08:37:33.569Z</time>
      </trkpt>
      <trkpt lat="44.25893" lon="0.84369">
        <ele>126</ele>
        <time>2025-08-17T08:37:34.569Z</time>
      </trkpt>
      <trkpt lat="44.25894" lon="0.84368">
        <ele>125</ele>
        <time>2025-08-17T08:37:35.569Z</time>
      </trkpt>
      <trkpt lat="44.25895" lon="0.84367">
        <ele>125</ele>
        <time>2025-08-17T08:37:36.569Z</time>
      </trkpt>
      <trkpt lat="44.25896" lon="0.84366">
        <ele>125</ele>
        <time>2025-08-17T08:37:37.569Z</time>
      </trkpt>
      <trkpt lat="44.25897" lon="0.84365">
        <ele>125</ele>
        <time>2025-08-17T08:37:38.569Z</time>
      </trkpt>
      <trkpt lat="44.25898" lon="0.84364">
        <ele>124</ele>
        <time>2025-08-17T08:37:39.569Z</time>
      </trkpt>
      <trkpt lat="44.25899" lon="0.84363">
        <ele>124</ele>
        <time>2025-08-17T08:37:40.569Z</time>
      </trkpt>
      <trkpt lat="44.259" lon="0.84362">
        <ele>124</ele>
        <time>2025-08-17T08:37:41.569Z</time>
      </trkpt>
      <trkpt lat="44.25901" lon="0.8436">
        <ele>124</ele>
        <time>2025-08-17T08:37:42.569Z</time>
      </trkpt>
      <trkpt lat="44.25902" lon="0.84359">
        <ele>124</ele>
        <time>2025-08-17T08:37:43.569Z</time>
      </trkpt>
      <trkpt lat="44.25903" lon="0.84358">
        <ele>124</ele>
        <time>2025-08-17T08:37:44.569Z</time>
      </trkpt>
      <trkpt lat="44.25904" lon="0.84357">
        <ele>124</ele>
        <time>2025-08-17T08:37:45.569Z</time>
      </trkpt>
      <trkpt lat="44.25904" lon="0.84356">
        <ele>124</ele>
        <time>2025-08-17T08:37:46.569Z</time>
      </trkpt>
      <trkpt lat="44.25905" lon="0.84355">
        <ele>123</ele>
        <time>2025-08-17T08:37:47.569Z</time>
      </trkpt>
      <trkpt lat="44.25907" lon="0.84353">
        <ele>123</ele>
        <time>2025-08-17T08:37:48.569Z</time>
      </trkpt>
      <trkpt lat="44.25908" lon="0.84352">
        <ele>123</ele>
        <time>2025-08-17T08:37:49.569Z</time>
      </trkpt>
      <trkpt lat="44.25909" lon="0.84351">
        <ele>122</ele>
        <time>2025-08-17T08:37:50.569Z</time>
      </trkpt>
      <trkpt lat="44.2591" lon="0.8435">
        <ele>122</ele>
        <time>2025-08-17T08:37:51.569Z</time>
      </trkpt>
      <trkpt lat="44.25911" lon="0.84349">
        <ele>121</ele>
        <time>2025-08-17T08:37:52.569Z</time>
      </trkpt>
      <trkpt lat="44.25912" lon="0.84348">
        <ele>121</ele>
        <time>2025-08-17T08:37:53.569Z</time>
      </trkpt>
      <trkpt lat="44.25912" lon="0.84347">
        <ele>121</ele>
        <time>2025-08-17T08:37:54.569Z</time>
      </trkpt>
      <trkpt lat="44.25913" lon="0.84346">
        <ele>121</ele>
        <time>2025-08-17T08:37:55.569Z</time>
      </trkpt>
      <trkpt lat="44.25914" lon="0.84345">
        <ele>122</ele>
        <time>2025-08-17T08:37:56.569Z</time>
      </trkpt>
      <trkpt lat="44.25915" lon="0.84344">
        <ele>122</ele>
        <time>2025-08-17T08:37:57.569Z</time>
      </trkpt>
      <trkpt lat="44.25916" lon="0.84342">
        <ele>122</ele>
        <time>2025-08-17T08:37:58.569Z</time>
      </trkpt>
      <trkpt lat="44.25917" lon="0.84341">
        <ele>122</ele>
        <time>2025-08-17T08:37:59.569Z</time>
      </trkpt>
      <trkpt lat="44.25917" lon="0.84341">
        <ele>122</ele>
        <time>2025-08-17T08:38:00.569Z</time>
      </trkpt>
      <trkpt lat="44.25918" lon="0.8434">
        <ele>122</ele>
        <time>2025-08-17T08:38:01.569Z</time>
      </trkpt>
      <trkpt lat="44.25918" lon="0.84339">
        <ele>122</ele>
        <time>2025-08-17T08:38:02.569Z</time>
      </trkpt>
      <trkpt lat="44.2592" lon="0.84337">
        <ele>123</ele>
        <time>2025-08-17T08:38:03.569Z</time>
      </trkpt>
      <trkpt lat="44.25921" lon="0.84336">
        <ele>123</ele>
        <time>2025-08-17T08:38:04.569Z</time>
      </trkpt>
      <trkpt lat="44.25922" lon="0.84335">
        <ele>122</ele>
        <time>2025-08-17T08:38:05.569Z</time>
      </trkpt>
      <trkpt lat="44.25923" lon="0.84333">
        <ele>122</ele>
        <time>2025-08-17T08:38:06.569Z</time>
      </trkpt>
      <trkpt lat="44.25924" lon="0.84332">
        <ele>122</ele>
        <time>2025-08-17T08:38:07.569Z</time>
      </trkpt>
      <trkpt lat="44.25925" lon="0.84331">
        <ele>122</ele>
        <time>2025-08-17T08:38:08.569Z</time>
      </trkpt>
      <trkpt lat="44.25926" lon="0.8433">
        <ele>122</ele>
        <time>2025-08-17T08:38:09.569Z</time>
      </trkpt>
      <trkpt lat="44.25927" lon="0.84329">
        <ele>122</ele>
        <time>2025-08-17T08:38:10.569Z</time>
      </trkpt>
      <trkpt lat="44.25928" lon="0.84328">
        <ele>122</ele>
        <time>2025-08-17T08:38:11.569Z</time>
      </trkpt>
      <trkpt lat="44.25929" lon="0.84327">
        <ele>122</ele>
        <time>2025-08-17T08:38:12.569Z</time>
      </trkpt>
      <trkpt lat="44.25929" lon="0.84326">
        <ele>122</ele>
        <time>2025-08-17T08:38:13.569Z</time>
      </trkpt>
      <trkpt lat="44.2593" lon="0.84325">
        <ele>122</ele>
        <time>2025-08-17T08:38:14.569Z</time>
      </trkpt>
      <trkpt lat="44.25931" lon="0.84324">
        <ele>122</ele>
        <time>2025-08-17T08:38:15.569Z</time>
      </trkpt>
      <trkpt lat="44.25932" lon="0.84323">
        <ele>122</ele>
        <time>2025-08-17T08:38:16.569Z</time>
      </trkpt>
      <trkpt lat="44.25934" lon="0.84322">
        <ele>122</ele>
        <time>2025-08-17T08:38:17.569Z</time>
      </trkpt>
      <trkpt lat="44.25935" lon="0.84321">
        <ele>122</ele>
        <time>2025-08-17T08:38:18.569Z</time>
      </trkpt>
      <trkpt lat="44.25935" lon="0.8432">
        <ele>122</ele>
        <time>2025-08-17T08:38:19.569Z</time>
      </trkpt>
      <trkpt lat="44.25936" lon="0.84319">
        <ele>122</ele>
        <time>2025-08-17T08:38:20.569Z</time>
      </trkpt>
      <trkpt lat="44.25937" lon="0.84318">
        <ele>121</ele>
        <time>2025-08-17T08:38:21.569Z</time>
      </trkpt>
      <trkpt lat="44.25938" lon="0.84317">
        <ele>121</ele>
        <time>2025-08-17T08:38:22.569Z</time>
      </trkpt>
      <trkpt lat="44.25938" lon="0.84316">
        <ele>121</ele>
        <time>2025-08-17T08:38:23.569Z</time>
      </trkpt>
      <trkpt lat="44.25939" lon="0.84315">
        <ele>120</ele>
        <time>2025-08-17T08:38:24.569Z</time>
      </trkpt>
      <trkpt lat="44.2594" lon="0.84313">
        <ele>120</ele>
        <time>2025-08-17T08:38:25.569Z</time>
      </trkpt>
      <trkpt lat="44.2594" lon="0.84312">
        <ele>120</ele>
        <time>2025-08-17T08:38:26.569Z</time>
      </trkpt>
      <trkpt lat="44.25941" lon="0.84312">
        <ele>119</ele>
        <time>2025-08-17T08:38:27.569Z</time>
      </trkpt>
      <trkpt lat="44.25942" lon="0.8431">
        <ele>119</ele>
        <time>2025-08-17T08:38:28.569Z</time>
      </trkpt>
      <trkpt lat="44.25943" lon="0.84308">
        <ele>118</ele>
        <time>2025-08-17T08:38:29.569Z</time>
      </trkpt>
      <trkpt lat="44.25944" lon="0.84307">
        <ele>118</ele>
        <time>2025-08-17T08:38:30.569Z</time>
      </trkpt>
      <trkpt lat="44.25945" lon="0.84304">
        <ele>118</ele>
        <time>2025-08-17T08:38:31.569Z</time>
      </trkpt>
      <trkpt lat="44.25945" lon="0.84303">
        <ele>118</ele>
        <time>2025-08-17T08:38:32.569Z</time>
      </trkpt>
      <trkpt lat="44.25947" lon="0.84302">
        <ele>118</ele>
        <time>2025-08-17T08:38:33.569Z</time>
      </trkpt>
      <trkpt lat="44.25947" lon="0.84301">
        <ele>118</ele>
        <time>2025-08-17T08:38:34.569Z</time>
      </trkpt>
      <trkpt lat="44.25948" lon="0.843">
        <ele>118</ele>
        <time>2025-08-17T08:38:35.569Z</time>
      </trkpt>
      <trkpt lat="44.25949" lon="0.84299">
        <ele>118</ele>
        <time>2025-08-17T08:38:36.569Z</time>
      </trkpt>
      <trkpt lat="44.2595" lon="0.84298">
        <ele>118</ele>
        <time>2025-08-17T08:38:37.569Z</time>
      </trkpt>
      <trkpt lat="44.2595" lon="0.84298">
        <ele>118</ele>
        <time>2025-08-17T08:38:38.569Z</time>
      </trkpt>
      <trkpt lat="44.25951" lon="0.84296">
        <ele>118</ele>
        <time>2025-08-17T08:38:39.569Z</time>
      </trkpt>
      <trkpt lat="44.25952" lon="0.84295">
        <ele>118</ele>
        <time>2025-08-17T08:38:40.569Z</time>
      </trkpt>
      <trkpt lat="44.25953" lon="0.84292">
        <ele>118</ele>
        <time>2025-08-17T08:38:41.569Z</time>
      </trkpt>
      <trkpt lat="44.25954" lon="0.84291">
        <ele>118</ele>
        <time>2025-08-17T08:38:42.569Z</time>
      </trkpt>
      <trkpt lat="44.25955" lon="0.84289">
        <ele>118</ele>
        <time>2025-08-17T08:38:43.569Z</time>
      </trkpt>
      <trkpt lat="44.25956" lon="0.84288">
        <ele>118</ele>
        <time>2025-08-17T08:38:44.569Z</time>
      </trkpt>
      <trkpt lat="44.25957" lon="0.84286">
        <ele>119</ele>
        <time>2025-08-17T08:38:45.569Z</time>
      </trkpt>
      <trkpt lat="44.25958" lon="0.84285">
        <ele>119</ele>
        <time>2025-08-17T08:38:46.569Z</time>
      </trkpt>
      <trkpt lat="44.25959" lon="0.84284">
        <ele>119</ele>
        <time>2025-08-17T08:38:47.569Z</time>
      </trkpt>
      <trkpt lat="44.2596" lon="0.84282">
        <ele>119</ele>
        <time>2025-08-17T08:38:48.569Z</time>
      </trkpt>
      <trkpt lat="44.2596" lon="0.84281">
        <ele>119</ele>
        <time>2025-08-17T08:38:49.569Z</time>
      </trkpt>
      <trkpt lat="44.25961" lon="0.8428">
        <ele>119</ele>
        <time>2025-08-17T08:38:50.569Z</time>
      </trkpt>
      <trkpt lat="44.25962" lon="0.84279">
        <ele>119</ele>
        <time>2025-08-17T08:38:51.569Z</time>
      </trkpt>
      <trkpt lat="44.25963" lon="0.84278">
        <ele>119</ele>
        <time>2025-08-17T08:38:52.569Z</time>
      </trkpt>
      <trkpt lat="44.25964" lon="0.84277">
        <ele>118</ele>
        <time>2025-08-17T08:38:53.569Z</time>
      </trkpt>
      <trkpt lat="44.25965" lon="0.84276">
        <ele>118</ele>
        <time>2025-08-17T08:38:54.569Z</time>
      </trkpt>
      <trkpt lat="44.25966" lon="0.84275">
        <ele>118</ele>
        <time>2025-08-17T08:38:55.569Z</time>
      </trkpt>
      <trkpt lat="44.25966" lon="0.84274">
        <ele>118</ele>
        <time>2025-08-17T08:38:56.569Z</time>
      </trkpt>
      <trkpt lat="44.25967" lon="0.84272">
        <ele>118</ele>
        <time>2025-08-17T08:38:57.569Z</time>
      </trkpt>
      <trkpt lat="44.25968" lon="0.84271">
        <ele>118</ele>
        <time>2025-08-17T08:38:58.569Z</time>
      </trkpt>
      <trkpt lat="44.25969" lon="0.8427">
        <ele>118</ele>
        <time>2025-08-17T08:38:59.569Z</time>
      </trkpt>
      <trkpt lat="44.25969" lon="0.84268">
        <ele>118</ele>
        <time>2025-08-17T08:39:00.569Z</time>
      </trkpt>
      <trkpt lat="44.25971" lon="0.84267">
        <ele>117</ele>
        <time>2025-08-17T08:39:01.569Z</time>
      </trkpt>
      <trkpt lat="44.25971" lon="0.84266">
        <ele>118</ele>
        <time>2025-08-17T08:39:02.569Z</time>
      </trkpt>
      <trkpt lat="44.25972" lon="0.84265">
        <ele>118</ele>
        <time>2025-08-17T08:39:03.569Z</time>
      </trkpt>
      <trkpt lat="44.25973" lon="0.84264">
        <ele>118</ele>
        <time>2025-08-17T08:39:04.569Z</time>
      </trkpt>
      <trkpt lat="44.25974" lon="0.84263">
        <ele>118</ele>
        <time>2025-08-17T08:39:05.569Z</time>
      </trkpt>
      <trkpt lat="44.25974" lon="0.84262">
        <ele>118</ele>
        <time>2025-08-17T08:39:06.569Z</time>
      </trkpt>
      <trkpt lat="44.25975" lon="0.8426">
        <ele>118</ele>
        <time>2025-08-17T08:39:07.569Z</time>
      </trkpt>
      <trkpt lat="44.25977" lon="0.84259">
        <ele>119</ele>
        <time>2025-08-17T08:39:08.569Z</time>
      </trkpt>
      <trkpt lat="44.25978" lon="0.84257">
        <ele>119</ele>
        <time>2025-08-17T08:39:09.569Z</time>
      </trkpt>
      <trkpt lat="44.25978" lon="0.84256">
        <ele>118</ele>
        <time>2025-08-17T08:39:10.569Z</time>
      </trkpt>
      <trkpt lat="44.25979" lon="0.84254">
        <ele>119</ele>
        <time>2025-08-17T08:39:11.569Z</time>
      </trkpt>
      <trkpt lat="44.25979" lon="0.84254">
        <ele>119</ele>
        <time>2025-08-17T08:39:12.569Z</time>
      </trkpt>
      <trkpt lat="44.2598" lon="0.84253">
        <ele>119</ele>
        <time>2025-08-17T08:39:13.569Z</time>
      </trkpt>
      <trkpt lat="44.25982" lon="0.8425">
        <ele>119</ele>
        <time>2025-08-17T08:39:14.569Z</time>
      </trkpt>
      <trkpt lat="44.25982" lon="0.8425">
        <ele>119</ele>
        <time>2025-08-17T08:39:15.569Z</time>
      </trkpt>
      <trkpt lat="44.25983" lon="0.84249">
        <ele>119</ele>
        <time>2025-08-17T08:39:16.569Z</time>
      </trkpt>
      <trkpt lat="44.25984" lon="0.84248">
        <ele>119</ele>
        <time>2025-08-17T08:39:17.569Z</time>
      </trkpt>
      <trkpt lat="44.25984" lon="0.84247">
        <ele>119</ele>
        <time>2025-08-17T08:39:18.569Z</time>
      </trkpt>
      <trkpt lat="44.25986" lon="0.84244">
        <ele>118</ele>
        <time>2025-08-17T08:39:19.569Z</time>
      </trkpt>
      <trkpt lat="44.25987" lon="0.84243">
        <ele>118</ele>
        <time>2025-08-17T08:39:20.569Z</time>
      </trkpt>
      <trkpt lat="44.25989" lon="0.84242">
        <ele>118</ele>
        <time>2025-08-17T08:39:21.569Z</time>
      </trkpt>
      <trkpt lat="44.25989" lon="0.84241">
        <ele>117</ele>
        <time>2025-08-17T08:39:22.569Z</time>
      </trkpt>
      <trkpt lat="44.2599" lon="0.8424">
        <ele>117</ele>
        <time>2025-08-17T08:39:23.569Z</time>
      </trkpt>
      <trkpt lat="44.2599" lon="0.84238">
        <ele>117</ele>
        <time>2025-08-17T08:39:24.569Z</time>
      </trkpt>
      <trkpt lat="44.25991" lon="0.84237">
        <ele>117</ele>
        <time>2025-08-17T08:39:25.569Z</time>
      </trkpt>
      <trkpt lat="44.25992" lon="0.84237">
        <ele>117</ele>
        <time>2025-08-17T08:39:26.569Z</time>
      </trkpt>
      <trkpt lat="44.25993" lon="0.84236">
        <ele>116</ele>
        <time>2025-08-17T08:39:27.569Z</time>
      </trkpt>
      <trkpt lat="44.25994" lon="0.84235">
        <ele>116</ele>
        <time>2025-08-17T08:39:28.569Z</time>
      </trkpt>
      <trkpt lat="44.25995" lon="0.84234">
        <ele>116</ele>
        <time>2025-08-17T08:39:29.569Z</time>
      </trkpt>
      <trkpt lat="44.25996" lon="0.84232">
        <ele>115</ele>
        <time>2025-08-17T08:39:30.569Z</time>
      </trkpt>
      <trkpt lat="44.25997" lon="0.8423">
        <ele>116</ele>
        <time>2025-08-17T08:39:31.569Z</time>
      </trkpt>
      <trkpt lat="44.25998" lon="0.84228">
        <ele>116</ele>
        <time>2025-08-17T08:39:32.569Z</time>
      </trkpt>
      <trkpt lat="44.25999" lon="0.84227">
        <ele>116</ele>
        <time>2025-08-17T08:39:33.569Z</time>
      </trkpt>
      <trkpt lat="44.26" lon="0.84226">
        <ele>116</ele>
        <time>2025-08-17T08:39:34.569Z</time>
      </trkpt>
      <trkpt lat="44.26001" lon="0.84225">
        <ele>116</ele>
        <time>2025-08-17T08:39:35.569Z</time>
      </trkpt>
      <trkpt lat="44.26002" lon="0.84224">
        <ele>116</ele>
        <time>2025-08-17T08:39:36.569Z</time>
      </trkpt>
      <trkpt lat="44.26002" lon="0.84223">
        <ele>116</ele>
        <time>2025-08-17T08:39:37.569Z</time>
      </trkpt>
      <trkpt lat="44.26003" lon="0.84222">
        <ele>116</ele>
        <time>2025-08-17T08:39:38.569Z</time>
      </trkpt>
      <trkpt lat="44.26004" lon="0.84221">
        <ele>116</ele>
        <time>2025-08-17T08:39:39.569Z</time>
      </trkpt>
      <trkpt lat="44.26005" lon="0.8422">
        <ele>116</ele>
        <time>2025-08-17T08:39:40.569Z</time>
      </trkpt>
      <trkpt lat="44.26006" lon="0.84218">
        <ele>116</ele>
        <time>2025-08-17T08:39:41.569Z</time>
      </trkpt>
      <trkpt lat="44.26006" lon="0.84217">
        <ele>116</ele>
        <time>2025-08-17T08:39:42.569Z</time>
      </trkpt>
      <trkpt lat="44.26007" lon="0.84216">
        <ele>115</ele>
        <time>2025-08-17T08:39:43.569Z</time>
      </trkpt>
      <trkpt lat="44.26007" lon="0.84214">
        <ele>115</ele>
        <time>2025-08-17T08:39:44.569Z</time>
      </trkpt>
      <trkpt lat="44.26008" lon="0.84213">
        <ele>115</ele>
        <time>2025-08-17T08:39:45.569Z</time>
      </trkpt>
      <trkpt lat="44.26008" lon="0.84213">
        <ele>115</ele>
        <time>2025-08-17T08:39:46.569Z</time>
      </trkpt>
      <trkpt lat="44.2601" lon="0.84211">
        <ele>114</ele>
        <time>2025-08-17T08:39:47.569Z</time>
      </trkpt>
      <trkpt lat="44.26012" lon="0.8421">
        <ele>114</ele>
        <time>2025-08-17T08:39:48.569Z</time>
      </trkpt>
      <trkpt lat="44.26012" lon="0.8421">
        <ele>114</ele>
        <time>2025-08-17T08:39:49.569Z</time>
      </trkpt>
      <trkpt lat="44.26013" lon="0.84209">
        <ele>114</ele>
        <time>2025-08-17T08:39:50.569Z</time>
      </trkpt>
      <trkpt lat="44.26013" lon="0.84209">
        <ele>114</ele>
        <time>2025-08-17T08:39:51.569Z</time>
      </trkpt>
      <trkpt lat="44.26014" lon="0.84208">
        <ele>114</ele>
        <time>2025-08-17T08:39:52.569Z</time>
      </trkpt>
      <trkpt lat="44.26014" lon="0.84208">
        <ele>114</ele>
        <time>2025-08-17T08:39:53.569Z</time>
      </trkpt>
      <trkpt lat="44.26014" lon="0.84208">
        <ele>114</ele>
        <time>2025-08-17T08:39:54.569Z</time>
      </trkpt>
      <trkpt lat="44.26014" lon="0.84208">
        <ele>114</ele>
        <time>2025-08-17T08:39:55.569Z</time>
      </trkpt>
      <trkpt lat="44.26016" lon="0.84207">
        <ele>113</ele>
        <time>2025-08-17T08:39:56.569Z</time>
      </trkpt>
      <trkpt lat="44.26016" lon="0.84206">
        <ele>113</ele>
        <time>2025-08-17T08:39:57.569Z</time>
      </trkpt>
      <trkpt lat="44.26018" lon="0.84206">
        <ele>113</ele>
        <time>2025-08-17T08:39:58.569Z</time>
      </trkpt>
      <trkpt lat="44.26018" lon="0.84205">
        <ele>113</ele>
        <time>2025-08-17T08:39:59.569Z</time>
      </trkpt>
      <trkpt lat="44.26019" lon="0.84204">
        <ele>113</ele>
        <time>2025-08-17T08:40:00.569Z</time>
      </trkpt>
      <trkpt lat="44.2602" lon="0.84203">
        <ele>113</ele>
        <time>2025-08-17T08:40:01.569Z</time>
      </trkpt>
      <trkpt lat="44.26021" lon="0.84202">
        <ele>113</ele>
        <time>2025-08-17T08:40:02.569Z</time>
      </trkpt>
      <trkpt lat="44.26022" lon="0.84201">
        <ele>113</ele>
        <time>2025-08-17T08:40:03.569Z</time>
      </trkpt>
      <trkpt lat="44.26023" lon="0.84199">
        <ele>113</ele>
        <time>2025-08-17T08:40:04.569Z</time>
      </trkpt>
      <trkpt lat="44.26023" lon="0.84198">
        <ele>113</ele>
        <time>2025-08-17T08:40:05.569Z</time>
      </trkpt>
      <trkpt lat="44.26025" lon="0.84197">
        <ele>113</ele>
        <time>2025-08-17T08:40:06.569Z</time>
      </trkpt>
      <trkpt lat="44.26025" lon="0.84195">
        <ele>113</ele>
        <time>2025-08-17T08:40:07.569Z</time>
      </trkpt>
      <trkpt lat="44.26026" lon="0.84194">
        <ele>113</ele>
        <time>2025-08-17T08:40:08.569Z</time>
      </trkpt>
      <trkpt lat="44.26026" lon="0.84193">
        <ele>112</ele>
        <time>2025-08-17T08:40:09.569Z</time>
      </trkpt>
      <trkpt lat="44.26028" lon="0.84192">
        <ele>112</ele>
        <time>2025-08-17T08:40:10.569Z</time>
      </trkpt>
      <trkpt lat="44.26028" lon="0.84192">
        <ele>112</ele>
        <time>2025-08-17T08:40:11.569Z</time>
      </trkpt>
      <trkpt lat="44.26029" lon="0.84192">
        <ele>111</ele>
        <time>2025-08-17T08:40:12.569Z</time>
      </trkpt>
      <trkpt lat="44.26029" lon="0.84192">
        <ele>111</ele>
        <time>2025-08-17T08:40:13.569Z</time>
      </trkpt>
      <trkpt lat="44.26031" lon="0.84189">
        <ele>111</ele>
        <time>2025-08-17T08:40:14.569Z</time>
      </trkpt>
      <trkpt lat="44.26032" lon="0.84187">
        <ele>111</ele>
        <time>2025-08-17T08:40:15.569Z</time>
      </trkpt>
      <trkpt lat="44.26032" lon="0.84187">
        <ele>111</ele>
        <time>2025-08-17T08:40:16.569Z</time>
      </trkpt>
      <trkpt lat="44.26033" lon="0.84186">
        <ele>111</ele>
        <time>2025-08-17T08:40:17.569Z</time>
      </trkpt>
      <trkpt lat="44.26033" lon="0.84186">
        <ele>111</ele>
        <time>2025-08-17T08:40:18.569Z</time>
      </trkpt>
      <trkpt lat="44.26033" lon="0.84186">
        <ele>111</ele>
        <time>2025-08-17T08:40:19.569Z</time>
      </trkpt>
      <trkpt lat="44.26033" lon="0.84186">
        <ele>111</ele>
        <time>2025-08-17T08:40:20.569Z</time>
      </trkpt>
      <trkpt lat="44.26035" lon="0.84184">
        <ele>111</ele>
        <time>2025-08-17T08:40:21.569Z</time>
      </trkpt>
      <trkpt lat="44.26035" lon="0.84184">
        <ele>111</ele>
        <time>2025-08-17T08:40:22.569Z</time>
      </trkpt>
      <trkpt lat="44.26035" lon="0.84183">
        <ele>111</ele>
        <time>2025-08-17T08:40:23.569Z</time>
      </trkpt>
      <trkpt lat="44.26037" lon="0.84182">
        <ele>111</ele>
        <time>2025-08-17T08:40:24.569Z</time>
      </trkpt>
      <trkpt lat="44.26037" lon="0.84181">
        <ele>111</ele>
        <time>2025-08-17T08:40:25.569Z</time>
      </trkpt>
      <trkpt lat="44.26038" lon="0.8418">
        <ele>111</ele>
        <time>2025-08-17T08:40:26.569Z</time>
      </trkpt>
      <trkpt lat="44.26038" lon="0.8418">
        <ele>111</ele>
        <time>2025-08-17T08:40:27.569Z</time>
      </trkpt>
      <trkpt lat="44.26039" lon="0.84178">
        <ele>111</ele>
        <time>2025-08-17T08:40:28.569Z</time>
      </trkpt>
      <trkpt lat="44.26041" lon="0.84176">
        <ele>110</ele>
        <time>2025-08-17T08:40:29.569Z</time>
      </trkpt>
      <trkpt lat="44.26042" lon="0.84175">
        <ele>110</ele>
        <time>2025-08-17T08:40:30.569Z</time>
      </trkpt>
      <trkpt lat="44.26042" lon="0.84175">
        <ele>110</ele>
        <time>2025-08-17T08:40:31.569Z</time>
      </trkpt>
      <trkpt lat="44.26042" lon="0.84174">
        <ele>110</ele>
        <time>2025-08-17T08:40:32.569Z</time>
      </trkpt>
      <trkpt lat="44.26043" lon="0.84173">
        <ele>110</ele>
        <time>2025-08-17T08:40:33.569Z</time>
      </trkpt>
      <trkpt lat="44.26044" lon="0.84171">
        <ele>110</ele>
        <time>2025-08-17T08:40:34.569Z</time>
      </trkpt>
      <trkpt lat="44.26045" lon="0.8417">
        <ele>111</ele>
        <time>2025-08-17T08:40:35.569Z</time>
      </trkpt>
      <trkpt lat="44.26046" lon="0.84168">
        <ele>111</ele>
        <time>2025-08-17T08:40:36.569Z</time>
      </trkpt>
      <trkpt lat="44.26047" lon="0.84167">
        <ele>111</ele>
        <time>2025-08-17T08:40:37.569Z</time>
      </trkpt>
      <trkpt lat="44.26047" lon="0.84167">
        <ele>111</ele>
        <time>2025-08-17T08:40:38.569Z</time>
      </trkpt>
      <trkpt lat="44.26048" lon="0.84165">
        <ele>111</ele>
        <time>2025-08-17T08:40:39.569Z</time>
      </trkpt>
      <trkpt lat="44.26049" lon="0.84165">
        <ele>112</ele>
        <time>2025-08-17T08:40:40.569Z</time>
      </trkpt>
      <trkpt lat="44.26049" lon="0.84165">
        <ele>112</ele>
        <time>2025-08-17T08:40:41.569Z</time>
      </trkpt>
      <trkpt lat="44.26049" lon="0.84165">
        <ele>112</ele>
        <time>2025-08-17T08:40:42.569Z</time>
      </trkpt>
      <trkpt lat="44.26049" lon="0.84164">
        <ele>112</ele>
        <time>2025-08-17T08:40:43.569Z</time>
      </trkpt>
      <trkpt lat="44.26048" lon="0.84164">
        <ele>112</ele>
        <time>2025-08-17T08:40:44.569Z</time>
      </trkpt>
      <trkpt lat="44.26048" lon="0.84164">
        <ele>112</ele>
        <time>2025-08-17T08:40:45.569Z</time>
      </trkpt>
      <trkpt lat="44.26049" lon="0.84162">
        <ele>112</ele>
        <time>2025-08-17T08:40:46.569Z</time>
      </trkpt>
      <trkpt lat="44.26049" lon="0.84161">
        <ele>112</ele>
        <time>2025-08-17T08:40:47.569Z</time>
      </trkpt>
      <trkpt lat="44.26049" lon="0.84161">
        <ele>112</ele>
        <time>2025-08-17T08:40:48.569Z</time>
      </trkpt>
      <trkpt lat="44.2605" lon="0.8416">
        <ele>112</ele>
        <time>2025-08-17T08:40:49.569Z</time>
      </trkpt>
      <trkpt lat="44.2605" lon="0.8416">
        <ele>112</ele>
        <time>2025-08-17T08:40:50.569Z</time>
      </trkpt>
      <trkpt lat="44.2605" lon="0.8416">
        <ele>112</ele>
        <time>2025-08-17T08:40:51.569Z</time>
      </trkpt>
      <trkpt lat="44.2605" lon="0.84159">
        <ele>112</ele>
        <time>2025-08-17T08:40:52.569Z</time>
      </trkpt>
      <trkpt lat="44.2605" lon="0.84159">
        <ele>113</ele>
        <time>2025-08-17T08:40:53.569Z</time>
      </trkpt>
      <trkpt lat="44.2605" lon="0.84159">
        <ele>113</ele>
        <time>2025-08-17T08:40:54.569Z</time>
      </trkpt>
      <trkpt lat="44.2605" lon="0.84159">
        <ele>113</ele>
        <time>2025-08-17T08:40:55.569Z</time>
      </trkpt>
      <trkpt lat="44.2605" lon="0.84159">
        <ele>113</ele>
        <time>2025-08-17T08:40:56.569Z</time>
      </trkpt>
      <trkpt lat="44.26051" lon="0.84159">
        <ele>113</ele>
        <time>2025-08-17T08:40:57.569Z</time>
      </trkpt>
      <trkpt lat="44.26051" lon="0.84159">
        <ele>113</ele>
        <time>2025-08-17T08:40:58.569Z</time>
      </trkpt>
      <trkpt lat="44.26051" lon="0.84159">
        <ele>112</ele>
        <time>2025-08-17T08:40:59.569Z</time>
      </trkpt>
      <trkpt lat="44.26051" lon="0.84159">
        <ele>112</ele>
        <time>2025-08-17T08:41:00.569Z</time>
      </trkpt>
      <trkpt lat="44.26051" lon="0.84158">
        <ele>112</ele>
        <time>2025-08-17T08:41:01.569Z</time>
      </trkpt>
      <trkpt lat="44.26052" lon="0.84158">
        <ele>112</ele>
        <time>2025-08-17T08:41:02.569Z</time>
      </trkpt>
      <trkpt lat="44.26052" lon="0.84158">
        <ele>112</ele>
        <time>2025-08-17T08:41:03.569Z</time>
      </trkpt>
      <trkpt lat="44.26052" lon="0.84158">
        <ele>112</ele>
        <time>2025-08-17T08:41:04.569Z</time>
      </trkpt>
      <trkpt lat="44.26052" lon="0.84158">
        <ele>112</ele>
        <time>2025-08-17T08:41:05.569Z</time>
      </trkpt>
      <trkpt lat="44.26052" lon="0.84158">
        <ele>112</ele>
        <time>2025-08-17T08:41:06.569Z</time>
      </trkpt>
      <trkpt lat="44.26051" lon="0.84158">
        <ele>112</ele>
        <time>2025-08-17T08:41:07.569Z</time>
      </trkpt>
      <trkpt lat="44.26051" lon="0.84158">
        <ele>112</ele>
        <time>2025-08-17T08:41:08.569Z</time>
      </trkpt>
      <trkpt lat="44.26051" lon="0.84158">
        <ele>112</ele>
        <time>2025-08-17T08:41:09.569Z</time>
      </trkpt>
      <trkpt lat="44.26051" lon="0.84157">
        <ele>111</ele>
        <time>2025-08-17T08:41:10.569Z</time>
      </trkpt>
      <trkpt lat="44.26051" lon="0.84156">
        <ele>111</ele>
        <time>2025-08-17T08:41:11.569Z</time>
      </trkpt>
      <trkpt lat="44.26052" lon="0.84154">
        <ele>110</ele>
        <time>2025-08-17T08:41:12.569Z</time>
      </trkpt>
      <trkpt lat="44.26052" lon="0.84153">
        <ele>110</ele>
        <time>2025-08-17T08:41:13.569Z</time>
      </trkpt>
      <trkpt lat="44.26052" lon="0.84152">
        <ele>110</ele>
        <time>2025-08-17T08:41:14.569Z</time>
      </trkpt>
      <trkpt lat="44.26052" lon="0.84151">
        <ele>110</ele>
        <time>2025-08-17T08:41:15.569Z</time>
      </trkpt>
      <trkpt lat="44.26053" lon="0.8415">
        <ele>110</ele>
        <time>2025-08-17T08:41:16.569Z</time>
      </trkpt>
      <trkpt lat="44.26054" lon="0.84149">
        <ele>109</ele>
        <time>2025-08-17T08:41:17.569Z</time>
      </trkpt>
      <trkpt lat="44.26054" lon="0.84148">
        <ele>109</ele>
        <time>2025-08-17T08:41:18.569Z</time>
      </trkpt>
      <trkpt lat="44.26055" lon="0.84147">
        <ele>109</ele>
        <time>2025-08-17T08:41:19.569Z</time>
      </trkpt>
      <trkpt lat="44.26056" lon="0.84146">
        <ele>108</ele>
        <time>2025-08-17T08:41:20.569Z</time>
      </trkpt>
      <trkpt lat="44.26056" lon="0.84146">
        <ele>108</ele>
        <time>2025-08-17T08:41:21.569Z</time>
      </trkpt>
      <trkpt lat="44.26056" lon="0.84146">
        <ele>108</ele>
        <time>2025-08-17T08:41:22.569Z</time>
      </trkpt>
      <trkpt lat="44.26057" lon="0.84145">
        <ele>108</ele>
        <time>2025-08-17T08:41:23.569Z</time>
      </trkpt>
      <trkpt lat="44.26058" lon="0.84144">
        <ele>108</ele>
        <time>2025-08-17T08:41:24.569Z</time>
      </trkpt>
      <trkpt lat="44.26059" lon="0.84142">
        <ele>109</ele>
        <time>2025-08-17T08:41:25.569Z</time>
      </trkpt>
      <trkpt lat="44.2606" lon="0.84141">
        <ele>109</ele>
        <time>2025-08-17T08:41:26.569Z</time>
      </trkpt>
      <trkpt lat="44.2606" lon="0.84141">
        <ele>109</ele>
        <time>2025-08-17T08:41:27.569Z</time>
      </trkpt>
      <trkpt lat="44.2606" lon="0.8414">
        <ele>109</ele>
        <time>2025-08-17T08:41:28.569Z</time>
      </trkpt>
      <trkpt lat="44.26062" lon="0.84138">
        <ele>109</ele>
        <time>2025-08-17T08:41:29.569Z</time>
      </trkpt>
      <trkpt lat="44.26063" lon="0.84137">
        <ele>109</ele>
        <time>2025-08-17T08:41:30.569Z</time>
      </trkpt>
      <trkpt lat="44.26064" lon="0.84136">
        <ele>109</ele>
        <time>2025-08-17T08:41:31.569Z</time>
      </trkpt>
      <trkpt lat="44.26064" lon="0.84136">
        <ele>109</ele>
        <time>2025-08-17T08:41:32.569Z</time>
      </trkpt>
      <trkpt lat="44.26065" lon="0.84135">
        <ele>109</ele>
        <time>2025-08-17T08:41:33.569Z</time>
      </trkpt>
      <trkpt lat="44.26065" lon="0.84133">
        <ele>109</ele>
        <time>2025-08-17T08:41:34.569Z</time>
      </trkpt>
      <trkpt lat="44.26066" lon="0.84132">
        <ele>109</ele>
        <time>2025-08-17T08:41:35.569Z</time>
      </trkpt>
      <trkpt lat="44.26067" lon="0.8413">
        <ele>109</ele>
        <time>2025-08-17T08:41:36.569Z</time>
      </trkpt>
      <trkpt lat="44.26067" lon="0.84129">
        <ele>110</ele>
        <time>2025-08-17T08:41:37.569Z</time>
      </trkpt>
      <trkpt lat="44.26068" lon="0.84128">
        <ele>110</ele>
        <time>2025-08-17T08:41:38.569Z</time>
      </trkpt>
      <trkpt lat="44.26069" lon="0.84127">
        <ele>110</ele>
        <time>2025-08-17T08:41:39.569Z</time>
      </trkpt>
      <trkpt lat="44.2607" lon="0.84126">
        <ele>110</ele>
        <time>2025-08-17T08:41:40.569Z</time>
      </trkpt>
      <trkpt lat="44.26071" lon="0.84126">
        <ele>109</ele>
        <time>2025-08-17T08:41:41.569Z</time>
      </trkpt>
      <trkpt lat="44.26072" lon="0.84125">
        <ele>109</ele>
        <time>2025-08-17T08:41:42.569Z</time>
      </trkpt>
      <trkpt lat="44.26073" lon="0.84124">
        <ele>108</ele>
        <time>2025-08-17T08:41:43.569Z</time>
      </trkpt>
      <trkpt lat="44.26074" lon="0.84123">
        <ele>108</ele>
        <time>2025-08-17T08:41:44.569Z</time>
      </trkpt>
      <trkpt lat="44.26076" lon="0.84122">
        <ele>107</ele>
        <time>2025-08-17T08:41:45.569Z</time>
      </trkpt>
      <trkpt lat="44.26077" lon="0.84122">
        <ele>107</ele>
        <time>2025-08-17T08:41:46.569Z</time>
      </trkpt>
      <trkpt lat="44.26077" lon="0.84122">
        <ele>107</ele>
        <time>2025-08-17T08:41:47.569Z</time>
      </trkpt>
      <trkpt lat="44.26078" lon="0.8412">
        <ele>107</ele>
        <time>2025-08-17T08:41:48.569Z</time>
      </trkpt>
      <trkpt lat="44.26078" lon="0.84119">
        <ele>107</ele>
        <time>2025-08-17T08:41:49.569Z</time>
      </trkpt>
      <trkpt lat="44.26078" lon="0.84117">
        <ele>106</ele>
        <time>2025-08-17T08:41:50.569Z</time>
      </trkpt>
      <trkpt lat="44.2608" lon="0.84116">
        <ele>106</ele>
        <time>2025-08-17T08:41:51.569Z</time>
      </trkpt>
      <trkpt lat="44.26081" lon="0.84114">
        <ele>106</ele>
        <time>2025-08-17T08:41:52.569Z</time>
      </trkpt>
      <trkpt lat="44.26081" lon="0.84114">
        <ele>106</ele>
        <time>2025-08-17T08:41:53.569Z</time>
      </trkpt>
      <trkpt lat="44.26083" lon="0.84112">
        <ele>105</ele>
        <time>2025-08-17T08:41:54.569Z</time>
      </trkpt>
      <trkpt lat="44.26083" lon="0.84111">
        <ele>105</ele>
        <time>2025-08-17T08:41:55.569Z</time>
      </trkpt>
      <trkpt lat="44.26084" lon="0.8411">
        <ele>105</ele>
        <time>2025-08-17T08:41:56.569Z</time>
      </trkpt>
      <trkpt lat="44.26084" lon="0.84109">
        <ele>105</ele>
        <time>2025-08-17T08:41:57.569Z</time>
      </trkpt>
      <trkpt lat="44.26085" lon="0.84108">
        <ele>105</ele>
        <time>2025-08-17T08:41:58.569Z</time>
      </trkpt>
      <trkpt lat="44.26086" lon="0.84106">
        <ele>104</ele>
        <time>2025-08-17T08:41:59.569Z</time>
      </trkpt>
      <trkpt lat="44.26087" lon="0.84105">
        <ele>104</ele>
        <time>2025-08-17T08:42:00.569Z</time>
      </trkpt>
      <trkpt lat="44.26088" lon="0.84103">
        <ele>104</ele>
        <time>2025-08-17T08:42:01.569Z</time>
      </trkpt>
      <trkpt lat="44.26088" lon="0.84103">
        <ele>104</ele>
        <time>2025-08-17T08:42:02.569Z</time>
      </trkpt>
      <trkpt lat="44.26089" lon="0.84102">
        <ele>104</ele>
        <time>2025-08-17T08:42:03.569Z</time>
      </trkpt>
      <trkpt lat="44.26091" lon="0.841">
        <ele>104</ele>
        <time>2025-08-17T08:42:04.569Z</time>
      </trkpt>
      <trkpt lat="44.26092" lon="0.84099">
        <ele>104</ele>
        <time>2025-08-17T08:42:05.569Z</time>
      </trkpt>
      <trkpt lat="44.26092" lon="0.84098">
        <ele>104</ele>
        <time>2025-08-17T08:42:06.569Z</time>
      </trkpt>
      <trkpt lat="44.26093" lon="0.84097">
        <ele>103</ele>
        <time>2025-08-17T08:42:07.569Z</time>
      </trkpt>
      <trkpt lat="44.26094" lon="0.84096">
        <ele>103</ele>
        <time>2025-08-17T08:42:08.569Z</time>
      </trkpt>
      <trkpt lat="44.26094" lon="0.84096">
        <ele>103</ele>
        <time>2025-08-17T08:42:09.569Z</time>
      </trkpt>
      <trkpt lat="44.26095" lon="0.84096">
        <ele>102</ele>
        <time>2025-08-17T08:42:10.569Z</time>
      </trkpt>
      <trkpt lat="44.26095" lon="0.84096">
        <ele>102</ele>
        <time>2025-08-17T08:42:11.569Z</time>
      </trkpt>
      <trkpt lat="44.26096" lon="0.84096">
        <ele>102</ele>
        <time>2025-08-17T08:42:12.569Z</time>
      </trkpt>
      <trkpt lat="44.26097" lon="0.84096">
        <ele>101</ele>
        <time>2025-08-17T08:42:13.569Z</time>
      </trkpt>
      <trkpt lat="44.26098" lon="0.84096">
        <ele>102</ele>
        <time>2025-08-17T08:42:14.569Z</time>
      </trkpt>
      <trkpt lat="44.26098" lon="0.84095">
        <ele>102</ele>
        <time>2025-08-17T08:42:15.569Z</time>
      </trkpt>
      <trkpt lat="44.26098" lon="0.84094">
        <ele>102</ele>
        <time>2025-08-17T08:42:16.569Z</time>
      </trkpt>
      <trkpt lat="44.26098" lon="0.84093">
        <ele>102</ele>
        <time>2025-08-17T08:42:17.569Z</time>
      </trkpt>
      <trkpt lat="44.26098" lon="0.84092">
        <ele>102</ele>
        <time>2025-08-17T08:42:18.569Z</time>
      </trkpt>
      <trkpt lat="44.26099" lon="0.84092">
        <ele>102</ele>
        <time>2025-08-17T08:42:19.569Z</time>
      </trkpt>
      <trkpt lat="44.26099" lon="0.84092">
        <ele>102</ele>
        <time>2025-08-17T08:42:20.569Z</time>
      </trkpt>
      <trkpt lat="44.26099" lon="0.84092">
        <ele>102</ele>
        <time>2025-08-17T08:42:21.569Z</time>
      </trkpt>
      <trkpt lat="44.261" lon="0.8409">
        <ele>102</ele>
        <time>2025-08-17T08:42:22.569Z</time>
      </trkpt>
      <trkpt lat="44.261" lon="0.8409">
        <ele>102</ele>
        <time>2025-08-17T08:42:23.569Z</time>
      </trkpt>
      <trkpt lat="44.261" lon="0.84089">
        <ele>102</ele>
        <time>2025-08-17T08:42:24.569Z</time>
      </trkpt>
      <trkpt lat="44.261" lon="0.84088">
        <ele>102</ele>
        <time>2025-08-17T08:42:25.569Z</time>
      </trkpt>
      <trkpt lat="44.26101" lon="0.84087">
        <ele>102</ele>
        <time>2025-08-17T08:42:26.569Z</time>
      </trkpt>
      <trkpt lat="44.26101" lon="0.84086">
        <ele>102</ele>
        <time>2025-08-17T08:42:27.569Z</time>
      </trkpt>
      <trkpt lat="44.26102" lon="0.84084">
        <ele>102</ele>
        <time>2025-08-17T08:42:28.569Z</time>
      </trkpt>
      <trkpt lat="44.26103" lon="0.84083">
        <ele>103</ele>
        <time>2025-08-17T08:42:29.569Z</time>
      </trkpt>
      <trkpt lat="44.26104" lon="0.84081">
        <ele>103</ele>
        <time>2025-08-17T08:42:30.569Z</time>
      </trkpt>
      <trkpt lat="44.26104" lon="0.8408">
        <ele>103</ele>
        <time>2025-08-17T08:42:31.569Z</time>
      </trkpt>
      <trkpt lat="44.26104" lon="0.8408">
        <ele>102</ele>
        <time>2025-08-17T08:42:32.569Z</time>
      </trkpt>
      <trkpt lat="44.26104" lon="0.8408">
        <ele>102</ele>
        <time>2025-08-17T08:42:33.569Z</time>
      </trkpt>
      <trkpt lat="44.26104" lon="0.8408">
        <ele>101</ele>
        <time>2025-08-17T08:42:34.569Z</time>
      </trkpt>
      <trkpt lat="44.26104" lon="0.8408">
        <ele>101</ele>
        <time>2025-08-17T08:42:35.569Z</time>
      </trkpt>
      <trkpt lat="44.26104" lon="0.84079">
        <ele>101</ele>
        <time>2025-08-17T08:42:36.569Z</time>
      </trkpt>
      <trkpt lat="44.26104" lon="0.84079">
        <ele>101</ele>
        <time>2025-08-17T08:42:37.569Z</time>
      </trkpt>
      <trkpt lat="44.26104" lon="0.84079">
        <ele>102</ele>
        <time>2025-08-17T08:42:38.569Z</time>
      </trkpt>
      <trkpt lat="44.26104" lon="0.84079">
        <ele>102</ele>
        <time>2025-08-17T08:42:39.569Z</time>
      </trkpt>
      <trkpt lat="44.26104" lon="0.84079">
        <ele>103</ele>
        <time>2025-08-17T08:42:40.569Z</time>
      </trkpt>
      <trkpt lat="44.26105" lon="0.84078">
        <ele>103</ele>
        <time>2025-08-17T08:42:41.569Z</time>
      </trkpt>
      <trkpt lat="44.26105" lon="0.84078">
        <ele>104</ele>
        <time>2025-08-17T08:42:42.569Z</time>
      </trkpt>
      <trkpt lat="44.26105" lon="0.84078">
        <ele>104</ele>
        <time>2025-08-17T08:42:43.569Z</time>
      </trkpt>
      <trkpt lat="44.26105" lon="0.84078">
        <ele>104</ele>
        <time>2025-08-17T08:42:44.569Z</time>
      </trkpt>
      <trkpt lat="44.26105" lon="0.84078">
        <ele>104</ele>
        <time>2025-08-17T08:42:45.569Z</time>
      </trkpt>
      <trkpt lat="44.26105" lon="0.84078">
        <ele>104</ele>
        <time>2025-08-17T08:42:46.569Z</time>
      </trkpt>
      <trkpt lat="44.26105" lon="0.84078">
        <ele>104</ele>
        <time>2025-08-17T08:42:47.569Z</time>
      </trkpt>
      <trkpt lat="44.26105" lon="0.84077">
        <ele>103</ele>
        <time>2025-08-17T08:42:48.569Z</time>
      </trkpt>
      <trkpt lat="44.26105" lon="0.84076">
        <ele>102</ele>
        <time>2025-08-17T08:42:49.569Z</time>
      </trkpt>
      <trkpt lat="44.26105" lon="0.84075">
        <ele>101</ele>
        <time>2025-08-17T08:42:50.569Z</time>
      </trkpt>
      <trkpt lat="44.26106" lon="0.84074">
        <ele>101</ele>
        <time>2025-08-17T08:42:51.569Z</time>
      </trkpt>
      <trkpt lat="44.26106" lon="0.84073">
        <ele>100</ele>
        <time>2025-08-17T08:42:52.569Z</time>
      </trkpt>
      <trkpt lat="44.26107" lon="0.84071">
        <ele>100</ele>
        <time>2025-08-17T08:42:53.569Z</time>
      </trkpt>
      <trkpt lat="44.26108" lon="0.8407">
        <ele>100</ele>
        <time>2025-08-17T08:42:54.569Z</time>
      </trkpt>
      <trkpt lat="44.26109" lon="0.84069">
        <ele>99</ele>
        <time>2025-08-17T08:42:55.569Z</time>
      </trkpt>
      <trkpt lat="44.26109" lon="0.84067">
        <ele>99</ele>
        <time>2025-08-17T08:42:56.569Z</time>
      </trkpt>
      <trkpt lat="44.2611" lon="0.84066">
        <ele>99</ele>
        <time>2025-08-17T08:42:57.569Z</time>
      </trkpt>
      <trkpt lat="44.2611" lon="0.84066">
        <ele>99</ele>
        <time>2025-08-17T08:42:58.569Z</time>
      </trkpt>
      <trkpt lat="44.26111" lon="0.84065">
        <ele>99</ele>
        <time>2025-08-17T08:42:59.569Z</time>
      </trkpt>
      <trkpt lat="44.26112" lon="0.84063">
        <ele>99</ele>
        <time>2025-08-17T08:43:00.569Z</time>
      </trkpt>
      <trkpt lat="44.26113" lon="0.84062">
        <ele>99</ele>
        <time>2025-08-17T08:43:01.569Z</time>
      </trkpt>
      <trkpt lat="44.26113" lon="0.84062">
        <ele>99</ele>
        <time>2025-08-17T08:43:02.569Z</time>
      </trkpt>
      <trkpt lat="44.26113" lon="0.84061">
        <ele>99</ele>
        <time>2025-08-17T08:43:03.569Z</time>
      </trkpt>
      <trkpt lat="44.26114" lon="0.8406">
        <ele>99</ele>
        <time>2025-08-17T08:43:04.569Z</time>
      </trkpt>
      <trkpt lat="44.26115" lon="0.84058">
        <ele>99</ele>
        <time>2025-08-17T08:43:05.569Z</time>
      </trkpt>
      <trkpt lat="44.26116" lon="0.84057">
        <ele>99</ele>
        <time>2025-08-17T08:43:06.569Z</time>
      </trkpt>
      <trkpt lat="44.26117" lon="0.84056">
        <ele>99</ele>
        <time>2025-08-17T08:43:07.569Z</time>
      </trkpt>
      <trkpt lat="44.26117" lon="0.84056">
        <ele>99</ele>
        <time>2025-08-17T08:43:08.569Z</time>
      </trkpt>
      <trkpt lat="44.26119" lon="0.84053">
        <ele>99</ele>
        <time>2025-08-17T08:43:09.569Z</time>
      </trkpt>
      <trkpt lat="44.26119" lon="0.84052">
        <ele>98</ele>
        <time>2025-08-17T08:43:10.569Z</time>
      </trkpt>
      <trkpt lat="44.26119" lon="0.84052">
        <ele>98</ele>
        <time>2025-08-17T08:43:11.569Z</time>
      </trkpt>
      <trkpt lat="44.2612" lon="0.8405">
        <ele>98</ele>
        <time>2025-08-17T08:43:12.569Z</time>
      </trkpt>
      <trkpt lat="44.26122" lon="0.84048">
        <ele>98</ele>
        <time>2025-08-17T08:43:13.569Z</time>
      </trkpt>
      <trkpt lat="44.26123" lon="0.84047">
        <ele>98</ele>
        <time>2025-08-17T08:43:14.569Z</time>
      </trkpt>
      <trkpt lat="44.26124" lon="0.84046">
        <ele>97</ele>
        <time>2025-08-17T08:43:15.569Z</time>
      </trkpt>
      <trkpt lat="44.26125" lon="0.84044">
        <ele>97</ele>
        <time>2025-08-17T08:43:16.569Z</time>
      </trkpt>
      <trkpt lat="44.26125" lon="0.84043">
        <ele>97</ele>
        <time>2025-08-17T08:43:17.569Z</time>
      </trkpt>
      <trkpt lat="44.26127" lon="0.84041">
        <ele>97</ele>
        <time>2025-08-17T08:43:18.569Z</time>
      </trkpt>
      <trkpt lat="44.26127" lon="0.84041">
        <ele>97</ele>
        <time>2025-08-17T08:43:19.569Z</time>
      </trkpt>
      <trkpt lat="44.26127" lon="0.8404">
        <ele>97</ele>
        <time>2025-08-17T08:43:20.569Z</time>
      </trkpt>
      <trkpt lat="44.26128" lon="0.84038">
        <ele>96</ele>
        <time>2025-08-17T08:43:21.569Z</time>
      </trkpt>
      <trkpt lat="44.26129" lon="0.84037">
        <ele>96</ele>
        <time>2025-08-17T08:43:22.569Z</time>
      </trkpt>
      <trkpt lat="44.26129" lon="0.84037">
        <ele>96</ele>
        <time>2025-08-17T08:43:23.569Z</time>
      </trkpt>
      <trkpt lat="44.2613" lon="0.84034">
        <ele>97</ele>
        <time>2025-08-17T08:43:24.569Z</time>
      </trkpt>
      <trkpt lat="44.26131" lon="0.84032">
        <ele>97</ele>
        <time>2025-08-17T08:43:25.569Z</time>
      </trkpt>
      <trkpt lat="44.26132" lon="0.84031">
        <ele>97</ele>
        <time>2025-08-17T08:43:26.569Z</time>
      </trkpt>
      <trkpt lat="44.26132" lon="0.8403">
        <ele>96</ele>
        <time>2025-08-17T08:43:27.569Z</time>
      </trkpt>
      <trkpt lat="44.26133" lon="0.84029">
        <ele>96</ele>
        <time>2025-08-17T08:43:28.569Z</time>
      </trkpt>
      <trkpt lat="44.26134" lon="0.84027">
        <ele>96</ele>
        <time>2025-08-17T08:43:29.569Z</time>
      </trkpt>
      <trkpt lat="44.26134" lon="0.84027">
        <ele>96</ele>
        <time>2025-08-17T08:43:30.569Z</time>
      </trkpt>
      <trkpt lat="44.26135" lon="0.84027">
        <ele>96</ele>
        <time>2025-08-17T08:43:31.569Z</time>
      </trkpt>
      <trkpt lat="44.26136" lon="0.84027">
        <ele>96</ele>
        <time>2025-08-17T08:43:32.569Z</time>
      </trkpt>
      <trkpt lat="44.26136" lon="0.84027">
        <ele>96</ele>
        <time>2025-08-17T08:43:33.569Z</time>
      </trkpt>
      <trkpt lat="44.26136" lon="0.84026">
        <ele>95</ele>
        <time>2025-08-17T08:43:34.569Z</time>
      </trkpt>
      <trkpt lat="44.26137" lon="0.84025">
        <ele>95</ele>
        <time>2025-08-17T08:43:35.569Z</time>
      </trkpt>
      <trkpt lat="44.26138" lon="0.84024">
        <ele>95</ele>
        <time>2025-08-17T08:43:36.569Z</time>
      </trkpt>
      <trkpt lat="44.26138" lon="0.84024">
        <ele>95</ele>
        <time>2025-08-17T08:43:37.569Z</time>
      </trkpt>
      <trkpt lat="44.26139" lon="0.84019">
        <ele>95</ele>
        <time>2025-08-17T08:43:38.569Z</time>
      </trkpt>
      <trkpt lat="44.26139" lon="0.84018">
        <ele>95</ele>
        <time>2025-08-17T08:43:39.569Z</time>
      </trkpt>
      <trkpt lat="44.26139" lon="0.84018">
        <ele>95</ele>
        <time>2025-08-17T08:43:40.569Z</time>
      </trkpt>
      <trkpt lat="44.2614" lon="0.84017">
        <ele>95</ele>
        <time>2025-08-17T08:43:41.569Z</time>
      </trkpt>
      <trkpt lat="44.26141" lon="0.84016">
        <ele>95</ele>
        <time>2025-08-17T08:43:42.569Z</time>
      </trkpt>
      <trkpt lat="44.26141" lon="0.84014">
        <ele>95</ele>
        <time>2025-08-17T08:43:43.569Z</time>
      </trkpt>
      <trkpt lat="44.26142" lon="0.84013">
        <ele>95</ele>
        <time>2025-08-17T08:43:44.569Z</time>
      </trkpt>
      <trkpt lat="44.26143" lon="0.8401">
        <ele>95</ele>
        <time>2025-08-17T08:43:45.569Z</time>
      </trkpt>
      <trkpt lat="44.26143" lon="0.84008">
        <ele>94</ele>
        <time>2025-08-17T08:43:46.569Z</time>
      </trkpt>
      <trkpt lat="44.26143" lon="0.84007">
        <ele>95</ele>
        <time>2025-08-17T08:43:47.569Z</time>
      </trkpt>
      <trkpt lat="44.26144" lon="0.84006">
        <ele>95</ele>
        <time>2025-08-17T08:43:48.569Z</time>
      </trkpt>
      <trkpt lat="44.26145" lon="0.84004">
        <ele>95</ele>
        <time>2025-08-17T08:43:49.569Z</time>
      </trkpt>
      <trkpt lat="44.26145" lon="0.84002">
        <ele>95</ele>
        <time>2025-08-17T08:43:50.569Z</time>
      </trkpt>
      <trkpt lat="44.26146" lon="0.84001">
        <ele>95</ele>
        <time>2025-08-17T08:43:51.569Z</time>
      </trkpt>
      <trkpt lat="44.26147" lon="0.84">
        <ele>95</ele>
        <time>2025-08-17T08:43:52.569Z</time>
      </trkpt>
      <trkpt lat="44.26148" lon="0.83998">
        <ele>95</ele>
        <time>2025-08-17T08:43:53.569Z</time>
      </trkpt>
      <trkpt lat="44.26148" lon="0.83997">
        <ele>95</ele>
        <time>2025-08-17T08:43:54.569Z</time>
      </trkpt>
      <trkpt lat="44.26148" lon="0.83996">
        <ele>96</ele>
        <time>2025-08-17T08:43:55.569Z</time>
      </trkpt>
      <trkpt lat="44.26148" lon="0.83994">
        <ele>96</ele>
        <time>2025-08-17T08:43:56.569Z</time>
      </trkpt>
      <trkpt lat="44.26148" lon="0.83992">
        <ele>96</ele>
        <time>2025-08-17T08:43:57.569Z</time>
      </trkpt>
      <trkpt lat="44.26149" lon="0.8399">
        <ele>96</ele>
        <time>2025-08-17T08:43:58.569Z</time>
      </trkpt>
      <trkpt lat="44.26149" lon="0.83988">
        <ele>96</ele>
        <time>2025-08-17T08:43:59.569Z</time>
      </trkpt>
      <trkpt lat="44.26149" lon="0.83986">
        <ele>96</ele>
        <time>2025-08-17T08:44:00.569Z</time>
      </trkpt>
      <trkpt lat="44.26149" lon="0.83984">
        <ele>96</ele>
        <time>2025-08-17T08:44:01.569Z</time>
      </trkpt>
      <trkpt lat="44.26149" lon="0.83982">
        <ele>96</ele>
        <time>2025-08-17T08:44:02.569Z</time>
      </trkpt>
      <trkpt lat="44.2615" lon="0.83981">
        <ele>96</ele>
        <time>2025-08-17T08:44:03.569Z</time>
      </trkpt>
      <trkpt lat="44.2615" lon="0.83979">
        <ele>96</ele>
        <time>2025-08-17T08:44:04.569Z</time>
      </trkpt>
      <trkpt lat="44.2615" lon="0.83978">
        <ele>95</ele>
        <time>2025-08-17T08:44:05.569Z</time>
      </trkpt>
      <trkpt lat="44.26149" lon="0.83976">
        <ele>96</ele>
        <time>2025-08-17T08:44:06.569Z</time>
      </trkpt>
      <trkpt lat="44.26149" lon="0.83975">
        <ele>96</ele>
        <time>2025-08-17T08:44:07.569Z</time>
      </trkpt>
      <trkpt lat="44.26149" lon="0.83973">
        <ele>96</ele>
        <time>2025-08-17T08:44:08.569Z</time>
      </trkpt>
      <trkpt lat="44.26149" lon="0.83972">
        <ele>96</ele>
        <time>2025-08-17T08:44:09.569Z</time>
      </trkpt>
      <trkpt lat="44.2615" lon="0.83972">
        <ele>96</ele>
        <time>2025-08-17T08:44:10.569Z</time>
      </trkpt>
      <trkpt lat="44.2615" lon="0.83972">
        <ele>95</ele>
        <time>2025-08-17T08:44:11.569Z</time>
      </trkpt>
      <trkpt lat="44.26151" lon="0.83971">
        <ele>95</ele>
        <time>2025-08-17T08:44:12.569Z</time>
      </trkpt>
      <trkpt lat="44.26151" lon="0.83971">
        <ele>95</ele>
        <time>2025-08-17T08:44:13.569Z</time>
      </trkpt>
      <trkpt lat="44.26151" lon="0.83969">
        <ele>94</ele>
        <time>2025-08-17T08:44:14.569Z</time>
      </trkpt>
      <trkpt lat="44.26152" lon="0.83968">
        <ele>94</ele>
        <time>2025-08-17T08:44:15.569Z</time>
      </trkpt>
      <trkpt lat="44.26152" lon="0.83967">
        <ele>94</ele>
        <time>2025-08-17T08:44:16.569Z</time>
      </trkpt>
      <trkpt lat="44.26152" lon="0.83965">
        <ele>93</ele>
        <time>2025-08-17T08:44:17.569Z</time>
      </trkpt>
      <trkpt lat="44.26152" lon="0.83965">
        <ele>93</ele>
        <time>2025-08-17T08:44:18.569Z</time>
      </trkpt>
      <trkpt lat="44.26153" lon="0.83964">
        <ele>93</ele>
        <time>2025-08-17T08:44:19.569Z</time>
      </trkpt>
      <trkpt lat="44.26153" lon="0.83963">
        <ele>93</ele>
        <time>2025-08-17T08:44:20.569Z</time>
      </trkpt>
      <trkpt lat="44.26153" lon="0.83963">
        <ele>93</ele>
        <time>2025-08-17T08:44:21.569Z</time>
      </trkpt>
      <trkpt lat="44.26154" lon="0.83962">
        <ele>93</ele>
        <time>2025-08-17T08:44:22.569Z</time>
      </trkpt>
      <trkpt lat="44.26154" lon="0.8396">
        <ele>93</ele>
        <time>2025-08-17T08:44:23.569Z</time>
      </trkpt>
      <trkpt lat="44.26154" lon="0.83958">
        <ele>93</ele>
        <time>2025-08-17T08:44:24.569Z</time>
      </trkpt>
      <trkpt lat="44.26154" lon="0.83957">
        <ele>93</ele>
        <time>2025-08-17T08:44:25.569Z</time>
      </trkpt>
      <trkpt lat="44.26154" lon="0.83956">
        <ele>93</ele>
        <time>2025-08-17T08:44:26.569Z</time>
      </trkpt>
      <trkpt lat="44.26154" lon="0.83955">
        <ele>93</ele>
        <time>2025-08-17T08:44:27.569Z</time>
      </trkpt>
      <trkpt lat="44.26154" lon="0.83954">
        <ele>94</ele>
        <time>2025-08-17T08:44:28.569Z</time>
      </trkpt>
      <trkpt lat="44.26154" lon="0.83954">
        <ele>94</ele>
        <time>2025-08-17T08:44:29.569Z</time>
      </trkpt>
      <trkpt lat="44.26154" lon="0.83949">
        <ele>94</ele>
        <time>2025-08-17T08:44:30.569Z</time>
      </trkpt>
      <trkpt lat="44.26154" lon="0.83946">
        <ele>94</ele>
        <time>2025-08-17T08:44:31.569Z</time>
      </trkpt>
      <trkpt lat="44.26154" lon="0.83944">
        <ele>94</ele>
        <time>2025-08-17T08:44:32.569Z</time>
      </trkpt>
      <trkpt lat="44.26154" lon="0.83942">
        <ele>93</ele>
        <time>2025-08-17T08:44:33.569Z</time>
      </trkpt>
      <trkpt lat="44.26154" lon="0.83941">
        <ele>93</ele>
        <time>2025-08-17T08:44:34.569Z</time>
      </trkpt>
      <trkpt lat="44.26155" lon="0.8394">
        <ele>93</ele>
        <time>2025-08-17T08:44:35.569Z</time>
      </trkpt>
      <trkpt lat="44.26156" lon="0.83939">
        <ele>93</ele>
        <time>2025-08-17T08:44:36.569Z</time>
      </trkpt>
      <trkpt lat="44.26156" lon="0.83937">
        <ele>92</ele>
        <time>2025-08-17T08:44:37.569Z</time>
      </trkpt>
      <trkpt lat="44.26156" lon="0.83936">
        <ele>92</ele>
        <time>2025-08-17T08:44:38.569Z</time>
      </trkpt>
      <trkpt lat="44.26156" lon="0.83934">
        <ele>92</ele>
        <time>2025-08-17T08:44:39.569Z</time>
      </trkpt>
      <trkpt lat="44.26157" lon="0.83933">
        <ele>92</ele>
        <time>2025-08-17T08:44:40.569Z</time>
      </trkpt>
      <trkpt lat="44.26157" lon="0.83932">
        <ele>92</ele>
        <time>2025-08-17T08:44:41.569Z</time>
      </trkpt>
      <trkpt lat="44.26158" lon="0.83931">
        <ele>92</ele>
        <time>2025-08-17T08:44:42.569Z</time>
      </trkpt>
      <trkpt lat="44.26158" lon="0.8393">
        <ele>92</ele>
        <time>2025-08-17T08:44:43.569Z</time>
      </trkpt>
      <trkpt lat="44.26159" lon="0.83928">
        <ele>92</ele>
        <time>2025-08-17T08:44:44.569Z</time>
      </trkpt>
      <trkpt lat="44.26159" lon="0.83927">
        <ele>92</ele>
        <time>2025-08-17T08:44:45.569Z</time>
      </trkpt>
      <trkpt lat="44.26158" lon="0.83926">
        <ele>93</ele>
        <time>2025-08-17T08:44:46.569Z</time>
      </trkpt>
      <trkpt lat="44.26158" lon="0.83925">
        <ele>93</ele>
        <time>2025-08-17T08:44:47.569Z</time>
      </trkpt>
      <trkpt lat="44.26158" lon="0.83925">
        <ele>93</ele>
        <time>2025-08-17T08:44:48.569Z</time>
      </trkpt>
      <trkpt lat="44.26159" lon="0.83924">
        <ele>93</ele>
        <time>2025-08-17T08:44:49.569Z</time>
      </trkpt>
      <trkpt lat="44.26159" lon="0.83924">
        <ele>93</ele>
        <time>2025-08-17T08:44:50.569Z</time>
      </trkpt>
      <trkpt lat="44.26159" lon="0.83923">
        <ele>94</ele>
        <time>2025-08-17T08:44:51.569Z</time>
      </trkpt>
      <trkpt lat="44.26159" lon="0.83923">
        <ele>94</ele>
        <time>2025-08-17T08:44:52.569Z</time>
      </trkpt>
      <trkpt lat="44.26159" lon="0.83923">
        <ele>93</ele>
        <time>2025-08-17T08:44:53.569Z</time>
      </trkpt>
      <trkpt lat="44.26159" lon="0.83923">
        <ele>93</ele>
        <time>2025-08-17T08:44:54.569Z</time>
      </trkpt>
      <trkpt lat="44.26159" lon="0.83923">
        <ele>93</ele>
        <time>2025-08-17T08:44:55.569Z</time>
      </trkpt>
      <trkpt lat="44.26159" lon="0.83923">
        <ele>93</ele>
        <time>2025-08-17T08:44:56.569Z</time>
      </trkpt>
      <trkpt lat="44.26159" lon="0.83923">
        <ele>93</ele>
        <time>2025-08-17T08:44:57.569Z</time>
      </trkpt>
      <trkpt lat="44.26159" lon="0.83923">
        <ele>93</ele>
        <time>2025-08-17T08:44:58.569Z</time>
      </trkpt>
      <trkpt lat="44.26159" lon="0.83923">
        <ele>93</ele>
        <time>2025-08-17T08:44:59.569Z</time>
      </trkpt>
      <trkpt lat="44.26159" lon="0.83923">
        <ele>93</ele>
        <time>2025-08-17T08:45:00.569Z</time>
      </trkpt>
      <trkpt lat="44.26159" lon="0.83923">
        <ele>93</ele>
        <time>2025-08-17T08:45:01.569Z</time>
      </trkpt>
      <trkpt lat="44.26159" lon="0.83923">
        <ele>93</ele>
        <time>2025-08-17T08:45:02.569Z</time>
      </trkpt>
      <trkpt lat="44.26159" lon="0.83923">
        <ele>93</ele>
        <time>2025-08-17T08:45:03.569Z</time>
      </trkpt>
      <trkpt lat="44.26159" lon="0.83923">
        <ele>94</ele>
        <time>2025-08-17T08:45:04.569Z</time>
      </trkpt>
      <trkpt lat="44.26159" lon="0.83923">
        <ele>94</ele>
        <time>2025-08-17T08:45:05.569Z</time>
      </trkpt>
      <trkpt lat="44.26159" lon="0.83923">
        <ele>94</ele>
        <time>2025-08-17T08:45:06.569Z</time>
      </trkpt>
      <trkpt lat="44.26159" lon="0.83922">
        <ele>94</ele>
        <time>2025-08-17T08:45:07.569Z</time>
      </trkpt>
      <trkpt lat="44.26159" lon="0.83922">
        <ele>93</ele>
        <time>2025-08-17T08:45:08.569Z</time>
      </trkpt>
      <trkpt lat="44.26159" lon="0.83922">
        <ele>94</ele>
        <time>2025-08-17T08:45:09.569Z</time>
      </trkpt>
      <trkpt lat="44.26159" lon="0.83922">
        <ele>94</ele>
        <time>2025-08-17T08:45:10.569Z</time>
      </trkpt>
      <trkpt lat="44.26159" lon="0.83922">
        <ele>94</ele>
        <time>2025-08-17T08:45:11.569Z</time>
      </trkpt>
      <trkpt lat="44.26159" lon="0.83922">
        <ele>94</ele>
        <time>2025-08-17T08:45:12.569Z</time>
      </trkpt>
      <trkpt lat="44.26159" lon="0.83922">
        <ele>94</ele>
        <time>2025-08-17T08:45:13.569Z</time>
      </trkpt>
      <trkpt lat="44.26159" lon="0.83922">
        <ele>94</ele>
        <time>2025-08-17T08:45:14.569Z</time>
      </trkpt>
      <trkpt lat="44.26159" lon="0.83922">
        <ele>94</ele>
        <time>2025-08-17T08:45:15.569Z</time>
      </trkpt>
      <trkpt lat="44.26158" lon="0.83921">
        <ele>94</ele>
        <time>2025-08-17T08:45:16.569Z</time>
      </trkpt>
      <trkpt lat="44.26158" lon="0.83921">
        <ele>94</ele>
        <time>2025-08-17T08:45:17.569Z</time>
      </trkpt>
      <trkpt lat="44.26158" lon="0.83921">
        <ele>94</ele>
        <time>2025-08-17T08:45:18.569Z</time>
      </trkpt>
      <trkpt lat="44.26158" lon="0.8392">
        <ele>94</ele>
        <time>2025-08-17T08:45:19.569Z</time>
      </trkpt>
      <trkpt lat="44.26158" lon="0.8392">
        <ele>94</ele>
        <time>2025-08-17T08:45:20.569Z</time>
      </trkpt>
      <trkpt lat="44.26158" lon="0.8392">
        <ele>94</ele>
        <time>2025-08-17T08:45:21.569Z</time>
      </trkpt>
      <trkpt lat="44.26158" lon="0.8392">
        <ele>94</ele>
        <time>2025-08-17T08:45:22.569Z</time>
      </trkpt>
      <trkpt lat="44.26157" lon="0.8392">
        <ele>94</ele>
        <time>2025-08-17T08:45:23.569Z</time>
      </trkpt>
      <trkpt lat="44.26157" lon="0.8392">
        <ele>93</ele>
        <time>2025-08-17T08:45:24.569Z</time>
      </trkpt>
      <trkpt lat="44.26157" lon="0.8392">
        <ele>93</ele>
        <time>2025-08-17T08:45:25.569Z</time>
      </trkpt>
      <trkpt lat="44.26157" lon="0.8392">
        <ele>93</ele>
        <time>2025-08-17T08:45:26.569Z</time>
      </trkpt>
      <trkpt lat="44.26157" lon="0.8392">
        <ele>92</ele>
        <time>2025-08-17T08:45:27.569Z</time>
      </trkpt>
      <trkpt lat="44.26157" lon="0.8392">
        <ele>92</ele>
        <time>2025-08-17T08:45:28.569Z</time>
      </trkpt>
      <trkpt lat="44.26157" lon="0.8392">
        <ele>92</ele>
        <time>2025-08-17T08:45:29.569Z</time>
      </trkpt>
      <trkpt lat="44.26156" lon="0.8392">
        <ele>92</ele>
        <time>2025-08-17T08:45:30.569Z</time>
      </trkpt>
      <trkpt lat="44.26156" lon="0.83921">
        <ele>92</ele>
        <time>2025-08-17T08:45:31.569Z</time>
      </trkpt>
      <trkpt lat="44.26155" lon="0.83921">
        <ele>91</ele>
        <time>2025-08-17T08:45:32.569Z</time>
      </trkpt>
      <trkpt lat="44.26155" lon="0.83921">
        <ele>91</ele>
        <time>2025-08-17T08:45:33.569Z</time>
      </trkpt>
      <trkpt lat="44.26155" lon="0.83921">
        <ele>91</ele>
        <time>2025-08-17T08:45:34.569Z</time>
      </trkpt>
      <trkpt lat="44.26155" lon="0.83921">
        <ele>91</ele>
        <time>2025-08-17T08:45:35.569Z</time>
      </trkpt>
      <trkpt lat="44.26154" lon="0.83921">
        <ele>91</ele>
        <time>2025-08-17T08:45:36.569Z</time>
      </trkpt>
      <trkpt lat="44.26154" lon="0.83922">
        <ele>91</ele>
        <time>2025-08-17T08:45:37.569Z</time>
      </trkpt>
      <trkpt lat="44.26152" lon="0.83922">
        <ele>92</ele>
        <time>2025-08-17T08:45:38.569Z</time>
      </trkpt>
      <trkpt lat="44.26152" lon="0.83922">
        <ele>92</ele>
        <time>2025-08-17T08:45:39.569Z</time>
      </trkpt>
      <trkpt lat="44.26151" lon="0.83922">
        <ele>92</ele>
        <time>2025-08-17T08:45:40.569Z</time>
      </trkpt>
      <trkpt lat="44.2615" lon="0.83922">
        <ele>92</ele>
        <time>2025-08-17T08:45:41.569Z</time>
      </trkpt>
      <trkpt lat="44.26149" lon="0.83923">
        <ele>93</ele>
        <time>2025-08-17T08:45:42.569Z</time>
      </trkpt>
      <trkpt lat="44.26148" lon="0.83923">
        <ele>93</ele>
        <time>2025-08-17T08:45:43.569Z</time>
      </trkpt>
      <trkpt lat="44.26147" lon="0.83923">
        <ele>93</ele>
        <time>2025-08-17T08:45:44.569Z</time>
      </trkpt>
      <trkpt lat="44.26146" lon="0.83923">
        <ele>93</ele>
        <time>2025-08-17T08:45:45.569Z</time>
      </trkpt>
      <trkpt lat="44.26146" lon="0.83922">
        <ele>93</ele>
        <time>2025-08-17T08:45:46.569Z</time>
      </trkpt>
      <trkpt lat="44.26145" lon="0.83922">
        <ele>93</ele>
        <time>2025-08-17T08:45:47.569Z</time>
      </trkpt>
      <trkpt lat="44.26145" lon="0.83923">
        <ele>94</ele>
        <time>2025-08-17T08:45:48.569Z</time>
      </trkpt>
      <trkpt lat="44.26144" lon="0.83923">
        <ele>94</ele>
        <time>2025-08-17T08:45:49.569Z</time>
      </trkpt>
      <trkpt lat="44.26143" lon="0.83923">
        <ele>94</ele>
        <time>2025-08-17T08:45:50.569Z</time>
      </trkpt>
      <trkpt lat="44.26142" lon="0.83924">
        <ele>94</ele>
        <time>2025-08-17T08:45:51.569Z</time>
      </trkpt>
      <trkpt lat="44.26141" lon="0.83924">
        <ele>94</ele>
        <time>2025-08-17T08:45:52.569Z</time>
      </trkpt>
      <trkpt lat="44.2614" lon="0.83924">
        <ele>94</ele>
        <time>2025-08-17T08:45:53.569Z</time>
      </trkpt>
      <trkpt lat="44.26139" lon="0.83924">
        <ele>94</ele>
        <time>2025-08-17T08:45:54.569Z</time>
      </trkpt>
      <trkpt lat="44.26138" lon="0.83924">
        <ele>93</ele>
        <time>2025-08-17T08:45:55.569Z</time>
      </trkpt>
      <trkpt lat="44.26137" lon="0.83924">
        <ele>93</ele>
        <time>2025-08-17T08:45:56.569Z</time>
      </trkpt>
      <trkpt lat="44.26136" lon="0.83924">
        <ele>93</ele>
        <time>2025-08-17T08:45:57.569Z</time>
      </trkpt>
      <trkpt lat="44.26135" lon="0.83924">
        <ele>94</ele>
        <time>2025-08-17T08:45:58.569Z</time>
      </trkpt>
      <trkpt lat="44.26134" lon="0.83925">
        <ele>94</ele>
        <time>2025-08-17T08:45:59.569Z</time>
      </trkpt>
      <trkpt lat="44.26132" lon="0.83925">
        <ele>94</ele>
        <time>2025-08-17T08:46:00.569Z</time>
      </trkpt>
      <trkpt lat="44.26131" lon="0.83925">
        <ele>94</ele>
        <time>2025-08-17T08:46:01.569Z</time>
      </trkpt>
      <trkpt lat="44.2613" lon="0.83925">
        <ele>93</ele>
        <time>2025-08-17T08:46:02.569Z</time>
      </trkpt>
      <trkpt lat="44.2613" lon="0.83924">
        <ele>93</ele>
        <time>2025-08-17T08:46:03.569Z</time>
      </trkpt>
      <trkpt lat="44.26129" lon="0.83925">
        <ele>93</ele>
        <time>2025-08-17T08:46:04.569Z</time>
      </trkpt>
      <trkpt lat="44.26129" lon="0.83925">
        <ele>94</ele>
        <time>2025-08-17T08:46:05.569Z</time>
      </trkpt>
      <trkpt lat="44.26128" lon="0.83925">
        <ele>94</ele>
        <time>2025-08-17T08:46:06.569Z</time>
      </trkpt>
      <trkpt lat="44.26128" lon="0.83925">
        <ele>94</ele>
        <time>2025-08-17T08:46:07.569Z</time>
      </trkpt>
      <trkpt lat="44.26127" lon="0.83926">
        <ele>95</ele>
        <time>2025-08-17T08:46:08.569Z</time>
      </trkpt>
      <trkpt lat="44.26126" lon="0.83926">
        <ele>95</ele>
        <time>2025-08-17T08:46:09.569Z</time>
      </trkpt>
      <trkpt lat="44.26126" lon="0.83926">
        <ele>95</ele>
        <time>2025-08-17T08:46:10.569Z</time>
      </trkpt>
      <trkpt lat="44.26125" lon="0.83926">
        <ele>95</ele>
        <time>2025-08-17T08:46:11.569Z</time>
      </trkpt>
      <trkpt lat="44.26124" lon="0.83925">
        <ele>95</ele>
        <time>2025-08-17T08:46:12.569Z</time>
      </trkpt>
      <trkpt lat="44.26123" lon="0.83925">
        <ele>95</ele>
        <time>2025-08-17T08:46:13.569Z</time>
      </trkpt>
      <trkpt lat="44.26122" lon="0.83926">
        <ele>96</ele>
        <time>2025-08-17T08:46:14.569Z</time>
      </trkpt>
      <trkpt lat="44.26121" lon="0.83926">
        <ele>96</ele>
        <time>2025-08-17T08:46:15.569Z</time>
      </trkpt>
      <trkpt lat="44.26119" lon="0.83927">
        <ele>96</ele>
        <time>2025-08-17T08:46:16.569Z</time>
      </trkpt>
      <trkpt lat="44.26118" lon="0.83927">
        <ele>96</ele>
        <time>2025-08-17T08:46:17.569Z</time>
      </trkpt>
      <trkpt lat="44.26117" lon="0.83928">
        <ele>97</ele>
        <time>2025-08-17T08:46:18.569Z</time>
      </trkpt>
      <trkpt lat="44.26116" lon="0.83929">
        <ele>97</ele>
        <time>2025-08-17T08:46:19.569Z</time>
      </trkpt>
      <trkpt lat="44.26115" lon="0.83929">
        <ele>97</ele>
        <time>2025-08-17T08:46:20.569Z</time>
      </trkpt>
      <trkpt lat="44.26115" lon="0.8393">
        <ele>98</ele>
        <time>2025-08-17T08:46:21.569Z</time>
      </trkpt>
      <trkpt lat="44.26114" lon="0.8393">
        <ele>98</ele>
        <time>2025-08-17T08:46:22.569Z</time>
      </trkpt>
      <trkpt lat="44.26113" lon="0.83931">
        <ele>99</ele>
        <time>2025-08-17T08:46:23.569Z</time>
      </trkpt>
      <trkpt lat="44.26112" lon="0.83931">
        <ele>99</ele>
        <time>2025-08-17T08:46:24.569Z</time>
      </trkpt>
      <trkpt lat="44.26111" lon="0.83931">
        <ele>100</ele>
        <time>2025-08-17T08:46:25.569Z</time>
      </trkpt>
      <trkpt lat="44.2611" lon="0.83931">
        <ele>100</ele>
        <time>2025-08-17T08:46:26.569Z</time>
      </trkpt>
      <trkpt lat="44.26109" lon="0.83931">
        <ele>100</ele>
        <time>2025-08-17T08:46:27.569Z</time>
      </trkpt>
      <trkpt lat="44.26108" lon="0.83931">
        <ele>100</ele>
        <time>2025-08-17T08:46:28.569Z</time>
      </trkpt>
      <trkpt lat="44.26108" lon="0.83932">
        <ele>101</ele>
        <time>2025-08-17T08:46:29.569Z</time>
      </trkpt>
      <trkpt lat="44.26108" lon="0.83933">
        <ele>101</ele>
        <time>2025-08-17T08:46:30.569Z</time>
      </trkpt>
      <trkpt lat="44.26106" lon="0.83933">
        <ele>101</ele>
        <time>2025-08-17T08:46:31.569Z</time>
      </trkpt>
      <trkpt lat="44.26106" lon="0.83934">
        <ele>101</ele>
        <time>2025-08-17T08:46:32.569Z</time>
      </trkpt>
      <trkpt lat="44.26105" lon="0.83934">
        <ele>102</ele>
        <time>2025-08-17T08:46:33.569Z</time>
      </trkpt>
      <trkpt lat="44.26104" lon="0.83934">
        <ele>102</ele>
        <time>2025-08-17T08:46:34.569Z</time>
      </trkpt>
      <trkpt lat="44.26103" lon="0.83935">
        <ele>102</ele>
        <time>2025-08-17T08:46:35.569Z</time>
      </trkpt>
      <trkpt lat="44.26102" lon="0.83935">
        <ele>102</ele>
        <time>2025-08-17T08:46:36.569Z</time>
      </trkpt>
      <trkpt lat="44.26101" lon="0.83934">
        <ele>102</ele>
        <time>2025-08-17T08:46:37.569Z</time>
      </trkpt>
      <trkpt lat="44.261" lon="0.83934">
        <ele>102</ele>
        <time>2025-08-17T08:46:38.569Z</time>
      </trkpt>
      <trkpt lat="44.26099" lon="0.83934">
        <ele>102</ele>
        <time>2025-08-17T08:46:39.569Z</time>
      </trkpt>
      <trkpt lat="44.26098" lon="0.83933">
        <ele>101</ele>
        <time>2025-08-17T08:46:40.569Z</time>
      </trkpt>
      <trkpt lat="44.26098" lon="0.83933">
        <ele>101</ele>
        <time>2025-08-17T08:46:41.569Z</time>
      </trkpt>
      <trkpt lat="44.26095" lon="0.83934">
        <ele>100</ele>
        <time>2025-08-17T08:46:42.569Z</time>
      </trkpt>
      <trkpt lat="44.26094" lon="0.83934">
        <ele>99</ele>
        <time>2025-08-17T08:46:43.569Z</time>
      </trkpt>
      <trkpt lat="44.26093" lon="0.83934">
        <ele>99</ele>
        <time>2025-08-17T08:46:44.569Z</time>
      </trkpt>
      <trkpt lat="44.26092" lon="0.83933">
        <ele>99</ele>
        <time>2025-08-17T08:46:45.569Z</time>
      </trkpt>
      <trkpt lat="44.26092" lon="0.83933">
        <ele>99</ele>
        <time>2025-08-17T08:46:46.569Z</time>
      </trkpt>
      <trkpt lat="44.26091" lon="0.83932">
        <ele>99</ele>
        <time>2025-08-17T08:46:47.569Z</time>
      </trkpt>
      <trkpt lat="44.26091" lon="0.83932">
        <ele>99</ele>
        <time>2025-08-17T08:46:48.569Z</time>
      </trkpt>
      <trkpt lat="44.2609" lon="0.83932">
        <ele>99</ele>
        <time>2025-08-17T08:46:49.569Z</time>
      </trkpt>
      <trkpt lat="44.26088" lon="0.83932">
        <ele>99</ele>
        <time>2025-08-17T08:46:50.569Z</time>
      </trkpt>
      <trkpt lat="44.26087" lon="0.83932">
        <ele>99</ele>
        <time>2025-08-17T08:46:51.569Z</time>
      </trkpt>
      <trkpt lat="44.26085" lon="0.83932">
        <ele>99</ele>
        <time>2025-08-17T08:46:52.569Z</time>
      </trkpt>
      <trkpt lat="44.26084" lon="0.83933">
        <ele>99</ele>
        <time>2025-08-17T08:46:53.569Z</time>
      </trkpt>
      <trkpt lat="44.26082" lon="0.83933">
        <ele>100</ele>
        <time>2025-08-17T08:46:54.569Z</time>
      </trkpt>
      <trkpt lat="44.26082" lon="0.83933">
        <ele>100</ele>
        <time>2025-08-17T08:46:55.569Z</time>
      </trkpt>
      <trkpt lat="44.2608" lon="0.83933">
        <ele>100</ele>
        <time>2025-08-17T08:46:56.569Z</time>
      </trkpt>
      <trkpt lat="44.26079" lon="0.83933">
        <ele>100</ele>
        <time>2025-08-17T08:46:57.569Z</time>
      </trkpt>
      <trkpt lat="44.26079" lon="0.83933">
        <ele>100</ele>
        <time>2025-08-17T08:46:58.569Z</time>
      </trkpt>
      <trkpt lat="44.26077" lon="0.83933">
        <ele>100</ele>
        <time>2025-08-17T08:46:59.569Z</time>
      </trkpt>
      <trkpt lat="44.26076" lon="0.83933">
        <ele>100</ele>
        <time>2025-08-17T08:47:00.569Z</time>
      </trkpt>
      <trkpt lat="44.26075" lon="0.83934">
        <ele>100</ele>
        <time>2025-08-17T08:47:01.569Z</time>
      </trkpt>
      <trkpt lat="44.26074" lon="0.83934">
        <ele>100</ele>
        <time>2025-08-17T08:47:02.569Z</time>
      </trkpt>
      <trkpt lat="44.26073" lon="0.83934">
        <ele>100</ele>
        <time>2025-08-17T08:47:03.569Z</time>
      </trkpt>
      <trkpt lat="44.26073" lon="0.83934">
        <ele>100</ele>
        <time>2025-08-17T08:47:04.569Z</time>
      </trkpt>
      <trkpt lat="44.26072" lon="0.83934">
        <ele>100</ele>
        <time>2025-08-17T08:47:05.569Z</time>
      </trkpt>
      <trkpt lat="44.2607" lon="0.83934">
        <ele>100</ele>
        <time>2025-08-17T08:47:06.569Z</time>
      </trkpt>
      <trkpt lat="44.26069" lon="0.83934">
        <ele>100</ele>
        <time>2025-08-17T08:47:07.569Z</time>
      </trkpt>
      <trkpt lat="44.26068" lon="0.83934">
        <ele>101</ele>
        <time>2025-08-17T08:47:08.569Z</time>
      </trkpt>
      <trkpt lat="44.26067" lon="0.83935">
        <ele>101</ele>
        <time>2025-08-17T08:47:09.569Z</time>
      </trkpt>
      <trkpt lat="44.26066" lon="0.83935">
        <ele>102</ele>
        <time>2025-08-17T08:47:10.569Z</time>
      </trkpt>
      <trkpt lat="44.26065" lon="0.83936">
        <ele>102</ele>
        <time>2025-08-17T08:47:11.569Z</time>
      </trkpt>
      <trkpt lat="44.26064" lon="0.83936">
        <ele>102</ele>
        <time>2025-08-17T08:47:12.569Z</time>
      </trkpt>
      <trkpt lat="44.26063" lon="0.83937">
        <ele>102</ele>
        <time>2025-08-17T08:47:13.569Z</time>
      </trkpt>
      <trkpt lat="44.26063" lon="0.83937">
        <ele>103</ele>
        <time>2025-08-17T08:47:14.569Z</time>
      </trkpt>
      <trkpt lat="44.26062" lon="0.83938">
        <ele>103</ele>
        <time>2025-08-17T08:47:15.569Z</time>
      </trkpt>
      <trkpt lat="44.26061" lon="0.83938">
        <ele>103</ele>
        <time>2025-08-17T08:47:16.569Z</time>
      </trkpt>
      <trkpt lat="44.26061" lon="0.83938">
        <ele>103</ele>
        <time>2025-08-17T08:47:17.569Z</time>
      </trkpt>
      <trkpt lat="44.26059" lon="0.83939">
        <ele>103</ele>
        <time>2025-08-17T08:47:18.569Z</time>
      </trkpt>
      <trkpt lat="44.26058" lon="0.83939">
        <ele>103</ele>
        <time>2025-08-17T08:47:19.569Z</time>
      </trkpt>
      <trkpt lat="44.26057" lon="0.83939">
        <ele>103</ele>
        <time>2025-08-17T08:47:20.569Z</time>
      </trkpt>
      <trkpt lat="44.26056" lon="0.83939">
        <ele>103</ele>
        <time>2025-08-17T08:47:21.569Z</time>
      </trkpt>
      <trkpt lat="44.26055" lon="0.8394">
        <ele>103</ele>
        <time>2025-08-17T08:47:22.569Z</time>
      </trkpt>
      <trkpt lat="44.26054" lon="0.8394">
        <ele>104</ele>
        <time>2025-08-17T08:47:23.569Z</time>
      </trkpt>
      <trkpt lat="44.26053" lon="0.83941">
        <ele>104</ele>
        <time>2025-08-17T08:47:24.569Z</time>
      </trkpt>
      <trkpt lat="44.26052" lon="0.83941">
        <ele>104</ele>
        <time>2025-08-17T08:47:25.569Z</time>
      </trkpt>
      <trkpt lat="44.26051" lon="0.83941">
        <ele>104</ele>
        <time>2025-08-17T08:47:26.569Z</time>
      </trkpt>
      <trkpt lat="44.26051" lon="0.83941">
        <ele>104</ele>
        <time>2025-08-17T08:47:27.569Z</time>
      </trkpt>
      <trkpt lat="44.2605" lon="0.83941">
        <ele>104</ele>
        <time>2025-08-17T08:47:28.569Z</time>
      </trkpt>
      <trkpt lat="44.26049" lon="0.83942">
        <ele>104</ele>
        <time>2025-08-17T08:47:29.569Z</time>
      </trkpt>
      <trkpt lat="44.26048" lon="0.83942">
        <ele>103</ele>
        <time>2025-08-17T08:47:30.569Z</time>
      </trkpt>
      <trkpt lat="44.26047" lon="0.83942">
        <ele>103</ele>
        <time>2025-08-17T08:47:31.569Z</time>
      </trkpt>
      <trkpt lat="44.26046" lon="0.83941">
        <ele>103</ele>
        <time>2025-08-17T08:47:32.569Z</time>
      </trkpt>
      <trkpt lat="44.26045" lon="0.83942">
        <ele>103</ele>
        <time>2025-08-17T08:47:33.569Z</time>
      </trkpt>
      <trkpt lat="44.26044" lon="0.83942">
        <ele>102</ele>
        <time>2025-08-17T08:47:34.569Z</time>
      </trkpt>
      <trkpt lat="44.26044" lon="0.83942">
        <ele>102</ele>
        <time>2025-08-17T08:47:35.569Z</time>
      </trkpt>
      <trkpt lat="44.26044" lon="0.83942">
        <ele>102</ele>
        <time>2025-08-17T08:47:36.569Z</time>
      </trkpt>
      <trkpt lat="44.26043" lon="0.83942">
        <ele>102</ele>
        <time>2025-08-17T08:47:37.569Z</time>
      </trkpt>
      <trkpt lat="44.26041" lon="0.83943">
        <ele>102</ele>
        <time>2025-08-17T08:47:38.569Z</time>
      </trkpt>
      <trkpt lat="44.2604" lon="0.83943">
        <ele>103</ele>
        <time>2025-08-17T08:47:39.569Z</time>
      </trkpt>
      <trkpt lat="44.2604" lon="0.83943">
        <ele>103</ele>
        <time>2025-08-17T08:47:40.569Z</time>
      </trkpt>
      <trkpt lat="44.26039" lon="0.83943">
        <ele>103</ele>
        <time>2025-08-17T08:47:41.569Z</time>
      </trkpt>
      <trkpt lat="44.26038" lon="0.83943">
        <ele>103</ele>
        <time>2025-08-17T08:47:42.569Z</time>
      </trkpt>
      <trkpt lat="44.26037" lon="0.83943">
        <ele>103</ele>
        <time>2025-08-17T08:47:43.569Z</time>
      </trkpt>
      <trkpt lat="44.26036" lon="0.83943">
        <ele>103</ele>
        <time>2025-08-17T08:47:44.569Z</time>
      </trkpt>
      <trkpt lat="44.26035" lon="0.83943">
        <ele>104</ele>
        <time>2025-08-17T08:47:45.569Z</time>
      </trkpt>
      <trkpt lat="44.26035" lon="0.83943">
        <ele>104</ele>
        <time>2025-08-17T08:47:46.569Z</time>
      </trkpt>
      <trkpt lat="44.26033" lon="0.83943">
        <ele>103</ele>
        <time>2025-08-17T08:47:47.569Z</time>
      </trkpt>
      <trkpt lat="44.26032" lon="0.83943">
        <ele>103</ele>
        <time>2025-08-17T08:47:48.569Z</time>
      </trkpt>
      <trkpt lat="44.26032" lon="0.83943">
        <ele>103</ele>
        <time>2025-08-17T08:47:49.569Z</time>
      </trkpt>
      <trkpt lat="44.26029" lon="0.83943">
        <ele>103</ele>
        <time>2025-08-17T08:47:50.569Z</time>
      </trkpt>
      <trkpt lat="44.26029" lon="0.83943">
        <ele>103</ele>
        <time>2025-08-17T08:47:51.569Z</time>
      </trkpt>
      <trkpt lat="44.26029" lon="0.83943">
        <ele>103</ele>
        <time>2025-08-17T08:47:52.569Z</time>
      </trkpt>
      <trkpt lat="44.26026" lon="0.83942">
        <ele>102</ele>
        <time>2025-08-17T08:47:53.569Z</time>
      </trkpt>
      <trkpt lat="44.26025" lon="0.83942">
        <ele>103</ele>
        <time>2025-08-17T08:47:54.569Z</time>
      </trkpt>
      <trkpt lat="44.26024" lon="0.83941">
        <ele>103</ele>
        <time>2025-08-17T08:47:55.569Z</time>
      </trkpt>
      <trkpt lat="44.26023" lon="0.83941">
        <ele>103</ele>
        <time>2025-08-17T08:47:56.569Z</time>
      </trkpt>
      <trkpt lat="44.26022" lon="0.83941">
        <ele>103</ele>
        <time>2025-08-17T08:47:57.569Z</time>
      </trkpt>
      <trkpt lat="44.26022" lon="0.83941">
        <ele>103</ele>
        <time>2025-08-17T08:47:58.569Z</time>
      </trkpt>
      <trkpt lat="44.26021" lon="0.83941">
        <ele>103</ele>
        <time>2025-08-17T08:47:59.569Z</time>
      </trkpt>
      <trkpt lat="44.26018" lon="0.83941">
        <ele>103</ele>
        <time>2025-08-17T08:48:00.569Z</time>
      </trkpt>
      <trkpt lat="44.26018" lon="0.83941">
        <ele>103</ele>
        <time>2025-08-17T08:48:01.569Z</time>
      </trkpt>
      <trkpt lat="44.26016" lon="0.83941">
        <ele>103</ele>
        <time>2025-08-17T08:48:02.569Z</time>
      </trkpt>
      <trkpt lat="44.26015" lon="0.83941">
        <ele>103</ele>
        <time>2025-08-17T08:48:03.569Z</time>
      </trkpt>
      <trkpt lat="44.26015" lon="0.83941">
        <ele>103</ele>
        <time>2025-08-17T08:48:04.569Z</time>
      </trkpt>
      <trkpt lat="44.26014" lon="0.83941">
        <ele>103</ele>
        <time>2025-08-17T08:48:05.569Z</time>
      </trkpt>
      <trkpt lat="44.26013" lon="0.83941">
        <ele>103</ele>
        <time>2025-08-17T08:48:06.569Z</time>
      </trkpt>
      <trkpt lat="44.26012" lon="0.83942">
        <ele>103</ele>
        <time>2025-08-17T08:48:07.569Z</time>
      </trkpt>
      <trkpt lat="44.26011" lon="0.83942">
        <ele>103</ele>
        <time>2025-08-17T08:48:08.569Z</time>
      </trkpt>
      <trkpt lat="44.2601" lon="0.83942">
        <ele>103</ele>
        <time>2025-08-17T08:48:09.569Z</time>
      </trkpt>
      <trkpt lat="44.26009" lon="0.83942">
        <ele>104</ele>
        <time>2025-08-17T08:48:10.569Z</time>
      </trkpt>
      <trkpt lat="44.26008" lon="0.83942">
        <ele>104</ele>
        <time>2025-08-17T08:48:11.569Z</time>
      </trkpt>
      <trkpt lat="44.26007" lon="0.83942">
        <ele>104</ele>
        <time>2025-08-17T08:48:12.569Z</time>
      </trkpt>
      <trkpt lat="44.26005" lon="0.83942">
        <ele>105</ele>
        <time>2025-08-17T08:48:13.569Z</time>
      </trkpt>
      <trkpt lat="44.26003" lon="0.83942">
        <ele>105</ele>
        <time>2025-08-17T08:48:14.569Z</time>
      </trkpt>
      <trkpt lat="44.26003" lon="0.83942">
        <ele>105</ele>
        <time>2025-08-17T08:48:15.569Z</time>
      </trkpt>
      <trkpt lat="44.26001" lon="0.83942">
        <ele>105</ele>
        <time>2025-08-17T08:48:16.569Z</time>
      </trkpt>
      <trkpt lat="44.26" lon="0.83942">
        <ele>105</ele>
        <time>2025-08-17T08:48:17.569Z</time>
      </trkpt>
      <trkpt lat="44.26" lon="0.83942">
        <ele>105</ele>
        <time>2025-08-17T08:48:18.569Z</time>
      </trkpt>
      <trkpt lat="44.25998" lon="0.83942">
        <ele>105</ele>
        <time>2025-08-17T08:48:19.569Z</time>
      </trkpt>
      <trkpt lat="44.25997" lon="0.83942">
        <ele>106</ele>
        <time>2025-08-17T08:48:20.569Z</time>
      </trkpt>
      <trkpt lat="44.25997" lon="0.83942">
        <ele>106</ele>
        <time>2025-08-17T08:48:21.569Z</time>
      </trkpt>
      <trkpt lat="44.25995" lon="0.83942">
        <ele>106</ele>
        <time>2025-08-17T08:48:22.569Z</time>
      </trkpt>
      <trkpt lat="44.25994" lon="0.83942">
        <ele>106</ele>
        <time>2025-08-17T08:48:23.569Z</time>
      </trkpt>
      <trkpt lat="44.25993" lon="0.83942">
        <ele>107</ele>
        <time>2025-08-17T08:48:24.569Z</time>
      </trkpt>
      <trkpt lat="44.25992" lon="0.83941">
        <ele>107</ele>
        <time>2025-08-17T08:48:25.569Z</time>
      </trkpt>
      <trkpt lat="44.25991" lon="0.83941">
        <ele>107</ele>
        <time>2025-08-17T08:48:26.569Z</time>
      </trkpt>
      <trkpt lat="44.2599" lon="0.83941">
        <ele>107</ele>
        <time>2025-08-17T08:48:27.569Z</time>
      </trkpt>
      <trkpt lat="44.25989" lon="0.83941">
        <ele>107</ele>
        <time>2025-08-17T08:48:28.569Z</time>
      </trkpt>
      <trkpt lat="44.25988" lon="0.83941">
        <ele>107</ele>
        <time>2025-08-17T08:48:29.569Z</time>
      </trkpt>
      <trkpt lat="44.25987" lon="0.83941">
        <ele>107</ele>
        <time>2025-08-17T08:48:30.569Z</time>
      </trkpt>
      <trkpt lat="44.25987" lon="0.83941">
        <ele>107</ele>
        <time>2025-08-17T08:48:31.569Z</time>
      </trkpt>
      <trkpt lat="44.25986" lon="0.83941">
        <ele>107</ele>
        <time>2025-08-17T08:48:32.569Z</time>
      </trkpt>
      <trkpt lat="44.25984" lon="0.83941">
        <ele>108</ele>
        <time>2025-08-17T08:48:33.569Z</time>
      </trkpt>
      <trkpt lat="44.25984" lon="0.8394">
        <ele>108</ele>
        <time>2025-08-17T08:48:34.569Z</time>
      </trkpt>
      <trkpt lat="44.25983" lon="0.8394">
        <ele>109</ele>
        <time>2025-08-17T08:48:35.569Z</time>
      </trkpt>
      <trkpt lat="44.25982" lon="0.8394">
        <ele>109</ele>
        <time>2025-08-17T08:48:36.569Z</time>
      </trkpt>
      <trkpt lat="44.25982" lon="0.8394">
        <ele>109</ele>
        <time>2025-08-17T08:48:37.569Z</time>
      </trkpt>
      <trkpt lat="44.25981" lon="0.8394">
        <ele>109</ele>
        <time>2025-08-17T08:48:38.569Z</time>
      </trkpt>
      <trkpt lat="44.25979" lon="0.83939">
        <ele>110</ele>
        <time>2025-08-17T08:48:39.569Z</time>
      </trkpt>
      <trkpt lat="44.25979" lon="0.83939">
        <ele>110</ele>
        <time>2025-08-17T08:48:40.569Z</time>
      </trkpt>
      <trkpt lat="44.25978" lon="0.83939">
        <ele>110</ele>
        <time>2025-08-17T08:48:41.569Z</time>
      </trkpt>
      <trkpt lat="44.25976" lon="0.83938">
        <ele>110</ele>
        <time>2025-08-17T08:48:42.569Z</time>
      </trkpt>
      <trkpt lat="44.25976" lon="0.83938">
        <ele>110</ele>
        <time>2025-08-17T08:48:43.569Z</time>
      </trkpt>
      <trkpt lat="44.25975" lon="0.83938">
        <ele>110</ele>
        <time>2025-08-17T08:48:44.569Z</time>
      </trkpt>
      <trkpt lat="44.25974" lon="0.83938">
        <ele>110</ele>
        <time>2025-08-17T08:48:45.569Z</time>
      </trkpt>
      <trkpt lat="44.25973" lon="0.83938">
        <ele>110</ele>
        <time>2025-08-17T08:48:46.569Z</time>
      </trkpt>
      <trkpt lat="44.25972" lon="0.83938">
        <ele>111</ele>
        <time>2025-08-17T08:48:47.569Z</time>
      </trkpt>
      <trkpt lat="44.25971" lon="0.83938">
        <ele>111</ele>
        <time>2025-08-17T08:48:48.569Z</time>
      </trkpt>
      <trkpt lat="44.2597" lon="0.83938">
        <ele>111</ele>
        <time>2025-08-17T08:48:49.569Z</time>
      </trkpt>
      <trkpt lat="44.25969" lon="0.83938">
        <ele>111</ele>
        <time>2025-08-17T08:48:50.569Z</time>
      </trkpt>
      <trkpt lat="44.25968" lon="0.83938">
        <ele>111</ele>
        <time>2025-08-17T08:48:51.569Z</time>
      </trkpt>
      <trkpt lat="44.25967" lon="0.83938">
        <ele>111</ele>
        <time>2025-08-17T08:48:52.569Z</time>
      </trkpt>
      <trkpt lat="44.25966" lon="0.83938">
        <ele>111</ele>
        <time>2025-08-17T08:48:53.569Z</time>
      </trkpt>
      <trkpt lat="44.25965" lon="0.83937">
        <ele>111</ele>
        <time>2025-08-17T08:48:54.569Z</time>
      </trkpt>
      <trkpt lat="44.25965" lon="0.83937">
        <ele>111</ele>
        <time>2025-08-17T08:48:55.569Z</time>
      </trkpt>
      <trkpt lat="44.25963" lon="0.83937">
        <ele>111</ele>
        <time>2025-08-17T08:48:56.569Z</time>
      </trkpt>
      <trkpt lat="44.25963" lon="0.83937">
        <ele>111</ele>
        <time>2025-08-17T08:48:57.569Z</time>
      </trkpt>
      <trkpt lat="44.25962" lon="0.83937">
        <ele>111</ele>
        <time>2025-08-17T08:48:58.569Z</time>
      </trkpt>
      <trkpt lat="44.25961" lon="0.83937">
        <ele>111</ele>
        <time>2025-08-17T08:48:59.569Z</time>
      </trkpt>
      <trkpt lat="44.2596" lon="0.83937">
        <ele>111</ele>
        <time>2025-08-17T08:49:00.569Z</time>
      </trkpt>
      <trkpt lat="44.25959" lon="0.83937">
        <ele>111</ele>
        <time>2025-08-17T08:49:01.569Z</time>
      </trkpt>
      <trkpt lat="44.25958" lon="0.83937">
        <ele>111</ele>
        <time>2025-08-17T08:49:02.569Z</time>
      </trkpt>
      <trkpt lat="44.25957" lon="0.83937">
        <ele>111</ele>
        <time>2025-08-17T08:49:03.569Z</time>
      </trkpt>
      <trkpt lat="44.25956" lon="0.83936">
        <ele>111</ele>
        <time>2025-08-17T08:49:04.569Z</time>
      </trkpt>
      <trkpt lat="44.25955" lon="0.83936">
        <ele>111</ele>
        <time>2025-08-17T08:49:05.569Z</time>
      </trkpt>
      <trkpt lat="44.25954" lon="0.83936">
        <ele>111</ele>
        <time>2025-08-17T08:49:06.569Z</time>
      </trkpt>
      <trkpt lat="44.25953" lon="0.83936">
        <ele>111</ele>
        <time>2025-08-17T08:49:07.569Z</time>
      </trkpt>
      <trkpt lat="44.25952" lon="0.83936">
        <ele>111</ele>
        <time>2025-08-17T08:49:08.569Z</time>
      </trkpt>
      <trkpt lat="44.25951" lon="0.83935">
        <ele>111</ele>
        <time>2025-08-17T08:49:09.569Z</time>
      </trkpt>
      <trkpt lat="44.2595" lon="0.83935">
        <ele>111</ele>
        <time>2025-08-17T08:49:10.569Z</time>
      </trkpt>
      <trkpt lat="44.25949" lon="0.83935">
        <ele>111</ele>
        <time>2025-08-17T08:49:11.569Z</time>
      </trkpt>
      <trkpt lat="44.25948" lon="0.83934">
        <ele>111</ele>
        <time>2025-08-17T08:49:12.569Z</time>
      </trkpt>
      <trkpt lat="44.25947" lon="0.83934">
        <ele>111</ele>
        <time>2025-08-17T08:49:13.569Z</time>
      </trkpt>
      <trkpt lat="44.25946" lon="0.83934">
        <ele>111</ele>
        <time>2025-08-17T08:49:14.569Z</time>
      </trkpt>
      <trkpt lat="44.25945" lon="0.83933">
        <ele>111</ele>
        <time>2025-08-17T08:49:15.569Z</time>
      </trkpt>
      <trkpt lat="44.25944" lon="0.83933">
        <ele>111</ele>
        <time>2025-08-17T08:49:16.569Z</time>
      </trkpt>
      <trkpt lat="44.25943" lon="0.83933">
        <ele>112</ele>
        <time>2025-08-17T08:49:17.569Z</time>
      </trkpt>
      <trkpt lat="44.25941" lon="0.83933">
        <ele>112</ele>
        <time>2025-08-17T08:49:18.569Z</time>
      </trkpt>
      <trkpt lat="44.2594" lon="0.83933">
        <ele>111</ele>
        <time>2025-08-17T08:49:19.569Z</time>
      </trkpt>
      <trkpt lat="44.25939" lon="0.83932">
        <ele>111</ele>
        <time>2025-08-17T08:49:20.569Z</time>
      </trkpt>
      <trkpt lat="44.25938" lon="0.83932">
        <ele>111</ele>
        <time>2025-08-17T08:49:21.569Z</time>
      </trkpt>
      <trkpt lat="44.25937" lon="0.83932">
        <ele>111</ele>
        <time>2025-08-17T08:49:22.569Z</time>
      </trkpt>
      <trkpt lat="44.25936" lon="0.83932">
        <ele>112</ele>
        <time>2025-08-17T08:49:23.569Z</time>
      </trkpt>
      <trkpt lat="44.25935" lon="0.83932">
        <ele>112</ele>
        <time>2025-08-17T08:49:24.569Z</time>
      </trkpt>
      <trkpt lat="44.25934" lon="0.83932">
        <ele>112</ele>
        <time>2025-08-17T08:49:25.569Z</time>
      </trkpt>
      <trkpt lat="44.25933" lon="0.83932">
        <ele>112</ele>
        <time>2025-08-17T08:49:26.569Z</time>
      </trkpt>
      <trkpt lat="44.25932" lon="0.83932">
        <ele>113</ele>
        <time>2025-08-17T08:49:27.569Z</time>
      </trkpt>
      <trkpt lat="44.25931" lon="0.83933">
        <ele>113</ele>
        <time>2025-08-17T08:49:28.569Z</time>
      </trkpt>
      <trkpt lat="44.2593" lon="0.83933">
        <ele>113</ele>
        <time>2025-08-17T08:49:29.569Z</time>
      </trkpt>
      <trkpt lat="44.25929" lon="0.83933">
        <ele>114</ele>
        <time>2025-08-17T08:49:30.569Z</time>
      </trkpt>
      <trkpt lat="44.25928" lon="0.83933">
        <ele>114</ele>
        <time>2025-08-17T08:49:31.569Z</time>
      </trkpt>
      <trkpt lat="44.25927" lon="0.83933">
        <ele>114</ele>
        <time>2025-08-17T08:49:32.569Z</time>
      </trkpt>
      <trkpt lat="44.25926" lon="0.83933">
        <ele>114</ele>
        <time>2025-08-17T08:49:33.569Z</time>
      </trkpt>
      <trkpt lat="44.25925" lon="0.83933">
        <ele>114</ele>
        <time>2025-08-17T08:49:34.569Z</time>
      </trkpt>
      <trkpt lat="44.25924" lon="0.83933">
        <ele>114</ele>
        <time>2025-08-17T08:49:35.569Z</time>
      </trkpt>
      <trkpt lat="44.25923" lon="0.83933">
        <ele>114</ele>
        <time>2025-08-17T08:49:36.569Z</time>
      </trkpt>
      <trkpt lat="44.25922" lon="0.83933">
        <ele>114</ele>
        <time>2025-08-17T08:49:37.569Z</time>
      </trkpt>
      <trkpt lat="44.25921" lon="0.83933">
        <ele>114</ele>
        <time>2025-08-17T08:49:38.569Z</time>
      </trkpt>
      <trkpt lat="44.2592" lon="0.83933">
        <ele>114</ele>
        <time>2025-08-17T08:49:39.569Z</time>
      </trkpt>
      <trkpt lat="44.25919" lon="0.83933">
        <ele>114</ele>
        <time>2025-08-17T08:49:40.569Z</time>
      </trkpt>
      <trkpt lat="44.25918" lon="0.83934">
        <ele>115</ele>
        <time>2025-08-17T08:49:41.569Z</time>
      </trkpt>
      <trkpt lat="44.25917" lon="0.83934">
        <ele>115</ele>
        <time>2025-08-17T08:49:42.569Z</time>
      </trkpt>
      <trkpt lat="44.25916" lon="0.83934">
        <ele>115</ele>
        <time>2025-08-17T08:49:43.569Z</time>
      </trkpt>
      <trkpt lat="44.25915" lon="0.83934">
        <ele>114</ele>
        <time>2025-08-17T08:49:44.569Z</time>
      </trkpt>
      <trkpt lat="44.25913" lon="0.83934">
        <ele>115</ele>
        <time>2025-08-17T08:49:45.569Z</time>
      </trkpt>
      <trkpt lat="44.25913" lon="0.83934">
        <ele>115</ele>
        <time>2025-08-17T08:49:46.569Z</time>
      </trkpt>
      <trkpt lat="44.25912" lon="0.83934">
        <ele>115</ele>
        <time>2025-08-17T08:49:47.569Z</time>
      </trkpt>
      <trkpt lat="44.25911" lon="0.83933">
        <ele>115</ele>
        <time>2025-08-17T08:49:48.569Z</time>
      </trkpt>
      <trkpt lat="44.2591" lon="0.83933">
        <ele>115</ele>
        <time>2025-08-17T08:49:49.569Z</time>
      </trkpt>
      <trkpt lat="44.2591" lon="0.83933">
        <ele>115</ele>
        <time>2025-08-17T08:49:50.569Z</time>
      </trkpt>
      <trkpt lat="44.2591" lon="0.83933">
        <ele>115</ele>
        <time>2025-08-17T08:49:51.569Z</time>
      </trkpt>
      <trkpt lat="44.2591" lon="0.83933">
        <ele>115</ele>
        <time>2025-08-17T08:49:52.569Z</time>
      </trkpt>
      <trkpt lat="44.2591" lon="0.83933">
        <ele>115</ele>
        <time>2025-08-17T08:49:53.569Z</time>
      </trkpt>
      <trkpt lat="44.2591" lon="0.83934">
        <ele>115</ele>
        <time>2025-08-17T08:49:54.569Z</time>
      </trkpt>
      <trkpt lat="44.2591" lon="0.83934">
        <ele>115</ele>
        <time>2025-08-17T08:49:55.569Z</time>
      </trkpt>
      <trkpt lat="44.2591" lon="0.83934">
        <ele>115</ele>
        <time>2025-08-17T08:49:56.569Z</time>
      </trkpt>
      <trkpt lat="44.2591" lon="0.83934">
        <ele>115</ele>
        <time>2025-08-17T08:49:57.569Z</time>
      </trkpt>
      <trkpt lat="44.2591" lon="0.83934">
        <ele>115</ele>
        <time>2025-08-17T08:49:58.569Z</time>
      </trkpt>
      <trkpt lat="44.2591" lon="0.83934">
        <ele>115</ele>
        <time>2025-08-17T08:49:59.569Z</time>
      </trkpt>
      <trkpt lat="44.2591" lon="0.83934">
        <ele>115</ele>
        <time>2025-08-17T08:50:00.569Z</time>
      </trkpt>
      <trkpt lat="44.2591" lon="0.83934">
        <ele>115</ele>
        <time>2025-08-17T08:50:01.569Z</time>
      </trkpt>
      <trkpt lat="44.2591" lon="0.83934">
        <ele>115</ele>
        <time>2025-08-17T08:50:02.569Z</time>
      </trkpt>
      <trkpt lat="44.2591" lon="0.83934">
        <ele>115</ele>
        <time>2025-08-17T08:50:03.569Z</time>
      </trkpt>
      <trkpt lat="44.2591" lon="0.83935">
        <ele>115</ele>
        <time>2025-08-17T08:50:04.569Z</time>
      </trkpt>
      <trkpt lat="44.25909" lon="0.83935">
        <ele>115</ele>
        <time>2025-08-17T08:50:05.569Z</time>
      </trkpt>
      <trkpt lat="44.25909" lon="0.83935">
        <ele>115</ele>
        <time>2025-08-17T08:50:06.569Z</time>
      </trkpt>
      <trkpt lat="44.25908" lon="0.83935">
        <ele>115</ele>
        <time>2025-08-17T08:50:07.569Z</time>
      </trkpt>
      <trkpt lat="44.25907" lon="0.83935">
        <ele>115</ele>
        <time>2025-08-17T08:50:08.569Z</time>
      </trkpt>
      <trkpt lat="44.25906" lon="0.83935">
        <ele>115</ele>
        <time>2025-08-17T08:50:09.569Z</time>
      </trkpt>
      <trkpt lat="44.25905" lon="0.83935">
        <ele>115</ele>
        <time>2025-08-17T08:50:10.569Z</time>
      </trkpt>
      <trkpt lat="44.25904" lon="0.83935">
        <ele>115</ele>
        <time>2025-08-17T08:50:11.569Z</time>
      </trkpt>
      <trkpt lat="44.25903" lon="0.83935">
        <ele>116</ele>
        <time>2025-08-17T08:50:12.569Z</time>
      </trkpt>
      <trkpt lat="44.25902" lon="0.83935">
        <ele>116</ele>
        <time>2025-08-17T08:50:13.569Z</time>
      </trkpt>
      <trkpt lat="44.25901" lon="0.83935">
        <ele>116</ele>
        <time>2025-08-17T08:50:14.569Z</time>
      </trkpt>
      <trkpt lat="44.259" lon="0.83935">
        <ele>116</ele>
        <time>2025-08-17T08:50:15.569Z</time>
      </trkpt>
      <trkpt lat="44.25898" lon="0.83935">
        <ele>116</ele>
        <time>2025-08-17T08:50:16.569Z</time>
      </trkpt>
      <trkpt lat="44.25897" lon="0.83935">
        <ele>117</ele>
        <time>2025-08-17T08:50:17.569Z</time>
      </trkpt>
      <trkpt lat="44.25896" lon="0.83935">
        <ele>117</ele>
        <time>2025-08-17T08:50:18.569Z</time>
      </trkpt>
      <trkpt lat="44.25895" lon="0.83935">
        <ele>117</ele>
        <time>2025-08-17T08:50:19.569Z</time>
      </trkpt>
      <trkpt lat="44.25894" lon="0.83935">
        <ele>117</ele>
        <time>2025-08-17T08:50:20.569Z</time>
      </trkpt>
      <trkpt lat="44.25893" lon="0.83936">
        <ele>117</ele>
        <time>2025-08-17T08:50:21.569Z</time>
      </trkpt>
      <trkpt lat="44.25892" lon="0.83936">
        <ele>117</ele>
        <time>2025-08-17T08:50:22.569Z</time>
      </trkpt>
      <trkpt lat="44.25891" lon="0.83935">
        <ele>117</ele>
        <time>2025-08-17T08:50:23.569Z</time>
      </trkpt>
      <trkpt lat="44.2589" lon="0.83935">
        <ele>117</ele>
        <time>2025-08-17T08:50:24.569Z</time>
      </trkpt>
      <trkpt lat="44.25889" lon="0.83934">
        <ele>117</ele>
        <time>2025-08-17T08:50:25.569Z</time>
      </trkpt>
      <trkpt lat="44.25888" lon="0.83934">
        <ele>117</ele>
        <time>2025-08-17T08:50:26.569Z</time>
      </trkpt>
      <trkpt lat="44.25886" lon="0.83934">
        <ele>117</ele>
        <time>2025-08-17T08:50:27.569Z</time>
      </trkpt>
      <trkpt lat="44.25885" lon="0.83933">
        <ele>117</ele>
        <time>2025-08-17T08:50:28.569Z</time>
      </trkpt>
      <trkpt lat="44.25884" lon="0.83933">
        <ele>117</ele>
        <time>2025-08-17T08:50:29.569Z</time>
      </trkpt>
      <trkpt lat="44.25883" lon="0.83933">
        <ele>117</ele>
        <time>2025-08-17T08:50:30.569Z</time>
      </trkpt>
      <trkpt lat="44.25882" lon="0.83933">
        <ele>117</ele>
        <time>2025-08-17T08:50:31.569Z</time>
      </trkpt>
      <trkpt lat="44.2588" lon="0.83932">
        <ele>117</ele>
        <time>2025-08-17T08:50:32.569Z</time>
      </trkpt>
      <trkpt lat="44.25879" lon="0.83932">
        <ele>117</ele>
        <time>2025-08-17T08:50:33.569Z</time>
      </trkpt>
      <trkpt lat="44.25878" lon="0.83931">
        <ele>117</ele>
        <time>2025-08-17T08:50:34.569Z</time>
      </trkpt>
      <trkpt lat="44.25877" lon="0.83931">
        <ele>117</ele>
        <time>2025-08-17T08:50:35.569Z</time>
      </trkpt>
      <trkpt lat="44.25875" lon="0.83931">
        <ele>117</ele>
        <time>2025-08-17T08:50:36.569Z</time>
      </trkpt>
      <trkpt lat="44.25874" lon="0.8393">
        <ele>116</ele>
        <time>2025-08-17T08:50:37.569Z</time>
      </trkpt>
      <trkpt lat="44.25873" lon="0.8393">
        <ele>116</ele>
        <time>2025-08-17T08:50:38.569Z</time>
      </trkpt>
      <trkpt lat="44.25872" lon="0.83929">
        <ele>116</ele>
        <time>2025-08-17T08:50:39.569Z</time>
      </trkpt>
      <trkpt lat="44.25871" lon="0.83929">
        <ele>116</ele>
        <time>2025-08-17T08:50:40.569Z</time>
      </trkpt>
      <trkpt lat="44.25869" lon="0.83929">
        <ele>116</ele>
        <time>2025-08-17T08:50:41.569Z</time>
      </trkpt>
      <trkpt lat="44.25868" lon="0.83928">
        <ele>116</ele>
        <time>2025-08-17T08:50:42.569Z</time>
      </trkpt>
      <trkpt lat="44.25867" lon="0.83928">
        <ele>116</ele>
        <time>2025-08-17T08:50:43.569Z</time>
      </trkpt>
      <trkpt lat="44.25866" lon="0.83928">
        <ele>117</ele>
        <time>2025-08-17T08:50:44.569Z</time>
      </trkpt>
      <trkpt lat="44.25865" lon="0.83927">
        <ele>117</ele>
        <time>2025-08-17T08:50:45.569Z</time>
      </trkpt>
      <trkpt lat="44.25864" lon="0.83927">
        <ele>117</ele>
        <time>2025-08-17T08:50:46.569Z</time>
      </trkpt>
      <trkpt lat="44.25863" lon="0.83927">
        <ele>117</ele>
        <time>2025-08-17T08:50:47.569Z</time>
      </trkpt>
      <trkpt lat="44.25861" lon="0.83927">
        <ele>117</ele>
        <time>2025-08-17T08:50:48.569Z</time>
      </trkpt>
      <trkpt lat="44.2586" lon="0.83927">
        <ele>117</ele>
        <time>2025-08-17T08:50:49.569Z</time>
      </trkpt>
      <trkpt lat="44.25859" lon="0.83927">
        <ele>117</ele>
        <time>2025-08-17T08:50:50.569Z</time>
      </trkpt>
      <trkpt lat="44.25857" lon="0.83927">
        <ele>117</ele>
        <time>2025-08-17T08:50:51.569Z</time>
      </trkpt>
      <trkpt lat="44.25856" lon="0.83927">
        <ele>117</ele>
        <time>2025-08-17T08:50:52.569Z</time>
      </trkpt>
      <trkpt lat="44.25855" lon="0.83927">
        <ele>117</ele>
        <time>2025-08-17T08:50:53.569Z</time>
      </trkpt>
      <trkpt lat="44.25854" lon="0.83927">
        <ele>117</ele>
        <time>2025-08-17T08:50:54.569Z</time>
      </trkpt>
      <trkpt lat="44.25853" lon="0.83926">
        <ele>117</ele>
        <time>2025-08-17T08:50:55.569Z</time>
      </trkpt>
      <trkpt lat="44.25852" lon="0.83927">
        <ele>117</ele>
        <time>2025-08-17T08:50:56.569Z</time>
      </trkpt>
      <trkpt lat="44.25851" lon="0.83927">
        <ele>117</ele>
        <time>2025-08-17T08:50:57.569Z</time>
      </trkpt>
      <trkpt lat="44.2585" lon="0.83927">
        <ele>117</ele>
        <time>2025-08-17T08:50:58.569Z</time>
      </trkpt>
      <trkpt lat="44.25849" lon="0.83927">
        <ele>118</ele>
        <time>2025-08-17T08:50:59.569Z</time>
      </trkpt>
      <trkpt lat="44.25847" lon="0.83926">
        <ele>118</ele>
        <time>2025-08-17T08:51:00.569Z</time>
      </trkpt>
      <trkpt lat="44.25846" lon="0.83926">
        <ele>118</ele>
        <time>2025-08-17T08:51:01.569Z</time>
      </trkpt>
      <trkpt lat="44.25845" lon="0.83926">
        <ele>118</ele>
        <time>2025-08-17T08:51:02.569Z</time>
      </trkpt>
      <trkpt lat="44.25844" lon="0.83925">
        <ele>118</ele>
        <time>2025-08-17T08:51:03.569Z</time>
      </trkpt>
      <trkpt lat="44.25843" lon="0.83925">
        <ele>118</ele>
        <time>2025-08-17T08:51:04.569Z</time>
      </trkpt>
      <trkpt lat="44.25842" lon="0.83925">
        <ele>118</ele>
        <time>2025-08-17T08:51:05.569Z</time>
      </trkpt>
      <trkpt lat="44.2584" lon="0.83925">
        <ele>118</ele>
        <time>2025-08-17T08:51:06.569Z</time>
      </trkpt>
      <trkpt lat="44.25839" lon="0.83925">
        <ele>118</ele>
        <time>2025-08-17T08:51:07.569Z</time>
      </trkpt>
      <trkpt lat="44.25838" lon="0.83925">
        <ele>118</ele>
        <time>2025-08-17T08:51:08.569Z</time>
      </trkpt>
      <trkpt lat="44.25837" lon="0.83925">
        <ele>118</ele>
        <time>2025-08-17T08:51:09.569Z</time>
      </trkpt>
      <trkpt lat="44.25836" lon="0.83925">
        <ele>118</ele>
        <time>2025-08-17T08:51:10.569Z</time>
      </trkpt>
      <trkpt lat="44.25835" lon="0.83925">
        <ele>118</ele>
        <time>2025-08-17T08:51:11.569Z</time>
      </trkpt>
      <trkpt lat="44.25834" lon="0.83925">
        <ele>118</ele>
        <time>2025-08-17T08:51:12.569Z</time>
      </trkpt>
      <trkpt lat="44.25832" lon="0.83925">
        <ele>118</ele>
        <time>2025-08-17T08:51:13.569Z</time>
      </trkpt>
      <trkpt lat="44.25831" lon="0.83926">
        <ele>118</ele>
        <time>2025-08-17T08:51:14.569Z</time>
      </trkpt>
      <trkpt lat="44.2583" lon="0.83926">
        <ele>118</ele>
        <time>2025-08-17T08:51:15.569Z</time>
      </trkpt>
      <trkpt lat="44.25829" lon="0.83925">
        <ele>118</ele>
        <time>2025-08-17T08:51:16.569Z</time>
      </trkpt>
      <trkpt lat="44.25828" lon="0.83925">
        <ele>118</ele>
        <time>2025-08-17T08:51:17.569Z</time>
      </trkpt>
      <trkpt lat="44.25827" lon="0.83925">
        <ele>119</ele>
        <time>2025-08-17T08:51:18.569Z</time>
      </trkpt>
      <trkpt lat="44.25825" lon="0.83925">
        <ele>119</ele>
        <time>2025-08-17T08:51:19.569Z</time>
      </trkpt>
      <trkpt lat="44.25824" lon="0.83925">
        <ele>119</ele>
        <time>2025-08-17T08:51:20.569Z</time>
      </trkpt>
      <trkpt lat="44.25823" lon="0.83925">
        <ele>119</ele>
        <time>2025-08-17T08:51:21.569Z</time>
      </trkpt>
      <trkpt lat="44.25822" lon="0.83925">
        <ele>119</ele>
        <time>2025-08-17T08:51:22.569Z</time>
      </trkpt>
      <trkpt lat="44.25821" lon="0.83925">
        <ele>119</ele>
        <time>2025-08-17T08:51:23.569Z</time>
      </trkpt>
      <trkpt lat="44.2582" lon="0.83925">
        <ele>119</ele>
        <time>2025-08-17T08:51:24.569Z</time>
      </trkpt>
      <trkpt lat="44.2582" lon="0.83925">
        <ele>120</ele>
        <time>2025-08-17T08:51:25.569Z</time>
      </trkpt>
      <trkpt lat="44.2582" lon="0.83925">
        <ele>120</ele>
        <time>2025-08-17T08:51:26.569Z</time>
      </trkpt>
      <trkpt lat="44.25819" lon="0.83925">
        <ele>120</ele>
        <time>2025-08-17T08:51:27.569Z</time>
      </trkpt>
      <trkpt lat="44.25819" lon="0.83925">
        <ele>120</ele>
        <time>2025-08-17T08:51:28.569Z</time>
      </trkpt>
      <trkpt lat="44.25819" lon="0.83926">
        <ele>120</ele>
        <time>2025-08-17T08:51:29.569Z</time>
      </trkpt>
      <trkpt lat="44.25819" lon="0.83925">
        <ele>120</ele>
        <time>2025-08-17T08:51:30.569Z</time>
      </trkpt>
      <trkpt lat="44.25818" lon="0.83925">
        <ele>120</ele>
        <time>2025-08-17T08:51:31.569Z</time>
      </trkpt>
      <trkpt lat="44.25818" lon="0.83924">
        <ele>120</ele>
        <time>2025-08-17T08:51:32.569Z</time>
      </trkpt>
      <trkpt lat="44.25817" lon="0.83924">
        <ele>120</ele>
        <time>2025-08-17T08:51:33.569Z</time>
      </trkpt>
      <trkpt lat="44.25816" lon="0.83924">
        <ele>120</ele>
        <time>2025-08-17T08:51:34.569Z</time>
      </trkpt>
      <trkpt lat="44.25815" lon="0.83923">
        <ele>120</ele>
        <time>2025-08-17T08:51:35.569Z</time>
      </trkpt>
      <trkpt lat="44.25814" lon="0.83923">
        <ele>120</ele>
        <time>2025-08-17T08:51:36.569Z</time>
      </trkpt>
      <trkpt lat="44.25813" lon="0.83923">
        <ele>120</ele>
        <time>2025-08-17T08:51:37.569Z</time>
      </trkpt>
      <trkpt lat="44.25812" lon="0.83923">
        <ele>119</ele>
        <time>2025-08-17T08:51:38.569Z</time>
      </trkpt>
      <trkpt lat="44.2581" lon="0.83923">
        <ele>119</ele>
        <time>2025-08-17T08:51:39.569Z</time>
      </trkpt>
      <trkpt lat="44.25809" lon="0.83923">
        <ele>119</ele>
        <time>2025-08-17T08:51:40.569Z</time>
      </trkpt>
      <trkpt lat="44.25808" lon="0.83923">
        <ele>119</ele>
        <time>2025-08-17T08:51:41.569Z</time>
      </trkpt>
      <trkpt lat="44.25807" lon="0.83922">
        <ele>119</ele>
        <time>2025-08-17T08:51:42.569Z</time>
      </trkpt>
      <trkpt lat="44.25806" lon="0.83922">
        <ele>119</ele>
        <time>2025-08-17T08:51:43.569Z</time>
      </trkpt>
      <trkpt lat="44.25805" lon="0.83922">
        <ele>119</ele>
        <time>2025-08-17T08:51:44.569Z</time>
      </trkpt>
      <trkpt lat="44.25804" lon="0.83922">
        <ele>119</ele>
        <time>2025-08-17T08:51:45.569Z</time>
      </trkpt>
      <trkpt lat="44.25802" lon="0.83922">
        <ele>119</ele>
        <time>2025-08-17T08:51:46.569Z</time>
      </trkpt>
      <trkpt lat="44.25801" lon="0.83922">
        <ele>119</ele>
        <time>2025-08-17T08:51:47.569Z</time>
      </trkpt>
      <trkpt lat="44.258" lon="0.83922">
        <ele>119</ele>
        <time>2025-08-17T08:51:48.569Z</time>
      </trkpt>
      <trkpt lat="44.25799" lon="0.83922">
        <ele>119</ele>
        <time>2025-08-17T08:51:49.569Z</time>
      </trkpt>
      <trkpt lat="44.25798" lon="0.83923">
        <ele>120</ele>
        <time>2025-08-17T08:51:50.569Z</time>
      </trkpt>
      <trkpt lat="44.25797" lon="0.83923">
        <ele>120</ele>
        <time>2025-08-17T08:51:51.569Z</time>
      </trkpt>
      <trkpt lat="44.25796" lon="0.83923">
        <ele>120</ele>
        <time>2025-08-17T08:51:52.569Z</time>
      </trkpt>
      <trkpt lat="44.25795" lon="0.83923">
        <ele>120</ele>
        <time>2025-08-17T08:51:53.569Z</time>
      </trkpt>
      <trkpt lat="44.25794" lon="0.83923">
        <ele>120</ele>
        <time>2025-08-17T08:51:54.569Z</time>
      </trkpt>
      <trkpt lat="44.25793" lon="0.83922">
        <ele>120</ele>
        <time>2025-08-17T08:51:55.569Z</time>
      </trkpt>
      <trkpt lat="44.25792" lon="0.83922">
        <ele>121</ele>
        <time>2025-08-17T08:51:56.569Z</time>
      </trkpt>
      <trkpt lat="44.25791" lon="0.83922">
        <ele>121</ele>
        <time>2025-08-17T08:51:57.569Z</time>
      </trkpt>
      <trkpt lat="44.2579" lon="0.83922">
        <ele>121</ele>
        <time>2025-08-17T08:51:58.569Z</time>
      </trkpt>
      <trkpt lat="44.25789" lon="0.83922">
        <ele>121</ele>
        <time>2025-08-17T08:51:59.569Z</time>
      </trkpt>
      <trkpt lat="44.25788" lon="0.83922">
        <ele>121</ele>
        <time>2025-08-17T08:52:00.569Z</time>
      </trkpt>
      <trkpt lat="44.25786" lon="0.83923">
        <ele>122</ele>
        <time>2025-08-17T08:52:01.569Z</time>
      </trkpt>
      <trkpt lat="44.25785" lon="0.83923">
        <ele>122</ele>
        <time>2025-08-17T08:52:02.569Z</time>
      </trkpt>
      <trkpt lat="44.25784" lon="0.83922">
        <ele>122</ele>
        <time>2025-08-17T08:52:03.569Z</time>
      </trkpt>
      <trkpt lat="44.25783" lon="0.83922">
        <ele>122</ele>
        <time>2025-08-17T08:52:04.569Z</time>
      </trkpt>
      <trkpt lat="44.25782" lon="0.83922">
        <ele>122</ele>
        <time>2025-08-17T08:52:05.569Z</time>
      </trkpt>
      <trkpt lat="44.25781" lon="0.83921">
        <ele>122</ele>
        <time>2025-08-17T08:52:06.569Z</time>
      </trkpt>
      <trkpt lat="44.25779" lon="0.83921">
        <ele>122</ele>
        <time>2025-08-17T08:52:07.569Z</time>
      </trkpt>
      <trkpt lat="44.25778" lon="0.83921">
        <ele>122</ele>
        <time>2025-08-17T08:52:08.569Z</time>
      </trkpt>
      <trkpt lat="44.25777" lon="0.83921">
        <ele>122</ele>
        <time>2025-08-17T08:52:09.569Z</time>
      </trkpt>
      <trkpt lat="44.25776" lon="0.83921">
        <ele>122</ele>
        <time>2025-08-17T08:52:10.569Z</time>
      </trkpt>
      <trkpt lat="44.25775" lon="0.83921">
        <ele>122</ele>
        <time>2025-08-17T08:52:11.569Z</time>
      </trkpt>
      <trkpt lat="44.25774" lon="0.83921">
        <ele>122</ele>
        <time>2025-08-17T08:52:12.569Z</time>
      </trkpt>
      <trkpt lat="44.25773" lon="0.83921">
        <ele>122</ele>
        <time>2025-08-17T08:52:13.569Z</time>
      </trkpt>
      <trkpt lat="44.25771" lon="0.83921">
        <ele>122</ele>
        <time>2025-08-17T08:52:14.569Z</time>
      </trkpt>
      <trkpt lat="44.2577" lon="0.83921">
        <ele>123</ele>
        <time>2025-08-17T08:52:15.569Z</time>
      </trkpt>
      <trkpt lat="44.25769" lon="0.83921">
        <ele>123</ele>
        <time>2025-08-17T08:52:16.569Z</time>
      </trkpt>
      <trkpt lat="44.25768" lon="0.83921">
        <ele>123</ele>
        <time>2025-08-17T08:52:17.569Z</time>
      </trkpt>
      <trkpt lat="44.25767" lon="0.83921">
        <ele>123</ele>
        <time>2025-08-17T08:52:18.569Z</time>
      </trkpt>
      <trkpt lat="44.25766" lon="0.83921">
        <ele>123</ele>
        <time>2025-08-17T08:52:19.569Z</time>
      </trkpt>
      <trkpt lat="44.25765" lon="0.83921">
        <ele>123</ele>
        <time>2025-08-17T08:52:20.569Z</time>
      </trkpt>
      <trkpt lat="44.25764" lon="0.83921">
        <ele>122</ele>
        <time>2025-08-17T08:52:21.569Z</time>
      </trkpt>
      <trkpt lat="44.25763" lon="0.8392">
        <ele>122</ele>
        <time>2025-08-17T08:52:22.569Z</time>
      </trkpt>
      <trkpt lat="44.25762" lon="0.8392">
        <ele>122</ele>
        <time>2025-08-17T08:52:23.569Z</time>
      </trkpt>
      <trkpt lat="44.25761" lon="0.8392">
        <ele>122</ele>
        <time>2025-08-17T08:52:24.569Z</time>
      </trkpt>
      <trkpt lat="44.2576" lon="0.8392">
        <ele>122</ele>
        <time>2025-08-17T08:52:25.569Z</time>
      </trkpt>
      <trkpt lat="44.25758" lon="0.83919">
        <ele>122</ele>
        <time>2025-08-17T08:52:26.569Z</time>
      </trkpt>
      <trkpt lat="44.25757" lon="0.83919">
        <ele>122</ele>
        <time>2025-08-17T08:52:27.569Z</time>
      </trkpt>
      <trkpt lat="44.25756" lon="0.83918">
        <ele>122</ele>
        <time>2025-08-17T08:52:28.569Z</time>
      </trkpt>
      <trkpt lat="44.25755" lon="0.83917">
        <ele>122</ele>
        <time>2025-08-17T08:52:29.569Z</time>
      </trkpt>
      <trkpt lat="44.25755" lon="0.83917">
        <ele>122</ele>
        <time>2025-08-17T08:52:30.569Z</time>
      </trkpt>
      <trkpt lat="44.25754" lon="0.83916">
        <ele>123</ele>
        <time>2025-08-17T08:52:31.569Z</time>
      </trkpt>
      <trkpt lat="44.25752" lon="0.83916">
        <ele>123</ele>
        <time>2025-08-17T08:52:32.569Z</time>
      </trkpt>
      <trkpt lat="44.25751" lon="0.83916">
        <ele>123</ele>
        <time>2025-08-17T08:52:33.569Z</time>
      </trkpt>
      <trkpt lat="44.25751" lon="0.83916">
        <ele>123</ele>
        <time>2025-08-17T08:52:34.569Z</time>
      </trkpt>
      <trkpt lat="44.2575" lon="0.83915">
        <ele>123</ele>
        <time>2025-08-17T08:52:35.569Z</time>
      </trkpt>
      <trkpt lat="44.25749" lon="0.83916">
        <ele>123</ele>
        <time>2025-08-17T08:52:36.569Z</time>
      </trkpt>
      <trkpt lat="44.25748" lon="0.83915">
        <ele>124</ele>
        <time>2025-08-17T08:52:37.569Z</time>
      </trkpt>
      <trkpt lat="44.25748" lon="0.83915">
        <ele>124</ele>
        <time>2025-08-17T08:52:38.569Z</time>
      </trkpt>
      <trkpt lat="44.25748" lon="0.83915">
        <ele>124</ele>
        <time>2025-08-17T08:52:39.569Z</time>
      </trkpt>
      <trkpt lat="44.25748" lon="0.83915">
        <ele>125</ele>
        <time>2025-08-17T08:52:40.569Z</time>
      </trkpt>
      <trkpt lat="44.25748" lon="0.83914">
        <ele>125</ele>
        <time>2025-08-17T08:52:41.569Z</time>
      </trkpt>
      <trkpt lat="44.25748" lon="0.83914">
        <ele>125</ele>
        <time>2025-08-17T08:52:42.569Z</time>
      </trkpt>
      <trkpt lat="44.25748" lon="0.83914">
        <ele>125</ele>
        <time>2025-08-17T08:52:43.569Z</time>
      </trkpt>
      <trkpt lat="44.25748" lon="0.83914">
        <ele>126</ele>
        <time>2025-08-17T08:52:44.569Z</time>
      </trkpt>
      <trkpt lat="44.25748" lon="0.83914">
        <ele>126</ele>
        <time>2025-08-17T08:52:45.569Z</time>
      </trkpt>
      <trkpt lat="44.25748" lon="0.83914">
        <ele>126</ele>
        <time>2025-08-17T08:52:46.569Z</time>
      </trkpt>
      <trkpt lat="44.25748" lon="0.83914">
        <ele>126</ele>
        <time>2025-08-17T08:52:47.569Z</time>
      </trkpt>
      <trkpt lat="44.25748" lon="0.83914">
        <ele>127</ele>
        <time>2025-08-17T08:52:48.569Z</time>
      </trkpt>
      <trkpt lat="44.25748" lon="0.83914">
        <ele>127</ele>
        <time>2025-08-17T08:52:49.569Z</time>
      </trkpt>
      <trkpt lat="44.25748" lon="0.83914">
        <ele>127</ele>
        <time>2025-08-17T08:52:50.569Z</time>
      </trkpt>
      <trkpt lat="44.25748" lon="0.83914">
        <ele>127</ele>
        <time>2025-08-17T08:52:51.569Z</time>
      </trkpt>
      <trkpt lat="44.25748" lon="0.83914">
        <ele>127</ele>
        <time>2025-08-17T08:52:52.569Z</time>
      </trkpt>
      <trkpt lat="44.25748" lon="0.83914">
        <ele>127</ele>
        <time>2025-08-17T08:52:53.569Z</time>
      </trkpt>
      <trkpt lat="44.25748" lon="0.83914">
        <ele>127</ele>
        <time>2025-08-17T08:52:54.569Z</time>
      </trkpt>
      <trkpt lat="44.25748" lon="0.83914">
        <ele>127</ele>
        <time>2025-08-17T08:52:55.569Z</time>
      </trkpt>
      <trkpt lat="44.25748" lon="0.83914">
        <ele>127</ele>
        <time>2025-08-17T08:52:56.569Z</time>
      </trkpt>
      <trkpt lat="44.25748" lon="0.83914">
        <ele>127</ele>
        <time>2025-08-17T08:52:57.569Z</time>
      </trkpt>
      <trkpt lat="44.25748" lon="0.83914">
        <ele>127</ele>
        <time>2025-08-17T08:52:58.569Z</time>
      </trkpt>
      <trkpt lat="44.25748" lon="0.83914">
        <ele>128</ele>
        <time>2025-08-17T08:52:59.569Z</time>
      </trkpt>
      <trkpt lat="44.25748" lon="0.83914">
        <ele>128</ele>
        <time>2025-08-17T08:53:00.569Z</time>
      </trkpt>
      <trkpt lat="44.25748" lon="0.83914">
        <ele>128</ele>
        <time>2025-08-17T08:53:01.569Z</time>
      </trkpt>
      <trkpt lat="44.25748" lon="0.83914">
        <ele>128</ele>
        <time>2025-08-17T08:53:02.569Z</time>
      </trkpt>
      <trkpt lat="44.25748" lon="0.83914">
        <ele>128</ele>
        <time>2025-08-17T08:53:03.569Z</time>
      </trkpt>
      <trkpt lat="44.25747" lon="0.83914">
        <ele>128</ele>
        <time>2025-08-17T08:53:04.569Z</time>
      </trkpt>
      <trkpt lat="44.25747" lon="0.83914">
        <ele>128</ele>
        <time>2025-08-17T08:53:05.569Z</time>
      </trkpt>
      <trkpt lat="44.25747" lon="0.83914">
        <ele>128</ele>
        <time>2025-08-17T08:53:06.569Z</time>
      </trkpt>
      <trkpt lat="44.25747" lon="0.83914">
        <ele>128</ele>
        <time>2025-08-17T08:53:07.569Z</time>
      </trkpt>
      <trkpt lat="44.25747" lon="0.83914">
        <ele>128</ele>
        <time>2025-08-17T08:53:08.569Z</time>
      </trkpt>
      <trkpt lat="44.25747" lon="0.83914">
        <ele>128</ele>
        <time>2025-08-17T08:53:09.569Z</time>
      </trkpt>
      <trkpt lat="44.25748" lon="0.83914">
        <ele>128</ele>
        <time>2025-08-17T08:53:10.569Z</time>
      </trkpt>
      <trkpt lat="44.25748" lon="0.83914">
        <ele>128</ele>
        <time>2025-08-17T08:53:11.569Z</time>
      </trkpt>
      <trkpt lat="44.25748" lon="0.83914">
        <ele>128</ele>
        <time>2025-08-17T08:53:12.569Z</time>
      </trkpt>
      <trkpt lat="44.25748" lon="0.83914">
        <ele>128</ele>
        <time>2025-08-17T08:53:13.569Z</time>
      </trkpt>
      <trkpt lat="44.25748" lon="0.83914">
        <ele>128</ele>
        <time>2025-08-17T08:53:14.569Z</time>
      </trkpt>
      <trkpt lat="44.25748" lon="0.83914">
        <ele>128</ele>
        <time>2025-08-17T08:53:15.569Z</time>
      </trkpt>
      <trkpt lat="44.25748" lon="0.83914">
        <ele>128</ele>
        <time>2025-08-17T08:53:16.569Z</time>
      </trkpt>
      <trkpt lat="44.25748" lon="0.83914">
        <ele>128</ele>
        <time>2025-08-17T08:53:17.569Z</time>
      </trkpt>
      <trkpt lat="44.25748" lon="0.83914">
        <ele>128</ele>
        <time>2025-08-17T08:53:18.569Z</time>
      </trkpt>
      <trkpt lat="44.25748" lon="0.83914">
        <ele>129</ele>
        <time>2025-08-17T08:53:19.569Z</time>
      </trkpt>
      <trkpt lat="44.25748" lon="0.83913">
        <ele>129</ele>
        <time>2025-08-17T08:53:20.569Z</time>
      </trkpt>
      <trkpt lat="44.25748" lon="0.83913">
        <ele>129</ele>
        <time>2025-08-17T08:53:21.569Z</time>
      </trkpt>
      <trkpt lat="44.25748" lon="0.83913">
        <ele>129</ele>
        <time>2025-08-17T08:53:22.569Z</time>
      </trkpt>
      <trkpt lat="44.25748" lon="0.83914">
        <ele>128</ele>
        <time>2025-08-17T08:53:23.569Z</time>
      </trkpt>
      <trkpt lat="44.25748" lon="0.83913">
        <ele>128</ele>
        <time>2025-08-17T08:53:24.569Z</time>
      </trkpt>
      <trkpt lat="44.25748" lon="0.83913">
        <ele>128</ele>
        <time>2025-08-17T08:53:25.569Z</time>
      </trkpt>
      <trkpt lat="44.25748" lon="0.83913">
        <ele>129</ele>
        <time>2025-08-17T08:53:26.569Z</time>
      </trkpt>
      <trkpt lat="44.25748" lon="0.83913">
        <ele>129</ele>
        <time>2025-08-17T08:53:27.569Z</time>
      </trkpt>
      <trkpt lat="44.25748" lon="0.83914">
        <ele>129</ele>
        <time>2025-08-17T08:53:28.569Z</time>
      </trkpt>
      <trkpt lat="44.25748" lon="0.83914">
        <ele>129</ele>
        <time>2025-08-17T08:53:29.569Z</time>
      </trkpt>
      <trkpt lat="44.25748" lon="0.83914">
        <ele>129</ele>
        <time>2025-08-17T08:53:30.569Z</time>
      </trkpt>
      <trkpt lat="44.25748" lon="0.83914">
        <ele>129</ele>
        <time>2025-08-17T08:53:31.569Z</time>
      </trkpt>
      <trkpt lat="44.25748" lon="0.83914">
        <ele>129</ele>
        <time>2025-08-17T08:53:32.569Z</time>
      </trkpt>
      <trkpt lat="44.25748" lon="0.83914">
        <ele>128</ele>
        <time>2025-08-17T08:53:33.569Z</time>
      </trkpt>
      <trkpt lat="44.25748" lon="0.83914">
        <ele>128</ele>
        <time>2025-08-17T08:53:34.569Z</time>
      </trkpt>
      <trkpt lat="44.25748" lon="0.83914">
        <ele>128</ele>
        <time>2025-08-17T08:53:35.569Z</time>
      </trkpt>
      <trkpt lat="44.25748" lon="0.83914">
        <ele>128</ele>
        <time>2025-08-17T08:53:36.569Z</time>
      </trkpt>
      <trkpt lat="44.25748" lon="0.83914">
        <ele>128</ele>
        <time>2025-08-17T08:53:37.569Z</time>
      </trkpt>
      <trkpt lat="44.25748" lon="0.83914">
        <ele>128</ele>
        <time>2025-08-17T08:53:38.569Z</time>
      </trkpt>
      <trkpt lat="44.25748" lon="0.83913">
        <ele>129</ele>
        <time>2025-08-17T08:53:39.569Z</time>
      </trkpt>
      <trkpt lat="44.25748" lon="0.83913">
        <ele>129</ele>
        <time>2025-08-17T08:53:40.569Z</time>
      </trkpt>
      <trkpt lat="44.25748" lon="0.83913">
        <ele>129</ele>
        <time>2025-08-17T08:53:41.569Z</time>
      </trkpt>
      <trkpt lat="44.25748" lon="0.83914">
        <ele>129</ele>
        <time>2025-08-17T08:53:42.569Z</time>
      </trkpt>
      <trkpt lat="44.25748" lon="0.83914">
        <ele>129</ele>
        <time>2025-08-17T08:53:43.569Z</time>
      </trkpt>
      <trkpt lat="44.25748" lon="0.83914">
        <ele>129</ele>
        <time>2025-08-17T08:53:44.569Z</time>
      </trkpt>
      <trkpt lat="44.25748" lon="0.83914">
        <ele>129</ele>
        <time>2025-08-17T08:53:45.569Z</time>
      </trkpt>
      <trkpt lat="44.25748" lon="0.83914">
        <ele>129</ele>
        <time>2025-08-17T08:53:46.569Z</time>
      </trkpt>
      <trkpt lat="44.25748" lon="0.83914">
        <ele>129</ele>
        <time>2025-08-17T08:53:47.569Z</time>
      </trkpt>
      <trkpt lat="44.25748" lon="0.83914">
        <ele>129</ele>
        <time>2025-08-17T08:53:48.569Z</time>
      </trkpt>
      <trkpt lat="44.25748" lon="0.83914">
        <ele>129</ele>
        <time>2025-08-17T08:53:49.569Z</time>
      </trkpt>
      <trkpt lat="44.25748" lon="0.83914">
        <ele>129</ele>
        <time>2025-08-17T08:53:50.569Z</time>
      </trkpt>
      <trkpt lat="44.25748" lon="0.83914">
        <ele>129</ele>
        <time>2025-08-17T08:53:51.569Z</time>
      </trkpt>
      <trkpt lat="44.25748" lon="0.83914">
        <ele>129</ele>
        <time>2025-08-17T08:53:52.569Z</time>
      </trkpt>
      <trkpt lat="44.25748" lon="0.83914">
        <ele>130</ele>
        <time>2025-08-17T08:53:53.569Z</time>
      </trkpt>
      <trkpt lat="44.25748" lon="0.83914">
        <ele>130</ele>
        <time>2025-08-17T08:53:54.569Z</time>
      </trkpt>
      <trkpt lat="44.25748" lon="0.83914">
        <ele>130</ele>
        <time>2025-08-17T08:53:55.569Z</time>
      </trkpt>
      <trkpt lat="44.25748" lon="0.83914">
        <ele>130</ele>
        <time>2025-08-17T08:53:56.569Z</time>
      </trkpt>
      <trkpt lat="44.25748" lon="0.83914">
        <ele>130</ele>
        <time>2025-08-17T08:53:57.569Z</time>
      </trkpt>
      <trkpt lat="44.25749" lon="0.83913">
        <ele>129</ele>
        <time>2025-08-17T08:53:58.569Z</time>
      </trkpt>
      <trkpt lat="44.25749" lon="0.83913">
        <ele>129</ele>
        <time>2025-08-17T08:53:59.569Z</time>
      </trkpt>
      <trkpt lat="44.25749" lon="0.83913">
        <ele>129</ele>
        <time>2025-08-17T08:54:00.569Z</time>
      </trkpt>
      <trkpt lat="44.25749" lon="0.83913">
        <ele>129</ele>
        <time>2025-08-17T08:54:01.569Z</time>
      </trkpt>
      <trkpt lat="44.25749" lon="0.83913">
        <ele>129</ele>
        <time>2025-08-17T08:54:02.569Z</time>
      </trkpt>
      <trkpt lat="44.25749" lon="0.83913">
        <ele>129</ele>
        <time>2025-08-17T08:54:03.569Z</time>
      </trkpt>
      <trkpt lat="44.25749" lon="0.83913">
        <ele>129</ele>
        <time>2025-08-17T08:54:04.569Z</time>
      </trkpt>
      <trkpt lat="44.25748" lon="0.83913">
        <ele>129</ele>
        <time>2025-08-17T08:54:05.569Z</time>
      </trkpt>
      <trkpt lat="44.25748" lon="0.83913">
        <ele>129</ele>
        <time>2025-08-17T08:54:06.569Z</time>
      </trkpt>
      <trkpt lat="44.25748" lon="0.83913">
        <ele>129</ele>
        <time>2025-08-17T08:54:07.569Z</time>
      </trkpt>
      <trkpt lat="44.25748" lon="0.83913">
        <ele>129</ele>
        <time>2025-08-17T08:54:08.569Z</time>
      </trkpt>
      <trkpt lat="44.25748" lon="0.83913">
        <ele>129</ele>
        <time>2025-08-17T08:54:09.569Z</time>
      </trkpt>
      <trkpt lat="44.25748" lon="0.83913">
        <ele>129</ele>
        <time>2025-08-17T08:54:10.569Z</time>
      </trkpt>
      <trkpt lat="44.25748" lon="0.83913">
        <ele>129</ele>
        <time>2025-08-17T08:54:11.569Z</time>
      </trkpt>
      <trkpt lat="44.25748" lon="0.83913">
        <ele>129</ele>
        <time>2025-08-17T08:54:12.569Z</time>
      </trkpt>
      <trkpt lat="44.25748" lon="0.83913">
        <ele>129</ele>
        <time>2025-08-17T08:54:13.569Z</time>
      </trkpt>
      <trkpt lat="44.25748" lon="0.83913">
        <ele>129</ele>
        <time>2025-08-17T08:54:14.569Z</time>
      </trkpt>
      <trkpt lat="44.25748" lon="0.83913">
        <ele>128</ele>
        <time>2025-08-17T08:54:15.569Z</time>
      </trkpt>
      <trkpt lat="44.25748" lon="0.83913">
        <ele>129</ele>
        <time>2025-08-17T08:54:16.569Z</time>
      </trkpt>
      <trkpt lat="44.25748" lon="0.83913">
        <ele>129</ele>
        <time>2025-08-17T08:54:17.569Z</time>
      </trkpt>
      <trkpt lat="44.25748" lon="0.83913">
        <ele>129</ele>
        <time>2025-08-17T08:54:18.569Z</time>
      </trkpt>
      <trkpt lat="44.25748" lon="0.83913">
        <ele>129</ele>
        <time>2025-08-17T08:54:19.569Z</time>
      </trkpt>
      <trkpt lat="44.25748" lon="0.83913">
        <ele>129</ele>
        <time>2025-08-17T08:54:20.569Z</time>
      </trkpt>
      <trkpt lat="44.25748" lon="0.83913">
        <ele>129</ele>
        <time>2025-08-17T08:54:21.569Z</time>
      </trkpt>
      <trkpt lat="44.25748" lon="0.83913">
        <ele>129</ele>
        <time>2025-08-17T08:54:22.569Z</time>
      </trkpt>
      <trkpt lat="44.25748" lon="0.83913">
        <ele>129</ele>
        <time>2025-08-17T08:54:23.569Z</time>
      </trkpt>
      <trkpt lat="44.25748" lon="0.83913">
        <ele>129</ele>
        <time>2025-08-17T08:54:24.569Z</time>
      </trkpt>
      <trkpt lat="44.25748" lon="0.83913">
        <ele>129</ele>
        <time>2025-08-17T08:54:25.569Z</time>
      </trkpt>
      <trkpt lat="44.25748" lon="0.83913">
        <ele>130</ele>
        <time>2025-08-17T08:54:26.569Z</time>
      </trkpt>
      <trkpt lat="44.25748" lon="0.83913">
        <ele>130</ele>
        <time>2025-08-17T08:54:27.569Z</time>
      </trkpt>
      <trkpt lat="44.25748" lon="0.83913">
        <ele>130</ele>
        <time>2025-08-17T08:54:28.569Z</time>
      </trkpt>
      <trkpt lat="44.25748" lon="0.83913">
        <ele>130</ele>
        <time>2025-08-17T08:54:29.569Z</time>
      </trkpt>
      <trkpt lat="44.25748" lon="0.83913">
        <ele>130</ele>
        <time>2025-08-17T08:54:30.569Z</time>
      </trkpt>
      <trkpt lat="44.25748" lon="0.83913">
        <ele>130</ele>
        <time>2025-08-17T08:54:31.569Z</time>
      </trkpt>
      <trkpt lat="44.25748" lon="0.83913">
        <ele>130</ele>
        <time>2025-08-17T08:54:32.569Z</time>
      </trkpt>
      <trkpt lat="44.25748" lon="0.83913">
        <ele>130</ele>
        <time>2025-08-17T08:54:33.569Z</time>
      </trkpt>
      <trkpt lat="44.25748" lon="0.83913">
        <ele>130</ele>
        <time>2025-08-17T08:54:34.569Z</time>
      </trkpt>
      <trkpt lat="44.25748" lon="0.83913">
        <ele>130</ele>
        <time>2025-08-17T08:54:35.569Z</time>
      </trkpt>
      <trkpt lat="44.25748" lon="0.83913">
        <ele>130</ele>
        <time>2025-08-17T08:54:36.569Z</time>
      </trkpt>
      <trkpt lat="44.25748" lon="0.83913">
        <ele>130</ele>
        <time>2025-08-17T08:54:37.569Z</time>
      </trkpt>
      <trkpt lat="44.25748" lon="0.83913">
        <ele>130</ele>
        <time>2025-08-17T08:54:38.569Z</time>
      </trkpt>
      <trkpt lat="44.25748" lon="0.83913">
        <ele>130</ele>
        <time>2025-08-17T08:54:39.569Z</time>
      </trkpt>
      <trkpt lat="44.25748" lon="0.83913">
        <ele>130</ele>
        <time>2025-08-17T08:54:40.569Z</time>
      </trkpt>
      <trkpt lat="44.25748" lon="0.83913">
        <ele>130</ele>
        <time>2025-08-17T08:54:41.569Z</time>
      </trkpt>
      <trkpt lat="44.25748" lon="0.83913">
        <ele>130</ele>
        <time>2025-08-17T08:54:42.569Z</time>
      </trkpt>
      <trkpt lat="44.25748" lon="0.83913">
        <ele>130</ele>
        <time>2025-08-17T08:54:43.569Z</time>
      </trkpt>
      <trkpt lat="44.25748" lon="0.83913">
        <ele>129</ele>
        <time>2025-08-17T08:54:44.569Z</time>
      </trkpt>
      <trkpt lat="44.25748" lon="0.83913">
        <ele>129</ele>
        <time>2025-08-17T08:54:45.569Z</time>
      </trkpt>
      <trkpt lat="44.25748" lon="0.83913">
        <ele>129</ele>
        <time>2025-08-17T08:54:46.569Z</time>
      </trkpt>
      <trkpt lat="44.25748" lon="0.83913">
        <ele>129</ele>
        <time>2025-08-17T08:54:47.569Z</time>
      </trkpt>
      <trkpt lat="44.25748" lon="0.83913">
        <ele>129</ele>
        <time>2025-08-17T08:54:48.569Z</time>
      </trkpt>
      <trkpt lat="44.25749" lon="0.83913">
        <ele>129</ele>
        <time>2025-08-17T08:54:49.569Z</time>
      </trkpt>
      <trkpt lat="44.25749" lon="0.83913">
        <ele>129</ele>
        <time>2025-08-17T08:54:50.569Z</time>
      </trkpt>
      <trkpt lat="44.25749" lon="0.83913">
        <ele>129</ele>
        <time>2025-08-17T08:54:51.569Z</time>
      </trkpt>
      <trkpt lat="44.25749" lon="0.83913">
        <ele>129</ele>
        <time>2025-08-17T08:54:52.569Z</time>
      </trkpt>
      <trkpt lat="44.25749" lon="0.83913">
        <ele>129</ele>
        <time>2025-08-17T08:54:53.569Z</time>
      </trkpt>
      <trkpt lat="44.25749" lon="0.83913">
        <ele>129</ele>
        <time>2025-08-17T08:54:54.569Z</time>
      </trkpt>
      <trkpt lat="44.25749" lon="0.83913">
        <ele>128</ele>
        <time>2025-08-17T08:54:55.569Z</time>
      </trkpt>
      <trkpt lat="44.25749" lon="0.83913">
        <ele>128</ele>
        <time>2025-08-17T08:54:56.569Z</time>
      </trkpt>
      <trkpt lat="44.25749" lon="0.83913">
        <ele>128</ele>
        <time>2025-08-17T08:54:57.569Z</time>
      </trkpt>
      <trkpt lat="44.25749" lon="0.83913">
        <ele>128</ele>
        <time>2025-08-17T08:54:58.569Z</time>
      </trkpt>
      <trkpt lat="44.25749" lon="0.83913">
        <ele>128</ele>
        <time>2025-08-17T08:54:59.569Z</time>
      </trkpt>
      <trkpt lat="44.25748" lon="0.83913">
        <ele>128</ele>
        <time>2025-08-17T08:55:00.569Z</time>
      </trkpt>
      <trkpt lat="44.25748" lon="0.83913">
        <ele>128</ele>
        <time>2025-08-17T08:55:01.569Z</time>
      </trkpt>
      <trkpt lat="44.25748" lon="0.83913">
        <ele>128</ele>
        <time>2025-08-17T08:55:02.569Z</time>
      </trkpt>
      <trkpt lat="44.25748" lon="0.83913">
        <ele>127</ele>
        <time>2025-08-17T08:55:03.569Z</time>
      </trkpt>
      <trkpt lat="44.25748" lon="0.83914">
        <ele>127</ele>
        <time>2025-08-17T08:55:04.569Z</time>
      </trkpt>
      <trkpt lat="44.25748" lon="0.83914">
        <ele>127</ele>
        <time>2025-08-17T08:55:05.569Z</time>
      </trkpt>
      <trkpt lat="44.25748" lon="0.83914">
        <ele>128</ele>
        <time>2025-08-17T08:55:06.569Z</time>
      </trkpt>
      <trkpt lat="44.25748" lon="0.83914">
        <ele>128</ele>
        <time>2025-08-17T08:55:07.569Z</time>
      </trkpt>
      <trkpt lat="44.25748" lon="0.83914">
        <ele>128</ele>
        <time>2025-08-17T08:55:08.569Z</time>
      </trkpt>
      <trkpt lat="44.25748" lon="0.83914">
        <ele>128</ele>
        <time>2025-08-17T08:55:09.569Z</time>
      </trkpt>
      <trkpt lat="44.25748" lon="0.83914">
        <ele>128</ele>
        <time>2025-08-17T08:55:10.569Z</time>
      </trkpt>
      <trkpt lat="44.25748" lon="0.83914">
        <ele>128</ele>
        <time>2025-08-17T08:55:11.569Z</time>
      </trkpt>
      <trkpt lat="44.25748" lon="0.83914">
        <ele>128</ele>
        <time>2025-08-17T08:55:12.569Z</time>
      </trkpt>
      <trkpt lat="44.25748" lon="0.83914">
        <ele>129</ele>
        <time>2025-08-17T08:55:13.569Z</time>
      </trkpt>
      <trkpt lat="44.25748" lon="0.83914">
        <ele>129</ele>
        <time>2025-08-17T08:55:14.569Z</time>
      </trkpt>
      <trkpt lat="44.25748" lon="0.83914">
        <ele>129</ele>
        <time>2025-08-17T08:55:15.569Z</time>
      </trkpt>
      <trkpt lat="44.25748" lon="0.83914">
        <ele>130</ele>
        <time>2025-08-17T08:55:16.569Z</time>
      </trkpt>
      <trkpt lat="44.25748" lon="0.83914">
        <ele>130</ele>
        <time>2025-08-17T08:55:17.569Z</time>
      </trkpt>
      <trkpt lat="44.25748" lon="0.83914">
        <ele>130</ele>
        <time>2025-08-17T08:55:18.569Z</time>
      </trkpt>
      <trkpt lat="44.25748" lon="0.83914">
        <ele>130</ele>
        <time>2025-08-17T08:55:19.569Z</time>
      </trkpt>
      <trkpt lat="44.25748" lon="0.83914">
        <ele>130</ele>
        <time>2025-08-17T08:55:20.569Z</time>
      </trkpt>
      <trkpt lat="44.25748" lon="0.83914">
        <ele>130</ele>
        <time>2025-08-17T08:55:21.569Z</time>
      </trkpt>
      <trkpt lat="44.25748" lon="0.83914">
        <ele>130</ele>
        <time>2025-08-17T08:55:22.569Z</time>
      </trkpt>
      <trkpt lat="44.25748" lon="0.83915">
        <ele>130</ele>
        <time>2025-08-17T08:55:23.569Z</time>
      </trkpt>
      <trkpt lat="44.25748" lon="0.83915">
        <ele>130</ele>
        <time>2025-08-17T08:55:24.569Z</time>
      </trkpt>
      <trkpt lat="44.25748" lon="0.83914">
        <ele>130</ele>
        <time>2025-08-17T08:55:25.569Z</time>
      </trkpt>
      <trkpt lat="44.25748" lon="0.83914">
        <ele>130</ele>
        <time>2025-08-17T08:55:26.569Z</time>
      </trkpt>
      <trkpt lat="44.25748" lon="0.83914">
        <ele>130</ele>
        <time>2025-08-17T08:55:27.569Z</time>
      </trkpt>
      <trkpt lat="44.25748" lon="0.83914">
        <ele>130</ele>
        <time>2025-08-17T08:55:28.569Z</time>
      </trkpt>
      <trkpt lat="44.25748" lon="0.83914">
        <ele>130</ele>
        <time>2025-08-17T08:55:29.569Z</time>
      </trkpt>
      <trkpt lat="44.25748" lon="0.83913">
        <ele>129</ele>
        <time>2025-08-17T08:55:30.569Z</time>
      </trkpt>
      <trkpt lat="44.25748" lon="0.83913">
        <ele>130</ele>
        <time>2025-08-17T08:55:31.569Z</time>
      </trkpt>
      <trkpt lat="44.25748" lon="0.83913">
        <ele>130</ele>
        <time>2025-08-17T08:55:32.569Z</time>
      </trkpt>
      <trkpt lat="44.25748" lon="0.83913">
        <ele>130</ele>
        <time>2025-08-17T08:55:33.569Z</time>
      </trkpt>
      <trkpt lat="44.25749" lon="0.83913">
        <ele>130</ele>
        <time>2025-08-17T08:55:34.569Z</time>
      </trkpt>
      <trkpt lat="44.25748" lon="0.83913">
        <ele>131</ele>
        <time>2025-08-17T08:55:35.569Z</time>
      </trkpt>
      <trkpt lat="44.25748" lon="0.83913">
        <ele>131</ele>
        <time>2025-08-17T08:55:36.569Z</time>
      </trkpt>
      <trkpt lat="44.25748" lon="0.83913">
        <ele>132</ele>
        <time>2025-08-17T08:55:37.569Z</time>
      </trkpt>
      <trkpt lat="44.25748" lon="0.83913">
        <ele>132</ele>
        <time>2025-08-17T08:55:38.569Z</time>
      </trkpt>
      <trkpt lat="44.25748" lon="0.83913">
        <ele>132</ele>
        <time>2025-08-17T08:55:39.569Z</time>
      </trkpt>
      <trkpt lat="44.25748" lon="0.83913">
        <ele>132</ele>
        <time>2025-08-17T08:55:40.569Z</time>
      </trkpt>
      <trkpt lat="44.25748" lon="0.83913">
        <ele>132</ele>
        <time>2025-08-17T08:55:41.569Z</time>
      </trkpt>
      <trkpt lat="44.25748" lon="0.83913">
        <ele>132</ele>
        <time>2025-08-17T08:55:42.569Z</time>
      </trkpt>
      <trkpt lat="44.25747" lon="0.83913">
        <ele>132</ele>
        <time>2025-08-17T08:55:43.569Z</time>
      </trkpt>
      <trkpt lat="44.25747" lon="0.83913">
        <ele>132</ele>
        <time>2025-08-17T08:55:44.569Z</time>
      </trkpt>
      <trkpt lat="44.25747" lon="0.83913">
        <ele>131</ele>
        <time>2025-08-17T08:55:45.569Z</time>
      </trkpt>
      <trkpt lat="44.25747" lon="0.83913">
        <ele>131</ele>
        <time>2025-08-17T08:55:46.569Z</time>
      </trkpt>
      <trkpt lat="44.25746" lon="0.83913">
        <ele>131</ele>
        <time>2025-08-17T08:55:47.569Z</time>
      </trkpt>
      <trkpt lat="44.25746" lon="0.83913">
        <ele>131</ele>
        <time>2025-08-17T08:55:48.569Z</time>
      </trkpt>
      <trkpt lat="44.25746" lon="0.83913">
        <ele>131</ele>
        <time>2025-08-17T08:55:49.569Z</time>
      </trkpt>
      <trkpt lat="44.25746" lon="0.83913">
        <ele>131</ele>
        <time>2025-08-17T08:55:50.569Z</time>
      </trkpt>
      <trkpt lat="44.25746" lon="0.83913">
        <ele>131</ele>
        <time>2025-08-17T08:55:51.569Z</time>
      </trkpt>
      <trkpt lat="44.25746" lon="0.83913">
        <ele>131</ele>
        <time>2025-08-17T08:55:52.569Z</time>
      </trkpt>
      <trkpt lat="44.25746" lon="0.83913">
        <ele>130</ele>
        <time>2025-08-17T08:55:53.569Z</time>
      </trkpt>
      <trkpt lat="44.25746" lon="0.83913">
        <ele>131</ele>
        <time>2025-08-17T08:55:54.569Z</time>
      </trkpt>
      <trkpt lat="44.25746" lon="0.83913">
        <ele>131</ele>
        <time>2025-08-17T08:55:55.569Z</time>
      </trkpt>
      <trkpt lat="44.25746" lon="0.83913">
        <ele>130</ele>
        <time>2025-08-17T08:55:56.569Z</time>
      </trkpt>
      <trkpt lat="44.25746" lon="0.83913">
        <ele>130</ele>
        <time>2025-08-17T08:55:57.569Z</time>
      </trkpt>
      <trkpt lat="44.25746" lon="0.83913">
        <ele>130</ele>
        <time>2025-08-17T08:55:58.569Z</time>
      </trkpt>
      <trkpt lat="44.25746" lon="0.83913">
        <ele>130</ele>
        <time>2025-08-17T08:55:59.569Z</time>
      </trkpt>
      <trkpt lat="44.25746" lon="0.83913">
        <ele>130</ele>
        <time>2025-08-17T08:56:00.569Z</time>
      </trkpt>
      <trkpt lat="44.25746" lon="0.83913">
        <ele>130</ele>
        <time>2025-08-17T08:56:01.569Z</time>
      </trkpt>
      <trkpt lat="44.25746" lon="0.83913">
        <ele>130</ele>
        <time>2025-08-17T08:56:02.569Z</time>
      </trkpt>
      <trkpt lat="44.25746" lon="0.83913">
        <ele>129</ele>
        <time>2025-08-17T08:56:03.569Z</time>
      </trkpt>
      <trkpt lat="44.25746" lon="0.83913">
        <ele>129</ele>
        <time>2025-08-17T08:56:04.569Z</time>
      </trkpt>
      <trkpt lat="44.25746" lon="0.83913">
        <ele>129</ele>
        <time>2025-08-17T08:56:05.569Z</time>
      </trkpt>
      <trkpt lat="44.25746" lon="0.83913">
        <ele>129</ele>
        <time>2025-08-17T08:56:06.569Z</time>
      </trkpt>
      <trkpt lat="44.25746" lon="0.83913">
        <ele>129</ele>
        <time>2025-08-17T08:56:07.569Z</time>
      </trkpt>
      <trkpt lat="44.25746" lon="0.83913">
        <ele>129</ele>
        <time>2025-08-17T08:56:08.569Z</time>
      </trkpt>
      <trkpt lat="44.25746" lon="0.83913">
        <ele>129</ele>
        <time>2025-08-17T08:56:09.569Z</time>
      </trkpt>
      <trkpt lat="44.25746" lon="0.83913">
        <ele>129</ele>
        <time>2025-08-17T08:56:10.569Z</time>
      </trkpt>
      <trkpt lat="44.25746" lon="0.83912">
        <ele>129</ele>
        <time>2025-08-17T08:56:11.569Z</time>
      </trkpt>
      <trkpt lat="44.25746" lon="0.83912">
        <ele>129</ele>
        <time>2025-08-17T08:56:12.569Z</time>
      </trkpt>
      <trkpt lat="44.25746" lon="0.83912">
        <ele>129</ele>
        <time>2025-08-17T08:56:13.569Z</time>
      </trkpt>
      <trkpt lat="44.25746" lon="0.83912">
        <ele>128</ele>
        <time>2025-08-17T08:56:14.569Z</time>
      </trkpt>
      <trkpt lat="44.25746" lon="0.83912">
        <ele>128</ele>
        <time>2025-08-17T08:56:15.569Z</time>
      </trkpt>
      <trkpt lat="44.25746" lon="0.83912">
        <ele>128</ele>
        <time>2025-08-17T08:56:16.569Z</time>
      </trkpt>
      <trkpt lat="44.25746" lon="0.83912">
        <ele>128</ele>
        <time>2025-08-17T08:56:17.569Z</time>
      </trkpt>
      <trkpt lat="44.25746" lon="0.83912">
        <ele>128</ele>
        <time>2025-08-17T08:56:18.569Z</time>
      </trkpt>
      <trkpt lat="44.25746" lon="0.83912">
        <ele>129</ele>
        <time>2025-08-17T08:56:19.569Z</time>
      </trkpt>
      <trkpt lat="44.25746" lon="0.83913">
        <ele>128</ele>
        <time>2025-08-17T08:56:20.569Z</time>
      </trkpt>
      <trkpt lat="44.25746" lon="0.83913">
        <ele>128</ele>
        <time>2025-08-17T08:56:21.569Z</time>
      </trkpt>
      <trkpt lat="44.25746" lon="0.83913">
        <ele>128</ele>
        <time>2025-08-17T08:56:22.569Z</time>
      </trkpt>
      <trkpt lat="44.25746" lon="0.83913">
        <ele>127</ele>
        <time>2025-08-17T08:56:23.569Z</time>
      </trkpt>
      <trkpt lat="44.25746" lon="0.83913">
        <ele>127</ele>
        <time>2025-08-17T08:56:24.569Z</time>
      </trkpt>
      <trkpt lat="44.25746" lon="0.83913">
        <ele>127</ele>
        <time>2025-08-17T08:56:25.569Z</time>
      </trkpt>
      <trkpt lat="44.25746" lon="0.83912">
        <ele>127</ele>
        <time>2025-08-17T08:56:26.569Z</time>
      </trkpt>
      <trkpt lat="44.25746" lon="0.83912">
        <ele>127</ele>
        <time>2025-08-17T08:56:27.569Z</time>
      </trkpt>
      <trkpt lat="44.25746" lon="0.83912">
        <ele>127</ele>
        <time>2025-08-17T08:56:28.569Z</time>
      </trkpt>
      <trkpt lat="44.25746" lon="0.83912">
        <ele>127</ele>
        <time>2025-08-17T08:56:29.569Z</time>
      </trkpt>
      <trkpt lat="44.25746" lon="0.83912">
        <ele>128</ele>
        <time>2025-08-17T08:56:30.569Z</time>
      </trkpt>
      <trkpt lat="44.25746" lon="0.83912">
        <ele>128</ele>
        <time>2025-08-17T08:56:31.569Z</time>
      </trkpt>
      <trkpt lat="44.25746" lon="0.83912">
        <ele>128</ele>
        <time>2025-08-17T08:56:32.569Z</time>
      </trkpt>
      <trkpt lat="44.25746" lon="0.83912">
        <ele>128</ele>
        <time>2025-08-17T08:56:33.569Z</time>
      </trkpt>
      <trkpt lat="44.25746" lon="0.83912">
        <ele>128</ele>
        <time>2025-08-17T08:56:34.569Z</time>
      </trkpt>
      <trkpt lat="44.25746" lon="0.83912">
        <ele>128</ele>
        <time>2025-08-17T08:56:35.569Z</time>
      </trkpt>
      <trkpt lat="44.25746" lon="0.83912">
        <ele>128</ele>
        <time>2025-08-17T08:56:36.569Z</time>
      </trkpt>
      <trkpt lat="44.25746" lon="0.83912">
        <ele>128</ele>
        <time>2025-08-17T08:56:37.569Z</time>
      </trkpt>
      <trkpt lat="44.25746" lon="0.83912">
        <ele>128</ele>
        <time>2025-08-17T08:56:38.569Z</time>
      </trkpt>
      <trkpt lat="44.25746" lon="0.83912">
        <ele>128</ele>
        <time>2025-08-17T08:56:39.569Z</time>
      </trkpt>
      <trkpt lat="44.25746" lon="0.83912">
        <ele>129</ele>
        <time>2025-08-17T08:56:40.569Z</time>
      </trkpt>
      <trkpt lat="44.25746" lon="0.83912">
        <ele>129</ele>
        <time>2025-08-17T08:56:41.569Z</time>
      </trkpt>
      <trkpt lat="44.25746" lon="0.83912">
        <ele>128</ele>
        <time>2025-08-17T08:56:42.569Z</time>
      </trkpt>
      <trkpt lat="44.25746" lon="0.83912">
        <ele>128</ele>
        <time>2025-08-17T08:56:43.569Z</time>
      </trkpt>
      <trkpt lat="44.25746" lon="0.83912">
        <ele>128</ele>
        <time>2025-08-17T08:56:44.569Z</time>
      </trkpt>
      <trkpt lat="44.25746" lon="0.83912">
        <ele>128</ele>
        <time>2025-08-17T08:56:45.569Z</time>
      </trkpt>
      <trkpt lat="44.25746" lon="0.83912">
        <ele>128</ele>
        <time>2025-08-17T08:56:46.569Z</time>
      </trkpt>
      <trkpt lat="44.25746" lon="0.83912">
        <ele>129</ele>
        <time>2025-08-17T08:56:47.569Z</time>
      </trkpt>
      <trkpt lat="44.25746" lon="0.83912">
        <ele>129</ele>
        <time>2025-08-17T08:56:48.569Z</time>
      </trkpt>
      <trkpt lat="44.25746" lon="0.83912">
        <ele>129</ele>
        <time>2025-08-17T08:56:49.569Z</time>
      </trkpt>
      <trkpt lat="44.25746" lon="0.83912">
        <ele>129</ele>
        <time>2025-08-17T08:56:50.569Z</time>
      </trkpt>
      <trkpt lat="44.25746" lon="0.83912">
        <ele>129</ele>
        <time>2025-08-17T08:56:51.569Z</time>
      </trkpt>
      <trkpt lat="44.25746" lon="0.83913">
        <ele>129</ele>
        <time>2025-08-17T08:56:52.569Z</time>
      </trkpt>
      <trkpt lat="44.25746" lon="0.83912">
        <ele>129</ele>
        <time>2025-08-17T08:56:53.569Z</time>
      </trkpt>
      <trkpt lat="44.25746" lon="0.83912">
        <ele>129</ele>
        <time>2025-08-17T08:56:54.569Z</time>
      </trkpt>
      <trkpt lat="44.25746" lon="0.83913">
        <ele>129</ele>
        <time>2025-08-17T08:56:55.569Z</time>
      </trkpt>
      <trkpt lat="44.25746" lon="0.83913">
        <ele>130</ele>
        <time>2025-08-17T08:56:56.569Z</time>
      </trkpt>
      <trkpt lat="44.25746" lon="0.83913">
        <ele>130</ele>
        <time>2025-08-17T08:56:57.569Z</time>
      </trkpt>
      <trkpt lat="44.25746" lon="0.83913">
        <ele>130</ele>
        <time>2025-08-17T08:56:58.569Z</time>
      </trkpt>
      <trkpt lat="44.25746" lon="0.83913">
        <ele>130</ele>
        <time>2025-08-17T08:56:59.569Z</time>
      </trkpt>
      <trkpt lat="44.25745" lon="0.83913">
        <ele>130</ele>
        <time>2025-08-17T08:57:00.569Z</time>
      </trkpt>
      <trkpt lat="44.25745" lon="0.83913">
        <ele>131</ele>
        <time>2025-08-17T08:57:01.569Z</time>
      </trkpt>
      <trkpt lat="44.25745" lon="0.83914">
        <ele>131</ele>
        <time>2025-08-17T08:57:02.569Z</time>
      </trkpt>
      <trkpt lat="44.25745" lon="0.83914">
        <ele>131</ele>
        <time>2025-08-17T08:57:03.569Z</time>
      </trkpt>
      <trkpt lat="44.25745" lon="0.83914">
        <ele>131</ele>
        <time>2025-08-17T08:57:04.569Z</time>
      </trkpt>
      <trkpt lat="44.25744" lon="0.83914">
        <ele>131</ele>
        <time>2025-08-17T08:57:05.569Z</time>
      </trkpt>
      <trkpt lat="44.25744" lon="0.83914">
        <ele>131</ele>
        <time>2025-08-17T08:57:06.569Z</time>
      </trkpt>
      <trkpt lat="44.25744" lon="0.83914">
        <ele>130</ele>
        <time>2025-08-17T08:57:07.569Z</time>
      </trkpt>
      <trkpt lat="44.25743" lon="0.83914">
        <ele>130</ele>
        <time>2025-08-17T08:57:08.569Z</time>
      </trkpt>
      <trkpt lat="44.25743" lon="0.83914">
        <ele>130</ele>
        <time>2025-08-17T08:57:09.569Z</time>
      </trkpt>
      <trkpt lat="44.25743" lon="0.83914">
        <ele>130</ele>
        <time>2025-08-17T08:57:10.569Z</time>
      </trkpt>
      <trkpt lat="44.25743" lon="0.83914">
        <ele>130</ele>
        <time>2025-08-17T08:57:11.569Z</time>
      </trkpt>
      <trkpt lat="44.25742" lon="0.83914">
        <ele>130</ele>
        <time>2025-08-17T08:57:12.569Z</time>
      </trkpt>
      <trkpt lat="44.25742" lon="0.83914">
        <ele>130</ele>
        <time>2025-08-17T08:57:13.569Z</time>
      </trkpt>
      <trkpt lat="44.25742" lon="0.83914">
        <ele>129</ele>
        <time>2025-08-17T08:57:14.569Z</time>
      </trkpt>
      <trkpt lat="44.25742" lon="0.83914">
        <ele>129</ele>
        <time>2025-08-17T08:57:15.569Z</time>
      </trkpt>
      <trkpt lat="44.25741" lon="0.83914">
        <ele>129</ele>
        <time>2025-08-17T08:57:16.569Z</time>
      </trkpt>
      <trkpt lat="44.25741" lon="0.83914">
        <ele>129</ele>
        <time>2025-08-17T08:57:17.569Z</time>
      </trkpt>
      <trkpt lat="44.2574" lon="0.83914">
        <ele>129</ele>
        <time>2025-08-17T08:57:18.569Z</time>
      </trkpt>
      <trkpt lat="44.2574" lon="0.83914">
        <ele>129</ele>
        <time>2025-08-17T08:57:19.569Z</time>
      </trkpt>
      <trkpt lat="44.25739" lon="0.83914">
        <ele>129</ele>
        <time>2025-08-17T08:57:20.569Z</time>
      </trkpt>
      <trkpt lat="44.25739" lon="0.83913">
        <ele>129</ele>
        <time>2025-08-17T08:57:21.569Z</time>
      </trkpt>
      <trkpt lat="44.25739" lon="0.83913">
        <ele>129</ele>
        <time>2025-08-17T08:57:22.569Z</time>
      </trkpt>
      <trkpt lat="44.25738" lon="0.83913">
        <ele>129</ele>
        <time>2025-08-17T08:57:23.569Z</time>
      </trkpt>
      <trkpt lat="44.25738" lon="0.83913">
        <ele>129</ele>
        <time>2025-08-17T08:57:24.569Z</time>
      </trkpt>
      <trkpt lat="44.25737" lon="0.83913">
        <ele>129</ele>
        <time>2025-08-17T08:57:25.569Z</time>
      </trkpt>
      <trkpt lat="44.25736" lon="0.83913">
        <ele>129</ele>
        <time>2025-08-17T08:57:26.569Z</time>
      </trkpt>
      <trkpt lat="44.25736" lon="0.83912">
        <ele>129</ele>
        <time>2025-08-17T08:57:27.569Z</time>
      </trkpt>
      <trkpt lat="44.25735" lon="0.83912">
        <ele>128</ele>
        <time>2025-08-17T08:57:28.569Z</time>
      </trkpt>
      <trkpt lat="44.25734" lon="0.83912">
        <ele>128</ele>
        <time>2025-08-17T08:57:29.569Z</time>
      </trkpt>
      <trkpt lat="44.25733" lon="0.83911">
        <ele>128</ele>
        <time>2025-08-17T08:57:30.569Z</time>
      </trkpt>
      <trkpt lat="44.25732" lon="0.83911">
        <ele>128</ele>
        <time>2025-08-17T08:57:31.569Z</time>
      </trkpt>
      <trkpt lat="44.25731" lon="0.83911">
        <ele>128</ele>
        <time>2025-08-17T08:57:32.569Z</time>
      </trkpt>
      <trkpt lat="44.2573" lon="0.8391">
        <ele>128</ele>
        <time>2025-08-17T08:57:33.569Z</time>
      </trkpt>
      <trkpt lat="44.2573" lon="0.8391">
        <ele>128</ele>
        <time>2025-08-17T08:57:34.569Z</time>
      </trkpt>
      <trkpt lat="44.25729" lon="0.83909">
        <ele>128</ele>
        <time>2025-08-17T08:57:35.569Z</time>
      </trkpt>
      <trkpt lat="44.25728" lon="0.83908">
        <ele>128</ele>
        <time>2025-08-17T08:57:36.569Z</time>
      </trkpt>
      <trkpt lat="44.25727" lon="0.83908">
        <ele>128</ele>
        <time>2025-08-17T08:57:37.569Z</time>
      </trkpt>
      <trkpt lat="44.25726" lon="0.83907">
        <ele>129</ele>
        <time>2025-08-17T08:57:38.569Z</time>
      </trkpt>
      <trkpt lat="44.25725" lon="0.83906">
        <ele>129</ele>
        <time>2025-08-17T08:57:39.569Z</time>
      </trkpt>
      <trkpt lat="44.25724" lon="0.83906">
        <ele>129</ele>
        <time>2025-08-17T08:57:40.569Z</time>
      </trkpt>
      <trkpt lat="44.25723" lon="0.83906">
        <ele>129</ele>
        <time>2025-08-17T08:57:41.569Z</time>
      </trkpt>
      <trkpt lat="44.25723" lon="0.83905">
        <ele>129</ele>
        <time>2025-08-17T08:57:42.569Z</time>
      </trkpt>
      <trkpt lat="44.25722" lon="0.83905">
        <ele>130</ele>
        <time>2025-08-17T08:57:43.569Z</time>
      </trkpt>
      <trkpt lat="44.25721" lon="0.83904">
        <ele>130</ele>
        <time>2025-08-17T08:57:44.569Z</time>
      </trkpt>
      <trkpt lat="44.2572" lon="0.83903">
        <ele>130</ele>
        <time>2025-08-17T08:57:45.569Z</time>
      </trkpt>
      <trkpt lat="44.2572" lon="0.83902">
        <ele>130</ele>
        <time>2025-08-17T08:57:46.569Z</time>
      </trkpt>
      <trkpt lat="44.25719" lon="0.83901">
        <ele>130</ele>
        <time>2025-08-17T08:57:47.569Z</time>
      </trkpt>
      <trkpt lat="44.25718" lon="0.83901">
        <ele>131</ele>
        <time>2025-08-17T08:57:48.569Z</time>
      </trkpt>
      <trkpt lat="44.25717" lon="0.839">
        <ele>131</ele>
        <time>2025-08-17T08:57:49.569Z</time>
      </trkpt>
      <trkpt lat="44.25717" lon="0.839">
        <ele>131</ele>
        <time>2025-08-17T08:57:50.569Z</time>
      </trkpt>
      <trkpt lat="44.25716" lon="0.839">
        <ele>131</ele>
        <time>2025-08-17T08:57:51.569Z</time>
      </trkpt>
      <trkpt lat="44.25715" lon="0.839">
        <ele>131</ele>
        <time>2025-08-17T08:57:52.569Z</time>
      </trkpt>
      <trkpt lat="44.25715" lon="0.83898">
        <ele>131</ele>
        <time>2025-08-17T08:57:53.569Z</time>
      </trkpt>
      <trkpt lat="44.25713" lon="0.83896">
        <ele>131</ele>
        <time>2025-08-17T08:57:54.569Z</time>
      </trkpt>
      <trkpt lat="44.25712" lon="0.83895">
        <ele>131</ele>
        <time>2025-08-17T08:57:55.569Z</time>
      </trkpt>
      <trkpt lat="44.25711" lon="0.83894">
        <ele>131</ele>
        <time>2025-08-17T08:57:56.569Z</time>
      </trkpt>
      <trkpt lat="44.25711" lon="0.83894">
        <ele>131</ele>
        <time>2025-08-17T08:57:57.569Z</time>
      </trkpt>
      <trkpt lat="44.2571" lon="0.83893">
        <ele>131</ele>
        <time>2025-08-17T08:57:58.569Z</time>
      </trkpt>
      <trkpt lat="44.2571" lon="0.83892">
        <ele>131</ele>
        <time>2025-08-17T08:57:59.569Z</time>
      </trkpt>
      <trkpt lat="44.25709" lon="0.83892">
        <ele>132</ele>
        <time>2025-08-17T08:58:00.569Z</time>
      </trkpt>
      <trkpt lat="44.25708" lon="0.83891">
        <ele>132</ele>
        <time>2025-08-17T08:58:01.569Z</time>
      </trkpt>
      <trkpt lat="44.25707" lon="0.8389">
        <ele>132</ele>
        <time>2025-08-17T08:58:02.569Z</time>
      </trkpt>
      <trkpt lat="44.25707" lon="0.8389">
        <ele>132</ele>
        <time>2025-08-17T08:58:03.569Z</time>
      </trkpt>
      <trkpt lat="44.25706" lon="0.83889">
        <ele>132</ele>
        <time>2025-08-17T08:58:04.569Z</time>
      </trkpt>
      <trkpt lat="44.25705" lon="0.83888">
        <ele>132</ele>
        <time>2025-08-17T08:58:05.569Z</time>
      </trkpt>
      <trkpt lat="44.25705" lon="0.83887">
        <ele>133</ele>
        <time>2025-08-17T08:58:06.569Z</time>
      </trkpt>
      <trkpt lat="44.25704" lon="0.83887">
        <ele>133</ele>
        <time>2025-08-17T08:58:07.569Z</time>
      </trkpt>
      <trkpt lat="44.25703" lon="0.83887">
        <ele>133</ele>
        <time>2025-08-17T08:58:08.569Z</time>
      </trkpt>
      <trkpt lat="44.25702" lon="0.83886">
        <ele>133</ele>
        <time>2025-08-17T08:58:09.569Z</time>
      </trkpt>
      <trkpt lat="44.25702" lon="0.83886">
        <ele>133</ele>
        <time>2025-08-17T08:58:10.569Z</time>
      </trkpt>
      <trkpt lat="44.25701" lon="0.83885">
        <ele>134</ele>
        <time>2025-08-17T08:58:11.569Z</time>
      </trkpt>
      <trkpt lat="44.25701" lon="0.83884">
        <ele>134</ele>
        <time>2025-08-17T08:58:12.569Z</time>
      </trkpt>
      <trkpt lat="44.257" lon="0.83883">
        <ele>134</ele>
        <time>2025-08-17T08:58:13.569Z</time>
      </trkpt>
      <trkpt lat="44.25699" lon="0.83883">
        <ele>135</ele>
        <time>2025-08-17T08:58:14.569Z</time>
      </trkpt>
      <trkpt lat="44.25698" lon="0.83882">
        <ele>135</ele>
        <time>2025-08-17T08:58:15.569Z</time>
      </trkpt>
      <trkpt lat="44.25696" lon="0.83882">
        <ele>134</ele>
        <time>2025-08-17T08:58:16.569Z</time>
      </trkpt>
      <trkpt lat="44.25696" lon="0.83882">
        <ele>135</ele>
        <time>2025-08-17T08:58:17.569Z</time>
      </trkpt>
      <trkpt lat="44.25695" lon="0.83882">
        <ele>135</ele>
        <time>2025-08-17T08:58:18.569Z</time>
      </trkpt>
      <trkpt lat="44.25694" lon="0.83883">
        <ele>135</ele>
        <time>2025-08-17T08:58:19.569Z</time>
      </trkpt>
      <trkpt lat="44.25693" lon="0.83883">
        <ele>135</ele>
        <time>2025-08-17T08:58:20.569Z</time>
      </trkpt>
      <trkpt lat="44.25692" lon="0.83884">
        <ele>135</ele>
        <time>2025-08-17T08:58:21.569Z</time>
      </trkpt>
      <trkpt lat="44.25691" lon="0.83884">
        <ele>135</ele>
        <time>2025-08-17T08:58:22.569Z</time>
      </trkpt>
      <trkpt lat="44.2569" lon="0.83884">
        <ele>135</ele>
        <time>2025-08-17T08:58:23.569Z</time>
      </trkpt>
      <trkpt lat="44.25689" lon="0.83884">
        <ele>135</ele>
        <time>2025-08-17T08:58:24.569Z</time>
      </trkpt>
      <trkpt lat="44.25688" lon="0.83884">
        <ele>135</ele>
        <time>2025-08-17T08:58:25.569Z</time>
      </trkpt>
      <trkpt lat="44.25688" lon="0.83884">
        <ele>135</ele>
        <time>2025-08-17T08:58:26.569Z</time>
      </trkpt>
      <trkpt lat="44.25687" lon="0.83883">
        <ele>135</ele>
        <time>2025-08-17T08:58:27.569Z</time>
      </trkpt>
      <trkpt lat="44.25686" lon="0.83883">
        <ele>135</ele>
        <time>2025-08-17T08:58:28.569Z</time>
      </trkpt>
      <trkpt lat="44.25685" lon="0.83883">
        <ele>134</ele>
        <time>2025-08-17T08:58:29.569Z</time>
      </trkpt>
      <trkpt lat="44.25684" lon="0.83883">
        <ele>134</ele>
        <time>2025-08-17T08:58:30.569Z</time>
      </trkpt>
      <trkpt lat="44.25683" lon="0.83883">
        <ele>134</ele>
        <time>2025-08-17T08:58:31.569Z</time>
      </trkpt>
      <trkpt lat="44.25682" lon="0.83882">
        <ele>134</ele>
        <time>2025-08-17T08:58:32.569Z</time>
      </trkpt>
      <trkpt lat="44.25681" lon="0.83882">
        <ele>134</ele>
        <time>2025-08-17T08:58:33.569Z</time>
      </trkpt>
      <trkpt lat="44.2568" lon="0.83882">
        <ele>133</ele>
        <time>2025-08-17T08:58:34.569Z</time>
      </trkpt>
      <trkpt lat="44.25679" lon="0.83882">
        <ele>133</ele>
        <time>2025-08-17T08:58:35.569Z</time>
      </trkpt>
      <trkpt lat="44.25678" lon="0.83882">
        <ele>133</ele>
        <time>2025-08-17T08:58:36.569Z</time>
      </trkpt>
      <trkpt lat="44.25677" lon="0.83882">
        <ele>133</ele>
        <time>2025-08-17T08:58:37.569Z</time>
      </trkpt>
      <trkpt lat="44.25676" lon="0.83881">
        <ele>133</ele>
        <time>2025-08-17T08:58:38.569Z</time>
      </trkpt>
      <trkpt lat="44.25675" lon="0.83881">
        <ele>133</ele>
        <time>2025-08-17T08:58:39.569Z</time>
      </trkpt>
      <trkpt lat="44.25674" lon="0.83881">
        <ele>132</ele>
        <time>2025-08-17T08:58:40.569Z</time>
      </trkpt>
      <trkpt lat="44.25673" lon="0.83881">
        <ele>132</ele>
        <time>2025-08-17T08:58:41.569Z</time>
      </trkpt>
      <trkpt lat="44.25672" lon="0.8388">
        <ele>132</ele>
        <time>2025-08-17T08:58:42.569Z</time>
      </trkpt>
      <trkpt lat="44.25671" lon="0.8388">
        <ele>131</ele>
        <time>2025-08-17T08:58:43.569Z</time>
      </trkpt>
      <trkpt lat="44.25671" lon="0.8388">
        <ele>131</ele>
        <time>2025-08-17T08:58:44.569Z</time>
      </trkpt>
      <trkpt lat="44.2567" lon="0.8388">
        <ele>131</ele>
        <time>2025-08-17T08:58:45.569Z</time>
      </trkpt>
      <trkpt lat="44.25669" lon="0.8388">
        <ele>131</ele>
        <time>2025-08-17T08:58:46.569Z</time>
      </trkpt>
      <trkpt lat="44.25668" lon="0.8388">
        <ele>131</ele>
        <time>2025-08-17T08:58:47.569Z</time>
      </trkpt>
      <trkpt lat="44.25667" lon="0.8388">
        <ele>131</ele>
        <time>2025-08-17T08:58:48.569Z</time>
      </trkpt>
      <trkpt lat="44.25666" lon="0.8388">
        <ele>131</ele>
        <time>2025-08-17T08:58:49.569Z</time>
      </trkpt>
      <trkpt lat="44.25665" lon="0.8388">
        <ele>131</ele>
        <time>2025-08-17T08:58:50.569Z</time>
      </trkpt>
      <trkpt lat="44.25664" lon="0.8388">
        <ele>131</ele>
        <time>2025-08-17T08:58:51.569Z</time>
      </trkpt>
      <trkpt lat="44.25663" lon="0.8388">
        <ele>131</ele>
        <time>2025-08-17T08:58:52.569Z</time>
      </trkpt>
      <trkpt lat="44.25662" lon="0.8388">
        <ele>131</ele>
        <time>2025-08-17T08:58:53.569Z</time>
      </trkpt>
      <trkpt lat="44.25661" lon="0.8388">
        <ele>131</ele>
        <time>2025-08-17T08:58:54.569Z</time>
      </trkpt>
      <trkpt lat="44.2566" lon="0.8388">
        <ele>131</ele>
        <time>2025-08-17T08:58:55.569Z</time>
      </trkpt>
      <trkpt lat="44.2566" lon="0.83881">
        <ele>132</ele>
        <time>2025-08-17T08:58:56.569Z</time>
      </trkpt>
      <trkpt lat="44.25659" lon="0.83881">
        <ele>132</ele>
        <time>2025-08-17T08:58:57.569Z</time>
      </trkpt>
      <trkpt lat="44.25659" lon="0.83881">
        <ele>132</ele>
        <time>2025-08-17T08:58:58.569Z</time>
      </trkpt>
      <trkpt lat="44.25658" lon="0.83881">
        <ele>132</ele>
        <time>2025-08-17T08:58:59.569Z</time>
      </trkpt>
      <trkpt lat="44.25657" lon="0.83881">
        <ele>133</ele>
        <time>2025-08-17T08:59:00.569Z</time>
      </trkpt>
      <trkpt lat="44.25657" lon="0.83881">
        <ele>133</ele>
        <time>2025-08-17T08:59:01.569Z</time>
      </trkpt>
      <trkpt lat="44.25656" lon="0.83882">
        <ele>133</ele>
        <time>2025-08-17T08:59:02.569Z</time>
      </trkpt>
      <trkpt lat="44.25656" lon="0.83882">
        <ele>134</ele>
        <time>2025-08-17T08:59:03.569Z</time>
      </trkpt>
      <trkpt lat="44.25655" lon="0.83882">
        <ele>134</ele>
        <time>2025-08-17T08:59:04.569Z</time>
      </trkpt>
      <trkpt lat="44.25655" lon="0.83882">
        <ele>135</ele>
        <time>2025-08-17T08:59:05.569Z</time>
      </trkpt>
      <trkpt lat="44.25654" lon="0.83882">
        <ele>135</ele>
        <time>2025-08-17T08:59:06.569Z</time>
      </trkpt>
      <trkpt lat="44.25653" lon="0.83881">
        <ele>136</ele>
        <time>2025-08-17T08:59:07.569Z</time>
      </trkpt>
      <trkpt lat="44.25652" lon="0.83881">
        <ele>136</ele>
        <time>2025-08-17T08:59:08.569Z</time>
      </trkpt>
      <trkpt lat="44.25652" lon="0.83881">
        <ele>136</ele>
        <time>2025-08-17T08:59:09.569Z</time>
      </trkpt>
      <trkpt lat="44.25651" lon="0.83881">
        <ele>137</ele>
        <time>2025-08-17T08:59:10.569Z</time>
      </trkpt>
      <trkpt lat="44.25651" lon="0.8388">
        <ele>137</ele>
        <time>2025-08-17T08:59:11.569Z</time>
      </trkpt>
      <trkpt lat="44.25649" lon="0.8388">
        <ele>137</ele>
        <time>2025-08-17T08:59:12.569Z</time>
      </trkpt>
      <trkpt lat="44.25648" lon="0.8388">
        <ele>137</ele>
        <time>2025-08-17T08:59:13.569Z</time>
      </trkpt>
      <trkpt lat="44.25647" lon="0.8388">
        <ele>137</ele>
        <time>2025-08-17T08:59:14.569Z</time>
      </trkpt>
      <trkpt lat="44.25646" lon="0.83881">
        <ele>137</ele>
        <time>2025-08-17T08:59:15.569Z</time>
      </trkpt>
      <trkpt lat="44.25645" lon="0.83881">
        <ele>137</ele>
        <time>2025-08-17T08:59:16.569Z</time>
      </trkpt>
      <trkpt lat="44.25645" lon="0.83881">
        <ele>137</ele>
        <time>2025-08-17T08:59:17.569Z</time>
      </trkpt>
      <trkpt lat="44.25644" lon="0.83882">
        <ele>137</ele>
        <time>2025-08-17T08:59:18.569Z</time>
      </trkpt>
      <trkpt lat="44.25643" lon="0.83882">
        <ele>137</ele>
        <time>2025-08-17T08:59:19.569Z</time>
      </trkpt>
      <trkpt lat="44.25643" lon="0.83883">
        <ele>137</ele>
        <time>2025-08-17T08:59:20.569Z</time>
      </trkpt>
      <trkpt lat="44.25642" lon="0.83883">
        <ele>138</ele>
        <time>2025-08-17T08:59:21.569Z</time>
      </trkpt>
      <trkpt lat="44.25641" lon="0.83883">
        <ele>138</ele>
        <time>2025-08-17T08:59:22.569Z</time>
      </trkpt>
      <trkpt lat="44.2564" lon="0.83883">
        <ele>138</ele>
        <time>2025-08-17T08:59:23.569Z</time>
      </trkpt>
      <trkpt lat="44.2564" lon="0.83883">
        <ele>138</ele>
        <time>2025-08-17T08:59:24.569Z</time>
      </trkpt>
      <trkpt lat="44.25639" lon="0.83883">
        <ele>139</ele>
        <time>2025-08-17T08:59:25.569Z</time>
      </trkpt>
      <trkpt lat="44.25638" lon="0.83883">
        <ele>139</ele>
        <time>2025-08-17T08:59:26.569Z</time>
      </trkpt>
      <trkpt lat="44.25638" lon="0.83883">
        <ele>139</ele>
        <time>2025-08-17T08:59:27.569Z</time>
      </trkpt>
      <trkpt lat="44.25637" lon="0.83883">
        <ele>140</ele>
        <time>2025-08-17T08:59:28.569Z</time>
      </trkpt>
      <trkpt lat="44.25636" lon="0.83883">
        <ele>140</ele>
        <time>2025-08-17T08:59:29.569Z</time>
      </trkpt>
      <trkpt lat="44.25635" lon="0.83883">
        <ele>140</ele>
        <time>2025-08-17T08:59:30.569Z</time>
      </trkpt>
      <trkpt lat="44.25635" lon="0.83883">
        <ele>140</ele>
        <time>2025-08-17T08:59:31.569Z</time>
      </trkpt>
      <trkpt lat="44.25634" lon="0.83883">
        <ele>141</ele>
        <time>2025-08-17T08:59:32.569Z</time>
      </trkpt>
      <trkpt lat="44.25633" lon="0.83883">
        <ele>141</ele>
        <time>2025-08-17T08:59:33.569Z</time>
      </trkpt>
      <trkpt lat="44.25632" lon="0.83883">
        <ele>141</ele>
        <time>2025-08-17T08:59:34.570Z</time>
      </trkpt>
      <trkpt lat="44.25631" lon="0.83883">
        <ele>141</ele>
        <time>2025-08-17T08:59:35.569Z</time>
      </trkpt>
      <trkpt lat="44.25631" lon="0.83883">
        <ele>141</ele>
        <time>2025-08-17T08:59:36.569Z</time>
      </trkpt>
      <trkpt lat="44.2563" lon="0.83884">
        <ele>142</ele>
        <time>2025-08-17T08:59:37.569Z</time>
      </trkpt>
      <trkpt lat="44.2563" lon="0.83884">
        <ele>142</ele>
        <time>2025-08-17T08:59:38.569Z</time>
      </trkpt>
      <trkpt lat="44.25629" lon="0.83884">
        <ele>143</ele>
        <time>2025-08-17T08:59:39.569Z</time>
      </trkpt>
      <trkpt lat="44.25629" lon="0.83885">
        <ele>143</ele>
        <time>2025-08-17T08:59:40.569Z</time>
      </trkpt>
      <trkpt lat="44.25628" lon="0.83885">
        <ele>144</ele>
        <time>2025-08-17T08:59:41.569Z</time>
      </trkpt>
      <trkpt lat="44.25627" lon="0.83885">
        <ele>144</ele>
        <time>2025-08-17T08:59:42.569Z</time>
      </trkpt>
      <trkpt lat="44.25627" lon="0.83885">
        <ele>144</ele>
        <time>2025-08-17T08:59:43.569Z</time>
      </trkpt>
      <trkpt lat="44.25626" lon="0.83886">
        <ele>144</ele>
        <time>2025-08-17T08:59:44.569Z</time>
      </trkpt>
      <trkpt lat="44.25625" lon="0.83886">
        <ele>144</ele>
        <time>2025-08-17T08:59:45.569Z</time>
      </trkpt>
      <trkpt lat="44.25624" lon="0.83886">
        <ele>144</ele>
        <time>2025-08-17T08:59:46.569Z</time>
      </trkpt>
      <trkpt lat="44.25624" lon="0.83887">
        <ele>145</ele>
        <time>2025-08-17T08:59:47.569Z</time>
      </trkpt>
      <trkpt lat="44.25623" lon="0.83887">
        <ele>145</ele>
        <time>2025-08-17T08:59:48.569Z</time>
      </trkpt>
      <trkpt lat="44.25622" lon="0.83888">
        <ele>145</ele>
        <time>2025-08-17T08:59:49.569Z</time>
      </trkpt>
      <trkpt lat="44.25622" lon="0.83888">
        <ele>146</ele>
        <time>2025-08-17T08:59:50.569Z</time>
      </trkpt>
      <trkpt lat="44.25621" lon="0.83888">
        <ele>146</ele>
        <time>2025-08-17T08:59:51.569Z</time>
      </trkpt>
      <trkpt lat="44.2562" lon="0.83889">
        <ele>146</ele>
        <time>2025-08-17T08:59:52.569Z</time>
      </trkpt>
      <trkpt lat="44.25619" lon="0.8389">
        <ele>147</ele>
        <time>2025-08-17T08:59:53.569Z</time>
      </trkpt>
      <trkpt lat="44.25618" lon="0.8389">
        <ele>147</ele>
        <time>2025-08-17T08:59:54.569Z</time>
      </trkpt>
      <trkpt lat="44.25618" lon="0.83889">
        <ele>147</ele>
        <time>2025-08-17T08:59:55.569Z</time>
      </trkpt>
      <trkpt lat="44.25617" lon="0.8389">
        <ele>147</ele>
        <time>2025-08-17T08:59:56.569Z</time>
      </trkpt>
      <trkpt lat="44.25616" lon="0.8389">
        <ele>147</ele>
        <time>2025-08-17T08:59:57.569Z</time>
      </trkpt>
      <trkpt lat="44.25615" lon="0.8389">
        <ele>147</ele>
        <time>2025-08-17T08:59:58.569Z</time>
      </trkpt>
      <trkpt lat="44.25615" lon="0.83891">
        <ele>148</ele>
        <time>2025-08-17T08:59:59.569Z</time>
      </trkpt>
      <trkpt lat="44.25614" lon="0.83891">
        <ele>148</ele>
        <time>2025-08-17T09:00:00.569Z</time>
      </trkpt>
      <trkpt lat="44.25614" lon="0.83891">
        <ele>148</ele>
        <time>2025-08-17T09:00:01.569Z</time>
      </trkpt>
      <trkpt lat="44.25613" lon="0.83891">
        <ele>148</ele>
        <time>2025-08-17T09:00:02.569Z</time>
      </trkpt>
      <trkpt lat="44.25612" lon="0.83891">
        <ele>149</ele>
        <time>2025-08-17T09:00:03.569Z</time>
      </trkpt>
      <trkpt lat="44.25611" lon="0.83891">
        <ele>149</ele>
        <time>2025-08-17T09:00:04.569Z</time>
      </trkpt>
      <trkpt lat="44.25611" lon="0.83891">
        <ele>149</ele>
        <time>2025-08-17T09:00:05.569Z</time>
      </trkpt>
      <trkpt lat="44.2561" lon="0.83891">
        <ele>149</ele>
        <time>2025-08-17T09:00:06.569Z</time>
      </trkpt>
      <trkpt lat="44.2561" lon="0.83891">
        <ele>149</ele>
        <time>2025-08-17T09:00:07.569Z</time>
      </trkpt>
      <trkpt lat="44.25609" lon="0.83892">
        <ele>149</ele>
        <time>2025-08-17T09:00:08.569Z</time>
      </trkpt>
      <trkpt lat="44.25608" lon="0.83892">
        <ele>149</ele>
        <time>2025-08-17T09:00:09.569Z</time>
      </trkpt>
      <trkpt lat="44.25607" lon="0.83892">
        <ele>149</ele>
        <time>2025-08-17T09:00:10.569Z</time>
      </trkpt>
      <trkpt lat="44.25607" lon="0.83892">
        <ele>149</ele>
        <time>2025-08-17T09:00:11.569Z</time>
      </trkpt>
      <trkpt lat="44.25606" lon="0.83893">
        <ele>149</ele>
        <time>2025-08-17T09:00:12.569Z</time>
      </trkpt>
      <trkpt lat="44.25606" lon="0.83893">
        <ele>149</ele>
        <time>2025-08-17T09:00:13.569Z</time>
      </trkpt>
      <trkpt lat="44.25605" lon="0.83893">
        <ele>149</ele>
        <time>2025-08-17T09:00:14.569Z</time>
      </trkpt>
      <trkpt lat="44.25604" lon="0.83894">
        <ele>149</ele>
        <time>2025-08-17T09:00:15.569Z</time>
      </trkpt>
      <trkpt lat="44.25604" lon="0.83894">
        <ele>149</ele>
        <time>2025-08-17T09:00:16.569Z</time>
      </trkpt>
      <trkpt lat="44.25603" lon="0.83894">
        <ele>149</ele>
        <time>2025-08-17T09:00:17.569Z</time>
      </trkpt>
      <trkpt lat="44.25602" lon="0.83894">
        <ele>149</ele>
        <time>2025-08-17T09:00:18.569Z</time>
      </trkpt>
      <trkpt lat="44.25601" lon="0.83895">
        <ele>149</ele>
        <time>2025-08-17T09:00:19.569Z</time>
      </trkpt>
      <trkpt lat="44.25601" lon="0.83895">
        <ele>149</ele>
        <time>2025-08-17T09:00:20.569Z</time>
      </trkpt>
      <trkpt lat="44.256" lon="0.83895">
        <ele>149</ele>
        <time>2025-08-17T09:00:21.569Z</time>
      </trkpt>
      <trkpt lat="44.25599" lon="0.83896">
        <ele>149</ele>
        <time>2025-08-17T09:00:22.569Z</time>
      </trkpt>
      <trkpt lat="44.25599" lon="0.83896">
        <ele>149</ele>
        <time>2025-08-17T09:00:23.569Z</time>
      </trkpt>
      <trkpt lat="44.25598" lon="0.83896">
        <ele>149</ele>
        <time>2025-08-17T09:00:24.569Z</time>
      </trkpt>
      <trkpt lat="44.25597" lon="0.83896">
        <ele>150</ele>
        <time>2025-08-17T09:00:25.569Z</time>
      </trkpt>
      <trkpt lat="44.25597" lon="0.83896">
        <ele>150</ele>
        <time>2025-08-17T09:00:26.569Z</time>
      </trkpt>
      <trkpt lat="44.25596" lon="0.83896">
        <ele>150</ele>
        <time>2025-08-17T09:00:27.569Z</time>
      </trkpt>
      <trkpt lat="44.25595" lon="0.83896">
        <ele>150</ele>
        <time>2025-08-17T09:00:28.569Z</time>
      </trkpt>
      <trkpt lat="44.25594" lon="0.83897">
        <ele>150</ele>
        <time>2025-08-17T09:00:29.569Z</time>
      </trkpt>
      <trkpt lat="44.25594" lon="0.83897">
        <ele>150</ele>
        <time>2025-08-17T09:00:30.569Z</time>
      </trkpt>
      <trkpt lat="44.25593" lon="0.83896">
        <ele>151</ele>
        <time>2025-08-17T09:00:31.569Z</time>
      </trkpt>
      <trkpt lat="44.25592" lon="0.83896">
        <ele>151</ele>
        <time>2025-08-17T09:00:32.569Z</time>
      </trkpt>
      <trkpt lat="44.25591" lon="0.83896">
        <ele>151</ele>
        <time>2025-08-17T09:00:33.569Z</time>
      </trkpt>
      <trkpt lat="44.25591" lon="0.83896">
        <ele>151</ele>
        <time>2025-08-17T09:00:34.569Z</time>
      </trkpt>
      <trkpt lat="44.2559" lon="0.83896">
        <ele>151</ele>
        <time>2025-08-17T09:00:35.569Z</time>
      </trkpt>
      <trkpt lat="44.25589" lon="0.83897">
        <ele>152</ele>
        <time>2025-08-17T09:00:36.569Z</time>
      </trkpt>
      <trkpt lat="44.25589" lon="0.83898">
        <ele>152</ele>
        <time>2025-08-17T09:00:37.569Z</time>
      </trkpt>
      <trkpt lat="44.25587" lon="0.83898">
        <ele>153</ele>
        <time>2025-08-17T09:00:38.569Z</time>
      </trkpt>
      <trkpt lat="44.25586" lon="0.83898">
        <ele>153</ele>
        <time>2025-08-17T09:00:39.569Z</time>
      </trkpt>
      <trkpt lat="44.25586" lon="0.83899">
        <ele>154</ele>
        <time>2025-08-17T09:00:40.569Z</time>
      </trkpt>
      <trkpt lat="44.25585" lon="0.839">
        <ele>155</ele>
        <time>2025-08-17T09:00:41.569Z</time>
      </trkpt>
      <trkpt lat="44.25585" lon="0.839">
        <ele>156</ele>
        <time>2025-08-17T09:00:42.569Z</time>
      </trkpt>
      <trkpt lat="44.25584" lon="0.83901">
        <ele>157</ele>
        <time>2025-08-17T09:00:43.569Z</time>
      </trkpt>
      <trkpt lat="44.25584" lon="0.83902">
        <ele>158</ele>
        <time>2025-08-17T09:00:44.569Z</time>
      </trkpt>
      <trkpt lat="44.25583" lon="0.83902">
        <ele>158</ele>
        <time>2025-08-17T09:00:45.569Z</time>
      </trkpt>
      <trkpt lat="44.25583" lon="0.83903">
        <ele>159</ele>
        <time>2025-08-17T09:00:46.569Z</time>
      </trkpt>
      <trkpt lat="44.25583" lon="0.83904">
        <ele>160</ele>
        <time>2025-08-17T09:00:47.569Z</time>
      </trkpt>
      <trkpt lat="44.25582" lon="0.83904">
        <ele>161</ele>
        <time>2025-08-17T09:00:48.569Z</time>
      </trkpt>
      <trkpt lat="44.25581" lon="0.83906">
        <ele>162</ele>
        <time>2025-08-17T09:00:49.569Z</time>
      </trkpt>
      <trkpt lat="44.25581" lon="0.83906">
        <ele>163</ele>
        <time>2025-08-17T09:00:50.569Z</time>
      </trkpt>
      <trkpt lat="44.2558" lon="0.83907">
        <ele>164</ele>
        <time>2025-08-17T09:00:51.569Z</time>
      </trkpt>
      <trkpt lat="44.25579" lon="0.83907">
        <ele>164</ele>
        <time>2025-08-17T09:00:52.569Z</time>
      </trkpt>
      <trkpt lat="44.25579" lon="0.83907">
        <ele>165</ele>
        <time>2025-08-17T09:00:53.569Z</time>
      </trkpt>
      <trkpt lat="44.25578" lon="0.83908">
        <ele>166</ele>
        <time>2025-08-17T09:00:54.569Z</time>
      </trkpt>
      <trkpt lat="44.25578" lon="0.83908">
        <ele>166</ele>
        <time>2025-08-17T09:00:55.569Z</time>
      </trkpt>
      <trkpt lat="44.25577" lon="0.83908">
        <ele>167</ele>
        <time>2025-08-17T09:00:56.569Z</time>
      </trkpt>
      <trkpt lat="44.25577" lon="0.83909">
        <ele>168</ele>
        <time>2025-08-17T09:00:57.569Z</time>
      </trkpt>
      <trkpt lat="44.25577" lon="0.8391">
        <ele>169</ele>
        <time>2025-08-17T09:00:58.569Z</time>
      </trkpt>
      <trkpt lat="44.25577" lon="0.8391">
        <ele>169</ele>
        <time>2025-08-17T09:00:59.569Z</time>
      </trkpt>
      <trkpt lat="44.25577" lon="0.83912">
        <ele>170</ele>
        <time>2025-08-17T09:01:00.569Z</time>
      </trkpt>
      <trkpt lat="44.25576" lon="0.83913">
        <ele>171</ele>
        <time>2025-08-17T09:01:01.569Z</time>
      </trkpt>
      <trkpt lat="44.25576" lon="0.83913">
        <ele>171</ele>
        <time>2025-08-17T09:01:02.569Z</time>
      </trkpt>
      <trkpt lat="44.25575" lon="0.83914">
        <ele>172</ele>
        <time>2025-08-17T09:01:03.569Z</time>
      </trkpt>
      <trkpt lat="44.25574" lon="0.83914">
        <ele>172</ele>
        <time>2025-08-17T09:01:04.569Z</time>
      </trkpt>
      <trkpt lat="44.25573" lon="0.83914">
        <ele>172</ele>
        <time>2025-08-17T09:01:05.569Z</time>
      </trkpt>
      <trkpt lat="44.25573" lon="0.83915">
        <ele>172</ele>
        <time>2025-08-17T09:01:06.569Z</time>
      </trkpt>
      <trkpt lat="44.25573" lon="0.83915">
        <ele>173</ele>
        <time>2025-08-17T09:01:07.569Z</time>
      </trkpt>
      <trkpt lat="44.25572" lon="0.83914">
        <ele>173</ele>
        <time>2025-08-17T09:01:08.569Z</time>
      </trkpt>
      <trkpt lat="44.25571" lon="0.83914">
        <ele>173</ele>
        <time>2025-08-17T09:01:09.569Z</time>
      </trkpt>
      <trkpt lat="44.25571" lon="0.83913">
        <ele>173</ele>
        <time>2025-08-17T09:01:10.569Z</time>
      </trkpt>
      <trkpt lat="44.25569" lon="0.83912">
        <ele>173</ele>
        <time>2025-08-17T09:01:11.569Z</time>
      </trkpt>
      <trkpt lat="44.25569" lon="0.8391">
        <ele>172</ele>
        <time>2025-08-17T09:01:12.569Z</time>
      </trkpt>
      <trkpt lat="44.25568" lon="0.8391">
        <ele>172</ele>
        <time>2025-08-17T09:01:13.569Z</time>
      </trkpt>
      <trkpt lat="44.25568" lon="0.8391">
        <ele>172</ele>
        <time>2025-08-17T09:01:14.569Z</time>
      </trkpt>
      <trkpt lat="44.25567" lon="0.8391">
        <ele>172</ele>
        <time>2025-08-17T09:01:15.569Z</time>
      </trkpt>
      <trkpt lat="44.25567" lon="0.8391">
        <ele>171</ele>
        <time>2025-08-17T09:01:16.569Z</time>
      </trkpt>
      <trkpt lat="44.25566" lon="0.8391">
        <ele>171</ele>
        <time>2025-08-17T09:01:17.569Z</time>
      </trkpt>
      <trkpt lat="44.25565" lon="0.83909">
        <ele>171</ele>
        <time>2025-08-17T09:01:18.569Z</time>
      </trkpt>
      <trkpt lat="44.25564" lon="0.83909">
        <ele>170</ele>
        <time>2025-08-17T09:01:19.569Z</time>
      </trkpt>
      <trkpt lat="44.25563" lon="0.83908">
        <ele>170</ele>
        <time>2025-08-17T09:01:20.569Z</time>
      </trkpt>
      <trkpt lat="44.25562" lon="0.83908">
        <ele>170</ele>
        <time>2025-08-17T09:01:21.569Z</time>
      </trkpt>
      <trkpt lat="44.25561" lon="0.83907">
        <ele>169</ele>
        <time>2025-08-17T09:01:22.569Z</time>
      </trkpt>
      <trkpt lat="44.25561" lon="0.83907">
        <ele>169</ele>
        <time>2025-08-17T09:01:23.569Z</time>
      </trkpt>
      <trkpt lat="44.2556" lon="0.83907">
        <ele>169</ele>
        <time>2025-08-17T09:01:24.569Z</time>
      </trkpt>
      <trkpt lat="44.2556" lon="0.83907">
        <ele>169</ele>
        <time>2025-08-17T09:01:25.569Z</time>
      </trkpt>
      <trkpt lat="44.25559" lon="0.83907">
        <ele>169</ele>
        <time>2025-08-17T09:01:26.569Z</time>
      </trkpt>
      <trkpt lat="44.25559" lon="0.83908">
        <ele>170</ele>
        <time>2025-08-17T09:01:27.569Z</time>
      </trkpt>
      <trkpt lat="44.25559" lon="0.83908">
        <ele>170</ele>
        <time>2025-08-17T09:01:28.569Z</time>
      </trkpt>
      <trkpt lat="44.25558" lon="0.83907">
        <ele>170</ele>
        <time>2025-08-17T09:01:29.569Z</time>
      </trkpt>
      <trkpt lat="44.25558" lon="0.83907">
        <ele>170</ele>
        <time>2025-08-17T09:01:30.569Z</time>
      </trkpt>
      <trkpt lat="44.25557" lon="0.83907">
        <ele>170</ele>
        <time>2025-08-17T09:01:31.569Z</time>
      </trkpt>
      <trkpt lat="44.25558" lon="0.83908">
        <ele>170</ele>
        <time>2025-08-17T09:01:32.569Z</time>
      </trkpt>
      <trkpt lat="44.25557" lon="0.83908">
        <ele>170</ele>
        <time>2025-08-17T09:01:33.569Z</time>
      </trkpt>
      <trkpt lat="44.25556" lon="0.83909">
        <ele>170</ele>
        <time>2025-08-17T09:01:34.569Z</time>
      </trkpt>
      <trkpt lat="44.25555" lon="0.83909">
        <ele>170</ele>
        <time>2025-08-17T09:01:35.569Z</time>
      </trkpt>
      <trkpt lat="44.25555" lon="0.83909">
        <ele>169</ele>
        <time>2025-08-17T09:01:36.569Z</time>
      </trkpt>
      <trkpt lat="44.25555" lon="0.83909">
        <ele>169</ele>
        <time>2025-08-17T09:01:37.569Z</time>
      </trkpt>
      <trkpt lat="44.25555" lon="0.8391">
        <ele>169</ele>
        <time>2025-08-17T09:01:38.569Z</time>
      </trkpt>
      <trkpt lat="44.25555" lon="0.83911">
        <ele>169</ele>
        <time>2025-08-17T09:01:39.569Z</time>
      </trkpt>
      <trkpt lat="44.25555" lon="0.83911">
        <ele>169</ele>
        <time>2025-08-17T09:01:40.569Z</time>
      </trkpt>
      <trkpt lat="44.25554" lon="0.83911">
        <ele>169</ele>
        <time>2025-08-17T09:01:41.569Z</time>
      </trkpt>
      <trkpt lat="44.25553" lon="0.83911">
        <ele>169</ele>
        <time>2025-08-17T09:01:42.569Z</time>
      </trkpt>
      <trkpt lat="44.25553" lon="0.83912">
        <ele>169</ele>
        <time>2025-08-17T09:01:43.569Z</time>
      </trkpt>
      <trkpt lat="44.25552" lon="0.83912">
        <ele>169</ele>
        <time>2025-08-17T09:01:44.569Z</time>
      </trkpt>
      <trkpt lat="44.25551" lon="0.83913">
        <ele>169</ele>
        <time>2025-08-17T09:01:45.569Z</time>
      </trkpt>
      <trkpt lat="44.2555" lon="0.83913">
        <ele>169</ele>
        <time>2025-08-17T09:01:46.569Z</time>
      </trkpt>
      <trkpt lat="44.25549" lon="0.83913">
        <ele>169</ele>
        <time>2025-08-17T09:01:47.569Z</time>
      </trkpt>
      <trkpt lat="44.25548" lon="0.83913">
        <ele>169</ele>
        <time>2025-08-17T09:01:48.569Z</time>
      </trkpt>
      <trkpt lat="44.25547" lon="0.83912">
        <ele>169</ele>
        <time>2025-08-17T09:01:49.569Z</time>
      </trkpt>
      <trkpt lat="44.25545" lon="0.83912">
        <ele>169</ele>
        <time>2025-08-17T09:01:50.569Z</time>
      </trkpt>
      <trkpt lat="44.25544" lon="0.83912">
        <ele>169</ele>
        <time>2025-08-17T09:01:51.569Z</time>
      </trkpt>
      <trkpt lat="44.25543" lon="0.83911">
        <ele>169</ele>
        <time>2025-08-17T09:01:52.569Z</time>
      </trkpt>
      <trkpt lat="44.25543" lon="0.83911">
        <ele>169</ele>
        <time>2025-08-17T09:01:53.569Z</time>
      </trkpt>
      <trkpt lat="44.25543" lon="0.83911">
        <ele>169</ele>
        <time>2025-08-17T09:01:54.569Z</time>
      </trkpt>
      <trkpt lat="44.25542" lon="0.83911">
        <ele>169</ele>
        <time>2025-08-17T09:01:55.569Z</time>
      </trkpt>
      <trkpt lat="44.25541" lon="0.8391">
        <ele>169</ele>
        <time>2025-08-17T09:01:56.569Z</time>
      </trkpt>
      <trkpt lat="44.25541" lon="0.8391">
        <ele>169</ele>
        <time>2025-08-17T09:01:57.569Z</time>
      </trkpt>
      <trkpt lat="44.2554" lon="0.8391">
        <ele>169</ele>
        <time>2025-08-17T09:01:58.569Z</time>
      </trkpt>
      <trkpt lat="44.25539" lon="0.8391">
        <ele>169</ele>
        <time>2025-08-17T09:01:59.569Z</time>
      </trkpt>
      <trkpt lat="44.25537" lon="0.83909">
        <ele>169</ele>
        <time>2025-08-17T09:02:00.569Z</time>
      </trkpt>
      <trkpt lat="44.25536" lon="0.83909">
        <ele>170</ele>
        <time>2025-08-17T09:02:01.569Z</time>
      </trkpt>
      <trkpt lat="44.25535" lon="0.83909">
        <ele>170</ele>
        <time>2025-08-17T09:02:02.569Z</time>
      </trkpt>
      <trkpt lat="44.25535" lon="0.83909">
        <ele>170</ele>
        <time>2025-08-17T09:02:03.569Z</time>
      </trkpt>
      <trkpt lat="44.25534" lon="0.83909">
        <ele>170</ele>
        <time>2025-08-17T09:02:04.569Z</time>
      </trkpt>
      <trkpt lat="44.25534" lon="0.83909">
        <ele>170</ele>
        <time>2025-08-17T09:02:05.569Z</time>
      </trkpt>
      <trkpt lat="44.25534" lon="0.83909">
        <ele>170</ele>
        <time>2025-08-17T09:02:06.569Z</time>
      </trkpt>
      <trkpt lat="44.25534" lon="0.83909">
        <ele>170</ele>
        <time>2025-08-17T09:02:07.569Z</time>
      </trkpt>
      <trkpt lat="44.25533" lon="0.83909">
        <ele>170</ele>
        <time>2025-08-17T09:02:08.569Z</time>
      </trkpt>
      <trkpt lat="44.25532" lon="0.8391">
        <ele>170</ele>
        <time>2025-08-17T09:02:09.569Z</time>
      </trkpt>
      <trkpt lat="44.25531" lon="0.8391">
        <ele>170</ele>
        <time>2025-08-17T09:02:10.569Z</time>
      </trkpt>
      <trkpt lat="44.2553" lon="0.83911">
        <ele>170</ele>
        <time>2025-08-17T09:02:11.569Z</time>
      </trkpt>
      <trkpt lat="44.25529" lon="0.83911">
        <ele>170</ele>
        <time>2025-08-17T09:02:12.569Z</time>
      </trkpt>
      <trkpt lat="44.25529" lon="0.83911">
        <ele>170</ele>
        <time>2025-08-17T09:02:13.569Z</time>
      </trkpt>
      <trkpt lat="44.25529" lon="0.83911">
        <ele>170</ele>
        <time>2025-08-17T09:02:14.569Z</time>
      </trkpt>
      <trkpt lat="44.25528" lon="0.83911">
        <ele>170</ele>
        <time>2025-08-17T09:02:15.569Z</time>
      </trkpt>
      <trkpt lat="44.25528" lon="0.83912">
        <ele>170</ele>
        <time>2025-08-17T09:02:16.569Z</time>
      </trkpt>
      <trkpt lat="44.25528" lon="0.83912">
        <ele>170</ele>
        <time>2025-08-17T09:02:17.569Z</time>
      </trkpt>
      <trkpt lat="44.25528" lon="0.83913">
        <ele>170</ele>
        <time>2025-08-17T09:02:18.569Z</time>
      </trkpt>
      <trkpt lat="44.25527" lon="0.83912">
        <ele>170</ele>
        <time>2025-08-17T09:02:19.569Z</time>
      </trkpt>
      <trkpt lat="44.25526" lon="0.83913">
        <ele>171</ele>
        <time>2025-08-17T09:02:20.569Z</time>
      </trkpt>
      <trkpt lat="44.25526" lon="0.83914">
        <ele>171</ele>
        <time>2025-08-17T09:02:21.569Z</time>
      </trkpt>
      <trkpt lat="44.25525" lon="0.83914">
        <ele>171</ele>
        <time>2025-08-17T09:02:22.569Z</time>
      </trkpt>
      <trkpt lat="44.25524" lon="0.83914">
        <ele>171</ele>
        <time>2025-08-17T09:02:23.569Z</time>
      </trkpt>
      <trkpt lat="44.25523" lon="0.83914">
        <ele>171</ele>
        <time>2025-08-17T09:02:24.569Z</time>
      </trkpt>
      <trkpt lat="44.25522" lon="0.83914">
        <ele>171</ele>
        <time>2025-08-17T09:02:25.569Z</time>
      </trkpt>
      <trkpt lat="44.25521" lon="0.83913">
        <ele>171</ele>
        <time>2025-08-17T09:02:26.569Z</time>
      </trkpt>
      <trkpt lat="44.2552" lon="0.83913">
        <ele>171</ele>
        <time>2025-08-17T09:02:27.569Z</time>
      </trkpt>
      <trkpt lat="44.25518" lon="0.83912">
        <ele>171</ele>
        <time>2025-08-17T09:02:28.569Z</time>
      </trkpt>
      <trkpt lat="44.25518" lon="0.83913">
        <ele>171</ele>
        <time>2025-08-17T09:02:29.569Z</time>
      </trkpt>
      <trkpt lat="44.25517" lon="0.83913">
        <ele>171</ele>
        <time>2025-08-17T09:02:30.569Z</time>
      </trkpt>
      <trkpt lat="44.25516" lon="0.83913">
        <ele>170</ele>
        <time>2025-08-17T09:02:31.569Z</time>
      </trkpt>
      <trkpt lat="44.25515" lon="0.83913">
        <ele>170</ele>
        <time>2025-08-17T09:02:32.569Z</time>
      </trkpt>
      <trkpt lat="44.25515" lon="0.83914">
        <ele>170</ele>
        <time>2025-08-17T09:02:33.569Z</time>
      </trkpt>
      <trkpt lat="44.25515" lon="0.83914">
        <ele>170</ele>
        <time>2025-08-17T09:02:34.569Z</time>
      </trkpt>
      <trkpt lat="44.25515" lon="0.83915">
        <ele>170</ele>
        <time>2025-08-17T09:02:35.569Z</time>
      </trkpt>
      <trkpt lat="44.25515" lon="0.83915">
        <ele>170</ele>
        <time>2025-08-17T09:02:36.569Z</time>
      </trkpt>
      <trkpt lat="44.25515" lon="0.83916">
        <ele>170</ele>
        <time>2025-08-17T09:02:37.569Z</time>
      </trkpt>
      <trkpt lat="44.25514" lon="0.83916">
        <ele>170</ele>
        <time>2025-08-17T09:02:38.569Z</time>
      </trkpt>
      <trkpt lat="44.25513" lon="0.83916">
        <ele>170</ele>
        <time>2025-08-17T09:02:39.569Z</time>
      </trkpt>
      <trkpt lat="44.25514" lon="0.83916">
        <ele>170</ele>
        <time>2025-08-17T09:02:40.569Z</time>
      </trkpt>
      <trkpt lat="44.25514" lon="0.83916">
        <ele>170</ele>
        <time>2025-08-17T09:02:41.569Z</time>
      </trkpt>
      <trkpt lat="44.25515" lon="0.83916">
        <ele>170</ele>
        <time>2025-08-17T09:02:42.569Z</time>
      </trkpt>
      <trkpt lat="44.25515" lon="0.83916">
        <ele>170</ele>
        <time>2025-08-17T09:02:43.569Z</time>
      </trkpt>
      <trkpt lat="44.25516" lon="0.83916">
        <ele>169</ele>
        <time>2025-08-17T09:02:44.569Z</time>
      </trkpt>
      <trkpt lat="44.25516" lon="0.83916">
        <ele>169</ele>
        <time>2025-08-17T09:02:45.569Z</time>
      </trkpt>
      <trkpt lat="44.25516" lon="0.83916">
        <ele>169</ele>
        <time>2025-08-17T09:02:46.569Z</time>
      </trkpt>
      <trkpt lat="44.25516" lon="0.83916">
        <ele>169</ele>
        <time>2025-08-17T09:02:47.569Z</time>
      </trkpt>
      <trkpt lat="44.25516" lon="0.83916">
        <ele>169</ele>
        <time>2025-08-17T09:02:48.569Z</time>
      </trkpt>
      <trkpt lat="44.25516" lon="0.83916">
        <ele>169</ele>
        <time>2025-08-17T09:02:49.569Z</time>
      </trkpt>
      <trkpt lat="44.25516" lon="0.83916">
        <ele>169</ele>
        <time>2025-08-17T09:02:50.569Z</time>
      </trkpt>
      <trkpt lat="44.25516" lon="0.83916">
        <ele>170</ele>
        <time>2025-08-17T09:02:51.569Z</time>
      </trkpt>
      <trkpt lat="44.25516" lon="0.83916">
        <ele>170</ele>
        <time>2025-08-17T09:02:52.569Z</time>
      </trkpt>
      <trkpt lat="44.25516" lon="0.83916">
        <ele>171</ele>
        <time>2025-08-17T09:02:53.569Z</time>
      </trkpt>
      <trkpt lat="44.25516" lon="0.83916">
        <ele>172</ele>
        <time>2025-08-17T09:02:54.569Z</time>
      </trkpt>
      <trkpt lat="44.25516" lon="0.83916">
        <ele>173</ele>
        <time>2025-08-17T09:02:55.569Z</time>
      </trkpt>
      <trkpt lat="44.25516" lon="0.83916">
        <ele>174</ele>
        <time>2025-08-17T09:02:56.569Z</time>
      </trkpt>
      <trkpt lat="44.25516" lon="0.83917">
        <ele>175</ele>
        <time>2025-08-17T09:02:57.569Z</time>
      </trkpt>
      <trkpt lat="44.25516" lon="0.83916">
        <ele>175</ele>
        <time>2025-08-17T09:02:58.569Z</time>
      </trkpt>
      <trkpt lat="44.25516" lon="0.83916">
        <ele>176</ele>
        <time>2025-08-17T09:02:59.569Z</time>
      </trkpt>
      <trkpt lat="44.25516" lon="0.83916">
        <ele>177</ele>
        <time>2025-08-17T09:03:00.569Z</time>
      </trkpt>
      <trkpt lat="44.25516" lon="0.83916">
        <ele>177</ele>
        <time>2025-08-17T09:03:01.569Z</time>
      </trkpt>
      <trkpt lat="44.25516" lon="0.83915">
        <ele>178</ele>
        <time>2025-08-17T09:03:02.569Z</time>
      </trkpt>
      <trkpt lat="44.25515" lon="0.83915">
        <ele>178</ele>
        <time>2025-08-17T09:03:03.569Z</time>
      </trkpt>
      <trkpt lat="44.25515" lon="0.83914">
        <ele>179</ele>
        <time>2025-08-17T09:03:04.569Z</time>
      </trkpt>
      <trkpt lat="44.25515" lon="0.83914">
        <ele>180</ele>
        <time>2025-08-17T09:03:05.569Z</time>
      </trkpt>
      <trkpt lat="44.25515" lon="0.83914">
        <ele>181</ele>
        <time>2025-08-17T09:03:06.569Z</time>
      </trkpt>
      <trkpt lat="44.25515" lon="0.83914">
        <ele>181</ele>
        <time>2025-08-17T09:03:07.569Z</time>
      </trkpt>
      <trkpt lat="44.25515" lon="0.83914">
        <ele>182</ele>
        <time>2025-08-17T09:03:08.569Z</time>
      </trkpt>
      <trkpt lat="44.25515" lon="0.83914">
        <ele>182</ele>
        <time>2025-08-17T09:03:09.569Z</time>
      </trkpt>
      <trkpt lat="44.25515" lon="0.83914">
        <ele>183</ele>
        <time>2025-08-17T09:03:10.569Z</time>
      </trkpt>
      <trkpt lat="44.25515" lon="0.83914">
        <ele>183</ele>
        <time>2025-08-17T09:03:11.569Z</time>
      </trkpt>
      <trkpt lat="44.25515" lon="0.83914">
        <ele>184</ele>
        <time>2025-08-17T09:03:12.569Z</time>
      </trkpt>
      <trkpt lat="44.25515" lon="0.83914">
        <ele>184</ele>
        <time>2025-08-17T09:03:13.569Z</time>
      </trkpt>
      <trkpt lat="44.25514" lon="0.83914">
        <ele>185</ele>
        <time>2025-08-17T09:03:14.569Z</time>
      </trkpt>
      <trkpt lat="44.25514" lon="0.83914">
        <ele>185</ele>
        <time>2025-08-17T09:03:15.569Z</time>
      </trkpt>
      <trkpt lat="44.25513" lon="0.83913">
        <ele>185</ele>
        <time>2025-08-17T09:03:16.569Z</time>
      </trkpt>
      <trkpt lat="44.25513" lon="0.83912">
        <ele>185</ele>
        <time>2025-08-17T09:03:17.569Z</time>
      </trkpt>
      <trkpt lat="44.25512" lon="0.8391">
        <ele>185</ele>
        <time>2025-08-17T09:03:18.569Z</time>
      </trkpt>
      <trkpt lat="44.25512" lon="0.83911">
        <ele>185</ele>
        <time>2025-08-17T09:03:19.569Z</time>
      </trkpt>
      <trkpt lat="44.25512" lon="0.83911">
        <ele>185</ele>
        <time>2025-08-17T09:03:20.569Z</time>
      </trkpt>
      <trkpt lat="44.25512" lon="0.83911">
        <ele>185</ele>
        <time>2025-08-17T09:03:21.569Z</time>
      </trkpt>
      <trkpt lat="44.25512" lon="0.83911">
        <ele>185</ele>
        <time>2025-08-17T09:03:22.569Z</time>
      </trkpt>
      <trkpt lat="44.25513" lon="0.83911">
        <ele>185</ele>
        <time>2025-08-17T09:03:23.569Z</time>
      </trkpt>
      <trkpt lat="44.25513" lon="0.83911">
        <ele>184</ele>
        <time>2025-08-17T09:03:24.569Z</time>
      </trkpt>
      <trkpt lat="44.25513" lon="0.83911">
        <ele>184</ele>
        <time>2025-08-17T09:03:25.569Z</time>
      </trkpt>
      <trkpt lat="44.25513" lon="0.83911">
        <ele>184</ele>
        <time>2025-08-17T09:03:26.569Z</time>
      </trkpt>
      <trkpt lat="44.25513" lon="0.83911">
        <ele>183</ele>
        <time>2025-08-17T09:03:27.569Z</time>
      </trkpt>
      <trkpt lat="44.25512" lon="0.83911">
        <ele>183</ele>
        <time>2025-08-17T09:03:28.569Z</time>
      </trkpt>
      <trkpt lat="44.25513" lon="0.83911">
        <ele>183</ele>
        <time>2025-08-17T09:03:29.569Z</time>
      </trkpt>
      <trkpt lat="44.25513" lon="0.83911">
        <ele>182</ele>
        <time>2025-08-17T09:03:30.569Z</time>
      </trkpt>
      <trkpt lat="44.25513" lon="0.83911">
        <ele>182</ele>
        <time>2025-08-17T09:03:31.569Z</time>
      </trkpt>
      <trkpt lat="44.25513" lon="0.83911">
        <ele>182</ele>
        <time>2025-08-17T09:03:32.569Z</time>
      </trkpt>
      <trkpt lat="44.25513" lon="0.83911">
        <ele>182</ele>
        <time>2025-08-17T09:03:33.569Z</time>
      </trkpt>
      <trkpt lat="44.25513" lon="0.83911">
        <ele>182</ele>
        <time>2025-08-17T09:03:34.569Z</time>
      </trkpt>
      <trkpt lat="44.25514" lon="0.83911">
        <ele>182</ele>
        <time>2025-08-17T09:03:35.569Z</time>
      </trkpt>
      <trkpt lat="44.25514" lon="0.83911">
        <ele>182</ele>
        <time>2025-08-17T09:03:36.569Z</time>
      </trkpt>
      <trkpt lat="44.25514" lon="0.8391">
        <ele>182</ele>
        <time>2025-08-17T09:03:37.569Z</time>
      </trkpt>
      <trkpt lat="44.25514" lon="0.8391">
        <ele>182</ele>
        <time>2025-08-17T09:03:38.569Z</time>
      </trkpt>
      <trkpt lat="44.25514" lon="0.83911">
        <ele>182</ele>
        <time>2025-08-17T09:03:39.569Z</time>
      </trkpt>
      <trkpt lat="44.25514" lon="0.83911">
        <ele>182</ele>
        <time>2025-08-17T09:03:40.569Z</time>
      </trkpt>
      <trkpt lat="44.25515" lon="0.83911">
        <ele>182</ele>
        <time>2025-08-17T09:03:41.569Z</time>
      </trkpt>
      <trkpt lat="44.25515" lon="0.83911">
        <ele>182</ele>
        <time>2025-08-17T09:03:42.569Z</time>
      </trkpt>
      <trkpt lat="44.25515" lon="0.83911">
        <ele>182</ele>
        <time>2025-08-17T09:03:43.569Z</time>
      </trkpt>
      <trkpt lat="44.25515" lon="0.83911">
        <ele>182</ele>
        <time>2025-08-17T09:03:44.569Z</time>
      </trkpt>
      <trkpt lat="44.25515" lon="0.83911">
        <ele>183</ele>
        <time>2025-08-17T09:03:45.569Z</time>
      </trkpt>
      <trkpt lat="44.25515" lon="0.83912">
        <ele>183</ele>
        <time>2025-08-17T09:03:46.569Z</time>
      </trkpt>
      <trkpt lat="44.25515" lon="0.83911">
        <ele>183</ele>
        <time>2025-08-17T09:03:47.569Z</time>
      </trkpt>
      <trkpt lat="44.25515" lon="0.83911">
        <ele>183</ele>
        <time>2025-08-17T09:03:48.569Z</time>
      </trkpt>
      <trkpt lat="44.25515" lon="0.83912">
        <ele>183</ele>
        <time>2025-08-17T09:03:49.569Z</time>
      </trkpt>
      <trkpt lat="44.25516" lon="0.83912">
        <ele>183</ele>
        <time>2025-08-17T09:03:50.569Z</time>
      </trkpt>
      <trkpt lat="44.25516" lon="0.83912">
        <ele>183</ele>
        <time>2025-08-17T09:03:51.569Z</time>
      </trkpt>
      <trkpt lat="44.25516" lon="0.83911">
        <ele>183</ele>
        <time>2025-08-17T09:03:52.569Z</time>
      </trkpt>
      <trkpt lat="44.25516" lon="0.83911">
        <ele>183</ele>
        <time>2025-08-17T09:03:53.569Z</time>
      </trkpt>
      <trkpt lat="44.25516" lon="0.83911">
        <ele>183</ele>
        <time>2025-08-17T09:03:54.569Z</time>
      </trkpt>
      <trkpt lat="44.25516" lon="0.83911">
        <ele>182</ele>
        <time>2025-08-17T09:03:55.569Z</time>
      </trkpt>
      <trkpt lat="44.25516" lon="0.83911">
        <ele>182</ele>
        <time>2025-08-17T09:03:56.569Z</time>
      </trkpt>
      <trkpt lat="44.25516" lon="0.83911">
        <ele>182</ele>
        <time>2025-08-17T09:03:57.569Z</time>
      </trkpt>
      <trkpt lat="44.25516" lon="0.83911">
        <ele>181</ele>
        <time>2025-08-17T09:03:58.569Z</time>
      </trkpt>
      <trkpt lat="44.25515" lon="0.83911">
        <ele>181</ele>
        <time>2025-08-17T09:03:59.569Z</time>
      </trkpt>
      <trkpt lat="44.25515" lon="0.83911">
        <ele>181</ele>
        <time>2025-08-17T09:04:00.569Z</time>
      </trkpt>
      <trkpt lat="44.25515" lon="0.83911">
        <ele>181</ele>
        <time>2025-08-17T09:04:01.569Z</time>
      </trkpt>
      <trkpt lat="44.25516" lon="0.83911">
        <ele>181</ele>
        <time>2025-08-17T09:04:02.569Z</time>
      </trkpt>
      <trkpt lat="44.25515" lon="0.83911">
        <ele>180</ele>
        <time>2025-08-17T09:04:03.569Z</time>
      </trkpt>
      <trkpt lat="44.25515" lon="0.83911">
        <ele>180</ele>
        <time>2025-08-17T09:04:04.569Z</time>
      </trkpt>
      <trkpt lat="44.25515" lon="0.83911">
        <ele>180</ele>
        <time>2025-08-17T09:04:05.569Z</time>
      </trkpt>
      <trkpt lat="44.25515" lon="0.83911">
        <ele>180</ele>
        <time>2025-08-17T09:04:06.569Z</time>
      </trkpt>
      <trkpt lat="44.25515" lon="0.83911">
        <ele>180</ele>
        <time>2025-08-17T09:04:07.569Z</time>
      </trkpt>
      <trkpt lat="44.25515" lon="0.83911">
        <ele>180</ele>
        <time>2025-08-17T09:04:08.569Z</time>
      </trkpt>
      <trkpt lat="44.25515" lon="0.83911">
        <ele>180</ele>
        <time>2025-08-17T09:04:09.569Z</time>
      </trkpt>
      <trkpt lat="44.25515" lon="0.83911">
        <ele>180</ele>
        <time>2025-08-17T09:04:10.569Z</time>
      </trkpt>
      <trkpt lat="44.25515" lon="0.83911">
        <ele>180</ele>
        <time>2025-08-17T09:04:11.569Z</time>
      </trkpt>
      <trkpt lat="44.25515" lon="0.83911">
        <ele>180</ele>
        <time>2025-08-17T09:04:12.569Z</time>
      </trkpt>
      <trkpt lat="44.25516" lon="0.83911">
        <ele>180</ele>
        <time>2025-08-17T09:04:13.569Z</time>
      </trkpt>
      <trkpt lat="44.25516" lon="0.83911">
        <ele>180</ele>
        <time>2025-08-17T09:04:14.569Z</time>
      </trkpt>
      <trkpt lat="44.25516" lon="0.83911">
        <ele>181</ele>
        <time>2025-08-17T09:04:15.569Z</time>
      </trkpt>
      <trkpt lat="44.25516" lon="0.83911">
        <ele>181</ele>
        <time>2025-08-17T09:04:16.569Z</time>
      </trkpt>
      <trkpt lat="44.25516" lon="0.83911">
        <ele>181</ele>
        <time>2025-08-17T09:04:17.569Z</time>
      </trkpt>
      <trkpt lat="44.25516" lon="0.83911">
        <ele>181</ele>
        <time>2025-08-17T09:04:18.569Z</time>
      </trkpt>
      <trkpt lat="44.25516" lon="0.83911">
        <ele>182</ele>
        <time>2025-08-17T09:04:19.569Z</time>
      </trkpt>
      <trkpt lat="44.25517" lon="0.83911">
        <ele>182</ele>
        <time>2025-08-17T09:04:20.569Z</time>
      </trkpt>
      <trkpt lat="44.25517" lon="0.83911">
        <ele>183</ele>
        <time>2025-08-17T09:04:21.569Z</time>
      </trkpt>
      <trkpt lat="44.25517" lon="0.83911">
        <ele>183</ele>
        <time>2025-08-17T09:04:22.569Z</time>
      </trkpt>
      <trkpt lat="44.25517" lon="0.8391">
        <ele>184</ele>
        <time>2025-08-17T09:04:23.569Z</time>
      </trkpt>
      <trkpt lat="44.25517" lon="0.8391">
        <ele>184</ele>
        <time>2025-08-17T09:04:24.569Z</time>
      </trkpt>
      <trkpt lat="44.25516" lon="0.8391">
        <ele>185</ele>
        <time>2025-08-17T09:04:25.569Z</time>
      </trkpt>
      <trkpt lat="44.25516" lon="0.8391">
        <ele>185</ele>
        <time>2025-08-17T09:04:26.569Z</time>
      </trkpt>
      <trkpt lat="44.25515" lon="0.83911">
        <ele>185</ele>
        <time>2025-08-17T09:04:27.569Z</time>
      </trkpt>
      <trkpt lat="44.25514" lon="0.83912">
        <ele>184</ele>
        <time>2025-08-17T09:04:28.569Z</time>
      </trkpt>
      <trkpt lat="44.25514" lon="0.83912">
        <ele>184</ele>
        <time>2025-08-17T09:04:29.569Z</time>
      </trkpt>
      <trkpt lat="44.25514" lon="0.83913">
        <ele>184</ele>
        <time>2025-08-17T09:04:30.569Z</time>
      </trkpt>
      <trkpt lat="44.25513" lon="0.83914">
        <ele>183</ele>
        <time>2025-08-17T09:04:31.569Z</time>
      </trkpt>
      <trkpt lat="44.25512" lon="0.83915">
        <ele>183</ele>
        <time>2025-08-17T09:04:32.569Z</time>
      </trkpt>
      <trkpt lat="44.25511" lon="0.83916">
        <ele>182</ele>
        <time>2025-08-17T09:04:33.569Z</time>
      </trkpt>
      <trkpt lat="44.2551" lon="0.83915">
        <ele>182</ele>
        <time>2025-08-17T09:04:34.569Z</time>
      </trkpt>
      <trkpt lat="44.25509" lon="0.83914">
        <ele>181</ele>
        <time>2025-08-17T09:04:35.569Z</time>
      </trkpt>
      <trkpt lat="44.25508" lon="0.83915">
        <ele>181</ele>
        <time>2025-08-17T09:04:36.569Z</time>
      </trkpt>
      <trkpt lat="44.25508" lon="0.83916">
        <ele>180</ele>
        <time>2025-08-17T09:04:37.569Z</time>
      </trkpt>
      <trkpt lat="44.25507" lon="0.83916">
        <ele>180</ele>
        <time>2025-08-17T09:04:38.569Z</time>
      </trkpt>
      <trkpt lat="44.25506" lon="0.83917">
        <ele>180</ele>
        <time>2025-08-17T09:04:39.569Z</time>
      </trkpt>
      <trkpt lat="44.25506" lon="0.83918">
        <ele>179</ele>
        <time>2025-08-17T09:04:40.569Z</time>
      </trkpt>
      <trkpt lat="44.25505" lon="0.83919">
        <ele>179</ele>
        <time>2025-08-17T09:04:41.569Z</time>
      </trkpt>
      <trkpt lat="44.25505" lon="0.83919">
        <ele>179</ele>
        <time>2025-08-17T09:04:42.569Z</time>
      </trkpt>
      <trkpt lat="44.25504" lon="0.8392">
        <ele>180</ele>
        <time>2025-08-17T09:04:43.569Z</time>
      </trkpt>
      <trkpt lat="44.25503" lon="0.8392">
        <ele>180</ele>
        <time>2025-08-17T09:04:44.569Z</time>
      </trkpt>
      <trkpt lat="44.25501" lon="0.83919">
        <ele>180</ele>
        <time>2025-08-17T09:04:45.569Z</time>
      </trkpt>
      <trkpt lat="44.25499" lon="0.8392">
        <ele>180</ele>
        <time>2025-08-17T09:04:46.569Z</time>
      </trkpt>
      <trkpt lat="44.25498" lon="0.8392">
        <ele>180</ele>
        <time>2025-08-17T09:04:47.569Z</time>
      </trkpt>
      <trkpt lat="44.25497" lon="0.8392">
        <ele>180</ele>
        <time>2025-08-17T09:04:48.569Z</time>
      </trkpt>
      <trkpt lat="44.25496" lon="0.8392">
        <ele>180</ele>
        <time>2025-08-17T09:04:49.569Z</time>
      </trkpt>
      <trkpt lat="44.25495" lon="0.83921">
        <ele>180</ele>
        <time>2025-08-17T09:04:50.569Z</time>
      </trkpt>
      <trkpt lat="44.25494" lon="0.83922">
        <ele>180</ele>
        <time>2025-08-17T09:04:51.569Z</time>
      </trkpt>
      <trkpt lat="44.25493" lon="0.83922">
        <ele>180</ele>
        <time>2025-08-17T09:04:52.569Z</time>
      </trkpt>
      <trkpt lat="44.25492" lon="0.83922">
        <ele>180</ele>
        <time>2025-08-17T09:04:53.569Z</time>
      </trkpt>
      <trkpt lat="44.25491" lon="0.83922">
        <ele>180</ele>
        <time>2025-08-17T09:04:54.569Z</time>
      </trkpt>
      <trkpt lat="44.2549" lon="0.83922">
        <ele>180</ele>
        <time>2025-08-17T09:04:55.569Z</time>
      </trkpt>
      <trkpt lat="44.25488" lon="0.83922">
        <ele>179</ele>
        <time>2025-08-17T09:04:56.569Z</time>
      </trkpt>
      <trkpt lat="44.25486" lon="0.83922">
        <ele>179</ele>
        <time>2025-08-17T09:04:57.569Z</time>
      </trkpt>
      <trkpt lat="44.25486" lon="0.83922">
        <ele>179</ele>
        <time>2025-08-17T09:04:58.569Z</time>
      </trkpt>
      <trkpt lat="44.25485" lon="0.83921">
        <ele>179</ele>
        <time>2025-08-17T09:04:59.569Z</time>
      </trkpt>
      <trkpt lat="44.25485" lon="0.83921">
        <ele>179</ele>
        <time>2025-08-17T09:05:00.569Z</time>
      </trkpt>
      <trkpt lat="44.25484" lon="0.83921">
        <ele>179</ele>
        <time>2025-08-17T09:05:01.569Z</time>
      </trkpt>
      <trkpt lat="44.25483" lon="0.83921">
        <ele>179</ele>
        <time>2025-08-17T09:05:02.569Z</time>
      </trkpt>
      <trkpt lat="44.25481" lon="0.83921">
        <ele>179</ele>
        <time>2025-08-17T09:05:03.569Z</time>
      </trkpt>
      <trkpt lat="44.25481" lon="0.83921">
        <ele>179</ele>
        <time>2025-08-17T09:05:04.569Z</time>
      </trkpt>
      <trkpt lat="44.2548" lon="0.83921">
        <ele>179</ele>
        <time>2025-08-17T09:05:05.569Z</time>
      </trkpt>
      <trkpt lat="44.25479" lon="0.83921">
        <ele>179</ele>
        <time>2025-08-17T09:05:06.569Z</time>
      </trkpt>
      <trkpt lat="44.25478" lon="0.83921">
        <ele>180</ele>
        <time>2025-08-17T09:05:07.569Z</time>
      </trkpt>
      <trkpt lat="44.25477" lon="0.8392">
        <ele>180</ele>
        <time>2025-08-17T09:05:08.569Z</time>
      </trkpt>
      <trkpt lat="44.25476" lon="0.8392">
        <ele>179</ele>
        <time>2025-08-17T09:05:09.569Z</time>
      </trkpt>
      <trkpt lat="44.25475" lon="0.8392">
        <ele>179</ele>
        <time>2025-08-17T09:05:10.569Z</time>
      </trkpt>
      <trkpt lat="44.25474" lon="0.8392">
        <ele>180</ele>
        <time>2025-08-17T09:05:11.569Z</time>
      </trkpt>
      <trkpt lat="44.25473" lon="0.8392">
        <ele>180</ele>
        <time>2025-08-17T09:05:12.569Z</time>
      </trkpt>
      <trkpt lat="44.25472" lon="0.83919">
        <ele>180</ele>
        <time>2025-08-17T09:05:13.569Z</time>
      </trkpt>
      <trkpt lat="44.25472" lon="0.83919">
        <ele>180</ele>
        <time>2025-08-17T09:05:14.569Z</time>
      </trkpt>
      <trkpt lat="44.25472" lon="0.8392">
        <ele>180</ele>
        <time>2025-08-17T09:05:15.569Z</time>
      </trkpt>
      <trkpt lat="44.25472" lon="0.8392">
        <ele>180</ele>
        <time>2025-08-17T09:05:16.569Z</time>
      </trkpt>
      <trkpt lat="44.25471" lon="0.8392">
        <ele>180</ele>
        <time>2025-08-17T09:05:17.569Z</time>
      </trkpt>
      <trkpt lat="44.2547" lon="0.8392">
        <ele>181</ele>
        <time>2025-08-17T09:05:18.569Z</time>
      </trkpt>
      <trkpt lat="44.2547" lon="0.8392">
        <ele>181</ele>
        <time>2025-08-17T09:05:19.569Z</time>
      </trkpt>
      <trkpt lat="44.2547" lon="0.8392">
        <ele>181</ele>
        <time>2025-08-17T09:05:20.569Z</time>
      </trkpt>
      <trkpt lat="44.2547" lon="0.8392">
        <ele>181</ele>
        <time>2025-08-17T09:05:21.569Z</time>
      </trkpt>
      <trkpt lat="44.2547" lon="0.8392">
        <ele>181</ele>
        <time>2025-08-17T09:05:22.569Z</time>
      </trkpt>
      <trkpt lat="44.25469" lon="0.8392">
        <ele>182</ele>
        <time>2025-08-17T09:05:23.569Z</time>
      </trkpt>
      <trkpt lat="44.25469" lon="0.83921">
        <ele>182</ele>
        <time>2025-08-17T09:05:24.569Z</time>
      </trkpt>
      <trkpt lat="44.25468" lon="0.8392">
        <ele>182</ele>
        <time>2025-08-17T09:05:25.569Z</time>
      </trkpt>
      <trkpt lat="44.25467" lon="0.83919">
        <ele>182</ele>
        <time>2025-08-17T09:05:26.569Z</time>
      </trkpt>
      <trkpt lat="44.25467" lon="0.83918">
        <ele>183</ele>
        <time>2025-08-17T09:05:27.569Z</time>
      </trkpt>
      <trkpt lat="44.25466" lon="0.83918">
        <ele>183</ele>
        <time>2025-08-17T09:05:28.569Z</time>
      </trkpt>
      <trkpt lat="44.25466" lon="0.83918">
        <ele>183</ele>
        <time>2025-08-17T09:05:29.569Z</time>
      </trkpt>
      <trkpt lat="44.25466" lon="0.83919">
        <ele>183</ele>
        <time>2025-08-17T09:05:30.569Z</time>
      </trkpt>
      <trkpt lat="44.25465" lon="0.83919">
        <ele>184</ele>
        <time>2025-08-17T09:05:31.569Z</time>
      </trkpt>
      <trkpt lat="44.25464" lon="0.83918">
        <ele>184</ele>
        <time>2025-08-17T09:05:32.569Z</time>
      </trkpt>
      <trkpt lat="44.25463" lon="0.83918">
        <ele>183</ele>
        <time>2025-08-17T09:05:33.569Z</time>
      </trkpt>
      <trkpt lat="44.25462" lon="0.83917">
        <ele>183</ele>
        <time>2025-08-17T09:05:34.569Z</time>
      </trkpt>
      <trkpt lat="44.25461" lon="0.83917">
        <ele>183</ele>
        <time>2025-08-17T09:05:35.569Z</time>
      </trkpt>
      <trkpt lat="44.2546" lon="0.83917">
        <ele>183</ele>
        <time>2025-08-17T09:05:36.569Z</time>
      </trkpt>
      <trkpt lat="44.2546" lon="0.83917">
        <ele>183</ele>
        <time>2025-08-17T09:05:37.569Z</time>
      </trkpt>
      <trkpt lat="44.25459" lon="0.83917">
        <ele>183</ele>
        <time>2025-08-17T09:05:38.569Z</time>
      </trkpt>
      <trkpt lat="44.25458" lon="0.83916">
        <ele>183</ele>
        <time>2025-08-17T09:05:39.569Z</time>
      </trkpt>
      <trkpt lat="44.25457" lon="0.83916">
        <ele>183</ele>
        <time>2025-08-17T09:05:40.569Z</time>
      </trkpt>
      <trkpt lat="44.25456" lon="0.83915">
        <ele>183</ele>
        <time>2025-08-17T09:05:41.569Z</time>
      </trkpt>
      <trkpt lat="44.25455" lon="0.83915">
        <ele>184</ele>
        <time>2025-08-17T09:05:42.569Z</time>
      </trkpt>
      <trkpt lat="44.25454" lon="0.83914">
        <ele>184</ele>
        <time>2025-08-17T09:05:43.570Z</time>
      </trkpt>
      <trkpt lat="44.25453" lon="0.83914">
        <ele>184</ele>
        <time>2025-08-17T09:05:44.569Z</time>
      </trkpt>
      <trkpt lat="44.25453" lon="0.83915">
        <ele>184</ele>
        <time>2025-08-17T09:05:45.569Z</time>
      </trkpt>
      <trkpt lat="44.25452" lon="0.83915">
        <ele>184</ele>
        <time>2025-08-17T09:05:46.569Z</time>
      </trkpt>
      <trkpt lat="44.25451" lon="0.83914">
        <ele>184</ele>
        <time>2025-08-17T09:05:47.569Z</time>
      </trkpt>
      <trkpt lat="44.2545" lon="0.83913">
        <ele>185</ele>
        <time>2025-08-17T09:05:48.569Z</time>
      </trkpt>
      <trkpt lat="44.25448" lon="0.83912">
        <ele>185</ele>
        <time>2025-08-17T09:05:49.569Z</time>
      </trkpt>
      <trkpt lat="44.25448" lon="0.83911">
        <ele>185</ele>
        <time>2025-08-17T09:05:50.569Z</time>
      </trkpt>
      <trkpt lat="44.25447" lon="0.83911">
        <ele>185</ele>
        <time>2025-08-17T09:05:51.569Z</time>
      </trkpt>
      <trkpt lat="44.25446" lon="0.83911">
        <ele>185</ele>
        <time>2025-08-17T09:05:52.569Z</time>
      </trkpt>
      <trkpt lat="44.25446" lon="0.83911">
        <ele>185</ele>
        <time>2025-08-17T09:05:53.569Z</time>
      </trkpt>
      <trkpt lat="44.25445" lon="0.83911">
        <ele>185</ele>
        <time>2025-08-17T09:05:54.569Z</time>
      </trkpt>
      <trkpt lat="44.25444" lon="0.8391">
        <ele>185</ele>
        <time>2025-08-17T09:05:55.569Z</time>
      </trkpt>
      <trkpt lat="44.25444" lon="0.83911">
        <ele>185</ele>
        <time>2025-08-17T09:05:56.569Z</time>
      </trkpt>
      <trkpt lat="44.25444" lon="0.83911">
        <ele>185</ele>
        <time>2025-08-17T09:05:57.569Z</time>
      </trkpt>
      <trkpt lat="44.25443" lon="0.83911">
        <ele>185</ele>
        <time>2025-08-17T09:05:58.569Z</time>
      </trkpt>
      <trkpt lat="44.25443" lon="0.83911">
        <ele>186</ele>
        <time>2025-08-17T09:05:59.569Z</time>
      </trkpt>
      <trkpt lat="44.25442" lon="0.8391">
        <ele>186</ele>
        <time>2025-08-17T09:06:00.569Z</time>
      </trkpt>
      <trkpt lat="44.25441" lon="0.83909">
        <ele>186</ele>
        <time>2025-08-17T09:06:01.569Z</time>
      </trkpt>
      <trkpt lat="44.2544" lon="0.8391">
        <ele>186</ele>
        <time>2025-08-17T09:06:02.569Z</time>
      </trkpt>
      <trkpt lat="44.2544" lon="0.83909">
        <ele>186</ele>
        <time>2025-08-17T09:06:03.569Z</time>
      </trkpt>
      <trkpt lat="44.2544" lon="0.83909">
        <ele>187</ele>
        <time>2025-08-17T09:06:04.569Z</time>
      </trkpt>
      <trkpt lat="44.25438" lon="0.83909">
        <ele>187</ele>
        <time>2025-08-17T09:06:05.569Z</time>
      </trkpt>
      <trkpt lat="44.25437" lon="0.83909">
        <ele>187</ele>
        <time>2025-08-17T09:06:06.569Z</time>
      </trkpt>
      <trkpt lat="44.25438" lon="0.83911">
        <ele>187</ele>
        <time>2025-08-17T09:06:07.569Z</time>
      </trkpt>
      <trkpt lat="44.25437" lon="0.8391">
        <ele>187</ele>
        <time>2025-08-17T09:06:08.569Z</time>
      </trkpt>
      <trkpt lat="44.25437" lon="0.8391">
        <ele>188</ele>
        <time>2025-08-17T09:06:09.569Z</time>
      </trkpt>
      <trkpt lat="44.25437" lon="0.83911">
        <ele>188</ele>
        <time>2025-08-17T09:06:10.569Z</time>
      </trkpt>
      <trkpt lat="44.25436" lon="0.83911">
        <ele>189</ele>
        <time>2025-08-17T09:06:11.569Z</time>
      </trkpt>
      <trkpt lat="44.25436" lon="0.83911">
        <ele>189</ele>
        <time>2025-08-17T09:06:12.569Z</time>
      </trkpt>
      <trkpt lat="44.25435" lon="0.83911">
        <ele>189</ele>
        <time>2025-08-17T09:06:13.569Z</time>
      </trkpt>
      <trkpt lat="44.25435" lon="0.83911">
        <ele>189</ele>
        <time>2025-08-17T09:06:14.569Z</time>
      </trkpt>
      <trkpt lat="44.25434" lon="0.83911">
        <ele>189</ele>
        <time>2025-08-17T09:06:15.569Z</time>
      </trkpt>
      <trkpt lat="44.25434" lon="0.83911">
        <ele>190</ele>
        <time>2025-08-17T09:06:16.569Z</time>
      </trkpt>
      <trkpt lat="44.25433" lon="0.83911">
        <ele>190</ele>
        <time>2025-08-17T09:06:17.569Z</time>
      </trkpt>
      <trkpt lat="44.25432" lon="0.83911">
        <ele>190</ele>
        <time>2025-08-17T09:06:18.569Z</time>
      </trkpt>
      <trkpt lat="44.25432" lon="0.8391">
        <ele>190</ele>
        <time>2025-08-17T09:06:19.569Z</time>
      </trkpt>
      <trkpt lat="44.25431" lon="0.83911">
        <ele>190</ele>
        <time>2025-08-17T09:06:20.569Z</time>
      </trkpt>
      <trkpt lat="44.25431" lon="0.83911">
        <ele>190</ele>
        <time>2025-08-17T09:06:21.569Z</time>
      </trkpt>
      <trkpt lat="44.25431" lon="0.83911">
        <ele>190</ele>
        <time>2025-08-17T09:06:22.569Z</time>
      </trkpt>
      <trkpt lat="44.25431" lon="0.83912">
        <ele>190</ele>
        <time>2025-08-17T09:06:23.569Z</time>
      </trkpt>
      <trkpt lat="44.25431" lon="0.83912">
        <ele>189</ele>
        <time>2025-08-17T09:06:24.569Z</time>
      </trkpt>
      <trkpt lat="44.25431" lon="0.83912">
        <ele>189</ele>
        <time>2025-08-17T09:06:25.569Z</time>
      </trkpt>
      <trkpt lat="44.25431" lon="0.83912">
        <ele>189</ele>
        <time>2025-08-17T09:06:26.569Z</time>
      </trkpt>
      <trkpt lat="44.25431" lon="0.83913">
        <ele>189</ele>
        <time>2025-08-17T09:06:27.569Z</time>
      </trkpt>
      <trkpt lat="44.25431" lon="0.83913">
        <ele>189</ele>
        <time>2025-08-17T09:06:28.569Z</time>
      </trkpt>
      <trkpt lat="44.25431" lon="0.83913">
        <ele>188</ele>
        <time>2025-08-17T09:06:29.569Z</time>
      </trkpt>
      <trkpt lat="44.25431" lon="0.83912">
        <ele>188</ele>
        <time>2025-08-17T09:06:30.569Z</time>
      </trkpt>
      <trkpt lat="44.2543" lon="0.83912">
        <ele>188</ele>
        <time>2025-08-17T09:06:31.569Z</time>
      </trkpt>
      <trkpt lat="44.2543" lon="0.83913">
        <ele>188</ele>
        <time>2025-08-17T09:06:32.569Z</time>
      </trkpt>
      <trkpt lat="44.25429" lon="0.83914">
        <ele>188</ele>
        <time>2025-08-17T09:06:33.569Z</time>
      </trkpt>
      <trkpt lat="44.25429" lon="0.83914">
        <ele>189</ele>
        <time>2025-08-17T09:06:34.569Z</time>
      </trkpt>
      <trkpt lat="44.25428" lon="0.83915">
        <ele>189</ele>
        <time>2025-08-17T09:06:35.569Z</time>
      </trkpt>
      <trkpt lat="44.25428" lon="0.83915">
        <ele>189</ele>
        <time>2025-08-17T09:06:36.569Z</time>
      </trkpt>
      <trkpt lat="44.25427" lon="0.83916">
        <ele>189</ele>
        <time>2025-08-17T09:06:37.569Z</time>
      </trkpt>
      <trkpt lat="44.25427" lon="0.83916">
        <ele>190</ele>
        <time>2025-08-17T09:06:38.569Z</time>
      </trkpt>
      <trkpt lat="44.25427" lon="0.83916">
        <ele>191</ele>
        <time>2025-08-17T09:06:39.569Z</time>
      </trkpt>
      <trkpt lat="44.25426" lon="0.83916">
        <ele>191</ele>
        <time>2025-08-17T09:06:40.569Z</time>
      </trkpt>
      <trkpt lat="44.25425" lon="0.83916">
        <ele>192</ele>
        <time>2025-08-17T09:06:41.569Z</time>
      </trkpt>
      <trkpt lat="44.25425" lon="0.83915">
        <ele>192</ele>
        <time>2025-08-17T09:06:42.569Z</time>
      </trkpt>
      <trkpt lat="44.25424" lon="0.83915">
        <ele>192</ele>
        <time>2025-08-17T09:06:43.569Z</time>
      </trkpt>
      <trkpt lat="44.25423" lon="0.83915">
        <ele>192</ele>
        <time>2025-08-17T09:06:44.569Z</time>
      </trkpt>
      <trkpt lat="44.25423" lon="0.83915">
        <ele>191</ele>
        <time>2025-08-17T09:06:45.569Z</time>
      </trkpt>
      <trkpt lat="44.25421" lon="0.83914">
        <ele>191</ele>
        <time>2025-08-17T09:06:46.569Z</time>
      </trkpt>
      <trkpt lat="44.25421" lon="0.83915">
        <ele>191</ele>
        <time>2025-08-17T09:06:47.569Z</time>
      </trkpt>
      <trkpt lat="44.2542" lon="0.83915">
        <ele>191</ele>
        <time>2025-08-17T09:06:48.569Z</time>
      </trkpt>
      <trkpt lat="44.2542" lon="0.83915">
        <ele>191</ele>
        <time>2025-08-17T09:06:49.569Z</time>
      </trkpt>
      <trkpt lat="44.25421" lon="0.83915">
        <ele>191</ele>
        <time>2025-08-17T09:06:50.569Z</time>
      </trkpt>
      <trkpt lat="44.25421" lon="0.83915">
        <ele>191</ele>
        <time>2025-08-17T09:06:51.569Z</time>
      </trkpt>
      <trkpt lat="44.25421" lon="0.83915">
        <ele>191</ele>
        <time>2025-08-17T09:06:52.569Z</time>
      </trkpt>
      <trkpt lat="44.25422" lon="0.83916">
        <ele>191</ele>
        <time>2025-08-17T09:06:53.569Z</time>
      </trkpt>
      <trkpt lat="44.25423" lon="0.83916">
        <ele>191</ele>
        <time>2025-08-17T09:06:54.569Z</time>
      </trkpt>
      <trkpt lat="44.25424" lon="0.83916">
        <ele>191</ele>
        <time>2025-08-17T09:06:55.569Z</time>
      </trkpt>
      <trkpt lat="44.25424" lon="0.83916">
        <ele>191</ele>
        <time>2025-08-17T09:06:56.569Z</time>
      </trkpt>
      <trkpt lat="44.25423" lon="0.83917">
        <ele>191</ele>
        <time>2025-08-17T09:06:57.569Z</time>
      </trkpt>
      <trkpt lat="44.25423" lon="0.83917">
        <ele>191</ele>
        <time>2025-08-17T09:06:58.569Z</time>
      </trkpt>
      <trkpt lat="44.25423" lon="0.83917">
        <ele>190</ele>
        <time>2025-08-17T09:06:59.569Z</time>
      </trkpt>
      <trkpt lat="44.25423" lon="0.83917">
        <ele>190</ele>
        <time>2025-08-17T09:07:00.569Z</time>
      </trkpt>
      <trkpt lat="44.25423" lon="0.83917">
        <ele>189</ele>
        <time>2025-08-17T09:07:01.569Z</time>
      </trkpt>
      <trkpt lat="44.25423" lon="0.83917">
        <ele>189</ele>
        <time>2025-08-17T09:07:02.569Z</time>
      </trkpt>
      <trkpt lat="44.25423" lon="0.83916">
        <ele>189</ele>
        <time>2025-08-17T09:07:03.569Z</time>
      </trkpt>
      <trkpt lat="44.25423" lon="0.83916">
        <ele>189</ele>
        <time>2025-08-17T09:07:04.569Z</time>
      </trkpt>
      <trkpt lat="44.25423" lon="0.83916">
        <ele>189</ele>
        <time>2025-08-17T09:07:05.569Z</time>
      </trkpt>
      <trkpt lat="44.25424" lon="0.83916">
        <ele>189</ele>
        <time>2025-08-17T09:07:06.569Z</time>
      </trkpt>
      <trkpt lat="44.25425" lon="0.83917">
        <ele>189</ele>
        <time>2025-08-17T09:07:07.569Z</time>
      </trkpt>
      <trkpt lat="44.25426" lon="0.83917">
        <ele>189</ele>
        <time>2025-08-17T09:07:08.569Z</time>
      </trkpt>
      <trkpt lat="44.25426" lon="0.83916">
        <ele>189</ele>
        <time>2025-08-17T09:07:09.569Z</time>
      </trkpt>
      <trkpt lat="44.25426" lon="0.83917">
        <ele>189</ele>
        <time>2025-08-17T09:07:10.569Z</time>
      </trkpt>
      <trkpt lat="44.25426" lon="0.83916">
        <ele>189</ele>
        <time>2025-08-17T09:07:11.569Z</time>
      </trkpt>
      <trkpt lat="44.25426" lon="0.83916">
        <ele>189</ele>
        <time>2025-08-17T09:07:12.569Z</time>
      </trkpt>
      <trkpt lat="44.25426" lon="0.83916">
        <ele>189</ele>
        <time>2025-08-17T09:07:13.569Z</time>
      </trkpt>
      <trkpt lat="44.25426" lon="0.83916">
        <ele>189</ele>
        <time>2025-08-17T09:07:14.569Z</time>
      </trkpt>
      <trkpt lat="44.25426" lon="0.83916">
        <ele>189</ele>
        <time>2025-08-17T09:07:15.569Z</time>
      </trkpt>
      <trkpt lat="44.25426" lon="0.83915">
        <ele>189</ele>
        <time>2025-08-17T09:07:16.569Z</time>
      </trkpt>
      <trkpt lat="44.25425" lon="0.83914">
        <ele>190</ele>
        <time>2025-08-17T09:07:17.569Z</time>
      </trkpt>
      <trkpt lat="44.25425" lon="0.83914">
        <ele>190</ele>
        <time>2025-08-17T09:07:18.569Z</time>
      </trkpt>
      <trkpt lat="44.25425" lon="0.83914">
        <ele>191</ele>
        <time>2025-08-17T09:07:19.569Z</time>
      </trkpt>
      <trkpt lat="44.25425" lon="0.83914">
        <ele>191</ele>
        <time>2025-08-17T09:07:20.569Z</time>
      </trkpt>
      <trkpt lat="44.25425" lon="0.83914">
        <ele>192</ele>
        <time>2025-08-17T09:07:21.569Z</time>
      </trkpt>
      <trkpt lat="44.25425" lon="0.83915">
        <ele>192</ele>
        <time>2025-08-17T09:07:22.569Z</time>
      </trkpt>
      <trkpt lat="44.25425" lon="0.83915">
        <ele>193</ele>
        <time>2025-08-17T09:07:23.569Z</time>
      </trkpt>
      <trkpt lat="44.25425" lon="0.83915">
        <ele>193</ele>
        <time>2025-08-17T09:07:24.569Z</time>
      </trkpt>
      <trkpt lat="44.25425" lon="0.83915">
        <ele>194</ele>
        <time>2025-08-17T09:07:25.569Z</time>
      </trkpt>
      <trkpt lat="44.25425" lon="0.83915">
        <ele>194</ele>
        <time>2025-08-17T09:07:26.569Z</time>
      </trkpt>
      <trkpt lat="44.25425" lon="0.83915">
        <ele>195</ele>
        <time>2025-08-17T09:07:27.569Z</time>
      </trkpt>
      <trkpt lat="44.25425" lon="0.83915">
        <ele>195</ele>
        <time>2025-08-17T09:07:28.569Z</time>
      </trkpt>
      <trkpt lat="44.25425" lon="0.83915">
        <ele>195</ele>
        <time>2025-08-17T09:07:29.569Z</time>
      </trkpt>
      <trkpt lat="44.25425" lon="0.83916">
        <ele>195</ele>
        <time>2025-08-17T09:07:30.569Z</time>
      </trkpt>
      <trkpt lat="44.25425" lon="0.83915">
        <ele>195</ele>
        <time>2025-08-17T09:07:31.569Z</time>
      </trkpt>
      <trkpt lat="44.25425" lon="0.83915">
        <ele>195</ele>
        <time>2025-08-17T09:07:32.569Z</time>
      </trkpt>
      <trkpt lat="44.25425" lon="0.83915">
        <ele>194</ele>
        <time>2025-08-17T09:07:33.569Z</time>
      </trkpt>
      <trkpt lat="44.25425" lon="0.83915">
        <ele>194</ele>
        <time>2025-08-17T09:07:34.569Z</time>
      </trkpt>
      <trkpt lat="44.25425" lon="0.83915">
        <ele>194</ele>
        <time>2025-08-17T09:07:35.569Z</time>
      </trkpt>
      <trkpt lat="44.25425" lon="0.83915">
        <ele>193</ele>
        <time>2025-08-17T09:07:36.569Z</time>
      </trkpt>
      <trkpt lat="44.25425" lon="0.83915">
        <ele>193</ele>
        <time>2025-08-17T09:07:37.569Z</time>
      </trkpt>
      <trkpt lat="44.25425" lon="0.83915">
        <ele>193</ele>
        <time>2025-08-17T09:07:38.569Z</time>
      </trkpt>
      <trkpt lat="44.25425" lon="0.83915">
        <ele>192</ele>
        <time>2025-08-17T09:07:39.569Z</time>
      </trkpt>
      <trkpt lat="44.25425" lon="0.83915">
        <ele>192</ele>
        <time>2025-08-17T09:07:40.569Z</time>
      </trkpt>
      <trkpt lat="44.25425" lon="0.83915">
        <ele>192</ele>
        <time>2025-08-17T09:07:41.569Z</time>
      </trkpt>
      <trkpt lat="44.25425" lon="0.83915">
        <ele>192</ele>
        <time>2025-08-17T09:07:42.569Z</time>
      </trkpt>
      <trkpt lat="44.25425" lon="0.83915">
        <ele>191</ele>
        <time>2025-08-17T09:07:43.569Z</time>
      </trkpt>
      <trkpt lat="44.25425" lon="0.83915">
        <ele>191</ele>
        <time>2025-08-17T09:07:44.569Z</time>
      </trkpt>
      <trkpt lat="44.25426" lon="0.83915">
        <ele>191</ele>
        <time>2025-08-17T09:07:45.569Z</time>
      </trkpt>
      <trkpt lat="44.25426" lon="0.83915">
        <ele>191</ele>
        <time>2025-08-17T09:07:46.569Z</time>
      </trkpt>
      <trkpt lat="44.25426" lon="0.83915">
        <ele>192</ele>
        <time>2025-08-17T09:07:47.569Z</time>
      </trkpt>
      <trkpt lat="44.25426" lon="0.83915">
        <ele>192</ele>
        <time>2025-08-17T09:07:48.569Z</time>
      </trkpt>
      <trkpt lat="44.25425" lon="0.83915">
        <ele>192</ele>
        <time>2025-08-17T09:07:49.569Z</time>
      </trkpt>
      <trkpt lat="44.25426" lon="0.83916">
        <ele>191</ele>
        <time>2025-08-17T09:07:50.569Z</time>
      </trkpt>
      <trkpt lat="44.25426" lon="0.83916">
        <ele>191</ele>
        <time>2025-08-17T09:07:51.569Z</time>
      </trkpt>
      <trkpt lat="44.25426" lon="0.83916">
        <ele>191</ele>
        <time>2025-08-17T09:07:52.569Z</time>
      </trkpt>
      <trkpt lat="44.25425" lon="0.83916">
        <ele>191</ele>
        <time>2025-08-17T09:07:53.569Z</time>
      </trkpt>
      <trkpt lat="44.25425" lon="0.83916">
        <ele>191</ele>
        <time>2025-08-17T09:07:54.569Z</time>
      </trkpt>
      <trkpt lat="44.25425" lon="0.83916">
        <ele>191</ele>
        <time>2025-08-17T09:07:55.569Z</time>
      </trkpt>
      <trkpt lat="44.25426" lon="0.83917">
        <ele>191</ele>
        <time>2025-08-17T09:07:56.569Z</time>
      </trkpt>
      <trkpt lat="44.25426" lon="0.83917">
        <ele>191</ele>
        <time>2025-08-17T09:07:57.569Z</time>
      </trkpt>
      <trkpt lat="44.25427" lon="0.83917">
        <ele>191</ele>
        <time>2025-08-17T09:07:58.569Z</time>
      </trkpt>
      <trkpt lat="44.25427" lon="0.83917">
        <ele>192</ele>
        <time>2025-08-17T09:07:59.569Z</time>
      </trkpt>
      <trkpt lat="44.25427" lon="0.83917">
        <ele>192</ele>
        <time>2025-08-17T09:08:00.569Z</time>
      </trkpt>
      <trkpt lat="44.25428" lon="0.83917">
        <ele>192</ele>
        <time>2025-08-17T09:08:01.569Z</time>
      </trkpt>
      <trkpt lat="44.25428" lon="0.83917">
        <ele>192</ele>
        <time>2025-08-17T09:08:02.569Z</time>
      </trkpt>
      <trkpt lat="44.25428" lon="0.83917">
        <ele>191</ele>
        <time>2025-08-17T09:08:03.569Z</time>
      </trkpt>
      <trkpt lat="44.25428" lon="0.83917">
        <ele>191</ele>
        <time>2025-08-17T09:08:04.569Z</time>
      </trkpt>
      <trkpt lat="44.25428" lon="0.83918">
        <ele>191</ele>
        <time>2025-08-17T09:08:05.569Z</time>
      </trkpt>
      <trkpt lat="44.25428" lon="0.83918">
        <ele>191</ele>
        <time>2025-08-17T09:08:06.569Z</time>
      </trkpt>
      <trkpt lat="44.25428" lon="0.83918">
        <ele>191</ele>
        <time>2025-08-17T09:08:07.569Z</time>
      </trkpt>
      <trkpt lat="44.25428" lon="0.83918">
        <ele>191</ele>
        <time>2025-08-17T09:08:08.569Z</time>
      </trkpt>
      <trkpt lat="44.25428" lon="0.83918">
        <ele>191</ele>
        <time>2025-08-17T09:08:09.569Z</time>
      </trkpt>
      <trkpt lat="44.25428" lon="0.83918">
        <ele>190</ele>
        <time>2025-08-17T09:08:10.569Z</time>
      </trkpt>
      <trkpt lat="44.25427" lon="0.83918">
        <ele>190</ele>
        <time>2025-08-17T09:08:11.569Z</time>
      </trkpt>
      <trkpt lat="44.25426" lon="0.83918">
        <ele>190</ele>
        <time>2025-08-17T09:08:12.569Z</time>
      </trkpt>
      <trkpt lat="44.25426" lon="0.83918">
        <ele>190</ele>
        <time>2025-08-17T09:08:13.569Z</time>
      </trkpt>
      <trkpt lat="44.25426" lon="0.83918">
        <ele>189</ele>
        <time>2025-08-17T09:08:14.569Z</time>
      </trkpt>
      <trkpt lat="44.25426" lon="0.83917">
        <ele>189</ele>
        <time>2025-08-17T09:08:15.569Z</time>
      </trkpt>
      <trkpt lat="44.25426" lon="0.83917">
        <ele>190</ele>
        <time>2025-08-17T09:08:16.569Z</time>
      </trkpt>
      <trkpt lat="44.25426" lon="0.83917">
        <ele>190</ele>
        <time>2025-08-17T09:08:17.569Z</time>
      </trkpt>
      <trkpt lat="44.25426" lon="0.83917">
        <ele>190</ele>
        <time>2025-08-17T09:08:18.569Z</time>
      </trkpt>
      <trkpt lat="44.25426" lon="0.83917">
        <ele>190</ele>
        <time>2025-08-17T09:08:19.569Z</time>
      </trkpt>
      <trkpt lat="44.25426" lon="0.83917">
        <ele>191</ele>
        <time>2025-08-17T09:08:20.569Z</time>
      </trkpt>
      <trkpt lat="44.25426" lon="0.83917">
        <ele>191</ele>
        <time>2025-08-17T09:08:21.569Z</time>
      </trkpt>
      <trkpt lat="44.25426" lon="0.83917">
        <ele>191</ele>
        <time>2025-08-17T09:08:22.569Z</time>
      </trkpt>
      <trkpt lat="44.25427" lon="0.83917">
        <ele>191</ele>
        <time>2025-08-17T09:08:23.569Z</time>
      </trkpt>
      <trkpt lat="44.25427" lon="0.83917">
        <ele>191</ele>
        <time>2025-08-17T09:08:24.569Z</time>
      </trkpt>
      <trkpt lat="44.25427" lon="0.83917">
        <ele>191</ele>
        <time>2025-08-17T09:08:25.569Z</time>
      </trkpt>
      <trkpt lat="44.25427" lon="0.83917">
        <ele>191</ele>
        <time>2025-08-17T09:08:26.569Z</time>
      </trkpt>
      <trkpt lat="44.25427" lon="0.83917">
        <ele>191</ele>
        <time>2025-08-17T09:08:27.569Z</time>
      </trkpt>
      <trkpt lat="44.25427" lon="0.83918">
        <ele>191</ele>
        <time>2025-08-17T09:08:28.569Z</time>
      </trkpt>
      <trkpt lat="44.25427" lon="0.83918">
        <ele>191</ele>
        <time>2025-08-17T09:08:29.569Z</time>
      </trkpt>
      <trkpt lat="44.25427" lon="0.83918">
        <ele>191</ele>
        <time>2025-08-17T09:08:30.569Z</time>
      </trkpt>
      <trkpt lat="44.25426" lon="0.83917">
        <ele>191</ele>
        <time>2025-08-17T09:08:31.569Z</time>
      </trkpt>
      <trkpt lat="44.25426" lon="0.83916">
        <ele>191</ele>
        <time>2025-08-17T09:08:32.569Z</time>
      </trkpt>
      <trkpt lat="44.25426" lon="0.83916">
        <ele>191</ele>
        <time>2025-08-17T09:08:33.569Z</time>
      </trkpt>
      <trkpt lat="44.25426" lon="0.83916">
        <ele>191</ele>
        <time>2025-08-17T09:08:34.569Z</time>
      </trkpt>
      <trkpt lat="44.25426" lon="0.83916">
        <ele>192</ele>
        <time>2025-08-17T09:08:35.569Z</time>
      </trkpt>
      <trkpt lat="44.25426" lon="0.83916">
        <ele>192</ele>
        <time>2025-08-17T09:08:36.569Z</time>
      </trkpt>
      <trkpt lat="44.25425" lon="0.83915">
        <ele>191</ele>
        <time>2025-08-17T09:08:37.569Z</time>
      </trkpt>
      <trkpt lat="44.25425" lon="0.83916">
        <ele>191</ele>
        <time>2025-08-17T09:08:38.569Z</time>
      </trkpt>
      <trkpt lat="44.25424" lon="0.83916">
        <ele>191</ele>
        <time>2025-08-17T09:08:39.569Z</time>
      </trkpt>
      <trkpt lat="44.25424" lon="0.83917">
        <ele>191</ele>
        <time>2025-08-17T09:08:40.569Z</time>
      </trkpt>
      <trkpt lat="44.25423" lon="0.83917">
        <ele>191</ele>
        <time>2025-08-17T09:08:41.569Z</time>
      </trkpt>
      <trkpt lat="44.25423" lon="0.83918">
        <ele>191</ele>
        <time>2025-08-17T09:08:42.569Z</time>
      </trkpt>
      <trkpt lat="44.25423" lon="0.83918">
        <ele>190</ele>
        <time>2025-08-17T09:08:43.569Z</time>
      </trkpt>
      <trkpt lat="44.25422" lon="0.83919">
        <ele>190</ele>
        <time>2025-08-17T09:08:44.569Z</time>
      </trkpt>
      <trkpt lat="44.2542" lon="0.83919">
        <ele>190</ele>
        <time>2025-08-17T09:08:45.569Z</time>
      </trkpt>
      <trkpt lat="44.25419" lon="0.83919">
        <ele>189</ele>
        <time>2025-08-17T09:08:46.569Z</time>
      </trkpt>
      <trkpt lat="44.25419" lon="0.83919">
        <ele>189</ele>
        <time>2025-08-17T09:08:47.569Z</time>
      </trkpt>
      <trkpt lat="44.25418" lon="0.83918">
        <ele>189</ele>
        <time>2025-08-17T09:08:48.569Z</time>
      </trkpt>
      <trkpt lat="44.25416" lon="0.83918">
        <ele>189</ele>
        <time>2025-08-17T09:08:49.569Z</time>
      </trkpt>
      <trkpt lat="44.25415" lon="0.83918">
        <ele>189</ele>
        <time>2025-08-17T09:08:50.569Z</time>
      </trkpt>
      <trkpt lat="44.25413" lon="0.83919">
        <ele>189</ele>
        <time>2025-08-17T09:08:51.569Z</time>
      </trkpt>
      <trkpt lat="44.25412" lon="0.83919">
        <ele>188</ele>
        <time>2025-08-17T09:08:52.569Z</time>
      </trkpt>
      <trkpt lat="44.25411" lon="0.83919">
        <ele>188</ele>
        <time>2025-08-17T09:08:53.569Z</time>
      </trkpt>
      <trkpt lat="44.2541" lon="0.8392">
        <ele>188</ele>
        <time>2025-08-17T09:08:54.569Z</time>
      </trkpt>
      <trkpt lat="44.2541" lon="0.8392">
        <ele>188</ele>
        <time>2025-08-17T09:08:55.569Z</time>
      </trkpt>
      <trkpt lat="44.25409" lon="0.83921">
        <ele>188</ele>
        <time>2025-08-17T09:08:56.569Z</time>
      </trkpt>
      <trkpt lat="44.25408" lon="0.83921">
        <ele>189</ele>
        <time>2025-08-17T09:08:57.569Z</time>
      </trkpt>
      <trkpt lat="44.25407" lon="0.83921">
        <ele>189</ele>
        <time>2025-08-17T09:08:58.569Z</time>
      </trkpt>
      <trkpt lat="44.25406" lon="0.83922">
        <ele>189</ele>
        <time>2025-08-17T09:08:59.569Z</time>
      </trkpt>
      <trkpt lat="44.25406" lon="0.83922">
        <ele>189</ele>
        <time>2025-08-17T09:09:00.569Z</time>
      </trkpt>
      <trkpt lat="44.25405" lon="0.83923">
        <ele>189</ele>
        <time>2025-08-17T09:09:01.569Z</time>
      </trkpt>
      <trkpt lat="44.25405" lon="0.83923">
        <ele>190</ele>
        <time>2025-08-17T09:09:02.569Z</time>
      </trkpt>
      <trkpt lat="44.25404" lon="0.83923">
        <ele>190</ele>
        <time>2025-08-17T09:09:03.569Z</time>
      </trkpt>
      <trkpt lat="44.25402" lon="0.83923">
        <ele>191</ele>
        <time>2025-08-17T09:09:04.569Z</time>
      </trkpt>
      <trkpt lat="44.25401" lon="0.83923">
        <ele>191</ele>
        <time>2025-08-17T09:09:05.569Z</time>
      </trkpt>
      <trkpt lat="44.254" lon="0.83922">
        <ele>191</ele>
        <time>2025-08-17T09:09:06.569Z</time>
      </trkpt>
      <trkpt lat="44.25399" lon="0.83921">
        <ele>191</ele>
        <time>2025-08-17T09:09:07.569Z</time>
      </trkpt>
      <trkpt lat="44.25397" lon="0.8392">
        <ele>191</ele>
        <time>2025-08-17T09:09:08.569Z</time>
      </trkpt>
      <trkpt lat="44.25395" lon="0.83919">
        <ele>192</ele>
        <time>2025-08-17T09:09:09.569Z</time>
      </trkpt>
      <trkpt lat="44.25392" lon="0.83918">
        <ele>192</ele>
        <time>2025-08-17T09:09:10.569Z</time>
      </trkpt>
      <trkpt lat="44.25391" lon="0.83917">
        <ele>192</ele>
        <time>2025-08-17T09:09:11.569Z</time>
      </trkpt>
      <trkpt lat="44.2539" lon="0.83917">
        <ele>191</ele>
        <time>2025-08-17T09:09:12.569Z</time>
      </trkpt>
      <trkpt lat="44.25389" lon="0.83917">
        <ele>192</ele>
        <time>2025-08-17T09:09:13.569Z</time>
      </trkpt>
      <trkpt lat="44.25388" lon="0.83916">
        <ele>192</ele>
        <time>2025-08-17T09:09:14.569Z</time>
      </trkpt>
      <trkpt lat="44.25386" lon="0.83915">
        <ele>192</ele>
        <time>2025-08-17T09:09:15.569Z</time>
      </trkpt>
      <trkpt lat="44.25386" lon="0.83915">
        <ele>192</ele>
        <time>2025-08-17T09:09:16.569Z</time>
      </trkpt>
      <trkpt lat="44.25385" lon="0.83914">
        <ele>192</ele>
        <time>2025-08-17T09:09:17.569Z</time>
      </trkpt>
      <trkpt lat="44.25384" lon="0.83913">
        <ele>193</ele>
        <time>2025-08-17T09:09:18.569Z</time>
      </trkpt>
      <trkpt lat="44.25383" lon="0.83912">
        <ele>193</ele>
        <time>2025-08-17T09:09:19.569Z</time>
      </trkpt>
      <trkpt lat="44.25383" lon="0.83911">
        <ele>193</ele>
        <time>2025-08-17T09:09:20.569Z</time>
      </trkpt>
      <trkpt lat="44.25383" lon="0.83911">
        <ele>194</ele>
        <time>2025-08-17T09:09:21.569Z</time>
      </trkpt>
      <trkpt lat="44.25383" lon="0.83911">
        <ele>194</ele>
        <time>2025-08-17T09:09:22.569Z</time>
      </trkpt>
      <trkpt lat="44.25383" lon="0.83911">
        <ele>194</ele>
        <time>2025-08-17T09:09:23.569Z</time>
      </trkpt>
      <trkpt lat="44.25382" lon="0.8391">
        <ele>194</ele>
        <time>2025-08-17T09:09:24.569Z</time>
      </trkpt>
      <trkpt lat="44.2538" lon="0.83908">
        <ele>195</ele>
        <time>2025-08-17T09:09:25.569Z</time>
      </trkpt>
      <trkpt lat="44.25379" lon="0.83906">
        <ele>195</ele>
        <time>2025-08-17T09:09:26.569Z</time>
      </trkpt>
      <trkpt lat="44.25378" lon="0.83905">
        <ele>195</ele>
        <time>2025-08-17T09:09:27.569Z</time>
      </trkpt>
      <trkpt lat="44.25377" lon="0.83905">
        <ele>195</ele>
        <time>2025-08-17T09:09:28.569Z</time>
      </trkpt>
      <trkpt lat="44.25376" lon="0.83904">
        <ele>195</ele>
        <time>2025-08-17T09:09:29.569Z</time>
      </trkpt>
      <trkpt lat="44.25376" lon="0.83904">
        <ele>195</ele>
        <time>2025-08-17T09:09:30.569Z</time>
      </trkpt>
      <trkpt lat="44.25375" lon="0.83903">
        <ele>196</ele>
        <time>2025-08-17T09:09:31.569Z</time>
      </trkpt>
      <trkpt lat="44.25374" lon="0.83903">
        <ele>196</ele>
        <time>2025-08-17T09:09:32.569Z</time>
      </trkpt>
      <trkpt lat="44.25374" lon="0.83902">
        <ele>196</ele>
        <time>2025-08-17T09:09:33.569Z</time>
      </trkpt>
      <trkpt lat="44.25373" lon="0.83902">
        <ele>196</ele>
        <time>2025-08-17T09:09:34.569Z</time>
      </trkpt>
      <trkpt lat="44.25372" lon="0.83901">
        <ele>196</ele>
        <time>2025-08-17T09:09:35.569Z</time>
      </trkpt>
      <trkpt lat="44.25371" lon="0.83901">
        <ele>196</ele>
        <time>2025-08-17T09:09:36.569Z</time>
      </trkpt>
      <trkpt lat="44.25371" lon="0.839">
        <ele>196</ele>
        <time>2025-08-17T09:09:37.569Z</time>
      </trkpt>
      <trkpt lat="44.2537" lon="0.839">
        <ele>196</ele>
        <time>2025-08-17T09:09:38.569Z</time>
      </trkpt>
      <trkpt lat="44.25369" lon="0.83898">
        <ele>196</ele>
        <time>2025-08-17T09:09:39.569Z</time>
      </trkpt>
      <trkpt lat="44.25368" lon="0.83897">
        <ele>196</ele>
        <time>2025-08-17T09:09:40.569Z</time>
      </trkpt>
      <trkpt lat="44.25367" lon="0.83896">
        <ele>196</ele>
        <time>2025-08-17T09:09:41.569Z</time>
      </trkpt>
      <trkpt lat="44.25366" lon="0.83895">
        <ele>196</ele>
        <time>2025-08-17T09:09:42.569Z</time>
      </trkpt>
      <trkpt lat="44.25366" lon="0.83895">
        <ele>196</ele>
        <time>2025-08-17T09:09:43.569Z</time>
      </trkpt>
      <trkpt lat="44.25365" lon="0.83894">
        <ele>196</ele>
        <time>2025-08-17T09:09:44.569Z</time>
      </trkpt>
      <trkpt lat="44.25365" lon="0.83894">
        <ele>197</ele>
        <time>2025-08-17T09:09:45.569Z</time>
      </trkpt>
      <trkpt lat="44.25364" lon="0.83894">
        <ele>197</ele>
        <time>2025-08-17T09:09:46.569Z</time>
      </trkpt>
      <trkpt lat="44.25363" lon="0.83894">
        <ele>197</ele>
        <time>2025-08-17T09:09:47.569Z</time>
      </trkpt>
      <trkpt lat="44.25362" lon="0.83894">
        <ele>197</ele>
        <time>2025-08-17T09:09:48.569Z</time>
      </trkpt>
      <trkpt lat="44.25362" lon="0.83893">
        <ele>197</ele>
        <time>2025-08-17T09:09:49.569Z</time>
      </trkpt>
      <trkpt lat="44.25361" lon="0.83893">
        <ele>197</ele>
        <time>2025-08-17T09:09:50.569Z</time>
      </trkpt>
      <trkpt lat="44.25361" lon="0.83892">
        <ele>197</ele>
        <time>2025-08-17T09:09:51.569Z</time>
      </trkpt>
      <trkpt lat="44.2536" lon="0.83894">
        <ele>197</ele>
        <time>2025-08-17T09:09:52.569Z</time>
      </trkpt>
      <trkpt lat="44.25359" lon="0.83894">
        <ele>198</ele>
        <time>2025-08-17T09:09:53.569Z</time>
      </trkpt>
      <trkpt lat="44.25358" lon="0.83894">
        <ele>198</ele>
        <time>2025-08-17T09:09:54.569Z</time>
      </trkpt>
      <trkpt lat="44.25359" lon="0.83894">
        <ele>198</ele>
        <time>2025-08-17T09:09:55.569Z</time>
      </trkpt>
      <trkpt lat="44.25359" lon="0.83893">
        <ele>198</ele>
        <time>2025-08-17T09:09:56.569Z</time>
      </trkpt>
      <trkpt lat="44.25359" lon="0.83892">
        <ele>198</ele>
        <time>2025-08-17T09:09:57.569Z</time>
      </trkpt>
      <trkpt lat="44.25358" lon="0.83891">
        <ele>198</ele>
        <time>2025-08-17T09:09:58.569Z</time>
      </trkpt>
      <trkpt lat="44.25356" lon="0.83889">
        <ele>198</ele>
        <time>2025-08-17T09:09:59.569Z</time>
      </trkpt>
      <trkpt lat="44.25355" lon="0.83887">
        <ele>198</ele>
        <time>2025-08-17T09:10:00.569Z</time>
      </trkpt>
      <trkpt lat="44.25354" lon="0.83886">
        <ele>199</ele>
        <time>2025-08-17T09:10:01.569Z</time>
      </trkpt>
      <trkpt lat="44.25354" lon="0.83884">
        <ele>199</ele>
        <time>2025-08-17T09:10:02.569Z</time>
      </trkpt>
      <trkpt lat="44.25353" lon="0.83882">
        <ele>199</ele>
        <time>2025-08-17T09:10:03.569Z</time>
      </trkpt>
      <trkpt lat="44.25352" lon="0.83881">
        <ele>199</ele>
        <time>2025-08-17T09:10:04.569Z</time>
      </trkpt>
      <trkpt lat="44.25351" lon="0.83879">
        <ele>200</ele>
        <time>2025-08-17T09:10:05.569Z</time>
      </trkpt>
      <trkpt lat="44.2535" lon="0.83877">
        <ele>200</ele>
        <time>2025-08-17T09:10:06.569Z</time>
      </trkpt>
      <trkpt lat="44.25349" lon="0.83876">
        <ele>201</ele>
        <time>2025-08-17T09:10:07.569Z</time>
      </trkpt>
      <trkpt lat="44.25348" lon="0.83875">
        <ele>201</ele>
        <time>2025-08-17T09:10:08.569Z</time>
      </trkpt>
      <trkpt lat="44.25348" lon="0.83873">
        <ele>201</ele>
        <time>2025-08-17T09:10:09.569Z</time>
      </trkpt>
      <trkpt lat="44.25347" lon="0.83872">
        <ele>201</ele>
        <time>2025-08-17T09:10:10.569Z</time>
      </trkpt>
      <trkpt lat="44.25347" lon="0.8387">
        <ele>201</ele>
        <time>2025-08-17T09:10:11.569Z</time>
      </trkpt>
      <trkpt lat="44.25347" lon="0.83868">
        <ele>201</ele>
        <time>2025-08-17T09:10:12.569Z</time>
      </trkpt>
      <trkpt lat="44.25347" lon="0.83867">
        <ele>201</ele>
        <time>2025-08-17T09:10:13.569Z</time>
      </trkpt>
      <trkpt lat="44.25347" lon="0.83865">
        <ele>201</ele>
        <time>2025-08-17T09:10:14.569Z</time>
      </trkpt>
      <trkpt lat="44.25347" lon="0.83864">
        <ele>201</ele>
        <time>2025-08-17T09:10:15.569Z</time>
      </trkpt>
      <trkpt lat="44.25347" lon="0.83862">
        <ele>200</ele>
        <time>2025-08-17T09:10:16.569Z</time>
      </trkpt>
      <trkpt lat="44.25347" lon="0.8386">
        <ele>200</ele>
        <time>2025-08-17T09:10:17.569Z</time>
      </trkpt>
      <trkpt lat="44.25348" lon="0.83858">
        <ele>200</ele>
        <time>2025-08-17T09:10:18.569Z</time>
      </trkpt>
      <trkpt lat="44.25347" lon="0.83856">
        <ele>200</ele>
        <time>2025-08-17T09:10:19.569Z</time>
      </trkpt>
      <trkpt lat="44.25347" lon="0.83854">
        <ele>200</ele>
        <time>2025-08-17T09:10:20.569Z</time>
      </trkpt>
      <trkpt lat="44.25347" lon="0.83852">
        <ele>200</ele>
        <time>2025-08-17T09:10:21.569Z</time>
      </trkpt>
      <trkpt lat="44.25347" lon="0.8385">
        <ele>200</ele>
        <time>2025-08-17T09:10:22.569Z</time>
      </trkpt>
      <trkpt lat="44.25347" lon="0.83847">
        <ele>200</ele>
        <time>2025-08-17T09:10:23.569Z</time>
      </trkpt>
      <trkpt lat="44.25347" lon="0.83845">
        <ele>200</ele>
        <time>2025-08-17T09:10:24.569Z</time>
      </trkpt>
      <trkpt lat="44.25347" lon="0.83843">
        <ele>200</ele>
        <time>2025-08-17T09:10:25.569Z</time>
      </trkpt>
      <trkpt lat="44.25347" lon="0.83842">
        <ele>200</ele>
        <time>2025-08-17T09:10:26.569Z</time>
      </trkpt>
      <trkpt lat="44.25347" lon="0.8384">
        <ele>200</ele>
        <time>2025-08-17T09:10:27.569Z</time>
      </trkpt>
      <trkpt lat="44.25347" lon="0.83839">
        <ele>200</ele>
        <time>2025-08-17T09:10:28.569Z</time>
      </trkpt>
      <trkpt lat="44.25347" lon="0.83838">
        <ele>200</ele>
        <time>2025-08-17T09:10:29.569Z</time>
      </trkpt>
      <trkpt lat="44.25346" lon="0.83837">
        <ele>200</ele>
        <time>2025-08-17T09:10:30.569Z</time>
      </trkpt>
      <trkpt lat="44.25346" lon="0.83836">
        <ele>199</ele>
        <time>2025-08-17T09:10:31.569Z</time>
      </trkpt>
      <trkpt lat="44.25345" lon="0.83835">
        <ele>199</ele>
        <time>2025-08-17T09:10:32.569Z</time>
      </trkpt>
      <trkpt lat="44.25345" lon="0.83834">
        <ele>198</ele>
        <time>2025-08-17T09:10:33.569Z</time>
      </trkpt>
      <trkpt lat="44.25346" lon="0.83833">
        <ele>198</ele>
        <time>2025-08-17T09:10:34.569Z</time>
      </trkpt>
      <trkpt lat="44.25347" lon="0.83831">
        <ele>197</ele>
        <time>2025-08-17T09:10:35.569Z</time>
      </trkpt>
      <trkpt lat="44.25347" lon="0.8383">
        <ele>197</ele>
        <time>2025-08-17T09:10:36.569Z</time>
      </trkpt>
      <trkpt lat="44.25347" lon="0.83828">
        <ele>196</ele>
        <time>2025-08-17T09:10:37.569Z</time>
      </trkpt>
      <trkpt lat="44.25347" lon="0.83826">
        <ele>196</ele>
        <time>2025-08-17T09:10:38.569Z</time>
      </trkpt>
      <trkpt lat="44.25347" lon="0.83825">
        <ele>196</ele>
        <time>2025-08-17T09:10:39.569Z</time>
      </trkpt>
      <trkpt lat="44.25348" lon="0.83824">
        <ele>195</ele>
        <time>2025-08-17T09:10:40.569Z</time>
      </trkpt>
      <trkpt lat="44.25347" lon="0.83822">
        <ele>195</ele>
        <time>2025-08-17T09:10:41.569Z</time>
      </trkpt>
      <trkpt lat="44.25347" lon="0.83821">
        <ele>195</ele>
        <time>2025-08-17T09:10:42.569Z</time>
      </trkpt>
      <trkpt lat="44.25347" lon="0.83819">
        <ele>196</ele>
        <time>2025-08-17T09:10:43.569Z</time>
      </trkpt>
      <trkpt lat="44.25348" lon="0.83818">
        <ele>196</ele>
        <time>2025-08-17T09:10:44.569Z</time>
      </trkpt>
      <trkpt lat="44.25348" lon="0.83817">
        <ele>196</ele>
        <time>2025-08-17T09:10:45.569Z</time>
      </trkpt>
      <trkpt lat="44.25348" lon="0.83815">
        <ele>196</ele>
        <time>2025-08-17T09:10:46.569Z</time>
      </trkpt>
      <trkpt lat="44.25348" lon="0.83814">
        <ele>197</ele>
        <time>2025-08-17T09:10:47.569Z</time>
      </trkpt>
      <trkpt lat="44.25348" lon="0.83812">
        <ele>197</ele>
        <time>2025-08-17T09:10:48.569Z</time>
      </trkpt>
      <trkpt lat="44.25348" lon="0.83811">
        <ele>197</ele>
        <time>2025-08-17T09:10:49.569Z</time>
      </trkpt>
      <trkpt lat="44.25348" lon="0.8381">
        <ele>196</ele>
        <time>2025-08-17T09:10:50.569Z</time>
      </trkpt>
      <trkpt lat="44.25348" lon="0.83809">
        <ele>196</ele>
        <time>2025-08-17T09:10:51.569Z</time>
      </trkpt>
      <trkpt lat="44.25349" lon="0.83807">
        <ele>196</ele>
        <time>2025-08-17T09:10:52.569Z</time>
      </trkpt>
      <trkpt lat="44.25349" lon="0.83806">
        <ele>196</ele>
        <time>2025-08-17T09:10:53.569Z</time>
      </trkpt>
      <trkpt lat="44.25349" lon="0.83804">
        <ele>196</ele>
        <time>2025-08-17T09:10:54.569Z</time>
      </trkpt>
      <trkpt lat="44.25349" lon="0.83803">
        <ele>196</ele>
        <time>2025-08-17T09:10:55.569Z</time>
      </trkpt>
      <trkpt lat="44.25349" lon="0.83802">
        <ele>196</ele>
        <time>2025-08-17T09:10:56.569Z</time>
      </trkpt>
      <trkpt lat="44.25349" lon="0.83801">
        <ele>196</ele>
        <time>2025-08-17T09:10:57.569Z</time>
      </trkpt>
      <trkpt lat="44.25349" lon="0.838">
        <ele>196</ele>
        <time>2025-08-17T09:10:58.569Z</time>
      </trkpt>
      <trkpt lat="44.25349" lon="0.83799">
        <ele>196</ele>
        <time>2025-08-17T09:10:59.569Z</time>
      </trkpt>
      <trkpt lat="44.25349" lon="0.83798">
        <ele>196</ele>
        <time>2025-08-17T09:11:00.569Z</time>
      </trkpt>
      <trkpt lat="44.25348" lon="0.83797">
        <ele>196</ele>
        <time>2025-08-17T09:11:01.569Z</time>
      </trkpt>
      <trkpt lat="44.25348" lon="0.83796">
        <ele>196</ele>
        <time>2025-08-17T09:11:02.569Z</time>
      </trkpt>
      <trkpt lat="44.25348" lon="0.83795">
        <ele>196</ele>
        <time>2025-08-17T09:11:03.569Z</time>
      </trkpt>
      <trkpt lat="44.25348" lon="0.83794">
        <ele>196</ele>
        <time>2025-08-17T09:11:04.569Z</time>
      </trkpt>
      <trkpt lat="44.25348" lon="0.83793">
        <ele>196</ele>
        <time>2025-08-17T09:11:05.569Z</time>
      </trkpt>
      <trkpt lat="44.25348" lon="0.83792">
        <ele>196</ele>
        <time>2025-08-17T09:11:06.569Z</time>
      </trkpt>
      <trkpt lat="44.25348" lon="0.83791">
        <ele>196</ele>
        <time>2025-08-17T09:11:07.569Z</time>
      </trkpt>
      <trkpt lat="44.25348" lon="0.8379">
        <ele>196</ele>
        <time>2025-08-17T09:11:08.569Z</time>
      </trkpt>
      <trkpt lat="44.25348" lon="0.83789">
        <ele>196</ele>
        <time>2025-08-17T09:11:09.569Z</time>
      </trkpt>
      <trkpt lat="44.25348" lon="0.83788">
        <ele>196</ele>
        <time>2025-08-17T09:11:10.569Z</time>
      </trkpt>
      <trkpt lat="44.25348" lon="0.83786">
        <ele>196</ele>
        <time>2025-08-17T09:11:11.569Z</time>
      </trkpt>
      <trkpt lat="44.25348" lon="0.83784">
        <ele>197</ele>
        <time>2025-08-17T09:11:12.569Z</time>
      </trkpt>
      <trkpt lat="44.25348" lon="0.83783">
        <ele>197</ele>
        <time>2025-08-17T09:11:13.569Z</time>
      </trkpt>
      <trkpt lat="44.25348" lon="0.83781">
        <ele>197</ele>
        <time>2025-08-17T09:11:14.569Z</time>
      </trkpt>
      <trkpt lat="44.25348" lon="0.8378">
        <ele>197</ele>
        <time>2025-08-17T09:11:15.569Z</time>
      </trkpt>
      <trkpt lat="44.25348" lon="0.83779">
        <ele>197</ele>
        <time>2025-08-17T09:11:16.569Z</time>
      </trkpt>
      <trkpt lat="44.25347" lon="0.83777">
        <ele>198</ele>
        <time>2025-08-17T09:11:17.569Z</time>
      </trkpt>
      <trkpt lat="44.25347" lon="0.83777">
        <ele>198</ele>
        <time>2025-08-17T09:11:18.569Z</time>
      </trkpt>
      <trkpt lat="44.25347" lon="0.83776">
        <ele>198</ele>
        <time>2025-08-17T09:11:19.569Z</time>
      </trkpt>
      <trkpt lat="44.25347" lon="0.83776">
        <ele>198</ele>
        <time>2025-08-17T09:11:20.569Z</time>
      </trkpt>
      <trkpt lat="44.25348" lon="0.83776">
        <ele>198</ele>
        <time>2025-08-17T09:11:21.569Z</time>
      </trkpt>
      <trkpt lat="44.25348" lon="0.83776">
        <ele>198</ele>
        <time>2025-08-17T09:11:22.569Z</time>
      </trkpt>
      <trkpt lat="44.25347" lon="0.83775">
        <ele>198</ele>
        <time>2025-08-17T09:11:23.569Z</time>
      </trkpt>
      <trkpt lat="44.25347" lon="0.83775">
        <ele>199</ele>
        <time>2025-08-17T09:11:24.569Z</time>
      </trkpt>
      <trkpt lat="44.25347" lon="0.83775">
        <ele>199</ele>
        <time>2025-08-17T09:11:25.569Z</time>
      </trkpt>
      <trkpt lat="44.25347" lon="0.83775">
        <ele>199</ele>
        <time>2025-08-17T09:11:26.569Z</time>
      </trkpt>
      <trkpt lat="44.25347" lon="0.83775">
        <ele>200</ele>
        <time>2025-08-17T09:11:27.569Z</time>
      </trkpt>
      <trkpt lat="44.25347" lon="0.83775">
        <ele>200</ele>
        <time>2025-08-17T09:11:28.569Z</time>
      </trkpt>
      <trkpt lat="44.25347" lon="0.83775">
        <ele>200</ele>
        <time>2025-08-17T09:11:29.569Z</time>
      </trkpt>
      <trkpt lat="44.25347" lon="0.83775">
        <ele>200</ele>
        <time>2025-08-17T09:11:30.569Z</time>
      </trkpt>
      <trkpt lat="44.25347" lon="0.83775">
        <ele>200</ele>
        <time>2025-08-17T09:11:31.569Z</time>
      </trkpt>
      <trkpt lat="44.25347" lon="0.83775">
        <ele>199</ele>
        <time>2025-08-17T09:11:32.569Z</time>
      </trkpt>
      <trkpt lat="44.25347" lon="0.83775">
        <ele>199</ele>
        <time>2025-08-17T09:11:33.569Z</time>
      </trkpt>
      <trkpt lat="44.25347" lon="0.83775">
        <ele>200</ele>
        <time>2025-08-17T09:11:34.569Z</time>
      </trkpt>
      <trkpt lat="44.25347" lon="0.83775">
        <ele>200</ele>
        <time>2025-08-17T09:11:35.569Z</time>
      </trkpt>
      <trkpt lat="44.25347" lon="0.83775">
        <ele>200</ele>
        <time>2025-08-17T09:11:36.569Z</time>
      </trkpt>
      <trkpt lat="44.25347" lon="0.83775">
        <ele>200</ele>
        <time>2025-08-17T09:11:37.569Z</time>
      </trkpt>
      <trkpt lat="44.25347" lon="0.83775">
        <ele>200</ele>
        <time>2025-08-17T09:11:38.569Z</time>
      </trkpt>
      <trkpt lat="44.25347" lon="0.83776">
        <ele>200</ele>
        <time>2025-08-17T09:11:39.569Z</time>
      </trkpt>
      <trkpt lat="44.25347" lon="0.83776">
        <ele>200</ele>
        <time>2025-08-17T09:11:40.569Z</time>
      </trkpt>
      <trkpt lat="44.25347" lon="0.83776">
        <ele>200</ele>
        <time>2025-08-17T09:11:41.569Z</time>
      </trkpt>
      <trkpt lat="44.25347" lon="0.83776">
        <ele>200</ele>
        <time>2025-08-17T09:11:42.569Z</time>
      </trkpt>
      <trkpt lat="44.25347" lon="0.83775">
        <ele>199</ele>
        <time>2025-08-17T09:11:43.569Z</time>
      </trkpt>
      <trkpt lat="44.25347" lon="0.83775">
        <ele>199</ele>
        <time>2025-08-17T09:11:44.569Z</time>
      </trkpt>
      <trkpt lat="44.25347" lon="0.83775">
        <ele>199</ele>
        <time>2025-08-17T09:11:45.569Z</time>
      </trkpt>
      <trkpt lat="44.25347" lon="0.83774">
        <ele>199</ele>
        <time>2025-08-17T09:11:46.569Z</time>
      </trkpt>
      <trkpt lat="44.25347" lon="0.83774">
        <ele>198</ele>
        <time>2025-08-17T09:11:47.569Z</time>
      </trkpt>
      <trkpt lat="44.25347" lon="0.83774">
        <ele>198</ele>
        <time>2025-08-17T09:11:48.569Z</time>
      </trkpt>
      <trkpt lat="44.25347" lon="0.83774">
        <ele>198</ele>
        <time>2025-08-17T09:11:49.569Z</time>
      </trkpt>
      <trkpt lat="44.25347" lon="0.83774">
        <ele>198</ele>
        <time>2025-08-17T09:11:50.569Z</time>
      </trkpt>
      <trkpt lat="44.25347" lon="0.83774">
        <ele>198</ele>
        <time>2025-08-17T09:11:51.569Z</time>
      </trkpt>
      <trkpt lat="44.25347" lon="0.83774">
        <ele>198</ele>
        <time>2025-08-17T09:11:52.569Z</time>
      </trkpt>
      <trkpt lat="44.25347" lon="0.83774">
        <ele>197</ele>
        <time>2025-08-17T09:11:53.569Z</time>
      </trkpt>
      <trkpt lat="44.25347" lon="0.83774">
        <ele>197</ele>
        <time>2025-08-17T09:11:54.569Z</time>
      </trkpt>
      <trkpt lat="44.25346" lon="0.83774">
        <ele>197</ele>
        <time>2025-08-17T09:11:55.569Z</time>
      </trkpt>
      <trkpt lat="44.25346" lon="0.83774">
        <ele>198</ele>
        <time>2025-08-17T09:11:56.569Z</time>
      </trkpt>
      <trkpt lat="44.25346" lon="0.83774">
        <ele>198</ele>
        <time>2025-08-17T09:11:57.569Z</time>
      </trkpt>
      <trkpt lat="44.25346" lon="0.83774">
        <ele>198</ele>
        <time>2025-08-17T09:11:58.569Z</time>
      </trkpt>
      <trkpt lat="44.25346" lon="0.83773">
        <ele>198</ele>
        <time>2025-08-17T09:11:59.569Z</time>
      </trkpt>
      <trkpt lat="44.25346" lon="0.83773">
        <ele>197</ele>
        <time>2025-08-17T09:12:00.569Z</time>
      </trkpt>
      <trkpt lat="44.25346" lon="0.83772">
        <ele>197</ele>
        <time>2025-08-17T09:12:01.569Z</time>
      </trkpt>
      <trkpt lat="44.25346" lon="0.8377">
        <ele>197</ele>
        <time>2025-08-17T09:12:02.569Z</time>
      </trkpt>
      <trkpt lat="44.25347" lon="0.83769">
        <ele>198</ele>
        <time>2025-08-17T09:12:03.569Z</time>
      </trkpt>
      <trkpt lat="44.25347" lon="0.83767">
        <ele>198</ele>
        <time>2025-08-17T09:12:04.569Z</time>
      </trkpt>
      <trkpt lat="44.25347" lon="0.83766">
        <ele>198</ele>
        <time>2025-08-17T09:12:05.569Z</time>
      </trkpt>
      <trkpt lat="44.25347" lon="0.83764">
        <ele>199</ele>
        <time>2025-08-17T09:12:06.569Z</time>
      </trkpt>
      <trkpt lat="44.25347" lon="0.83762">
        <ele>199</ele>
        <time>2025-08-17T09:12:07.569Z</time>
      </trkpt>
      <trkpt lat="44.25347" lon="0.83761">
        <ele>199</ele>
        <time>2025-08-17T09:12:08.569Z</time>
      </trkpt>
      <trkpt lat="44.25347" lon="0.8376">
        <ele>199</ele>
        <time>2025-08-17T09:12:09.569Z</time>
      </trkpt>
      <trkpt lat="44.25347" lon="0.83759">
        <ele>198</ele>
        <time>2025-08-17T09:12:10.569Z</time>
      </trkpt>
      <trkpt lat="44.25347" lon="0.83758">
        <ele>198</ele>
        <time>2025-08-17T09:12:11.569Z</time>
      </trkpt>
      <trkpt lat="44.25346" lon="0.83757">
        <ele>198</ele>
        <time>2025-08-17T09:12:12.569Z</time>
      </trkpt>
      <trkpt lat="44.25346" lon="0.83756">
        <ele>198</ele>
        <time>2025-08-17T09:12:13.569Z</time>
      </trkpt>
      <trkpt lat="44.25346" lon="0.83755">
        <ele>198</ele>
        <time>2025-08-17T09:12:14.569Z</time>
      </trkpt>
      <trkpt lat="44.25345" lon="0.83754">
        <ele>198</ele>
        <time>2025-08-17T09:12:15.569Z</time>
      </trkpt>
      <trkpt lat="44.25344" lon="0.83753">
        <ele>198</ele>
        <time>2025-08-17T09:12:16.569Z</time>
      </trkpt>
      <trkpt lat="44.25344" lon="0.83752">
        <ele>198</ele>
        <time>2025-08-17T09:12:17.569Z</time>
      </trkpt>
      <trkpt lat="44.25343" lon="0.83752">
        <ele>197</ele>
        <time>2025-08-17T09:12:18.569Z</time>
      </trkpt>
      <trkpt lat="44.25342" lon="0.83751">
        <ele>197</ele>
        <time>2025-08-17T09:12:19.569Z</time>
      </trkpt>
      <trkpt lat="44.25342" lon="0.8375">
        <ele>197</ele>
        <time>2025-08-17T09:12:20.569Z</time>
      </trkpt>
      <trkpt lat="44.25341" lon="0.83748">
        <ele>197</ele>
        <time>2025-08-17T09:12:21.569Z</time>
      </trkpt>
      <trkpt lat="44.25341" lon="0.83747">
        <ele>197</ele>
        <time>2025-08-17T09:12:22.569Z</time>
      </trkpt>
      <trkpt lat="44.25341" lon="0.83746">
        <ele>197</ele>
        <time>2025-08-17T09:12:23.569Z</time>
      </trkpt>
      <trkpt lat="44.25341" lon="0.83745">
        <ele>197</ele>
        <time>2025-08-17T09:12:24.569Z</time>
      </trkpt>
      <trkpt lat="44.25341" lon="0.83744">
        <ele>197</ele>
        <time>2025-08-17T09:12:25.569Z</time>
      </trkpt>
      <trkpt lat="44.2534" lon="0.83742">
        <ele>197</ele>
        <time>2025-08-17T09:12:26.569Z</time>
      </trkpt>
      <trkpt lat="44.2534" lon="0.8374">
        <ele>197</ele>
        <time>2025-08-17T09:12:27.569Z</time>
      </trkpt>
      <trkpt lat="44.2534" lon="0.83739">
        <ele>197</ele>
        <time>2025-08-17T09:12:28.569Z</time>
      </trkpt>
      <trkpt lat="44.2534" lon="0.83738">
        <ele>197</ele>
        <time>2025-08-17T09:12:29.569Z</time>
      </trkpt>
      <trkpt lat="44.25339" lon="0.83736">
        <ele>197</ele>
        <time>2025-08-17T09:12:30.569Z</time>
      </trkpt>
      <trkpt lat="44.25339" lon="0.83735">
        <ele>197</ele>
        <time>2025-08-17T09:12:31.569Z</time>
      </trkpt>
      <trkpt lat="44.25339" lon="0.83733">
        <ele>197</ele>
        <time>2025-08-17T09:12:32.569Z</time>
      </trkpt>
      <trkpt lat="44.25339" lon="0.83732">
        <ele>197</ele>
        <time>2025-08-17T09:12:33.569Z</time>
      </trkpt>
      <trkpt lat="44.25339" lon="0.83731">
        <ele>197</ele>
        <time>2025-08-17T09:12:34.569Z</time>
      </trkpt>
      <trkpt lat="44.25339" lon="0.8373">
        <ele>196</ele>
        <time>2025-08-17T09:12:35.569Z</time>
      </trkpt>
      <trkpt lat="44.25339" lon="0.83728">
        <ele>196</ele>
        <time>2025-08-17T09:12:36.569Z</time>
      </trkpt>
      <trkpt lat="44.25339" lon="0.83727">
        <ele>196</ele>
        <time>2025-08-17T09:12:37.569Z</time>
      </trkpt>
      <trkpt lat="44.25339" lon="0.83726">
        <ele>196</ele>
        <time>2025-08-17T09:12:38.569Z</time>
      </trkpt>
      <trkpt lat="44.25339" lon="0.83725">
        <ele>195</ele>
        <time>2025-08-17T09:12:39.569Z</time>
      </trkpt>
      <trkpt lat="44.25339" lon="0.83724">
        <ele>195</ele>
        <time>2025-08-17T09:12:40.569Z</time>
      </trkpt>
      <trkpt lat="44.25339" lon="0.83723">
        <ele>195</ele>
        <time>2025-08-17T09:12:41.569Z</time>
      </trkpt>
      <trkpt lat="44.2534" lon="0.83722">
        <ele>195</ele>
        <time>2025-08-17T09:12:42.569Z</time>
      </trkpt>
      <trkpt lat="44.25339" lon="0.83721">
        <ele>195</ele>
        <time>2025-08-17T09:12:43.569Z</time>
      </trkpt>
      <trkpt lat="44.25339" lon="0.83721">
        <ele>195</ele>
        <time>2025-08-17T09:12:44.569Z</time>
      </trkpt>
      <trkpt lat="44.25339" lon="0.83721">
        <ele>195</ele>
        <time>2025-08-17T09:12:45.569Z</time>
      </trkpt>
      <trkpt lat="44.25339" lon="0.83721">
        <ele>195</ele>
        <time>2025-08-17T09:12:46.569Z</time>
      </trkpt>
      <trkpt lat="44.25339" lon="0.83721">
        <ele>196</ele>
        <time>2025-08-17T09:12:47.569Z</time>
      </trkpt>
      <trkpt lat="44.25339" lon="0.83721">
        <ele>196</ele>
        <time>2025-08-17T09:12:48.569Z</time>
      </trkpt>
      <trkpt lat="44.25339" lon="0.83721">
        <ele>197</ele>
        <time>2025-08-17T09:12:49.569Z</time>
      </trkpt>
      <trkpt lat="44.25339" lon="0.83721">
        <ele>197</ele>
        <time>2025-08-17T09:12:50.569Z</time>
      </trkpt>
      <trkpt lat="44.25339" lon="0.83721">
        <ele>197</ele>
        <time>2025-08-17T09:12:51.569Z</time>
      </trkpt>
      <trkpt lat="44.25339" lon="0.83721">
        <ele>198</ele>
        <time>2025-08-17T09:12:52.569Z</time>
      </trkpt>
      <trkpt lat="44.25339" lon="0.83721">
        <ele>198</ele>
        <time>2025-08-17T09:12:53.569Z</time>
      </trkpt>
      <trkpt lat="44.2534" lon="0.83721">
        <ele>198</ele>
        <time>2025-08-17T09:12:54.569Z</time>
      </trkpt>
      <trkpt lat="44.2534" lon="0.8372">
        <ele>199</ele>
        <time>2025-08-17T09:12:55.569Z</time>
      </trkpt>
      <trkpt lat="44.2534" lon="0.8372">
        <ele>199</ele>
        <time>2025-08-17T09:12:56.569Z</time>
      </trkpt>
      <trkpt lat="44.25341" lon="0.83719">
        <ele>198</ele>
        <time>2025-08-17T09:12:57.569Z</time>
      </trkpt>
      <trkpt lat="44.25341" lon="0.83719">
        <ele>198</ele>
        <time>2025-08-17T09:12:58.569Z</time>
      </trkpt>
      <trkpt lat="44.25341" lon="0.83719">
        <ele>197</ele>
        <time>2025-08-17T09:12:59.569Z</time>
      </trkpt>
      <trkpt lat="44.25341" lon="0.83719">
        <ele>196</ele>
        <time>2025-08-17T09:13:00.569Z</time>
      </trkpt>
      <trkpt lat="44.25342" lon="0.83719">
        <ele>196</ele>
        <time>2025-08-17T09:13:01.569Z</time>
      </trkpt>
      <trkpt lat="44.25342" lon="0.83719">
        <ele>195</ele>
        <time>2025-08-17T09:13:02.569Z</time>
      </trkpt>
    </trkseg>
  </trk>
</gpx>